<?xml version="1.0" encoding="UTF-8"?>
<gpx version="1.1" creator="https://www.youtrack.es" xsi:schemaLocation="http://www.topografix.com/GPX/1/1 http://www.topografix.com/GPX/1/1/gpx.xsd http://www.garmin.com/xmlschemas/GpxExtensions/v3 http://www.garmin.com/xmlschemas/GpxExtensionsv3.xsd http://www.garmin.com/xmlschemas/TrackPointExtension/v1 http://www.garmin.com/xmlschemas/TrackPointExtensionv1.xsd" xmlns:gpxtpx="http://www.garmin.com/xmlschemas/TrackPointExtension/v1" xmlns:gpxx="http://www.garmin.com/xmlschemas/GpxExtensions/v3" xmlns:xsi="http://www.w3.org/2001/XMLSchema-instance">
  <metadata>
    <link href="https://www.youtrack.es">
      <text>YouTrack.es</text>
    </link>
    <time>2026-05-10T17:43:01Z</time>
  </metadata>
  <trk>
    <src>https://www.youtrack.es</src>
    <link href="https://www.youtrack.es/ruta/35702-carballino-pontevedra">
      <text>YouTrack.es</text>
    </link>
    <trkseg>
      <trkpt lat="42.4233940" lon="-8.0982290">
        <ele>367.4</ele>
        <time>2022-08-27T07:22:58Z</time>
      </trkpt>
      <trkpt lat="42.4235940" lon="-8.0981740">
        <ele>367.4</ele>
        <time>2022-08-27T07:23:06Z</time>
      </trkpt>
      <trkpt lat="42.4236210" lon="-8.0981820">
        <ele>367.0</ele>
        <time>2022-08-27T07:23:11Z</time>
      </trkpt>
      <trkpt lat="42.4235740" lon="-8.0975920">
        <ele>372.6</ele>
        <time>2022-08-27T07:25:32Z</time>
      </trkpt>
      <trkpt lat="42.4235760" lon="-8.0974880">
        <ele>373.2</ele>
        <time>2022-08-27T07:25:37Z</time>
      </trkpt>
      <trkpt lat="42.4235910" lon="-8.0974480">
        <ele>373.4</ele>
        <time>2022-08-27T07:25:39Z</time>
      </trkpt>
      <trkpt lat="42.4236120" lon="-8.0974140">
        <ele>373.6</ele>
        <time>2022-08-27T07:25:41Z</time>
      </trkpt>
      <trkpt lat="42.4236510" lon="-8.0973750">
        <ele>373.8</ele>
        <time>2022-08-27T07:25:44Z</time>
      </trkpt>
      <trkpt lat="42.4237510" lon="-8.0972840">
        <ele>374.8</ele>
        <time>2022-08-27T07:25:52Z</time>
      </trkpt>
      <trkpt lat="42.4238250" lon="-8.0972270">
        <ele>375.8</ele>
        <time>2022-08-27T07:25:58Z</time>
      </trkpt>
      <trkpt lat="42.4238420" lon="-8.0972180">
        <ele>376.0</ele>
        <time>2022-08-27T07:25:59Z</time>
      </trkpt>
      <trkpt lat="42.4239660" lon="-8.0971000">
        <ele>376.6</ele>
        <time>2022-08-27T07:26:07Z</time>
      </trkpt>
      <trkpt lat="42.4240350" lon="-8.0969910">
        <ele>376.6</ele>
        <time>2022-08-27T07:26:11Z</time>
      </trkpt>
      <trkpt lat="42.4240550" lon="-8.0969350">
        <ele>376.4</ele>
        <time>2022-08-27T07:26:15Z</time>
      </trkpt>
      <trkpt lat="42.4240590" lon="-8.0969010">
        <ele>375.8</ele>
        <time>2022-08-27T07:26:17Z</time>
      </trkpt>
      <trkpt lat="42.4240640" lon="-8.0968950">
        <ele>375.6</ele>
        <time>2022-08-27T07:26:19Z</time>
      </trkpt>
      <trkpt lat="42.4241410" lon="-8.0965330">
        <ele>379.0</ele>
        <time>2022-08-27T07:30:59Z</time>
      </trkpt>
      <trkpt lat="42.4241400" lon="-8.0965460">
        <ele>379.0</ele>
        <time>2022-08-27T07:31:00Z</time>
      </trkpt>
      <trkpt lat="42.4241280" lon="-8.0966340">
        <ele>379.0</ele>
        <time>2022-08-27T07:31:04Z</time>
      </trkpt>
      <trkpt lat="42.4241230" lon="-8.0966740">
        <ele>379.0</ele>
        <time>2022-08-27T07:31:05Z</time>
      </trkpt>
      <trkpt lat="42.4240630" lon="-8.0968390">
        <ele>379.0</ele>
        <time>2022-08-27T07:31:09Z</time>
      </trkpt>
      <trkpt lat="42.4240430" lon="-8.0969230">
        <ele>378.4</ele>
        <time>2022-08-27T07:31:13Z</time>
      </trkpt>
      <trkpt lat="42.4240430" lon="-8.0969260">
        <ele>378.0</ele>
        <time>2022-08-27T07:31:14Z</time>
      </trkpt>
      <trkpt lat="42.4240430" lon="-8.0969290">
        <ele>377.6</ele>
        <time>2022-08-27T07:31:15Z</time>
      </trkpt>
      <trkpt lat="42.4240990" lon="-8.0968650">
        <ele>375.4</ele>
        <time>2022-08-27T07:31:57Z</time>
      </trkpt>
      <trkpt lat="42.4241260" lon="-8.0968170">
        <ele>375.4</ele>
        <time>2022-08-27T07:31:59Z</time>
      </trkpt>
      <trkpt lat="42.4242200" lon="-8.0966400">
        <ele>375.2</ele>
        <time>2022-08-27T07:32:05Z</time>
      </trkpt>
      <trkpt lat="42.4242680" lon="-8.0964350">
        <ele>374.4</ele>
        <time>2022-08-27T07:32:12Z</time>
      </trkpt>
      <trkpt lat="42.4243210" lon="-8.0963130">
        <ele>373.4</ele>
        <time>2022-08-27T07:32:16Z</time>
      </trkpt>
      <trkpt lat="42.4243230" lon="-8.0962920">
        <ele>373.0</ele>
        <time>2022-08-27T07:32:17Z</time>
      </trkpt>
      <trkpt lat="42.4243210" lon="-8.0962790">
        <ele>372.0</ele>
        <time>2022-08-27T07:32:19Z</time>
      </trkpt>
      <trkpt lat="42.4243250" lon="-8.0962790">
        <ele>371.2</ele>
        <time>2022-08-27T07:32:20Z</time>
      </trkpt>
      <trkpt lat="42.4242970" lon="-8.0961450">
        <ele>367.2</ele>
        <time>2022-08-27T07:32:55Z</time>
      </trkpt>
      <trkpt lat="42.4241840" lon="-8.0960350">
        <ele>367.0</ele>
        <time>2022-08-27T07:32:59Z</time>
      </trkpt>
      <trkpt lat="42.4241520" lon="-8.0960080">
        <ele>367.0</ele>
        <time>2022-08-27T07:33:00Z</time>
      </trkpt>
      <trkpt lat="42.4240430" lon="-8.0959760">
        <ele>366.8</ele>
        <time>2022-08-27T07:33:03Z</time>
      </trkpt>
      <trkpt lat="42.4238500" lon="-8.0959840">
        <ele>366.2</ele>
        <time>2022-08-27T07:33:08Z</time>
      </trkpt>
      <trkpt lat="42.4236350" lon="-8.0960300">
        <ele>366.2</ele>
        <time>2022-08-27T07:33:14Z</time>
      </trkpt>
      <trkpt lat="42.4234410" lon="-8.0960030">
        <ele>366.2</ele>
        <time>2022-08-27T07:33:20Z</time>
      </trkpt>
      <trkpt lat="42.4232520" lon="-8.0959040">
        <ele>366.4</ele>
        <time>2022-08-27T07:33:26Z</time>
      </trkpt>
      <trkpt lat="42.4230520" lon="-8.0957110">
        <ele>366.4</ele>
        <time>2022-08-27T07:33:32Z</time>
      </trkpt>
      <trkpt lat="42.4228240" lon="-8.0954840">
        <ele>366.2</ele>
        <time>2022-08-27T07:33:39Z</time>
      </trkpt>
      <trkpt lat="42.4226670" lon="-8.0953000">
        <ele>366.2</ele>
        <time>2022-08-27T07:33:45Z</time>
      </trkpt>
      <trkpt lat="42.4225360" lon="-8.0951570">
        <ele>366.2</ele>
        <time>2022-08-27T07:33:50Z</time>
      </trkpt>
      <trkpt lat="42.4223990" lon="-8.0949300">
        <ele>366.4</ele>
        <time>2022-08-27T07:33:56Z</time>
      </trkpt>
      <trkpt lat="42.4223510" lon="-8.0946940">
        <ele>366.6</ele>
        <time>2022-08-27T07:34:01Z</time>
      </trkpt>
      <trkpt lat="42.4223370" lon="-8.0943960">
        <ele>366.6</ele>
        <time>2022-08-27T07:34:07Z</time>
      </trkpt>
      <trkpt lat="42.4223190" lon="-8.0940710">
        <ele>366.8</ele>
        <time>2022-08-27T07:34:14Z</time>
      </trkpt>
      <trkpt lat="42.4223130" lon="-8.0937990">
        <ele>367.0</ele>
        <time>2022-08-27T07:34:20Z</time>
      </trkpt>
      <trkpt lat="42.4222840" lon="-8.0935330">
        <ele>367.2</ele>
        <time>2022-08-27T07:34:26Z</time>
      </trkpt>
      <trkpt lat="42.4222970" lon="-8.0933100">
        <ele>367.2</ele>
        <time>2022-08-27T07:34:32Z</time>
      </trkpt>
      <trkpt lat="42.4223530" lon="-8.0931300">
        <ele>368.0</ele>
        <time>2022-08-27T07:34:37Z</time>
      </trkpt>
      <trkpt lat="42.4223740" lon="-8.0930160">
        <ele>368.4</ele>
        <time>2022-08-27T07:34:40Z</time>
      </trkpt>
      <trkpt lat="42.4224470" lon="-8.0927580">
        <ele>368.8</ele>
        <time>2022-08-27T07:34:47Z</time>
      </trkpt>
      <trkpt lat="42.4225230" lon="-8.0926380">
        <ele>369.0</ele>
        <time>2022-08-27T07:34:50Z</time>
      </trkpt>
      <trkpt lat="42.4225850" lon="-8.0925590">
        <ele>369.2</ele>
        <time>2022-08-27T07:34:52Z</time>
      </trkpt>
      <trkpt lat="42.4227140" lon="-8.0924180">
        <ele>369.2</ele>
        <time>2022-08-27T07:34:57Z</time>
      </trkpt>
      <trkpt lat="42.4228320" lon="-8.0924270">
        <ele>369.2</ele>
        <time>2022-08-27T07:35:01Z</time>
      </trkpt>
      <trkpt lat="42.4229850" lon="-8.0924720">
        <ele>369.2</ele>
        <time>2022-08-27T07:35:05Z</time>
      </trkpt>
      <trkpt lat="42.4232090" lon="-8.0924360">
        <ele>368.8</ele>
        <time>2022-08-27T07:35:11Z</time>
      </trkpt>
      <trkpt lat="42.4233740" lon="-8.0924950">
        <ele>368.4</ele>
        <time>2022-08-27T07:35:16Z</time>
      </trkpt>
      <trkpt lat="42.4235900" lon="-8.0925860">
        <ele>368.2</ele>
        <time>2022-08-27T07:35:23Z</time>
      </trkpt>
      <trkpt lat="42.4237310" lon="-8.0926810">
        <ele>368.2</ele>
        <time>2022-08-27T07:35:28Z</time>
      </trkpt>
      <trkpt lat="42.4239010" lon="-8.0928010">
        <ele>368.2</ele>
        <time>2022-08-27T07:35:34Z</time>
      </trkpt>
      <trkpt lat="42.4240460" lon="-8.0929640">
        <ele>368.2</ele>
        <time>2022-08-27T07:35:40Z</time>
      </trkpt>
      <trkpt lat="42.4242240" lon="-8.0932590">
        <ele>368.4</ele>
        <time>2022-08-27T07:35:48Z</time>
      </trkpt>
      <trkpt lat="42.4244320" lon="-8.0935720">
        <ele>368.8</ele>
        <time>2022-08-27T07:35:56Z</time>
      </trkpt>
      <trkpt lat="42.4245650" lon="-8.0937280">
        <ele>369.0</ele>
        <time>2022-08-27T07:36:01Z</time>
      </trkpt>
      <trkpt lat="42.4246560" lon="-8.0937920">
        <ele>369.0</ele>
        <time>2022-08-27T07:36:06Z</time>
      </trkpt>
      <trkpt lat="42.4247970" lon="-8.0938210">
        <ele>369.8</ele>
        <time>2022-08-27T07:36:12Z</time>
      </trkpt>
      <trkpt lat="42.4248250" lon="-8.0938290">
        <ele>370.2</ele>
        <time>2022-08-27T07:36:13Z</time>
      </trkpt>
      <trkpt lat="42.4250010" lon="-8.0938410">
        <ele>370.8</ele>
        <time>2022-08-27T07:36:18Z</time>
      </trkpt>
      <trkpt lat="42.4253450" lon="-8.0937590">
        <ele>370.6</ele>
        <time>2022-08-27T07:36:27Z</time>
      </trkpt>
      <trkpt lat="42.4256260" lon="-8.0936870">
        <ele>370.4</ele>
        <time>2022-08-27T07:36:34Z</time>
      </trkpt>
      <trkpt lat="42.4259070" lon="-8.0936270">
        <ele>370.2</ele>
        <time>2022-08-27T07:36:41Z</time>
      </trkpt>
      <trkpt lat="42.4261350" lon="-8.0935900">
        <ele>370.0</ele>
        <time>2022-08-27T07:36:47Z</time>
      </trkpt>
      <trkpt lat="42.4264050" lon="-8.0935100">
        <ele>370.0</ele>
        <time>2022-08-27T07:36:54Z</time>
      </trkpt>
      <trkpt lat="42.4266930" lon="-8.0933440">
        <ele>370.0</ele>
        <time>2022-08-27T07:37:02Z</time>
      </trkpt>
      <trkpt lat="42.4269020" lon="-8.0931200">
        <ele>370.4</ele>
        <time>2022-08-27T07:37:09Z</time>
      </trkpt>
      <trkpt lat="42.4270930" lon="-8.0928470">
        <ele>370.4</ele>
        <time>2022-08-27T07:37:16Z</time>
      </trkpt>
      <trkpt lat="42.4272840" lon="-8.0925660">
        <ele>370.4</ele>
        <time>2022-08-27T07:37:23Z</time>
      </trkpt>
      <trkpt lat="42.4274720" lon="-8.0922900">
        <ele>370.4</ele>
        <time>2022-08-27T07:37:30Z</time>
      </trkpt>
      <trkpt lat="42.4276540" lon="-8.0920170">
        <ele>370.4</ele>
        <time>2022-08-27T07:37:37Z</time>
      </trkpt>
      <trkpt lat="42.4278050" lon="-8.0917860">
        <ele>370.4</ele>
        <time>2022-08-27T07:37:43Z</time>
      </trkpt>
      <trkpt lat="42.4280100" lon="-8.0914830">
        <ele>370.6</ele>
        <time>2022-08-27T07:37:51Z</time>
      </trkpt>
      <trkpt lat="42.4281900" lon="-8.0912140">
        <ele>371.0</ele>
        <time>2022-08-27T07:37:58Z</time>
      </trkpt>
      <trkpt lat="42.4283140" lon="-8.0910210">
        <ele>371.2</ele>
        <time>2022-08-27T07:38:03Z</time>
      </trkpt>
      <trkpt lat="42.4284930" lon="-8.0907720">
        <ele>371.4</ele>
        <time>2022-08-27T07:38:10Z</time>
      </trkpt>
      <trkpt lat="42.4286030" lon="-8.0905820">
        <ele>371.8</ele>
        <time>2022-08-27T07:38:15Z</time>
      </trkpt>
      <trkpt lat="42.4287400" lon="-8.0903120">
        <ele>372.2</ele>
        <time>2022-08-27T07:38:22Z</time>
      </trkpt>
      <trkpt lat="42.4287910" lon="-8.0902100">
        <ele>372.2</ele>
        <time>2022-08-27T07:38:25Z</time>
      </trkpt>
      <trkpt lat="42.4288280" lon="-8.0900920">
        <ele>372.2</ele>
        <time>2022-08-27T07:38:28Z</time>
      </trkpt>
      <trkpt lat="42.4289330" lon="-8.0898030">
        <ele>372.4</ele>
        <time>2022-08-27T07:38:34Z</time>
      </trkpt>
      <trkpt lat="42.4290660" lon="-8.0894510">
        <ele>372.4</ele>
        <time>2022-08-27T07:38:41Z</time>
      </trkpt>
      <trkpt lat="42.4291800" lon="-8.0891600">
        <ele>372.0</ele>
        <time>2022-08-27T07:38:47Z</time>
      </trkpt>
      <trkpt lat="42.4292290" lon="-8.0889870">
        <ele>371.8</ele>
        <time>2022-08-27T07:38:51Z</time>
      </trkpt>
      <trkpt lat="42.4292320" lon="-8.0887320">
        <ele>371.4</ele>
        <time>2022-08-27T07:38:56Z</time>
      </trkpt>
      <trkpt lat="42.4292360" lon="-8.0886790">
        <ele>371.4</ele>
        <time>2022-08-27T07:38:57Z</time>
      </trkpt>
      <trkpt lat="42.4292590" lon="-8.0885680">
        <ele>371.2</ele>
        <time>2022-08-27T07:38:59Z</time>
      </trkpt>
      <trkpt lat="42.4293080" lon="-8.0884570">
        <ele>371.2</ele>
        <time>2022-08-27T07:39:01Z</time>
      </trkpt>
      <trkpt lat="42.4294170" lon="-8.0882300">
        <ele>371.0</ele>
        <time>2022-08-27T07:39:05Z</time>
      </trkpt>
      <trkpt lat="42.4294850" lon="-8.0881120">
        <ele>371.0</ele>
        <time>2022-08-27T07:39:07Z</time>
      </trkpt>
      <trkpt lat="42.4296740" lon="-8.0877850">
        <ele>370.6</ele>
        <time>2022-08-27T07:39:13Z</time>
      </trkpt>
      <trkpt lat="42.4297070" lon="-8.0877380">
        <ele>370.4</ele>
        <time>2022-08-27T07:39:14Z</time>
      </trkpt>
      <trkpt lat="42.4299340" lon="-8.0873830">
        <ele>370.0</ele>
        <time>2022-08-27T07:39:22Z</time>
      </trkpt>
      <trkpt lat="42.4300080" lon="-8.0872480">
        <ele>370.0</ele>
        <time>2022-08-27T07:39:25Z</time>
      </trkpt>
      <trkpt lat="42.4300770" lon="-8.0871810">
        <ele>370.0</ele>
        <time>2022-08-27T07:39:27Z</time>
      </trkpt>
      <trkpt lat="42.4302190" lon="-8.0870210">
        <ele>370.0</ele>
        <time>2022-08-27T07:39:31Z</time>
      </trkpt>
      <trkpt lat="42.4302480" lon="-8.0869690">
        <ele>370.0</ele>
        <time>2022-08-27T07:39:32Z</time>
      </trkpt>
      <trkpt lat="42.4302800" lon="-8.0867260">
        <ele>370.0</ele>
        <time>2022-08-27T07:39:36Z</time>
      </trkpt>
      <trkpt lat="42.4302650" lon="-8.0864360">
        <ele>370.2</ele>
        <time>2022-08-27T07:39:41Z</time>
      </trkpt>
      <trkpt lat="42.4302420" lon="-8.0863310">
        <ele>370.2</ele>
        <time>2022-08-27T07:39:43Z</time>
      </trkpt>
      <trkpt lat="42.4301550" lon="-8.0860440">
        <ele>370.2</ele>
        <time>2022-08-27T07:39:49Z</time>
      </trkpt>
      <trkpt lat="42.4300850" lon="-8.0858340">
        <ele>370.4</ele>
        <time>2022-08-27T07:39:54Z</time>
      </trkpt>
      <trkpt lat="42.4299950" lon="-8.0855630">
        <ele>370.8</ele>
        <time>2022-08-27T07:40:00Z</time>
      </trkpt>
      <trkpt lat="42.4299430" lon="-8.0854110">
        <ele>371.2</ele>
        <time>2022-08-27T07:40:03Z</time>
      </trkpt>
      <trkpt lat="42.4299210" lon="-8.0852940">
        <ele>371.2</ele>
        <time>2022-08-27T07:40:05Z</time>
      </trkpt>
      <trkpt lat="42.4299100" lon="-8.0851080">
        <ele>371.2</ele>
        <time>2022-08-27T07:40:08Z</time>
      </trkpt>
      <trkpt lat="42.4299370" lon="-8.0849080">
        <ele>371.2</ele>
        <time>2022-08-27T07:40:11Z</time>
      </trkpt>
      <trkpt lat="42.4299770" lon="-8.0847670">
        <ele>371.2</ele>
        <time>2022-08-27T07:40:13Z</time>
      </trkpt>
      <trkpt lat="42.4300570" lon="-8.0846220">
        <ele>371.2</ele>
        <time>2022-08-27T07:40:15Z</time>
      </trkpt>
      <trkpt lat="42.4301230" lon="-8.0844900">
        <ele>371.0</ele>
        <time>2022-08-27T07:40:17Z</time>
      </trkpt>
      <trkpt lat="42.4301590" lon="-8.0844250">
        <ele>371.0</ele>
        <time>2022-08-27T07:40:18Z</time>
      </trkpt>
      <trkpt lat="42.4303270" lon="-8.0842090">
        <ele>371.0</ele>
        <time>2022-08-27T07:40:22Z</time>
      </trkpt>
      <trkpt lat="42.4306260" lon="-8.0838990">
        <ele>370.6</ele>
        <time>2022-08-27T07:40:30Z</time>
      </trkpt>
      <trkpt lat="42.4307680" lon="-8.0836700">
        <ele>370.6</ele>
        <time>2022-08-27T07:40:36Z</time>
      </trkpt>
      <trkpt lat="42.4308100" lon="-8.0834520">
        <ele>371.2</ele>
        <time>2022-08-27T07:40:42Z</time>
      </trkpt>
      <trkpt lat="42.4308220" lon="-8.0832870">
        <ele>372.0</ele>
        <time>2022-08-27T07:40:47Z</time>
      </trkpt>
      <trkpt lat="42.4308220" lon="-8.0832200">
        <ele>372.2</ele>
        <time>2022-08-27T07:40:49Z</time>
      </trkpt>
      <trkpt lat="42.4308130" lon="-8.0830940">
        <ele>373.0</ele>
        <time>2022-08-27T07:40:53Z</time>
      </trkpt>
      <trkpt lat="42.4307920" lon="-8.0830120">
        <ele>373.6</ele>
        <time>2022-08-27T07:40:56Z</time>
      </trkpt>
      <trkpt lat="42.4307680" lon="-8.0829330">
        <ele>374.2</ele>
        <time>2022-08-27T07:40:59Z</time>
      </trkpt>
      <trkpt lat="42.4307180" lon="-8.0828370">
        <ele>374.6</ele>
        <time>2022-08-27T07:41:03Z</time>
      </trkpt>
      <trkpt lat="42.4306970" lon="-8.0827980">
        <ele>375.2</ele>
        <time>2022-08-27T07:41:05Z</time>
      </trkpt>
      <trkpt lat="42.4306650" lon="-8.0826990">
        <ele>376.0</ele>
        <time>2022-08-27T07:41:10Z</time>
      </trkpt>
      <trkpt lat="42.4306570" lon="-8.0826770">
        <ele>376.2</ele>
        <time>2022-08-27T07:41:11Z</time>
      </trkpt>
      <trkpt lat="42.4306270" lon="-8.0825640">
        <ele>377.0</ele>
        <time>2022-08-27T07:41:16Z</time>
      </trkpt>
      <trkpt lat="42.4306290" lon="-8.0825310">
        <ele>377.2</ele>
        <time>2022-08-27T07:41:17Z</time>
      </trkpt>
      <trkpt lat="42.4306090" lon="-8.0824460">
        <ele>377.8</ele>
        <time>2022-08-27T07:41:20Z</time>
      </trkpt>
      <trkpt lat="42.4305900" lon="-8.0823930">
        <ele>378.4</ele>
        <time>2022-08-27T07:41:22Z</time>
      </trkpt>
      <trkpt lat="42.4305770" lon="-8.0823380">
        <ele>378.8</ele>
        <time>2022-08-27T07:41:24Z</time>
      </trkpt>
      <trkpt lat="42.4305570" lon="-8.0822520">
        <ele>379.2</ele>
        <time>2022-08-27T07:41:28Z</time>
      </trkpt>
      <trkpt lat="42.4305520" lon="-8.0822290">
        <ele>379.4</ele>
        <time>2022-08-27T07:41:29Z</time>
      </trkpt>
      <trkpt lat="42.4305060" lon="-8.0821240">
        <ele>380.2</ele>
        <time>2022-08-27T07:41:34Z</time>
      </trkpt>
      <trkpt lat="42.4305010" lon="-8.0820870">
        <ele>380.6</ele>
        <time>2022-08-27T07:41:36Z</time>
      </trkpt>
      <trkpt lat="42.4304890" lon="-8.0820040">
        <ele>381.2</ele>
        <time>2022-08-27T07:41:39Z</time>
      </trkpt>
      <trkpt lat="42.4304940" lon="-8.0819760">
        <ele>381.4</ele>
        <time>2022-08-27T07:41:40Z</time>
      </trkpt>
      <trkpt lat="42.4305130" lon="-8.0819180">
        <ele>381.6</ele>
        <time>2022-08-27T07:41:42Z</time>
      </trkpt>
      <trkpt lat="42.4305400" lon="-8.0818570">
        <ele>381.8</ele>
        <time>2022-08-27T07:41:44Z</time>
      </trkpt>
      <trkpt lat="42.4306130" lon="-8.0817700">
        <ele>382.6</ele>
        <time>2022-08-27T07:41:48Z</time>
      </trkpt>
      <trkpt lat="42.4306710" lon="-8.0817280">
        <ele>383.2</ele>
        <time>2022-08-27T07:41:51Z</time>
      </trkpt>
      <trkpt lat="42.4307460" lon="-8.0816830">
        <ele>383.8</ele>
        <time>2022-08-27T07:41:55Z</time>
      </trkpt>
      <trkpt lat="42.4307750" lon="-8.0816550">
        <ele>383.8</ele>
        <time>2022-08-27T07:41:57Z</time>
      </trkpt>
      <trkpt lat="42.4309000" lon="-8.0815670">
        <ele>384.6</ele>
        <time>2022-08-27T07:42:03Z</time>
      </trkpt>
      <trkpt lat="42.4309370" lon="-8.0815410">
        <ele>384.8</ele>
        <time>2022-08-27T07:42:05Z</time>
      </trkpt>
      <trkpt lat="42.4310400" lon="-8.0814580">
        <ele>385.8</ele>
        <time>2022-08-27T07:42:11Z</time>
      </trkpt>
      <trkpt lat="42.4310610" lon="-8.0814430">
        <ele>385.8</ele>
        <time>2022-08-27T07:42:12Z</time>
      </trkpt>
      <trkpt lat="42.4312060" lon="-8.0813320">
        <ele>387.0</ele>
        <time>2022-08-27T07:42:19Z</time>
      </trkpt>
      <trkpt lat="42.4313370" lon="-8.0812140">
        <ele>387.6</ele>
        <time>2022-08-27T07:42:26Z</time>
      </trkpt>
      <trkpt lat="42.4313980" lon="-8.0811460">
        <ele>387.8</ele>
        <time>2022-08-27T07:42:29Z</time>
      </trkpt>
      <trkpt lat="42.4315170" lon="-8.0810250">
        <ele>388.4</ele>
        <time>2022-08-27T07:42:35Z</time>
      </trkpt>
      <trkpt lat="42.4316180" lon="-8.0809280">
        <ele>388.8</ele>
        <time>2022-08-27T07:42:40Z</time>
      </trkpt>
      <trkpt lat="42.4316740" lon="-8.0808790">
        <ele>389.0</ele>
        <time>2022-08-27T07:42:43Z</time>
      </trkpt>
      <trkpt lat="42.4318000" lon="-8.0807700">
        <ele>389.2</ele>
        <time>2022-08-27T07:42:51Z</time>
      </trkpt>
      <trkpt lat="42.4318110" lon="-8.0807460">
        <ele>389.2</ele>
        <time>2022-08-27T07:42:55Z</time>
      </trkpt>
      <trkpt lat="42.4317920" lon="-8.0807760">
        <ele>389.2</ele>
        <time>2022-08-27T07:43:00Z</time>
      </trkpt>
      <trkpt lat="42.4317670" lon="-8.0808110">
        <ele>389.2</ele>
        <time>2022-08-27T07:43:03Z</time>
      </trkpt>
      <trkpt lat="42.4317650" lon="-8.0808150">
        <ele>389.2</ele>
        <time>2022-08-27T07:43:05Z</time>
      </trkpt>
      <trkpt lat="42.4318690" lon="-8.0806060">
        <ele>390.2</ele>
        <time>2022-08-27T08:04:09Z</time>
      </trkpt>
      <trkpt lat="42.4318790" lon="-8.0805820">
        <ele>390.2</ele>
        <time>2022-08-27T08:04:10Z</time>
      </trkpt>
      <trkpt lat="42.4319640" lon="-8.0805120">
        <ele>390.2</ele>
        <time>2022-08-27T08:04:15Z</time>
      </trkpt>
      <trkpt lat="42.4320210" lon="-8.0804530">
        <ele>390.2</ele>
        <time>2022-08-27T08:04:20Z</time>
      </trkpt>
      <trkpt lat="42.4320220" lon="-8.0804310">
        <ele>390.2</ele>
        <time>2022-08-27T08:04:21Z</time>
      </trkpt>
      <trkpt lat="42.4320200" lon="-8.0803700">
        <ele>390.0</ele>
        <time>2022-08-27T08:04:24Z</time>
      </trkpt>
      <trkpt lat="42.4319680" lon="-8.0803110">
        <ele>390.0</ele>
        <time>2022-08-27T08:04:28Z</time>
      </trkpt>
      <trkpt lat="42.4319540" lon="-8.0802990">
        <ele>390.0</ele>
        <time>2022-08-27T08:04:29Z</time>
      </trkpt>
      <trkpt lat="42.4318980" lon="-8.0802520">
        <ele>390.2</ele>
        <time>2022-08-27T08:04:35Z</time>
      </trkpt>
      <trkpt lat="42.4318570" lon="-8.0802020">
        <ele>391.2</ele>
        <time>2022-08-27T08:04:39Z</time>
      </trkpt>
      <trkpt lat="42.4318340" lon="-8.0801520">
        <ele>392.2</ele>
        <time>2022-08-27T08:04:42Z</time>
      </trkpt>
      <trkpt lat="42.4318230" lon="-8.0801400">
        <ele>392.6</ele>
        <time>2022-08-27T08:04:43Z</time>
      </trkpt>
      <trkpt lat="42.4317430" lon="-8.0801400">
        <ele>393.4</ele>
        <time>2022-08-27T08:04:48Z</time>
      </trkpt>
      <trkpt lat="42.4316540" lon="-8.0802170">
        <ele>394.0</ele>
        <time>2022-08-27T08:04:54Z</time>
      </trkpt>
      <trkpt lat="42.4315510" lon="-8.0803180">
        <ele>394.2</ele>
        <time>2022-08-27T08:05:01Z</time>
      </trkpt>
      <trkpt lat="42.4314340" lon="-8.0805030">
        <ele>393.8</ele>
        <time>2022-08-27T08:05:09Z</time>
      </trkpt>
      <trkpt lat="42.4313330" lon="-8.0806330">
        <ele>393.4</ele>
        <time>2022-08-27T08:05:15Z</time>
      </trkpt>
      <trkpt lat="42.4312730" lon="-8.0806700">
        <ele>393.2</ele>
        <time>2022-08-27T08:05:22Z</time>
      </trkpt>
      <trkpt lat="42.4312580" lon="-8.0806660">
        <ele>393.2</ele>
        <time>2022-08-27T08:05:23Z</time>
      </trkpt>
      <trkpt lat="42.4312010" lon="-8.0806000">
        <ele>393.2</ele>
        <time>2022-08-27T08:05:27Z</time>
      </trkpt>
      <trkpt lat="42.4311850" lon="-8.0805730">
        <ele>393.2</ele>
        <time>2022-08-27T08:05:28Z</time>
      </trkpt>
      <trkpt lat="42.4310670" lon="-8.0804130">
        <ele>393.2</ele>
        <time>2022-08-27T08:05:34Z</time>
      </trkpt>
      <trkpt lat="42.4309610" lon="-8.0803110">
        <ele>394.6</ele>
        <time>2022-08-27T08:05:39Z</time>
      </trkpt>
      <trkpt lat="42.4308750" lon="-8.0802700">
        <ele>395.8</ele>
        <time>2022-08-27T08:05:43Z</time>
      </trkpt>
      <trkpt lat="42.4308540" lon="-8.0802460">
        <ele>396.6</ele>
        <time>2022-08-27T08:05:45Z</time>
      </trkpt>
      <trkpt lat="42.4308350" lon="-8.0802230">
        <ele>397.2</ele>
        <time>2022-08-27T08:05:47Z</time>
      </trkpt>
      <trkpt lat="42.4308270" lon="-8.0801570">
        <ele>398.2</ele>
        <time>2022-08-27T08:05:52Z</time>
      </trkpt>
      <trkpt lat="42.4308280" lon="-8.0801420">
        <ele>398.2</ele>
        <time>2022-08-27T08:05:53Z</time>
      </trkpt>
      <trkpt lat="42.4307970" lon="-8.0800730">
        <ele>399.0</ele>
        <time>2022-08-27T08:05:58Z</time>
      </trkpt>
      <trkpt lat="42.4307930" lon="-8.0800640">
        <ele>399.2</ele>
        <time>2022-08-27T08:05:59Z</time>
      </trkpt>
      <trkpt lat="42.4307790" lon="-8.0800260">
        <ele>399.6</ele>
        <time>2022-08-27T08:06:02Z</time>
      </trkpt>
      <trkpt lat="42.4307640" lon="-8.0799880">
        <ele>400.2</ele>
        <time>2022-08-27T08:06:05Z</time>
      </trkpt>
      <trkpt lat="42.4307470" lon="-8.0799690">
        <ele>400.4</ele>
        <time>2022-08-27T08:06:07Z</time>
      </trkpt>
      <trkpt lat="42.4306680" lon="-8.0799230">
        <ele>401.2</ele>
        <time>2022-08-27T08:06:12Z</time>
      </trkpt>
      <trkpt lat="42.4306520" lon="-8.0798890">
        <ele>401.4</ele>
        <time>2022-08-27T08:06:14Z</time>
      </trkpt>
      <trkpt lat="42.4305240" lon="-8.0796920">
        <ele>402.2</ele>
        <time>2022-08-27T08:06:21Z</time>
      </trkpt>
      <trkpt lat="42.4305160" lon="-8.0796690">
        <ele>402.4</ele>
        <time>2022-08-27T08:06:22Z</time>
      </trkpt>
      <trkpt lat="42.4305790" lon="-8.0795150">
        <ele>402.8</ele>
        <time>2022-08-27T08:06:26Z</time>
      </trkpt>
      <trkpt lat="42.4306500" lon="-8.0794460">
        <ele>403.8</ele>
        <time>2022-08-27T08:06:43Z</time>
      </trkpt>
      <trkpt lat="42.4306630" lon="-8.0794330">
        <ele>403.8</ele>
        <time>2022-08-27T08:06:44Z</time>
      </trkpt>
      <trkpt lat="42.4307560" lon="-8.0793160">
        <ele>404.2</ele>
        <time>2022-08-27T08:06:51Z</time>
      </trkpt>
      <trkpt lat="42.4308090" lon="-8.0792230">
        <ele>404.8</ele>
        <time>2022-08-27T08:06:56Z</time>
      </trkpt>
      <trkpt lat="42.4308150" lon="-8.0792030">
        <ele>405.0</ele>
        <time>2022-08-27T08:06:58Z</time>
      </trkpt>
      <trkpt lat="42.4308150" lon="-8.0791970">
        <ele>405.0</ele>
        <time>2022-08-27T08:06:59Z</time>
      </trkpt>
      <trkpt lat="42.4305320" lon="-8.0790180">
        <ele>406.4</ele>
        <time>2022-08-27T08:21:33Z</time>
      </trkpt>
      <trkpt lat="42.4304890" lon="-8.0790370">
        <ele>406.4</ele>
        <time>2022-08-27T08:21:35Z</time>
      </trkpt>
      <trkpt lat="42.4303330" lon="-8.0791450">
        <ele>406.4</ele>
        <time>2022-08-27T08:21:40Z</time>
      </trkpt>
      <trkpt lat="42.4301990" lon="-8.0794030">
        <ele>405.8</ele>
        <time>2022-08-27T08:21:45Z</time>
      </trkpt>
      <trkpt lat="42.4301390" lon="-8.0795140">
        <ele>405.4</ele>
        <time>2022-08-27T08:21:47Z</time>
      </trkpt>
      <trkpt lat="42.4301020" lon="-8.0795710">
        <ele>405.0</ele>
        <time>2022-08-27T08:21:48Z</time>
      </trkpt>
      <trkpt lat="42.4300180" lon="-8.0796690">
        <ele>404.4</ele>
        <time>2022-08-27T08:21:50Z</time>
      </trkpt>
      <trkpt lat="42.4299740" lon="-8.0797120">
        <ele>404.2</ele>
        <time>2022-08-27T08:21:51Z</time>
      </trkpt>
      <trkpt lat="42.4298270" lon="-8.0798530">
        <ele>403.0</ele>
        <time>2022-08-27T08:21:55Z</time>
      </trkpt>
      <trkpt lat="42.4297940" lon="-8.0798820">
        <ele>402.6</ele>
        <time>2022-08-27T08:21:56Z</time>
      </trkpt>
      <trkpt lat="42.4297250" lon="-8.0799350">
        <ele>401.4</ele>
        <time>2022-08-27T08:21:58Z</time>
      </trkpt>
      <trkpt lat="42.4296850" lon="-8.0799620">
        <ele>401.2</ele>
        <time>2022-08-27T08:21:59Z</time>
      </trkpt>
      <trkpt lat="42.4296070" lon="-8.0800220">
        <ele>400.4</ele>
        <time>2022-08-27T08:22:01Z</time>
      </trkpt>
      <trkpt lat="42.4295690" lon="-8.0800550">
        <ele>400.0</ele>
        <time>2022-08-27T08:22:02Z</time>
      </trkpt>
      <trkpt lat="42.4295310" lon="-8.0800920">
        <ele>399.6</ele>
        <time>2022-08-27T08:22:03Z</time>
      </trkpt>
      <trkpt lat="42.4294900" lon="-8.0801320">
        <ele>399.2</ele>
        <time>2022-08-27T08:22:04Z</time>
      </trkpt>
      <trkpt lat="42.4293450" lon="-8.0802760">
        <ele>398.4</ele>
        <time>2022-08-27T08:22:07Z</time>
      </trkpt>
      <trkpt lat="42.4292960" lon="-8.0803250">
        <ele>398.2</ele>
        <time>2022-08-27T08:22:08Z</time>
      </trkpt>
      <trkpt lat="42.4291110" lon="-8.0805280">
        <ele>397.2</ele>
        <time>2022-08-27T08:22:12Z</time>
      </trkpt>
      <trkpt lat="42.4290590" lon="-8.0805770">
        <ele>396.8</ele>
        <time>2022-08-27T08:22:13Z</time>
      </trkpt>
      <trkpt lat="42.4289150" lon="-8.0807060">
        <ele>396.0</ele>
        <time>2022-08-27T08:22:16Z</time>
      </trkpt>
      <trkpt lat="42.4288550" lon="-8.0807460">
        <ele>395.6</ele>
        <time>2022-08-27T08:22:17Z</time>
      </trkpt>
      <trkpt lat="42.4287370" lon="-8.0808420">
        <ele>395.0</ele>
        <time>2022-08-27T08:22:19Z</time>
      </trkpt>
      <trkpt lat="42.4286800" lon="-8.0808970">
        <ele>394.8</ele>
        <time>2022-08-27T08:22:20Z</time>
      </trkpt>
      <trkpt lat="42.4283830" lon="-8.0811770">
        <ele>393.8</ele>
        <time>2022-08-27T08:22:25Z</time>
      </trkpt>
      <trkpt lat="42.4282630" lon="-8.0812780">
        <ele>392.8</ele>
        <time>2022-08-27T08:22:27Z</time>
      </trkpt>
      <trkpt lat="42.4280430" lon="-8.0814670">
        <ele>391.8</ele>
        <time>2022-08-27T08:22:31Z</time>
      </trkpt>
      <trkpt lat="42.4279980" lon="-8.0815010">
        <ele>391.6</ele>
        <time>2022-08-27T08:22:32Z</time>
      </trkpt>
      <trkpt lat="42.4279610" lon="-8.0815460">
        <ele>391.4</ele>
        <time>2022-08-27T08:22:33Z</time>
      </trkpt>
      <trkpt lat="42.4278530" lon="-8.0816460">
        <ele>391.2</ele>
        <time>2022-08-27T08:22:36Z</time>
      </trkpt>
      <trkpt lat="42.4276410" lon="-8.0818510">
        <ele>391.0</ele>
        <time>2022-08-27T08:22:42Z</time>
      </trkpt>
      <trkpt lat="42.4275890" lon="-8.0819240">
        <ele>391.0</ele>
        <time>2022-08-27T08:22:47Z</time>
      </trkpt>
      <trkpt lat="42.4273640" lon="-8.0820620">
        <ele>391.8</ele>
        <time>2022-08-27T08:22:53Z</time>
      </trkpt>
      <trkpt lat="42.4272930" lon="-8.0821360">
        <ele>392.8</ele>
        <time>2022-08-27T08:22:56Z</time>
      </trkpt>
      <trkpt lat="42.4272320" lon="-8.0821870">
        <ele>393.6</ele>
        <time>2022-08-27T08:22:59Z</time>
      </trkpt>
      <trkpt lat="42.4271920" lon="-8.0822210">
        <ele>394.0</ele>
        <time>2022-08-27T08:23:01Z</time>
      </trkpt>
      <trkpt lat="42.4271370" lon="-8.0822660">
        <ele>394.4</ele>
        <time>2022-08-27T08:23:04Z</time>
      </trkpt>
      <trkpt lat="42.4270940" lon="-8.0823510">
        <ele>395.2</ele>
        <time>2022-08-27T08:23:08Z</time>
      </trkpt>
      <trkpt lat="42.4270730" lon="-8.0823870">
        <ele>395.6</ele>
        <time>2022-08-27T08:23:10Z</time>
      </trkpt>
      <trkpt lat="42.4270600" lon="-8.0824200">
        <ele>395.8</ele>
        <time>2022-08-27T08:23:14Z</time>
      </trkpt>
      <trkpt lat="42.4269620" lon="-8.0825110">
        <ele>396.4</ele>
        <time>2022-08-27T08:23:48Z</time>
      </trkpt>
      <trkpt lat="42.4269490" lon="-8.0825470">
        <ele>396.4</ele>
        <time>2022-08-27T08:23:50Z</time>
      </trkpt>
      <trkpt lat="42.4269150" lon="-8.0826890">
        <ele>396.8</ele>
        <time>2022-08-27T08:23:55Z</time>
      </trkpt>
      <trkpt lat="42.4269200" lon="-8.0828660">
        <ele>397.2</ele>
        <time>2022-08-27T08:24:00Z</time>
      </trkpt>
      <trkpt lat="42.4269280" lon="-8.0828960">
        <ele>397.2</ele>
        <time>2022-08-27T08:24:01Z</time>
      </trkpt>
      <trkpt lat="42.4269330" lon="-8.0830100">
        <ele>397.6</ele>
        <time>2022-08-27T08:24:04Z</time>
      </trkpt>
      <trkpt lat="42.4269290" lon="-8.0830830">
        <ele>397.6</ele>
        <time>2022-08-27T08:24:06Z</time>
      </trkpt>
      <trkpt lat="42.4269030" lon="-8.0832100">
        <ele>398.0</ele>
        <time>2022-08-27T08:24:10Z</time>
      </trkpt>
      <trkpt lat="42.4269050" lon="-8.0833110">
        <ele>398.2</ele>
        <time>2022-08-27T08:24:13Z</time>
      </trkpt>
      <trkpt lat="42.4268920" lon="-8.0833830">
        <ele>398.4</ele>
        <time>2022-08-27T08:24:15Z</time>
      </trkpt>
      <trkpt lat="42.4269120" lon="-8.0836750">
        <ele>398.6</ele>
        <time>2022-08-27T08:24:22Z</time>
      </trkpt>
      <trkpt lat="42.4268950" lon="-8.0837480">
        <ele>398.6</ele>
        <time>2022-08-27T08:24:24Z</time>
      </trkpt>
      <trkpt lat="42.4268870" lon="-8.0837660">
        <ele>398.6</ele>
        <time>2022-08-27T08:24:25Z</time>
      </trkpt>
      <trkpt lat="42.4268770" lon="-8.0837790">
        <ele>398.8</ele>
        <time>2022-08-27T08:24:27Z</time>
      </trkpt>
      <trkpt lat="42.4268410" lon="-8.0838690">
        <ele>399.2</ele>
        <time>2022-08-27T08:25:49Z</time>
      </trkpt>
      <trkpt lat="42.4268300" lon="-8.0839040">
        <ele>399.2</ele>
        <time>2022-08-27T08:25:50Z</time>
      </trkpt>
      <trkpt lat="42.4267690" lon="-8.0841810">
        <ele>399.4</ele>
        <time>2022-08-27T08:25:57Z</time>
      </trkpt>
      <trkpt lat="42.4267330" lon="-8.0843310">
        <ele>399.8</ele>
        <time>2022-08-27T08:26:01Z</time>
      </trkpt>
      <trkpt lat="42.4267190" lon="-8.0844110">
        <ele>400.0</ele>
        <time>2022-08-27T08:26:03Z</time>
      </trkpt>
      <trkpt lat="42.4266820" lon="-8.0846880">
        <ele>400.6</ele>
        <time>2022-08-27T08:26:10Z</time>
      </trkpt>
      <trkpt lat="42.4266240" lon="-8.0847700">
        <ele>401.0</ele>
        <time>2022-08-27T08:26:13Z</time>
      </trkpt>
      <trkpt lat="42.4265940" lon="-8.0847850">
        <ele>401.2</ele>
        <time>2022-08-27T08:26:14Z</time>
      </trkpt>
      <trkpt lat="42.4264460" lon="-8.0847730">
        <ele>401.4</ele>
        <time>2022-08-27T08:26:19Z</time>
      </trkpt>
      <trkpt lat="42.4262970" lon="-8.0847130">
        <ele>401.8</ele>
        <time>2022-08-27T08:26:25Z</time>
      </trkpt>
      <trkpt lat="42.4262520" lon="-8.0846960">
        <ele>402.0</ele>
        <time>2022-08-27T08:26:27Z</time>
      </trkpt>
      <trkpt lat="42.4261180" lon="-8.0846480">
        <ele>403.2</ele>
        <time>2022-08-27T08:26:33Z</time>
      </trkpt>
      <trkpt lat="42.4260750" lon="-8.0846280">
        <ele>403.4</ele>
        <time>2022-08-27T08:26:35Z</time>
      </trkpt>
      <trkpt lat="42.4259690" lon="-8.0845900">
        <ele>404.2</ele>
        <time>2022-08-27T08:26:40Z</time>
      </trkpt>
      <trkpt lat="42.4259500" lon="-8.0845820">
        <ele>404.4</ele>
        <time>2022-08-27T08:26:41Z</time>
      </trkpt>
      <trkpt lat="42.4258940" lon="-8.0845670">
        <ele>405.0</ele>
        <time>2022-08-27T08:26:44Z</time>
      </trkpt>
      <trkpt lat="42.4258770" lon="-8.0845670">
        <ele>405.2</ele>
        <time>2022-08-27T08:26:45Z</time>
      </trkpt>
      <trkpt lat="42.4258600" lon="-8.0845810">
        <ele>405.4</ele>
        <time>2022-08-27T08:26:46Z</time>
      </trkpt>
      <trkpt lat="42.4258360" lon="-8.0846310">
        <ele>405.8</ele>
        <time>2022-08-27T08:26:48Z</time>
      </trkpt>
      <trkpt lat="42.4257610" lon="-8.0848490">
        <ele>406.2</ele>
        <time>2022-08-27T08:26:54Z</time>
      </trkpt>
      <trkpt lat="42.4257480" lon="-8.0848860">
        <ele>406.4</ele>
        <time>2022-08-27T08:26:55Z</time>
      </trkpt>
      <trkpt lat="42.4257020" lon="-8.0850430">
        <ele>406.4</ele>
        <time>2022-08-27T08:26:59Z</time>
      </trkpt>
      <trkpt lat="42.4255900" lon="-8.0853580">
        <ele>406.8</ele>
        <time>2022-08-27T08:27:07Z</time>
      </trkpt>
      <trkpt lat="42.4254960" lon="-8.0856300">
        <ele>407.4</ele>
        <time>2022-08-27T08:27:14Z</time>
      </trkpt>
      <trkpt lat="42.4254830" lon="-8.0856670">
        <ele>407.4</ele>
        <time>2022-08-27T08:27:15Z</time>
      </trkpt>
      <trkpt lat="42.4253840" lon="-8.0859310">
        <ele>408.0</ele>
        <time>2022-08-27T08:27:22Z</time>
      </trkpt>
      <trkpt lat="42.4253450" lon="-8.0860190">
        <ele>407.8</ele>
        <time>2022-08-27T08:27:25Z</time>
      </trkpt>
      <trkpt lat="42.4253430" lon="-8.0860400">
        <ele>408.0</ele>
        <time>2022-08-27T08:27:26Z</time>
      </trkpt>
      <trkpt lat="42.4253380" lon="-8.0860660">
        <ele>408.2</ele>
        <time>2022-08-27T08:27:27Z</time>
      </trkpt>
      <trkpt lat="42.4253270" lon="-8.0861430">
        <ele>408.2</ele>
        <time>2022-08-27T08:27:30Z</time>
      </trkpt>
      <trkpt lat="42.4251940" lon="-8.0863190">
        <ele>408.4</ele>
        <time>2022-08-27T08:27:35Z</time>
      </trkpt>
      <trkpt lat="42.4251660" lon="-8.0863540">
        <ele>408.6</ele>
        <time>2022-08-27T08:27:36Z</time>
      </trkpt>
      <trkpt lat="42.4248820" lon="-8.0866410">
        <ele>409.0</ele>
        <time>2022-08-27T08:27:44Z</time>
      </trkpt>
      <trkpt lat="42.4247200" lon="-8.0867850">
        <ele>409.4</ele>
        <time>2022-08-27T08:27:49Z</time>
      </trkpt>
      <trkpt lat="42.4246600" lon="-8.0868530">
        <ele>409.6</ele>
        <time>2022-08-27T08:27:51Z</time>
      </trkpt>
      <trkpt lat="42.4244810" lon="-8.0870780">
        <ele>409.8</ele>
        <time>2022-08-27T08:27:57Z</time>
      </trkpt>
      <trkpt lat="42.4242590" lon="-8.0873330">
        <ele>410.6</ele>
        <time>2022-08-27T08:28:06Z</time>
      </trkpt>
      <trkpt lat="42.4242400" lon="-8.0873550">
        <ele>410.8</ele>
        <time>2022-08-27T08:28:07Z</time>
      </trkpt>
      <trkpt lat="42.4241260" lon="-8.0875150">
        <ele>411.2</ele>
        <time>2022-08-27T08:28:12Z</time>
      </trkpt>
      <trkpt lat="42.4239520" lon="-8.0877210">
        <ele>411.8</ele>
        <time>2022-08-27T08:28:19Z</time>
      </trkpt>
      <trkpt lat="42.4237400" lon="-8.0878630">
        <ele>412.8</ele>
        <time>2022-08-27T08:28:27Z</time>
      </trkpt>
      <trkpt lat="42.4237130" lon="-8.0878770">
        <ele>413.0</ele>
        <time>2022-08-27T08:28:28Z</time>
      </trkpt>
      <trkpt lat="42.4235530" lon="-8.0879490">
        <ele>414.0</ele>
        <time>2022-08-27T08:28:34Z</time>
      </trkpt>
      <trkpt lat="42.4234000" lon="-8.0880250">
        <ele>415.0</ele>
        <time>2022-08-27T08:28:40Z</time>
      </trkpt>
      <trkpt lat="42.4233500" lon="-8.0880470">
        <ele>415.2</ele>
        <time>2022-08-27T08:28:42Z</time>
      </trkpt>
      <trkpt lat="42.4232010" lon="-8.0881020">
        <ele>416.0</ele>
        <time>2022-08-27T08:28:48Z</time>
      </trkpt>
      <trkpt lat="42.4231520" lon="-8.0881190">
        <ele>416.4</ele>
        <time>2022-08-27T08:28:50Z</time>
      </trkpt>
      <trkpt lat="42.4229940" lon="-8.0881770">
        <ele>417.4</ele>
        <time>2022-08-27T08:28:56Z</time>
      </trkpt>
      <trkpt lat="42.4229690" lon="-8.0881900">
        <ele>417.6</ele>
        <time>2022-08-27T08:28:57Z</time>
      </trkpt>
      <trkpt lat="42.4228110" lon="-8.0882930">
        <ele>418.4</ele>
        <time>2022-08-27T08:29:03Z</time>
      </trkpt>
      <trkpt lat="42.4227280" lon="-8.0883550">
        <ele>418.6</ele>
        <time>2022-08-27T08:29:06Z</time>
      </trkpt>
      <trkpt lat="42.4225560" lon="-8.0884900">
        <ele>419.0</ele>
        <time>2022-08-27T08:29:12Z</time>
      </trkpt>
      <trkpt lat="42.4222940" lon="-8.0886820">
        <ele>419.2</ele>
        <time>2022-08-27T08:29:20Z</time>
      </trkpt>
      <trkpt lat="42.4220460" lon="-8.0888690">
        <ele>419.2</ele>
        <time>2022-08-27T08:29:26Z</time>
      </trkpt>
      <trkpt lat="42.4218370" lon="-8.0890600">
        <ele>419.0</ele>
        <time>2022-08-27T08:29:30Z</time>
      </trkpt>
      <trkpt lat="42.4214660" lon="-8.0894340">
        <ele>417.8</ele>
        <time>2022-08-27T08:29:36Z</time>
      </trkpt>
      <trkpt lat="42.4214000" lon="-8.0895050">
        <ele>417.4</ele>
        <time>2022-08-27T08:29:37Z</time>
      </trkpt>
      <trkpt lat="42.4211950" lon="-8.0897190">
        <ele>416.2</ele>
        <time>2022-08-27T08:29:40Z</time>
      </trkpt>
      <trkpt lat="42.4210640" lon="-8.0898630">
        <ele>415.4</ele>
        <time>2022-08-27T08:29:42Z</time>
      </trkpt>
      <trkpt lat="42.4210000" lon="-8.0899360">
        <ele>415.0</ele>
        <time>2022-08-27T08:29:43Z</time>
      </trkpt>
      <trkpt lat="42.4208140" lon="-8.0901560">
        <ele>414.0</ele>
        <time>2022-08-27T08:29:46Z</time>
      </trkpt>
      <trkpt lat="42.4206460" lon="-8.0903760">
        <ele>413.0</ele>
        <time>2022-08-27T08:29:49Z</time>
      </trkpt>
      <trkpt lat="42.4205940" lon="-8.0904500">
        <ele>412.6</ele>
        <time>2022-08-27T08:29:50Z</time>
      </trkpt>
      <trkpt lat="42.4204940" lon="-8.0905920">
        <ele>411.8</ele>
        <time>2022-08-27T08:29:52Z</time>
      </trkpt>
      <trkpt lat="42.4201290" lon="-8.0910610">
        <ele>410.6</ele>
        <time>2022-08-27T08:29:59Z</time>
      </trkpt>
      <trkpt lat="42.4197810" lon="-8.0914810">
        <ele>409.6</ele>
        <time>2022-08-27T08:30:06Z</time>
      </trkpt>
      <trkpt lat="42.4196430" lon="-8.0916550">
        <ele>409.2</ele>
        <time>2022-08-27T08:30:09Z</time>
      </trkpt>
      <trkpt lat="42.4194130" lon="-8.0919950">
        <ele>409.0</ele>
        <time>2022-08-27T08:30:15Z</time>
      </trkpt>
      <trkpt lat="42.4192160" lon="-8.0923630">
        <ele>409.2</ele>
        <time>2022-08-27T08:30:22Z</time>
      </trkpt>
      <trkpt lat="42.4191030" lon="-8.0926700">
        <ele>409.8</ele>
        <time>2022-08-27T08:30:28Z</time>
      </trkpt>
      <trkpt lat="42.4190240" lon="-8.0928840">
        <ele>411.0</ele>
        <time>2022-08-27T08:30:33Z</time>
      </trkpt>
      <trkpt lat="42.4189900" lon="-8.0929690">
        <ele>411.4</ele>
        <time>2022-08-27T08:30:35Z</time>
      </trkpt>
      <trkpt lat="42.4189220" lon="-8.0931020">
        <ele>412.0</ele>
        <time>2022-08-27T08:30:39Z</time>
      </trkpt>
      <trkpt lat="42.4188750" lon="-8.0931660">
        <ele>412.4</ele>
        <time>2022-08-27T08:30:41Z</time>
      </trkpt>
      <trkpt lat="42.4187450" lon="-8.0933210">
        <ele>413.2</ele>
        <time>2022-08-27T08:30:45Z</time>
      </trkpt>
      <trkpt lat="42.4187050" lon="-8.0933700">
        <ele>413.2</ele>
        <time>2022-08-27T08:30:46Z</time>
      </trkpt>
      <trkpt lat="42.4184120" lon="-8.0937250">
        <ele>413.2</ele>
        <time>2022-08-27T08:30:52Z</time>
      </trkpt>
      <trkpt lat="42.4181560" lon="-8.0940580">
        <ele>412.0</ele>
        <time>2022-08-27T08:30:57Z</time>
      </trkpt>
      <trkpt lat="42.4180810" lon="-8.0941920">
        <ele>411.4</ele>
        <time>2022-08-27T08:30:59Z</time>
      </trkpt>
      <trkpt lat="42.4180150" lon="-8.0943420">
        <ele>410.8</ele>
        <time>2022-08-27T08:31:01Z</time>
      </trkpt>
      <trkpt lat="42.4179270" lon="-8.0945540">
        <ele>409.6</ele>
        <time>2022-08-27T08:31:04Z</time>
      </trkpt>
      <trkpt lat="42.4178710" lon="-8.0946830">
        <ele>409.2</ele>
        <time>2022-08-27T08:31:06Z</time>
      </trkpt>
      <trkpt lat="42.4178450" lon="-8.0947400">
        <ele>409.2</ele>
        <time>2022-08-27T08:31:07Z</time>
      </trkpt>
      <trkpt lat="42.4176890" lon="-8.0950180">
        <ele>409.0</ele>
        <time>2022-08-27T08:31:12Z</time>
      </trkpt>
      <trkpt lat="42.4175880" lon="-8.0952930">
        <ele>409.0</ele>
        <time>2022-08-27T08:31:17Z</time>
      </trkpt>
      <trkpt lat="42.4175770" lon="-8.0953490">
        <ele>409.0</ele>
        <time>2022-08-27T08:31:18Z</time>
      </trkpt>
      <trkpt lat="42.4174790" lon="-8.0956610">
        <ele>409.6</ele>
        <time>2022-08-27T08:31:24Z</time>
      </trkpt>
      <trkpt lat="42.4173280" lon="-8.0959240">
        <ele>410.2</ele>
        <time>2022-08-27T08:31:30Z</time>
      </trkpt>
      <trkpt lat="42.4171410" lon="-8.0962230">
        <ele>410.8</ele>
        <time>2022-08-27T08:31:38Z</time>
      </trkpt>
      <trkpt lat="42.4169890" lon="-8.0965940">
        <ele>411.8</ele>
        <time>2022-08-27T08:31:46Z</time>
      </trkpt>
      <trkpt lat="42.4169380" lon="-8.0967370">
        <ele>412.0</ele>
        <time>2022-08-27T08:31:49Z</time>
      </trkpt>
      <trkpt lat="42.4168590" lon="-8.0969460">
        <ele>412.2</ele>
        <time>2022-08-27T08:31:54Z</time>
      </trkpt>
      <trkpt lat="42.4168020" lon="-8.0970520">
        <ele>412.4</ele>
        <time>2022-08-27T08:31:58Z</time>
      </trkpt>
      <trkpt lat="42.4167790" lon="-8.0970520">
        <ele>412.6</ele>
        <time>2022-08-27T08:31:59Z</time>
      </trkpt>
      <trkpt lat="42.4165890" lon="-8.0969660">
        <ele>412.6</ele>
        <time>2022-08-27T08:32:04Z</time>
      </trkpt>
      <trkpt lat="42.4164780" lon="-8.0969280">
        <ele>412.6</ele>
        <time>2022-08-27T08:32:06Z</time>
      </trkpt>
      <trkpt lat="42.4163540" lon="-8.0968770">
        <ele>412.6</ele>
        <time>2022-08-27T08:32:08Z</time>
      </trkpt>
      <trkpt lat="42.4159840" lon="-8.0967220">
        <ele>412.2</ele>
        <time>2022-08-27T08:32:13Z</time>
      </trkpt>
      <trkpt lat="42.4156200" lon="-8.0965670">
        <ele>410.6</ele>
        <time>2022-08-27T08:32:18Z</time>
      </trkpt>
      <trkpt lat="42.4155250" lon="-8.0965220">
        <ele>409.2</ele>
        <time>2022-08-27T08:32:20Z</time>
      </trkpt>
      <trkpt lat="42.4154300" lon="-8.0964720">
        <ele>407.4</ele>
        <time>2022-08-27T08:32:22Z</time>
      </trkpt>
      <trkpt lat="42.4153120" lon="-8.0964240">
        <ele>405.6</ele>
        <time>2022-08-27T08:32:24Z</time>
      </trkpt>
      <trkpt lat="42.4152470" lon="-8.0964060">
        <ele>404.6</ele>
        <time>2022-08-27T08:32:25Z</time>
      </trkpt>
      <trkpt lat="42.4151810" lon="-8.0963980">
        <ele>403.8</ele>
        <time>2022-08-27T08:32:26Z</time>
      </trkpt>
      <trkpt lat="42.4151220" lon="-8.0964020">
        <ele>403.0</ele>
        <time>2022-08-27T08:32:27Z</time>
      </trkpt>
      <trkpt lat="42.4150300" lon="-8.0964610">
        <ele>401.8</ele>
        <time>2022-08-27T08:32:29Z</time>
      </trkpt>
      <trkpt lat="42.4149650" lon="-8.0965400">
        <ele>401.0</ele>
        <time>2022-08-27T08:32:31Z</time>
      </trkpt>
      <trkpt lat="42.4149370" lon="-8.0965790">
        <ele>400.6</ele>
        <time>2022-08-27T08:32:32Z</time>
      </trkpt>
      <trkpt lat="42.4149090" lon="-8.0966650">
        <ele>399.4</ele>
        <time>2022-08-27T08:32:34Z</time>
      </trkpt>
      <trkpt lat="42.4149030" lon="-8.0967070">
        <ele>398.2</ele>
        <time>2022-08-27T08:32:35Z</time>
      </trkpt>
      <trkpt lat="42.4148920" lon="-8.0967750">
        <ele>397.0</ele>
        <time>2022-08-27T08:32:37Z</time>
      </trkpt>
      <trkpt lat="42.4148670" lon="-8.0968410">
        <ele>396.2</ele>
        <time>2022-08-27T08:32:39Z</time>
      </trkpt>
      <trkpt lat="42.4148380" lon="-8.0968790">
        <ele>395.8</ele>
        <time>2022-08-27T08:32:40Z</time>
      </trkpt>
      <trkpt lat="42.4147210" lon="-8.0970270">
        <ele>395.4</ele>
        <time>2022-08-27T08:32:43Z</time>
      </trkpt>
      <trkpt lat="42.4145880" lon="-8.0971850">
        <ele>395.2</ele>
        <time>2022-08-27T08:32:46Z</time>
      </trkpt>
      <trkpt lat="42.4145460" lon="-8.0972180">
        <ele>395.0</ele>
        <time>2022-08-27T08:32:47Z</time>
      </trkpt>
      <trkpt lat="42.4144650" lon="-8.0972690">
        <ele>394.8</ele>
        <time>2022-08-27T08:32:49Z</time>
      </trkpt>
      <trkpt lat="42.4143330" lon="-8.0973270">
        <ele>393.4</ele>
        <time>2022-08-27T08:32:52Z</time>
      </trkpt>
      <trkpt lat="42.4142250" lon="-8.0973460">
        <ele>392.8</ele>
        <time>2022-08-27T08:32:54Z</time>
      </trkpt>
      <trkpt lat="42.4140890" lon="-8.0973560">
        <ele>392.0</ele>
        <time>2022-08-27T08:32:56Z</time>
      </trkpt>
      <trkpt lat="42.4138430" lon="-8.0973440">
        <ele>390.6</ele>
        <time>2022-08-27T08:32:59Z</time>
      </trkpt>
      <trkpt lat="42.4137510" lon="-8.0973290">
        <ele>390.0</ele>
        <time>2022-08-27T08:33:00Z</time>
      </trkpt>
      <trkpt lat="42.4136670" lon="-8.0973180">
        <ele>389.6</ele>
        <time>2022-08-27T08:33:01Z</time>
      </trkpt>
      <trkpt lat="42.4135960" lon="-8.0973160">
        <ele>388.0</ele>
        <time>2022-08-27T08:33:02Z</time>
      </trkpt>
      <trkpt lat="42.4135310" lon="-8.0973210">
        <ele>387.2</ele>
        <time>2022-08-27T08:33:03Z</time>
      </trkpt>
      <trkpt lat="42.4134730" lon="-8.0973330">
        <ele>386.2</ele>
        <time>2022-08-27T08:33:04Z</time>
      </trkpt>
      <trkpt lat="42.4133710" lon="-8.0973880">
        <ele>384.6</ele>
        <time>2022-08-27T08:33:06Z</time>
      </trkpt>
      <trkpt lat="42.4133210" lon="-8.0974330">
        <ele>384.2</ele>
        <time>2022-08-27T08:33:07Z</time>
      </trkpt>
      <trkpt lat="42.4132270" lon="-8.0975440">
        <ele>383.4</ele>
        <time>2022-08-27T08:33:09Z</time>
      </trkpt>
      <trkpt lat="42.4131060" lon="-8.0977280">
        <ele>382.4</ele>
        <time>2022-08-27T08:33:12Z</time>
      </trkpt>
      <trkpt lat="42.4129920" lon="-8.0978710">
        <ele>380.8</ele>
        <time>2022-08-27T08:33:15Z</time>
      </trkpt>
      <trkpt lat="42.4129090" lon="-8.0979240">
        <ele>379.2</ele>
        <time>2022-08-27T08:33:17Z</time>
      </trkpt>
      <trkpt lat="42.4128590" lon="-8.0979390">
        <ele>378.2</ele>
        <time>2022-08-27T08:33:18Z</time>
      </trkpt>
      <trkpt lat="42.4128040" lon="-8.0979490">
        <ele>376.8</ele>
        <time>2022-08-27T08:33:19Z</time>
      </trkpt>
      <trkpt lat="42.4127460" lon="-8.0979510">
        <ele>375.6</ele>
        <time>2022-08-27T08:33:20Z</time>
      </trkpt>
      <trkpt lat="42.4126890" lon="-8.0979410">
        <ele>374.4</ele>
        <time>2022-08-27T08:33:21Z</time>
      </trkpt>
      <trkpt lat="42.4126230" lon="-8.0979010">
        <ele>373.4</ele>
        <time>2022-08-27T08:33:22Z</time>
      </trkpt>
      <trkpt lat="42.4125080" lon="-8.0977950">
        <ele>371.4</ele>
        <time>2022-08-27T08:33:24Z</time>
      </trkpt>
      <trkpt lat="42.4124100" lon="-8.0976480">
        <ele>369.8</ele>
        <time>2022-08-27T08:33:26Z</time>
      </trkpt>
      <trkpt lat="42.4123450" lon="-8.0974820">
        <ele>367.8</ele>
        <time>2022-08-27T08:33:28Z</time>
      </trkpt>
      <trkpt lat="42.4123110" lon="-8.0973970">
        <ele>367.0</ele>
        <time>2022-08-27T08:33:29Z</time>
      </trkpt>
      <trkpt lat="42.4122860" lon="-8.0973200">
        <ele>365.0</ele>
        <time>2022-08-27T08:33:30Z</time>
      </trkpt>
      <trkpt lat="42.4122700" lon="-8.0972430">
        <ele>364.6</ele>
        <time>2022-08-27T08:33:31Z</time>
      </trkpt>
      <trkpt lat="42.4122590" lon="-8.0971680">
        <ele>364.0</ele>
        <time>2022-08-27T08:33:32Z</time>
      </trkpt>
      <trkpt lat="42.4122460" lon="-8.0970980">
        <ele>363.8</ele>
        <time>2022-08-27T08:33:33Z</time>
      </trkpt>
      <trkpt lat="42.4122160" lon="-8.0969440">
        <ele>362.8</ele>
        <time>2022-08-27T08:33:35Z</time>
      </trkpt>
      <trkpt lat="42.4121980" lon="-8.0968730">
        <ele>362.6</ele>
        <time>2022-08-27T08:33:36Z</time>
      </trkpt>
      <trkpt lat="42.4121690" lon="-8.0967410">
        <ele>362.4</ele>
        <time>2022-08-27T08:33:38Z</time>
      </trkpt>
      <trkpt lat="42.4121450" lon="-8.0966740">
        <ele>362.4</ele>
        <time>2022-08-27T08:33:39Z</time>
      </trkpt>
      <trkpt lat="42.4120410" lon="-8.0965000">
        <ele>362.0</ele>
        <time>2022-08-27T08:33:42Z</time>
      </trkpt>
      <trkpt lat="42.4119940" lon="-8.0964620">
        <ele>361.6</ele>
        <time>2022-08-27T08:33:43Z</time>
      </trkpt>
      <trkpt lat="42.4118860" lon="-8.0964380">
        <ele>361.0</ele>
        <time>2022-08-27T08:33:45Z</time>
      </trkpt>
      <trkpt lat="42.4117890" lon="-8.0964780">
        <ele>360.4</ele>
        <time>2022-08-27T08:33:47Z</time>
      </trkpt>
      <trkpt lat="42.4117430" lon="-8.0964970">
        <ele>360.2</ele>
        <time>2022-08-27T08:33:48Z</time>
      </trkpt>
      <trkpt lat="42.4116570" lon="-8.0965200">
        <ele>359.2</ele>
        <time>2022-08-27T08:33:51Z</time>
      </trkpt>
      <trkpt lat="42.4116160" lon="-8.0965350">
        <ele>358.0</ele>
        <time>2022-08-27T08:33:53Z</time>
      </trkpt>
      <trkpt lat="42.4115660" lon="-8.0965740">
        <ele>356.6</ele>
        <time>2022-08-27T08:33:55Z</time>
      </trkpt>
      <trkpt lat="42.4115260" lon="-8.0966370">
        <ele>355.0</ele>
        <time>2022-08-27T08:33:57Z</time>
      </trkpt>
      <trkpt lat="42.4115120" lon="-8.0967810">
        <ele>354.0</ele>
        <time>2022-08-27T08:34:01Z</time>
      </trkpt>
      <trkpt lat="42.4115150" lon="-8.0968110">
        <ele>354.0</ele>
        <time>2022-08-27T08:34:02Z</time>
      </trkpt>
      <trkpt lat="42.4115130" lon="-8.0970200">
        <ele>353.2</ele>
        <time>2022-08-27T08:34:08Z</time>
      </trkpt>
      <trkpt lat="42.4115190" lon="-8.0970990">
        <ele>352.8</ele>
        <time>2022-08-27T08:34:10Z</time>
      </trkpt>
      <trkpt lat="42.4115270" lon="-8.0971490">
        <ele>352.4</ele>
        <time>2022-08-27T08:34:13Z</time>
      </trkpt>
      <trkpt lat="42.4115330" lon="-8.0971580">
        <ele>352.0</ele>
        <time>2022-08-27T08:34:15Z</time>
      </trkpt>
      <trkpt lat="42.4114330" lon="-8.0973650">
        <ele>349.6</ele>
        <time>2022-08-27T08:35:03Z</time>
      </trkpt>
      <trkpt lat="42.4114090" lon="-8.0973830">
        <ele>349.6</ele>
        <time>2022-08-27T08:35:04Z</time>
      </trkpt>
      <trkpt lat="42.4112820" lon="-8.0974720">
        <ele>349.4</ele>
        <time>2022-08-27T08:35:09Z</time>
      </trkpt>
      <trkpt lat="42.4112050" lon="-8.0976500">
        <ele>348.6</ele>
        <time>2022-08-27T08:35:15Z</time>
      </trkpt>
      <trkpt lat="42.4110810" lon="-8.0979010">
        <ele>348.4</ele>
        <time>2022-08-27T08:35:22Z</time>
      </trkpt>
      <trkpt lat="42.4109480" lon="-8.0981310">
        <ele>348.4</ele>
        <time>2022-08-27T08:35:29Z</time>
      </trkpt>
      <trkpt lat="42.4108060" lon="-8.0983730">
        <ele>348.4</ele>
        <time>2022-08-27T08:35:37Z</time>
      </trkpt>
      <trkpt lat="42.4107360" lon="-8.0985190">
        <ele>348.8</ele>
        <time>2022-08-27T08:35:43Z</time>
      </trkpt>
      <trkpt lat="42.4107610" lon="-8.0986260">
        <ele>349.4</ele>
        <time>2022-08-27T08:35:49Z</time>
      </trkpt>
      <trkpt lat="42.4107650" lon="-8.0986380">
        <ele>349.6</ele>
        <time>2022-08-27T08:35:50Z</time>
      </trkpt>
      <trkpt lat="42.4107750" lon="-8.0986840">
        <ele>350.8</ele>
        <time>2022-08-27T08:35:54Z</time>
      </trkpt>
      <trkpt lat="42.4107720" lon="-8.0987120">
        <ele>351.2</ele>
        <time>2022-08-27T08:35:56Z</time>
      </trkpt>
      <trkpt lat="42.4107770" lon="-8.0987360">
        <ele>351.8</ele>
        <time>2022-08-27T08:35:58Z</time>
      </trkpt>
      <trkpt lat="42.4107900" lon="-8.0987550">
        <ele>352.4</ele>
        <time>2022-08-27T08:36:00Z</time>
      </trkpt>
      <trkpt lat="42.4108020" lon="-8.0987800">
        <ele>353.2</ele>
        <time>2022-08-27T08:36:02Z</time>
      </trkpt>
      <trkpt lat="42.4108390" lon="-8.0988620">
        <ele>354.2</ele>
        <time>2022-08-27T08:36:06Z</time>
      </trkpt>
      <trkpt lat="42.4108310" lon="-8.0988960">
        <ele>354.2</ele>
        <time>2022-08-27T08:36:07Z</time>
      </trkpt>
      <trkpt lat="42.4107840" lon="-8.0991200">
        <ele>354.4</ele>
        <time>2022-08-27T08:36:13Z</time>
      </trkpt>
      <trkpt lat="42.4107590" lon="-8.0992600">
        <ele>354.4</ele>
        <time>2022-08-27T08:36:15Z</time>
      </trkpt>
      <trkpt lat="42.4107370" lon="-8.0993260">
        <ele>354.2</ele>
        <time>2022-08-27T08:36:16Z</time>
      </trkpt>
      <trkpt lat="42.4107030" lon="-8.0994840">
        <ele>353.0</ele>
        <time>2022-08-27T08:36:19Z</time>
      </trkpt>
      <trkpt lat="42.4106720" lon="-8.0995820">
        <ele>352.0</ele>
        <time>2022-08-27T08:36:21Z</time>
      </trkpt>
      <trkpt lat="42.4106510" lon="-8.0996810">
        <ele>350.6</ele>
        <time>2022-08-27T08:36:23Z</time>
      </trkpt>
      <trkpt lat="42.4106510" lon="-8.0997840">
        <ele>349.6</ele>
        <time>2022-08-27T08:36:25Z</time>
      </trkpt>
      <trkpt lat="42.4106530" lon="-8.0998490">
        <ele>349.0</ele>
        <time>2022-08-27T08:36:26Z</time>
      </trkpt>
      <trkpt lat="42.4106490" lon="-8.0999160">
        <ele>348.8</ele>
        <time>2022-08-27T08:36:27Z</time>
      </trkpt>
      <trkpt lat="42.4106430" lon="-8.0999710">
        <ele>348.4</ele>
        <time>2022-08-27T08:36:28Z</time>
      </trkpt>
      <trkpt lat="42.4106240" lon="-8.1000590">
        <ele>347.6</ele>
        <time>2022-08-27T08:36:30Z</time>
      </trkpt>
      <trkpt lat="42.4105980" lon="-8.1001100">
        <ele>347.2</ele>
        <time>2022-08-27T08:36:31Z</time>
      </trkpt>
      <trkpt lat="42.4105250" lon="-8.1002590">
        <ele>345.6</ele>
        <time>2022-08-27T08:36:34Z</time>
      </trkpt>
      <trkpt lat="42.4104930" lon="-8.1003800">
        <ele>344.4</ele>
        <time>2022-08-27T08:36:36Z</time>
      </trkpt>
      <trkpt lat="42.4104800" lon="-8.1004370">
        <ele>344.2</ele>
        <time>2022-08-27T08:36:37Z</time>
      </trkpt>
      <trkpt lat="42.4104680" lon="-8.1004980">
        <ele>343.8</ele>
        <time>2022-08-27T08:36:38Z</time>
      </trkpt>
      <trkpt lat="42.4104590" lon="-8.1005470">
        <ele>343.4</ele>
        <time>2022-08-27T08:36:39Z</time>
      </trkpt>
      <trkpt lat="42.4104390" lon="-8.1006040">
        <ele>342.6</ele>
        <time>2022-08-27T08:36:41Z</time>
      </trkpt>
      <trkpt lat="42.4104140" lon="-8.1006120">
        <ele>342.4</ele>
        <time>2022-08-27T08:36:42Z</time>
      </trkpt>
      <trkpt lat="42.4103830" lon="-8.1006040">
        <ele>342.2</ele>
        <time>2022-08-27T08:36:43Z</time>
      </trkpt>
      <trkpt lat="42.4102790" lon="-8.1005290">
        <ele>341.2</ele>
        <time>2022-08-27T08:36:46Z</time>
      </trkpt>
      <trkpt lat="42.4101960" lon="-8.1003770">
        <ele>340.2</ele>
        <time>2022-08-27T08:36:49Z</time>
      </trkpt>
      <trkpt lat="42.4101710" lon="-8.1003110">
        <ele>340.0</ele>
        <time>2022-08-27T08:36:50Z</time>
      </trkpt>
      <trkpt lat="42.4101190" lon="-8.1001760">
        <ele>339.2</ele>
        <time>2022-08-27T08:36:52Z</time>
      </trkpt>
      <trkpt lat="42.4100870" lon="-8.1001170">
        <ele>338.8</ele>
        <time>2022-08-27T08:36:53Z</time>
      </trkpt>
      <trkpt lat="42.4100060" lon="-8.1000230">
        <ele>338.0</ele>
        <time>2022-08-27T08:36:55Z</time>
      </trkpt>
      <trkpt lat="42.4099500" lon="-8.1000050">
        <ele>337.4</ele>
        <time>2022-08-27T08:36:56Z</time>
      </trkpt>
      <trkpt lat="42.4098210" lon="-8.1000140">
        <ele>335.6</ele>
        <time>2022-08-27T08:36:58Z</time>
      </trkpt>
      <trkpt lat="42.4096790" lon="-8.1000630">
        <ele>333.6</ele>
        <time>2022-08-27T08:37:00Z</time>
      </trkpt>
      <trkpt lat="42.4096080" lon="-8.1000920">
        <ele>332.6</ele>
        <time>2022-08-27T08:37:01Z</time>
      </trkpt>
      <trkpt lat="42.4095400" lon="-8.1001180">
        <ele>331.2</ele>
        <time>2022-08-27T08:37:02Z</time>
      </trkpt>
      <trkpt lat="42.4094810" lon="-8.1001500">
        <ele>330.2</ele>
        <time>2022-08-27T08:37:03Z</time>
      </trkpt>
      <trkpt lat="42.4094260" lon="-8.1001950">
        <ele>329.0</ele>
        <time>2022-08-27T08:37:04Z</time>
      </trkpt>
      <trkpt lat="42.4093790" lon="-8.1002470">
        <ele>327.8</ele>
        <time>2022-08-27T08:37:05Z</time>
      </trkpt>
      <trkpt lat="42.4092800" lon="-8.1003420">
        <ele>326.2</ele>
        <time>2022-08-27T08:37:07Z</time>
      </trkpt>
      <trkpt lat="42.4092210" lon="-8.1003740">
        <ele>324.2</ele>
        <time>2022-08-27T08:37:08Z</time>
      </trkpt>
      <trkpt lat="42.4091690" lon="-8.1003770">
        <ele>323.2</ele>
        <time>2022-08-27T08:37:09Z</time>
      </trkpt>
      <trkpt lat="42.4091000" lon="-8.1003570">
        <ele>322.2</ele>
        <time>2022-08-27T08:37:10Z</time>
      </trkpt>
      <trkpt lat="42.4089960" lon="-8.1002410">
        <ele>320.6</ele>
        <time>2022-08-27T08:37:12Z</time>
      </trkpt>
      <trkpt lat="42.4089510" lon="-8.1001640">
        <ele>320.0</ele>
        <time>2022-08-27T08:37:13Z</time>
      </trkpt>
      <trkpt lat="42.4089060" lon="-8.1000840">
        <ele>319.2</ele>
        <time>2022-08-27T08:37:14Z</time>
      </trkpt>
      <trkpt lat="42.4088530" lon="-8.1000130">
        <ele>318.4</ele>
        <time>2022-08-27T08:37:15Z</time>
      </trkpt>
      <trkpt lat="42.4087990" lon="-8.0999480">
        <ele>317.6</ele>
        <time>2022-08-27T08:37:16Z</time>
      </trkpt>
      <trkpt lat="42.4087410" lon="-8.0998950">
        <ele>317.0</ele>
        <time>2022-08-27T08:37:17Z</time>
      </trkpt>
      <trkpt lat="42.4086830" lon="-8.0998550">
        <ele>316.4</ele>
        <time>2022-08-27T08:37:18Z</time>
      </trkpt>
      <trkpt lat="42.4085430" lon="-8.0998200">
        <ele>315.4</ele>
        <time>2022-08-27T08:37:20Z</time>
      </trkpt>
      <trkpt lat="42.4084610" lon="-8.0998290">
        <ele>314.4</ele>
        <time>2022-08-27T08:37:21Z</time>
      </trkpt>
      <trkpt lat="42.4083730" lon="-8.0998590">
        <ele>313.6</ele>
        <time>2022-08-27T08:37:22Z</time>
      </trkpt>
      <trkpt lat="42.4081890" lon="-8.0999640">
        <ele>312.0</ele>
        <time>2022-08-27T08:37:24Z</time>
      </trkpt>
      <trkpt lat="42.4080250" lon="-8.1000740">
        <ele>310.0</ele>
        <time>2022-08-27T08:37:26Z</time>
      </trkpt>
      <trkpt lat="42.4079550" lon="-8.1001430">
        <ele>309.0</ele>
        <time>2022-08-27T08:37:27Z</time>
      </trkpt>
      <trkpt lat="42.4079030" lon="-8.1002240">
        <ele>308.0</ele>
        <time>2022-08-27T08:37:28Z</time>
      </trkpt>
      <trkpt lat="42.4078450" lon="-8.1004220">
        <ele>306.2</ele>
        <time>2022-08-27T08:37:30Z</time>
      </trkpt>
      <trkpt lat="42.4078320" lon="-8.1005260">
        <ele>305.0</ele>
        <time>2022-08-27T08:37:31Z</time>
      </trkpt>
      <trkpt lat="42.4078210" lon="-8.1006260">
        <ele>303.6</ele>
        <time>2022-08-27T08:37:32Z</time>
      </trkpt>
      <trkpt lat="42.4078020" lon="-8.1007140">
        <ele>302.2</ele>
        <time>2022-08-27T08:37:33Z</time>
      </trkpt>
      <trkpt lat="42.4077730" lon="-8.1007780">
        <ele>301.0</ele>
        <time>2022-08-27T08:37:34Z</time>
      </trkpt>
      <trkpt lat="42.4077410" lon="-8.1007970">
        <ele>298.8</ele>
        <time>2022-08-27T08:37:35Z</time>
      </trkpt>
      <trkpt lat="42.4077000" lon="-8.1008030">
        <ele>298.0</ele>
        <time>2022-08-27T08:37:36Z</time>
      </trkpt>
      <trkpt lat="42.4076550" lon="-8.1008060">
        <ele>297.2</ele>
        <time>2022-08-27T08:37:37Z</time>
      </trkpt>
      <trkpt lat="42.4075430" lon="-8.1008140">
        <ele>296.0</ele>
        <time>2022-08-27T08:37:40Z</time>
      </trkpt>
      <trkpt lat="42.4074780" lon="-8.1008100">
        <ele>296.0</ele>
        <time>2022-08-27T08:37:42Z</time>
      </trkpt>
      <trkpt lat="42.4072540" lon="-8.1009090">
        <ele>296.2</ele>
        <time>2022-08-27T08:37:49Z</time>
      </trkpt>
      <trkpt lat="42.4070090" lon="-8.1011360">
        <ele>297.0</ele>
        <time>2022-08-27T08:37:57Z</time>
      </trkpt>
      <trkpt lat="42.4069770" lon="-8.1011710">
        <ele>297.2</ele>
        <time>2022-08-27T08:37:58Z</time>
      </trkpt>
      <trkpt lat="42.4068630" lon="-8.1013050">
        <ele>297.2</ele>
        <time>2022-08-27T08:38:01Z</time>
      </trkpt>
      <trkpt lat="42.4068250" lon="-8.1013600">
        <ele>297.2</ele>
        <time>2022-08-27T08:38:02Z</time>
      </trkpt>
      <trkpt lat="42.4066490" lon="-8.1016470">
        <ele>297.2</ele>
        <time>2022-08-27T08:38:07Z</time>
      </trkpt>
      <trkpt lat="42.4065970" lon="-8.1017010">
        <ele>297.0</ele>
        <time>2022-08-27T08:38:08Z</time>
      </trkpt>
      <trkpt lat="42.4063730" lon="-8.1018690">
        <ele>296.0</ele>
        <time>2022-08-27T08:38:11Z</time>
      </trkpt>
      <trkpt lat="42.4061970" lon="-8.1020010">
        <ele>295.0</ele>
        <time>2022-08-27T08:38:13Z</time>
      </trkpt>
      <trkpt lat="42.4060370" lon="-8.1021090">
        <ele>294.0</ele>
        <time>2022-08-27T08:38:15Z</time>
      </trkpt>
      <trkpt lat="42.4059630" lon="-8.1021570">
        <ele>293.4</ele>
        <time>2022-08-27T08:38:16Z</time>
      </trkpt>
      <trkpt lat="42.4058180" lon="-8.1022500">
        <ele>291.6</ele>
        <time>2022-08-27T08:38:18Z</time>
      </trkpt>
      <trkpt lat="42.4057600" lon="-8.1022920">
        <ele>290.2</ele>
        <time>2022-08-27T08:38:19Z</time>
      </trkpt>
      <trkpt lat="42.4057080" lon="-8.1023280">
        <ele>288.8</ele>
        <time>2022-08-27T08:38:20Z</time>
      </trkpt>
      <trkpt lat="42.4056550" lon="-8.1023560">
        <ele>287.2</ele>
        <time>2022-08-27T08:38:21Z</time>
      </trkpt>
      <trkpt lat="42.4056080" lon="-8.1023640">
        <ele>286.0</ele>
        <time>2022-08-27T08:38:22Z</time>
      </trkpt>
      <trkpt lat="42.4055680" lon="-8.1023530">
        <ele>285.0</ele>
        <time>2022-08-27T08:38:23Z</time>
      </trkpt>
      <trkpt lat="42.4055310" lon="-8.1023270">
        <ele>284.6</ele>
        <time>2022-08-27T08:38:24Z</time>
      </trkpt>
      <trkpt lat="42.4054550" lon="-8.1022210">
        <ele>283.0</ele>
        <time>2022-08-27T08:38:26Z</time>
      </trkpt>
      <trkpt lat="42.4054130" lon="-8.1021630">
        <ele>282.0</ele>
        <time>2022-08-27T08:38:27Z</time>
      </trkpt>
      <trkpt lat="42.4053700" lon="-8.1021130">
        <ele>281.0</ele>
        <time>2022-08-27T08:38:28Z</time>
      </trkpt>
      <trkpt lat="42.4053210" lon="-8.1020700">
        <ele>279.2</ele>
        <time>2022-08-27T08:38:29Z</time>
      </trkpt>
      <trkpt lat="42.4052680" lon="-8.1020470">
        <ele>278.4</ele>
        <time>2022-08-27T08:38:30Z</time>
      </trkpt>
      <trkpt lat="42.4052030" lon="-8.1020450">
        <ele>277.8</ele>
        <time>2022-08-27T08:38:31Z</time>
      </trkpt>
      <trkpt lat="42.4050830" lon="-8.1020900">
        <ele>276.6</ele>
        <time>2022-08-27T08:38:33Z</time>
      </trkpt>
      <trkpt lat="42.4049680" lon="-8.1021700">
        <ele>275.6</ele>
        <time>2022-08-27T08:38:35Z</time>
      </trkpt>
      <trkpt lat="42.4048020" lon="-8.1023060">
        <ele>274.6</ele>
        <time>2022-08-27T08:38:38Z</time>
      </trkpt>
      <trkpt lat="42.4047520" lon="-8.1023470">
        <ele>274.2</ele>
        <time>2022-08-27T08:38:39Z</time>
      </trkpt>
      <trkpt lat="42.4046060" lon="-8.1024280">
        <ele>273.2</ele>
        <time>2022-08-27T08:38:42Z</time>
      </trkpt>
      <trkpt lat="42.4045610" lon="-8.1024350">
        <ele>272.8</ele>
        <time>2022-08-27T08:38:43Z</time>
      </trkpt>
      <trkpt lat="42.4044820" lon="-8.1024160">
        <ele>272.0</ele>
        <time>2022-08-27T08:38:45Z</time>
      </trkpt>
      <trkpt lat="42.4044460" lon="-8.1023990">
        <ele>271.6</ele>
        <time>2022-08-27T08:38:46Z</time>
      </trkpt>
      <trkpt lat="42.4044100" lon="-8.1023760">
        <ele>271.2</ele>
        <time>2022-08-27T08:38:47Z</time>
      </trkpt>
      <trkpt lat="42.4043730" lon="-8.1023510">
        <ele>270.8</ele>
        <time>2022-08-27T08:38:48Z</time>
      </trkpt>
      <trkpt lat="42.4043040" lon="-8.1022990">
        <ele>269.8</ele>
        <time>2022-08-27T08:38:50Z</time>
      </trkpt>
      <trkpt lat="42.4042420" lon="-8.1022670">
        <ele>268.6</ele>
        <time>2022-08-27T08:38:53Z</time>
      </trkpt>
      <trkpt lat="42.4042390" lon="-8.1022590">
        <ele>267.4</ele>
        <time>2022-08-27T08:38:55Z</time>
      </trkpt>
      <trkpt lat="42.4042480" lon="-8.1023880">
        <ele>263.8</ele>
        <time>2022-08-27T08:39:14Z</time>
      </trkpt>
      <trkpt lat="42.4042340" lon="-8.1024170">
        <ele>263.8</ele>
        <time>2022-08-27T08:39:15Z</time>
      </trkpt>
      <trkpt lat="42.4041530" lon="-8.1025590">
        <ele>263.8</ele>
        <time>2022-08-27T08:39:19Z</time>
      </trkpt>
      <trkpt lat="42.4041350" lon="-8.1025910">
        <ele>263.6</ele>
        <time>2022-08-27T08:39:20Z</time>
      </trkpt>
      <trkpt lat="42.4040930" lon="-8.1026420">
        <ele>262.8</ele>
        <time>2022-08-27T08:39:22Z</time>
      </trkpt>
      <trkpt lat="42.4040600" lon="-8.1026770">
        <ele>261.0</ele>
        <time>2022-08-27T08:39:24Z</time>
      </trkpt>
      <trkpt lat="42.4040420" lon="-8.1026900">
        <ele>259.8</ele>
        <time>2022-08-27T08:39:26Z</time>
      </trkpt>
      <trkpt lat="42.4040380" lon="-8.1026920">
        <ele>259.4</ele>
        <time>2022-08-27T08:39:27Z</time>
      </trkpt>
      <trkpt lat="42.4037250" lon="-8.1028760">
        <ele>257.0</ele>
        <time>2022-08-27T08:42:52Z</time>
      </trkpt>
      <trkpt lat="42.4036370" lon="-8.1029640">
        <ele>256.6</ele>
        <time>2022-08-27T08:42:57Z</time>
      </trkpt>
      <trkpt lat="42.4036130" lon="-8.1030230">
        <ele>255.8</ele>
        <time>2022-08-27T08:43:00Z</time>
      </trkpt>
      <trkpt lat="42.4036110" lon="-8.1030620">
        <ele>254.6</ele>
        <time>2022-08-27T08:43:02Z</time>
      </trkpt>
      <trkpt lat="42.4036040" lon="-8.1030740">
        <ele>253.4</ele>
        <time>2022-08-27T08:43:03Z</time>
      </trkpt>
      <trkpt lat="42.4035940" lon="-8.1030790">
        <ele>252.6</ele>
        <time>2022-08-27T08:43:06Z</time>
      </trkpt>
      <trkpt lat="42.4035770" lon="-8.1033280">
        <ele>252.4</ele>
        <time>2022-08-27T08:43:28Z</time>
      </trkpt>
      <trkpt lat="42.4035780" lon="-8.1033550">
        <ele>252.4</ele>
        <time>2022-08-27T08:43:29Z</time>
      </trkpt>
      <trkpt lat="42.4035680" lon="-8.1034150">
        <ele>252.4</ele>
        <time>2022-08-27T08:43:32Z</time>
      </trkpt>
      <trkpt lat="42.4035450" lon="-8.1034600">
        <ele>252.4</ele>
        <time>2022-08-27T08:43:35Z</time>
      </trkpt>
      <trkpt lat="42.4034850" lon="-8.1035360">
        <ele>253.0</ele>
        <time>2022-08-27T08:43:41Z</time>
      </trkpt>
      <trkpt lat="42.4034710" lon="-8.1035470">
        <ele>253.0</ele>
        <time>2022-08-27T08:43:42Z</time>
      </trkpt>
      <trkpt lat="42.4033960" lon="-8.1035940">
        <ele>253.2</ele>
        <time>2022-08-27T08:43:46Z</time>
      </trkpt>
      <trkpt lat="42.4033550" lon="-8.1036160">
        <ele>253.4</ele>
        <time>2022-08-27T08:43:48Z</time>
      </trkpt>
      <trkpt lat="42.4032600" lon="-8.1036580">
        <ele>253.8</ele>
        <time>2022-08-27T08:43:54Z</time>
      </trkpt>
      <trkpt lat="42.4031800" lon="-8.1037240">
        <ele>254.2</ele>
        <time>2022-08-27T08:43:58Z</time>
      </trkpt>
      <trkpt lat="42.4031520" lon="-8.1037450">
        <ele>254.2</ele>
        <time>2022-08-27T08:43:59Z</time>
      </trkpt>
      <trkpt lat="42.4030010" lon="-8.1038630">
        <ele>254.6</ele>
        <time>2022-08-27T08:44:07Z</time>
      </trkpt>
      <trkpt lat="42.4028750" lon="-8.1039330">
        <ele>254.4</ele>
        <time>2022-08-27T08:44:12Z</time>
      </trkpt>
      <trkpt lat="42.4026970" lon="-8.1040010">
        <ele>254.2</ele>
        <time>2022-08-27T08:44:18Z</time>
      </trkpt>
      <trkpt lat="42.4025310" lon="-8.1040420">
        <ele>253.2</ele>
        <time>2022-08-27T08:44:22Z</time>
      </trkpt>
      <trkpt lat="42.4024870" lon="-8.1040500">
        <ele>252.6</ele>
        <time>2022-08-27T08:44:23Z</time>
      </trkpt>
      <trkpt lat="42.4024440" lon="-8.1040590">
        <ele>252.0</ele>
        <time>2022-08-27T08:44:24Z</time>
      </trkpt>
      <trkpt lat="42.4023990" lon="-8.1040700">
        <ele>250.8</ele>
        <time>2022-08-27T08:44:25Z</time>
      </trkpt>
      <trkpt lat="42.4023250" lon="-8.1040970">
        <ele>249.6</ele>
        <time>2022-08-27T08:44:27Z</time>
      </trkpt>
      <trkpt lat="42.4022590" lon="-8.1041030">
        <ele>248.4</ele>
        <time>2022-08-27T08:44:29Z</time>
      </trkpt>
      <trkpt lat="42.4021620" lon="-8.1041000">
        <ele>247.2</ele>
        <time>2022-08-27T08:44:31Z</time>
      </trkpt>
      <trkpt lat="42.4020530" lon="-8.1040870">
        <ele>245.8</ele>
        <time>2022-08-27T08:44:34Z</time>
      </trkpt>
      <trkpt lat="42.4019860" lon="-8.1040720">
        <ele>244.8</ele>
        <time>2022-08-27T08:44:36Z</time>
      </trkpt>
      <trkpt lat="42.4019070" lon="-8.1040640">
        <ele>243.2</ele>
        <time>2022-08-27T08:44:38Z</time>
      </trkpt>
      <trkpt lat="42.4018180" lon="-8.1040590">
        <ele>242.2</ele>
        <time>2022-08-27T08:44:40Z</time>
      </trkpt>
      <trkpt lat="42.4017630" lon="-8.1040600">
        <ele>241.8</ele>
        <time>2022-08-27T08:44:41Z</time>
      </trkpt>
      <trkpt lat="42.4017190" lon="-8.1040620">
        <ele>241.2</ele>
        <time>2022-08-27T08:44:42Z</time>
      </trkpt>
      <trkpt lat="42.4016760" lon="-8.1040640">
        <ele>240.4</ele>
        <time>2022-08-27T08:44:43Z</time>
      </trkpt>
      <trkpt lat="42.4016430" lon="-8.1040620">
        <ele>239.4</ele>
        <time>2022-08-27T08:44:44Z</time>
      </trkpt>
      <trkpt lat="42.4015790" lon="-8.1040480">
        <ele>237.8</ele>
        <time>2022-08-27T08:44:46Z</time>
      </trkpt>
      <trkpt lat="42.4015220" lon="-8.1040200">
        <ele>236.6</ele>
        <time>2022-08-27T08:44:48Z</time>
      </trkpt>
      <trkpt lat="42.4014480" lon="-8.1039700">
        <ele>235.4</ele>
        <time>2022-08-27T08:44:51Z</time>
      </trkpt>
      <trkpt lat="42.4014060" lon="-8.1039130">
        <ele>234.6</ele>
        <time>2022-08-27T08:44:54Z</time>
      </trkpt>
      <trkpt lat="42.4013960" lon="-8.1038930">
        <ele>234.2</ele>
        <time>2022-08-27T08:44:55Z</time>
      </trkpt>
      <trkpt lat="42.4013750" lon="-8.1038540">
        <ele>233.2</ele>
        <time>2022-08-27T08:44:57Z</time>
      </trkpt>
      <trkpt lat="42.4013100" lon="-8.1038240">
        <ele>231.8</ele>
        <time>2022-08-27T08:45:00Z</time>
      </trkpt>
      <trkpt lat="42.4012030" lon="-8.1038130">
        <ele>231.0</ele>
        <time>2022-08-27T08:45:03Z</time>
      </trkpt>
      <trkpt lat="42.4011710" lon="-8.1037980">
        <ele>230.6</ele>
        <time>2022-08-27T08:45:04Z</time>
      </trkpt>
      <trkpt lat="42.4011220" lon="-8.1037590">
        <ele>230.0</ele>
        <time>2022-08-27T08:45:06Z</time>
      </trkpt>
      <trkpt lat="42.4011040" lon="-8.1037390">
        <ele>229.6</ele>
        <time>2022-08-27T08:45:07Z</time>
      </trkpt>
      <trkpt lat="42.4010790" lon="-8.1037290">
        <ele>229.2</ele>
        <time>2022-08-27T08:45:08Z</time>
      </trkpt>
      <trkpt lat="42.4010010" lon="-8.1037210">
        <ele>228.4</ele>
        <time>2022-08-27T08:45:10Z</time>
      </trkpt>
      <trkpt lat="42.4009310" lon="-8.1036920">
        <ele>227.0</ele>
        <time>2022-08-27T08:45:12Z</time>
      </trkpt>
      <trkpt lat="42.4008930" lon="-8.1037070">
        <ele>225.8</ele>
        <time>2022-08-27T08:45:14Z</time>
      </trkpt>
      <trkpt lat="42.4008780" lon="-8.1037200">
        <ele>224.8</ele>
        <time>2022-08-27T08:45:16Z</time>
      </trkpt>
      <trkpt lat="42.4008470" lon="-8.1037470">
        <ele>223.8</ele>
        <time>2022-08-27T08:45:18Z</time>
      </trkpt>
      <trkpt lat="42.4007780" lon="-8.1037830">
        <ele>222.0</ele>
        <time>2022-08-27T08:45:20Z</time>
      </trkpt>
      <trkpt lat="42.4007350" lon="-8.1038180">
        <ele>221.6</ele>
        <time>2022-08-27T08:45:21Z</time>
      </trkpt>
      <trkpt lat="42.4006070" lon="-8.1039130">
        <ele>221.0</ele>
        <time>2022-08-27T08:45:24Z</time>
      </trkpt>
      <trkpt lat="42.4005580" lon="-8.1039420">
        <ele>220.4</ele>
        <time>2022-08-27T08:45:26Z</time>
      </trkpt>
      <trkpt lat="42.4005460" lon="-8.1039420">
        <ele>219.6</ele>
        <time>2022-08-27T08:45:27Z</time>
      </trkpt>
      <trkpt lat="42.4005250" lon="-8.1039490">
        <ele>218.6</ele>
        <time>2022-08-27T08:45:29Z</time>
      </trkpt>
      <trkpt lat="42.4005120" lon="-8.1039640">
        <ele>218.0</ele>
        <time>2022-08-27T08:45:30Z</time>
      </trkpt>
      <trkpt lat="42.4004960" lon="-8.1039760">
        <ele>217.6</ele>
        <time>2022-08-27T08:45:31Z</time>
      </trkpt>
      <trkpt lat="42.4004740" lon="-8.1039890">
        <ele>217.2</ele>
        <time>2022-08-27T08:45:32Z</time>
      </trkpt>
      <trkpt lat="42.4003750" lon="-8.1040320">
        <ele>216.4</ele>
        <time>2022-08-27T08:45:35Z</time>
      </trkpt>
      <trkpt lat="42.4003410" lon="-8.1040530">
        <ele>216.4</ele>
        <time>2022-08-27T08:45:36Z</time>
      </trkpt>
      <trkpt lat="42.4002670" lon="-8.1041290">
        <ele>216.2</ele>
        <time>2022-08-27T08:45:39Z</time>
      </trkpt>
      <trkpt lat="42.4002490" lon="-8.1041600">
        <ele>216.0</ele>
        <time>2022-08-27T08:45:40Z</time>
      </trkpt>
      <trkpt lat="42.4000890" lon="-8.1042920">
        <ele>215.2</ele>
        <time>2022-08-27T08:45:47Z</time>
      </trkpt>
      <trkpt lat="42.4000510" lon="-8.1043000">
        <ele>214.8</ele>
        <time>2022-08-27T08:45:48Z</time>
      </trkpt>
      <trkpt lat="42.3999740" lon="-8.1043320">
        <ele>214.0</ele>
        <time>2022-08-27T08:45:50Z</time>
      </trkpt>
      <trkpt lat="42.3999320" lon="-8.1043470">
        <ele>213.4</ele>
        <time>2022-08-27T08:45:51Z</time>
      </trkpt>
      <trkpt lat="42.3998870" lon="-8.1043560">
        <ele>212.8</ele>
        <time>2022-08-27T08:45:52Z</time>
      </trkpt>
      <trkpt lat="42.3998400" lon="-8.1043580">
        <ele>212.2</ele>
        <time>2022-08-27T08:45:53Z</time>
      </trkpt>
      <trkpt lat="42.3997330" lon="-8.1043610">
        <ele>211.0</ele>
        <time>2022-08-27T08:45:55Z</time>
      </trkpt>
      <trkpt lat="42.3996470" lon="-8.1043400">
        <ele>209.4</ele>
        <time>2022-08-27T08:45:57Z</time>
      </trkpt>
      <trkpt lat="42.3995740" lon="-8.1042920">
        <ele>207.6</ele>
        <time>2022-08-27T08:45:59Z</time>
      </trkpt>
      <trkpt lat="42.3995450" lon="-8.1042570">
        <ele>206.4</ele>
        <time>2022-08-27T08:46:00Z</time>
      </trkpt>
      <trkpt lat="42.3995180" lon="-8.1042160">
        <ele>205.2</ele>
        <time>2022-08-27T08:46:01Z</time>
      </trkpt>
      <trkpt lat="42.3994850" lon="-8.1041710">
        <ele>204.2</ele>
        <time>2022-08-27T08:46:02Z</time>
      </trkpt>
      <trkpt lat="42.3994100" lon="-8.1041030">
        <ele>202.6</ele>
        <time>2022-08-27T08:46:04Z</time>
      </trkpt>
      <trkpt lat="42.3993680" lon="-8.1040870">
        <ele>202.0</ele>
        <time>2022-08-27T08:46:05Z</time>
      </trkpt>
      <trkpt lat="42.3992700" lon="-8.1040920">
        <ele>201.4</ele>
        <time>2022-08-27T08:46:07Z</time>
      </trkpt>
      <trkpt lat="42.3992160" lon="-8.1041050">
        <ele>201.0</ele>
        <time>2022-08-27T08:46:08Z</time>
      </trkpt>
      <trkpt lat="42.3991590" lon="-8.1041230">
        <ele>200.8</ele>
        <time>2022-08-27T08:46:09Z</time>
      </trkpt>
      <trkpt lat="42.3991060" lon="-8.1041370">
        <ele>200.2</ele>
        <time>2022-08-27T08:46:10Z</time>
      </trkpt>
      <trkpt lat="42.3990520" lon="-8.1041570">
        <ele>199.6</ele>
        <time>2022-08-27T08:46:11Z</time>
      </trkpt>
      <trkpt lat="42.3990000" lon="-8.1041840">
        <ele>198.8</ele>
        <time>2022-08-27T08:46:12Z</time>
      </trkpt>
      <trkpt lat="42.3989470" lon="-8.1042140">
        <ele>198.0</ele>
        <time>2022-08-27T08:46:13Z</time>
      </trkpt>
      <trkpt lat="42.3988990" lon="-8.1042390">
        <ele>197.2</ele>
        <time>2022-08-27T08:46:14Z</time>
      </trkpt>
      <trkpt lat="42.3988600" lon="-8.1042590">
        <ele>195.4</ele>
        <time>2022-08-27T08:46:15Z</time>
      </trkpt>
      <trkpt lat="42.3988220" lon="-8.1042720">
        <ele>194.2</ele>
        <time>2022-08-27T08:46:16Z</time>
      </trkpt>
      <trkpt lat="42.3987790" lon="-8.1042810">
        <ele>193.0</ele>
        <time>2022-08-27T08:46:17Z</time>
      </trkpt>
      <trkpt lat="42.3987340" lon="-8.1042890">
        <ele>191.8</ele>
        <time>2022-08-27T08:46:18Z</time>
      </trkpt>
      <trkpt lat="42.3986850" lon="-8.1043000">
        <ele>190.6</ele>
        <time>2022-08-27T08:46:19Z</time>
      </trkpt>
      <trkpt lat="42.3985920" lon="-8.1043090">
        <ele>188.6</ele>
        <time>2022-08-27T08:46:21Z</time>
      </trkpt>
      <trkpt lat="42.3985540" lon="-8.1043050">
        <ele>187.6</ele>
        <time>2022-08-27T08:46:22Z</time>
      </trkpt>
      <trkpt lat="42.3984870" lon="-8.1042810">
        <ele>186.0</ele>
        <time>2022-08-27T08:46:24Z</time>
      </trkpt>
      <trkpt lat="42.3984330" lon="-8.1042410">
        <ele>184.8</ele>
        <time>2022-08-27T08:46:26Z</time>
      </trkpt>
      <trkpt lat="42.3984110" lon="-8.1042100">
        <ele>184.0</ele>
        <time>2022-08-27T08:46:27Z</time>
      </trkpt>
      <trkpt lat="42.3983940" lon="-8.1041800">
        <ele>183.4</ele>
        <time>2022-08-27T08:46:28Z</time>
      </trkpt>
      <trkpt lat="42.3983740" lon="-8.1041120">
        <ele>182.4</ele>
        <time>2022-08-27T08:46:31Z</time>
      </trkpt>
      <trkpt lat="42.3983680" lon="-8.1040990">
        <ele>182.0</ele>
        <time>2022-08-27T08:46:32Z</time>
      </trkpt>
      <trkpt lat="42.3983550" lon="-8.1040930">
        <ele>181.6</ele>
        <time>2022-08-27T08:46:33Z</time>
      </trkpt>
      <trkpt lat="42.3983410" lon="-8.1040910">
        <ele>181.4</ele>
        <time>2022-08-27T08:46:34Z</time>
      </trkpt>
      <trkpt lat="42.3983100" lon="-8.1041170">
        <ele>180.8</ele>
        <time>2022-08-27T08:46:36Z</time>
      </trkpt>
      <trkpt lat="42.3982770" lon="-8.1041660">
        <ele>180.0</ele>
        <time>2022-08-27T08:46:38Z</time>
      </trkpt>
      <trkpt lat="42.3982600" lon="-8.1041960">
        <ele>179.6</ele>
        <time>2022-08-27T08:46:39Z</time>
      </trkpt>
      <trkpt lat="42.3982060" lon="-8.1042560">
        <ele>179.2</ele>
        <time>2022-08-27T08:46:41Z</time>
      </trkpt>
      <trkpt lat="42.3981310" lon="-8.1043120">
        <ele>178.6</ele>
        <time>2022-08-27T08:46:43Z</time>
      </trkpt>
      <trkpt lat="42.3980050" lon="-8.1044090">
        <ele>178.4</ele>
        <time>2022-08-27T08:46:46Z</time>
      </trkpt>
      <trkpt lat="42.3979700" lon="-8.1044550">
        <ele>178.4</ele>
        <time>2022-08-27T08:46:47Z</time>
      </trkpt>
      <trkpt lat="42.3979140" lon="-8.1045830">
        <ele>178.4</ele>
        <time>2022-08-27T08:46:49Z</time>
      </trkpt>
      <trkpt lat="42.3978660" lon="-8.1047830">
        <ele>177.8</ele>
        <time>2022-08-27T08:46:52Z</time>
      </trkpt>
      <trkpt lat="42.3978550" lon="-8.1048490">
        <ele>177.6</ele>
        <time>2022-08-27T08:46:53Z</time>
      </trkpt>
      <trkpt lat="42.3978430" lon="-8.1049160">
        <ele>177.4</ele>
        <time>2022-08-27T08:46:54Z</time>
      </trkpt>
      <trkpt lat="42.3978300" lon="-8.1049820">
        <ele>177.0</ele>
        <time>2022-08-27T08:46:55Z</time>
      </trkpt>
      <trkpt lat="42.3977950" lon="-8.1051110">
        <ele>176.4</ele>
        <time>2022-08-27T08:46:57Z</time>
      </trkpt>
      <trkpt lat="42.3977530" lon="-8.1052350">
        <ele>175.6</ele>
        <time>2022-08-27T08:46:59Z</time>
      </trkpt>
      <trkpt lat="42.3977270" lon="-8.1052950">
        <ele>175.4</ele>
        <time>2022-08-27T08:47:00Z</time>
      </trkpt>
      <trkpt lat="42.3976300" lon="-8.1054850">
        <ele>174.4</ele>
        <time>2022-08-27T08:47:04Z</time>
      </trkpt>
      <trkpt lat="42.3975990" lon="-8.1055250">
        <ele>174.2</ele>
        <time>2022-08-27T08:47:06Z</time>
      </trkpt>
      <trkpt lat="42.3975470" lon="-8.1055720">
        <ele>173.8</ele>
        <time>2022-08-27T08:47:09Z</time>
      </trkpt>
      <trkpt lat="42.3974220" lon="-8.1056570">
        <ele>173.4</ele>
        <time>2022-08-27T08:47:15Z</time>
      </trkpt>
      <trkpt lat="42.3972530" lon="-8.1056920">
        <ele>173.2</ele>
        <time>2022-08-27T08:47:22Z</time>
      </trkpt>
      <trkpt lat="42.3971280" lon="-8.1056630">
        <ele>173.0</ele>
        <time>2022-08-27T08:47:26Z</time>
      </trkpt>
      <trkpt lat="42.3969140" lon="-8.1056220">
        <ele>172.6</ele>
        <time>2022-08-27T08:47:32Z</time>
      </trkpt>
      <trkpt lat="42.3967900" lon="-8.1056080">
        <ele>172.0</ele>
        <time>2022-08-27T08:47:36Z</time>
      </trkpt>
      <trkpt lat="42.3967230" lon="-8.1056240">
        <ele>171.8</ele>
        <time>2022-08-27T08:47:38Z</time>
      </trkpt>
      <trkpt lat="42.3966120" lon="-8.1056850">
        <ele>171.8</ele>
        <time>2022-08-27T08:47:42Z</time>
      </trkpt>
      <trkpt lat="42.3964040" lon="-8.1058430">
        <ele>171.4</ele>
        <time>2022-08-27T08:47:49Z</time>
      </trkpt>
      <trkpt lat="42.3962910" lon="-8.1059040">
        <ele>171.4</ele>
        <time>2022-08-27T08:47:53Z</time>
      </trkpt>
      <trkpt lat="42.3962570" lon="-8.1059000">
        <ele>171.4</ele>
        <time>2022-08-27T08:47:54Z</time>
      </trkpt>
      <trkpt lat="42.3961010" lon="-8.1058670">
        <ele>171.2</ele>
        <time>2022-08-27T08:47:58Z</time>
      </trkpt>
      <trkpt lat="42.3960610" lon="-8.1058780">
        <ele>171.2</ele>
        <time>2022-08-27T08:47:59Z</time>
      </trkpt>
      <trkpt lat="42.3958720" lon="-8.1059640">
        <ele>171.0</ele>
        <time>2022-08-27T08:48:04Z</time>
      </trkpt>
      <trkpt lat="42.3958340" lon="-8.1059820">
        <ele>170.8</ele>
        <time>2022-08-27T08:48:05Z</time>
      </trkpt>
      <trkpt lat="42.3956210" lon="-8.1060270">
        <ele>170.6</ele>
        <time>2022-08-27T08:48:11Z</time>
      </trkpt>
      <trkpt lat="42.3954070" lon="-8.1060690">
        <ele>170.4</ele>
        <time>2022-08-27T08:48:16Z</time>
      </trkpt>
      <trkpt lat="42.3952110" lon="-8.1061580">
        <ele>170.6</ele>
        <time>2022-08-27T08:48:22Z</time>
      </trkpt>
      <trkpt lat="42.3950150" lon="-8.1062670">
        <ele>171.0</ele>
        <time>2022-08-27T08:48:28Z</time>
      </trkpt>
      <trkpt lat="42.3948380" lon="-8.1063490">
        <ele>171.2</ele>
        <time>2022-08-27T08:48:35Z</time>
      </trkpt>
      <trkpt lat="42.3947030" lon="-8.1063810">
        <ele>171.4</ele>
        <time>2022-08-27T08:48:41Z</time>
      </trkpt>
      <trkpt lat="42.3945830" lon="-8.1064200">
        <ele>171.8</ele>
        <time>2022-08-27T08:48:48Z</time>
      </trkpt>
      <trkpt lat="42.3944850" lon="-8.1065340">
        <ele>172.4</ele>
        <time>2022-08-27T08:48:54Z</time>
      </trkpt>
      <trkpt lat="42.3943610" lon="-8.1066600">
        <ele>172.4</ele>
        <time>2022-08-27T08:48:58Z</time>
      </trkpt>
      <trkpt lat="42.3942860" lon="-8.1067780">
        <ele>171.6</ele>
        <time>2022-08-27T08:49:03Z</time>
      </trkpt>
      <trkpt lat="42.3942500" lon="-8.1068500">
        <ele>170.6</ele>
        <time>2022-08-27T08:49:05Z</time>
      </trkpt>
      <trkpt lat="42.3941960" lon="-8.1069720">
        <ele>169.6</ele>
        <time>2022-08-27T08:49:08Z</time>
      </trkpt>
      <trkpt lat="42.3941850" lon="-8.1070120">
        <ele>169.6</ele>
        <time>2022-08-27T08:49:09Z</time>
      </trkpt>
      <trkpt lat="42.3941390" lon="-8.1071140">
        <ele>169.4</ele>
        <time>2022-08-27T08:49:11Z</time>
      </trkpt>
      <trkpt lat="42.3941030" lon="-8.1071760">
        <ele>169.4</ele>
        <time>2022-08-27T08:49:12Z</time>
      </trkpt>
      <trkpt lat="42.3939940" lon="-8.1073610">
        <ele>168.6</ele>
        <time>2022-08-27T08:49:16Z</time>
      </trkpt>
      <trkpt lat="42.3938740" lon="-8.1074480">
        <ele>168.2</ele>
        <time>2022-08-27T08:49:20Z</time>
      </trkpt>
      <trkpt lat="42.3937730" lon="-8.1075390">
        <ele>167.4</ele>
        <time>2022-08-27T08:49:24Z</time>
      </trkpt>
      <trkpt lat="42.3937250" lon="-8.1075950">
        <ele>167.4</ele>
        <time>2022-08-27T08:49:26Z</time>
      </trkpt>
      <trkpt lat="42.3935770" lon="-8.1077720">
        <ele>167.0</ele>
        <time>2022-08-27T08:49:32Z</time>
      </trkpt>
      <trkpt lat="42.3934220" lon="-8.1079500">
        <ele>166.8</ele>
        <time>2022-08-27T08:49:38Z</time>
      </trkpt>
      <trkpt lat="42.3933820" lon="-8.1080180">
        <ele>166.4</ele>
        <time>2022-08-27T08:49:40Z</time>
      </trkpt>
      <trkpt lat="42.3933180" lon="-8.1081920">
        <ele>166.2</ele>
        <time>2022-08-27T08:49:44Z</time>
      </trkpt>
      <trkpt lat="42.3932150" lon="-8.1083560">
        <ele>166.0</ele>
        <time>2022-08-27T08:49:48Z</time>
      </trkpt>
      <trkpt lat="42.3930460" lon="-8.1084570">
        <ele>165.2</ele>
        <time>2022-08-27T08:49:53Z</time>
      </trkpt>
      <trkpt lat="42.3928080" lon="-8.1085140">
        <ele>164.4</ele>
        <time>2022-08-27T08:50:00Z</time>
      </trkpt>
      <trkpt lat="42.3926950" lon="-8.1085340">
        <ele>164.0</ele>
        <time>2022-08-27T08:50:04Z</time>
      </trkpt>
      <trkpt lat="42.3926440" lon="-8.1085420">
        <ele>163.6</ele>
        <time>2022-08-27T08:50:06Z</time>
      </trkpt>
      <trkpt lat="42.3925050" lon="-8.1085330">
        <ele>163.0</ele>
        <time>2022-08-27T08:50:13Z</time>
      </trkpt>
      <trkpt lat="42.3924810" lon="-8.1085270">
        <ele>163.0</ele>
        <time>2022-08-27T08:50:14Z</time>
      </trkpt>
      <trkpt lat="42.3923100" lon="-8.1084870">
        <ele>162.8</ele>
        <time>2022-08-27T08:50:21Z</time>
      </trkpt>
      <trkpt lat="42.3921690" lon="-8.1084870">
        <ele>162.6</ele>
        <time>2022-08-27T08:50:27Z</time>
      </trkpt>
      <trkpt lat="42.3920480" lon="-8.1085270">
        <ele>162.4</ele>
        <time>2022-08-27T08:50:34Z</time>
      </trkpt>
      <trkpt lat="42.3920130" lon="-8.1085560">
        <ele>162.4</ele>
        <time>2022-08-27T08:50:37Z</time>
      </trkpt>
      <trkpt lat="42.3919440" lon="-8.1086060">
        <ele>162.2</ele>
        <time>2022-08-27T08:50:42Z</time>
      </trkpt>
      <trkpt lat="42.3918370" lon="-8.1087480">
        <ele>162.0</ele>
        <time>2022-08-27T08:50:49Z</time>
      </trkpt>
      <trkpt lat="42.3917630" lon="-8.1088310">
        <ele>161.8</ele>
        <time>2022-08-27T08:50:54Z</time>
      </trkpt>
      <trkpt lat="42.3916980" lon="-8.1089170">
        <ele>161.6</ele>
        <time>2022-08-27T08:50:59Z</time>
      </trkpt>
      <trkpt lat="42.3916170" lon="-8.1090750">
        <ele>161.4</ele>
        <time>2022-08-27T08:51:05Z</time>
      </trkpt>
      <trkpt lat="42.3915490" lon="-8.1092640">
        <ele>161.4</ele>
        <time>2022-08-27T08:51:11Z</time>
      </trkpt>
      <trkpt lat="42.3915240" lon="-8.1093610">
        <ele>161.4</ele>
        <time>2022-08-27T08:51:16Z</time>
      </trkpt>
      <trkpt lat="42.3913590" lon="-8.1096700">
        <ele>161.4</ele>
        <time>2022-08-27T08:51:42Z</time>
      </trkpt>
      <trkpt lat="42.3912270" lon="-8.1098400">
        <ele>161.2</ele>
        <time>2022-08-27T08:51:48Z</time>
      </trkpt>
      <trkpt lat="42.3910770" lon="-8.1099770">
        <ele>161.8</ele>
        <time>2022-08-27T08:51:54Z</time>
      </trkpt>
      <trkpt lat="42.3909080" lon="-8.1101030">
        <ele>162.2</ele>
        <time>2022-08-27T08:52:02Z</time>
      </trkpt>
      <trkpt lat="42.3908150" lon="-8.1101310">
        <ele>162.6</ele>
        <time>2022-08-27T08:52:06Z</time>
      </trkpt>
      <trkpt lat="42.3907840" lon="-8.1101400">
        <ele>162.6</ele>
        <time>2022-08-27T08:52:08Z</time>
      </trkpt>
      <trkpt lat="42.3907720" lon="-8.1101440">
        <ele>162.8</ele>
        <time>2022-08-27T08:52:09Z</time>
      </trkpt>
      <trkpt lat="42.3906810" lon="-8.1101540">
        <ele>163.2</ele>
        <time>2022-08-27T08:52:23Z</time>
      </trkpt>
      <trkpt lat="42.3906240" lon="-8.1101420">
        <ele>163.2</ele>
        <time>2022-08-27T08:52:26Z</time>
      </trkpt>
      <trkpt lat="42.3905020" lon="-8.1101260">
        <ele>163.4</ele>
        <time>2022-08-27T08:52:32Z</time>
      </trkpt>
      <trkpt lat="42.3904320" lon="-8.1100680">
        <ele>163.8</ele>
        <time>2022-08-27T08:52:36Z</time>
      </trkpt>
      <trkpt lat="42.3904120" lon="-8.1100550">
        <ele>164.0</ele>
        <time>2022-08-27T08:52:37Z</time>
      </trkpt>
      <trkpt lat="42.3903190" lon="-8.1100360">
        <ele>164.8</ele>
        <time>2022-08-27T08:52:42Z</time>
      </trkpt>
      <trkpt lat="42.3902980" lon="-8.1100380">
        <ele>165.0</ele>
        <time>2022-08-27T08:52:43Z</time>
      </trkpt>
      <trkpt lat="42.3902130" lon="-8.1100450">
        <ele>165.8</ele>
        <time>2022-08-27T08:52:47Z</time>
      </trkpt>
      <trkpt lat="42.3901900" lon="-8.1100420">
        <ele>165.8</ele>
        <time>2022-08-27T08:52:48Z</time>
      </trkpt>
      <trkpt lat="42.3900690" lon="-8.1100060">
        <ele>166.6</ele>
        <time>2022-08-27T08:52:53Z</time>
      </trkpt>
      <trkpt lat="42.3900480" lon="-8.1099990">
        <ele>166.8</ele>
        <time>2022-08-27T08:52:54Z</time>
      </trkpt>
      <trkpt lat="42.3900070" lon="-8.1099830">
        <ele>167.0</ele>
        <time>2022-08-27T08:52:56Z</time>
      </trkpt>
      <trkpt lat="42.3899250" lon="-8.1099590">
        <ele>167.8</ele>
        <time>2022-08-27T08:53:00Z</time>
      </trkpt>
      <trkpt lat="42.3898840" lon="-8.1099480">
        <ele>168.0</ele>
        <time>2022-08-27T08:53:02Z</time>
      </trkpt>
      <trkpt lat="42.3897730" lon="-8.1099580">
        <ele>168.8</ele>
        <time>2022-08-27T08:53:07Z</time>
      </trkpt>
      <trkpt lat="42.3897540" lon="-8.1099700">
        <ele>169.2</ele>
        <time>2022-08-27T08:53:08Z</time>
      </trkpt>
      <trkpt lat="42.3896690" lon="-8.1100620">
        <ele>170.0</ele>
        <time>2022-08-27T08:53:13Z</time>
      </trkpt>
      <trkpt lat="42.3896540" lon="-8.1100830">
        <ele>170.2</ele>
        <time>2022-08-27T08:53:14Z</time>
      </trkpt>
      <trkpt lat="42.3895520" lon="-8.1102130">
        <ele>171.0</ele>
        <time>2022-08-27T08:53:20Z</time>
      </trkpt>
      <trkpt lat="42.3894940" lon="-8.1102670">
        <ele>171.4</ele>
        <time>2022-08-27T08:53:23Z</time>
      </trkpt>
      <trkpt lat="42.3893930" lon="-8.1103330">
        <ele>172.0</ele>
        <time>2022-08-27T08:53:28Z</time>
      </trkpt>
      <trkpt lat="42.3893360" lon="-8.1103690">
        <ele>172.4</ele>
        <time>2022-08-27T08:53:31Z</time>
      </trkpt>
      <trkpt lat="42.3892520" lon="-8.1104120">
        <ele>173.0</ele>
        <time>2022-08-27T08:53:35Z</time>
      </trkpt>
      <trkpt lat="42.3891800" lon="-8.1104510">
        <ele>173.6</ele>
        <time>2022-08-27T08:53:39Z</time>
      </trkpt>
      <trkpt lat="42.3891450" lon="-8.1104660">
        <ele>173.8</ele>
        <time>2022-08-27T08:53:41Z</time>
      </trkpt>
      <trkpt lat="42.3890620" lon="-8.1105080">
        <ele>174.8</ele>
        <time>2022-08-27T08:53:46Z</time>
      </trkpt>
      <trkpt lat="42.3890440" lon="-8.1105180">
        <ele>175.0</ele>
        <time>2022-08-27T08:53:47Z</time>
      </trkpt>
      <trkpt lat="42.3889450" lon="-8.1105950">
        <ele>175.8</ele>
        <time>2022-08-27T08:53:53Z</time>
      </trkpt>
      <trkpt lat="42.3888670" lon="-8.1106870">
        <ele>177.0</ele>
        <time>2022-08-27T08:53:59Z</time>
      </trkpt>
      <trkpt lat="42.3888220" lon="-8.1107780">
        <ele>178.0</ele>
        <time>2022-08-27T08:54:05Z</time>
      </trkpt>
      <trkpt lat="42.3888130" lon="-8.1107950">
        <ele>178.2</ele>
        <time>2022-08-27T08:54:06Z</time>
      </trkpt>
      <trkpt lat="42.3887900" lon="-8.1108560">
        <ele>179.2</ele>
        <time>2022-08-27T08:54:10Z</time>
      </trkpt>
      <trkpt lat="42.3887820" lon="-8.1108680">
        <ele>179.4</ele>
        <time>2022-08-27T08:54:11Z</time>
      </trkpt>
      <trkpt lat="42.3887480" lon="-8.1109340">
        <ele>180.4</ele>
        <time>2022-08-27T08:54:16Z</time>
      </trkpt>
      <trkpt lat="42.3887410" lon="-8.1109450">
        <ele>180.6</ele>
        <time>2022-08-27T08:54:17Z</time>
      </trkpt>
      <trkpt lat="42.3887200" lon="-8.1110030">
        <ele>181.6</ele>
        <time>2022-08-27T08:54:21Z</time>
      </trkpt>
      <trkpt lat="42.3887070" lon="-8.1110350">
        <ele>182.0</ele>
        <time>2022-08-27T08:54:23Z</time>
      </trkpt>
      <trkpt lat="42.3886840" lon="-8.1110880">
        <ele>182.6</ele>
        <time>2022-08-27T08:54:26Z</time>
      </trkpt>
      <trkpt lat="42.3886440" lon="-8.1111630">
        <ele>183.8</ele>
        <time>2022-08-27T08:54:30Z</time>
      </trkpt>
      <trkpt lat="42.3885850" lon="-8.1112660">
        <ele>185.0</ele>
        <time>2022-08-27T08:54:36Z</time>
      </trkpt>
      <trkpt lat="42.3885790" lon="-8.1112830">
        <ele>185.4</ele>
        <time>2022-08-27T08:54:37Z</time>
      </trkpt>
      <trkpt lat="42.3885460" lon="-8.1113860">
        <ele>186.4</ele>
        <time>2022-08-27T08:54:42Z</time>
      </trkpt>
      <trkpt lat="42.3885370" lon="-8.1114330">
        <ele>186.8</ele>
        <time>2022-08-27T08:54:44Z</time>
      </trkpt>
      <trkpt lat="42.3884990" lon="-8.1115780">
        <ele>187.6</ele>
        <time>2022-08-27T08:54:50Z</time>
      </trkpt>
      <trkpt lat="42.3884950" lon="-8.1116000">
        <ele>187.6</ele>
        <time>2022-08-27T08:54:51Z</time>
      </trkpt>
      <trkpt lat="42.3884530" lon="-8.1117390">
        <ele>188.6</ele>
        <time>2022-08-27T08:54:57Z</time>
      </trkpt>
      <trkpt lat="42.3884460" lon="-8.1117680">
        <ele>188.8</ele>
        <time>2022-08-27T08:54:58Z</time>
      </trkpt>
      <trkpt lat="42.3884090" lon="-8.1119010">
        <ele>189.8</ele>
        <time>2022-08-27T08:55:03Z</time>
      </trkpt>
      <trkpt lat="42.3883900" lon="-8.1119580">
        <ele>190.0</ele>
        <time>2022-08-27T08:55:05Z</time>
      </trkpt>
      <trkpt lat="42.3883630" lon="-8.1120510">
        <ele>190.8</ele>
        <time>2022-08-27T08:55:09Z</time>
      </trkpt>
      <trkpt lat="42.3883380" lon="-8.1121060">
        <ele>191.0</ele>
        <time>2022-08-27T08:55:11Z</time>
      </trkpt>
      <trkpt lat="42.3882950" lon="-8.1122320">
        <ele>191.8</ele>
        <time>2022-08-27T08:55:16Z</time>
      </trkpt>
      <trkpt lat="42.3882820" lon="-8.1122760">
        <ele>192.0</ele>
        <time>2022-08-27T08:55:18Z</time>
      </trkpt>
      <trkpt lat="42.3882050" lon="-8.1124910">
        <ele>193.0</ele>
        <time>2022-08-27T08:55:26Z</time>
      </trkpt>
      <trkpt lat="42.3881540" lon="-8.1126650">
        <ele>193.8</ele>
        <time>2022-08-27T08:55:32Z</time>
      </trkpt>
      <trkpt lat="42.3881480" lon="-8.1127050">
        <ele>194.0</ele>
        <time>2022-08-27T08:55:33Z</time>
      </trkpt>
      <trkpt lat="42.3881590" lon="-8.1128750">
        <ele>194.4</ele>
        <time>2022-08-27T08:55:37Z</time>
      </trkpt>
      <trkpt lat="42.3881880" lon="-8.1131760">
        <ele>194.4</ele>
        <time>2022-08-27T08:55:43Z</time>
      </trkpt>
      <trkpt lat="42.3881860" lon="-8.1132400">
        <ele>194.4</ele>
        <time>2022-08-27T08:55:44Z</time>
      </trkpt>
      <trkpt lat="42.3881540" lon="-8.1134380">
        <ele>194.2</ele>
        <time>2022-08-27T08:55:47Z</time>
      </trkpt>
      <trkpt lat="42.3879980" lon="-8.1136740">
        <ele>193.8</ele>
        <time>2022-08-27T08:55:51Z</time>
      </trkpt>
      <trkpt lat="42.3877330" lon="-8.1138230">
        <ele>193.2</ele>
        <time>2022-08-27T08:55:55Z</time>
      </trkpt>
      <trkpt lat="42.3876600" lon="-8.1138540">
        <ele>193.0</ele>
        <time>2022-08-27T08:55:56Z</time>
      </trkpt>
      <trkpt lat="42.3873860" lon="-8.1139320">
        <ele>192.0</ele>
        <time>2022-08-27T08:56:00Z</time>
      </trkpt>
      <trkpt lat="42.3872380" lon="-8.1139750">
        <ele>190.6</ele>
        <time>2022-08-27T08:56:03Z</time>
      </trkpt>
      <trkpt lat="42.3872010" lon="-8.1139900">
        <ele>190.2</ele>
        <time>2022-08-27T08:56:04Z</time>
      </trkpt>
      <trkpt lat="42.3871660" lon="-8.1140150">
        <ele>189.6</ele>
        <time>2022-08-27T08:56:05Z</time>
      </trkpt>
      <trkpt lat="42.3871350" lon="-8.1140530">
        <ele>189.0</ele>
        <time>2022-08-27T08:56:06Z</time>
      </trkpt>
      <trkpt lat="42.3871010" lon="-8.1141040">
        <ele>188.2</ele>
        <time>2022-08-27T08:56:07Z</time>
      </trkpt>
      <trkpt lat="42.3870210" lon="-8.1142260">
        <ele>187.2</ele>
        <time>2022-08-27T08:56:09Z</time>
      </trkpt>
      <trkpt lat="42.3869320" lon="-8.1143640">
        <ele>186.6</ele>
        <time>2022-08-27T08:56:11Z</time>
      </trkpt>
      <trkpt lat="42.3867710" lon="-8.1145990">
        <ele>186.4</ele>
        <time>2022-08-27T08:56:14Z</time>
      </trkpt>
      <trkpt lat="42.3866520" lon="-8.1147630">
        <ele>185.8</ele>
        <time>2022-08-27T08:56:16Z</time>
      </trkpt>
      <trkpt lat="42.3865880" lon="-8.1148450">
        <ele>185.2</ele>
        <time>2022-08-27T08:56:17Z</time>
      </trkpt>
      <trkpt lat="42.3864570" lon="-8.1150100">
        <ele>184.2</ele>
        <time>2022-08-27T08:56:19Z</time>
      </trkpt>
      <trkpt lat="42.3863110" lon="-8.1151810">
        <ele>182.8</ele>
        <time>2022-08-27T08:56:21Z</time>
      </trkpt>
      <trkpt lat="42.3862340" lon="-8.1152690">
        <ele>182.2</ele>
        <time>2022-08-27T08:56:22Z</time>
      </trkpt>
      <trkpt lat="42.3861560" lon="-8.1153620">
        <ele>181.4</ele>
        <time>2022-08-27T08:56:23Z</time>
      </trkpt>
      <trkpt lat="42.3859930" lon="-8.1155520">
        <ele>180.0</ele>
        <time>2022-08-27T08:56:25Z</time>
      </trkpt>
      <trkpt lat="42.3858160" lon="-8.1157380">
        <ele>178.8</ele>
        <time>2022-08-27T08:56:27Z</time>
      </trkpt>
      <trkpt lat="42.3857200" lon="-8.1158290">
        <ele>178.0</ele>
        <time>2022-08-27T08:56:28Z</time>
      </trkpt>
      <trkpt lat="42.3856220" lon="-8.1159200">
        <ele>177.2</ele>
        <time>2022-08-27T08:56:29Z</time>
      </trkpt>
      <trkpt lat="42.3854230" lon="-8.1160960">
        <ele>175.6</ele>
        <time>2022-08-27T08:56:31Z</time>
      </trkpt>
      <trkpt lat="42.3852140" lon="-8.1162610">
        <ele>174.0</ele>
        <time>2022-08-27T08:56:33Z</time>
      </trkpt>
      <trkpt lat="42.3851080" lon="-8.1163350">
        <ele>173.0</ele>
        <time>2022-08-27T08:56:34Z</time>
      </trkpt>
      <trkpt lat="42.3849970" lon="-8.1164090">
        <ele>172.2</ele>
        <time>2022-08-27T08:56:35Z</time>
      </trkpt>
      <trkpt lat="42.3847680" lon="-8.1165540">
        <ele>170.6</ele>
        <time>2022-08-27T08:56:37Z</time>
      </trkpt>
      <trkpt lat="42.3845340" lon="-8.1166860">
        <ele>168.8</ele>
        <time>2022-08-27T08:56:39Z</time>
      </trkpt>
      <trkpt lat="42.3842920" lon="-8.1168140">
        <ele>167.2</ele>
        <time>2022-08-27T08:56:41Z</time>
      </trkpt>
      <trkpt lat="42.3840460" lon="-8.1169360">
        <ele>165.2</ele>
        <time>2022-08-27T08:56:43Z</time>
      </trkpt>
      <trkpt lat="42.3839200" lon="-8.1169940">
        <ele>164.4</ele>
        <time>2022-08-27T08:56:44Z</time>
      </trkpt>
      <trkpt lat="42.3837960" lon="-8.1170540">
        <ele>163.2</ele>
        <time>2022-08-27T08:56:45Z</time>
      </trkpt>
      <trkpt lat="42.3836750" lon="-8.1171150">
        <ele>162.4</ele>
        <time>2022-08-27T08:56:46Z</time>
      </trkpt>
      <trkpt lat="42.3834350" lon="-8.1172240">
        <ele>160.4</ele>
        <time>2022-08-27T08:56:48Z</time>
      </trkpt>
      <trkpt lat="42.3833180" lon="-8.1172730">
        <ele>158.0</ele>
        <time>2022-08-27T08:56:49Z</time>
      </trkpt>
      <trkpt lat="42.3832040" lon="-8.1173120">
        <ele>157.2</ele>
        <time>2022-08-27T08:56:50Z</time>
      </trkpt>
      <trkpt lat="42.3830940" lon="-8.1173440">
        <ele>156.0</ele>
        <time>2022-08-27T08:56:51Z</time>
      </trkpt>
      <trkpt lat="42.3829890" lon="-8.1173690">
        <ele>155.0</ele>
        <time>2022-08-27T08:56:52Z</time>
      </trkpt>
      <trkpt lat="42.3828900" lon="-8.1173930">
        <ele>154.2</ele>
        <time>2022-08-27T08:56:53Z</time>
      </trkpt>
      <trkpt lat="42.3827990" lon="-8.1174090">
        <ele>153.0</ele>
        <time>2022-08-27T08:56:54Z</time>
      </trkpt>
      <trkpt lat="42.3827160" lon="-8.1174200">
        <ele>152.2</ele>
        <time>2022-08-27T08:56:55Z</time>
      </trkpt>
      <trkpt lat="42.3826410" lon="-8.1174330">
        <ele>150.8</ele>
        <time>2022-08-27T08:56:56Z</time>
      </trkpt>
      <trkpt lat="42.3825640" lon="-8.1174580">
        <ele>149.4</ele>
        <time>2022-08-27T08:56:57Z</time>
      </trkpt>
      <trkpt lat="42.3824880" lon="-8.1174980">
        <ele>148.0</ele>
        <time>2022-08-27T08:56:58Z</time>
      </trkpt>
      <trkpt lat="42.3824200" lon="-8.1175540">
        <ele>147.2</ele>
        <time>2022-08-27T08:56:59Z</time>
      </trkpt>
      <trkpt lat="42.3823640" lon="-8.1176250">
        <ele>146.4</ele>
        <time>2022-08-27T08:57:00Z</time>
      </trkpt>
      <trkpt lat="42.3822880" lon="-8.1177710">
        <ele>144.8</ele>
        <time>2022-08-27T08:57:02Z</time>
      </trkpt>
      <trkpt lat="42.3822450" lon="-8.1179020">
        <ele>143.2</ele>
        <time>2022-08-27T08:57:04Z</time>
      </trkpt>
      <trkpt lat="42.3822080" lon="-8.1180120">
        <ele>142.0</ele>
        <time>2022-08-27T08:57:06Z</time>
      </trkpt>
      <trkpt lat="42.3821740" lon="-8.1181250">
        <ele>140.4</ele>
        <time>2022-08-27T08:57:08Z</time>
      </trkpt>
      <trkpt lat="42.3821050" lon="-8.1182220">
        <ele>139.2</ele>
        <time>2022-08-27T08:57:10Z</time>
      </trkpt>
      <trkpt lat="42.3819730" lon="-8.1182870">
        <ele>137.8</ele>
        <time>2022-08-27T08:57:13Z</time>
      </trkpt>
      <trkpt lat="42.3819210" lon="-8.1182880">
        <ele>137.6</ele>
        <time>2022-08-27T08:57:14Z</time>
      </trkpt>
      <trkpt lat="42.3818120" lon="-8.1182690">
        <ele>136.4</ele>
        <time>2022-08-27T08:57:16Z</time>
      </trkpt>
      <trkpt lat="42.3817200" lon="-8.1182470">
        <ele>135.8</ele>
        <time>2022-08-27T08:57:18Z</time>
      </trkpt>
      <trkpt lat="42.3817020" lon="-8.1182440">
        <ele>135.4</ele>
        <time>2022-08-27T08:57:20Z</time>
      </trkpt>
      <trkpt lat="42.3817030" lon="-8.1182430">
        <ele>135.2</ele>
        <time>2022-08-27T08:57:21Z</time>
      </trkpt>
      <trkpt lat="42.3817630" lon="-8.1182160">
        <ele>132.2</ele>
        <time>2022-08-27T08:58:08Z</time>
      </trkpt>
      <trkpt lat="42.3817910" lon="-8.1182220">
        <ele>132.2</ele>
        <time>2022-08-27T08:58:10Z</time>
      </trkpt>
      <trkpt lat="42.3818750" lon="-8.1182370">
        <ele>132.4</ele>
        <time>2022-08-27T08:58:14Z</time>
      </trkpt>
      <trkpt lat="42.3819190" lon="-8.1182420">
        <ele>132.6</ele>
        <time>2022-08-27T08:58:16Z</time>
      </trkpt>
      <trkpt lat="42.3820320" lon="-8.1182420">
        <ele>133.2</ele>
        <time>2022-08-27T08:58:22Z</time>
      </trkpt>
      <trkpt lat="42.3820460" lon="-8.1182510">
        <ele>133.2</ele>
        <time>2022-08-27T08:58:23Z</time>
      </trkpt>
      <trkpt lat="42.3820660" lon="-8.1183400">
        <ele>133.8</ele>
        <time>2022-08-27T08:58:27Z</time>
      </trkpt>
      <trkpt lat="42.3820660" lon="-8.1183850">
        <ele>134.0</ele>
        <time>2022-08-27T08:58:28Z</time>
      </trkpt>
      <trkpt lat="42.3820590" lon="-8.1184390">
        <ele>134.0</ele>
        <time>2022-08-27T08:58:29Z</time>
      </trkpt>
      <trkpt lat="42.3820330" lon="-8.1185680">
        <ele>134.0</ele>
        <time>2022-08-27T08:58:31Z</time>
      </trkpt>
      <trkpt lat="42.3819410" lon="-8.1189780">
        <ele>134.2</ele>
        <time>2022-08-27T08:58:36Z</time>
      </trkpt>
      <trkpt lat="42.3819060" lon="-8.1191790">
        <ele>132.4</ele>
        <time>2022-08-27T08:58:39Z</time>
      </trkpt>
      <trkpt lat="42.3818980" lon="-8.1192290">
        <ele>131.8</ele>
        <time>2022-08-27T08:58:40Z</time>
      </trkpt>
      <trkpt lat="42.3818960" lon="-8.1193010">
        <ele>131.0</ele>
        <time>2022-08-27T08:58:43Z</time>
      </trkpt>
      <trkpt lat="42.3818970" lon="-8.1193140">
        <ele>130.8</ele>
        <time>2022-08-27T08:58:44Z</time>
      </trkpt>
      <trkpt lat="42.3819110" lon="-8.1193820">
        <ele>130.8</ele>
        <time>2022-08-27T08:58:48Z</time>
      </trkpt>
      <trkpt lat="42.3819130" lon="-8.1195450">
        <ele>131.0</ele>
        <time>2022-08-27T08:58:54Z</time>
      </trkpt>
      <trkpt lat="42.3818800" lon="-8.1197410">
        <ele>131.0</ele>
        <time>2022-08-27T08:58:59Z</time>
      </trkpt>
      <trkpt lat="42.3818660" lon="-8.1198230">
        <ele>131.0</ele>
        <time>2022-08-27T08:59:02Z</time>
      </trkpt>
      <trkpt lat="42.3818600" lon="-8.1198410">
        <ele>130.8</ele>
        <time>2022-08-27T08:59:03Z</time>
      </trkpt>
      <trkpt lat="42.3818420" lon="-8.1198520">
        <ele>130.4</ele>
        <time>2022-08-27T08:59:04Z</time>
      </trkpt>
      <trkpt lat="42.3818270" lon="-8.1198570">
        <ele>129.8</ele>
        <time>2022-08-27T08:59:05Z</time>
      </trkpt>
      <trkpt lat="42.3817900" lon="-8.1198520">
        <ele>129.0</ele>
        <time>2022-08-27T08:59:07Z</time>
      </trkpt>
      <trkpt lat="42.3817730" lon="-8.1198510">
        <ele>128.8</ele>
        <time>2022-08-27T08:59:08Z</time>
      </trkpt>
      <trkpt lat="42.3817580" lon="-8.1198530">
        <ele>128.4</ele>
        <time>2022-08-27T08:59:09Z</time>
      </trkpt>
      <trkpt lat="42.3817160" lon="-8.1198880">
        <ele>127.4</ele>
        <time>2022-08-27T08:59:12Z</time>
      </trkpt>
      <trkpt lat="42.3817080" lon="-8.1199040">
        <ele>127.2</ele>
        <time>2022-08-27T08:59:13Z</time>
      </trkpt>
      <trkpt lat="42.3817030" lon="-8.1199180">
        <ele>127.0</ele>
        <time>2022-08-27T08:59:14Z</time>
      </trkpt>
      <trkpt lat="42.3817090" lon="-8.1199740">
        <ele>126.2</ele>
        <time>2022-08-27T08:59:16Z</time>
      </trkpt>
      <trkpt lat="42.3817320" lon="-8.1200470">
        <ele>125.4</ele>
        <time>2022-08-27T08:59:18Z</time>
      </trkpt>
      <trkpt lat="42.3817450" lon="-8.1200730">
        <ele>125.0</ele>
        <time>2022-08-27T08:59:19Z</time>
      </trkpt>
      <trkpt lat="42.3817610" lon="-8.1201470">
        <ele>123.8</ele>
        <time>2022-08-27T08:59:22Z</time>
      </trkpt>
      <trkpt lat="42.3817610" lon="-8.1201690">
        <ele>123.6</ele>
        <time>2022-08-27T08:59:23Z</time>
      </trkpt>
      <trkpt lat="42.3817460" lon="-8.1202220">
        <ele>122.6</ele>
        <time>2022-08-27T08:59:25Z</time>
      </trkpt>
      <trkpt lat="42.3817010" lon="-8.1203010">
        <ele>121.6</ele>
        <time>2022-08-27T08:59:28Z</time>
      </trkpt>
      <trkpt lat="42.3816780" lon="-8.1203280">
        <ele>121.4</ele>
        <time>2022-08-27T08:59:29Z</time>
      </trkpt>
      <trkpt lat="42.3815800" lon="-8.1203810">
        <ele>120.4</ele>
        <time>2022-08-27T08:59:32Z</time>
      </trkpt>
      <trkpt lat="42.3815060" lon="-8.1204040">
        <ele>119.0</ele>
        <time>2022-08-27T08:59:34Z</time>
      </trkpt>
      <trkpt lat="42.3814480" lon="-8.1204270">
        <ele>118.0</ele>
        <time>2022-08-27T08:59:36Z</time>
      </trkpt>
      <trkpt lat="42.3814150" lon="-8.1204420">
        <ele>117.6</ele>
        <time>2022-08-27T08:59:37Z</time>
      </trkpt>
      <trkpt lat="42.3813530" lon="-8.1204710">
        <ele>116.8</ele>
        <time>2022-08-27T08:59:39Z</time>
      </trkpt>
      <trkpt lat="42.3812570" lon="-8.1204920">
        <ele>116.2</ele>
        <time>2022-08-27T08:59:43Z</time>
      </trkpt>
      <trkpt lat="42.3811010" lon="-8.1205240">
        <ele>116.0</ele>
        <time>2022-08-27T08:59:50Z</time>
      </trkpt>
      <trkpt lat="42.3809630" lon="-8.1206080">
        <ele>116.2</ele>
        <time>2022-08-27T08:59:56Z</time>
      </trkpt>
      <trkpt lat="42.3808190" lon="-8.1205940">
        <ele>116.2</ele>
        <time>2022-08-27T09:00:00Z</time>
      </trkpt>
      <trkpt lat="42.3807910" lon="-8.1205790">
        <ele>116.0</ele>
        <time>2022-08-27T09:00:01Z</time>
      </trkpt>
      <trkpt lat="42.3807040" lon="-8.1205430">
        <ele>114.8</ele>
        <time>2022-08-27T09:00:05Z</time>
      </trkpt>
      <trkpt lat="42.3806660" lon="-8.1205270">
        <ele>113.6</ele>
        <time>2022-08-27T09:00:08Z</time>
      </trkpt>
      <trkpt lat="42.3806540" lon="-8.1205240">
        <ele>113.4</ele>
        <time>2022-08-27T09:00:09Z</time>
      </trkpt>
      <trkpt lat="42.3804950" lon="-8.1203600">
        <ele>112.0</ele>
        <time>2022-08-27T09:00:33Z</time>
      </trkpt>
      <trkpt lat="42.3803930" lon="-8.1202950">
        <ele>112.0</ele>
        <time>2022-08-27T09:00:41Z</time>
      </trkpt>
      <trkpt lat="42.3803610" lon="-8.1202760">
        <ele>111.8</ele>
        <time>2022-08-27T09:00:43Z</time>
      </trkpt>
      <trkpt lat="42.3803160" lon="-8.1202450">
        <ele>111.4</ele>
        <time>2022-08-27T09:00:46Z</time>
      </trkpt>
      <trkpt lat="42.3803000" lon="-8.1202220">
        <ele>111.0</ele>
        <time>2022-08-27T09:00:48Z</time>
      </trkpt>
      <trkpt lat="42.3802920" lon="-8.1202030">
        <ele>110.6</ele>
        <time>2022-08-27T09:00:49Z</time>
      </trkpt>
      <trkpt lat="42.3802830" lon="-8.1201650">
        <ele>109.8</ele>
        <time>2022-08-27T09:00:51Z</time>
      </trkpt>
      <trkpt lat="42.3802740" lon="-8.1201460">
        <ele>109.4</ele>
        <time>2022-08-27T09:00:52Z</time>
      </trkpt>
      <trkpt lat="42.3802570" lon="-8.1201270">
        <ele>109.2</ele>
        <time>2022-08-27T09:00:53Z</time>
      </trkpt>
      <trkpt lat="42.3802430" lon="-8.1201140">
        <ele>108.6</ele>
        <time>2022-08-27T09:00:54Z</time>
      </trkpt>
      <trkpt lat="42.3802240" lon="-8.1201050">
        <ele>108.2</ele>
        <time>2022-08-27T09:00:56Z</time>
      </trkpt>
      <trkpt lat="42.3802130" lon="-8.1201010">
        <ele>108.0</ele>
        <time>2022-08-27T09:00:58Z</time>
      </trkpt>
      <trkpt lat="42.3800720" lon="-8.1203950">
        <ele>102.8</ele>
        <time>2022-08-27T09:08:10Z</time>
      </trkpt>
      <trkpt lat="42.3800910" lon="-8.1204320">
        <ele>102.8</ele>
        <time>2022-08-27T09:08:12Z</time>
      </trkpt>
      <trkpt lat="42.3801700" lon="-8.1204810">
        <ele>102.8</ele>
        <time>2022-08-27T09:08:17Z</time>
      </trkpt>
      <trkpt lat="42.3801830" lon="-8.1204860">
        <ele>102.8</ele>
        <time>2022-08-27T09:08:18Z</time>
      </trkpt>
      <trkpt lat="42.3801960" lon="-8.1204960">
        <ele>102.8</ele>
        <time>2022-08-27T09:08:19Z</time>
      </trkpt>
      <trkpt lat="42.3802440" lon="-8.1205790">
        <ele>102.8</ele>
        <time>2022-08-27T09:08:24Z</time>
      </trkpt>
      <trkpt lat="42.3802620" lon="-8.1206180">
        <ele>102.8</ele>
        <time>2022-08-27T09:08:27Z</time>
      </trkpt>
      <trkpt lat="42.3802870" lon="-8.1206500">
        <ele>103.4</ele>
        <time>2022-08-27T09:08:30Z</time>
      </trkpt>
      <trkpt lat="42.3803000" lon="-8.1206710">
        <ele>103.6</ele>
        <time>2022-08-27T09:08:32Z</time>
      </trkpt>
      <trkpt lat="42.3803200" lon="-8.1206960">
        <ele>103.8</ele>
        <time>2022-08-27T09:08:34Z</time>
      </trkpt>
      <trkpt lat="42.3803360" lon="-8.1207190">
        <ele>104.0</ele>
        <time>2022-08-27T09:08:36Z</time>
      </trkpt>
      <trkpt lat="42.3804140" lon="-8.1207770">
        <ele>104.6</ele>
        <time>2022-08-27T09:08:41Z</time>
      </trkpt>
      <trkpt lat="42.3804590" lon="-8.1208140">
        <ele>104.8</ele>
        <time>2022-08-27T09:08:44Z</time>
      </trkpt>
      <trkpt lat="42.3804950" lon="-8.1208290">
        <ele>104.8</ele>
        <time>2022-08-27T09:08:47Z</time>
      </trkpt>
      <trkpt lat="42.3805220" lon="-8.1208330">
        <ele>104.8</ele>
        <time>2022-08-27T09:08:50Z</time>
      </trkpt>
      <trkpt lat="42.3805350" lon="-8.1208300">
        <ele>104.8</ele>
        <time>2022-08-27T09:08:52Z</time>
      </trkpt>
      <trkpt lat="42.3805360" lon="-8.1208290">
        <ele>104.8</ele>
        <time>2022-08-27T09:08:53Z</time>
      </trkpt>
      <trkpt lat="42.3805700" lon="-8.1205990">
        <ele>112.2</ele>
        <time>2022-08-27T09:09:52Z</time>
      </trkpt>
      <trkpt lat="42.3805950" lon="-8.1206130">
        <ele>112.6</ele>
        <time>2022-08-27T09:09:54Z</time>
      </trkpt>
      <trkpt lat="42.3806860" lon="-8.1206420">
        <ele>113.2</ele>
        <time>2022-08-27T09:10:01Z</time>
      </trkpt>
      <trkpt lat="42.3807730" lon="-8.1206330">
        <ele>113.6</ele>
        <time>2022-08-27T09:10:09Z</time>
      </trkpt>
      <trkpt lat="42.3807810" lon="-8.1206320">
        <ele>113.6</ele>
        <time>2022-08-27T09:10:10Z</time>
      </trkpt>
      <trkpt lat="42.3808150" lon="-8.1206200">
        <ele>114.6</ele>
        <time>2022-08-27T09:10:14Z</time>
      </trkpt>
      <trkpt lat="42.3808750" lon="-8.1205820">
        <ele>115.8</ele>
        <time>2022-08-27T09:10:20Z</time>
      </trkpt>
      <trkpt lat="42.3808880" lon="-8.1205760">
        <ele>116.0</ele>
        <time>2022-08-27T09:10:21Z</time>
      </trkpt>
      <trkpt lat="42.3809340" lon="-8.1205650">
        <ele>117.0</ele>
        <time>2022-08-27T09:10:24Z</time>
      </trkpt>
      <trkpt lat="42.3810370" lon="-8.1205410">
        <ele>117.2</ele>
        <time>2022-08-27T09:10:29Z</time>
      </trkpt>
      <trkpt lat="42.3811680" lon="-8.1205060">
        <ele>117.0</ele>
        <time>2022-08-27T09:10:34Z</time>
      </trkpt>
      <trkpt lat="42.3813040" lon="-8.1204800">
        <ele>116.6</ele>
        <time>2022-08-27T09:10:40Z</time>
      </trkpt>
      <trkpt lat="42.3814380" lon="-8.1204670">
        <ele>116.6</ele>
        <time>2022-08-27T09:10:45Z</time>
      </trkpt>
      <trkpt lat="42.3814660" lon="-8.1204620">
        <ele>116.6</ele>
        <time>2022-08-27T09:10:46Z</time>
      </trkpt>
      <trkpt lat="42.3815330" lon="-8.1204060">
        <ele>117.0</ele>
        <time>2022-08-27T09:10:51Z</time>
      </trkpt>
      <trkpt lat="42.3815660" lon="-8.1203560">
        <ele>118.0</ele>
        <time>2022-08-27T09:10:56Z</time>
      </trkpt>
      <trkpt lat="42.3815680" lon="-8.1203100">
        <ele>119.0</ele>
        <time>2022-08-27T09:11:00Z</time>
      </trkpt>
      <trkpt lat="42.3815720" lon="-8.1202950">
        <ele>119.4</ele>
        <time>2022-08-27T09:11:01Z</time>
      </trkpt>
      <trkpt lat="42.3815740" lon="-8.1202800">
        <ele>119.6</ele>
        <time>2022-08-27T09:11:02Z</time>
      </trkpt>
      <trkpt lat="42.3815790" lon="-8.1202350">
        <ele>120.4</ele>
        <time>2022-08-27T09:11:05Z</time>
      </trkpt>
      <trkpt lat="42.3815830" lon="-8.1201730">
        <ele>121.0</ele>
        <time>2022-08-27T09:11:09Z</time>
      </trkpt>
      <trkpt lat="42.3815840" lon="-8.1201410">
        <ele>121.4</ele>
        <time>2022-08-27T09:11:11Z</time>
      </trkpt>
      <trkpt lat="42.3816060" lon="-8.1200080">
        <ele>122.6</ele>
        <time>2022-08-27T09:11:20Z</time>
      </trkpt>
      <trkpt lat="42.3816150" lon="-8.1199970">
        <ele>122.6</ele>
        <time>2022-08-27T09:11:21Z</time>
      </trkpt>
      <trkpt lat="42.3816510" lon="-8.1199850">
        <ele>123.6</ele>
        <time>2022-08-27T09:11:24Z</time>
      </trkpt>
      <trkpt lat="42.3816810" lon="-8.1199750">
        <ele>124.6</ele>
        <time>2022-08-27T09:11:28Z</time>
      </trkpt>
      <trkpt lat="42.3816910" lon="-8.1199760">
        <ele>125.0</ele>
        <time>2022-08-27T09:11:29Z</time>
      </trkpt>
      <trkpt lat="42.3817350" lon="-8.1199740">
        <ele>126.0</ele>
        <time>2022-08-27T09:11:34Z</time>
      </trkpt>
      <trkpt lat="42.3817980" lon="-8.1199390">
        <ele>127.0</ele>
        <time>2022-08-27T09:11:40Z</time>
      </trkpt>
      <trkpt lat="42.3818050" lon="-8.1199260">
        <ele>127.0</ele>
        <time>2022-08-27T09:11:41Z</time>
      </trkpt>
      <trkpt lat="42.3818150" lon="-8.1198990">
        <ele>127.2</ele>
        <time>2022-08-27T09:11:43Z</time>
      </trkpt>
      <trkpt lat="42.3818370" lon="-8.1198290">
        <ele>128.2</ele>
        <time>2022-08-27T09:11:48Z</time>
      </trkpt>
      <trkpt lat="42.3818630" lon="-8.1197550">
        <ele>129.2</ele>
        <time>2022-08-27T09:11:53Z</time>
      </trkpt>
      <trkpt lat="42.3818740" lon="-8.1196350">
        <ele>129.8</ele>
        <time>2022-08-27T09:11:59Z</time>
      </trkpt>
      <trkpt lat="42.3818710" lon="-8.1195760">
        <ele>130.2</ele>
        <time>2022-08-27T09:12:02Z</time>
      </trkpt>
      <trkpt lat="42.3818680" lon="-8.1195450">
        <ele>131.0</ele>
        <time>2022-08-27T09:12:04Z</time>
      </trkpt>
      <trkpt lat="42.3818570" lon="-8.1194220">
        <ele>131.6</ele>
        <time>2022-08-27T09:12:10Z</time>
      </trkpt>
      <trkpt lat="42.3818790" lon="-8.1192440">
        <ele>131.8</ele>
        <time>2022-08-27T09:12:15Z</time>
      </trkpt>
      <trkpt lat="42.3819390" lon="-8.1189400">
        <ele>131.6</ele>
        <time>2022-08-27T09:12:21Z</time>
      </trkpt>
      <trkpt lat="42.3820160" lon="-8.1186480">
        <ele>131.0</ele>
        <time>2022-08-27T09:12:28Z</time>
      </trkpt>
      <trkpt lat="42.3820640" lon="-8.1184490">
        <ele>131.2</ele>
        <time>2022-08-27T09:12:35Z</time>
      </trkpt>
      <trkpt lat="42.3820610" lon="-8.1183150">
        <ele>132.6</ele>
        <time>2022-08-27T09:12:42Z</time>
      </trkpt>
      <trkpt lat="42.3820530" lon="-8.1183040">
        <ele>133.0</ele>
        <time>2022-08-27T09:12:43Z</time>
      </trkpt>
      <trkpt lat="42.3820170" lon="-8.1182920">
        <ele>133.8</ele>
        <time>2022-08-27T09:12:45Z</time>
      </trkpt>
      <trkpt lat="42.3819600" lon="-8.1182850">
        <ele>134.8</ele>
        <time>2022-08-27T09:12:47Z</time>
      </trkpt>
      <trkpt lat="42.3818410" lon="-8.1182550">
        <ele>135.0</ele>
        <time>2022-08-27T09:12:50Z</time>
      </trkpt>
      <trkpt lat="42.3817430" lon="-8.1182300">
        <ele>135.2</ele>
        <time>2022-08-27T09:12:52Z</time>
      </trkpt>
      <trkpt lat="42.3814220" lon="-8.1181870">
        <ele>135.0</ele>
        <time>2022-08-27T09:12:57Z</time>
      </trkpt>
      <trkpt lat="42.3810270" lon="-8.1181940">
        <ele>134.0</ele>
        <time>2022-08-27T09:13:02Z</time>
      </trkpt>
      <trkpt lat="42.3809440" lon="-8.1181990">
        <ele>133.6</ele>
        <time>2022-08-27T09:13:03Z</time>
      </trkpt>
      <trkpt lat="42.3807820" lon="-8.1182090">
        <ele>132.8</ele>
        <time>2022-08-27T09:13:05Z</time>
      </trkpt>
      <trkpt lat="42.3806270" lon="-8.1182170">
        <ele>131.4</ele>
        <time>2022-08-27T09:13:07Z</time>
      </trkpt>
      <trkpt lat="42.3803980" lon="-8.1182200">
        <ele>130.0</ele>
        <time>2022-08-27T09:13:10Z</time>
      </trkpt>
      <trkpt lat="42.3801640" lon="-8.1182320">
        <ele>128.8</ele>
        <time>2022-08-27T09:13:13Z</time>
      </trkpt>
      <trkpt lat="42.3800020" lon="-8.1182610">
        <ele>127.8</ele>
        <time>2022-08-27T09:13:15Z</time>
      </trkpt>
      <trkpt lat="42.3799180" lon="-8.1182780">
        <ele>127.4</ele>
        <time>2022-08-27T09:13:16Z</time>
      </trkpt>
      <trkpt lat="42.3797470" lon="-8.1182930">
        <ele>126.6</ele>
        <time>2022-08-27T09:13:18Z</time>
      </trkpt>
      <trkpt lat="42.3794900" lon="-8.1182610">
        <ele>125.6</ele>
        <time>2022-08-27T09:13:21Z</time>
      </trkpt>
      <trkpt lat="42.3792430" lon="-8.1181720">
        <ele>124.4</ele>
        <time>2022-08-27T09:13:24Z</time>
      </trkpt>
      <trkpt lat="42.3790840" lon="-8.1180910">
        <ele>123.4</ele>
        <time>2022-08-27T09:13:26Z</time>
      </trkpt>
      <trkpt lat="42.3788410" lon="-8.1179490">
        <ele>122.2</ele>
        <time>2022-08-27T09:13:29Z</time>
      </trkpt>
      <trkpt lat="42.3785930" lon="-8.1178070">
        <ele>121.0</ele>
        <time>2022-08-27T09:13:32Z</time>
      </trkpt>
      <trkpt lat="42.3784250" lon="-8.1177150">
        <ele>120.0</ele>
        <time>2022-08-27T09:13:34Z</time>
      </trkpt>
      <trkpt lat="42.3781630" lon="-8.1175910">
        <ele>118.8</ele>
        <time>2022-08-27T09:13:37Z</time>
      </trkpt>
      <trkpt lat="42.3778990" lon="-8.1174600">
        <ele>117.4</ele>
        <time>2022-08-27T09:13:40Z</time>
      </trkpt>
      <trkpt lat="42.3778100" lon="-8.1174190">
        <ele>116.2</ele>
        <time>2022-08-27T09:13:41Z</time>
      </trkpt>
      <trkpt lat="42.3775430" lon="-8.1173030">
        <ele>114.8</ele>
        <time>2022-08-27T09:13:44Z</time>
      </trkpt>
      <trkpt lat="42.3772740" lon="-8.1171970">
        <ele>113.4</ele>
        <time>2022-08-27T09:13:47Z</time>
      </trkpt>
      <trkpt lat="42.3770950" lon="-8.1171310">
        <ele>112.6</ele>
        <time>2022-08-27T09:13:49Z</time>
      </trkpt>
      <trkpt lat="42.3770060" lon="-8.1171050">
        <ele>112.2</ele>
        <time>2022-08-27T09:13:50Z</time>
      </trkpt>
      <trkpt lat="42.3767480" lon="-8.1170310">
        <ele>111.0</ele>
        <time>2022-08-27T09:13:53Z</time>
      </trkpt>
      <trkpt lat="42.3765860" lon="-8.1169790">
        <ele>110.2</ele>
        <time>2022-08-27T09:13:55Z</time>
      </trkpt>
      <trkpt lat="42.3765040" lon="-8.1169540">
        <ele>109.8</ele>
        <time>2022-08-27T09:13:56Z</time>
      </trkpt>
      <trkpt lat="42.3761140" lon="-8.1168310">
        <ele>108.8</ele>
        <time>2022-08-27T09:14:01Z</time>
      </trkpt>
      <trkpt lat="42.3759610" lon="-8.1167780">
        <ele>108.4</ele>
        <time>2022-08-27T09:14:03Z</time>
      </trkpt>
      <trkpt lat="42.3757320" lon="-8.1167040">
        <ele>107.8</ele>
        <time>2022-08-27T09:14:06Z</time>
      </trkpt>
      <trkpt lat="42.3754270" lon="-8.1166150">
        <ele>106.8</ele>
        <time>2022-08-27T09:14:10Z</time>
      </trkpt>
      <trkpt lat="42.3753490" lon="-8.1165970">
        <ele>106.4</ele>
        <time>2022-08-27T09:14:11Z</time>
      </trkpt>
      <trkpt lat="42.3750360" lon="-8.1165460">
        <ele>105.4</ele>
        <time>2022-08-27T09:14:15Z</time>
      </trkpt>
      <trkpt lat="42.3748060" lon="-8.1165210">
        <ele>104.8</ele>
        <time>2022-08-27T09:14:18Z</time>
      </trkpt>
      <trkpt lat="42.3746570" lon="-8.1165190">
        <ele>104.4</ele>
        <time>2022-08-27T09:14:20Z</time>
      </trkpt>
      <trkpt lat="42.3743030" lon="-8.1165500">
        <ele>103.2</ele>
        <time>2022-08-27T09:14:25Z</time>
      </trkpt>
      <trkpt lat="42.3737930" lon="-8.1166850">
        <ele>102.4</ele>
        <time>2022-08-27T09:14:33Z</time>
      </trkpt>
      <trkpt lat="42.3733640" lon="-8.1168760">
        <ele>102.8</ele>
        <time>2022-08-27T09:14:41Z</time>
      </trkpt>
      <trkpt lat="42.3729900" lon="-8.1171210">
        <ele>103.2</ele>
        <time>2022-08-27T09:14:49Z</time>
      </trkpt>
      <trkpt lat="42.3726950" lon="-8.1173860">
        <ele>103.8</ele>
        <time>2022-08-27T09:14:56Z</time>
      </trkpt>
      <trkpt lat="42.3724350" lon="-8.1176870">
        <ele>104.2</ele>
        <time>2022-08-27T09:15:03Z</time>
      </trkpt>
      <trkpt lat="42.3723640" lon="-8.1177710">
        <ele>104.4</ele>
        <time>2022-08-27T09:15:05Z</time>
      </trkpt>
      <trkpt lat="42.3721460" lon="-8.1180920">
        <ele>104.8</ele>
        <time>2022-08-27T09:15:12Z</time>
      </trkpt>
      <trkpt lat="42.3721110" lon="-8.1183170">
        <ele>105.0</ele>
        <time>2022-08-27T09:15:16Z</time>
      </trkpt>
      <trkpt lat="42.3721600" lon="-8.1185410">
        <ele>105.6</ele>
        <time>2022-08-27T09:15:20Z</time>
      </trkpt>
      <trkpt lat="42.3721820" lon="-8.1185870">
        <ele>105.8</ele>
        <time>2022-08-27T09:15:21Z</time>
      </trkpt>
      <trkpt lat="42.3722610" lon="-8.1186920">
        <ele>106.0</ele>
        <time>2022-08-27T09:15:25Z</time>
      </trkpt>
      <trkpt lat="42.3722810" lon="-8.1187120">
        <ele>106.0</ele>
        <time>2022-08-27T09:15:28Z</time>
      </trkpt>
      <trkpt lat="42.3724370" lon="-8.1186260">
        <ele>99.2</ele>
        <time>2022-08-27T09:16:31Z</time>
      </trkpt>
      <trkpt lat="42.3724320" lon="-8.1188540">
        <ele>98.4</ele>
        <time>2022-08-27T09:16:37Z</time>
      </trkpt>
      <trkpt lat="42.3724040" lon="-8.1189390">
        <ele>98.0</ele>
        <time>2022-08-27T09:16:40Z</time>
      </trkpt>
      <trkpt lat="42.3723790" lon="-8.1189870">
        <ele>98.0</ele>
        <time>2022-08-27T09:16:42Z</time>
      </trkpt>
      <trkpt lat="42.3723070" lon="-8.1191160">
        <ele>98.0</ele>
        <time>2022-08-27T09:16:47Z</time>
      </trkpt>
      <trkpt lat="42.3722410" lon="-8.1192580">
        <ele>98.0</ele>
        <time>2022-08-27T09:16:53Z</time>
      </trkpt>
      <trkpt lat="42.3722220" lon="-8.1194380">
        <ele>98.2</ele>
        <time>2022-08-27T09:16:58Z</time>
      </trkpt>
      <trkpt lat="42.3722490" lon="-8.1196380">
        <ele>98.2</ele>
        <time>2022-08-27T09:17:03Z</time>
      </trkpt>
      <trkpt lat="42.3722750" lon="-8.1198190">
        <ele>98.0</ele>
        <time>2022-08-27T09:17:08Z</time>
      </trkpt>
      <trkpt lat="42.3722960" lon="-8.1200730">
        <ele>98.0</ele>
        <time>2022-08-27T09:17:14Z</time>
      </trkpt>
      <trkpt lat="42.3722430" lon="-8.1203750">
        <ele>97.8</ele>
        <time>2022-08-27T09:17:21Z</time>
      </trkpt>
      <trkpt lat="42.3722070" lon="-8.1205920">
        <ele>97.8</ele>
        <time>2022-08-27T09:17:26Z</time>
      </trkpt>
      <trkpt lat="42.3721480" lon="-8.1208640">
        <ele>97.8</ele>
        <time>2022-08-27T09:17:32Z</time>
      </trkpt>
      <trkpt lat="42.3720670" lon="-8.1211620">
        <ele>97.8</ele>
        <time>2022-08-27T09:17:38Z</time>
      </trkpt>
      <trkpt lat="42.3719830" lon="-8.1214170">
        <ele>97.6</ele>
        <time>2022-08-27T09:17:44Z</time>
      </trkpt>
      <trkpt lat="42.3719250" lon="-8.1215930">
        <ele>97.6</ele>
        <time>2022-08-27T09:17:49Z</time>
      </trkpt>
      <trkpt lat="42.3718830" lon="-8.1218250">
        <ele>98.2</ele>
        <time>2022-08-27T09:17:55Z</time>
      </trkpt>
      <trkpt lat="42.3718030" lon="-8.1220360">
        <ele>98.2</ele>
        <time>2022-08-27T09:18:00Z</time>
      </trkpt>
      <trkpt lat="42.3717100" lon="-8.1222250">
        <ele>98.0</ele>
        <time>2022-08-27T09:18:05Z</time>
      </trkpt>
      <trkpt lat="42.3716040" lon="-8.1223780">
        <ele>97.8</ele>
        <time>2022-08-27T09:18:10Z</time>
      </trkpt>
      <trkpt lat="42.3715010" lon="-8.1225880">
        <ele>97.8</ele>
        <time>2022-08-27T09:18:15Z</time>
      </trkpt>
      <trkpt lat="42.3713300" lon="-8.1227250">
        <ele>97.6</ele>
        <time>2022-08-27T09:18:20Z</time>
      </trkpt>
      <trkpt lat="42.3712950" lon="-8.1227370">
        <ele>97.4</ele>
        <time>2022-08-27T09:18:21Z</time>
      </trkpt>
      <trkpt lat="42.3711130" lon="-8.1227950">
        <ele>97.4</ele>
        <time>2022-08-27T09:18:26Z</time>
      </trkpt>
      <trkpt lat="42.3709190" lon="-8.1228110">
        <ele>97.4</ele>
        <time>2022-08-27T09:18:31Z</time>
      </trkpt>
      <trkpt lat="42.3707480" lon="-8.1227360">
        <ele>97.4</ele>
        <time>2022-08-27T09:18:36Z</time>
      </trkpt>
      <trkpt lat="42.3705240" lon="-8.1226950">
        <ele>97.6</ele>
        <time>2022-08-27T09:18:42Z</time>
      </trkpt>
      <trkpt lat="42.3703040" lon="-8.1225260">
        <ele>97.8</ele>
        <time>2022-08-27T09:18:49Z</time>
      </trkpt>
      <trkpt lat="42.3701150" lon="-8.1223400">
        <ele>98.0</ele>
        <time>2022-08-27T09:18:56Z</time>
      </trkpt>
      <trkpt lat="42.3699120" lon="-8.1222500">
        <ele>98.0</ele>
        <time>2022-08-27T09:19:02Z</time>
      </trkpt>
      <trkpt lat="42.3696410" lon="-8.1221220">
        <ele>98.0</ele>
        <time>2022-08-27T09:19:10Z</time>
      </trkpt>
      <trkpt lat="42.3694770" lon="-8.1219570">
        <ele>97.8</ele>
        <time>2022-08-27T09:19:15Z</time>
      </trkpt>
      <trkpt lat="42.3694000" lon="-8.1219050">
        <ele>97.4</ele>
        <time>2022-08-27T09:19:17Z</time>
      </trkpt>
      <trkpt lat="42.3692030" lon="-8.1217640">
        <ele>97.2</ele>
        <time>2022-08-27T09:19:22Z</time>
      </trkpt>
      <trkpt lat="42.3691620" lon="-8.1217450">
        <ele>97.2</ele>
        <time>2022-08-27T09:19:23Z</time>
      </trkpt>
      <trkpt lat="42.3688050" lon="-8.1216190">
        <ele>96.8</ele>
        <time>2022-08-27T09:19:31Z</time>
      </trkpt>
      <trkpt lat="42.3686300" lon="-8.1215550">
        <ele>96.4</ele>
        <time>2022-08-27T09:19:35Z</time>
      </trkpt>
      <trkpt lat="42.3684230" lon="-8.1214870">
        <ele>96.2</ele>
        <time>2022-08-27T09:19:40Z</time>
      </trkpt>
      <trkpt lat="42.3681200" lon="-8.1213910">
        <ele>96.2</ele>
        <time>2022-08-27T09:19:48Z</time>
      </trkpt>
      <trkpt lat="42.3678310" lon="-8.1212680">
        <ele>96.0</ele>
        <time>2022-08-27T09:19:56Z</time>
      </trkpt>
      <trkpt lat="42.3676650" lon="-8.1212110">
        <ele>95.8</ele>
        <time>2022-08-27T09:20:01Z</time>
      </trkpt>
      <trkpt lat="42.3674930" lon="-8.1212600">
        <ele>95.8</ele>
        <time>2022-08-27T09:20:06Z</time>
      </trkpt>
      <trkpt lat="42.3673270" lon="-8.1213240">
        <ele>96.0</ele>
        <time>2022-08-27T09:20:11Z</time>
      </trkpt>
      <trkpt lat="42.3672730" lon="-8.1212480">
        <ele>96.0</ele>
        <time>2022-08-27T09:20:14Z</time>
      </trkpt>
      <trkpt lat="42.3671660" lon="-8.1211660">
        <ele>96.0</ele>
        <time>2022-08-27T09:20:19Z</time>
      </trkpt>
      <trkpt lat="42.3669670" lon="-8.1212790">
        <ele>96.2</ele>
        <time>2022-08-27T09:20:25Z</time>
      </trkpt>
      <trkpt lat="42.3668430" lon="-8.1213370">
        <ele>96.2</ele>
        <time>2022-08-27T09:20:29Z</time>
      </trkpt>
      <trkpt lat="42.3666710" lon="-8.1213950">
        <ele>96.4</ele>
        <time>2022-08-27T09:20:34Z</time>
      </trkpt>
      <trkpt lat="42.3665200" lon="-8.1214900">
        <ele>96.2</ele>
        <time>2022-08-27T09:20:39Z</time>
      </trkpt>
      <trkpt lat="42.3664430" lon="-8.1215240">
        <ele>96.2</ele>
        <time>2022-08-27T09:20:41Z</time>
      </trkpt>
      <trkpt lat="42.3663650" lon="-8.1215650">
        <ele>96.2</ele>
        <time>2022-08-27T09:20:43Z</time>
      </trkpt>
      <trkpt lat="42.3662860" lon="-8.1216060">
        <ele>96.2</ele>
        <time>2022-08-27T09:20:45Z</time>
      </trkpt>
      <trkpt lat="42.3661750" lon="-8.1216600">
        <ele>96.0</ele>
        <time>2022-08-27T09:20:48Z</time>
      </trkpt>
      <trkpt lat="42.3659950" lon="-8.1217610">
        <ele>95.4</ele>
        <time>2022-08-27T09:20:53Z</time>
      </trkpt>
      <trkpt lat="42.3659590" lon="-8.1217810">
        <ele>95.4</ele>
        <time>2022-08-27T09:20:54Z</time>
      </trkpt>
      <trkpt lat="42.3657320" lon="-8.1219140">
        <ele>95.4</ele>
        <time>2022-08-27T09:20:59Z</time>
      </trkpt>
      <trkpt lat="42.3654110" lon="-8.1221610">
        <ele>95.2</ele>
        <time>2022-08-27T09:21:06Z</time>
      </trkpt>
      <trkpt lat="42.3651000" lon="-8.1223720">
        <ele>95.2</ele>
        <time>2022-08-27T09:21:13Z</time>
      </trkpt>
      <trkpt lat="42.3647540" lon="-8.1226110">
        <ele>95.2</ele>
        <time>2022-08-27T09:21:21Z</time>
      </trkpt>
      <trkpt lat="42.3643980" lon="-8.1227590">
        <ele>95.2</ele>
        <time>2022-08-27T09:21:29Z</time>
      </trkpt>
      <trkpt lat="42.3640040" lon="-8.1228360">
        <ele>95.4</ele>
        <time>2022-08-27T09:21:38Z</time>
      </trkpt>
      <trkpt lat="42.3637510" lon="-8.1229220">
        <ele>95.6</ele>
        <time>2022-08-27T09:21:45Z</time>
      </trkpt>
      <trkpt lat="42.3636370" lon="-8.1229740">
        <ele>96.2</ele>
        <time>2022-08-27T09:21:48Z</time>
      </trkpt>
      <trkpt lat="42.3634320" lon="-8.1230920">
        <ele>96.4</ele>
        <time>2022-08-27T09:21:53Z</time>
      </trkpt>
      <trkpt lat="42.3630160" lon="-8.1232600">
        <ele>96.4</ele>
        <time>2022-08-27T09:22:02Z</time>
      </trkpt>
      <trkpt lat="42.3627100" lon="-8.1233740">
        <ele>95.8</ele>
        <time>2022-08-27T09:22:09Z</time>
      </trkpt>
      <trkpt lat="42.3624970" lon="-8.1234060">
        <ele>95.8</ele>
        <time>2022-08-27T09:22:13Z</time>
      </trkpt>
      <trkpt lat="42.3624440" lon="-8.1234130">
        <ele>95.8</ele>
        <time>2022-08-27T09:22:14Z</time>
      </trkpt>
      <trkpt lat="42.3622350" lon="-8.1234200">
        <ele>95.4</ele>
        <time>2022-08-27T09:22:18Z</time>
      </trkpt>
      <trkpt lat="42.3620780" lon="-8.1233910">
        <ele>95.2</ele>
        <time>2022-08-27T09:22:21Z</time>
      </trkpt>
      <trkpt lat="42.3620300" lon="-8.1233740">
        <ele>95.2</ele>
        <time>2022-08-27T09:22:22Z</time>
      </trkpt>
      <trkpt lat="42.3617980" lon="-8.1232660">
        <ele>95.0</ele>
        <time>2022-08-27T09:22:27Z</time>
      </trkpt>
      <trkpt lat="42.3616350" lon="-8.1232050">
        <ele>95.2</ele>
        <time>2022-08-27T09:22:31Z</time>
      </trkpt>
      <trkpt lat="42.3615550" lon="-8.1231730">
        <ele>95.2</ele>
        <time>2022-08-27T09:22:33Z</time>
      </trkpt>
      <trkpt lat="42.3613580" lon="-8.1230890">
        <ele>95.4</ele>
        <time>2022-08-27T09:22:38Z</time>
      </trkpt>
      <trkpt lat="42.3613180" lon="-8.1230630">
        <ele>95.6</ele>
        <time>2022-08-27T09:22:39Z</time>
      </trkpt>
      <trkpt lat="42.3612380" lon="-8.1230180">
        <ele>95.6</ele>
        <time>2022-08-27T09:22:41Z</time>
      </trkpt>
      <trkpt lat="42.3610620" lon="-8.1229250">
        <ele>95.8</ele>
        <time>2022-08-27T09:22:46Z</time>
      </trkpt>
      <trkpt lat="42.3608920" lon="-8.1228460">
        <ele>96.4</ele>
        <time>2022-08-27T09:22:52Z</time>
      </trkpt>
      <trkpt lat="42.3607990" lon="-8.1228050">
        <ele>96.8</ele>
        <time>2022-08-27T09:22:55Z</time>
      </trkpt>
      <trkpt lat="42.3607710" lon="-8.1227780">
        <ele>97.2</ele>
        <time>2022-08-27T09:22:56Z</time>
      </trkpt>
      <trkpt lat="42.3605720" lon="-8.1227020">
        <ele>97.8</ele>
        <time>2022-08-27T09:23:02Z</time>
      </trkpt>
      <trkpt lat="42.3604220" lon="-8.1226700">
        <ele>97.8</ele>
        <time>2022-08-27T09:23:06Z</time>
      </trkpt>
      <trkpt lat="42.3602040" lon="-8.1226310">
        <ele>97.6</ele>
        <time>2022-08-27T09:23:10Z</time>
      </trkpt>
      <trkpt lat="42.3600950" lon="-8.1226000">
        <ele>97.4</ele>
        <time>2022-08-27T09:23:12Z</time>
      </trkpt>
      <trkpt lat="42.3600470" lon="-8.1225780">
        <ele>97.2</ele>
        <time>2022-08-27T09:23:13Z</time>
      </trkpt>
      <trkpt lat="42.3599280" lon="-8.1224840">
        <ele>96.2</ele>
        <time>2022-08-27T09:23:16Z</time>
      </trkpt>
      <trkpt lat="42.3598910" lon="-8.1224420">
        <ele>96.0</ele>
        <time>2022-08-27T09:23:17Z</time>
      </trkpt>
      <trkpt lat="42.3598560" lon="-8.1224050">
        <ele>95.6</ele>
        <time>2022-08-27T09:23:18Z</time>
      </trkpt>
      <trkpt lat="42.3597560" lon="-8.1223300">
        <ele>95.4</ele>
        <time>2022-08-27T09:23:21Z</time>
      </trkpt>
      <trkpt lat="42.3596130" lon="-8.1222860">
        <ele>95.4</ele>
        <time>2022-08-27T09:23:26Z</time>
      </trkpt>
      <trkpt lat="42.3594360" lon="-8.1222160">
        <ele>96.6</ele>
        <time>2022-08-27T09:23:31Z</time>
      </trkpt>
      <trkpt lat="42.3593960" lon="-8.1221960">
        <ele>97.0</ele>
        <time>2022-08-27T09:23:32Z</time>
      </trkpt>
      <trkpt lat="42.3591010" lon="-8.1220480">
        <ele>97.2</ele>
        <time>2022-08-27T09:23:39Z</time>
      </trkpt>
      <trkpt lat="42.3588680" lon="-8.1219110">
        <ele>97.0</ele>
        <time>2022-08-27T09:23:45Z</time>
      </trkpt>
      <trkpt lat="42.3585110" lon="-8.1217330">
        <ele>96.8</ele>
        <time>2022-08-27T09:23:53Z</time>
      </trkpt>
      <trkpt lat="42.3583280" lon="-8.1216010">
        <ele>96.8</ele>
        <time>2022-08-27T09:23:57Z</time>
      </trkpt>
      <trkpt lat="42.3582410" lon="-8.1215160">
        <ele>96.8</ele>
        <time>2022-08-27T09:23:59Z</time>
      </trkpt>
      <trkpt lat="42.3579400" lon="-8.1212860">
        <ele>96.8</ele>
        <time>2022-08-27T09:24:06Z</time>
      </trkpt>
      <trkpt lat="42.3578560" lon="-8.1212060">
        <ele>96.8</ele>
        <time>2022-08-27T09:24:08Z</time>
      </trkpt>
      <trkpt lat="42.3577470" lon="-8.1210980">
        <ele>96.8</ele>
        <time>2022-08-27T09:24:11Z</time>
      </trkpt>
      <trkpt lat="42.3575210" lon="-8.1209290">
        <ele>96.6</ele>
        <time>2022-08-27T09:24:17Z</time>
      </trkpt>
      <trkpt lat="42.3574780" lon="-8.1209070">
        <ele>96.6</ele>
        <time>2022-08-27T09:24:18Z</time>
      </trkpt>
      <trkpt lat="42.3573380" lon="-8.1208370">
        <ele>96.6</ele>
        <time>2022-08-27T09:24:21Z</time>
      </trkpt>
      <trkpt lat="42.3572920" lon="-8.1208130">
        <ele>96.6</ele>
        <time>2022-08-27T09:24:22Z</time>
      </trkpt>
      <trkpt lat="42.3570920" lon="-8.1206110">
        <ele>96.4</ele>
        <time>2022-08-27T09:24:27Z</time>
      </trkpt>
      <trkpt lat="42.3569240" lon="-8.1204430">
        <ele>95.8</ele>
        <time>2022-08-27T09:24:31Z</time>
      </trkpt>
      <trkpt lat="42.3568280" lon="-8.1203790">
        <ele>95.6</ele>
        <time>2022-08-27T09:24:33Z</time>
      </trkpt>
      <trkpt lat="42.3565320" lon="-8.1201670">
        <ele>95.4</ele>
        <time>2022-08-27T09:24:39Z</time>
      </trkpt>
      <trkpt lat="42.3564460" lon="-8.1201050">
        <ele>95.4</ele>
        <time>2022-08-27T09:24:41Z</time>
      </trkpt>
      <trkpt lat="42.3563160" lon="-8.1200090">
        <ele>95.6</ele>
        <time>2022-08-27T09:24:44Z</time>
      </trkpt>
      <trkpt lat="42.3561210" lon="-8.1197820">
        <ele>95.6</ele>
        <time>2022-08-27T09:24:50Z</time>
      </trkpt>
      <trkpt lat="42.3560250" lon="-8.1195990">
        <ele>95.8</ele>
        <time>2022-08-27T09:24:55Z</time>
      </trkpt>
      <trkpt lat="42.3558950" lon="-8.1195330">
        <ele>96.4</ele>
        <time>2022-08-27T09:25:00Z</time>
      </trkpt>
      <trkpt lat="42.3558260" lon="-8.1195460">
        <ele>97.0</ele>
        <time>2022-08-27T09:25:02Z</time>
      </trkpt>
      <trkpt lat="42.3557010" lon="-8.1195760">
        <ele>97.6</ele>
        <time>2022-08-27T09:25:05Z</time>
      </trkpt>
      <trkpt lat="42.3553560" lon="-8.1196690">
        <ele>97.8</ele>
        <time>2022-08-27T09:25:12Z</time>
      </trkpt>
      <trkpt lat="42.3549720" lon="-8.1197080">
        <ele>97.0</ele>
        <time>2022-08-27T09:25:19Z</time>
      </trkpt>
      <trkpt lat="42.3545920" lon="-8.1196620">
        <ele>96.4</ele>
        <time>2022-08-27T09:25:27Z</time>
      </trkpt>
      <trkpt lat="42.3541640" lon="-8.1195860">
        <ele>96.6</ele>
        <time>2022-08-27T09:25:36Z</time>
      </trkpt>
      <trkpt lat="42.3538580" lon="-8.1194600">
        <ele>96.8</ele>
        <time>2022-08-27T09:25:43Z</time>
      </trkpt>
      <trkpt lat="42.3534970" lon="-8.1193030">
        <ele>97.2</ele>
        <time>2022-08-27T09:25:51Z</time>
      </trkpt>
      <trkpt lat="42.3532630" lon="-8.1191750">
        <ele>97.2</ele>
        <time>2022-08-27T09:25:57Z</time>
      </trkpt>
      <trkpt lat="42.3530140" lon="-8.1190580">
        <ele>97.8</ele>
        <time>2022-08-27T09:26:05Z</time>
      </trkpt>
      <trkpt lat="42.3529750" lon="-8.1190530">
        <ele>98.0</ele>
        <time>2022-08-27T09:26:06Z</time>
      </trkpt>
      <trkpt lat="42.3527880" lon="-8.1190390">
        <ele>99.0</ele>
        <time>2022-08-27T09:26:10Z</time>
      </trkpt>
      <trkpt lat="42.3525520" lon="-8.1190620">
        <ele>99.0</ele>
        <time>2022-08-27T09:26:14Z</time>
      </trkpt>
      <trkpt lat="42.3522300" lon="-8.1191520">
        <ele>98.6</ele>
        <time>2022-08-27T09:26:19Z</time>
      </trkpt>
      <trkpt lat="42.3520000" lon="-8.1191990">
        <ele>97.2</ele>
        <time>2022-08-27T09:26:23Z</time>
      </trkpt>
      <trkpt lat="42.3518340" lon="-8.1192080">
        <ele>96.0</ele>
        <time>2022-08-27T09:26:26Z</time>
      </trkpt>
      <trkpt lat="42.3513470" lon="-8.1192060">
        <ele>95.4</ele>
        <time>2022-08-27T09:26:35Z</time>
      </trkpt>
      <trkpt lat="42.3509260" lon="-8.1192250">
        <ele>95.2</ele>
        <time>2022-08-27T09:26:43Z</time>
      </trkpt>
      <trkpt lat="42.3504840" lon="-8.1192360">
        <ele>95.2</ele>
        <time>2022-08-27T09:26:52Z</time>
      </trkpt>
      <trkpt lat="42.3500990" lon="-8.1192320">
        <ele>95.6</ele>
        <time>2022-08-27T09:27:00Z</time>
      </trkpt>
      <trkpt lat="42.3497350" lon="-8.1192200">
        <ele>95.8</ele>
        <time>2022-08-27T09:27:08Z</time>
      </trkpt>
      <trkpt lat="42.3496260" lon="-8.1191840">
        <ele>95.8</ele>
        <time>2022-08-27T09:27:12Z</time>
      </trkpt>
      <trkpt lat="42.3495340" lon="-8.1191360">
        <ele>96.2</ele>
        <time>2022-08-27T09:27:18Z</time>
      </trkpt>
      <trkpt lat="42.3494860" lon="-8.1191140">
        <ele>97.2</ele>
        <time>2022-08-27T09:27:21Z</time>
      </trkpt>
      <trkpt lat="42.3494480" lon="-8.1190980">
        <ele>98.0</ele>
        <time>2022-08-27T09:27:24Z</time>
      </trkpt>
      <trkpt lat="42.3494390" lon="-8.1190960">
        <ele>98.4</ele>
        <time>2022-08-27T09:27:25Z</time>
      </trkpt>
      <trkpt lat="42.3493470" lon="-8.1190700">
        <ele>99.8</ele>
        <time>2022-08-27T09:27:30Z</time>
      </trkpt>
      <trkpt lat="42.3492480" lon="-8.1190550">
        <ele>100.8</ele>
        <time>2022-08-27T09:27:34Z</time>
      </trkpt>
      <trkpt lat="42.3491730" lon="-8.1190430">
        <ele>101.0</ele>
        <time>2022-08-27T09:27:37Z</time>
      </trkpt>
      <trkpt lat="42.3490250" lon="-8.1190220">
        <ele>101.4</ele>
        <time>2022-08-27T09:27:43Z</time>
      </trkpt>
      <trkpt lat="42.3489750" lon="-8.1190130">
        <ele>101.6</ele>
        <time>2022-08-27T09:27:45Z</time>
      </trkpt>
      <trkpt lat="42.3489270" lon="-8.1190010">
        <ele>101.8</ele>
        <time>2022-08-27T09:27:47Z</time>
      </trkpt>
      <trkpt lat="42.3488370" lon="-8.1189870">
        <ele>102.2</ele>
        <time>2022-08-27T09:27:51Z</time>
      </trkpt>
      <trkpt lat="42.3486850" lon="-8.1189860">
        <ele>103.0</ele>
        <time>2022-08-27T09:27:57Z</time>
      </trkpt>
      <trkpt lat="42.3486320" lon="-8.1189910">
        <ele>103.4</ele>
        <time>2022-08-27T09:27:59Z</time>
      </trkpt>
      <trkpt lat="42.3484720" lon="-8.1189690">
        <ele>104.0</ele>
        <time>2022-08-27T09:28:05Z</time>
      </trkpt>
      <trkpt lat="42.3484450" lon="-8.1189610">
        <ele>104.0</ele>
        <time>2022-08-27T09:28:06Z</time>
      </trkpt>
      <trkpt lat="42.3482630" lon="-8.1189170">
        <ele>104.6</ele>
        <time>2022-08-27T09:28:12Z</time>
      </trkpt>
      <trkpt lat="42.3480420" lon="-8.1189110">
        <ele>104.6</ele>
        <time>2022-08-27T09:28:17Z</time>
      </trkpt>
      <trkpt lat="42.3477800" lon="-8.1188570">
        <ele>104.4</ele>
        <time>2022-08-27T09:28:23Z</time>
      </trkpt>
      <trkpt lat="42.3476250" lon="-8.1188000">
        <ele>104.4</ele>
        <time>2022-08-27T09:28:29Z</time>
      </trkpt>
      <trkpt lat="42.3474950" lon="-8.1187530">
        <ele>105.2</ele>
        <time>2022-08-27T09:28:35Z</time>
      </trkpt>
      <trkpt lat="42.3474550" lon="-8.1187430">
        <ele>105.6</ele>
        <time>2022-08-27T09:28:37Z</time>
      </trkpt>
      <trkpt lat="42.3473970" lon="-8.1187310">
        <ele>106.4</ele>
        <time>2022-08-27T09:28:40Z</time>
      </trkpt>
      <trkpt lat="42.3473010" lon="-8.1187270">
        <ele>107.2</ele>
        <time>2022-08-27T09:28:44Z</time>
      </trkpt>
      <trkpt lat="42.3472430" lon="-8.1187220">
        <ele>107.4</ele>
        <time>2022-08-27T09:28:46Z</time>
      </trkpt>
      <trkpt lat="42.3470620" lon="-8.1186970">
        <ele>108.4</ele>
        <time>2022-08-27T09:28:52Z</time>
      </trkpt>
      <trkpt lat="42.3470300" lon="-8.1186900">
        <ele>108.6</ele>
        <time>2022-08-27T09:28:53Z</time>
      </trkpt>
      <trkpt lat="42.3468340" lon="-8.1186540">
        <ele>109.0</ele>
        <time>2022-08-27T09:29:00Z</time>
      </trkpt>
      <trkpt lat="42.3467330" lon="-8.1186400">
        <ele>109.6</ele>
        <time>2022-08-27T09:29:04Z</time>
      </trkpt>
      <trkpt lat="42.3466020" lon="-8.1186270">
        <ele>110.4</ele>
        <time>2022-08-27T09:29:09Z</time>
      </trkpt>
      <trkpt lat="42.3465470" lon="-8.1186240">
        <ele>110.6</ele>
        <time>2022-08-27T09:29:11Z</time>
      </trkpt>
      <trkpt lat="42.3463310" lon="-8.1186140">
        <ele>111.6</ele>
        <time>2022-08-27T09:29:18Z</time>
      </trkpt>
      <trkpt lat="42.3460190" lon="-8.1186020">
        <ele>112.0</ele>
        <time>2022-08-27T09:29:27Z</time>
      </trkpt>
      <trkpt lat="42.3458760" lon="-8.1185580">
        <ele>112.2</ele>
        <time>2022-08-27T09:29:32Z</time>
      </trkpt>
      <trkpt lat="42.3457730" lon="-8.1185040">
        <ele>112.4</ele>
        <time>2022-08-27T09:29:35Z</time>
      </trkpt>
      <trkpt lat="42.3457280" lon="-8.1184890">
        <ele>112.4</ele>
        <time>2022-08-27T09:29:36Z</time>
      </trkpt>
      <trkpt lat="42.3455410" lon="-8.1184940">
        <ele>112.6</ele>
        <time>2022-08-27T09:29:40Z</time>
      </trkpt>
      <trkpt lat="42.3453980" lon="-8.1185410">
        <ele>112.6</ele>
        <time>2022-08-27T09:29:44Z</time>
      </trkpt>
      <trkpt lat="42.3453500" lon="-8.1185610">
        <ele>112.6</ele>
        <time>2022-08-27T09:29:45Z</time>
      </trkpt>
      <trkpt lat="42.3452060" lon="-8.1186740">
        <ele>112.0</ele>
        <time>2022-08-27T09:29:48Z</time>
      </trkpt>
      <trkpt lat="42.3451010" lon="-8.1188340">
        <ele>111.6</ele>
        <time>2022-08-27T09:29:51Z</time>
      </trkpt>
      <trkpt lat="42.3450600" lon="-8.1188960">
        <ele>111.2</ele>
        <time>2022-08-27T09:29:52Z</time>
      </trkpt>
      <trkpt lat="42.3449660" lon="-8.1190410">
        <ele>110.2</ele>
        <time>2022-08-27T09:29:54Z</time>
      </trkpt>
      <trkpt lat="42.3448530" lon="-8.1192050">
        <ele>109.6</ele>
        <time>2022-08-27T09:29:56Z</time>
      </trkpt>
      <trkpt lat="42.3447240" lon="-8.1193610">
        <ele>109.0</ele>
        <time>2022-08-27T09:29:58Z</time>
      </trkpt>
      <trkpt lat="42.3445370" lon="-8.1195920">
        <ele>108.4</ele>
        <time>2022-08-27T09:30:01Z</time>
      </trkpt>
      <trkpt lat="42.3444850" lon="-8.1196620">
        <ele>107.8</ele>
        <time>2022-08-27T09:30:02Z</time>
      </trkpt>
      <trkpt lat="42.3443970" lon="-8.1197700">
        <ele>106.2</ele>
        <time>2022-08-27T09:30:04Z</time>
      </trkpt>
      <trkpt lat="42.3443570" lon="-8.1198020">
        <ele>105.4</ele>
        <time>2022-08-27T09:30:05Z</time>
      </trkpt>
      <trkpt lat="42.3443190" lon="-8.1198130">
        <ele>104.8</ele>
        <time>2022-08-27T09:30:06Z</time>
      </trkpt>
      <trkpt lat="42.3442540" lon="-8.1197840">
        <ele>103.8</ele>
        <time>2022-08-27T09:30:08Z</time>
      </trkpt>
      <trkpt lat="42.3441940" lon="-8.1197050">
        <ele>102.4</ele>
        <time>2022-08-27T09:30:11Z</time>
      </trkpt>
      <trkpt lat="42.3441650" lon="-8.1196540">
        <ele>102.0</ele>
        <time>2022-08-27T09:30:13Z</time>
      </trkpt>
      <trkpt lat="42.3440790" lon="-8.1196090">
        <ele>102.0</ele>
        <time>2022-08-27T09:30:18Z</time>
      </trkpt>
      <trkpt lat="42.3440770" lon="-8.1195900">
        <ele>102.0</ele>
        <time>2022-08-27T09:30:19Z</time>
      </trkpt>
      <trkpt lat="42.3440480" lon="-8.1195760">
        <ele>102.2</ele>
        <time>2022-08-27T09:30:22Z</time>
      </trkpt>
      <trkpt lat="42.3440530" lon="-8.1195670">
        <ele>102.4</ele>
        <time>2022-08-27T09:30:23Z</time>
      </trkpt>
      <trkpt lat="42.3440080" lon="-8.1196310">
        <ele>103.0</ele>
        <time>2022-08-27T09:30:27Z</time>
      </trkpt>
      <trkpt lat="42.3439900" lon="-8.1196580">
        <ele>103.2</ele>
        <time>2022-08-27T09:30:28Z</time>
      </trkpt>
      <trkpt lat="42.3439550" lon="-8.1197070">
        <ele>103.6</ele>
        <time>2022-08-27T09:30:30Z</time>
      </trkpt>
      <trkpt lat="42.3438890" lon="-8.1198050">
        <ele>104.6</ele>
        <time>2022-08-27T09:30:34Z</time>
      </trkpt>
      <trkpt lat="42.3438700" lon="-8.1198240">
        <ele>104.8</ele>
        <time>2022-08-27T09:30:35Z</time>
      </trkpt>
      <trkpt lat="42.3438400" lon="-8.1198530">
        <ele>105.6</ele>
        <time>2022-08-27T09:30:39Z</time>
      </trkpt>
      <trkpt lat="42.3438250" lon="-8.1198920">
        <ele>106.0</ele>
        <time>2022-08-27T09:31:42Z</time>
      </trkpt>
      <trkpt lat="42.3437790" lon="-8.1199510">
        <ele>106.0</ele>
        <time>2022-08-27T09:31:45Z</time>
      </trkpt>
      <trkpt lat="42.3436230" lon="-8.1201550">
        <ele>106.0</ele>
        <time>2022-08-27T09:31:51Z</time>
      </trkpt>
      <trkpt lat="42.3434800" lon="-8.1203770">
        <ele>105.6</ele>
        <time>2022-08-27T09:31:57Z</time>
      </trkpt>
      <trkpt lat="42.3433100" lon="-8.1206410">
        <ele>105.0</ele>
        <time>2022-08-27T09:32:03Z</time>
      </trkpt>
      <trkpt lat="42.3430770" lon="-8.1209740">
        <ele>104.8</ele>
        <time>2022-08-27T09:32:09Z</time>
      </trkpt>
      <trkpt lat="42.3428220" lon="-8.1213280">
        <ele>104.0</ele>
        <time>2022-08-27T09:32:15Z</time>
      </trkpt>
      <trkpt lat="42.3427890" lon="-8.1213820">
        <ele>103.8</ele>
        <time>2022-08-27T09:32:16Z</time>
      </trkpt>
      <trkpt lat="42.3426350" lon="-8.1216370">
        <ele>103.2</ele>
        <time>2022-08-27T09:32:21Z</time>
      </trkpt>
      <trkpt lat="42.3424370" lon="-8.1219970">
        <ele>103.2</ele>
        <time>2022-08-27T09:32:27Z</time>
      </trkpt>
      <trkpt lat="42.3424030" lon="-8.1220620">
        <ele>103.0</ele>
        <time>2022-08-27T09:32:28Z</time>
      </trkpt>
      <trkpt lat="42.3422660" lon="-8.1222930">
        <ele>102.8</ele>
        <time>2022-08-27T09:32:32Z</time>
      </trkpt>
      <trkpt lat="42.3422020" lon="-8.1223380">
        <ele>102.6</ele>
        <time>2022-08-27T09:32:35Z</time>
      </trkpt>
      <trkpt lat="42.3421870" lon="-8.1223410">
        <ele>102.4</ele>
        <time>2022-08-27T09:32:36Z</time>
      </trkpt>
      <trkpt lat="42.3421770" lon="-8.1223420">
        <ele>102.4</ele>
        <time>2022-08-27T09:32:37Z</time>
      </trkpt>
      <trkpt lat="42.3421240" lon="-8.1223250">
        <ele>102.0</ele>
        <time>2022-08-27T09:32:41Z</time>
      </trkpt>
      <trkpt lat="42.3420890" lon="-8.1223150">
        <ele>102.0</ele>
        <time>2022-08-27T09:32:43Z</time>
      </trkpt>
      <trkpt lat="42.3420230" lon="-8.1222920">
        <ele>102.4</ele>
        <time>2022-08-27T09:32:47Z</time>
      </trkpt>
      <trkpt lat="42.3419630" lon="-8.1222570">
        <ele>103.6</ele>
        <time>2022-08-27T09:32:52Z</time>
      </trkpt>
      <trkpt lat="42.3419200" lon="-8.1222560">
        <ele>104.6</ele>
        <time>2022-08-27T09:32:55Z</time>
      </trkpt>
      <trkpt lat="42.3418670" lon="-8.1222650">
        <ele>105.8</ele>
        <time>2022-08-27T09:32:59Z</time>
      </trkpt>
      <trkpt lat="42.3418080" lon="-8.1222820">
        <ele>106.6</ele>
        <time>2022-08-27T09:33:04Z</time>
      </trkpt>
      <trkpt lat="42.3417440" lon="-8.1223000">
        <ele>107.0</ele>
        <time>2022-08-27T09:33:09Z</time>
      </trkpt>
      <trkpt lat="42.3417280" lon="-8.1223030">
        <ele>107.2</ele>
        <time>2022-08-27T09:33:10Z</time>
      </trkpt>
      <trkpt lat="42.3416640" lon="-8.1223110">
        <ele>108.0</ele>
        <time>2022-08-27T09:33:14Z</time>
      </trkpt>
      <trkpt lat="42.3416180" lon="-8.1223080">
        <ele>108.6</ele>
        <time>2022-08-27T09:33:17Z</time>
      </trkpt>
      <trkpt lat="42.3415410" lon="-8.1222780">
        <ele>109.2</ele>
        <time>2022-08-27T09:33:21Z</time>
      </trkpt>
      <trkpt lat="42.3415190" lon="-8.1222730">
        <ele>109.2</ele>
        <time>2022-08-27T09:33:22Z</time>
      </trkpt>
      <trkpt lat="42.3413850" lon="-8.1222330">
        <ele>110.2</ele>
        <time>2022-08-27T09:33:28Z</time>
      </trkpt>
      <trkpt lat="42.3412010" lon="-8.1221730">
        <ele>110.8</ele>
        <time>2022-08-27T09:33:34Z</time>
      </trkpt>
      <trkpt lat="42.3409940" lon="-8.1221340">
        <ele>110.8</ele>
        <time>2022-08-27T09:33:38Z</time>
      </trkpt>
      <trkpt lat="42.3406200" lon="-8.1220430">
        <ele>110.8</ele>
        <time>2022-08-27T09:33:43Z</time>
      </trkpt>
      <trkpt lat="42.3402670" lon="-8.1219940">
        <ele>109.8</ele>
        <time>2022-08-27T09:33:47Z</time>
      </trkpt>
      <trkpt lat="42.3400760" lon="-8.1219890">
        <ele>108.8</ele>
        <time>2022-08-27T09:33:49Z</time>
      </trkpt>
      <trkpt lat="42.3398810" lon="-8.1219800">
        <ele>107.2</ele>
        <time>2022-08-27T09:33:51Z</time>
      </trkpt>
      <trkpt lat="42.3396790" lon="-8.1219490">
        <ele>106.0</ele>
        <time>2022-08-27T09:33:53Z</time>
      </trkpt>
      <trkpt lat="42.3394850" lon="-8.1219130">
        <ele>104.8</ele>
        <time>2022-08-27T09:33:55Z</time>
      </trkpt>
      <trkpt lat="42.3392860" lon="-8.1218850">
        <ele>103.6</ele>
        <time>2022-08-27T09:33:57Z</time>
      </trkpt>
      <trkpt lat="42.3390870" lon="-8.1218680">
        <ele>102.4</ele>
        <time>2022-08-27T09:33:59Z</time>
      </trkpt>
      <trkpt lat="42.3388970" lon="-8.1218460">
        <ele>101.2</ele>
        <time>2022-08-27T09:34:01Z</time>
      </trkpt>
      <trkpt lat="42.3387110" lon="-8.1218190">
        <ele>100.0</ele>
        <time>2022-08-27T09:34:03Z</time>
      </trkpt>
      <trkpt lat="42.3385400" lon="-8.1217960">
        <ele>98.4</ele>
        <time>2022-08-27T09:34:05Z</time>
      </trkpt>
      <trkpt lat="42.3384070" lon="-8.1217780">
        <ele>97.2</ele>
        <time>2022-08-27T09:34:07Z</time>
      </trkpt>
      <trkpt lat="42.3383500" lon="-8.1217810">
        <ele>96.6</ele>
        <time>2022-08-27T09:34:08Z</time>
      </trkpt>
      <trkpt lat="42.3382630" lon="-8.1218370">
        <ele>96.0</ele>
        <time>2022-08-27T09:34:10Z</time>
      </trkpt>
      <trkpt lat="42.3382330" lon="-8.1218760">
        <ele>95.8</ele>
        <time>2022-08-27T09:34:11Z</time>
      </trkpt>
      <trkpt lat="42.3381000" lon="-8.1219780">
        <ele>94.8</ele>
        <time>2022-08-27T09:34:15Z</time>
      </trkpt>
      <trkpt lat="42.3379880" lon="-8.1218860">
        <ele>94.2</ele>
        <time>2022-08-27T09:34:18Z</time>
      </trkpt>
      <trkpt lat="42.3379080" lon="-8.1218020">
        <ele>94.0</ele>
        <time>2022-08-27T09:34:20Z</time>
      </trkpt>
      <trkpt lat="42.3378290" lon="-8.1217130">
        <ele>93.8</ele>
        <time>2022-08-27T09:34:22Z</time>
      </trkpt>
      <trkpt lat="42.3377540" lon="-8.1216230">
        <ele>93.6</ele>
        <time>2022-08-27T09:34:24Z</time>
      </trkpt>
      <trkpt lat="42.3376010" lon="-8.1214660">
        <ele>93.4</ele>
        <time>2022-08-27T09:34:28Z</time>
      </trkpt>
      <trkpt lat="42.3375400" lon="-8.1214010">
        <ele>93.2</ele>
        <time>2022-08-27T09:34:30Z</time>
      </trkpt>
      <trkpt lat="42.3373620" lon="-8.1213060">
        <ele>93.2</ele>
        <time>2022-08-27T09:34:35Z</time>
      </trkpt>
      <trkpt lat="42.3371820" lon="-8.1213030">
        <ele>93.2</ele>
        <time>2022-08-27T09:34:40Z</time>
      </trkpt>
      <trkpt lat="42.3369590" lon="-8.1213210">
        <ele>93.4</ele>
        <time>2022-08-27T09:34:46Z</time>
      </trkpt>
      <trkpt lat="42.3367460" lon="-8.1212850">
        <ele>93.6</ele>
        <time>2022-08-27T09:34:52Z</time>
      </trkpt>
      <trkpt lat="42.3365900" lon="-8.1213250">
        <ele>93.6</ele>
        <time>2022-08-27T09:34:57Z</time>
      </trkpt>
      <trkpt lat="42.3363890" lon="-8.1212800">
        <ele>93.4</ele>
        <time>2022-08-27T09:35:02Z</time>
      </trkpt>
      <trkpt lat="42.3362390" lon="-8.1212550">
        <ele>93.4</ele>
        <time>2022-08-27T09:35:07Z</time>
      </trkpt>
      <trkpt lat="42.3360120" lon="-8.1212340">
        <ele>94.0</ele>
        <time>2022-08-27T09:35:14Z</time>
      </trkpt>
      <trkpt lat="42.3358110" lon="-8.1212030">
        <ele>94.0</ele>
        <time>2022-08-27T09:35:20Z</time>
      </trkpt>
      <trkpt lat="42.3356090" lon="-8.1211920">
        <ele>94.0</ele>
        <time>2022-08-27T09:35:26Z</time>
      </trkpt>
      <trkpt lat="42.3354900" lon="-8.1211150">
        <ele>93.6</ele>
        <time>2022-08-27T09:35:30Z</time>
      </trkpt>
      <trkpt lat="42.3354690" lon="-8.1210980">
        <ele>93.6</ele>
        <time>2022-08-27T09:35:31Z</time>
      </trkpt>
      <trkpt lat="42.3352950" lon="-8.1210390">
        <ele>93.6</ele>
        <time>2022-08-27T09:35:37Z</time>
      </trkpt>
      <trkpt lat="42.3351110" lon="-8.1209330">
        <ele>94.2</ele>
        <time>2022-08-27T09:35:43Z</time>
      </trkpt>
      <trkpt lat="42.3349260" lon="-8.1208210">
        <ele>94.4</ele>
        <time>2022-08-27T09:35:49Z</time>
      </trkpt>
      <trkpt lat="42.3347080" lon="-8.1206760">
        <ele>94.4</ele>
        <time>2022-08-27T09:35:56Z</time>
      </trkpt>
      <trkpt lat="42.3345290" lon="-8.1204900">
        <ele>94.4</ele>
        <time>2022-08-27T09:36:02Z</time>
      </trkpt>
      <trkpt lat="42.3343410" lon="-8.1203540">
        <ele>94.4</ele>
        <time>2022-08-27T09:36:08Z</time>
      </trkpt>
      <trkpt lat="42.3341640" lon="-8.1203020">
        <ele>94.4</ele>
        <time>2022-08-27T09:36:13Z</time>
      </trkpt>
      <trkpt lat="42.3339830" lon="-8.1202440">
        <ele>94.0</ele>
        <time>2022-08-27T09:36:19Z</time>
      </trkpt>
      <trkpt lat="42.3337950" lon="-8.1202700">
        <ele>94.0</ele>
        <time>2022-08-27T09:36:25Z</time>
      </trkpt>
      <trkpt lat="42.3337430" lon="-8.1202700">
        <ele>94.0</ele>
        <time>2022-08-27T09:36:26Z</time>
      </trkpt>
      <trkpt lat="42.3336050" lon="-8.1202910">
        <ele>93.8</ele>
        <time>2022-08-27T09:36:29Z</time>
      </trkpt>
      <trkpt lat="42.3335350" lon="-8.1203030">
        <ele>93.8</ele>
        <time>2022-08-27T09:36:31Z</time>
      </trkpt>
      <trkpt lat="42.3333930" lon="-8.1202960">
        <ele>93.8</ele>
        <time>2022-08-27T09:36:35Z</time>
      </trkpt>
      <trkpt lat="42.3332190" lon="-8.1201880">
        <ele>94.0</ele>
        <time>2022-08-27T09:36:40Z</time>
      </trkpt>
      <trkpt lat="42.3330490" lon="-8.1200000">
        <ele>94.6</ele>
        <time>2022-08-27T09:36:46Z</time>
      </trkpt>
      <trkpt lat="42.3329540" lon="-8.1198760">
        <ele>94.8</ele>
        <time>2022-08-27T09:36:50Z</time>
      </trkpt>
      <trkpt lat="42.3329240" lon="-8.1198730">
        <ele>94.8</ele>
        <time>2022-08-27T09:36:51Z</time>
      </trkpt>
      <trkpt lat="42.3327870" lon="-8.1199580">
        <ele>95.0</ele>
        <time>2022-08-27T09:36:55Z</time>
      </trkpt>
      <trkpt lat="42.3325650" lon="-8.1200500">
        <ele>95.0</ele>
        <time>2022-08-27T09:37:00Z</time>
      </trkpt>
      <trkpt lat="42.3324580" lon="-8.1200960">
        <ele>95.0</ele>
        <time>2022-08-27T09:37:02Z</time>
      </trkpt>
      <trkpt lat="42.3323320" lon="-8.1201570">
        <ele>94.6</ele>
        <time>2022-08-27T09:37:05Z</time>
      </trkpt>
      <trkpt lat="42.3322910" lon="-8.1202870">
        <ele>94.0</ele>
        <time>2022-08-27T09:37:08Z</time>
      </trkpt>
      <trkpt lat="42.3322730" lon="-8.1203290">
        <ele>94.0</ele>
        <time>2022-08-27T09:37:09Z</time>
      </trkpt>
      <trkpt lat="42.3321830" lon="-8.1203870">
        <ele>93.8</ele>
        <time>2022-08-27T09:37:12Z</time>
      </trkpt>
      <trkpt lat="42.3320890" lon="-8.1204150">
        <ele>93.6</ele>
        <time>2022-08-27T09:37:14Z</time>
      </trkpt>
      <trkpt lat="42.3319240" lon="-8.1204750">
        <ele>93.6</ele>
        <time>2022-08-27T09:37:18Z</time>
      </trkpt>
      <trkpt lat="42.3317390" lon="-8.1205260">
        <ele>93.2</ele>
        <time>2022-08-27T09:37:23Z</time>
      </trkpt>
      <trkpt lat="42.3315640" lon="-8.1205140">
        <ele>92.8</ele>
        <time>2022-08-27T09:37:28Z</time>
      </trkpt>
      <trkpt lat="42.3314400" lon="-8.1205080">
        <ele>92.4</ele>
        <time>2022-08-27T09:37:31Z</time>
      </trkpt>
      <trkpt lat="42.3311900" lon="-8.1205070">
        <ele>92.2</ele>
        <time>2022-08-27T09:37:37Z</time>
      </trkpt>
      <trkpt lat="42.3309380" lon="-8.1204780">
        <ele>92.2</ele>
        <time>2022-08-27T09:37:44Z</time>
      </trkpt>
      <trkpt lat="42.3307020" lon="-8.1204710">
        <ele>91.8</ele>
        <time>2022-08-27T09:37:51Z</time>
      </trkpt>
      <trkpt lat="42.3304900" lon="-8.1204210">
        <ele>92.2</ele>
        <time>2022-08-27T09:37:57Z</time>
      </trkpt>
      <trkpt lat="42.3302390" lon="-8.1203800">
        <ele>92.2</ele>
        <time>2022-08-27T09:38:04Z</time>
      </trkpt>
      <trkpt lat="42.3300220" lon="-8.1203170">
        <ele>92.2</ele>
        <time>2022-08-27T09:38:10Z</time>
      </trkpt>
      <trkpt lat="42.3298120" lon="-8.1202540">
        <ele>92.2</ele>
        <time>2022-08-27T09:38:16Z</time>
      </trkpt>
      <trkpt lat="42.3296980" lon="-8.1202470">
        <ele>92.0</ele>
        <time>2022-08-27T09:38:19Z</time>
      </trkpt>
      <trkpt lat="42.3295890" lon="-8.1202150">
        <ele>92.0</ele>
        <time>2022-08-27T09:38:22Z</time>
      </trkpt>
      <trkpt lat="42.3294130" lon="-8.1201530">
        <ele>92.0</ele>
        <time>2022-08-27T09:38:27Z</time>
      </trkpt>
      <trkpt lat="42.3293180" lon="-8.1201450">
        <ele>92.0</ele>
        <time>2022-08-27T09:38:29Z</time>
      </trkpt>
      <trkpt lat="42.3291880" lon="-8.1201000">
        <ele>92.2</ele>
        <time>2022-08-27T09:38:32Z</time>
      </trkpt>
      <trkpt lat="42.3291480" lon="-8.1200870">
        <ele>92.2</ele>
        <time>2022-08-27T09:38:33Z</time>
      </trkpt>
      <trkpt lat="42.3289220" lon="-8.1200240">
        <ele>92.2</ele>
        <time>2022-08-27T09:38:39Z</time>
      </trkpt>
      <trkpt lat="42.3287330" lon="-8.1200020">
        <ele>92.2</ele>
        <time>2022-08-27T09:38:44Z</time>
      </trkpt>
      <trkpt lat="42.3284680" lon="-8.1199840">
        <ele>92.4</ele>
        <time>2022-08-27T09:38:50Z</time>
      </trkpt>
      <trkpt lat="42.3281850" lon="-8.1200060">
        <ele>92.6</ele>
        <time>2022-08-27T09:38:56Z</time>
      </trkpt>
      <trkpt lat="42.3280170" lon="-8.1200350">
        <ele>92.6</ele>
        <time>2022-08-27T09:39:00Z</time>
      </trkpt>
      <trkpt lat="42.3279340" lon="-8.1200640">
        <ele>92.6</ele>
        <time>2022-08-27T09:39:02Z</time>
      </trkpt>
      <trkpt lat="42.3277400" lon="-8.1201510">
        <ele>92.6</ele>
        <time>2022-08-27T09:39:06Z</time>
      </trkpt>
      <trkpt lat="42.3276870" lon="-8.1201690">
        <ele>92.6</ele>
        <time>2022-08-27T09:39:07Z</time>
      </trkpt>
      <trkpt lat="42.3274610" lon="-8.1202560">
        <ele>92.4</ele>
        <time>2022-08-27T09:39:12Z</time>
      </trkpt>
      <trkpt lat="42.3272550" lon="-8.1203110">
        <ele>92.2</ele>
        <time>2022-08-27T09:39:18Z</time>
      </trkpt>
      <trkpt lat="42.3271270" lon="-8.1203340">
        <ele>92.0</ele>
        <time>2022-08-27T09:39:24Z</time>
      </trkpt>
      <trkpt lat="42.3269470" lon="-8.1203820">
        <ele>92.2</ele>
        <time>2022-08-27T09:39:29Z</time>
      </trkpt>
      <trkpt lat="42.3267260" lon="-8.1204300">
        <ele>92.2</ele>
        <time>2022-08-27T09:39:34Z</time>
      </trkpt>
      <trkpt lat="42.3265560" lon="-8.1204770">
        <ele>92.4</ele>
        <time>2022-08-27T09:39:38Z</time>
      </trkpt>
      <trkpt lat="42.3264210" lon="-8.1204640">
        <ele>92.4</ele>
        <time>2022-08-27T09:39:41Z</time>
      </trkpt>
      <trkpt lat="42.3263230" lon="-8.1204350">
        <ele>92.4</ele>
        <time>2022-08-27T09:39:43Z</time>
      </trkpt>
      <trkpt lat="42.3261330" lon="-8.1203590">
        <ele>92.4</ele>
        <time>2022-08-27T09:39:47Z</time>
      </trkpt>
      <trkpt lat="42.3259560" lon="-8.1203150">
        <ele>92.4</ele>
        <time>2022-08-27T09:39:51Z</time>
      </trkpt>
      <trkpt lat="42.3258710" lon="-8.1203130">
        <ele>92.4</ele>
        <time>2022-08-27T09:39:53Z</time>
      </trkpt>
      <trkpt lat="42.3256280" lon="-8.1203580">
        <ele>92.4</ele>
        <time>2022-08-27T09:39:59Z</time>
      </trkpt>
      <trkpt lat="42.3254730" lon="-8.1203500">
        <ele>92.4</ele>
        <time>2022-08-27T09:40:02Z</time>
      </trkpt>
      <trkpt lat="42.3253730" lon="-8.1203210">
        <ele>92.4</ele>
        <time>2022-08-27T09:40:04Z</time>
      </trkpt>
      <trkpt lat="42.3252440" lon="-8.1202550">
        <ele>92.4</ele>
        <time>2022-08-27T09:40:07Z</time>
      </trkpt>
      <trkpt lat="42.3252030" lon="-8.1202330">
        <ele>92.4</ele>
        <time>2022-08-27T09:40:08Z</time>
      </trkpt>
      <trkpt lat="42.3251620" lon="-8.1202050">
        <ele>92.4</ele>
        <time>2022-08-27T09:40:09Z</time>
      </trkpt>
      <trkpt lat="42.3249030" lon="-8.1199970">
        <ele>92.4</ele>
        <time>2022-08-27T09:40:15Z</time>
      </trkpt>
      <trkpt lat="42.3247040" lon="-8.1198930">
        <ele>92.4</ele>
        <time>2022-08-27T09:40:20Z</time>
      </trkpt>
      <trkpt lat="42.3244930" lon="-8.1197980">
        <ele>92.6</ele>
        <time>2022-08-27T09:40:26Z</time>
      </trkpt>
      <trkpt lat="42.3243380" lon="-8.1196640">
        <ele>93.0</ele>
        <time>2022-08-27T09:40:31Z</time>
      </trkpt>
      <trkpt lat="42.3242720" lon="-8.1194370">
        <ele>93.2</ele>
        <time>2022-08-27T09:40:36Z</time>
      </trkpt>
      <trkpt lat="42.3242510" lon="-8.1193940">
        <ele>93.2</ele>
        <time>2022-08-27T09:40:37Z</time>
      </trkpt>
      <trkpt lat="42.3241440" lon="-8.1191960">
        <ele>94.0</ele>
        <time>2022-08-27T09:40:42Z</time>
      </trkpt>
      <trkpt lat="42.3240580" lon="-8.1189780">
        <ele>94.2</ele>
        <time>2022-08-27T09:40:47Z</time>
      </trkpt>
      <trkpt lat="42.3240210" lon="-8.1188840">
        <ele>94.4</ele>
        <time>2022-08-27T09:40:49Z</time>
      </trkpt>
      <trkpt lat="42.3239680" lon="-8.1187760">
        <ele>94.4</ele>
        <time>2022-08-27T09:40:52Z</time>
      </trkpt>
      <trkpt lat="42.3239340" lon="-8.1187060">
        <ele>94.8</ele>
        <time>2022-08-27T09:40:55Z</time>
      </trkpt>
      <trkpt lat="42.3239370" lon="-8.1186620">
        <ele>95.0</ele>
        <time>2022-08-27T09:40:57Z</time>
      </trkpt>
      <trkpt lat="42.3239500" lon="-8.1186930">
        <ele>95.2</ele>
        <time>2022-08-27T09:41:01Z</time>
      </trkpt>
      <trkpt lat="42.3239110" lon="-8.1188430">
        <ele>95.2</ele>
        <time>2022-08-27T09:41:05Z</time>
      </trkpt>
      <trkpt lat="42.3239090" lon="-8.1188960">
        <ele>95.2</ele>
        <time>2022-08-27T09:41:06Z</time>
      </trkpt>
      <trkpt lat="42.3239110" lon="-8.1193790">
        <ele>94.8</ele>
        <time>2022-08-27T09:41:14Z</time>
      </trkpt>
      <trkpt lat="42.3239080" lon="-8.1196360">
        <ele>93.8</ele>
        <time>2022-08-27T09:41:20Z</time>
      </trkpt>
      <trkpt lat="42.3239050" lon="-8.1196420">
        <ele>93.6</ele>
        <time>2022-08-27T09:41:22Z</time>
      </trkpt>
      <trkpt lat="42.3238830" lon="-8.1195380">
        <ele>93.8</ele>
        <time>2022-08-27T09:41:40Z</time>
      </trkpt>
      <trkpt lat="42.3238770" lon="-8.1194790">
        <ele>93.6</ele>
        <time>2022-08-27T09:41:42Z</time>
      </trkpt>
      <trkpt lat="42.3238720" lon="-8.1192400">
        <ele>93.8</ele>
        <time>2022-08-27T09:41:48Z</time>
      </trkpt>
      <trkpt lat="42.3238760" lon="-8.1189120">
        <ele>93.8</ele>
        <time>2022-08-27T09:41:55Z</time>
      </trkpt>
      <trkpt lat="42.3238920" lon="-8.1187170">
        <ele>94.2</ele>
        <time>2022-08-27T09:42:00Z</time>
      </trkpt>
      <trkpt lat="42.3239100" lon="-8.1186940">
        <ele>94.4</ele>
        <time>2022-08-27T09:42:01Z</time>
      </trkpt>
      <trkpt lat="42.3239600" lon="-8.1187110">
        <ele>94.8</ele>
        <time>2022-08-27T09:42:04Z</time>
      </trkpt>
      <trkpt lat="42.3240100" lon="-8.1188010">
        <ele>95.0</ele>
        <time>2022-08-27T09:42:07Z</time>
      </trkpt>
      <trkpt lat="42.3240380" lon="-8.1188840">
        <ele>95.0</ele>
        <time>2022-08-27T09:42:09Z</time>
      </trkpt>
      <trkpt lat="42.3241300" lon="-8.1191600">
        <ele>95.0</ele>
        <time>2022-08-27T09:42:15Z</time>
      </trkpt>
      <trkpt lat="42.3241940" lon="-8.1194260">
        <ele>95.0</ele>
        <time>2022-08-27T09:42:20Z</time>
      </trkpt>
      <trkpt lat="42.3242510" lon="-8.1195520">
        <ele>94.6</ele>
        <time>2022-08-27T09:42:24Z</time>
      </trkpt>
      <trkpt lat="42.3242700" lon="-8.1195620">
        <ele>94.6</ele>
        <time>2022-08-27T09:42:25Z</time>
      </trkpt>
      <trkpt lat="42.3243440" lon="-8.1195820">
        <ele>94.2</ele>
        <time>2022-08-27T09:42:29Z</time>
      </trkpt>
      <trkpt lat="42.3244290" lon="-8.1196350">
        <ele>93.6</ele>
        <time>2022-08-27T09:42:34Z</time>
      </trkpt>
      <trkpt lat="42.3244530" lon="-8.1196460">
        <ele>93.6</ele>
        <time>2022-08-27T09:42:35Z</time>
      </trkpt>
      <trkpt lat="42.3244820" lon="-8.1196570">
        <ele>93.4</ele>
        <time>2022-08-27T09:42:36Z</time>
      </trkpt>
      <trkpt lat="42.3245630" lon="-8.1196930">
        <ele>93.4</ele>
        <time>2022-08-27T09:42:39Z</time>
      </trkpt>
      <trkpt lat="42.3246580" lon="-8.1197620">
        <ele>93.0</ele>
        <time>2022-08-27T09:42:45Z</time>
      </trkpt>
      <trkpt lat="42.3246610" lon="-8.1197820">
        <ele>93.0</ele>
        <time>2022-08-27T09:42:47Z</time>
      </trkpt>
      <trkpt lat="42.3245860" lon="-8.1197850">
        <ele>92.8</ele>
        <time>2022-08-27T09:43:12Z</time>
      </trkpt>
      <trkpt lat="42.3245520" lon="-8.1197710">
        <ele>92.8</ele>
        <time>2022-08-27T09:43:14Z</time>
      </trkpt>
      <trkpt lat="42.3244480" lon="-8.1197480">
        <ele>93.0</ele>
        <time>2022-08-27T09:43:19Z</time>
      </trkpt>
      <trkpt lat="42.3244290" lon="-8.1197470">
        <ele>93.0</ele>
        <time>2022-08-27T09:43:20Z</time>
      </trkpt>
      <trkpt lat="42.3243680" lon="-8.1197360">
        <ele>93.2</ele>
        <time>2022-08-27T09:43:23Z</time>
      </trkpt>
      <trkpt lat="42.3243390" lon="-8.1197230">
        <ele>93.2</ele>
        <time>2022-08-27T09:43:25Z</time>
      </trkpt>
      <trkpt lat="42.3243110" lon="-8.1197210">
        <ele>93.4</ele>
        <time>2022-08-27T09:43:29Z</time>
      </trkpt>
      <trkpt lat="42.3242730" lon="-8.1195750">
        <ele>93.8</ele>
        <time>2022-08-27T09:43:55Z</time>
      </trkpt>
      <trkpt lat="42.3242200" lon="-8.1194160">
        <ele>94.0</ele>
        <time>2022-08-27T09:44:00Z</time>
      </trkpt>
      <trkpt lat="42.3241650" lon="-8.1192850">
        <ele>94.2</ele>
        <time>2022-08-27T09:44:04Z</time>
      </trkpt>
      <trkpt lat="42.3241280" lon="-8.1192190">
        <ele>94.4</ele>
        <time>2022-08-27T09:44:06Z</time>
      </trkpt>
      <trkpt lat="42.3240540" lon="-8.1190540">
        <ele>94.8</ele>
        <time>2022-08-27T09:44:11Z</time>
      </trkpt>
      <trkpt lat="42.3240200" lon="-8.1189750">
        <ele>94.8</ele>
        <time>2022-08-27T09:44:13Z</time>
      </trkpt>
      <trkpt lat="42.3239240" lon="-8.1187720">
        <ele>95.2</ele>
        <time>2022-08-27T09:44:18Z</time>
      </trkpt>
      <trkpt lat="42.3238340" lon="-8.1184980">
        <ele>95.6</ele>
        <time>2022-08-27T09:44:24Z</time>
      </trkpt>
      <trkpt lat="42.3238020" lon="-8.1183180">
        <ele>95.8</ele>
        <time>2022-08-27T09:44:28Z</time>
      </trkpt>
      <trkpt lat="42.3237970" lon="-8.1182730">
        <ele>96.0</ele>
        <time>2022-08-27T09:44:29Z</time>
      </trkpt>
      <trkpt lat="42.3237690" lon="-8.1179860">
        <ele>96.4</ele>
        <time>2022-08-27T09:44:35Z</time>
      </trkpt>
      <trkpt lat="42.3237280" lon="-8.1177670">
        <ele>97.0</ele>
        <time>2022-08-27T09:44:40Z</time>
      </trkpt>
      <trkpt lat="42.3237220" lon="-8.1177250">
        <ele>97.0</ele>
        <time>2022-08-27T09:44:41Z</time>
      </trkpt>
      <trkpt lat="42.3236650" lon="-8.1174860">
        <ele>97.6</ele>
        <time>2022-08-27T09:44:47Z</time>
      </trkpt>
      <trkpt lat="42.3236430" lon="-8.1174100">
        <ele>98.0</ele>
        <time>2022-08-27T09:44:49Z</time>
      </trkpt>
      <trkpt lat="42.3236010" lon="-8.1172630">
        <ele>98.6</ele>
        <time>2022-08-27T09:44:53Z</time>
      </trkpt>
      <trkpt lat="42.3235350" lon="-8.1170140">
        <ele>99.0</ele>
        <time>2022-08-27T09:45:00Z</time>
      </trkpt>
      <trkpt lat="42.3234960" lon="-8.1169620">
        <ele>99.2</ele>
        <time>2022-08-27T09:45:02Z</time>
      </trkpt>
      <trkpt lat="42.3234590" lon="-8.1169390">
        <ele>99.4</ele>
        <time>2022-08-27T09:45:04Z</time>
      </trkpt>
      <trkpt lat="42.3233910" lon="-8.1169970">
        <ele>100.0</ele>
        <time>2022-08-27T09:45:08Z</time>
      </trkpt>
      <trkpt lat="42.3233050" lon="-8.1170810">
        <ele>100.2</ele>
        <time>2022-08-27T09:45:11Z</time>
      </trkpt>
      <trkpt lat="42.3232680" lon="-8.1171180">
        <ele>100.2</ele>
        <time>2022-08-27T09:45:12Z</time>
      </trkpt>
      <trkpt lat="42.3230250" lon="-8.1173640">
        <ele>100.2</ele>
        <time>2022-08-27T09:45:18Z</time>
      </trkpt>
      <trkpt lat="42.3228050" lon="-8.1175610">
        <ele>99.8</ele>
        <time>2022-08-27T09:45:23Z</time>
      </trkpt>
      <trkpt lat="42.3227570" lon="-8.1175930">
        <ele>99.8</ele>
        <time>2022-08-27T09:45:24Z</time>
      </trkpt>
      <trkpt lat="42.3224730" lon="-8.1177420">
        <ele>99.4</ele>
        <time>2022-08-27T09:45:30Z</time>
      </trkpt>
      <trkpt lat="42.3224230" lon="-8.1177540">
        <ele>99.4</ele>
        <time>2022-08-27T09:45:31Z</time>
      </trkpt>
      <trkpt lat="42.3221660" lon="-8.1177680">
        <ele>99.4</ele>
        <time>2022-08-27T09:45:37Z</time>
      </trkpt>
      <trkpt lat="42.3219910" lon="-8.1178410">
        <ele>99.4</ele>
        <time>2022-08-27T09:45:42Z</time>
      </trkpt>
      <trkpt lat="42.3217650" lon="-8.1180440">
        <ele>99.6</ele>
        <time>2022-08-27T09:45:47Z</time>
      </trkpt>
      <trkpt lat="42.3214090" lon="-8.1183700">
        <ele>99.2</ele>
        <time>2022-08-27T09:45:54Z</time>
      </trkpt>
      <trkpt lat="42.3211900" lon="-8.1186710">
        <ele>98.0</ele>
        <time>2022-08-27T09:45:59Z</time>
      </trkpt>
      <trkpt lat="42.3210270" lon="-8.1188010">
        <ele>97.0</ele>
        <time>2022-08-27T09:46:02Z</time>
      </trkpt>
      <trkpt lat="42.3209630" lon="-8.1188300">
        <ele>96.6</ele>
        <time>2022-08-27T09:46:03Z</time>
      </trkpt>
      <trkpt lat="42.3208270" lon="-8.1188710">
        <ele>96.2</ele>
        <time>2022-08-27T09:46:05Z</time>
      </trkpt>
      <trkpt lat="42.3206260" lon="-8.1189160">
        <ele>95.8</ele>
        <time>2022-08-27T09:46:08Z</time>
      </trkpt>
      <trkpt lat="42.3205590" lon="-8.1189300">
        <ele>95.6</ele>
        <time>2022-08-27T09:46:09Z</time>
      </trkpt>
      <trkpt lat="42.3203730" lon="-8.1189910">
        <ele>94.4</ele>
        <time>2022-08-27T09:46:12Z</time>
      </trkpt>
      <trkpt lat="42.3202180" lon="-8.1190470">
        <ele>94.0</ele>
        <time>2022-08-27T09:46:15Z</time>
      </trkpt>
      <trkpt lat="42.3199580" lon="-8.1191110">
        <ele>93.8</ele>
        <time>2022-08-27T09:46:20Z</time>
      </trkpt>
      <trkpt lat="42.3196320" lon="-8.1191910">
        <ele>93.8</ele>
        <time>2022-08-27T09:46:26Z</time>
      </trkpt>
      <trkpt lat="42.3194140" lon="-8.1192560">
        <ele>93.8</ele>
        <time>2022-08-27T09:46:30Z</time>
      </trkpt>
      <trkpt lat="42.3193050" lon="-8.1193090">
        <ele>93.8</ele>
        <time>2022-08-27T09:46:32Z</time>
      </trkpt>
      <trkpt lat="42.3189610" lon="-8.1194920">
        <ele>93.6</ele>
        <time>2022-08-27T09:46:39Z</time>
      </trkpt>
      <trkpt lat="42.3186130" lon="-8.1196550">
        <ele>93.4</ele>
        <time>2022-08-27T09:46:47Z</time>
      </trkpt>
      <trkpt lat="42.3185320" lon="-8.1196730">
        <ele>93.4</ele>
        <time>2022-08-27T09:46:50Z</time>
      </trkpt>
      <trkpt lat="42.3184580" lon="-8.1196920">
        <ele>93.4</ele>
        <time>2022-08-27T09:46:52Z</time>
      </trkpt>
      <trkpt lat="42.3181610" lon="-8.1197540">
        <ele>93.2</ele>
        <time>2022-08-27T09:46:59Z</time>
      </trkpt>
      <trkpt lat="42.3177840" lon="-8.1198030">
        <ele>93.2</ele>
        <time>2022-08-27T09:47:07Z</time>
      </trkpt>
      <trkpt lat="42.3174050" lon="-8.1198380">
        <ele>93.4</ele>
        <time>2022-08-27T09:47:15Z</time>
      </trkpt>
      <trkpt lat="42.3170670" lon="-8.1198530">
        <ele>93.4</ele>
        <time>2022-08-27T09:47:22Z</time>
      </trkpt>
      <trkpt lat="42.3167090" lon="-8.1197970">
        <ele>93.4</ele>
        <time>2022-08-27T09:47:29Z</time>
      </trkpt>
      <trkpt lat="42.3164120" lon="-8.1197400">
        <ele>93.4</ele>
        <time>2022-08-27T09:47:35Z</time>
      </trkpt>
      <trkpt lat="42.3160730" lon="-8.1197080">
        <ele>93.0</ele>
        <time>2022-08-27T09:47:42Z</time>
      </trkpt>
      <trkpt lat="42.3158020" lon="-8.1196710">
        <ele>93.0</ele>
        <time>2022-08-27T09:47:48Z</time>
      </trkpt>
      <trkpt lat="42.3155310" lon="-8.1196130">
        <ele>93.0</ele>
        <time>2022-08-27T09:47:53Z</time>
      </trkpt>
      <trkpt lat="42.3151420" lon="-8.1195610">
        <ele>92.8</ele>
        <time>2022-08-27T09:48:00Z</time>
      </trkpt>
      <trkpt lat="42.3150350" lon="-8.1195800">
        <ele>92.8</ele>
        <time>2022-08-27T09:48:02Z</time>
      </trkpt>
      <trkpt lat="42.3146530" lon="-8.1196570">
        <ele>92.2</ele>
        <time>2022-08-27T09:48:09Z</time>
      </trkpt>
      <trkpt lat="42.3144390" lon="-8.1196690">
        <ele>92.0</ele>
        <time>2022-08-27T09:48:13Z</time>
      </trkpt>
      <trkpt lat="42.3143390" lon="-8.1196340">
        <ele>92.0</ele>
        <time>2022-08-27T09:48:15Z</time>
      </trkpt>
      <trkpt lat="42.3140380" lon="-8.1195160">
        <ele>91.8</ele>
        <time>2022-08-27T09:48:21Z</time>
      </trkpt>
      <trkpt lat="42.3139910" lon="-8.1194940">
        <ele>91.8</ele>
        <time>2022-08-27T09:48:22Z</time>
      </trkpt>
      <trkpt lat="42.3139420" lon="-8.1194730">
        <ele>91.8</ele>
        <time>2022-08-27T09:48:23Z</time>
      </trkpt>
      <trkpt lat="42.3137880" lon="-8.1194320">
        <ele>91.8</ele>
        <time>2022-08-27T09:48:26Z</time>
      </trkpt>
      <trkpt lat="42.3137420" lon="-8.1194240">
        <ele>91.8</ele>
        <time>2022-08-27T09:48:27Z</time>
      </trkpt>
      <trkpt lat="42.3136550" lon="-8.1194110">
        <ele>91.6</ele>
        <time>2022-08-27T09:48:29Z</time>
      </trkpt>
      <trkpt lat="42.3134740" lon="-8.1193660">
        <ele>91.6</ele>
        <time>2022-08-27T09:48:33Z</time>
      </trkpt>
      <trkpt lat="42.3132230" lon="-8.1192940">
        <ele>91.4</ele>
        <time>2022-08-27T09:48:38Z</time>
      </trkpt>
      <trkpt lat="42.3131770" lon="-8.1192890">
        <ele>91.4</ele>
        <time>2022-08-27T09:48:39Z</time>
      </trkpt>
      <trkpt lat="42.3131350" lon="-8.1192770">
        <ele>91.4</ele>
        <time>2022-08-27T09:48:40Z</time>
      </trkpt>
      <trkpt lat="42.3130340" lon="-8.1192370">
        <ele>91.4</ele>
        <time>2022-08-27T09:48:42Z</time>
      </trkpt>
      <trkpt lat="42.3129310" lon="-8.1191740">
        <ele>91.4</ele>
        <time>2022-08-27T09:48:44Z</time>
      </trkpt>
      <trkpt lat="42.3128830" lon="-8.1191390">
        <ele>91.4</ele>
        <time>2022-08-27T09:48:45Z</time>
      </trkpt>
      <trkpt lat="42.3126440" lon="-8.1189330">
        <ele>91.2</ele>
        <time>2022-08-27T09:48:50Z</time>
      </trkpt>
      <trkpt lat="42.3123950" lon="-8.1187190">
        <ele>91.2</ele>
        <time>2022-08-27T09:48:56Z</time>
      </trkpt>
      <trkpt lat="42.3123530" lon="-8.1187100">
        <ele>91.4</ele>
        <time>2022-08-27T09:48:57Z</time>
      </trkpt>
      <trkpt lat="42.3122630" lon="-8.1187250">
        <ele>91.4</ele>
        <time>2022-08-27T09:48:59Z</time>
      </trkpt>
      <trkpt lat="42.3121420" lon="-8.1187780">
        <ele>91.4</ele>
        <time>2022-08-27T09:49:02Z</time>
      </trkpt>
      <trkpt lat="42.3120520" lon="-8.1188110">
        <ele>91.6</ele>
        <time>2022-08-27T09:49:04Z</time>
      </trkpt>
      <trkpt lat="42.3117710" lon="-8.1189290">
        <ele>91.6</ele>
        <time>2022-08-27T09:49:10Z</time>
      </trkpt>
      <trkpt lat="42.3114880" lon="-8.1190920">
        <ele>91.4</ele>
        <time>2022-08-27T09:49:16Z</time>
      </trkpt>
      <trkpt lat="42.3114300" lon="-8.1191250">
        <ele>91.4</ele>
        <time>2022-08-27T09:49:17Z</time>
      </trkpt>
      <trkpt lat="42.3112230" lon="-8.1191860">
        <ele>91.4</ele>
        <time>2022-08-27T09:49:21Z</time>
      </trkpt>
      <trkpt lat="42.3109270" lon="-8.1192540">
        <ele>91.4</ele>
        <time>2022-08-27T09:49:28Z</time>
      </trkpt>
      <trkpt lat="42.3106800" lon="-8.1193920">
        <ele>92.2</ele>
        <time>2022-08-27T09:49:35Z</time>
      </trkpt>
      <trkpt lat="42.3104470" lon="-8.1194950">
        <ele>92.8</ele>
        <time>2022-08-27T09:49:41Z</time>
      </trkpt>
      <trkpt lat="42.3103130" lon="-8.1195510">
        <ele>92.8</ele>
        <time>2022-08-27T09:49:44Z</time>
      </trkpt>
      <trkpt lat="42.3102640" lon="-8.1195660">
        <ele>92.8</ele>
        <time>2022-08-27T09:49:45Z</time>
      </trkpt>
      <trkpt lat="42.3101630" lon="-8.1196000">
        <ele>92.8</ele>
        <time>2022-08-27T09:49:47Z</time>
      </trkpt>
      <trkpt lat="42.3100730" lon="-8.1196400">
        <ele>92.8</ele>
        <time>2022-08-27T09:49:49Z</time>
      </trkpt>
      <trkpt lat="42.3099540" lon="-8.1197170">
        <ele>93.0</ele>
        <time>2022-08-27T09:49:52Z</time>
      </trkpt>
      <trkpt lat="42.3098490" lon="-8.1198120">
        <ele>93.0</ele>
        <time>2022-08-27T09:49:55Z</time>
      </trkpt>
      <trkpt lat="42.3097580" lon="-8.1199260">
        <ele>92.8</ele>
        <time>2022-08-27T09:49:58Z</time>
      </trkpt>
      <trkpt lat="42.3096180" lon="-8.1202130">
        <ele>92.8</ele>
        <time>2022-08-27T09:50:04Z</time>
      </trkpt>
      <trkpt lat="42.3095040" lon="-8.1205490">
        <ele>92.6</ele>
        <time>2022-08-27T09:50:10Z</time>
      </trkpt>
      <trkpt lat="42.3093740" lon="-8.1208900">
        <ele>92.4</ele>
        <time>2022-08-27T09:50:16Z</time>
      </trkpt>
      <trkpt lat="42.3092260" lon="-8.1213090">
        <ele>92.2</ele>
        <time>2022-08-27T09:50:22Z</time>
      </trkpt>
      <trkpt lat="42.3092120" lon="-8.1213920">
        <ele>92.2</ele>
        <time>2022-08-27T09:50:23Z</time>
      </trkpt>
      <trkpt lat="42.3091760" lon="-8.1215640">
        <ele>92.0</ele>
        <time>2022-08-27T09:50:25Z</time>
      </trkpt>
      <trkpt lat="42.3091220" lon="-8.1217100">
        <ele>92.0</ele>
        <time>2022-08-27T09:50:27Z</time>
      </trkpt>
      <trkpt lat="42.3089330" lon="-8.1221430">
        <ele>91.0</ele>
        <time>2022-08-27T09:50:33Z</time>
      </trkpt>
      <trkpt lat="42.3088730" lon="-8.1222750">
        <ele>90.8</ele>
        <time>2022-08-27T09:50:35Z</time>
      </trkpt>
      <trkpt lat="42.3086900" lon="-8.1227080">
        <ele>90.4</ele>
        <time>2022-08-27T09:50:42Z</time>
      </trkpt>
      <trkpt lat="42.3085920" lon="-8.1229360">
        <ele>90.4</ele>
        <time>2022-08-27T09:50:46Z</time>
      </trkpt>
      <trkpt lat="42.3085370" lon="-8.1230550">
        <ele>90.4</ele>
        <time>2022-08-27T09:50:48Z</time>
      </trkpt>
      <trkpt lat="42.3084900" lon="-8.1231670">
        <ele>90.4</ele>
        <time>2022-08-27T09:50:50Z</time>
      </trkpt>
      <trkpt lat="42.3084440" lon="-8.1233500">
        <ele>90.6</ele>
        <time>2022-08-27T09:50:53Z</time>
      </trkpt>
      <trkpt lat="42.3084250" lon="-8.1234110">
        <ele>90.6</ele>
        <time>2022-08-27T09:50:54Z</time>
      </trkpt>
      <trkpt lat="42.3083290" lon="-8.1237340">
        <ele>90.6</ele>
        <time>2022-08-27T09:50:59Z</time>
      </trkpt>
      <trkpt lat="42.3082080" lon="-8.1241360">
        <ele>91.0</ele>
        <time>2022-08-27T09:51:05Z</time>
      </trkpt>
      <trkpt lat="42.3080870" lon="-8.1245850">
        <ele>91.0</ele>
        <time>2022-08-27T09:51:11Z</time>
      </trkpt>
      <trkpt lat="42.3080510" lon="-8.1247360">
        <ele>91.0</ele>
        <time>2022-08-27T09:51:13Z</time>
      </trkpt>
      <trkpt lat="42.3079580" lon="-8.1249270">
        <ele>91.0</ele>
        <time>2022-08-27T09:51:16Z</time>
      </trkpt>
      <trkpt lat="42.3077410" lon="-8.1253840">
        <ele>90.2</ele>
        <time>2022-08-27T09:51:23Z</time>
      </trkpt>
      <trkpt lat="42.3075350" lon="-8.1257350">
        <ele>90.2</ele>
        <time>2022-08-27T09:51:29Z</time>
      </trkpt>
      <trkpt lat="42.3073300" lon="-8.1262200">
        <ele>90.0</ele>
        <time>2022-08-27T09:51:37Z</time>
      </trkpt>
      <trkpt lat="42.3071880" lon="-8.1265550">
        <ele>90.0</ele>
        <time>2022-08-27T09:51:43Z</time>
      </trkpt>
      <trkpt lat="42.3071350" lon="-8.1266600">
        <ele>90.0</ele>
        <time>2022-08-27T09:51:45Z</time>
      </trkpt>
      <trkpt lat="42.3071040" lon="-8.1269100">
        <ele>90.0</ele>
        <time>2022-08-27T09:51:49Z</time>
      </trkpt>
      <trkpt lat="42.3071130" lon="-8.1270360">
        <ele>90.0</ele>
        <time>2022-08-27T09:51:51Z</time>
      </trkpt>
      <trkpt lat="42.3071360" lon="-8.1271540">
        <ele>90.0</ele>
        <time>2022-08-27T09:51:53Z</time>
      </trkpt>
      <trkpt lat="42.3071610" lon="-8.1272020">
        <ele>90.2</ele>
        <time>2022-08-27T09:51:54Z</time>
      </trkpt>
      <trkpt lat="42.3073330" lon="-8.1273110">
        <ele>90.2</ele>
        <time>2022-08-27T09:51:58Z</time>
      </trkpt>
      <trkpt lat="42.3077280" lon="-8.1274990">
        <ele>90.0</ele>
        <time>2022-08-27T09:52:06Z</time>
      </trkpt>
      <trkpt lat="42.3078150" lon="-8.1275470">
        <ele>90.0</ele>
        <time>2022-08-27T09:52:08Z</time>
      </trkpt>
      <trkpt lat="42.3078770" lon="-8.1276280">
        <ele>90.0</ele>
        <time>2022-08-27T09:52:10Z</time>
      </trkpt>
      <trkpt lat="42.3078750" lon="-8.1278050">
        <ele>90.0</ele>
        <time>2022-08-27T09:52:13Z</time>
      </trkpt>
      <trkpt lat="42.3078250" lon="-8.1280040">
        <ele>90.0</ele>
        <time>2022-08-27T09:52:16Z</time>
      </trkpt>
      <trkpt lat="42.3077830" lon="-8.1282120">
        <ele>90.0</ele>
        <time>2022-08-27T09:52:19Z</time>
      </trkpt>
      <trkpt lat="42.3077600" lon="-8.1283490">
        <ele>89.8</ele>
        <time>2022-08-27T09:52:21Z</time>
      </trkpt>
      <trkpt lat="42.3077390" lon="-8.1285510">
        <ele>89.8</ele>
        <time>2022-08-27T09:52:24Z</time>
      </trkpt>
      <trkpt lat="42.3077350" lon="-8.1286170">
        <ele>89.8</ele>
        <time>2022-08-27T09:52:25Z</time>
      </trkpt>
      <trkpt lat="42.3077150" lon="-8.1292060">
        <ele>89.8</ele>
        <time>2022-08-27T09:52:34Z</time>
      </trkpt>
      <trkpt lat="42.3077010" lon="-8.1296990">
        <ele>90.4</ele>
        <time>2022-08-27T09:52:42Z</time>
      </trkpt>
      <trkpt lat="42.3076940" lon="-8.1301640">
        <ele>90.4</ele>
        <time>2022-08-27T09:52:50Z</time>
      </trkpt>
      <trkpt lat="42.3076760" lon="-8.1307410">
        <ele>90.6</ele>
        <time>2022-08-27T09:52:59Z</time>
      </trkpt>
      <trkpt lat="42.3076660" lon="-8.1308550">
        <ele>90.6</ele>
        <time>2022-08-27T09:53:01Z</time>
      </trkpt>
      <trkpt lat="42.3076260" lon="-8.1309460">
        <ele>90.6</ele>
        <time>2022-08-27T09:53:03Z</time>
      </trkpt>
      <trkpt lat="42.3074880" lon="-8.1311010">
        <ele>90.6</ele>
        <time>2022-08-27T09:53:07Z</time>
      </trkpt>
      <trkpt lat="42.3074360" lon="-8.1312050">
        <ele>90.6</ele>
        <time>2022-08-27T09:53:09Z</time>
      </trkpt>
      <trkpt lat="42.3073450" lon="-8.1314120">
        <ele>90.6</ele>
        <time>2022-08-27T09:53:13Z</time>
      </trkpt>
      <trkpt lat="42.3073300" lon="-8.1314660">
        <ele>90.6</ele>
        <time>2022-08-27T09:53:14Z</time>
      </trkpt>
      <trkpt lat="42.3073190" lon="-8.1316520">
        <ele>90.6</ele>
        <time>2022-08-27T09:53:17Z</time>
      </trkpt>
      <trkpt lat="42.3072890" lon="-8.1320810">
        <ele>90.6</ele>
        <time>2022-08-27T09:53:24Z</time>
      </trkpt>
      <trkpt lat="42.3071980" lon="-8.1324910">
        <ele>90.6</ele>
        <time>2022-08-27T09:53:30Z</time>
      </trkpt>
      <trkpt lat="42.3070130" lon="-8.1328570">
        <ele>90.2</ele>
        <time>2022-08-27T09:53:36Z</time>
      </trkpt>
      <trkpt lat="42.3067980" lon="-8.1332720">
        <ele>89.8</ele>
        <time>2022-08-27T09:53:43Z</time>
      </trkpt>
      <trkpt lat="42.3067200" lon="-8.1334440">
        <ele>89.8</ele>
        <time>2022-08-27T09:53:46Z</time>
      </trkpt>
      <trkpt lat="42.3066570" lon="-8.1335370">
        <ele>89.8</ele>
        <time>2022-08-27T09:53:48Z</time>
      </trkpt>
      <trkpt lat="42.3066300" lon="-8.1335860">
        <ele>89.8</ele>
        <time>2022-08-27T09:53:49Z</time>
      </trkpt>
      <trkpt lat="42.3065370" lon="-8.1337390">
        <ele>89.6</ele>
        <time>2022-08-27T09:53:52Z</time>
      </trkpt>
      <trkpt lat="42.3064990" lon="-8.1337850">
        <ele>89.6</ele>
        <time>2022-08-27T09:53:53Z</time>
      </trkpt>
      <trkpt lat="42.3063280" lon="-8.1340020">
        <ele>89.8</ele>
        <time>2022-08-27T09:53:58Z</time>
      </trkpt>
      <trkpt lat="42.3061290" lon="-8.1341250">
        <ele>89.8</ele>
        <time>2022-08-27T09:54:02Z</time>
      </trkpt>
      <trkpt lat="42.3057130" lon="-8.1343390">
        <ele>89.6</ele>
        <time>2022-08-27T09:54:10Z</time>
      </trkpt>
      <trkpt lat="42.3055050" lon="-8.1344300">
        <ele>89.2</ele>
        <time>2022-08-27T09:54:14Z</time>
      </trkpt>
      <trkpt lat="42.3053600" lon="-8.1345120">
        <ele>89.2</ele>
        <time>2022-08-27T09:54:17Z</time>
      </trkpt>
      <trkpt lat="42.3051390" lon="-8.1346560">
        <ele>89.2</ele>
        <time>2022-08-27T09:54:22Z</time>
      </trkpt>
      <trkpt lat="42.3050880" lon="-8.1346820">
        <ele>89.2</ele>
        <time>2022-08-27T09:54:23Z</time>
      </trkpt>
      <trkpt lat="42.3048880" lon="-8.1347820">
        <ele>89.2</ele>
        <time>2022-08-27T09:54:27Z</time>
      </trkpt>
      <trkpt lat="42.3047810" lon="-8.1348260">
        <ele>89.4</ele>
        <time>2022-08-27T09:54:29Z</time>
      </trkpt>
      <trkpt lat="42.3044580" lon="-8.1349140">
        <ele>89.4</ele>
        <time>2022-08-27T09:54:35Z</time>
      </trkpt>
      <trkpt lat="42.3040010" lon="-8.1350230">
        <ele>89.4</ele>
        <time>2022-08-27T09:54:43Z</time>
      </trkpt>
      <trkpt lat="42.3036210" lon="-8.1350980">
        <ele>89.2</ele>
        <time>2022-08-27T09:54:50Z</time>
      </trkpt>
      <trkpt lat="42.3032890" lon="-8.1351220">
        <ele>89.0</ele>
        <time>2022-08-27T09:54:57Z</time>
      </trkpt>
      <trkpt lat="42.3030490" lon="-8.1351090">
        <ele>89.2</ele>
        <time>2022-08-27T09:55:03Z</time>
      </trkpt>
      <trkpt lat="42.3028050" lon="-8.1350190">
        <ele>90.4</ele>
        <time>2022-08-27T09:55:10Z</time>
      </trkpt>
      <trkpt lat="42.3025740" lon="-8.1348360">
        <ele>91.2</ele>
        <time>2022-08-27T09:55:17Z</time>
      </trkpt>
      <trkpt lat="42.3025380" lon="-8.1348020">
        <ele>91.4</ele>
        <time>2022-08-27T09:55:18Z</time>
      </trkpt>
      <trkpt lat="42.3023670" lon="-8.1346430">
        <ele>91.8</ele>
        <time>2022-08-27T09:55:23Z</time>
      </trkpt>
      <trkpt lat="42.3021870" lon="-8.1344800">
        <ele>92.0</ele>
        <time>2022-08-27T09:55:29Z</time>
      </trkpt>
      <trkpt lat="42.3019630" lon="-8.1343810">
        <ele>92.4</ele>
        <time>2022-08-27T09:55:36Z</time>
      </trkpt>
      <trkpt lat="42.3017720" lon="-8.1343580">
        <ele>93.4</ele>
        <time>2022-08-27T09:55:42Z</time>
      </trkpt>
      <trkpt lat="42.3017420" lon="-8.1343580">
        <ele>93.6</ele>
        <time>2022-08-27T09:55:43Z</time>
      </trkpt>
      <trkpt lat="42.3015390" lon="-8.1343430">
        <ele>94.4</ele>
        <time>2022-08-27T09:55:50Z</time>
      </trkpt>
      <trkpt lat="42.3014940" lon="-8.1343340">
        <ele>94.4</ele>
        <time>2022-08-27T09:55:52Z</time>
      </trkpt>
      <trkpt lat="42.3014800" lon="-8.1342910">
        <ele>94.4</ele>
        <time>2022-08-27T09:55:54Z</time>
      </trkpt>
      <trkpt lat="42.3015420" lon="-8.1342090">
        <ele>94.4</ele>
        <time>2022-08-27T09:55:57Z</time>
      </trkpt>
      <trkpt lat="42.3016410" lon="-8.1342250">
        <ele>94.2</ele>
        <time>2022-08-27T09:56:00Z</time>
      </trkpt>
      <trkpt lat="42.3016720" lon="-8.1342280">
        <ele>94.2</ele>
        <time>2022-08-27T09:56:01Z</time>
      </trkpt>
      <trkpt lat="42.3017270" lon="-8.1342010">
        <ele>94.0</ele>
        <time>2022-08-27T09:56:03Z</time>
      </trkpt>
      <trkpt lat="42.3017390" lon="-8.1341730">
        <ele>93.8</ele>
        <time>2022-08-27T09:56:04Z</time>
      </trkpt>
      <trkpt lat="42.3017210" lon="-8.1340310">
        <ele>93.6</ele>
        <time>2022-08-27T09:56:08Z</time>
      </trkpt>
      <trkpt lat="42.3017080" lon="-8.1339830">
        <ele>93.4</ele>
        <time>2022-08-27T09:56:09Z</time>
      </trkpt>
      <trkpt lat="42.3016410" lon="-8.1336820">
        <ele>93.2</ele>
        <time>2022-08-27T09:56:14Z</time>
      </trkpt>
      <trkpt lat="42.3016000" lon="-8.1334760">
        <ele>92.8</ele>
        <time>2022-08-27T09:56:17Z</time>
      </trkpt>
      <trkpt lat="42.3015560" lon="-8.1332970">
        <ele>92.4</ele>
        <time>2022-08-27T09:56:20Z</time>
      </trkpt>
      <trkpt lat="42.3015340" lon="-8.1332210">
        <ele>91.8</ele>
        <time>2022-08-27T09:56:22Z</time>
      </trkpt>
      <trkpt lat="42.3015110" lon="-8.1331700">
        <ele>91.4</ele>
        <time>2022-08-27T09:56:24Z</time>
      </trkpt>
      <trkpt lat="42.3014960" lon="-8.1331500">
        <ele>91.2</ele>
        <time>2022-08-27T09:56:25Z</time>
      </trkpt>
      <trkpt lat="42.3014310" lon="-8.1331050">
        <ele>91.2</ele>
        <time>2022-08-27T09:56:28Z</time>
      </trkpt>
      <trkpt lat="42.3013100" lon="-8.1330150">
        <ele>91.4</ele>
        <time>2022-08-27T09:56:34Z</time>
      </trkpt>
      <trkpt lat="42.3011620" lon="-8.1329260">
        <ele>92.6</ele>
        <time>2022-08-27T09:56:40Z</time>
      </trkpt>
      <trkpt lat="42.3010670" lon="-8.1329030">
        <ele>92.6</ele>
        <time>2022-08-27T09:56:44Z</time>
      </trkpt>
      <trkpt lat="42.3010140" lon="-8.1329220">
        <ele>92.8</ele>
        <time>2022-08-27T09:56:46Z</time>
      </trkpt>
      <trkpt lat="42.3008900" lon="-8.1329160">
        <ele>92.8</ele>
        <time>2022-08-27T09:56:50Z</time>
      </trkpt>
      <trkpt lat="42.3005360" lon="-8.1328340">
        <ele>93.2</ele>
        <time>2022-08-27T09:57:00Z</time>
      </trkpt>
      <trkpt lat="42.3003440" lon="-8.1328570">
        <ele>93.6</ele>
        <time>2022-08-27T09:57:05Z</time>
      </trkpt>
      <trkpt lat="42.3000350" lon="-8.1329840">
        <ele>93.6</ele>
        <time>2022-08-27T09:57:12Z</time>
      </trkpt>
      <trkpt lat="42.2996410" lon="-8.1331620">
        <ele>92.6</ele>
        <time>2022-08-27T09:57:19Z</time>
      </trkpt>
      <trkpt lat="42.2994870" lon="-8.1332310">
        <ele>91.8</ele>
        <time>2022-08-27T09:57:22Z</time>
      </trkpt>
      <trkpt lat="42.2991990" lon="-8.1333660">
        <ele>91.0</ele>
        <time>2022-08-27T09:57:28Z</time>
      </trkpt>
      <trkpt lat="42.2990070" lon="-8.1334780">
        <ele>90.8</ele>
        <time>2022-08-27T09:57:32Z</time>
      </trkpt>
      <trkpt lat="42.2989660" lon="-8.1335170">
        <ele>90.8</ele>
        <time>2022-08-27T09:57:33Z</time>
      </trkpt>
      <trkpt lat="42.2989280" lon="-8.1335600">
        <ele>90.8</ele>
        <time>2022-08-27T09:57:34Z</time>
      </trkpt>
      <trkpt lat="42.2987890" lon="-8.1337720">
        <ele>90.8</ele>
        <time>2022-08-27T09:57:38Z</time>
      </trkpt>
      <trkpt lat="42.2987680" lon="-8.1338380">
        <ele>90.6</ele>
        <time>2022-08-27T09:57:39Z</time>
      </trkpt>
      <trkpt lat="42.2987660" lon="-8.1341080">
        <ele>90.4</ele>
        <time>2022-08-27T09:57:43Z</time>
      </trkpt>
      <trkpt lat="42.2987680" lon="-8.1342330">
        <ele>90.2</ele>
        <time>2022-08-27T09:57:45Z</time>
      </trkpt>
      <trkpt lat="42.2987240" lon="-8.1344110">
        <ele>90.2</ele>
        <time>2022-08-27T09:57:48Z</time>
      </trkpt>
      <trkpt lat="42.2987020" lon="-8.1344640">
        <ele>90.2</ele>
        <time>2022-08-27T09:57:49Z</time>
      </trkpt>
      <trkpt lat="42.2986770" lon="-8.1345140">
        <ele>90.2</ele>
        <time>2022-08-27T09:57:50Z</time>
      </trkpt>
      <trkpt lat="42.2985820" lon="-8.1346410">
        <ele>90.2</ele>
        <time>2022-08-27T09:57:53Z</time>
      </trkpt>
      <trkpt lat="42.2985530" lon="-8.1346860">
        <ele>90.2</ele>
        <time>2022-08-27T09:57:54Z</time>
      </trkpt>
      <trkpt lat="42.2984380" lon="-8.1349550">
        <ele>90.4</ele>
        <time>2022-08-27T09:57:59Z</time>
      </trkpt>
      <trkpt lat="42.2983820" lon="-8.1350640">
        <ele>90.4</ele>
        <time>2022-08-27T09:58:01Z</time>
      </trkpt>
      <trkpt lat="42.2982500" lon="-8.1352450">
        <ele>90.6</ele>
        <time>2022-08-27T09:58:05Z</time>
      </trkpt>
      <trkpt lat="42.2980500" lon="-8.1354890">
        <ele>90.4</ele>
        <time>2022-08-27T09:58:11Z</time>
      </trkpt>
      <trkpt lat="42.2978310" lon="-8.1357800">
        <ele>90.2</ele>
        <time>2022-08-27T09:58:18Z</time>
      </trkpt>
      <trkpt lat="42.2976910" lon="-8.1359020">
        <ele>90.0</ele>
        <time>2022-08-27T09:58:22Z</time>
      </trkpt>
      <trkpt lat="42.2976540" lon="-8.1359500">
        <ele>90.0</ele>
        <time>2022-08-27T09:58:23Z</time>
      </trkpt>
      <trkpt lat="42.2974480" lon="-8.1361950">
        <ele>89.8</ele>
        <time>2022-08-27T09:58:28Z</time>
      </trkpt>
      <trkpt lat="42.2971820" lon="-8.1364760">
        <ele>89.6</ele>
        <time>2022-08-27T09:58:34Z</time>
      </trkpt>
      <trkpt lat="42.2967540" lon="-8.1369130">
        <ele>89.2</ele>
        <time>2022-08-27T09:58:44Z</time>
      </trkpt>
      <trkpt lat="42.2963840" lon="-8.1372910">
        <ele>89.2</ele>
        <time>2022-08-27T09:58:53Z</time>
      </trkpt>
      <trkpt lat="42.2962790" lon="-8.1373950">
        <ele>89.2</ele>
        <time>2022-08-27T09:58:56Z</time>
      </trkpt>
      <trkpt lat="42.2961630" lon="-8.1374770">
        <ele>89.0</ele>
        <time>2022-08-27T09:58:59Z</time>
      </trkpt>
      <trkpt lat="42.2959700" lon="-8.1376210">
        <ele>89.0</ele>
        <time>2022-08-27T09:59:04Z</time>
      </trkpt>
      <trkpt lat="42.2958970" lon="-8.1376820">
        <ele>89.0</ele>
        <time>2022-08-27T09:59:06Z</time>
      </trkpt>
      <trkpt lat="42.2958070" lon="-8.1377290">
        <ele>89.0</ele>
        <time>2022-08-27T09:59:08Z</time>
      </trkpt>
      <trkpt lat="42.2957120" lon="-8.1377910">
        <ele>89.0</ele>
        <time>2022-08-27T09:59:10Z</time>
      </trkpt>
      <trkpt lat="42.2956680" lon="-8.1378310">
        <ele>89.0</ele>
        <time>2022-08-27T09:59:11Z</time>
      </trkpt>
      <trkpt lat="42.2956280" lon="-8.1378730">
        <ele>89.0</ele>
        <time>2022-08-27T09:59:12Z</time>
      </trkpt>
      <trkpt lat="42.2955440" lon="-8.1380360">
        <ele>88.8</ele>
        <time>2022-08-27T09:59:15Z</time>
      </trkpt>
      <trkpt lat="42.2955270" lon="-8.1380900">
        <ele>88.8</ele>
        <time>2022-08-27T09:59:16Z</time>
      </trkpt>
      <trkpt lat="42.2954450" lon="-8.1382680">
        <ele>88.4</ele>
        <time>2022-08-27T09:59:20Z</time>
      </trkpt>
      <trkpt lat="42.2953770" lon="-8.1383920">
        <ele>88.2</ele>
        <time>2022-08-27T09:59:23Z</time>
      </trkpt>
      <trkpt lat="42.2953290" lon="-8.1384750">
        <ele>88.2</ele>
        <time>2022-08-27T09:59:25Z</time>
      </trkpt>
      <trkpt lat="42.2952140" lon="-8.1387210">
        <ele>88.2</ele>
        <time>2022-08-27T09:59:31Z</time>
      </trkpt>
      <trkpt lat="42.2951410" lon="-8.1389770">
        <ele>88.2</ele>
        <time>2022-08-27T09:59:36Z</time>
      </trkpt>
      <trkpt lat="42.2951190" lon="-8.1390840">
        <ele>88.2</ele>
        <time>2022-08-27T09:59:39Z</time>
      </trkpt>
      <trkpt lat="42.2951170" lon="-8.1391110">
        <ele>88.0</ele>
        <time>2022-08-27T09:59:40Z</time>
      </trkpt>
      <trkpt lat="42.2950930" lon="-8.1392080">
        <ele>88.0</ele>
        <time>2022-08-27T09:59:45Z</time>
      </trkpt>
      <trkpt lat="42.2950930" lon="-8.1392270">
        <ele>88.0</ele>
        <time>2022-08-27T09:59:46Z</time>
      </trkpt>
      <trkpt lat="42.2950550" lon="-8.1393440">
        <ele>87.8</ele>
        <time>2022-08-27T09:59:51Z</time>
      </trkpt>
      <trkpt lat="42.2950510" lon="-8.1393610">
        <ele>87.8</ele>
        <time>2022-08-27T09:59:52Z</time>
      </trkpt>
      <trkpt lat="42.2950830" lon="-8.1395950">
        <ele>89.2</ele>
        <time>2022-08-27T10:00:11Z</time>
      </trkpt>
      <trkpt lat="42.2950460" lon="-8.1396610">
        <ele>89.2</ele>
        <time>2022-08-27T10:00:13Z</time>
      </trkpt>
      <trkpt lat="42.2948730" lon="-8.1399290">
        <ele>89.4</ele>
        <time>2022-08-27T10:00:21Z</time>
      </trkpt>
      <trkpt lat="42.2946790" lon="-8.1401780">
        <ele>89.2</ele>
        <time>2022-08-27T10:00:28Z</time>
      </trkpt>
      <trkpt lat="42.2945220" lon="-8.1403760">
        <ele>89.2</ele>
        <time>2022-08-27T10:00:34Z</time>
      </trkpt>
      <trkpt lat="42.2943620" lon="-8.1406060">
        <ele>89.2</ele>
        <time>2022-08-27T10:00:41Z</time>
      </trkpt>
      <trkpt lat="42.2942060" lon="-8.1408340">
        <ele>89.4</ele>
        <time>2022-08-27T10:00:48Z</time>
      </trkpt>
      <trkpt lat="42.2940100" lon="-8.1411090">
        <ele>89.8</ele>
        <time>2022-08-27T10:00:56Z</time>
      </trkpt>
      <trkpt lat="42.2938100" lon="-8.1413610">
        <ele>90.2</ele>
        <time>2022-08-27T10:01:04Z</time>
      </trkpt>
      <trkpt lat="42.2936630" lon="-8.1415000">
        <ele>90.4</ele>
        <time>2022-08-27T10:01:10Z</time>
      </trkpt>
      <trkpt lat="42.2935570" lon="-8.1416430">
        <ele>90.6</ele>
        <time>2022-08-27T10:01:14Z</time>
      </trkpt>
      <trkpt lat="42.2933600" lon="-8.1417810">
        <ele>90.6</ele>
        <time>2022-08-27T10:01:18Z</time>
      </trkpt>
      <trkpt lat="42.2931290" lon="-8.1418860">
        <ele>89.8</ele>
        <time>2022-08-27T10:01:22Z</time>
      </trkpt>
      <trkpt lat="42.2930160" lon="-8.1419310">
        <ele>89.4</ele>
        <time>2022-08-27T10:01:24Z</time>
      </trkpt>
      <trkpt lat="42.2929620" lon="-8.1419530">
        <ele>89.2</ele>
        <time>2022-08-27T10:01:25Z</time>
      </trkpt>
      <trkpt lat="42.2927040" lon="-8.1420150">
        <ele>88.8</ele>
        <time>2022-08-27T10:01:30Z</time>
      </trkpt>
      <trkpt lat="42.2923790" lon="-8.1419860">
        <ele>88.6</ele>
        <time>2022-08-27T10:01:36Z</time>
      </trkpt>
      <trkpt lat="42.2921480" lon="-8.1419900">
        <ele>89.0</ele>
        <time>2022-08-27T10:01:40Z</time>
      </trkpt>
      <trkpt lat="42.2920390" lon="-8.1420140">
        <ele>89.0</ele>
        <time>2022-08-27T10:01:42Z</time>
      </trkpt>
      <trkpt lat="42.2916930" lon="-8.1421070">
        <ele>89.0</ele>
        <time>2022-08-27T10:01:49Z</time>
      </trkpt>
      <trkpt lat="42.2915930" lon="-8.1421220">
        <ele>89.0</ele>
        <time>2022-08-27T10:01:51Z</time>
      </trkpt>
      <trkpt lat="42.2913690" lon="-8.1421410">
        <ele>89.0</ele>
        <time>2022-08-27T10:01:55Z</time>
      </trkpt>
      <trkpt lat="42.2912130" lon="-8.1421830">
        <ele>88.8</ele>
        <time>2022-08-27T10:01:58Z</time>
      </trkpt>
      <trkpt lat="42.2910610" lon="-8.1422520">
        <ele>88.4</ele>
        <time>2022-08-27T10:02:01Z</time>
      </trkpt>
      <trkpt lat="42.2909390" lon="-8.1423520">
        <ele>88.4</ele>
        <time>2022-08-27T10:02:04Z</time>
      </trkpt>
      <trkpt lat="42.2908670" lon="-8.1424330">
        <ele>88.4</ele>
        <time>2022-08-27T10:02:06Z</time>
      </trkpt>
      <trkpt lat="42.2908260" lon="-8.1424700">
        <ele>88.4</ele>
        <time>2022-08-27T10:02:07Z</time>
      </trkpt>
      <trkpt lat="42.2906930" lon="-8.1425320">
        <ele>88.4</ele>
        <time>2022-08-27T10:02:10Z</time>
      </trkpt>
      <trkpt lat="42.2905080" lon="-8.1425060">
        <ele>88.4</ele>
        <time>2022-08-27T10:02:14Z</time>
      </trkpt>
      <trkpt lat="42.2904640" lon="-8.1424930">
        <ele>88.4</ele>
        <time>2022-08-27T10:02:15Z</time>
      </trkpt>
      <trkpt lat="42.2901900" lon="-8.1424450">
        <ele>88.6</ele>
        <time>2022-08-27T10:02:22Z</time>
      </trkpt>
      <trkpt lat="42.2901460" lon="-8.1424410">
        <ele>88.8</ele>
        <time>2022-08-27T10:02:23Z</time>
      </trkpt>
      <trkpt lat="42.2899130" lon="-8.1424310">
        <ele>89.2</ele>
        <time>2022-08-27T10:02:28Z</time>
      </trkpt>
      <trkpt lat="42.2896270" lon="-8.1423400">
        <ele>89.2</ele>
        <time>2022-08-27T10:02:34Z</time>
      </trkpt>
      <trkpt lat="42.2895830" lon="-8.1423180">
        <ele>89.2</ele>
        <time>2022-08-27T10:02:35Z</time>
      </trkpt>
      <trkpt lat="42.2893550" lon="-8.1421910">
        <ele>89.2</ele>
        <time>2022-08-27T10:02:40Z</time>
      </trkpt>
      <trkpt lat="42.2890940" lon="-8.1420200">
        <ele>89.2</ele>
        <time>2022-08-27T10:02:46Z</time>
      </trkpt>
      <trkpt lat="42.2888880" lon="-8.1418440">
        <ele>89.2</ele>
        <time>2022-08-27T10:02:52Z</time>
      </trkpt>
      <trkpt lat="42.2887580" lon="-8.1414920">
        <ele>89.2</ele>
        <time>2022-08-27T10:02:59Z</time>
      </trkpt>
      <trkpt lat="42.2887460" lon="-8.1414370">
        <ele>89.2</ele>
        <time>2022-08-27T10:03:00Z</time>
      </trkpt>
      <trkpt lat="42.2887350" lon="-8.1411580">
        <ele>89.2</ele>
        <time>2022-08-27T10:03:05Z</time>
      </trkpt>
      <trkpt lat="42.2886940" lon="-8.1409750">
        <ele>89.2</ele>
        <time>2022-08-27T10:03:09Z</time>
      </trkpt>
      <trkpt lat="42.2886270" lon="-8.1409240">
        <ele>89.2</ele>
        <time>2022-08-27T10:03:11Z</time>
      </trkpt>
      <trkpt lat="42.2885690" lon="-8.1408990">
        <ele>89.2</ele>
        <time>2022-08-27T10:03:12Z</time>
      </trkpt>
      <trkpt lat="42.2882850" lon="-8.1408290">
        <ele>89.2</ele>
        <time>2022-08-27T10:03:17Z</time>
      </trkpt>
      <trkpt lat="42.2881020" lon="-8.1409170">
        <ele>88.4</ele>
        <time>2022-08-27T10:03:21Z</time>
      </trkpt>
      <trkpt lat="42.2880150" lon="-8.1409740">
        <ele>88.4</ele>
        <time>2022-08-27T10:03:23Z</time>
      </trkpt>
      <trkpt lat="42.2877980" lon="-8.1411260">
        <ele>88.2</ele>
        <time>2022-08-27T10:03:28Z</time>
      </trkpt>
      <trkpt lat="42.2874870" lon="-8.1413150">
        <ele>88.2</ele>
        <time>2022-08-27T10:03:35Z</time>
      </trkpt>
      <trkpt lat="42.2873600" lon="-8.1413970">
        <ele>88.2</ele>
        <time>2022-08-27T10:03:38Z</time>
      </trkpt>
      <trkpt lat="42.2871980" lon="-8.1415040">
        <ele>88.0</ele>
        <time>2022-08-27T10:03:42Z</time>
      </trkpt>
      <trkpt lat="42.2871130" lon="-8.1415450">
        <ele>88.0</ele>
        <time>2022-08-27T10:03:44Z</time>
      </trkpt>
      <trkpt lat="42.2868980" lon="-8.1416470">
        <ele>87.8</ele>
        <time>2022-08-27T10:03:49Z</time>
      </trkpt>
      <trkpt lat="42.2865940" lon="-8.1417710">
        <ele>87.8</ele>
        <time>2022-08-27T10:03:55Z</time>
      </trkpt>
      <trkpt lat="42.2863950" lon="-8.1418420">
        <ele>87.6</ele>
        <time>2022-08-27T10:03:59Z</time>
      </trkpt>
      <trkpt lat="42.2862170" lon="-8.1418270">
        <ele>87.6</ele>
        <time>2022-08-27T10:04:02Z</time>
      </trkpt>
      <trkpt lat="42.2860500" lon="-8.1417850">
        <ele>87.6</ele>
        <time>2022-08-27T10:04:05Z</time>
      </trkpt>
      <trkpt lat="42.2859410" lon="-8.1417560">
        <ele>87.6</ele>
        <time>2022-08-27T10:04:07Z</time>
      </trkpt>
      <trkpt lat="42.2855410" lon="-8.1416900">
        <ele>87.4</ele>
        <time>2022-08-27T10:04:15Z</time>
      </trkpt>
      <trkpt lat="42.2852330" lon="-8.1416640">
        <ele>87.4</ele>
        <time>2022-08-27T10:04:21Z</time>
      </trkpt>
      <trkpt lat="42.2851810" lon="-8.1416680">
        <ele>87.4</ele>
        <time>2022-08-27T10:04:22Z</time>
      </trkpt>
      <trkpt lat="42.2851300" lon="-8.1416640">
        <ele>87.4</ele>
        <time>2022-08-27T10:04:23Z</time>
      </trkpt>
      <trkpt lat="42.2849830" lon="-8.1416660">
        <ele>87.4</ele>
        <time>2022-08-27T10:04:26Z</time>
      </trkpt>
      <trkpt lat="42.2849390" lon="-8.1416840">
        <ele>87.4</ele>
        <time>2022-08-27T10:04:27Z</time>
      </trkpt>
      <trkpt lat="42.2846780" lon="-8.1418800">
        <ele>87.4</ele>
        <time>2022-08-27T10:04:33Z</time>
      </trkpt>
      <trkpt lat="42.2843850" lon="-8.1420980">
        <ele>87.4</ele>
        <time>2022-08-27T10:04:40Z</time>
      </trkpt>
      <trkpt lat="42.2842620" lon="-8.1421930">
        <ele>87.4</ele>
        <time>2022-08-27T10:04:43Z</time>
      </trkpt>
      <trkpt lat="42.2840770" lon="-8.1423070">
        <ele>87.2</ele>
        <time>2022-08-27T10:04:47Z</time>
      </trkpt>
      <trkpt lat="42.2839840" lon="-8.1423710">
        <ele>87.2</ele>
        <time>2022-08-27T10:04:49Z</time>
      </trkpt>
      <trkpt lat="42.2838990" lon="-8.1424350">
        <ele>87.0</ele>
        <time>2022-08-27T10:04:51Z</time>
      </trkpt>
      <trkpt lat="42.2838110" lon="-8.1424970">
        <ele>87.0</ele>
        <time>2022-08-27T10:04:53Z</time>
      </trkpt>
      <trkpt lat="42.2835380" lon="-8.1426540">
        <ele>87.0</ele>
        <time>2022-08-27T10:04:59Z</time>
      </trkpt>
      <trkpt lat="42.2833890" lon="-8.1427060">
        <ele>87.0</ele>
        <time>2022-08-27T10:05:02Z</time>
      </trkpt>
      <trkpt lat="42.2832700" lon="-8.1426850">
        <ele>87.0</ele>
        <time>2022-08-27T10:05:04Z</time>
      </trkpt>
      <trkpt lat="42.2831000" lon="-8.1426480">
        <ele>87.0</ele>
        <time>2022-08-27T10:05:07Z</time>
      </trkpt>
      <trkpt lat="42.2830030" lon="-8.1426600">
        <ele>87.2</ele>
        <time>2022-08-27T10:05:09Z</time>
      </trkpt>
      <trkpt lat="42.2829150" lon="-8.1427110">
        <ele>87.2</ele>
        <time>2022-08-27T10:05:11Z</time>
      </trkpt>
      <trkpt lat="42.2827930" lon="-8.1428070">
        <ele>87.2</ele>
        <time>2022-08-27T10:05:14Z</time>
      </trkpt>
      <trkpt lat="42.2825060" lon="-8.1429860">
        <ele>87.4</ele>
        <time>2022-08-27T10:05:20Z</time>
      </trkpt>
      <trkpt lat="42.2821910" lon="-8.1431410">
        <ele>87.2</ele>
        <time>2022-08-27T10:05:26Z</time>
      </trkpt>
      <trkpt lat="42.2818750" lon="-8.1433380">
        <ele>86.8</ele>
        <time>2022-08-27T10:05:32Z</time>
      </trkpt>
      <trkpt lat="42.2815760" lon="-8.1435630">
        <ele>86.6</ele>
        <time>2022-08-27T10:05:38Z</time>
      </trkpt>
      <trkpt lat="42.2811930" lon="-8.1438350">
        <ele>86.4</ele>
        <time>2022-08-27T10:05:46Z</time>
      </trkpt>
      <trkpt lat="42.2810990" lon="-8.1438930">
        <ele>86.4</ele>
        <time>2022-08-27T10:05:48Z</time>
      </trkpt>
      <trkpt lat="42.2809320" lon="-8.1440610">
        <ele>86.2</ele>
        <time>2022-08-27T10:05:52Z</time>
      </trkpt>
      <trkpt lat="42.2806480" lon="-8.1443660">
        <ele>86.0</ele>
        <time>2022-08-27T10:05:59Z</time>
      </trkpt>
      <trkpt lat="42.2803900" lon="-8.1446960">
        <ele>85.8</ele>
        <time>2022-08-27T10:06:06Z</time>
      </trkpt>
      <trkpt lat="42.2801250" lon="-8.1449790">
        <ele>85.8</ele>
        <time>2022-08-27T10:06:13Z</time>
      </trkpt>
      <trkpt lat="42.2800560" lon="-8.1450630">
        <ele>85.8</ele>
        <time>2022-08-27T10:06:15Z</time>
      </trkpt>
      <trkpt lat="42.2799680" lon="-8.1452370">
        <ele>85.8</ele>
        <time>2022-08-27T10:06:18Z</time>
      </trkpt>
      <trkpt lat="42.2797960" lon="-8.1455460">
        <ele>86.0</ele>
        <time>2022-08-27T10:06:23Z</time>
      </trkpt>
      <trkpt lat="42.2797570" lon="-8.1456030">
        <ele>86.0</ele>
        <time>2022-08-27T10:06:24Z</time>
      </trkpt>
      <trkpt lat="42.2795650" lon="-8.1458900">
        <ele>85.8</ele>
        <time>2022-08-27T10:06:29Z</time>
      </trkpt>
      <trkpt lat="42.2794750" lon="-8.1460880">
        <ele>85.6</ele>
        <time>2022-08-27T10:06:32Z</time>
      </trkpt>
      <trkpt lat="42.2793770" lon="-8.1463320">
        <ele>85.6</ele>
        <time>2022-08-27T10:06:36Z</time>
      </trkpt>
      <trkpt lat="42.2793300" lon="-8.1464450">
        <ele>85.6</ele>
        <time>2022-08-27T10:06:38Z</time>
      </trkpt>
      <trkpt lat="42.2791790" lon="-8.1468300">
        <ele>85.6</ele>
        <time>2022-08-27T10:06:44Z</time>
      </trkpt>
      <trkpt lat="42.2789990" lon="-8.1473260">
        <ele>85.8</ele>
        <time>2022-08-27T10:06:51Z</time>
      </trkpt>
      <trkpt lat="42.2788470" lon="-8.1477820">
        <ele>85.8</ele>
        <time>2022-08-27T10:06:58Z</time>
      </trkpt>
      <trkpt lat="42.2787410" lon="-8.1481170">
        <ele>85.8</ele>
        <time>2022-08-27T10:07:03Z</time>
      </trkpt>
      <trkpt lat="42.2787120" lon="-8.1481790">
        <ele>85.8</ele>
        <time>2022-08-27T10:07:04Z</time>
      </trkpt>
      <trkpt lat="42.2785280" lon="-8.1486540">
        <ele>86.0</ele>
        <time>2022-08-27T10:07:11Z</time>
      </trkpt>
      <trkpt lat="42.2783680" lon="-8.1491230">
        <ele>86.0</ele>
        <time>2022-08-27T10:07:18Z</time>
      </trkpt>
      <trkpt lat="42.2782320" lon="-8.1494320">
        <ele>86.0</ele>
        <time>2022-08-27T10:07:23Z</time>
      </trkpt>
      <trkpt lat="42.2780700" lon="-8.1498040">
        <ele>86.0</ele>
        <time>2022-08-27T10:07:29Z</time>
      </trkpt>
      <trkpt lat="42.2778660" lon="-8.1502350">
        <ele>86.0</ele>
        <time>2022-08-27T10:07:36Z</time>
      </trkpt>
      <trkpt lat="42.2776650" lon="-8.1505700">
        <ele>85.6</ele>
        <time>2022-08-27T10:07:42Z</time>
      </trkpt>
      <trkpt lat="42.2776340" lon="-8.1506210">
        <ele>85.6</ele>
        <time>2022-08-27T10:07:43Z</time>
      </trkpt>
      <trkpt lat="42.2774660" lon="-8.1508800">
        <ele>85.6</ele>
        <time>2022-08-27T10:07:48Z</time>
      </trkpt>
      <trkpt lat="42.2772090" lon="-8.1512370">
        <ele>85.6</ele>
        <time>2022-08-27T10:07:55Z</time>
      </trkpt>
      <trkpt lat="42.2769520" lon="-8.1515920">
        <ele>85.8</ele>
        <time>2022-08-27T10:08:02Z</time>
      </trkpt>
      <trkpt lat="42.2766770" lon="-8.1519330">
        <ele>85.8</ele>
        <time>2022-08-27T10:08:09Z</time>
      </trkpt>
      <trkpt lat="42.2763750" lon="-8.1522970">
        <ele>85.8</ele>
        <time>2022-08-27T10:08:17Z</time>
      </trkpt>
      <trkpt lat="42.2760830" lon="-8.1526530">
        <ele>85.8</ele>
        <time>2022-08-27T10:08:25Z</time>
      </trkpt>
      <trkpt lat="42.2758390" lon="-8.1529230">
        <ele>86.0</ele>
        <time>2022-08-27T10:08:32Z</time>
      </trkpt>
      <trkpt lat="42.2756260" lon="-8.1532110">
        <ele>86.0</ele>
        <time>2022-08-27T10:08:39Z</time>
      </trkpt>
      <trkpt lat="42.2756100" lon="-8.1532500">
        <ele>86.0</ele>
        <time>2022-08-27T10:08:40Z</time>
      </trkpt>
      <trkpt lat="42.2756260" lon="-8.1533220">
        <ele>86.0</ele>
        <time>2022-08-27T10:08:42Z</time>
      </trkpt>
      <trkpt lat="42.2757370" lon="-8.1534750">
        <ele>86.2</ele>
        <time>2022-08-27T10:08:47Z</time>
      </trkpt>
      <trkpt lat="42.2757770" lon="-8.1535270">
        <ele>86.2</ele>
        <time>2022-08-27T10:08:49Z</time>
      </trkpt>
      <trkpt lat="42.2759130" lon="-8.1537110">
        <ele>87.2</ele>
        <time>2022-08-27T10:08:55Z</time>
      </trkpt>
      <trkpt lat="42.2759570" lon="-8.1537800">
        <ele>87.6</ele>
        <time>2022-08-27T10:08:57Z</time>
      </trkpt>
      <trkpt lat="42.2760910" lon="-8.1539680">
        <ele>88.4</ele>
        <time>2022-08-27T10:09:03Z</time>
      </trkpt>
      <trkpt lat="42.2762020" lon="-8.1541240">
        <ele>88.8</ele>
        <time>2022-08-27T10:09:08Z</time>
      </trkpt>
      <trkpt lat="42.2762340" lon="-8.1541920">
        <ele>89.0</ele>
        <time>2022-08-27T10:09:10Z</time>
      </trkpt>
      <trkpt lat="42.2763800" lon="-8.1544660">
        <ele>89.6</ele>
        <time>2022-08-27T10:09:18Z</time>
      </trkpt>
      <trkpt lat="42.2764370" lon="-8.1545630">
        <ele>89.8</ele>
        <time>2022-08-27T10:09:21Z</time>
      </trkpt>
      <trkpt lat="42.2765180" lon="-8.1547060">
        <ele>90.6</ele>
        <time>2022-08-27T10:09:26Z</time>
      </trkpt>
      <trkpt lat="42.2765230" lon="-8.1547360">
        <ele>90.6</ele>
        <time>2022-08-27T10:09:27Z</time>
      </trkpt>
      <trkpt lat="42.2765080" lon="-8.1547830">
        <ele>90.8</ele>
        <time>2022-08-27T10:09:29Z</time>
      </trkpt>
      <trkpt lat="42.2764920" lon="-8.1548010">
        <ele>91.0</ele>
        <time>2022-08-27T10:09:30Z</time>
      </trkpt>
      <trkpt lat="42.2764720" lon="-8.1548220">
        <ele>91.0</ele>
        <time>2022-08-27T10:09:31Z</time>
      </trkpt>
      <trkpt lat="42.2763700" lon="-8.1549490">
        <ele>91.8</ele>
        <time>2022-08-27T10:09:36Z</time>
      </trkpt>
      <trkpt lat="42.2763560" lon="-8.1549760">
        <ele>92.0</ele>
        <time>2022-08-27T10:09:37Z</time>
      </trkpt>
      <trkpt lat="42.2762370" lon="-8.1551800">
        <ele>93.0</ele>
        <time>2022-08-27T10:09:44Z</time>
      </trkpt>
      <trkpt lat="42.2762150" lon="-8.1552060">
        <ele>93.0</ele>
        <time>2022-08-27T10:09:45Z</time>
      </trkpt>
      <trkpt lat="42.2761000" lon="-8.1552790">
        <ele>93.6</ele>
        <time>2022-08-27T10:09:50Z</time>
      </trkpt>
      <trkpt lat="42.2760060" lon="-8.1553480">
        <ele>93.8</ele>
        <time>2022-08-27T10:09:53Z</time>
      </trkpt>
      <trkpt lat="42.2759770" lon="-8.1554000">
        <ele>93.8</ele>
        <time>2022-08-27T10:09:54Z</time>
      </trkpt>
      <trkpt lat="42.2759510" lon="-8.1555730">
        <ele>93.8</ele>
        <time>2022-08-27T10:09:57Z</time>
      </trkpt>
      <trkpt lat="42.2759720" lon="-8.1556670">
        <ele>94.0</ele>
        <time>2022-08-27T10:09:59Z</time>
      </trkpt>
      <trkpt lat="42.2759790" lon="-8.1557560">
        <ele>94.0</ele>
        <time>2022-08-27T10:10:01Z</time>
      </trkpt>
      <trkpt lat="42.2759130" lon="-8.1559780">
        <ele>94.2</ele>
        <time>2022-08-27T10:10:06Z</time>
      </trkpt>
      <trkpt lat="42.2759070" lon="-8.1560230">
        <ele>94.2</ele>
        <time>2022-08-27T10:10:07Z</time>
      </trkpt>
      <trkpt lat="42.2759140" lon="-8.1561880">
        <ele>94.6</ele>
        <time>2022-08-27T10:10:12Z</time>
      </trkpt>
      <trkpt lat="42.2759390" lon="-8.1562430">
        <ele>94.8</ele>
        <time>2022-08-27T10:10:15Z</time>
      </trkpt>
      <trkpt lat="42.2759730" lon="-8.1562550">
        <ele>95.2</ele>
        <time>2022-08-27T10:10:17Z</time>
      </trkpt>
      <trkpt lat="42.2759920" lon="-8.1562500">
        <ele>95.6</ele>
        <time>2022-08-27T10:10:18Z</time>
      </trkpt>
      <trkpt lat="42.2760100" lon="-8.1562420">
        <ele>96.0</ele>
        <time>2022-08-27T10:10:19Z</time>
      </trkpt>
      <trkpt lat="42.2760660" lon="-8.1562400">
        <ele>97.0</ele>
        <time>2022-08-27T10:10:22Z</time>
      </trkpt>
      <trkpt lat="42.2760820" lon="-8.1562470">
        <ele>97.4</ele>
        <time>2022-08-27T10:10:23Z</time>
      </trkpt>
      <trkpt lat="42.2761340" lon="-8.1562780">
        <ele>98.0</ele>
        <time>2022-08-27T10:10:26Z</time>
      </trkpt>
      <trkpt lat="42.2761550" lon="-8.1562870">
        <ele>98.0</ele>
        <time>2022-08-27T10:10:27Z</time>
      </trkpt>
      <trkpt lat="42.2762000" lon="-8.1562650">
        <ele>98.2</ele>
        <time>2022-08-27T10:10:29Z</time>
      </trkpt>
      <trkpt lat="42.2762650" lon="-8.1562070">
        <ele>99.0</ele>
        <time>2022-08-27T10:10:32Z</time>
      </trkpt>
      <trkpt lat="42.2763110" lon="-8.1562040">
        <ele>99.2</ele>
        <time>2022-08-27T10:10:34Z</time>
      </trkpt>
      <trkpt lat="42.2763800" lon="-8.1562400">
        <ele>99.4</ele>
        <time>2022-08-27T10:10:38Z</time>
      </trkpt>
      <trkpt lat="42.2763990" lon="-8.1562360">
        <ele>99.4</ele>
        <time>2022-08-27T10:10:39Z</time>
      </trkpt>
      <trkpt lat="42.2764910" lon="-8.1562040">
        <ele>99.8</ele>
        <time>2022-08-27T10:10:45Z</time>
      </trkpt>
      <trkpt lat="42.2765030" lon="-8.1562080">
        <ele>100.4</ele>
        <time>2022-08-27T10:10:47Z</time>
      </trkpt>
      <trkpt lat="42.2765020" lon="-8.1562260">
        <ele>100.4</ele>
        <time>2022-08-27T10:10:48Z</time>
      </trkpt>
      <trkpt lat="42.2765020" lon="-8.1562520">
        <ele>100.4</ele>
        <time>2022-08-27T10:10:49Z</time>
      </trkpt>
      <trkpt lat="42.2765080" lon="-8.1564050">
        <ele>101.4</ele>
        <time>2022-08-27T10:10:56Z</time>
      </trkpt>
      <trkpt lat="42.2765140" lon="-8.1564290">
        <ele>101.6</ele>
        <time>2022-08-27T10:10:57Z</time>
      </trkpt>
      <trkpt lat="42.2765680" lon="-8.1565270">
        <ele>102.2</ele>
        <time>2022-08-27T10:11:00Z</time>
      </trkpt>
      <trkpt lat="42.2766390" lon="-8.1565970">
        <ele>102.2</ele>
        <time>2022-08-27T10:11:02Z</time>
      </trkpt>
      <trkpt lat="42.2766680" lon="-8.1566360">
        <ele>102.2</ele>
        <time>2022-08-27T10:11:03Z</time>
      </trkpt>
      <trkpt lat="42.2767330" lon="-8.1566940">
        <ele>102.2</ele>
        <time>2022-08-27T10:11:05Z</time>
      </trkpt>
      <trkpt lat="42.2768440" lon="-8.1569220">
        <ele>101.6</ele>
        <time>2022-08-27T10:11:10Z</time>
      </trkpt>
      <trkpt lat="42.2769490" lon="-8.1571630">
        <ele>100.8</ele>
        <time>2022-08-27T10:11:16Z</time>
      </trkpt>
      <trkpt lat="42.2769870" lon="-8.1572710">
        <ele>100.4</ele>
        <time>2022-08-27T10:11:21Z</time>
      </trkpt>
      <trkpt lat="42.2769870" lon="-8.1572790">
        <ele>100.2</ele>
        <time>2022-08-27T10:11:22Z</time>
      </trkpt>
      <trkpt lat="42.2770720" lon="-8.1576890">
        <ele>99.4</ele>
        <time>2022-08-27T10:15:26Z</time>
      </trkpt>
      <trkpt lat="42.2770390" lon="-8.1577240">
        <ele>99.4</ele>
        <time>2022-08-27T10:15:28Z</time>
      </trkpt>
      <trkpt lat="42.2769250" lon="-8.1578000">
        <ele>99.2</ele>
        <time>2022-08-27T10:15:33Z</time>
      </trkpt>
      <trkpt lat="42.2768010" lon="-8.1579430">
        <ele>99.2</ele>
        <time>2022-08-27T10:15:39Z</time>
      </trkpt>
      <trkpt lat="42.2766370" lon="-8.1581700">
        <ele>99.2</ele>
        <time>2022-08-27T10:15:45Z</time>
      </trkpt>
      <trkpt lat="42.2764630" lon="-8.1583790">
        <ele>99.4</ele>
        <time>2022-08-27T10:15:51Z</time>
      </trkpt>
      <trkpt lat="42.2762790" lon="-8.1585640">
        <ele>99.2</ele>
        <time>2022-08-27T10:15:57Z</time>
      </trkpt>
      <trkpt lat="42.2760830" lon="-8.1588120">
        <ele>99.2</ele>
        <time>2022-08-27T10:16:05Z</time>
      </trkpt>
      <trkpt lat="42.2759920" lon="-8.1589990">
        <ele>99.8</ele>
        <time>2022-08-27T10:16:11Z</time>
      </trkpt>
      <trkpt lat="42.2758890" lon="-8.1592210">
        <ele>100.4</ele>
        <time>2022-08-27T10:16:17Z</time>
      </trkpt>
      <trkpt lat="42.2757590" lon="-8.1595090">
        <ele>100.4</ele>
        <time>2022-08-27T10:16:23Z</time>
      </trkpt>
      <trkpt lat="42.2757380" lon="-8.1596210">
        <ele>100.4</ele>
        <time>2022-08-27T10:16:26Z</time>
      </trkpt>
      <trkpt lat="42.2756270" lon="-8.1597300">
        <ele>98.6</ele>
        <time>2022-08-27T10:16:30Z</time>
      </trkpt>
      <trkpt lat="42.2755910" lon="-8.1597740">
        <ele>98.0</ele>
        <time>2022-08-27T10:16:31Z</time>
      </trkpt>
      <trkpt lat="42.2754780" lon="-8.1599430">
        <ele>96.8</ele>
        <time>2022-08-27T10:16:34Z</time>
      </trkpt>
      <trkpt lat="42.2753400" lon="-8.1601510">
        <ele>95.8</ele>
        <time>2022-08-27T10:16:38Z</time>
      </trkpt>
      <trkpt lat="42.2752710" lon="-8.1602480">
        <ele>95.2</ele>
        <time>2022-08-27T10:16:40Z</time>
      </trkpt>
      <trkpt lat="42.2752070" lon="-8.1603440">
        <ele>94.6</ele>
        <time>2022-08-27T10:16:42Z</time>
      </trkpt>
      <trkpt lat="42.2751800" lon="-8.1603920">
        <ele>94.2</ele>
        <time>2022-08-27T10:16:43Z</time>
      </trkpt>
      <trkpt lat="42.2751440" lon="-8.1604710">
        <ele>93.8</ele>
        <time>2022-08-27T10:16:45Z</time>
      </trkpt>
      <trkpt lat="42.2751200" lon="-8.1605310">
        <ele>93.4</ele>
        <time>2022-08-27T10:16:47Z</time>
      </trkpt>
      <trkpt lat="42.2750790" lon="-8.1606650">
        <ele>92.6</ele>
        <time>2022-08-27T10:16:50Z</time>
      </trkpt>
      <trkpt lat="42.2750680" lon="-8.1607130">
        <ele>91.4</ele>
        <time>2022-08-27T10:16:51Z</time>
      </trkpt>
      <trkpt lat="42.2750530" lon="-8.1607890">
        <ele>90.2</ele>
        <time>2022-08-27T10:16:53Z</time>
      </trkpt>
      <trkpt lat="42.2750440" lon="-8.1608530">
        <ele>89.4</ele>
        <time>2022-08-27T10:16:55Z</time>
      </trkpt>
      <trkpt lat="42.2750380" lon="-8.1608800">
        <ele>89.2</ele>
        <time>2022-08-27T10:16:56Z</time>
      </trkpt>
      <trkpt lat="42.2750010" lon="-8.1610250">
        <ele>89.0</ele>
        <time>2022-08-27T10:17:00Z</time>
      </trkpt>
      <trkpt lat="42.2749770" lon="-8.1610960">
        <ele>88.8</ele>
        <time>2022-08-27T10:17:03Z</time>
      </trkpt>
      <trkpt lat="42.2749610" lon="-8.1611630">
        <ele>88.4</ele>
        <time>2022-08-27T10:17:09Z</time>
      </trkpt>
      <trkpt lat="42.2749440" lon="-8.1611270">
        <ele>88.4</ele>
        <time>2022-08-27T10:17:14Z</time>
      </trkpt>
      <trkpt lat="42.2749450" lon="-8.1611250">
        <ele>88.4</ele>
        <time>2022-08-27T10:17:15Z</time>
      </trkpt>
      <trkpt lat="42.2749110" lon="-8.1612360">
        <ele>88.2</ele>
        <time>2022-08-27T10:17:59Z</time>
      </trkpt>
      <trkpt lat="42.2749010" lon="-8.1612720">
        <ele>88.2</ele>
        <time>2022-08-27T10:18:01Z</time>
      </trkpt>
      <trkpt lat="42.2748950" lon="-8.1614360">
        <ele>88.2</ele>
        <time>2022-08-27T10:18:07Z</time>
      </trkpt>
      <trkpt lat="42.2748760" lon="-8.1616200">
        <ele>88.4</ele>
        <time>2022-08-27T10:18:13Z</time>
      </trkpt>
      <trkpt lat="42.2748540" lon="-8.1618840">
        <ele>88.8</ele>
        <time>2022-08-27T10:18:21Z</time>
      </trkpt>
      <trkpt lat="42.2748790" lon="-8.1620470">
        <ele>89.6</ele>
        <time>2022-08-27T10:18:28Z</time>
      </trkpt>
      <trkpt lat="42.2749070" lon="-8.1621360">
        <ele>90.6</ele>
        <time>2022-08-27T10:18:33Z</time>
      </trkpt>
      <trkpt lat="42.2749110" lon="-8.1621650">
        <ele>90.8</ele>
        <time>2022-08-27T10:18:34Z</time>
      </trkpt>
      <trkpt lat="42.2749180" lon="-8.1622740">
        <ele>91.8</ele>
        <time>2022-08-27T10:18:38Z</time>
      </trkpt>
      <trkpt lat="42.2748930" lon="-8.1623390">
        <ele>92.8</ele>
        <time>2022-08-27T10:18:41Z</time>
      </trkpt>
      <trkpt lat="42.2748780" lon="-8.1623550">
        <ele>93.0</ele>
        <time>2022-08-27T10:18:42Z</time>
      </trkpt>
      <trkpt lat="42.2747840" lon="-8.1623950">
        <ele>93.6</ele>
        <time>2022-08-27T10:18:46Z</time>
      </trkpt>
      <trkpt lat="42.2746960" lon="-8.1624100">
        <ele>94.0</ele>
        <time>2022-08-27T10:18:49Z</time>
      </trkpt>
      <trkpt lat="42.2745080" lon="-8.1624580">
        <ele>94.2</ele>
        <time>2022-08-27T10:18:55Z</time>
      </trkpt>
      <trkpt lat="42.2742790" lon="-8.1625030">
        <ele>94.6</ele>
        <time>2022-08-27T10:19:02Z</time>
      </trkpt>
      <trkpt lat="42.2739630" lon="-8.1625140">
        <ele>95.2</ele>
        <time>2022-08-27T10:19:10Z</time>
      </trkpt>
      <trkpt lat="42.2736210" lon="-8.1625100">
        <ele>95.2</ele>
        <time>2022-08-27T10:19:18Z</time>
      </trkpt>
      <trkpt lat="42.2735290" lon="-8.1625130">
        <ele>95.2</ele>
        <time>2022-08-27T10:19:22Z</time>
      </trkpt>
      <trkpt lat="42.2735180" lon="-8.1625080">
        <ele>95.2</ele>
        <time>2022-08-27T10:19:25Z</time>
      </trkpt>
      <trkpt lat="42.2734990" lon="-8.1624750">
        <ele>95.2</ele>
        <time>2022-08-27T10:19:38Z</time>
      </trkpt>
      <trkpt lat="42.2734960" lon="-8.1624520">
        <ele>95.2</ele>
        <time>2022-08-27T10:19:39Z</time>
      </trkpt>
      <trkpt lat="42.2735210" lon="-8.1622980">
        <ele>95.2</ele>
        <time>2022-08-27T10:19:44Z</time>
      </trkpt>
      <trkpt lat="42.2735230" lon="-8.1622560">
        <ele>95.2</ele>
        <time>2022-08-27T10:19:45Z</time>
      </trkpt>
      <trkpt lat="42.2735250" lon="-8.1619670">
        <ele>95.2</ele>
        <time>2022-08-27T10:19:50Z</time>
      </trkpt>
      <trkpt lat="42.2734970" lon="-8.1615670">
        <ele>93.8</ele>
        <time>2022-08-27T10:19:55Z</time>
      </trkpt>
      <trkpt lat="42.2734910" lon="-8.1615070">
        <ele>93.2</ele>
        <time>2022-08-27T10:19:56Z</time>
      </trkpt>
      <trkpt lat="42.2734830" lon="-8.1614550">
        <ele>92.6</ele>
        <time>2022-08-27T10:19:57Z</time>
      </trkpt>
      <trkpt lat="42.2734710" lon="-8.1614180">
        <ele>92.0</ele>
        <time>2022-08-27T10:19:58Z</time>
      </trkpt>
      <trkpt lat="42.2734500" lon="-8.1613890">
        <ele>91.4</ele>
        <time>2022-08-27T10:19:59Z</time>
      </trkpt>
      <trkpt lat="42.2734220" lon="-8.1613700">
        <ele>91.2</ele>
        <time>2022-08-27T10:20:00Z</time>
      </trkpt>
      <trkpt lat="42.2733900" lon="-8.1613590">
        <ele>90.6</ele>
        <time>2022-08-27T10:20:01Z</time>
      </trkpt>
      <trkpt lat="42.2733580" lon="-8.1613530">
        <ele>90.0</ele>
        <time>2022-08-27T10:20:02Z</time>
      </trkpt>
      <trkpt lat="42.2733260" lon="-8.1613480">
        <ele>88.8</ele>
        <time>2022-08-27T10:20:03Z</time>
      </trkpt>
      <trkpt lat="42.2732560" lon="-8.1613340">
        <ele>88.0</ele>
        <time>2022-08-27T10:20:05Z</time>
      </trkpt>
      <trkpt lat="42.2731830" lon="-8.1613210">
        <ele>87.6</ele>
        <time>2022-08-27T10:20:07Z</time>
      </trkpt>
      <trkpt lat="42.2730480" lon="-8.1612620">
        <ele>87.2</ele>
        <time>2022-08-27T10:20:11Z</time>
      </trkpt>
      <trkpt lat="42.2728530" lon="-8.1611550">
        <ele>87.0</ele>
        <time>2022-08-27T10:20:17Z</time>
      </trkpt>
      <trkpt lat="42.2725690" lon="-8.1610650">
        <ele>87.2</ele>
        <time>2022-08-27T10:20:25Z</time>
      </trkpt>
      <trkpt lat="42.2723940" lon="-8.1610980">
        <ele>87.8</ele>
        <time>2022-08-27T10:20:30Z</time>
      </trkpt>
      <trkpt lat="42.2722560" lon="-8.1611250">
        <ele>88.2</ele>
        <time>2022-08-27T10:20:36Z</time>
      </trkpt>
      <trkpt lat="42.2722380" lon="-8.1611160">
        <ele>88.2</ele>
        <time>2022-08-27T10:20:37Z</time>
      </trkpt>
      <trkpt lat="42.2722460" lon="-8.1610800">
        <ele>88.4</ele>
        <time>2022-08-27T10:20:39Z</time>
      </trkpt>
      <trkpt lat="42.2722640" lon="-8.1610740">
        <ele>88.6</ele>
        <time>2022-08-27T10:20:40Z</time>
      </trkpt>
      <trkpt lat="42.2723220" lon="-8.1610860">
        <ele>88.8</ele>
        <time>2022-08-27T10:20:43Z</time>
      </trkpt>
      <trkpt lat="42.2724290" lon="-8.1610630">
        <ele>88.8</ele>
        <time>2022-08-27T10:20:47Z</time>
      </trkpt>
      <trkpt lat="42.2724460" lon="-8.1610400">
        <ele>88.8</ele>
        <time>2022-08-27T10:20:48Z</time>
      </trkpt>
      <trkpt lat="42.2724080" lon="-8.1609660">
        <ele>88.8</ele>
        <time>2022-08-27T10:20:51Z</time>
      </trkpt>
      <trkpt lat="42.2722670" lon="-8.1609330">
        <ele>88.6</ele>
        <time>2022-08-27T10:20:56Z</time>
      </trkpt>
      <trkpt lat="42.2720840" lon="-8.1609020">
        <ele>88.0</ele>
        <time>2022-08-27T10:21:02Z</time>
      </trkpt>
      <trkpt lat="42.2719340" lon="-8.1608440">
        <ele>87.8</ele>
        <time>2022-08-27T10:21:09Z</time>
      </trkpt>
      <trkpt lat="42.2718400" lon="-8.1608460">
        <ele>87.8</ele>
        <time>2022-08-27T10:21:16Z</time>
      </trkpt>
      <trkpt lat="42.2717510" lon="-8.1608520">
        <ele>88.2</ele>
        <time>2022-08-27T10:21:23Z</time>
      </trkpt>
      <trkpt lat="42.2717100" lon="-8.1608490">
        <ele>88.4</ele>
        <time>2022-08-27T10:21:28Z</time>
      </trkpt>
      <trkpt lat="42.2713470" lon="-8.1614360">
        <ele>97.6</ele>
        <time>2022-08-27T10:23:21Z</time>
      </trkpt>
      <trkpt lat="42.2712560" lon="-8.1614350">
        <ele>97.8</ele>
        <time>2022-08-27T10:23:25Z</time>
      </trkpt>
      <trkpt lat="42.2712330" lon="-8.1614160">
        <ele>97.8</ele>
        <time>2022-08-27T10:23:26Z</time>
      </trkpt>
      <trkpt lat="42.2711090" lon="-8.1612890">
        <ele>97.8</ele>
        <time>2022-08-27T10:23:31Z</time>
      </trkpt>
      <trkpt lat="42.2709830" lon="-8.1611550">
        <ele>98.0</ele>
        <time>2022-08-27T10:23:36Z</time>
      </trkpt>
      <trkpt lat="42.2708550" lon="-8.1610290">
        <ele>99.0</ele>
        <time>2022-08-27T10:23:41Z</time>
      </trkpt>
      <trkpt lat="42.2707540" lon="-8.1609360">
        <ele>99.4</ele>
        <time>2022-08-27T10:23:45Z</time>
      </trkpt>
      <trkpt lat="42.2707000" lon="-8.1608920">
        <ele>99.8</ele>
        <time>2022-08-27T10:23:47Z</time>
      </trkpt>
      <trkpt lat="42.2705190" lon="-8.1607750">
        <ele>101.0</ele>
        <time>2022-08-27T10:23:54Z</time>
      </trkpt>
      <trkpt lat="42.2703630" lon="-8.1606740">
        <ele>102.0</ele>
        <time>2022-08-27T10:24:00Z</time>
      </trkpt>
      <trkpt lat="42.2703100" lon="-8.1606440">
        <ele>102.2</ele>
        <time>2022-08-27T10:24:02Z</time>
      </trkpt>
      <trkpt lat="42.2701720" lon="-8.1605740">
        <ele>103.0</ele>
        <time>2022-08-27T10:24:07Z</time>
      </trkpt>
      <trkpt lat="42.2700890" lon="-8.1605380">
        <ele>103.8</ele>
        <time>2022-08-27T10:24:10Z</time>
      </trkpt>
      <trkpt lat="42.2700600" lon="-8.1605290">
        <ele>104.0</ele>
        <time>2022-08-27T10:24:11Z</time>
      </trkpt>
      <trkpt lat="42.2698820" lon="-8.1604750">
        <ele>105.2</ele>
        <time>2022-08-27T10:24:17Z</time>
      </trkpt>
      <trkpt lat="42.2698520" lon="-8.1604680">
        <ele>105.4</ele>
        <time>2022-08-27T10:24:18Z</time>
      </trkpt>
      <trkpt lat="42.2697010" lon="-8.1604360">
        <ele>106.4</ele>
        <time>2022-08-27T10:24:23Z</time>
      </trkpt>
      <trkpt lat="42.2696700" lon="-8.1604310">
        <ele>106.4</ele>
        <time>2022-08-27T10:24:24Z</time>
      </trkpt>
      <trkpt lat="42.2694800" lon="-8.1604100">
        <ele>107.4</ele>
        <time>2022-08-27T10:24:30Z</time>
      </trkpt>
      <trkpt lat="42.2694490" lon="-8.1604100">
        <ele>107.6</ele>
        <time>2022-08-27T10:24:31Z</time>
      </trkpt>
      <trkpt lat="42.2692870" lon="-8.1604010">
        <ele>108.6</ele>
        <time>2022-08-27T10:24:36Z</time>
      </trkpt>
      <trkpt lat="42.2691850" lon="-8.1603950">
        <ele>109.0</ele>
        <time>2022-08-27T10:24:39Z</time>
      </trkpt>
      <trkpt lat="42.2689220" lon="-8.1603810">
        <ele>109.6</ele>
        <time>2022-08-27T10:24:46Z</time>
      </trkpt>
      <trkpt lat="42.2685910" lon="-8.1604030">
        <ele>110.4</ele>
        <time>2022-08-27T10:24:54Z</time>
      </trkpt>
      <trkpt lat="42.2682090" lon="-8.1604790">
        <ele>110.6</ele>
        <time>2022-08-27T10:25:02Z</time>
      </trkpt>
      <trkpt lat="42.2679250" lon="-8.1606470">
        <ele>110.8</ele>
        <time>2022-08-27T10:25:08Z</time>
      </trkpt>
      <trkpt lat="42.2676690" lon="-8.1608940">
        <ele>110.6</ele>
        <time>2022-08-27T10:25:14Z</time>
      </trkpt>
      <trkpt lat="42.2674480" lon="-8.1611450">
        <ele>110.4</ele>
        <time>2022-08-27T10:25:20Z</time>
      </trkpt>
      <trkpt lat="42.2674060" lon="-8.1611720">
        <ele>110.4</ele>
        <time>2022-08-27T10:25:21Z</time>
      </trkpt>
      <trkpt lat="42.2672700" lon="-8.1612130">
        <ele>110.2</ele>
        <time>2022-08-27T10:25:24Z</time>
      </trkpt>
      <trkpt lat="42.2671750" lon="-8.1612150">
        <ele>110.2</ele>
        <time>2022-08-27T10:25:26Z</time>
      </trkpt>
      <trkpt lat="42.2670070" lon="-8.1613070">
        <ele>110.2</ele>
        <time>2022-08-27T10:25:30Z</time>
      </trkpt>
      <trkpt lat="42.2669160" lon="-8.1614540">
        <ele>110.0</ele>
        <time>2022-08-27T10:25:33Z</time>
      </trkpt>
      <trkpt lat="42.2668650" lon="-8.1615460">
        <ele>110.0</ele>
        <time>2022-08-27T10:25:35Z</time>
      </trkpt>
      <trkpt lat="42.2667750" lon="-8.1617360">
        <ele>109.6</ele>
        <time>2022-08-27T10:25:41Z</time>
      </trkpt>
      <trkpt lat="42.2667010" lon="-8.1618090">
        <ele>108.8</ele>
        <time>2022-08-27T10:25:46Z</time>
      </trkpt>
      <trkpt lat="42.2665130" lon="-8.1619100">
        <ele>108.4</ele>
        <time>2022-08-27T10:25:53Z</time>
      </trkpt>
      <trkpt lat="42.2662910" lon="-8.1620110">
        <ele>108.0</ele>
        <time>2022-08-27T10:26:00Z</time>
      </trkpt>
      <trkpt lat="42.2662170" lon="-8.1620480">
        <ele>107.8</ele>
        <time>2022-08-27T10:26:03Z</time>
      </trkpt>
      <trkpt lat="42.2661870" lon="-8.1620750">
        <ele>107.6</ele>
        <time>2022-08-27T10:26:05Z</time>
      </trkpt>
      <trkpt lat="42.2661650" lon="-8.1621040">
        <ele>107.2</ele>
        <time>2022-08-27T10:26:09Z</time>
      </trkpt>
      <trkpt lat="42.2662180" lon="-8.1620310">
        <ele>106.8</ele>
        <time>2022-08-27T10:26:27Z</time>
      </trkpt>
      <trkpt lat="42.2663350" lon="-8.1619710">
        <ele>106.8</ele>
        <time>2022-08-27T10:26:32Z</time>
      </trkpt>
      <trkpt lat="42.2665210" lon="-8.1618810">
        <ele>107.0</ele>
        <time>2022-08-27T10:26:39Z</time>
      </trkpt>
      <trkpt lat="42.2666730" lon="-8.1618190">
        <ele>107.6</ele>
        <time>2022-08-27T10:26:44Z</time>
      </trkpt>
      <trkpt lat="42.2668010" lon="-8.1616650">
        <ele>107.8</ele>
        <time>2022-08-27T10:26:49Z</time>
      </trkpt>
      <trkpt lat="42.2668230" lon="-8.1616280">
        <ele>107.8</ele>
        <time>2022-08-27T10:26:50Z</time>
      </trkpt>
      <trkpt lat="42.2669900" lon="-8.1612930">
        <ele>108.2</ele>
        <time>2022-08-27T10:26:59Z</time>
      </trkpt>
      <trkpt lat="42.2671070" lon="-8.1611970">
        <ele>108.8</ele>
        <time>2022-08-27T10:27:03Z</time>
      </trkpt>
      <trkpt lat="42.2671430" lon="-8.1611860">
        <ele>109.2</ele>
        <time>2022-08-27T10:27:04Z</time>
      </trkpt>
      <trkpt lat="42.2673110" lon="-8.1611770">
        <ele>109.8</ele>
        <time>2022-08-27T10:27:09Z</time>
      </trkpt>
      <trkpt lat="42.2673660" lon="-8.1611330">
        <ele>110.0</ele>
        <time>2022-08-27T10:27:11Z</time>
      </trkpt>
      <trkpt lat="42.2674660" lon="-8.1610150">
        <ele>110.2</ele>
        <time>2022-08-27T10:27:15Z</time>
      </trkpt>
      <trkpt lat="42.2675730" lon="-8.1608740">
        <ele>110.6</ele>
        <time>2022-08-27T10:27:21Z</time>
      </trkpt>
      <trkpt lat="42.2675790" lon="-8.1608660">
        <ele>110.6</ele>
        <time>2022-08-27T10:27:23Z</time>
      </trkpt>
      <trkpt lat="42.2675540" lon="-8.1608140">
        <ele>110.8</ele>
        <time>2022-08-27T10:28:56Z</time>
      </trkpt>
      <trkpt lat="42.2675370" lon="-8.1607890">
        <ele>110.8</ele>
        <time>2022-08-27T10:28:57Z</time>
      </trkpt>
      <trkpt lat="42.2675000" lon="-8.1607130">
        <ele>110.8</ele>
        <time>2022-08-27T10:29:02Z</time>
      </trkpt>
      <trkpt lat="42.2672420" lon="-8.1608050">
        <ele>104.2</ele>
        <time>2022-08-27T10:29:39Z</time>
      </trkpt>
      <trkpt lat="42.2672290" lon="-8.1608120">
        <ele>104.2</ele>
        <time>2022-08-27T10:29:40Z</time>
      </trkpt>
      <trkpt lat="42.2672040" lon="-8.1608280">
        <ele>104.0</ele>
        <time>2022-08-27T10:29:42Z</time>
      </trkpt>
      <trkpt lat="42.2671680" lon="-8.1608460">
        <ele>104.0</ele>
        <time>2022-08-27T10:29:45Z</time>
      </trkpt>
      <trkpt lat="42.2671130" lon="-8.1608850">
        <ele>104.0</ele>
        <time>2022-08-27T10:29:50Z</time>
      </trkpt>
      <trkpt lat="42.2670600" lon="-8.1608880">
        <ele>104.4</ele>
        <time>2022-08-27T10:29:57Z</time>
      </trkpt>
      <trkpt lat="42.2670500" lon="-8.1608800">
        <ele>104.4</ele>
        <time>2022-08-27T10:29:58Z</time>
      </trkpt>
      <trkpt lat="42.2670160" lon="-8.1608780">
        <ele>104.6</ele>
        <time>2022-08-27T10:30:04Z</time>
      </trkpt>
      <trkpt lat="42.2669470" lon="-8.1609150">
        <ele>104.4</ele>
        <time>2022-08-27T10:30:19Z</time>
      </trkpt>
      <trkpt lat="42.2668890" lon="-8.1609360">
        <ele>104.4</ele>
        <time>2022-08-27T10:30:21Z</time>
      </trkpt>
      <trkpt lat="42.2666920" lon="-8.1610290">
        <ele>104.2</ele>
        <time>2022-08-27T10:30:26Z</time>
      </trkpt>
      <trkpt lat="42.2666120" lon="-8.1611300">
        <ele>104.2</ele>
        <time>2022-08-27T10:30:29Z</time>
      </trkpt>
      <trkpt lat="42.2665850" lon="-8.1612540">
        <ele>102.8</ele>
        <time>2022-08-27T10:30:33Z</time>
      </trkpt>
      <trkpt lat="42.2665680" lon="-8.1613360">
        <ele>101.8</ele>
        <time>2022-08-27T10:30:36Z</time>
      </trkpt>
      <trkpt lat="42.2665270" lon="-8.1614010">
        <ele>101.6</ele>
        <time>2022-08-27T10:30:39Z</time>
      </trkpt>
      <trkpt lat="42.2663880" lon="-8.1615150">
        <ele>101.6</ele>
        <time>2022-08-27T10:30:45Z</time>
      </trkpt>
      <trkpt lat="42.2661670" lon="-8.1616090">
        <ele>101.6</ele>
        <time>2022-08-27T10:30:51Z</time>
      </trkpt>
      <trkpt lat="42.2659960" lon="-8.1617310">
        <ele>101.2</ele>
        <time>2022-08-27T10:30:56Z</time>
      </trkpt>
      <trkpt lat="42.2658970" lon="-8.1618220">
        <ele>100.8</ele>
        <time>2022-08-27T10:30:59Z</time>
      </trkpt>
      <trkpt lat="42.2657700" lon="-8.1619540">
        <ele>99.8</ele>
        <time>2022-08-27T10:31:03Z</time>
      </trkpt>
      <trkpt lat="42.2656640" lon="-8.1620260">
        <ele>99.4</ele>
        <time>2022-08-27T10:31:06Z</time>
      </trkpt>
      <trkpt lat="42.2655820" lon="-8.1620630">
        <ele>99.4</ele>
        <time>2022-08-27T10:31:08Z</time>
      </trkpt>
      <trkpt lat="42.2654200" lon="-8.1621980">
        <ele>99.4</ele>
        <time>2022-08-27T10:31:13Z</time>
      </trkpt>
      <trkpt lat="42.2652910" lon="-8.1624080">
        <ele>99.4</ele>
        <time>2022-08-27T10:31:19Z</time>
      </trkpt>
      <trkpt lat="42.2651570" lon="-8.1625910">
        <ele>99.4</ele>
        <time>2022-08-27T10:31:25Z</time>
      </trkpt>
      <trkpt lat="42.2650580" lon="-8.1625260">
        <ele>99.4</ele>
        <time>2022-08-27T10:31:29Z</time>
      </trkpt>
      <trkpt lat="42.2648640" lon="-8.1624270">
        <ele>99.0</ele>
        <time>2022-08-27T10:31:35Z</time>
      </trkpt>
      <trkpt lat="42.2647070" lon="-8.1624100">
        <ele>98.6</ele>
        <time>2022-08-27T10:31:39Z</time>
      </trkpt>
      <trkpt lat="42.2645740" lon="-8.1624150">
        <ele>98.4</ele>
        <time>2022-08-27T10:31:42Z</time>
      </trkpt>
      <trkpt lat="42.2643480" lon="-8.1624160">
        <ele>97.8</ele>
        <time>2022-08-27T10:31:47Z</time>
      </trkpt>
      <trkpt lat="42.2642610" lon="-8.1624170">
        <ele>97.6</ele>
        <time>2022-08-27T10:31:49Z</time>
      </trkpt>
      <trkpt lat="42.2642200" lon="-8.1624060">
        <ele>97.8</ele>
        <time>2022-08-27T10:31:50Z</time>
      </trkpt>
      <trkpt lat="42.2639410" lon="-8.1623530">
        <ele>97.2</ele>
        <time>2022-08-27T10:31:57Z</time>
      </trkpt>
      <trkpt lat="42.2638570" lon="-8.1623530">
        <ele>97.0</ele>
        <time>2022-08-27T10:31:59Z</time>
      </trkpt>
      <trkpt lat="42.2637810" lon="-8.1624070">
        <ele>97.0</ele>
        <time>2022-08-27T10:32:01Z</time>
      </trkpt>
      <trkpt lat="42.2637390" lon="-8.1624820">
        <ele>96.8</ele>
        <time>2022-08-27T10:32:03Z</time>
      </trkpt>
      <trkpt lat="42.2637300" lon="-8.1625250">
        <ele>96.6</ele>
        <time>2022-08-27T10:32:04Z</time>
      </trkpt>
      <trkpt lat="42.2637460" lon="-8.1626780">
        <ele>96.0</ele>
        <time>2022-08-27T10:32:08Z</time>
      </trkpt>
      <trkpt lat="42.2637560" lon="-8.1626960">
        <ele>95.4</ele>
        <time>2022-08-27T10:32:09Z</time>
      </trkpt>
      <trkpt lat="42.2637740" lon="-8.1627130">
        <ele>95.0</ele>
        <time>2022-08-27T10:32:11Z</time>
      </trkpt>
      <trkpt lat="42.2637890" lon="-8.1627310">
        <ele>95.0</ele>
        <time>2022-08-27T10:32:13Z</time>
      </trkpt>
      <trkpt lat="42.2637990" lon="-8.1627590">
        <ele>95.0</ele>
        <time>2022-08-27T10:32:17Z</time>
      </trkpt>
      <trkpt lat="42.2637460" lon="-8.1627350">
        <ele>96.2</ele>
        <time>2022-08-27T10:32:27Z</time>
      </trkpt>
      <trkpt lat="42.2636730" lon="-8.1626350">
        <ele>96.2</ele>
        <time>2022-08-27T10:32:33Z</time>
      </trkpt>
      <trkpt lat="42.2636460" lon="-8.1626730">
        <ele>95.4</ele>
        <time>2022-08-27T10:32:36Z</time>
      </trkpt>
      <trkpt lat="42.2636190" lon="-8.1627180">
        <ele>94.4</ele>
        <time>2022-08-27T10:32:39Z</time>
      </trkpt>
      <trkpt lat="42.2635730" lon="-8.1628030">
        <ele>93.2</ele>
        <time>2022-08-27T10:32:45Z</time>
      </trkpt>
      <trkpt lat="42.2635330" lon="-8.1628420">
        <ele>93.2</ele>
        <time>2022-08-27T10:32:51Z</time>
      </trkpt>
      <trkpt lat="42.2635290" lon="-8.1628460">
        <ele>93.2</ele>
        <time>2022-08-27T10:32:52Z</time>
      </trkpt>
      <trkpt lat="42.2631900" lon="-8.1626060">
        <ele>96.2</ele>
        <time>2022-08-27T10:33:35Z</time>
      </trkpt>
      <trkpt lat="42.2631220" lon="-8.1625790">
        <ele>96.8</ele>
        <time>2022-08-27T10:33:39Z</time>
      </trkpt>
      <trkpt lat="42.2630410" lon="-8.1625520">
        <ele>97.4</ele>
        <time>2022-08-27T10:33:44Z</time>
      </trkpt>
      <trkpt lat="42.2630070" lon="-8.1625460">
        <ele>97.8</ele>
        <time>2022-08-27T10:33:46Z</time>
      </trkpt>
      <trkpt lat="42.2629420" lon="-8.1625290">
        <ele>98.4</ele>
        <time>2022-08-27T10:33:50Z</time>
      </trkpt>
      <trkpt lat="42.2628890" lon="-8.1625330">
        <ele>98.8</ele>
        <time>2022-08-27T10:33:53Z</time>
      </trkpt>
      <trkpt lat="42.2627920" lon="-8.1625790">
        <ele>99.6</ele>
        <time>2022-08-27T10:33:59Z</time>
      </trkpt>
      <trkpt lat="42.2627580" lon="-8.1625940">
        <ele>99.8</ele>
        <time>2022-08-27T10:34:01Z</time>
      </trkpt>
      <trkpt lat="42.2626740" lon="-8.1626350">
        <ele>100.8</ele>
        <time>2022-08-27T10:34:08Z</time>
      </trkpt>
      <trkpt lat="42.2626670" lon="-8.1626410">
        <ele>100.8</ele>
        <time>2022-08-27T10:34:09Z</time>
      </trkpt>
      <trkpt lat="42.2626040" lon="-8.1626950">
        <ele>102.0</ele>
        <time>2022-08-27T10:34:16Z</time>
      </trkpt>
      <trkpt lat="42.2625480" lon="-8.1627280">
        <ele>103.0</ele>
        <time>2022-08-27T10:34:22Z</time>
      </trkpt>
      <trkpt lat="42.2625370" lon="-8.1627360">
        <ele>103.2</ele>
        <time>2022-08-27T10:34:23Z</time>
      </trkpt>
      <trkpt lat="42.2624980" lon="-8.1627610">
        <ele>104.0</ele>
        <time>2022-08-27T10:34:27Z</time>
      </trkpt>
      <trkpt lat="42.2624640" lon="-8.1627840">
        <ele>104.6</ele>
        <time>2022-08-27T10:34:30Z</time>
      </trkpt>
      <trkpt lat="42.2624350" lon="-8.1628000">
        <ele>105.0</ele>
        <time>2022-08-27T10:34:33Z</time>
      </trkpt>
      <trkpt lat="42.2624020" lon="-8.1628280">
        <ele>105.6</ele>
        <time>2022-08-27T10:34:37Z</time>
      </trkpt>
      <trkpt lat="42.2623760" lon="-8.1628530">
        <ele>106.2</ele>
        <time>2022-08-27T10:34:40Z</time>
      </trkpt>
      <trkpt lat="42.2623450" lon="-8.1628960">
        <ele>107.0</ele>
        <time>2022-08-27T10:34:45Z</time>
      </trkpt>
      <trkpt lat="42.2623320" lon="-8.1628960">
        <ele>107.2</ele>
        <time>2022-08-27T10:34:46Z</time>
      </trkpt>
      <trkpt lat="42.2622720" lon="-8.1629480">
        <ele>108.4</ele>
        <time>2022-08-27T10:34:51Z</time>
      </trkpt>
      <trkpt lat="42.2622250" lon="-8.1629910">
        <ele>108.8</ele>
        <time>2022-08-27T10:34:55Z</time>
      </trkpt>
      <trkpt lat="42.2621890" lon="-8.1630250">
        <ele>109.4</ele>
        <time>2022-08-27T10:34:58Z</time>
      </trkpt>
      <trkpt lat="42.2621200" lon="-8.1630770">
        <ele>110.2</ele>
        <time>2022-08-27T10:35:02Z</time>
      </trkpt>
      <trkpt lat="42.2620530" lon="-8.1630790">
        <ele>110.6</ele>
        <time>2022-08-27T10:35:04Z</time>
      </trkpt>
      <trkpt lat="42.2618760" lon="-8.1630460">
        <ele>110.8</ele>
        <time>2022-08-27T10:35:09Z</time>
      </trkpt>
      <trkpt lat="42.2618630" lon="-8.1630440">
        <ele>110.8</ele>
        <time>2022-08-27T10:35:12Z</time>
      </trkpt>
      <trkpt lat="42.2617900" lon="-8.1630100">
        <ele>109.8</ele>
        <time>2022-08-27T10:35:19Z</time>
      </trkpt>
      <trkpt lat="42.2617340" lon="-8.1629700">
        <ele>109.6</ele>
        <time>2022-08-27T10:35:21Z</time>
      </trkpt>
      <trkpt lat="42.2616500" lon="-8.1629160">
        <ele>109.6</ele>
        <time>2022-08-27T10:35:23Z</time>
      </trkpt>
      <trkpt lat="42.2615980" lon="-8.1628930">
        <ele>109.6</ele>
        <time>2022-08-27T10:35:24Z</time>
      </trkpt>
      <trkpt lat="42.2614210" lon="-8.1628660">
        <ele>109.4</ele>
        <time>2022-08-27T10:35:27Z</time>
      </trkpt>
      <trkpt lat="42.2612690" lon="-8.1629020">
        <ele>108.2</ele>
        <time>2022-08-27T10:35:30Z</time>
      </trkpt>
      <trkpt lat="42.2612360" lon="-8.1629190">
        <ele>107.4</ele>
        <time>2022-08-27T10:35:31Z</time>
      </trkpt>
      <trkpt lat="42.2612110" lon="-8.1629350">
        <ele>106.4</ele>
        <time>2022-08-27T10:35:32Z</time>
      </trkpt>
      <trkpt lat="42.2611700" lon="-8.1629720">
        <ele>105.4</ele>
        <time>2022-08-27T10:35:34Z</time>
      </trkpt>
      <trkpt lat="42.2611190" lon="-8.1629980">
        <ele>105.0</ele>
        <time>2022-08-27T10:35:36Z</time>
      </trkpt>
      <trkpt lat="42.2609740" lon="-8.1630680">
        <ele>104.8</ele>
        <time>2022-08-27T10:35:42Z</time>
      </trkpt>
      <trkpt lat="42.2609280" lon="-8.1630700">
        <ele>104.8</ele>
        <time>2022-08-27T10:35:43Z</time>
      </trkpt>
      <trkpt lat="42.2608220" lon="-8.1630430">
        <ele>104.8</ele>
        <time>2022-08-27T10:35:45Z</time>
      </trkpt>
      <trkpt lat="42.2607240" lon="-8.1629870">
        <ele>104.8</ele>
        <time>2022-08-27T10:35:47Z</time>
      </trkpt>
      <trkpt lat="42.2606650" lon="-8.1629600">
        <ele>104.8</ele>
        <time>2022-08-27T10:35:49Z</time>
      </trkpt>
      <trkpt lat="42.2605970" lon="-8.1629880">
        <ele>104.4</ele>
        <time>2022-08-27T10:35:52Z</time>
      </trkpt>
      <trkpt lat="42.2605710" lon="-8.1630040">
        <ele>104.0</ele>
        <time>2022-08-27T10:35:53Z</time>
      </trkpt>
      <trkpt lat="42.2604590" lon="-8.1630820">
        <ele>102.8</ele>
        <time>2022-08-27T10:35:56Z</time>
      </trkpt>
      <trkpt lat="42.2603750" lon="-8.1631390">
        <ele>102.2</ele>
        <time>2022-08-27T10:35:58Z</time>
      </trkpt>
      <trkpt lat="42.2602530" lon="-8.1632350">
        <ele>101.8</ele>
        <time>2022-08-27T10:36:01Z</time>
      </trkpt>
      <trkpt lat="42.2602040" lon="-8.1632910">
        <ele>101.4</ele>
        <time>2022-08-27T10:36:03Z</time>
      </trkpt>
      <trkpt lat="42.2601640" lon="-8.1633450">
        <ele>100.6</ele>
        <time>2022-08-27T10:36:06Z</time>
      </trkpt>
      <trkpt lat="42.2601030" lon="-8.1634080">
        <ele>100.2</ele>
        <time>2022-08-27T10:36:10Z</time>
      </trkpt>
      <trkpt lat="42.2599570" lon="-8.1634380">
        <ele>100.2</ele>
        <time>2022-08-27T10:36:16Z</time>
      </trkpt>
      <trkpt lat="42.2598080" lon="-8.1633510">
        <ele>100.0</ele>
        <time>2022-08-27T10:36:21Z</time>
      </trkpt>
      <trkpt lat="42.2596460" lon="-8.1632780">
        <ele>100.0</ele>
        <time>2022-08-27T10:36:26Z</time>
      </trkpt>
      <trkpt lat="42.2594530" lon="-8.1632540">
        <ele>99.6</ele>
        <time>2022-08-27T10:36:33Z</time>
      </trkpt>
      <trkpt lat="42.2594290" lon="-8.1632440">
        <ele>99.6</ele>
        <time>2022-08-27T10:36:34Z</time>
      </trkpt>
      <trkpt lat="42.2593240" lon="-8.1632090">
        <ele>99.6</ele>
        <time>2022-08-27T10:36:39Z</time>
      </trkpt>
      <trkpt lat="42.2592480" lon="-8.1631940">
        <ele>100.0</ele>
        <time>2022-08-27T10:36:45Z</time>
      </trkpt>
      <trkpt lat="42.2591970" lon="-8.1631870">
        <ele>100.6</ele>
        <time>2022-08-27T10:36:51Z</time>
      </trkpt>
      <trkpt lat="42.2591870" lon="-8.1631800">
        <ele>100.6</ele>
        <time>2022-08-27T10:36:54Z</time>
      </trkpt>
      <trkpt lat="42.2586780" lon="-8.1630390">
        <ele>104.0</ele>
        <time>2022-08-27T10:38:34Z</time>
      </trkpt>
      <trkpt lat="42.2586300" lon="-8.1630010">
        <ele>104.2</ele>
        <time>2022-08-27T10:38:38Z</time>
      </trkpt>
      <trkpt lat="42.2585350" lon="-8.1629520">
        <ele>105.0</ele>
        <time>2022-08-27T10:38:46Z</time>
      </trkpt>
      <trkpt lat="42.2585140" lon="-8.1629350">
        <ele>105.4</ele>
        <time>2022-08-27T10:38:48Z</time>
      </trkpt>
      <trkpt lat="42.2584700" lon="-8.1628970">
        <ele>106.2</ele>
        <time>2022-08-27T10:38:52Z</time>
      </trkpt>
      <trkpt lat="42.2583820" lon="-8.1628090">
        <ele>106.6</ele>
        <time>2022-08-27T10:38:58Z</time>
      </trkpt>
      <trkpt lat="42.2583010" lon="-8.1626970">
        <ele>106.4</ele>
        <time>2022-08-27T10:39:04Z</time>
      </trkpt>
      <trkpt lat="42.2582740" lon="-8.1626640">
        <ele>105.0</ele>
        <time>2022-08-27T10:39:08Z</time>
      </trkpt>
      <trkpt lat="42.2581910" lon="-8.1626020">
        <ele>103.8</ele>
        <time>2022-08-27T10:39:12Z</time>
      </trkpt>
      <trkpt lat="42.2581730" lon="-8.1625820">
        <ele>103.6</ele>
        <time>2022-08-27T10:39:13Z</time>
      </trkpt>
      <trkpt lat="42.2580630" lon="-8.1623760">
        <ele>102.8</ele>
        <time>2022-08-27T10:39:20Z</time>
      </trkpt>
      <trkpt lat="42.2580490" lon="-8.1623520">
        <ele>102.6</ele>
        <time>2022-08-27T10:39:21Z</time>
      </trkpt>
      <trkpt lat="42.2579630" lon="-8.1622730">
        <ele>101.8</ele>
        <time>2022-08-27T10:39:25Z</time>
      </trkpt>
      <trkpt lat="42.2578960" lon="-8.1622420">
        <ele>101.4</ele>
        <time>2022-08-27T10:39:28Z</time>
      </trkpt>
      <trkpt lat="42.2578430" lon="-8.1622280">
        <ele>101.0</ele>
        <time>2022-08-27T10:39:31Z</time>
      </trkpt>
      <trkpt lat="42.2577110" lon="-8.1621760">
        <ele>100.8</ele>
        <time>2022-08-27T10:39:38Z</time>
      </trkpt>
      <trkpt lat="42.2576100" lon="-8.1620870">
        <ele>100.6</ele>
        <time>2022-08-27T10:39:43Z</time>
      </trkpt>
      <trkpt lat="42.2575090" lon="-8.1620130">
        <ele>100.4</ele>
        <time>2022-08-27T10:39:48Z</time>
      </trkpt>
      <trkpt lat="42.2574150" lon="-8.1619020">
        <ele>100.4</ele>
        <time>2022-08-27T10:39:54Z</time>
      </trkpt>
      <trkpt lat="42.2574030" lon="-8.1618810">
        <ele>100.2</ele>
        <time>2022-08-27T10:39:55Z</time>
      </trkpt>
      <trkpt lat="42.2573370" lon="-8.1617860">
        <ele>99.6</ele>
        <time>2022-08-27T10:39:58Z</time>
      </trkpt>
      <trkpt lat="42.2573150" lon="-8.1617500">
        <ele>99.4</ele>
        <time>2022-08-27T10:39:59Z</time>
      </trkpt>
      <trkpt lat="42.2572160" lon="-8.1615940">
        <ele>98.8</ele>
        <time>2022-08-27T10:40:04Z</time>
      </trkpt>
      <trkpt lat="42.2571940" lon="-8.1615640">
        <ele>98.2</ele>
        <time>2022-08-27T10:40:05Z</time>
      </trkpt>
      <trkpt lat="42.2571190" lon="-8.1614790">
        <ele>97.0</ele>
        <time>2022-08-27T10:40:09Z</time>
      </trkpt>
      <trkpt lat="42.2571090" lon="-8.1614610">
        <ele>96.8</ele>
        <time>2022-08-27T10:40:10Z</time>
      </trkpt>
      <trkpt lat="42.2570790" lon="-8.1614110">
        <ele>95.8</ele>
        <time>2022-08-27T10:40:13Z</time>
      </trkpt>
      <trkpt lat="42.2570250" lon="-8.1613240">
        <ele>95.2</ele>
        <time>2022-08-27T10:40:17Z</time>
      </trkpt>
      <trkpt lat="42.2569590" lon="-8.1612280">
        <ele>94.8</ele>
        <time>2022-08-27T10:40:23Z</time>
      </trkpt>
      <trkpt lat="42.2569340" lon="-8.1612010">
        <ele>94.8</ele>
        <time>2022-08-27T10:40:25Z</time>
      </trkpt>
      <trkpt lat="42.2568620" lon="-8.1611320">
        <ele>94.6</ele>
        <time>2022-08-27T10:40:30Z</time>
      </trkpt>
      <trkpt lat="42.2567980" lon="-8.1610510">
        <ele>94.4</ele>
        <time>2022-08-27T10:40:35Z</time>
      </trkpt>
      <trkpt lat="42.2566970" lon="-8.1609040">
        <ele>94.2</ele>
        <time>2022-08-27T10:40:43Z</time>
      </trkpt>
      <trkpt lat="42.2566100" lon="-8.1607840">
        <ele>94.2</ele>
        <time>2022-08-27T10:40:51Z</time>
      </trkpt>
      <trkpt lat="42.2565780" lon="-8.1607090">
        <ele>94.2</ele>
        <time>2022-08-27T10:40:57Z</time>
      </trkpt>
      <trkpt lat="42.2564480" lon="-8.1605340">
        <ele>94.4</ele>
        <time>2022-08-27T10:41:17Z</time>
      </trkpt>
      <trkpt lat="42.2563960" lon="-8.1604760">
        <ele>94.4</ele>
        <time>2022-08-27T10:41:20Z</time>
      </trkpt>
      <trkpt lat="42.2562630" lon="-8.1603420">
        <ele>95.0</ele>
        <time>2022-08-27T10:41:27Z</time>
      </trkpt>
      <trkpt lat="42.2561640" lon="-8.1602420">
        <ele>95.8</ele>
        <time>2022-08-27T10:41:32Z</time>
      </trkpt>
      <trkpt lat="42.2561190" lon="-8.1602110">
        <ele>96.0</ele>
        <time>2022-08-27T10:41:34Z</time>
      </trkpt>
      <trkpt lat="42.2560280" lon="-8.1600880">
        <ele>96.0</ele>
        <time>2022-08-27T10:41:39Z</time>
      </trkpt>
      <trkpt lat="42.2558600" lon="-8.1599230">
        <ele>96.0</ele>
        <time>2022-08-27T10:41:46Z</time>
      </trkpt>
      <trkpt lat="42.2557260" lon="-8.1597860">
        <ele>96.2</ele>
        <time>2022-08-27T10:41:53Z</time>
      </trkpt>
      <trkpt lat="42.2555800" lon="-8.1596480">
        <ele>96.4</ele>
        <time>2022-08-27T10:42:00Z</time>
      </trkpt>
      <trkpt lat="42.2554560" lon="-8.1595110">
        <ele>96.6</ele>
        <time>2022-08-27T10:42:07Z</time>
      </trkpt>
      <trkpt lat="42.2552900" lon="-8.1593440">
        <ele>96.6</ele>
        <time>2022-08-27T10:42:47Z</time>
      </trkpt>
      <trkpt lat="42.2552340" lon="-8.1593030">
        <ele>96.6</ele>
        <time>2022-08-27T10:42:49Z</time>
      </trkpt>
      <trkpt lat="42.2551330" lon="-8.1592220">
        <ele>96.4</ele>
        <time>2022-08-27T10:42:54Z</time>
      </trkpt>
      <trkpt lat="42.2550560" lon="-8.1591250">
        <ele>96.4</ele>
        <time>2022-08-27T10:42:59Z</time>
      </trkpt>
      <trkpt lat="42.2549140" lon="-8.1589930">
        <ele>96.6</ele>
        <time>2022-08-27T10:43:06Z</time>
      </trkpt>
      <trkpt lat="42.2548660" lon="-8.1589600">
        <ele>96.6</ele>
        <time>2022-08-27T10:43:11Z</time>
      </trkpt>
      <trkpt lat="42.2548420" lon="-8.1589400">
        <ele>96.6</ele>
        <time>2022-08-27T10:43:13Z</time>
      </trkpt>
      <trkpt lat="42.2547680" lon="-8.1588530">
        <ele>96.6</ele>
        <time>2022-08-27T10:43:18Z</time>
      </trkpt>
      <trkpt lat="42.2547020" lon="-8.1587790">
        <ele>96.6</ele>
        <time>2022-08-27T10:43:23Z</time>
      </trkpt>
      <trkpt lat="42.2546210" lon="-8.1587010">
        <ele>96.8</ele>
        <time>2022-08-27T10:43:28Z</time>
      </trkpt>
      <trkpt lat="42.2545970" lon="-8.1586680">
        <ele>96.8</ele>
        <time>2022-08-27T10:43:31Z</time>
      </trkpt>
      <trkpt lat="42.2544400" lon="-8.1588130">
        <ele>95.2</ele>
        <time>2022-08-27T10:43:54Z</time>
      </trkpt>
      <trkpt lat="42.2543900" lon="-8.1589380">
        <ele>94.8</ele>
        <time>2022-08-27T10:43:59Z</time>
      </trkpt>
      <trkpt lat="42.2543860" lon="-8.1589560">
        <ele>94.8</ele>
        <time>2022-08-27T10:44:00Z</time>
      </trkpt>
      <trkpt lat="42.2543800" lon="-8.1589730">
        <ele>94.8</ele>
        <time>2022-08-27T10:44:01Z</time>
      </trkpt>
      <trkpt lat="42.2543380" lon="-8.1590420">
        <ele>94.8</ele>
        <time>2022-08-27T10:44:04Z</time>
      </trkpt>
      <trkpt lat="42.2543130" lon="-8.1591030">
        <ele>94.8</ele>
        <time>2022-08-27T10:44:06Z</time>
      </trkpt>
      <trkpt lat="42.2542830" lon="-8.1592010">
        <ele>95.0</ele>
        <time>2022-08-27T10:44:09Z</time>
      </trkpt>
      <trkpt lat="42.2542780" lon="-8.1592470">
        <ele>95.0</ele>
        <time>2022-08-27T10:44:11Z</time>
      </trkpt>
      <trkpt lat="42.2542800" lon="-8.1592640">
        <ele>95.0</ele>
        <time>2022-08-27T10:44:13Z</time>
      </trkpt>
      <trkpt lat="42.2542790" lon="-8.1592770">
        <ele>95.0</ele>
        <time>2022-08-27T10:44:15Z</time>
      </trkpt>
      <trkpt lat="42.2540840" lon="-8.1593730">
        <ele>95.4</ele>
        <time>2022-08-27T10:45:23Z</time>
      </trkpt>
      <trkpt lat="42.2540660" lon="-8.1593450">
        <ele>95.4</ele>
        <time>2022-08-27T10:45:24Z</time>
      </trkpt>
      <trkpt lat="42.2540240" lon="-8.1591680">
        <ele>95.2</ele>
        <time>2022-08-27T10:45:29Z</time>
      </trkpt>
      <trkpt lat="42.2540110" lon="-8.1589850">
        <ele>95.2</ele>
        <time>2022-08-27T10:45:35Z</time>
      </trkpt>
      <trkpt lat="42.2540360" lon="-8.1587440">
        <ele>95.2</ele>
        <time>2022-08-27T10:45:41Z</time>
      </trkpt>
      <trkpt lat="42.2540550" lon="-8.1585020">
        <ele>95.2</ele>
        <time>2022-08-27T10:45:47Z</time>
      </trkpt>
      <trkpt lat="42.2540180" lon="-8.1582860">
        <ele>95.2</ele>
        <time>2022-08-27T10:45:53Z</time>
      </trkpt>
      <trkpt lat="42.2539830" lon="-8.1581910">
        <ele>95.6</ele>
        <time>2022-08-27T10:45:58Z</time>
      </trkpt>
      <trkpt lat="42.2539660" lon="-8.1581680">
        <ele>96.0</ele>
        <time>2022-08-27T10:46:01Z</time>
      </trkpt>
      <trkpt lat="42.2539280" lon="-8.1581040">
        <ele>96.6</ele>
        <time>2022-08-27T10:46:06Z</time>
      </trkpt>
      <trkpt lat="42.2538730" lon="-8.1580200">
        <ele>97.0</ele>
        <time>2022-08-27T10:46:11Z</time>
      </trkpt>
      <trkpt lat="42.2538450" lon="-8.1579960">
        <ele>97.2</ele>
        <time>2022-08-27T10:46:13Z</time>
      </trkpt>
      <trkpt lat="42.2537760" lon="-8.1579450">
        <ele>98.0</ele>
        <time>2022-08-27T10:46:18Z</time>
      </trkpt>
      <trkpt lat="42.2537610" lon="-8.1579380">
        <ele>98.0</ele>
        <time>2022-08-27T10:46:19Z</time>
      </trkpt>
      <trkpt lat="42.2536810" lon="-8.1579250">
        <ele>99.2</ele>
        <time>2022-08-27T10:46:24Z</time>
      </trkpt>
      <trkpt lat="42.2536360" lon="-8.1579290">
        <ele>99.6</ele>
        <time>2022-08-27T10:46:27Z</time>
      </trkpt>
      <trkpt lat="42.2535760" lon="-8.1579500">
        <ele>100.2</ele>
        <time>2022-08-27T10:46:32Z</time>
      </trkpt>
      <trkpt lat="42.2535600" lon="-8.1579550">
        <ele>100.4</ele>
        <time>2022-08-27T10:46:33Z</time>
      </trkpt>
      <trkpt lat="42.2534870" lon="-8.1579530">
        <ele>101.2</ele>
        <time>2022-08-27T10:46:38Z</time>
      </trkpt>
      <trkpt lat="42.2534650" lon="-8.1579540">
        <ele>101.6</ele>
        <time>2022-08-27T10:46:40Z</time>
      </trkpt>
      <trkpt lat="42.2534190" lon="-8.1579530">
        <ele>102.4</ele>
        <time>2022-08-27T10:46:45Z</time>
      </trkpt>
      <trkpt lat="42.2533930" lon="-8.1579480">
        <ele>102.8</ele>
        <time>2022-08-27T10:46:47Z</time>
      </trkpt>
      <trkpt lat="42.2533370" lon="-8.1579320">
        <ele>103.4</ele>
        <time>2022-08-27T10:46:51Z</time>
      </trkpt>
      <trkpt lat="42.2532820" lon="-8.1579160">
        <ele>104.2</ele>
        <time>2022-08-27T10:46:55Z</time>
      </trkpt>
      <trkpt lat="42.2532700" lon="-8.1579130">
        <ele>104.4</ele>
        <time>2022-08-27T10:46:56Z</time>
      </trkpt>
      <trkpt lat="42.2532010" lon="-8.1578960">
        <ele>105.2</ele>
        <time>2022-08-27T10:47:01Z</time>
      </trkpt>
      <trkpt lat="42.2531880" lon="-8.1578890">
        <ele>105.2</ele>
        <time>2022-08-27T10:47:02Z</time>
      </trkpt>
      <trkpt lat="42.2531570" lon="-8.1578790">
        <ele>105.6</ele>
        <time>2022-08-27T10:47:04Z</time>
      </trkpt>
      <trkpt lat="42.2530770" lon="-8.1578300">
        <ele>106.8</ele>
        <time>2022-08-27T10:47:09Z</time>
      </trkpt>
      <trkpt lat="42.2529650" lon="-8.1577770">
        <ele>107.4</ele>
        <time>2022-08-27T10:47:15Z</time>
      </trkpt>
      <trkpt lat="42.2529160" lon="-8.1577370">
        <ele>107.8</ele>
        <time>2022-08-27T10:47:18Z</time>
      </trkpt>
      <trkpt lat="42.2528740" lon="-8.1576910">
        <ele>107.8</ele>
        <time>2022-08-27T10:47:21Z</time>
      </trkpt>
      <trkpt lat="42.2527740" lon="-8.1576250">
        <ele>108.4</ele>
        <time>2022-08-27T10:47:27Z</time>
      </trkpt>
      <trkpt lat="42.2526730" lon="-8.1575860">
        <ele>109.0</ele>
        <time>2022-08-27T10:47:31Z</time>
      </trkpt>
      <trkpt lat="42.2526210" lon="-8.1575710">
        <ele>109.0</ele>
        <time>2022-08-27T10:47:33Z</time>
      </trkpt>
      <trkpt lat="42.2524640" lon="-8.1575010">
        <ele>109.4</ele>
        <time>2022-08-27T10:47:39Z</time>
      </trkpt>
      <trkpt lat="42.2523530" lon="-8.1574990">
        <ele>109.4</ele>
        <time>2022-08-27T10:47:44Z</time>
      </trkpt>
      <trkpt lat="42.2522750" lon="-8.1575410">
        <ele>110.0</ele>
        <time>2022-08-27T10:47:49Z</time>
      </trkpt>
      <trkpt lat="42.2522600" lon="-8.1575440">
        <ele>110.2</ele>
        <time>2022-08-27T10:47:50Z</time>
      </trkpt>
      <trkpt lat="42.2521900" lon="-8.1575580">
        <ele>111.0</ele>
        <time>2022-08-27T10:47:54Z</time>
      </trkpt>
      <trkpt lat="42.2521580" lon="-8.1575520">
        <ele>111.2</ele>
        <time>2022-08-27T10:47:56Z</time>
      </trkpt>
      <trkpt lat="42.2520870" lon="-8.1575170">
        <ele>112.2</ele>
        <time>2022-08-27T10:48:01Z</time>
      </trkpt>
      <trkpt lat="42.2520540" lon="-8.1575040">
        <ele>112.6</ele>
        <time>2022-08-27T10:48:03Z</time>
      </trkpt>
      <trkpt lat="42.2519870" lon="-8.1574530">
        <ele>113.4</ele>
        <time>2022-08-27T10:48:07Z</time>
      </trkpt>
      <trkpt lat="42.2519360" lon="-8.1574250">
        <ele>113.8</ele>
        <time>2022-08-27T10:48:10Z</time>
      </trkpt>
      <trkpt lat="42.2518660" lon="-8.1574050">
        <ele>114.6</ele>
        <time>2022-08-27T10:48:15Z</time>
      </trkpt>
      <trkpt lat="42.2517590" lon="-8.1573840">
        <ele>115.4</ele>
        <time>2022-08-27T10:48:22Z</time>
      </trkpt>
      <trkpt lat="42.2517210" lon="-8.1573870">
        <ele>115.6</ele>
        <time>2022-08-27T10:48:24Z</time>
      </trkpt>
      <trkpt lat="42.2516510" lon="-8.1573820">
        <ele>116.4</ele>
        <time>2022-08-27T10:48:28Z</time>
      </trkpt>
      <trkpt lat="42.2516370" lon="-8.1573840">
        <ele>116.6</ele>
        <time>2022-08-27T10:48:29Z</time>
      </trkpt>
      <trkpt lat="42.2515370" lon="-8.1573630">
        <ele>117.6</ele>
        <time>2022-08-27T10:48:35Z</time>
      </trkpt>
      <trkpt lat="42.2515200" lon="-8.1573530">
        <ele>117.8</ele>
        <time>2022-08-27T10:48:36Z</time>
      </trkpt>
      <trkpt lat="42.2514010" lon="-8.1573390">
        <ele>119.0</ele>
        <time>2022-08-27T10:48:42Z</time>
      </trkpt>
      <trkpt lat="42.2512180" lon="-8.1573330">
        <ele>119.8</ele>
        <time>2022-08-27T10:48:49Z</time>
      </trkpt>
      <trkpt lat="42.2511110" lon="-8.1573170">
        <ele>120.0</ele>
        <time>2022-08-27T10:48:53Z</time>
      </trkpt>
      <trkpt lat="42.2510290" lon="-8.1573010">
        <ele>120.0</ele>
        <time>2022-08-27T10:48:56Z</time>
      </trkpt>
      <trkpt lat="42.2508520" lon="-8.1572650">
        <ele>120.4</ele>
        <time>2022-08-27T10:49:03Z</time>
      </trkpt>
      <trkpt lat="42.2507510" lon="-8.1572430">
        <ele>121.0</ele>
        <time>2022-08-27T10:49:08Z</time>
      </trkpt>
      <trkpt lat="42.2507200" lon="-8.1572330">
        <ele>121.2</ele>
        <time>2022-08-27T10:49:10Z</time>
      </trkpt>
      <trkpt lat="42.2506060" lon="-8.1571660">
        <ele>122.2</ele>
        <time>2022-08-27T10:49:16Z</time>
      </trkpt>
      <trkpt lat="42.2505450" lon="-8.1570880">
        <ele>123.2</ele>
        <time>2022-08-27T10:49:21Z</time>
      </trkpt>
      <trkpt lat="42.2505280" lon="-8.1570550">
        <ele>123.6</ele>
        <time>2022-08-27T10:49:23Z</time>
      </trkpt>
      <trkpt lat="42.2504430" lon="-8.1570070">
        <ele>124.4</ele>
        <time>2022-08-27T10:49:29Z</time>
      </trkpt>
      <trkpt lat="42.2503610" lon="-8.1569500">
        <ele>125.6</ele>
        <time>2022-08-27T10:49:35Z</time>
      </trkpt>
      <trkpt lat="42.2502900" lon="-8.1568900">
        <ele>126.6</ele>
        <time>2022-08-27T10:49:41Z</time>
      </trkpt>
      <trkpt lat="42.2502670" lon="-8.1568630">
        <ele>127.0</ele>
        <time>2022-08-27T10:49:43Z</time>
      </trkpt>
      <trkpt lat="42.2502140" lon="-8.1568220">
        <ele>128.0</ele>
        <time>2022-08-27T10:49:47Z</time>
      </trkpt>
      <trkpt lat="42.2501750" lon="-8.1568140">
        <ele>129.0</ele>
        <time>2022-08-27T10:49:49Z</time>
      </trkpt>
      <trkpt lat="42.2501510" lon="-8.1568140">
        <ele>129.4</ele>
        <time>2022-08-27T10:49:50Z</time>
      </trkpt>
      <trkpt lat="42.2500780" lon="-8.1568220">
        <ele>130.2</ele>
        <time>2022-08-27T10:49:53Z</time>
      </trkpt>
      <trkpt lat="42.2500370" lon="-8.1568660">
        <ele>130.4</ele>
        <time>2022-08-27T10:49:55Z</time>
      </trkpt>
      <trkpt lat="42.2499660" lon="-8.1570390">
        <ele>131.2</ele>
        <time>2022-08-27T10:50:01Z</time>
      </trkpt>
      <trkpt lat="42.2499530" lon="-8.1570680">
        <ele>131.2</ele>
        <time>2022-08-27T10:50:02Z</time>
      </trkpt>
      <trkpt lat="42.2498820" lon="-8.1571920">
        <ele>131.6</ele>
        <time>2022-08-27T10:50:07Z</time>
      </trkpt>
      <trkpt lat="42.2497160" lon="-8.1573980">
        <ele>132.6</ele>
        <time>2022-08-27T10:50:16Z</time>
      </trkpt>
      <trkpt lat="42.2496000" lon="-8.1575690">
        <ele>133.2</ele>
        <time>2022-08-27T10:50:23Z</time>
      </trkpt>
      <trkpt lat="42.2495270" lon="-8.1576940">
        <ele>133.6</ele>
        <time>2022-08-27T10:50:27Z</time>
      </trkpt>
      <trkpt lat="42.2494900" lon="-8.1577570">
        <ele>133.8</ele>
        <time>2022-08-27T10:50:29Z</time>
      </trkpt>
      <trkpt lat="42.2494060" lon="-8.1578960">
        <ele>134.4</ele>
        <time>2022-08-27T10:50:34Z</time>
      </trkpt>
      <trkpt lat="42.2493000" lon="-8.1579960">
        <ele>134.6</ele>
        <time>2022-08-27T10:50:39Z</time>
      </trkpt>
      <trkpt lat="42.2492500" lon="-8.1580160">
        <ele>134.8</ele>
        <time>2022-08-27T10:50:41Z</time>
      </trkpt>
      <trkpt lat="42.2490570" lon="-8.1581270">
        <ele>135.6</ele>
        <time>2022-08-27T10:50:48Z</time>
      </trkpt>
      <trkpt lat="42.2489560" lon="-8.1582650">
        <ele>136.4</ele>
        <time>2022-08-27T10:50:54Z</time>
      </trkpt>
      <trkpt lat="42.2488830" lon="-8.1582860">
        <ele>136.8</ele>
        <time>2022-08-27T10:50:57Z</time>
      </trkpt>
      <trkpt lat="42.2488310" lon="-8.1583010">
        <ele>136.8</ele>
        <time>2022-08-27T10:50:59Z</time>
      </trkpt>
      <trkpt lat="42.2487160" lon="-8.1583570">
        <ele>137.8</ele>
        <time>2022-08-27T10:51:05Z</time>
      </trkpt>
      <trkpt lat="42.2487000" lon="-8.1583710">
        <ele>137.8</ele>
        <time>2022-08-27T10:51:06Z</time>
      </trkpt>
      <trkpt lat="42.2486260" lon="-8.1584380">
        <ele>139.0</ele>
        <time>2022-08-27T10:51:11Z</time>
      </trkpt>
      <trkpt lat="42.2485760" lon="-8.1584850">
        <ele>140.4</ele>
        <time>2022-08-27T10:51:15Z</time>
      </trkpt>
      <trkpt lat="42.2485450" lon="-8.1585130">
        <ele>140.8</ele>
        <time>2022-08-27T10:51:17Z</time>
      </trkpt>
      <trkpt lat="42.2484940" lon="-8.1585740">
        <ele>141.4</ele>
        <time>2022-08-27T10:51:21Z</time>
      </trkpt>
      <trkpt lat="42.2484510" lon="-8.1586230">
        <ele>141.6</ele>
        <time>2022-08-27T10:51:24Z</time>
      </trkpt>
      <trkpt lat="42.2483800" lon="-8.1586850">
        <ele>142.4</ele>
        <time>2022-08-27T10:51:28Z</time>
      </trkpt>
      <trkpt lat="42.2482860" lon="-8.1587520">
        <ele>143.0</ele>
        <time>2022-08-27T10:51:32Z</time>
      </trkpt>
      <trkpt lat="42.2482170" lon="-8.1588020">
        <ele>143.6</ele>
        <time>2022-08-27T10:51:35Z</time>
      </trkpt>
      <trkpt lat="42.2481140" lon="-8.1588920">
        <ele>143.8</ele>
        <time>2022-08-27T10:51:39Z</time>
      </trkpt>
      <trkpt lat="42.2479610" lon="-8.1590540">
        <ele>143.8</ele>
        <time>2022-08-27T10:51:44Z</time>
      </trkpt>
      <trkpt lat="42.2477800" lon="-8.1592250">
        <ele>143.8</ele>
        <time>2022-08-27T10:51:48Z</time>
      </trkpt>
      <trkpt lat="42.2476920" lon="-8.1593290">
        <ele>143.6</ele>
        <time>2022-08-27T10:51:50Z</time>
      </trkpt>
      <trkpt lat="42.2476180" lon="-8.1594640">
        <ele>143.2</ele>
        <time>2022-08-27T10:51:52Z</time>
      </trkpt>
      <trkpt lat="42.2475050" lon="-8.1597140">
        <ele>142.2</ele>
        <time>2022-08-27T10:51:55Z</time>
      </trkpt>
      <trkpt lat="42.2474590" lon="-8.1597860">
        <ele>141.6</ele>
        <time>2022-08-27T10:51:56Z</time>
      </trkpt>
      <trkpt lat="42.2474100" lon="-8.1598490">
        <ele>141.0</ele>
        <time>2022-08-27T10:51:57Z</time>
      </trkpt>
      <trkpt lat="42.2472640" lon="-8.1599560">
        <ele>140.0</ele>
        <time>2022-08-27T10:52:00Z</time>
      </trkpt>
      <trkpt lat="42.2472210" lon="-8.1599830">
        <ele>139.4</ele>
        <time>2022-08-27T10:52:01Z</time>
      </trkpt>
      <trkpt lat="42.2471810" lon="-8.1600150">
        <ele>138.6</ele>
        <time>2022-08-27T10:52:02Z</time>
      </trkpt>
      <trkpt lat="42.2471040" lon="-8.1600740">
        <ele>137.2</ele>
        <time>2022-08-27T10:52:04Z</time>
      </trkpt>
      <trkpt lat="42.2470310" lon="-8.1601330">
        <ele>136.6</ele>
        <time>2022-08-27T10:52:06Z</time>
      </trkpt>
      <trkpt lat="42.2469200" lon="-8.1603280">
        <ele>136.4</ele>
        <time>2022-08-27T10:52:10Z</time>
      </trkpt>
      <trkpt lat="42.2468020" lon="-8.1605760">
        <ele>136.2</ele>
        <time>2022-08-27T10:52:15Z</time>
      </trkpt>
      <trkpt lat="42.2466380" lon="-8.1607320">
        <ele>136.2</ele>
        <time>2022-08-27T10:52:19Z</time>
      </trkpt>
      <trkpt lat="42.2465880" lon="-8.1607740">
        <ele>135.8</ele>
        <time>2022-08-27T10:52:20Z</time>
      </trkpt>
      <trkpt lat="42.2464300" lon="-8.1608880">
        <ele>135.2</ele>
        <time>2022-08-27T10:52:23Z</time>
      </trkpt>
      <trkpt lat="42.2463470" lon="-8.1609760">
        <ele>134.8</ele>
        <time>2022-08-27T10:52:25Z</time>
      </trkpt>
      <trkpt lat="42.2463060" lon="-8.1610330">
        <ele>135.0</ele>
        <time>2022-08-27T10:52:26Z</time>
      </trkpt>
      <trkpt lat="42.2462040" lon="-8.1611980">
        <ele>134.6</ele>
        <time>2022-08-27T10:52:29Z</time>
      </trkpt>
      <trkpt lat="42.2461800" lon="-8.1612570">
        <ele>134.6</ele>
        <time>2022-08-27T10:52:30Z</time>
      </trkpt>
      <trkpt lat="42.2461610" lon="-8.1615010">
        <ele>134.0</ele>
        <time>2022-08-27T10:52:34Z</time>
      </trkpt>
      <trkpt lat="42.2461690" lon="-8.1615790">
        <ele>134.0</ele>
        <time>2022-08-27T10:52:35Z</time>
      </trkpt>
      <trkpt lat="42.2461700" lon="-8.1618410">
        <ele>133.6</ele>
        <time>2022-08-27T10:52:38Z</time>
      </trkpt>
      <trkpt lat="42.2461610" lon="-8.1619190">
        <ele>133.6</ele>
        <time>2022-08-27T10:52:39Z</time>
      </trkpt>
      <trkpt lat="42.2460970" lon="-8.1621190">
        <ele>132.8</ele>
        <time>2022-08-27T10:52:42Z</time>
      </trkpt>
      <trkpt lat="42.2460670" lon="-8.1621870">
        <ele>132.4</ele>
        <time>2022-08-27T10:52:43Z</time>
      </trkpt>
      <trkpt lat="42.2460360" lon="-8.1622460">
        <ele>131.8</ele>
        <time>2022-08-27T10:52:44Z</time>
      </trkpt>
      <trkpt lat="42.2459520" lon="-8.1624100">
        <ele>131.0</ele>
        <time>2022-08-27T10:52:47Z</time>
      </trkpt>
      <trkpt lat="42.2459200" lon="-8.1624630">
        <ele>130.8</ele>
        <time>2022-08-27T10:52:48Z</time>
      </trkpt>
      <trkpt lat="42.2458530" lon="-8.1625900">
        <ele>130.8</ele>
        <time>2022-08-27T10:52:50Z</time>
      </trkpt>
      <trkpt lat="42.2458070" lon="-8.1627110">
        <ele>130.6</ele>
        <time>2022-08-27T10:52:52Z</time>
      </trkpt>
      <trkpt lat="42.2457650" lon="-8.1629170">
        <ele>130.6</ele>
        <time>2022-08-27T10:52:56Z</time>
      </trkpt>
      <trkpt lat="42.2457570" lon="-8.1630290">
        <ele>130.6</ele>
        <time>2022-08-27T10:53:01Z</time>
      </trkpt>
      <trkpt lat="42.2457540" lon="-8.1631300">
        <ele>131.4</ele>
        <time>2022-08-27T10:53:05Z</time>
      </trkpt>
      <trkpt lat="42.2457570" lon="-8.1631590">
        <ele>131.8</ele>
        <time>2022-08-27T10:53:06Z</time>
      </trkpt>
      <trkpt lat="42.2457590" lon="-8.1631880">
        <ele>132.2</ele>
        <time>2022-08-27T10:53:07Z</time>
      </trkpt>
      <trkpt lat="42.2457580" lon="-8.1632700">
        <ele>132.8</ele>
        <time>2022-08-27T10:53:10Z</time>
      </trkpt>
      <trkpt lat="42.2457570" lon="-8.1633310">
        <ele>133.8</ele>
        <time>2022-08-27T10:53:13Z</time>
      </trkpt>
      <trkpt lat="42.2457550" lon="-8.1633500">
        <ele>133.8</ele>
        <time>2022-08-27T10:53:14Z</time>
      </trkpt>
      <trkpt lat="42.2457540" lon="-8.1633860">
        <ele>134.4</ele>
        <time>2022-08-27T10:53:16Z</time>
      </trkpt>
      <trkpt lat="42.2457430" lon="-8.1634440">
        <ele>135.0</ele>
        <time>2022-08-27T10:53:19Z</time>
      </trkpt>
      <trkpt lat="42.2457350" lon="-8.1634580">
        <ele>135.4</ele>
        <time>2022-08-27T10:53:20Z</time>
      </trkpt>
      <trkpt lat="42.2457170" lon="-8.1635060">
        <ele>136.0</ele>
        <time>2022-08-27T10:53:23Z</time>
      </trkpt>
      <trkpt lat="42.2457130" lon="-8.1635250">
        <ele>136.2</ele>
        <time>2022-08-27T10:53:24Z</time>
      </trkpt>
      <trkpt lat="42.2457080" lon="-8.1635430">
        <ele>136.2</ele>
        <time>2022-08-27T10:53:25Z</time>
      </trkpt>
      <trkpt lat="42.2456970" lon="-8.1635760">
        <ele>136.6</ele>
        <time>2022-08-27T10:53:27Z</time>
      </trkpt>
      <trkpt lat="42.2456780" lon="-8.1636440">
        <ele>137.2</ele>
        <time>2022-08-27T10:53:31Z</time>
      </trkpt>
      <trkpt lat="42.2456740" lon="-8.1636600">
        <ele>137.4</ele>
        <time>2022-08-27T10:53:32Z</time>
      </trkpt>
      <trkpt lat="42.2456540" lon="-8.1637580">
        <ele>138.4</ele>
        <time>2022-08-27T10:53:38Z</time>
      </trkpt>
      <trkpt lat="42.2456470" lon="-8.1637900">
        <ele>138.6</ele>
        <time>2022-08-27T10:53:40Z</time>
      </trkpt>
      <trkpt lat="42.2456330" lon="-8.1638520">
        <ele>139.2</ele>
        <time>2022-08-27T10:53:44Z</time>
      </trkpt>
      <trkpt lat="42.2456320" lon="-8.1638710">
        <ele>139.2</ele>
        <time>2022-08-27T10:53:45Z</time>
      </trkpt>
      <trkpt lat="42.2456260" lon="-8.1638910">
        <ele>139.4</ele>
        <time>2022-08-27T10:53:46Z</time>
      </trkpt>
      <trkpt lat="42.2456190" lon="-8.1639080">
        <ele>139.6</ele>
        <time>2022-08-27T10:53:47Z</time>
      </trkpt>
      <trkpt lat="42.2456000" lon="-8.1639860">
        <ele>140.4</ele>
        <time>2022-08-27T10:53:52Z</time>
      </trkpt>
      <trkpt lat="42.2456000" lon="-8.1640030">
        <ele>140.4</ele>
        <time>2022-08-27T10:53:53Z</time>
      </trkpt>
      <trkpt lat="42.2455930" lon="-8.1640790">
        <ele>141.4</ele>
        <time>2022-08-27T10:53:57Z</time>
      </trkpt>
      <trkpt lat="42.2455900" lon="-8.1640990">
        <ele>141.4</ele>
        <time>2022-08-27T10:53:58Z</time>
      </trkpt>
      <trkpt lat="42.2455900" lon="-8.1641210">
        <ele>141.6</ele>
        <time>2022-08-27T10:53:59Z</time>
      </trkpt>
      <trkpt lat="42.2456030" lon="-8.1642150">
        <ele>142.6</ele>
        <time>2022-08-27T10:54:04Z</time>
      </trkpt>
      <trkpt lat="42.2456090" lon="-8.1642330">
        <ele>142.6</ele>
        <time>2022-08-27T10:54:05Z</time>
      </trkpt>
      <trkpt lat="42.2456470" lon="-8.1643160">
        <ele>143.6</ele>
        <time>2022-08-27T10:54:11Z</time>
      </trkpt>
      <trkpt lat="42.2456520" lon="-8.1643300">
        <ele>143.8</ele>
        <time>2022-08-27T10:54:12Z</time>
      </trkpt>
      <trkpt lat="42.2456790" lon="-8.1643730">
        <ele>144.2</ele>
        <time>2022-08-27T10:54:16Z</time>
      </trkpt>
      <trkpt lat="42.2457210" lon="-8.1644240">
        <ele>144.8</ele>
        <time>2022-08-27T10:54:20Z</time>
      </trkpt>
      <trkpt lat="42.2457420" lon="-8.1644600">
        <ele>145.0</ele>
        <time>2022-08-27T10:54:22Z</time>
      </trkpt>
      <trkpt lat="42.2458170" lon="-8.1645730">
        <ele>145.8</ele>
        <time>2022-08-27T10:54:28Z</time>
      </trkpt>
      <trkpt lat="42.2458330" lon="-8.1645890">
        <ele>146.0</ele>
        <time>2022-08-27T10:54:29Z</time>
      </trkpt>
      <trkpt lat="42.2458710" lon="-8.1646300">
        <ele>146.2</ele>
        <time>2022-08-27T10:54:32Z</time>
      </trkpt>
      <trkpt lat="42.2458920" lon="-8.1646670">
        <ele>146.6</ele>
        <time>2022-08-27T10:54:34Z</time>
      </trkpt>
      <trkpt lat="42.2459180" lon="-8.1647020">
        <ele>147.0</ele>
        <time>2022-08-27T10:54:36Z</time>
      </trkpt>
      <trkpt lat="42.2459260" lon="-8.1647220">
        <ele>147.4</ele>
        <time>2022-08-27T10:54:37Z</time>
      </trkpt>
      <trkpt lat="42.2459750" lon="-8.1647930">
        <ele>148.2</ele>
        <time>2022-08-27T10:54:41Z</time>
      </trkpt>
      <trkpt lat="42.2460500" lon="-8.1648730">
        <ele>149.2</ele>
        <time>2022-08-27T10:54:47Z</time>
      </trkpt>
      <trkpt lat="42.2460620" lon="-8.1648830">
        <ele>149.2</ele>
        <time>2022-08-27T10:54:48Z</time>
      </trkpt>
      <trkpt lat="42.2461200" lon="-8.1649580">
        <ele>150.4</ele>
        <time>2022-08-27T10:54:54Z</time>
      </trkpt>
      <trkpt lat="42.2461260" lon="-8.1649710">
        <ele>150.6</ele>
        <time>2022-08-27T10:54:55Z</time>
      </trkpt>
      <trkpt lat="42.2461820" lon="-8.1650530">
        <ele>151.6</ele>
        <time>2022-08-27T10:55:01Z</time>
      </trkpt>
      <trkpt lat="42.2462070" lon="-8.1650690">
        <ele>152.0</ele>
        <time>2022-08-27T10:55:03Z</time>
      </trkpt>
      <trkpt lat="42.2462760" lon="-8.1651140">
        <ele>152.8</ele>
        <time>2022-08-27T10:55:08Z</time>
      </trkpt>
      <trkpt lat="42.2463050" lon="-8.1651330">
        <ele>153.2</ele>
        <time>2022-08-27T10:55:10Z</time>
      </trkpt>
      <trkpt lat="42.2463670" lon="-8.1651660">
        <ele>153.8</ele>
        <time>2022-08-27T10:55:13Z</time>
      </trkpt>
      <trkpt lat="42.2464120" lon="-8.1651910">
        <ele>154.2</ele>
        <time>2022-08-27T10:55:16Z</time>
      </trkpt>
      <trkpt lat="42.2464440" lon="-8.1652010">
        <ele>154.8</ele>
        <time>2022-08-27T10:55:18Z</time>
      </trkpt>
      <trkpt lat="42.2465150" lon="-8.1652110">
        <ele>155.4</ele>
        <time>2022-08-27T10:55:22Z</time>
      </trkpt>
      <trkpt lat="42.2465580" lon="-8.1652230">
        <ele>155.8</ele>
        <time>2022-08-27T10:55:25Z</time>
      </trkpt>
      <trkpt lat="42.2465860" lon="-8.1652380">
        <ele>156.0</ele>
        <time>2022-08-27T10:55:27Z</time>
      </trkpt>
      <trkpt lat="42.2466870" lon="-8.1652600">
        <ele>156.4</ele>
        <time>2022-08-27T10:55:32Z</time>
      </trkpt>
      <trkpt lat="42.2467220" lon="-8.1652670">
        <ele>156.6</ele>
        <time>2022-08-27T10:55:34Z</time>
      </trkpt>
      <trkpt lat="42.2467610" lon="-8.1652840">
        <ele>156.8</ele>
        <time>2022-08-27T10:55:36Z</time>
      </trkpt>
      <trkpt lat="42.2468040" lon="-8.1652960">
        <ele>157.2</ele>
        <time>2022-08-27T10:55:38Z</time>
      </trkpt>
      <trkpt lat="42.2469000" lon="-8.1653220">
        <ele>157.8</ele>
        <time>2022-08-27T10:55:43Z</time>
      </trkpt>
      <trkpt lat="42.2469150" lon="-8.1653380">
        <ele>158.0</ele>
        <time>2022-08-27T10:55:44Z</time>
      </trkpt>
      <trkpt lat="42.2469800" lon="-8.1654130">
        <ele>158.8</ele>
        <time>2022-08-27T10:55:49Z</time>
      </trkpt>
      <trkpt lat="42.2470140" lon="-8.1654460">
        <ele>159.0</ele>
        <time>2022-08-27T10:55:51Z</time>
      </trkpt>
      <trkpt lat="42.2470420" lon="-8.1654800">
        <ele>159.4</ele>
        <time>2022-08-27T10:55:53Z</time>
      </trkpt>
      <trkpt lat="42.2470540" lon="-8.1655010">
        <ele>159.6</ele>
        <time>2022-08-27T10:55:54Z</time>
      </trkpt>
      <trkpt lat="42.2470810" lon="-8.1655780">
        <ele>160.2</ele>
        <time>2022-08-27T10:55:58Z</time>
      </trkpt>
      <trkpt lat="42.2470980" lon="-8.1656180">
        <ele>160.4</ele>
        <time>2022-08-27T10:56:00Z</time>
      </trkpt>
      <trkpt lat="42.2471370" lon="-8.1656880">
        <ele>161.0</ele>
        <time>2022-08-27T10:56:04Z</time>
      </trkpt>
      <trkpt lat="42.2471410" lon="-8.1657110">
        <ele>161.2</ele>
        <time>2022-08-27T10:56:05Z</time>
      </trkpt>
      <trkpt lat="42.2471490" lon="-8.1657280">
        <ele>161.4</ele>
        <time>2022-08-27T10:56:06Z</time>
      </trkpt>
      <trkpt lat="42.2471820" lon="-8.1658720">
        <ele>162.2</ele>
        <time>2022-08-27T10:56:12Z</time>
      </trkpt>
      <trkpt lat="42.2471820" lon="-8.1658940">
        <ele>162.6</ele>
        <time>2022-08-27T10:56:13Z</time>
      </trkpt>
      <trkpt lat="42.2471710" lon="-8.1660040">
        <ele>163.4</ele>
        <time>2022-08-27T10:56:18Z</time>
      </trkpt>
      <trkpt lat="42.2471660" lon="-8.1660420">
        <ele>164.0</ele>
        <time>2022-08-27T10:56:20Z</time>
      </trkpt>
      <trkpt lat="42.2471640" lon="-8.1660830">
        <ele>164.6</ele>
        <time>2022-08-27T10:56:22Z</time>
      </trkpt>
      <trkpt lat="42.2471560" lon="-8.1661490">
        <ele>165.2</ele>
        <time>2022-08-27T10:56:25Z</time>
      </trkpt>
      <trkpt lat="42.2471510" lon="-8.1661750">
        <ele>165.4</ele>
        <time>2022-08-27T10:56:26Z</time>
      </trkpt>
      <trkpt lat="42.2471440" lon="-8.1662060">
        <ele>165.6</ele>
        <time>2022-08-27T10:56:27Z</time>
      </trkpt>
      <trkpt lat="42.2471470" lon="-8.1662830">
        <ele>166.2</ele>
        <time>2022-08-27T10:56:30Z</time>
      </trkpt>
      <trkpt lat="42.2471560" lon="-8.1663060">
        <ele>166.4</ele>
        <time>2022-08-27T10:56:31Z</time>
      </trkpt>
      <trkpt lat="42.2471650" lon="-8.1663550">
        <ele>166.8</ele>
        <time>2022-08-27T10:56:33Z</time>
      </trkpt>
      <trkpt lat="42.2471830" lon="-8.1664100">
        <ele>167.2</ele>
        <time>2022-08-27T10:56:36Z</time>
      </trkpt>
      <trkpt lat="42.2472260" lon="-8.1664770">
        <ele>167.8</ele>
        <time>2022-08-27T10:56:41Z</time>
      </trkpt>
      <trkpt lat="42.2472350" lon="-8.1664900">
        <ele>167.8</ele>
        <time>2022-08-27T10:56:42Z</time>
      </trkpt>
      <trkpt lat="42.2472440" lon="-8.1665040">
        <ele>168.0</ele>
        <time>2022-08-27T10:56:43Z</time>
      </trkpt>
      <trkpt lat="42.2472950" lon="-8.1665960">
        <ele>168.8</ele>
        <time>2022-08-27T10:56:48Z</time>
      </trkpt>
      <trkpt lat="42.2473610" lon="-8.1666790">
        <ele>169.8</ele>
        <time>2022-08-27T10:56:53Z</time>
      </trkpt>
      <trkpt lat="42.2474430" lon="-8.1667520">
        <ele>170.2</ele>
        <time>2022-08-27T10:56:59Z</time>
      </trkpt>
      <trkpt lat="42.2474580" lon="-8.1667610">
        <ele>170.4</ele>
        <time>2022-08-27T10:57:00Z</time>
      </trkpt>
      <trkpt lat="42.2475650" lon="-8.1668180">
        <ele>171.0</ele>
        <time>2022-08-27T10:57:05Z</time>
      </trkpt>
      <trkpt lat="42.2476120" lon="-8.1668650">
        <ele>171.2</ele>
        <time>2022-08-27T10:57:07Z</time>
      </trkpt>
      <trkpt lat="42.2476930" lon="-8.1669160">
        <ele>171.2</ele>
        <time>2022-08-27T10:57:10Z</time>
      </trkpt>
      <trkpt lat="42.2478680" lon="-8.1669850">
        <ele>171.2</ele>
        <time>2022-08-27T10:57:17Z</time>
      </trkpt>
      <trkpt lat="42.2480010" lon="-8.1670040">
        <ele>171.4</ele>
        <time>2022-08-27T10:57:22Z</time>
      </trkpt>
      <trkpt lat="42.2481770" lon="-8.1670190">
        <ele>171.4</ele>
        <time>2022-08-27T10:57:29Z</time>
      </trkpt>
      <trkpt lat="42.2483230" lon="-8.1670060">
        <ele>172.2</ele>
        <time>2022-08-27T10:57:35Z</time>
      </trkpt>
      <trkpt lat="42.2484160" lon="-8.1670050">
        <ele>172.4</ele>
        <time>2022-08-27T10:57:39Z</time>
      </trkpt>
      <trkpt lat="42.2485340" lon="-8.1670690">
        <ele>173.0</ele>
        <time>2022-08-27T10:57:46Z</time>
      </trkpt>
      <trkpt lat="42.2485750" lon="-8.1671000">
        <ele>173.2</ele>
        <time>2022-08-27T10:57:49Z</time>
      </trkpt>
      <trkpt lat="42.2486570" lon="-8.1671450">
        <ele>173.6</ele>
        <time>2022-08-27T10:57:53Z</time>
      </trkpt>
      <trkpt lat="42.2487840" lon="-8.1672160">
        <ele>174.2</ele>
        <time>2022-08-27T10:57:58Z</time>
      </trkpt>
      <trkpt lat="42.2488410" lon="-8.1672460">
        <ele>174.6</ele>
        <time>2022-08-27T10:58:00Z</time>
      </trkpt>
      <trkpt lat="42.2489290" lon="-8.1672790">
        <ele>175.2</ele>
        <time>2022-08-27T10:58:04Z</time>
      </trkpt>
      <trkpt lat="42.2489770" lon="-8.1673080">
        <ele>175.4</ele>
        <time>2022-08-27T10:58:06Z</time>
      </trkpt>
      <trkpt lat="42.2491060" lon="-8.1673890">
        <ele>176.0</ele>
        <time>2022-08-27T10:58:12Z</time>
      </trkpt>
      <trkpt lat="42.2491700" lon="-8.1674030">
        <ele>176.4</ele>
        <time>2022-08-27T10:58:14Z</time>
      </trkpt>
      <trkpt lat="42.2492870" lon="-8.1674850">
        <ele>176.8</ele>
        <time>2022-08-27T10:58:18Z</time>
      </trkpt>
      <trkpt lat="42.2493860" lon="-8.1675560">
        <ele>177.4</ele>
        <time>2022-08-27T10:58:22Z</time>
      </trkpt>
      <trkpt lat="42.2494300" lon="-8.1675890">
        <ele>177.8</ele>
        <time>2022-08-27T10:58:24Z</time>
      </trkpt>
      <trkpt lat="42.2495760" lon="-8.1677100">
        <ele>178.4</ele>
        <time>2022-08-27T10:58:31Z</time>
      </trkpt>
      <trkpt lat="42.2495980" lon="-8.1677250">
        <ele>178.4</ele>
        <time>2022-08-27T10:58:32Z</time>
      </trkpt>
      <trkpt lat="42.2496900" lon="-8.1677720">
        <ele>179.0</ele>
        <time>2022-08-27T10:58:37Z</time>
      </trkpt>
      <trkpt lat="42.2497430" lon="-8.1677520">
        <ele>179.4</ele>
        <time>2022-08-27T10:58:39Z</time>
      </trkpt>
      <trkpt lat="42.2498390" lon="-8.1677110">
        <ele>179.8</ele>
        <time>2022-08-27T10:58:42Z</time>
      </trkpt>
      <trkpt lat="42.2499690" lon="-8.1676950">
        <ele>180.0</ele>
        <time>2022-08-27T10:58:45Z</time>
      </trkpt>
      <trkpt lat="42.2500660" lon="-8.1677170">
        <ele>180.0</ele>
        <time>2022-08-27T10:58:47Z</time>
      </trkpt>
      <trkpt lat="42.2502150" lon="-8.1678030">
        <ele>180.0</ele>
        <time>2022-08-27T10:58:50Z</time>
      </trkpt>
      <trkpt lat="42.2503180" lon="-8.1678660">
        <ele>180.0</ele>
        <time>2022-08-27T10:58:52Z</time>
      </trkpt>
      <trkpt lat="42.2505560" lon="-8.1679920">
        <ele>178.4</ele>
        <time>2022-08-27T10:58:57Z</time>
      </trkpt>
      <trkpt lat="42.2505900" lon="-8.1680150">
        <ele>177.6</ele>
        <time>2022-08-27T10:58:58Z</time>
      </trkpt>
      <trkpt lat="42.2506160" lon="-8.1680400">
        <ele>177.2</ele>
        <time>2022-08-27T10:58:59Z</time>
      </trkpt>
      <trkpt lat="42.2506520" lon="-8.1681110">
        <ele>176.4</ele>
        <time>2022-08-27T10:59:02Z</time>
      </trkpt>
      <trkpt lat="42.2506520" lon="-8.1681640">
        <ele>175.2</ele>
        <time>2022-08-27T10:59:04Z</time>
      </trkpt>
      <trkpt lat="42.2506020" lon="-8.1682340">
        <ele>174.0</ele>
        <time>2022-08-27T10:59:06Z</time>
      </trkpt>
      <trkpt lat="42.2505200" lon="-8.1682680">
        <ele>173.0</ele>
        <time>2022-08-27T10:59:08Z</time>
      </trkpt>
      <trkpt lat="42.2504370" lon="-8.1682630">
        <ele>172.2</ele>
        <time>2022-08-27T10:59:10Z</time>
      </trkpt>
      <trkpt lat="42.2503230" lon="-8.1682700">
        <ele>172.0</ele>
        <time>2022-08-27T10:59:13Z</time>
      </trkpt>
      <trkpt lat="42.2502220" lon="-8.1682820">
        <ele>172.0</ele>
        <time>2022-08-27T10:59:16Z</time>
      </trkpt>
      <trkpt lat="42.2500010" lon="-8.1683520">
        <ele>172.4</ele>
        <time>2022-08-27T10:59:23Z</time>
      </trkpt>
      <trkpt lat="42.2498910" lon="-8.1684190">
        <ele>173.0</ele>
        <time>2022-08-27T10:59:27Z</time>
      </trkpt>
      <trkpt lat="42.2498180" lon="-8.1684750">
        <ele>173.4</ele>
        <time>2022-08-27T10:59:30Z</time>
      </trkpt>
      <trkpt lat="42.2496820" lon="-8.1686340">
        <ele>174.2</ele>
        <time>2022-08-27T10:59:36Z</time>
      </trkpt>
      <trkpt lat="42.2495260" lon="-8.1688580">
        <ele>174.6</ele>
        <time>2022-08-27T10:59:43Z</time>
      </trkpt>
      <trkpt lat="42.2494350" lon="-8.1690350">
        <ele>175.2</ele>
        <time>2022-08-27T10:59:48Z</time>
      </trkpt>
      <trkpt lat="42.2494160" lon="-8.1690690">
        <ele>175.4</ele>
        <time>2022-08-27T10:59:49Z</time>
      </trkpt>
      <trkpt lat="42.2492930" lon="-8.1692820">
        <ele>175.8</ele>
        <time>2022-08-27T10:59:55Z</time>
      </trkpt>
      <trkpt lat="42.2491550" lon="-8.1695200">
        <ele>176.2</ele>
        <time>2022-08-27T11:00:02Z</time>
      </trkpt>
      <trkpt lat="42.2489720" lon="-8.1697170">
        <ele>176.4</ele>
        <time>2022-08-27T11:00:09Z</time>
      </trkpt>
      <trkpt lat="42.2488800" lon="-8.1698630">
        <ele>176.4</ele>
        <time>2022-08-27T11:00:14Z</time>
      </trkpt>
      <trkpt lat="42.2488600" lon="-8.1698850">
        <ele>176.4</ele>
        <time>2022-08-27T11:00:17Z</time>
      </trkpt>
      <trkpt lat="42.2487970" lon="-8.1698970">
        <ele>177.2</ele>
        <time>2022-08-27T11:03:15Z</time>
      </trkpt>
      <trkpt lat="42.2486580" lon="-8.1699680">
        <ele>177.2</ele>
        <time>2022-08-27T11:03:21Z</time>
      </trkpt>
      <trkpt lat="42.2486370" lon="-8.1699750">
        <ele>177.2</ele>
        <time>2022-08-27T11:03:25Z</time>
      </trkpt>
      <trkpt lat="42.2485690" lon="-8.1700100">
        <ele>177.4</ele>
        <time>2022-08-27T11:03:40Z</time>
      </trkpt>
      <trkpt lat="42.2485200" lon="-8.1700200">
        <ele>177.4</ele>
        <time>2022-08-27T11:03:42Z</time>
      </trkpt>
      <trkpt lat="42.2483310" lon="-8.1700790">
        <ele>177.4</ele>
        <time>2022-08-27T11:03:48Z</time>
      </trkpt>
      <trkpt lat="42.2481010" lon="-8.1701400">
        <ele>177.4</ele>
        <time>2022-08-27T11:03:54Z</time>
      </trkpt>
      <trkpt lat="42.2478850" lon="-8.1701990">
        <ele>177.4</ele>
        <time>2022-08-27T11:04:00Z</time>
      </trkpt>
      <trkpt lat="42.2474830" lon="-8.1703020">
        <ele>177.6</ele>
        <time>2022-08-27T11:04:10Z</time>
      </trkpt>
      <trkpt lat="42.2471040" lon="-8.1704530">
        <ele>177.4</ele>
        <time>2022-08-27T11:04:18Z</time>
      </trkpt>
      <trkpt lat="42.2466490" lon="-8.1706980">
        <ele>177.0</ele>
        <time>2022-08-27T11:04:27Z</time>
      </trkpt>
      <trkpt lat="42.2462000" lon="-8.1709690">
        <ele>176.4</ele>
        <time>2022-08-27T11:04:35Z</time>
      </trkpt>
      <trkpt lat="42.2459540" lon="-8.1711180">
        <ele>176.2</ele>
        <time>2022-08-27T11:04:39Z</time>
      </trkpt>
      <trkpt lat="42.2457670" lon="-8.1712380">
        <ele>176.0</ele>
        <time>2022-08-27T11:04:42Z</time>
      </trkpt>
      <trkpt lat="42.2452540" lon="-8.1715540">
        <ele>175.4</ele>
        <time>2022-08-27T11:04:50Z</time>
      </trkpt>
      <trkpt lat="42.2451900" lon="-8.1715930">
        <ele>175.2</ele>
        <time>2022-08-27T11:04:51Z</time>
      </trkpt>
      <trkpt lat="42.2451240" lon="-8.1716280">
        <ele>175.2</ele>
        <time>2022-08-27T11:04:52Z</time>
      </trkpt>
      <trkpt lat="42.2448480" lon="-8.1717230">
        <ele>174.8</ele>
        <time>2022-08-27T11:04:56Z</time>
      </trkpt>
      <trkpt lat="42.2444940" lon="-8.1717300">
        <ele>174.6</ele>
        <time>2022-08-27T11:05:01Z</time>
      </trkpt>
      <trkpt lat="42.2442480" lon="-8.1716530">
        <ele>174.0</ele>
        <time>2022-08-27T11:05:05Z</time>
      </trkpt>
      <trkpt lat="42.2441930" lon="-8.1716270">
        <ele>174.0</ele>
        <time>2022-08-27T11:05:06Z</time>
      </trkpt>
      <trkpt lat="42.2438520" lon="-8.1713930">
        <ele>173.8</ele>
        <time>2022-08-27T11:05:13Z</time>
      </trkpt>
      <trkpt lat="42.2435040" lon="-8.1711130">
        <ele>174.2</ele>
        <time>2022-08-27T11:05:22Z</time>
      </trkpt>
      <trkpt lat="42.2433270" lon="-8.1709970">
        <ele>175.0</ele>
        <time>2022-08-27T11:05:27Z</time>
      </trkpt>
      <trkpt lat="42.2431890" lon="-8.1709300">
        <ele>175.8</ele>
        <time>2022-08-27T11:05:31Z</time>
      </trkpt>
      <trkpt lat="42.2431550" lon="-8.1709170">
        <ele>176.0</ele>
        <time>2022-08-27T11:05:32Z</time>
      </trkpt>
      <trkpt lat="42.2429840" lon="-8.1708740">
        <ele>177.2</ele>
        <time>2022-08-27T11:05:37Z</time>
      </trkpt>
      <trkpt lat="42.2428820" lon="-8.1708700">
        <ele>177.8</ele>
        <time>2022-08-27T11:05:40Z</time>
      </trkpt>
      <trkpt lat="42.2427750" lon="-8.1708720">
        <ele>178.4</ele>
        <time>2022-08-27T11:05:43Z</time>
      </trkpt>
      <trkpt lat="42.2426190" lon="-8.1709100">
        <ele>178.8</ele>
        <time>2022-08-27T11:05:47Z</time>
      </trkpt>
      <trkpt lat="42.2424160" lon="-8.1710040">
        <ele>179.4</ele>
        <time>2022-08-27T11:05:52Z</time>
      </trkpt>
      <trkpt lat="42.2423280" lon="-8.1710660">
        <ele>179.4</ele>
        <time>2022-08-27T11:05:54Z</time>
      </trkpt>
      <trkpt lat="42.2420550" lon="-8.1713470">
        <ele>179.4</ele>
        <time>2022-08-27T11:06:00Z</time>
      </trkpt>
      <trkpt lat="42.2418780" lon="-8.1716710">
        <ele>179.2</ele>
        <time>2022-08-27T11:06:04Z</time>
      </trkpt>
      <trkpt lat="42.2416990" lon="-8.1722350">
        <ele>178.2</ele>
        <time>2022-08-27T11:06:09Z</time>
      </trkpt>
      <trkpt lat="42.2415950" lon="-8.1726190">
        <ele>177.2</ele>
        <time>2022-08-27T11:06:12Z</time>
      </trkpt>
      <trkpt lat="42.2414820" lon="-8.1730320">
        <ele>175.6</ele>
        <time>2022-08-27T11:06:15Z</time>
      </trkpt>
      <trkpt lat="42.2414440" lon="-8.1731760">
        <ele>174.4</ele>
        <time>2022-08-27T11:06:16Z</time>
      </trkpt>
      <trkpt lat="42.2413710" lon="-8.1734720">
        <ele>173.0</ele>
        <time>2022-08-27T11:06:18Z</time>
      </trkpt>
      <trkpt lat="42.2412870" lon="-8.1737740">
        <ele>171.6</ele>
        <time>2022-08-27T11:06:20Z</time>
      </trkpt>
      <trkpt lat="42.2412390" lon="-8.1739260">
        <ele>171.0</ele>
        <time>2022-08-27T11:06:21Z</time>
      </trkpt>
      <trkpt lat="42.2411850" lon="-8.1740730">
        <ele>170.4</ele>
        <time>2022-08-27T11:06:22Z</time>
      </trkpt>
      <trkpt lat="42.2410510" lon="-8.1743500">
        <ele>168.8</ele>
        <time>2022-08-27T11:06:24Z</time>
      </trkpt>
      <trkpt lat="42.2409690" lon="-8.1744770">
        <ele>168.4</ele>
        <time>2022-08-27T11:06:25Z</time>
      </trkpt>
      <trkpt lat="42.2408790" lon="-8.1745940">
        <ele>167.6</ele>
        <time>2022-08-27T11:06:26Z</time>
      </trkpt>
      <trkpt lat="42.2406740" lon="-8.1747990">
        <ele>166.0</ele>
        <time>2022-08-27T11:06:28Z</time>
      </trkpt>
      <trkpt lat="42.2403340" lon="-8.1750210">
        <ele>164.6</ele>
        <time>2022-08-27T11:06:31Z</time>
      </trkpt>
      <trkpt lat="42.2402150" lon="-8.1750800">
        <ele>164.0</ele>
        <time>2022-08-27T11:06:32Z</time>
      </trkpt>
      <trkpt lat="42.2400980" lon="-8.1751350">
        <ele>162.8</ele>
        <time>2022-08-27T11:06:33Z</time>
      </trkpt>
      <trkpt lat="42.2398690" lon="-8.1752410">
        <ele>161.0</ele>
        <time>2022-08-27T11:06:35Z</time>
      </trkpt>
      <trkpt lat="42.2397560" lon="-8.1752920">
        <ele>159.8</ele>
        <time>2022-08-27T11:06:36Z</time>
      </trkpt>
      <trkpt lat="42.2396450" lon="-8.1753410">
        <ele>158.6</ele>
        <time>2022-08-27T11:06:37Z</time>
      </trkpt>
      <trkpt lat="42.2395350" lon="-8.1753900">
        <ele>157.6</ele>
        <time>2022-08-27T11:06:38Z</time>
      </trkpt>
      <trkpt lat="42.2394280" lon="-8.1754360">
        <ele>156.6</ele>
        <time>2022-08-27T11:06:39Z</time>
      </trkpt>
      <trkpt lat="42.2391270" lon="-8.1755690">
        <ele>155.0</ele>
        <time>2022-08-27T11:06:42Z</time>
      </trkpt>
      <trkpt lat="42.2389390" lon="-8.1756510">
        <ele>153.8</ele>
        <time>2022-08-27T11:06:44Z</time>
      </trkpt>
      <trkpt lat="42.2388500" lon="-8.1756900">
        <ele>153.2</ele>
        <time>2022-08-27T11:06:45Z</time>
      </trkpt>
      <trkpt lat="42.2386770" lon="-8.1757650">
        <ele>152.2</ele>
        <time>2022-08-27T11:06:47Z</time>
      </trkpt>
      <trkpt lat="42.2383520" lon="-8.1759070">
        <ele>151.2</ele>
        <time>2022-08-27T11:06:51Z</time>
      </trkpt>
      <trkpt lat="42.2382740" lon="-8.1759420">
        <ele>151.2</ele>
        <time>2022-08-27T11:06:52Z</time>
      </trkpt>
      <trkpt lat="42.2377450" lon="-8.1761730">
        <ele>150.6</ele>
        <time>2022-08-27T11:06:59Z</time>
      </trkpt>
      <trkpt lat="42.2375970" lon="-8.1762370">
        <ele>150.4</ele>
        <time>2022-08-27T11:07:01Z</time>
      </trkpt>
      <trkpt lat="42.2374510" lon="-8.1763000">
        <ele>150.2</ele>
        <time>2022-08-27T11:07:03Z</time>
      </trkpt>
      <trkpt lat="42.2368860" lon="-8.1765520">
        <ele>149.6</ele>
        <time>2022-08-27T11:07:11Z</time>
      </trkpt>
      <trkpt lat="42.2366760" lon="-8.1766430">
        <ele>149.0</ele>
        <time>2022-08-27T11:07:14Z</time>
      </trkpt>
      <trkpt lat="42.2361750" lon="-8.1768350">
        <ele>148.0</ele>
        <time>2022-08-27T11:07:21Z</time>
      </trkpt>
      <trkpt lat="42.2361010" lon="-8.1768560">
        <ele>148.0</ele>
        <time>2022-08-27T11:07:22Z</time>
      </trkpt>
      <trkpt lat="42.2357130" lon="-8.1768970">
        <ele>146.6</ele>
        <time>2022-08-27T11:07:27Z</time>
      </trkpt>
      <trkpt lat="42.2353850" lon="-8.1768710">
        <ele>145.6</ele>
        <time>2022-08-27T11:07:31Z</time>
      </trkpt>
      <trkpt lat="42.2353010" lon="-8.1768590">
        <ele>145.4</ele>
        <time>2022-08-27T11:07:32Z</time>
      </trkpt>
      <trkpt lat="42.2350430" lon="-8.1768270">
        <ele>144.4</ele>
        <time>2022-08-27T11:07:35Z</time>
      </trkpt>
      <trkpt lat="42.2347830" lon="-8.1767970">
        <ele>143.2</ele>
        <time>2022-08-27T11:07:38Z</time>
      </trkpt>
      <trkpt lat="42.2344280" lon="-8.1767590">
        <ele>142.4</ele>
        <time>2022-08-27T11:07:42Z</time>
      </trkpt>
      <trkpt lat="42.2343400" lon="-8.1767480">
        <ele>142.0</ele>
        <time>2022-08-27T11:07:43Z</time>
      </trkpt>
      <trkpt lat="42.2339120" lon="-8.1766960">
        <ele>140.6</ele>
        <time>2022-08-27T11:07:48Z</time>
      </trkpt>
      <trkpt lat="42.2335810" lon="-8.1766570">
        <ele>139.6</ele>
        <time>2022-08-27T11:07:52Z</time>
      </trkpt>
      <trkpt lat="42.2331150" lon="-8.1766310">
        <ele>138.4</ele>
        <time>2022-08-27T11:07:58Z</time>
      </trkpt>
      <trkpt lat="42.2329730" lon="-8.1766360">
        <ele>138.0</ele>
        <time>2022-08-27T11:08:00Z</time>
      </trkpt>
      <trkpt lat="42.2326670" lon="-8.1767130">
        <ele>137.8</ele>
        <time>2022-08-27T11:08:05Z</time>
      </trkpt>
      <trkpt lat="42.2323870" lon="-8.1768240">
        <ele>138.2</ele>
        <time>2022-08-27T11:08:11Z</time>
      </trkpt>
      <trkpt lat="42.2321590" lon="-8.1769230">
        <ele>139.6</ele>
        <time>2022-08-27T11:08:18Z</time>
      </trkpt>
      <trkpt lat="42.2320040" lon="-8.1769950">
        <ele>140.8</ele>
        <time>2022-08-27T11:08:24Z</time>
      </trkpt>
      <trkpt lat="42.2319560" lon="-8.1770150">
        <ele>141.2</ele>
        <time>2022-08-27T11:08:26Z</time>
      </trkpt>
      <trkpt lat="42.2318750" lon="-8.1770510">
        <ele>142.0</ele>
        <time>2022-08-27T11:08:30Z</time>
      </trkpt>
      <trkpt lat="42.2317920" lon="-8.1770840">
        <ele>142.8</ele>
        <time>2022-08-27T11:08:34Z</time>
      </trkpt>
      <trkpt lat="42.2317710" lon="-8.1770930">
        <ele>143.0</ele>
        <time>2022-08-27T11:08:35Z</time>
      </trkpt>
      <trkpt lat="42.2316190" lon="-8.1771360">
        <ele>144.2</ele>
        <time>2022-08-27T11:08:42Z</time>
      </trkpt>
      <trkpt lat="42.2315970" lon="-8.1771400">
        <ele>144.4</ele>
        <time>2022-08-27T11:08:43Z</time>
      </trkpt>
      <trkpt lat="42.2314890" lon="-8.1771580">
        <ele>145.2</ele>
        <time>2022-08-27T11:08:48Z</time>
      </trkpt>
      <trkpt lat="42.2314020" lon="-8.1771690">
        <ele>145.8</ele>
        <time>2022-08-27T11:08:52Z</time>
      </trkpt>
      <trkpt lat="42.2313150" lon="-8.1771870">
        <ele>146.4</ele>
        <time>2022-08-27T11:08:56Z</time>
      </trkpt>
      <trkpt lat="42.2312130" lon="-8.1771950">
        <ele>147.4</ele>
        <time>2022-08-27T11:09:01Z</time>
      </trkpt>
      <trkpt lat="42.2310750" lon="-8.1771950">
        <ele>148.8</ele>
        <time>2022-08-27T11:09:08Z</time>
      </trkpt>
      <trkpt lat="42.2310170" lon="-8.1771880">
        <ele>149.2</ele>
        <time>2022-08-27T11:09:11Z</time>
      </trkpt>
      <trkpt lat="42.2309150" lon="-8.1771790">
        <ele>149.8</ele>
        <time>2022-08-27T11:09:16Z</time>
      </trkpt>
      <trkpt lat="42.2308540" lon="-8.1771670">
        <ele>150.4</ele>
        <time>2022-08-27T11:09:19Z</time>
      </trkpt>
      <trkpt lat="42.2308100" lon="-8.1771600">
        <ele>151.0</ele>
        <time>2022-08-27T11:09:21Z</time>
      </trkpt>
      <trkpt lat="42.2306870" lon="-8.1771380">
        <ele>152.2</ele>
        <time>2022-08-27T11:09:27Z</time>
      </trkpt>
      <trkpt lat="42.2306480" lon="-8.1771300">
        <ele>152.4</ele>
        <time>2022-08-27T11:09:29Z</time>
      </trkpt>
      <trkpt lat="42.2305710" lon="-8.1771100">
        <ele>153.2</ele>
        <time>2022-08-27T11:09:33Z</time>
      </trkpt>
      <trkpt lat="42.2304910" lon="-8.1770870">
        <ele>153.8</ele>
        <time>2022-08-27T11:09:37Z</time>
      </trkpt>
      <trkpt lat="42.2304110" lon="-8.1770570">
        <ele>154.2</ele>
        <time>2022-08-27T11:09:41Z</time>
      </trkpt>
      <trkpt lat="42.2303120" lon="-8.1770280">
        <ele>155.0</ele>
        <time>2022-08-27T11:09:46Z</time>
      </trkpt>
      <trkpt lat="42.2302700" lon="-8.1770150">
        <ele>155.4</ele>
        <time>2022-08-27T11:09:48Z</time>
      </trkpt>
      <trkpt lat="42.2301440" lon="-8.1769580">
        <ele>156.4</ele>
        <time>2022-08-27T11:09:54Z</time>
      </trkpt>
      <trkpt lat="42.2300840" lon="-8.1769320">
        <ele>157.2</ele>
        <time>2022-08-27T11:09:57Z</time>
      </trkpt>
      <trkpt lat="42.2300280" lon="-8.1769030">
        <ele>157.6</ele>
        <time>2022-08-27T11:10:00Z</time>
      </trkpt>
      <trkpt lat="42.2299100" lon="-8.1768360">
        <ele>158.4</ele>
        <time>2022-08-27T11:10:06Z</time>
      </trkpt>
      <trkpt lat="42.2298700" lon="-8.1768140">
        <ele>158.8</ele>
        <time>2022-08-27T11:10:08Z</time>
      </trkpt>
      <trkpt lat="42.2297520" lon="-8.1767480">
        <ele>159.8</ele>
        <time>2022-08-27T11:10:14Z</time>
      </trkpt>
      <trkpt lat="42.2297140" lon="-8.1767240">
        <ele>160.2</ele>
        <time>2022-08-27T11:10:16Z</time>
      </trkpt>
      <trkpt lat="42.2296380" lon="-8.1766740">
        <ele>160.8</ele>
        <time>2022-08-27T11:10:20Z</time>
      </trkpt>
      <trkpt lat="42.2295410" lon="-8.1766080">
        <ele>161.8</ele>
        <time>2022-08-27T11:10:25Z</time>
      </trkpt>
      <trkpt lat="42.2294100" lon="-8.1765140">
        <ele>163.0</ele>
        <time>2022-08-27T11:10:32Z</time>
      </trkpt>
      <trkpt lat="42.2293710" lon="-8.1764880">
        <ele>163.6</ele>
        <time>2022-08-27T11:10:34Z</time>
      </trkpt>
      <trkpt lat="42.2293130" lon="-8.1764470">
        <ele>164.2</ele>
        <time>2022-08-27T11:10:37Z</time>
      </trkpt>
      <trkpt lat="42.2291930" lon="-8.1763640">
        <ele>165.0</ele>
        <time>2022-08-27T11:10:43Z</time>
      </trkpt>
      <trkpt lat="42.2291540" lon="-8.1763380">
        <ele>165.4</ele>
        <time>2022-08-27T11:10:45Z</time>
      </trkpt>
      <trkpt lat="42.2290580" lon="-8.1762720">
        <ele>166.4</ele>
        <time>2022-08-27T11:10:50Z</time>
      </trkpt>
      <trkpt lat="42.2289780" lon="-8.1762240">
        <ele>167.2</ele>
        <time>2022-08-27T11:10:54Z</time>
      </trkpt>
      <trkpt lat="42.2289570" lon="-8.1762120">
        <ele>167.4</ele>
        <time>2022-08-27T11:10:55Z</time>
      </trkpt>
      <trkpt lat="42.2287770" lon="-8.1761200">
        <ele>168.6</ele>
        <time>2022-08-27T11:11:03Z</time>
      </trkpt>
      <trkpt lat="42.2287270" lon="-8.1760990">
        <ele>169.2</ele>
        <time>2022-08-27T11:11:05Z</time>
      </trkpt>
      <trkpt lat="42.2286550" lon="-8.1760700">
        <ele>169.8</ele>
        <time>2022-08-27T11:11:08Z</time>
      </trkpt>
      <trkpt lat="42.2285090" lon="-8.1760220">
        <ele>171.0</ele>
        <time>2022-08-27T11:11:14Z</time>
      </trkpt>
      <trkpt lat="42.2284100" lon="-8.1760000">
        <ele>172.0</ele>
        <time>2022-08-27T11:11:18Z</time>
      </trkpt>
      <trkpt lat="42.2283850" lon="-8.1759960">
        <ele>172.2</ele>
        <time>2022-08-27T11:11:19Z</time>
      </trkpt>
      <trkpt lat="42.2282760" lon="-8.1759800">
        <ele>172.8</ele>
        <time>2022-08-27T11:11:23Z</time>
      </trkpt>
      <trkpt lat="42.2282480" lon="-8.1759760">
        <ele>173.0</ele>
        <time>2022-08-27T11:11:24Z</time>
      </trkpt>
      <trkpt lat="42.2280790" lon="-8.1759700">
        <ele>173.8</ele>
        <time>2022-08-27T11:11:30Z</time>
      </trkpt>
      <trkpt lat="42.2280510" lon="-8.1759710">
        <ele>174.0</ele>
        <time>2022-08-27T11:11:31Z</time>
      </trkpt>
      <trkpt lat="42.2278260" lon="-8.1759810">
        <ele>174.8</ele>
        <time>2022-08-27T11:11:38Z</time>
      </trkpt>
      <trkpt lat="42.2277550" lon="-8.1759970">
        <ele>175.2</ele>
        <time>2022-08-27T11:11:40Z</time>
      </trkpt>
      <trkpt lat="42.2275260" lon="-8.1760480">
        <ele>175.6</ele>
        <time>2022-08-27T11:11:46Z</time>
      </trkpt>
      <trkpt lat="42.2271620" lon="-8.1762030">
        <ele>175.8</ele>
        <time>2022-08-27T11:11:54Z</time>
      </trkpt>
      <trkpt lat="42.2268100" lon="-8.1764430">
        <ele>175.6</ele>
        <time>2022-08-27T11:12:00Z</time>
      </trkpt>
      <trkpt lat="42.2264750" lon="-8.1767840">
        <ele>174.6</ele>
        <time>2022-08-27T11:12:05Z</time>
      </trkpt>
      <trkpt lat="42.2263380" lon="-8.1769750">
        <ele>174.0</ele>
        <time>2022-08-27T11:12:07Z</time>
      </trkpt>
      <trkpt lat="42.2262000" lon="-8.1772010">
        <ele>173.4</ele>
        <time>2022-08-27T11:12:09Z</time>
      </trkpt>
      <trkpt lat="42.2261360" lon="-8.1773250">
        <ele>172.8</ele>
        <time>2022-08-27T11:12:10Z</time>
      </trkpt>
      <trkpt lat="42.2260180" lon="-8.1775950">
        <ele>171.6</ele>
        <time>2022-08-27T11:12:12Z</time>
      </trkpt>
      <trkpt lat="42.2259640" lon="-8.1777380">
        <ele>170.8</ele>
        <time>2022-08-27T11:12:13Z</time>
      </trkpt>
      <trkpt lat="42.2259140" lon="-8.1778850">
        <ele>170.0</ele>
        <time>2022-08-27T11:12:14Z</time>
      </trkpt>
      <trkpt lat="42.2258280" lon="-8.1781930">
        <ele>168.2</ele>
        <time>2022-08-27T11:12:16Z</time>
      </trkpt>
      <trkpt lat="42.2257470" lon="-8.1785120">
        <ele>166.8</ele>
        <time>2022-08-27T11:12:18Z</time>
      </trkpt>
      <trkpt lat="42.2256650" lon="-8.1788380">
        <ele>165.0</ele>
        <time>2022-08-27T11:12:20Z</time>
      </trkpt>
      <trkpt lat="42.2255830" lon="-8.1791710">
        <ele>163.4</ele>
        <time>2022-08-27T11:12:22Z</time>
      </trkpt>
      <trkpt lat="42.2255000" lon="-8.1795010">
        <ele>161.6</ele>
        <time>2022-08-27T11:12:24Z</time>
      </trkpt>
      <trkpt lat="42.2254190" lon="-8.1798220">
        <ele>159.6</ele>
        <time>2022-08-27T11:12:26Z</time>
      </trkpt>
      <trkpt lat="42.2253800" lon="-8.1799790">
        <ele>158.6</ele>
        <time>2022-08-27T11:12:27Z</time>
      </trkpt>
      <trkpt lat="42.2253430" lon="-8.1801330">
        <ele>157.4</ele>
        <time>2022-08-27T11:12:28Z</time>
      </trkpt>
      <trkpt lat="42.2252770" lon="-8.1804330">
        <ele>155.8</ele>
        <time>2022-08-27T11:12:30Z</time>
      </trkpt>
      <trkpt lat="42.2252460" lon="-8.1805790">
        <ele>154.6</ele>
        <time>2022-08-27T11:12:31Z</time>
      </trkpt>
      <trkpt lat="42.2251860" lon="-8.1808550">
        <ele>153.2</ele>
        <time>2022-08-27T11:12:33Z</time>
      </trkpt>
      <trkpt lat="42.2251210" lon="-8.1811120">
        <ele>152.0</ele>
        <time>2022-08-27T11:12:35Z</time>
      </trkpt>
      <trkpt lat="42.2250590" lon="-8.1813560">
        <ele>150.4</ele>
        <time>2022-08-27T11:12:37Z</time>
      </trkpt>
      <trkpt lat="42.2250030" lon="-8.1815820">
        <ele>149.4</ele>
        <time>2022-08-27T11:12:39Z</time>
      </trkpt>
      <trkpt lat="42.2249780" lon="-8.1816890">
        <ele>149.4</ele>
        <time>2022-08-27T11:12:40Z</time>
      </trkpt>
      <trkpt lat="42.2248490" lon="-8.1821720">
        <ele>149.0</ele>
        <time>2022-08-27T11:12:45Z</time>
      </trkpt>
      <trkpt lat="42.2247100" lon="-8.1826880">
        <ele>149.2</ele>
        <time>2022-08-27T11:12:51Z</time>
      </trkpt>
      <trkpt lat="42.2245670" lon="-8.1831520">
        <ele>149.4</ele>
        <time>2022-08-27T11:12:57Z</time>
      </trkpt>
      <trkpt lat="42.2243450" lon="-8.1836380">
        <ele>149.8</ele>
        <time>2022-08-27T11:13:04Z</time>
      </trkpt>
      <trkpt lat="42.2241130" lon="-8.1840420">
        <ele>150.2</ele>
        <time>2022-08-27T11:13:10Z</time>
      </trkpt>
      <trkpt lat="42.2240730" lon="-8.1841080">
        <ele>150.4</ele>
        <time>2022-08-27T11:13:11Z</time>
      </trkpt>
      <trkpt lat="42.2239900" lon="-8.1842270">
        <ele>150.4</ele>
        <time>2022-08-27T11:13:13Z</time>
      </trkpt>
      <trkpt lat="42.2238080" lon="-8.1844310">
        <ele>150.8</ele>
        <time>2022-08-27T11:13:17Z</time>
      </trkpt>
      <trkpt lat="42.2235240" lon="-8.1847250">
        <ele>151.0</ele>
        <time>2022-08-27T11:13:23Z</time>
      </trkpt>
      <trkpt lat="42.2230810" lon="-8.1851700">
        <ele>151.2</ele>
        <time>2022-08-27T11:13:32Z</time>
      </trkpt>
      <trkpt lat="42.2229890" lon="-8.1852700">
        <ele>151.2</ele>
        <time>2022-08-27T11:13:34Z</time>
      </trkpt>
      <trkpt lat="42.2227050" lon="-8.1856230">
        <ele>151.2</ele>
        <time>2022-08-27T11:13:41Z</time>
      </trkpt>
      <trkpt lat="42.2226240" lon="-8.1857200">
        <ele>151.2</ele>
        <time>2022-08-27T11:13:43Z</time>
      </trkpt>
      <trkpt lat="42.2221910" lon="-8.1862610">
        <ele>151.6</ele>
        <time>2022-08-27T11:13:54Z</time>
      </trkpt>
      <trkpt lat="42.2219420" lon="-8.1865850">
        <ele>152.0</ele>
        <time>2022-08-27T11:14:01Z</time>
      </trkpt>
      <trkpt lat="42.2216490" lon="-8.1869600">
        <ele>152.0</ele>
        <time>2022-08-27T11:14:09Z</time>
      </trkpt>
      <trkpt lat="42.2214920" lon="-8.1872040">
        <ele>152.2</ele>
        <time>2022-08-27T11:14:14Z</time>
      </trkpt>
      <trkpt lat="42.2214600" lon="-8.1873070">
        <ele>152.2</ele>
        <time>2022-08-27T11:14:16Z</time>
      </trkpt>
      <trkpt lat="42.2214430" lon="-8.1874660">
        <ele>152.4</ele>
        <time>2022-08-27T11:14:19Z</time>
      </trkpt>
      <trkpt lat="42.2214360" lon="-8.1875190">
        <ele>152.6</ele>
        <time>2022-08-27T11:14:20Z</time>
      </trkpt>
      <trkpt lat="42.2213970" lon="-8.1876160">
        <ele>152.6</ele>
        <time>2022-08-27T11:14:22Z</time>
      </trkpt>
      <trkpt lat="42.2212440" lon="-8.1877210">
        <ele>152.8</ele>
        <time>2022-08-27T11:14:26Z</time>
      </trkpt>
      <trkpt lat="42.2211420" lon="-8.1877100">
        <ele>152.8</ele>
        <time>2022-08-27T11:14:28Z</time>
      </trkpt>
      <trkpt lat="42.2210880" lon="-8.1877130">
        <ele>152.8</ele>
        <time>2022-08-27T11:14:29Z</time>
      </trkpt>
      <trkpt lat="42.2210330" lon="-8.1877350">
        <ele>152.8</ele>
        <time>2022-08-27T11:14:30Z</time>
      </trkpt>
      <trkpt lat="42.2208780" lon="-8.1879000">
        <ele>152.8</ele>
        <time>2022-08-27T11:14:33Z</time>
      </trkpt>
      <trkpt lat="42.2205990" lon="-8.1882840">
        <ele>152.2</ele>
        <time>2022-08-27T11:14:38Z</time>
      </trkpt>
      <trkpt lat="42.2203910" lon="-8.1885320">
        <ele>151.2</ele>
        <time>2022-08-27T11:14:41Z</time>
      </trkpt>
      <trkpt lat="42.2202280" lon="-8.1886800">
        <ele>150.2</ele>
        <time>2022-08-27T11:14:43Z</time>
      </trkpt>
      <trkpt lat="42.2201380" lon="-8.1887450">
        <ele>149.6</ele>
        <time>2022-08-27T11:14:44Z</time>
      </trkpt>
      <trkpt lat="42.2199550" lon="-8.1888790">
        <ele>148.6</ele>
        <time>2022-08-27T11:14:46Z</time>
      </trkpt>
      <trkpt lat="42.2197580" lon="-8.1890040">
        <ele>147.2</ele>
        <time>2022-08-27T11:14:48Z</time>
      </trkpt>
      <trkpt lat="42.2196560" lon="-8.1890670">
        <ele>146.6</ele>
        <time>2022-08-27T11:14:49Z</time>
      </trkpt>
      <trkpt lat="42.2195500" lon="-8.1891280">
        <ele>146.0</ele>
        <time>2022-08-27T11:14:50Z</time>
      </trkpt>
      <trkpt lat="42.2193360" lon="-8.1892540">
        <ele>144.8</ele>
        <time>2022-08-27T11:14:52Z</time>
      </trkpt>
      <trkpt lat="42.2190090" lon="-8.1894360">
        <ele>143.0</ele>
        <time>2022-08-27T11:14:55Z</time>
      </trkpt>
      <trkpt lat="42.2189060" lon="-8.1894900">
        <ele>141.6</ele>
        <time>2022-08-27T11:14:56Z</time>
      </trkpt>
      <trkpt lat="42.2188080" lon="-8.1895420">
        <ele>140.4</ele>
        <time>2022-08-27T11:14:57Z</time>
      </trkpt>
      <trkpt lat="42.2187170" lon="-8.1895910">
        <ele>139.2</ele>
        <time>2022-08-27T11:14:58Z</time>
      </trkpt>
      <trkpt lat="42.2186330" lon="-8.1896350">
        <ele>137.2</ele>
        <time>2022-08-27T11:14:59Z</time>
      </trkpt>
      <trkpt lat="42.2184800" lon="-8.1897170">
        <ele>135.6</ele>
        <time>2022-08-27T11:15:01Z</time>
      </trkpt>
      <trkpt lat="42.2182840" lon="-8.1898280">
        <ele>133.4</ele>
        <time>2022-08-27T11:15:04Z</time>
      </trkpt>
      <trkpt lat="42.2182360" lon="-8.1898610">
        <ele>131.6</ele>
        <time>2022-08-27T11:15:05Z</time>
      </trkpt>
      <trkpt lat="42.2181980" lon="-8.1898910">
        <ele>130.4</ele>
        <time>2022-08-27T11:15:06Z</time>
      </trkpt>
      <trkpt lat="42.2181660" lon="-8.1899160">
        <ele>129.2</ele>
        <time>2022-08-27T11:15:07Z</time>
      </trkpt>
      <trkpt lat="42.2181250" lon="-8.1899490">
        <ele>127.4</ele>
        <time>2022-08-27T11:15:09Z</time>
      </trkpt>
      <trkpt lat="42.2181170" lon="-8.1899560">
        <ele>126.2</ele>
        <time>2022-08-27T11:15:11Z</time>
      </trkpt>
      <trkpt lat="42.2180720" lon="-8.1899940">
        <ele>123.0</ele>
        <time>2022-08-27T11:16:58Z</time>
      </trkpt>
      <trkpt lat="42.2180070" lon="-8.1900310">
        <ele>123.0</ele>
        <time>2022-08-27T11:17:00Z</time>
      </trkpt>
      <trkpt lat="42.2177450" lon="-8.1902060">
        <ele>122.8</ele>
        <time>2022-08-27T11:17:06Z</time>
      </trkpt>
      <trkpt lat="42.2174080" lon="-8.1904230">
        <ele>121.8</ele>
        <time>2022-08-27T11:17:13Z</time>
      </trkpt>
      <trkpt lat="42.2173160" lon="-8.1904880">
        <ele>121.6</ele>
        <time>2022-08-27T11:17:15Z</time>
      </trkpt>
      <trkpt lat="42.2170360" lon="-8.1907590">
        <ele>121.2</ele>
        <time>2022-08-27T11:17:22Z</time>
      </trkpt>
      <trkpt lat="42.2168280" lon="-8.1910200">
        <ele>121.6</ele>
        <time>2022-08-27T11:17:29Z</time>
      </trkpt>
      <trkpt lat="42.2167100" lon="-8.1912040">
        <ele>122.4</ele>
        <time>2022-08-27T11:17:35Z</time>
      </trkpt>
      <trkpt lat="42.2166700" lon="-8.1912670">
        <ele>122.8</ele>
        <time>2022-08-27T11:17:37Z</time>
      </trkpt>
      <trkpt lat="42.2165880" lon="-8.1914350">
        <ele>123.8</ele>
        <time>2022-08-27T11:17:42Z</time>
      </trkpt>
      <trkpt lat="42.2165700" lon="-8.1914690">
        <ele>124.0</ele>
        <time>2022-08-27T11:17:43Z</time>
      </trkpt>
      <trkpt lat="42.2164740" lon="-8.1916430">
        <ele>125.0</ele>
        <time>2022-08-27T11:17:48Z</time>
      </trkpt>
      <trkpt lat="42.2164550" lon="-8.1916800">
        <ele>125.2</ele>
        <time>2022-08-27T11:17:49Z</time>
      </trkpt>
      <trkpt lat="42.2163260" lon="-8.1919360">
        <ele>125.8</ele>
        <time>2022-08-27T11:17:56Z</time>
      </trkpt>
      <trkpt lat="42.2162730" lon="-8.1920480">
        <ele>126.2</ele>
        <time>2022-08-27T11:17:59Z</time>
      </trkpt>
      <trkpt lat="42.2161500" lon="-8.1922530">
        <ele>126.8</ele>
        <time>2022-08-27T11:18:05Z</time>
      </trkpt>
      <trkpt lat="42.2160250" lon="-8.1924460">
        <ele>127.4</ele>
        <time>2022-08-27T11:18:11Z</time>
      </trkpt>
      <trkpt lat="42.2159660" lon="-8.1925320">
        <ele>128.0</ele>
        <time>2022-08-27T11:18:14Z</time>
      </trkpt>
      <trkpt lat="42.2159240" lon="-8.1925850">
        <ele>128.6</ele>
        <time>2022-08-27T11:18:16Z</time>
      </trkpt>
      <trkpt lat="42.2157890" lon="-8.1927240">
        <ele>129.8</ele>
        <time>2022-08-27T11:18:22Z</time>
      </trkpt>
      <trkpt lat="42.2157660" lon="-8.1927460">
        <ele>129.8</ele>
        <time>2022-08-27T11:18:23Z</time>
      </trkpt>
      <trkpt lat="42.2156470" lon="-8.1928580">
        <ele>130.8</ele>
        <time>2022-08-27T11:18:28Z</time>
      </trkpt>
      <trkpt lat="42.2155160" lon="-8.1929700">
        <ele>131.4</ele>
        <time>2022-08-27T11:18:33Z</time>
      </trkpt>
      <trkpt lat="42.2153950" lon="-8.1930460">
        <ele>132.0</ele>
        <time>2022-08-27T11:18:37Z</time>
      </trkpt>
      <trkpt lat="42.2152670" lon="-8.1931150">
        <ele>132.4</ele>
        <time>2022-08-27T11:18:41Z</time>
      </trkpt>
      <trkpt lat="42.2150740" lon="-8.1931960">
        <ele>133.0</ele>
        <time>2022-08-27T11:18:46Z</time>
      </trkpt>
      <trkpt lat="42.2149480" lon="-8.1932440">
        <ele>133.2</ele>
        <time>2022-08-27T11:18:49Z</time>
      </trkpt>
      <trkpt lat="42.2149010" lon="-8.1932550">
        <ele>133.2</ele>
        <time>2022-08-27T11:18:50Z</time>
      </trkpt>
      <trkpt lat="42.2146400" lon="-8.1932990">
        <ele>133.2</ele>
        <time>2022-08-27T11:18:55Z</time>
      </trkpt>
      <trkpt lat="42.2141450" lon="-8.1933890">
        <ele>133.0</ele>
        <time>2022-08-27T11:19:04Z</time>
      </trkpt>
      <trkpt lat="42.2137300" lon="-8.1935310">
        <ele>132.4</ele>
        <time>2022-08-27T11:19:12Z</time>
      </trkpt>
      <trkpt lat="42.2133840" lon="-8.1937890">
        <ele>132.4</ele>
        <time>2022-08-27T11:19:20Z</time>
      </trkpt>
      <trkpt lat="42.2130260" lon="-8.1942180">
        <ele>133.2</ele>
        <time>2022-08-27T11:19:30Z</time>
      </trkpt>
      <trkpt lat="42.2127240" lon="-8.1946030">
        <ele>134.2</ele>
        <time>2022-08-27T11:19:39Z</time>
      </trkpt>
      <trkpt lat="42.2124680" lon="-8.1948490">
        <ele>135.0</ele>
        <time>2022-08-27T11:19:46Z</time>
      </trkpt>
      <trkpt lat="42.2123040" lon="-8.1949470">
        <ele>135.4</ele>
        <time>2022-08-27T11:19:50Z</time>
      </trkpt>
      <trkpt lat="42.2121740" lon="-8.1949910">
        <ele>135.4</ele>
        <time>2022-08-27T11:19:53Z</time>
      </trkpt>
      <trkpt lat="42.2118010" lon="-8.1950170">
        <ele>136.2</ele>
        <time>2022-08-27T11:20:01Z</time>
      </trkpt>
      <trkpt lat="42.2115320" lon="-8.1949580">
        <ele>136.4</ele>
        <time>2022-08-27T11:20:07Z</time>
      </trkpt>
      <trkpt lat="42.2114920" lon="-8.1949540">
        <ele>136.4</ele>
        <time>2022-08-27T11:20:08Z</time>
      </trkpt>
      <trkpt lat="42.2114450" lon="-8.1949590">
        <ele>136.4</ele>
        <time>2022-08-27T11:20:11Z</time>
      </trkpt>
      <trkpt lat="42.2114460" lon="-8.1949590">
        <ele>136.4</ele>
        <time>2022-08-27T11:20:13Z</time>
      </trkpt>
      <trkpt lat="42.2114050" lon="-8.1949370">
        <ele>136.2</ele>
        <time>2022-08-27T11:23:05Z</time>
      </trkpt>
      <trkpt lat="42.2113610" lon="-8.1949050">
        <ele>136.2</ele>
        <time>2022-08-27T11:23:07Z</time>
      </trkpt>
      <trkpt lat="42.2111630" lon="-8.1947990">
        <ele>136.0</ele>
        <time>2022-08-27T11:23:13Z</time>
      </trkpt>
      <trkpt lat="42.2109390" lon="-8.1947140">
        <ele>136.0</ele>
        <time>2022-08-27T11:23:18Z</time>
      </trkpt>
      <trkpt lat="42.2108890" lon="-8.1946990">
        <ele>136.0</ele>
        <time>2022-08-27T11:23:19Z</time>
      </trkpt>
      <trkpt lat="42.2108370" lon="-8.1946910">
        <ele>135.8</ele>
        <time>2022-08-27T11:23:20Z</time>
      </trkpt>
      <trkpt lat="42.2104990" lon="-8.1947010">
        <ele>135.2</ele>
        <time>2022-08-27T11:23:26Z</time>
      </trkpt>
      <trkpt lat="42.2103830" lon="-8.1947380">
        <ele>135.0</ele>
        <time>2022-08-27T11:23:28Z</time>
      </trkpt>
      <trkpt lat="42.2101670" lon="-8.1948360">
        <ele>134.4</ele>
        <time>2022-08-27T11:23:32Z</time>
      </trkpt>
      <trkpt lat="42.2100510" lon="-8.1948880">
        <ele>133.8</ele>
        <time>2022-08-27T11:23:34Z</time>
      </trkpt>
      <trkpt lat="42.2098060" lon="-8.1950010">
        <ele>133.2</ele>
        <time>2022-08-27T11:23:38Z</time>
      </trkpt>
      <trkpt lat="42.2095700" lon="-8.1950670">
        <ele>132.8</ele>
        <time>2022-08-27T11:23:42Z</time>
      </trkpt>
      <trkpt lat="42.2094570" lon="-8.1950960">
        <ele>132.6</ele>
        <time>2022-08-27T11:23:44Z</time>
      </trkpt>
      <trkpt lat="42.2091920" lon="-8.1951610">
        <ele>132.4</ele>
        <time>2022-08-27T11:23:49Z</time>
      </trkpt>
      <trkpt lat="42.2089860" lon="-8.1951730">
        <ele>132.4</ele>
        <time>2022-08-27T11:23:53Z</time>
      </trkpt>
      <trkpt lat="42.2089360" lon="-8.1951710">
        <ele>132.4</ele>
        <time>2022-08-27T11:23:54Z</time>
      </trkpt>
      <trkpt lat="42.2085540" lon="-8.1950580">
        <ele>133.2</ele>
        <time>2022-08-27T11:24:02Z</time>
      </trkpt>
      <trkpt lat="42.2082930" lon="-8.1949950">
        <ele>134.0</ele>
        <time>2022-08-27T11:24:08Z</time>
      </trkpt>
      <trkpt lat="42.2082530" lon="-8.1949820">
        <ele>134.0</ele>
        <time>2022-08-27T11:24:09Z</time>
      </trkpt>
      <trkpt lat="42.2079850" lon="-8.1948640">
        <ele>134.8</ele>
        <time>2022-08-27T11:24:16Z</time>
      </trkpt>
      <trkpt lat="42.2079160" lon="-8.1948270">
        <ele>135.0</ele>
        <time>2022-08-27T11:24:18Z</time>
      </trkpt>
      <trkpt lat="42.2076820" lon="-8.1946770">
        <ele>135.8</ele>
        <time>2022-08-27T11:24:25Z</time>
      </trkpt>
      <trkpt lat="42.2074350" lon="-8.1944660">
        <ele>136.6</ele>
        <time>2022-08-27T11:24:33Z</time>
      </trkpt>
      <trkpt lat="42.2073910" lon="-8.1944080">
        <ele>136.8</ele>
        <time>2022-08-27T11:24:35Z</time>
      </trkpt>
      <trkpt lat="42.2072700" lon="-8.1942410">
        <ele>137.6</ele>
        <time>2022-08-27T11:24:40Z</time>
      </trkpt>
      <trkpt lat="42.2071780" lon="-8.1940420">
        <ele>138.0</ele>
        <time>2022-08-27T11:24:44Z</time>
      </trkpt>
      <trkpt lat="42.2071110" lon="-8.1938560">
        <ele>138.4</ele>
        <time>2022-08-27T11:24:48Z</time>
      </trkpt>
      <trkpt lat="42.2070640" lon="-8.1937190">
        <ele>138.8</ele>
        <time>2022-08-27T11:24:51Z</time>
      </trkpt>
      <trkpt lat="42.2070000" lon="-8.1934920">
        <ele>139.4</ele>
        <time>2022-08-27T11:24:56Z</time>
      </trkpt>
      <trkpt lat="42.2069660" lon="-8.1933780">
        <ele>140.0</ele>
        <time>2022-08-27T11:24:59Z</time>
      </trkpt>
      <trkpt lat="42.2069300" lon="-8.1932190">
        <ele>140.6</ele>
        <time>2022-08-27T11:25:03Z</time>
      </trkpt>
      <trkpt lat="42.2069110" lon="-8.1931530">
        <ele>141.0</ele>
        <time>2022-08-27T11:25:05Z</time>
      </trkpt>
      <trkpt lat="42.2068910" lon="-8.1930960">
        <ele>141.6</ele>
        <time>2022-08-27T11:25:08Z</time>
      </trkpt>
      <trkpt lat="42.2068710" lon="-8.1930860">
        <ele>142.0</ele>
        <time>2022-08-27T11:25:10Z</time>
      </trkpt>
      <trkpt lat="42.2068620" lon="-8.1931140">
        <ele>142.2</ele>
        <time>2022-08-27T11:25:12Z</time>
      </trkpt>
      <trkpt lat="42.2068340" lon="-8.1933020">
        <ele>142.6</ele>
        <time>2022-08-27T11:25:19Z</time>
      </trkpt>
      <trkpt lat="42.2068290" lon="-8.1933530">
        <ele>142.8</ele>
        <time>2022-08-27T11:25:21Z</time>
      </trkpt>
      <trkpt lat="42.2068290" lon="-8.1933950">
        <ele>143.2</ele>
        <time>2022-08-27T11:25:23Z</time>
      </trkpt>
      <trkpt lat="42.2068280" lon="-8.1934620">
        <ele>144.2</ele>
        <time>2022-08-27T11:25:26Z</time>
      </trkpt>
      <trkpt lat="42.2068240" lon="-8.1935830">
        <ele>145.2</ele>
        <time>2022-08-27T11:25:30Z</time>
      </trkpt>
      <trkpt lat="42.2068330" lon="-8.1936080">
        <ele>145.4</ele>
        <time>2022-08-27T11:25:31Z</time>
      </trkpt>
      <trkpt lat="42.2068380" lon="-8.1936360">
        <ele>145.6</ele>
        <time>2022-08-27T11:25:32Z</time>
      </trkpt>
      <trkpt lat="42.2068620" lon="-8.1937640">
        <ele>146.2</ele>
        <time>2022-08-27T11:25:37Z</time>
      </trkpt>
      <trkpt lat="42.2068740" lon="-8.1938040">
        <ele>146.2</ele>
        <time>2022-08-27T11:25:39Z</time>
      </trkpt>
      <trkpt lat="42.2068870" lon="-8.1938640">
        <ele>146.4</ele>
        <time>2022-08-27T11:25:42Z</time>
      </trkpt>
      <trkpt lat="42.2068880" lon="-8.1938820">
        <ele>146.4</ele>
        <time>2022-08-27T11:25:43Z</time>
      </trkpt>
      <trkpt lat="42.2068910" lon="-8.1939160">
        <ele>146.6</ele>
        <time>2022-08-27T11:25:45Z</time>
      </trkpt>
      <trkpt lat="42.2068630" lon="-8.1939720">
        <ele>147.2</ele>
        <time>2022-08-27T11:25:48Z</time>
      </trkpt>
      <trkpt lat="42.2068510" lon="-8.1939760">
        <ele>147.4</ele>
        <time>2022-08-27T11:25:49Z</time>
      </trkpt>
      <trkpt lat="42.2068320" lon="-8.1939560">
        <ele>148.0</ele>
        <time>2022-08-27T11:25:52Z</time>
      </trkpt>
      <trkpt lat="42.2068200" lon="-8.1939440">
        <ele>148.2</ele>
        <time>2022-08-27T11:25:53Z</time>
      </trkpt>
      <trkpt lat="42.2068110" lon="-8.1939310">
        <ele>148.4</ele>
        <time>2022-08-27T11:25:54Z</time>
      </trkpt>
      <trkpt lat="42.2067770" lon="-8.1938980">
        <ele>149.0</ele>
        <time>2022-08-27T11:25:57Z</time>
      </trkpt>
      <trkpt lat="42.2067550" lon="-8.1938710">
        <ele>149.6</ele>
        <time>2022-08-27T11:25:59Z</time>
      </trkpt>
      <trkpt lat="42.2067340" lon="-8.1938190">
        <ele>150.4</ele>
        <time>2022-08-27T11:26:02Z</time>
      </trkpt>
      <trkpt lat="42.2067190" lon="-8.1937730">
        <ele>150.6</ele>
        <time>2022-08-27T11:26:04Z</time>
      </trkpt>
      <trkpt lat="42.2067010" lon="-8.1936470">
        <ele>151.4</ele>
        <time>2022-08-27T11:26:08Z</time>
      </trkpt>
      <trkpt lat="42.2066880" lon="-8.1935400">
        <ele>151.8</ele>
        <time>2022-08-27T11:26:12Z</time>
      </trkpt>
      <trkpt lat="42.2066830" lon="-8.1934770">
        <ele>152.0</ele>
        <time>2022-08-27T11:26:14Z</time>
      </trkpt>
      <trkpt lat="42.2066560" lon="-8.1933250">
        <ele>152.8</ele>
        <time>2022-08-27T11:26:19Z</time>
      </trkpt>
      <trkpt lat="42.2066510" lon="-8.1932950">
        <ele>153.0</ele>
        <time>2022-08-27T11:26:20Z</time>
      </trkpt>
      <trkpt lat="42.2066190" lon="-8.1932020">
        <ele>154.0</ele>
        <time>2022-08-27T11:26:24Z</time>
      </trkpt>
      <trkpt lat="42.2066050" lon="-8.1931630">
        <ele>154.4</ele>
        <time>2022-08-27T11:26:26Z</time>
      </trkpt>
      <trkpt lat="42.2065840" lon="-8.1930860">
        <ele>155.2</ele>
        <time>2022-08-27T11:26:29Z</time>
      </trkpt>
      <trkpt lat="42.2065780" lon="-8.1930220">
        <ele>155.6</ele>
        <time>2022-08-27T11:26:32Z</time>
      </trkpt>
      <trkpt lat="42.2065730" lon="-8.1929780">
        <ele>156.2</ele>
        <time>2022-08-27T11:26:35Z</time>
      </trkpt>
      <trkpt lat="42.2065550" lon="-8.1929220">
        <ele>157.0</ele>
        <time>2022-08-27T11:26:39Z</time>
      </trkpt>
      <trkpt lat="42.2065500" lon="-8.1929040">
        <ele>157.4</ele>
        <time>2022-08-27T11:26:40Z</time>
      </trkpt>
      <trkpt lat="42.2064960" lon="-8.1928370">
        <ele>158.6</ele>
        <time>2022-08-27T11:26:45Z</time>
      </trkpt>
      <trkpt lat="42.2064370" lon="-8.1927820">
        <ele>159.6</ele>
        <time>2022-08-27T11:26:50Z</time>
      </trkpt>
      <trkpt lat="42.2064120" lon="-8.1927640">
        <ele>160.0</ele>
        <time>2022-08-27T11:26:52Z</time>
      </trkpt>
      <trkpt lat="42.2063790" lon="-8.1927370">
        <ele>160.8</ele>
        <time>2022-08-27T11:26:55Z</time>
      </trkpt>
      <trkpt lat="42.2063400" lon="-8.1927130">
        <ele>161.4</ele>
        <time>2022-08-27T11:26:58Z</time>
      </trkpt>
      <trkpt lat="42.2063120" lon="-8.1926940">
        <ele>161.8</ele>
        <time>2022-08-27T11:27:00Z</time>
      </trkpt>
      <trkpt lat="42.2062540" lon="-8.1926700">
        <ele>162.6</ele>
        <time>2022-08-27T11:27:04Z</time>
      </trkpt>
      <trkpt lat="42.2062260" lon="-8.1926600">
        <ele>163.0</ele>
        <time>2022-08-27T11:27:06Z</time>
      </trkpt>
      <trkpt lat="42.2061520" lon="-8.1926430">
        <ele>163.8</ele>
        <time>2022-08-27T11:27:11Z</time>
      </trkpt>
      <trkpt lat="42.2061150" lon="-8.1926340">
        <ele>164.2</ele>
        <time>2022-08-27T11:27:14Z</time>
      </trkpt>
      <trkpt lat="42.2060630" lon="-8.1926300">
        <ele>165.2</ele>
        <time>2022-08-27T11:27:19Z</time>
      </trkpt>
      <trkpt lat="42.2060130" lon="-8.1926340">
        <ele>166.6</ele>
        <time>2022-08-27T11:27:24Z</time>
      </trkpt>
      <trkpt lat="42.2060050" lon="-8.1926380">
        <ele>166.8</ele>
        <time>2022-08-27T11:27:25Z</time>
      </trkpt>
      <trkpt lat="42.2059640" lon="-8.1926440">
        <ele>167.8</ele>
        <time>2022-08-27T11:27:30Z</time>
      </trkpt>
      <trkpt lat="42.2059270" lon="-8.1926490">
        <ele>168.6</ele>
        <time>2022-08-27T11:27:34Z</time>
      </trkpt>
      <trkpt lat="42.2059080" lon="-8.1926550">
        <ele>168.8</ele>
        <time>2022-08-27T11:27:36Z</time>
      </trkpt>
      <trkpt lat="42.2058520" lon="-8.1926930">
        <ele>169.8</ele>
        <time>2022-08-27T11:27:41Z</time>
      </trkpt>
      <trkpt lat="42.2058420" lon="-8.1927040">
        <ele>170.0</ele>
        <time>2022-08-27T11:27:42Z</time>
      </trkpt>
      <trkpt lat="42.2058220" lon="-8.1927220">
        <ele>170.6</ele>
        <time>2022-08-27T11:27:44Z</time>
      </trkpt>
      <trkpt lat="42.2058030" lon="-8.1927390">
        <ele>171.4</ele>
        <time>2022-08-27T11:27:46Z</time>
      </trkpt>
      <trkpt lat="42.2057910" lon="-8.1927490">
        <ele>171.8</ele>
        <time>2022-08-27T11:27:47Z</time>
      </trkpt>
      <trkpt lat="42.2057560" lon="-8.1927860">
        <ele>172.6</ele>
        <time>2022-08-27T11:27:50Z</time>
      </trkpt>
      <trkpt lat="42.2057100" lon="-8.1928410">
        <ele>173.4</ele>
        <time>2022-08-27T11:27:54Z</time>
      </trkpt>
      <trkpt lat="42.2056960" lon="-8.1928550">
        <ele>173.6</ele>
        <time>2022-08-27T11:27:55Z</time>
      </trkpt>
      <trkpt lat="42.2056100" lon="-8.1929420">
        <ele>174.6</ele>
        <time>2022-08-27T11:28:01Z</time>
      </trkpt>
      <trkpt lat="42.2055820" lon="-8.1929770">
        <ele>175.0</ele>
        <time>2022-08-27T11:28:03Z</time>
      </trkpt>
      <trkpt lat="42.2055090" lon="-8.1931100">
        <ele>175.8</ele>
        <time>2022-08-27T11:28:09Z</time>
      </trkpt>
      <trkpt lat="42.2054680" lon="-8.1931970">
        <ele>176.2</ele>
        <time>2022-08-27T11:28:12Z</time>
      </trkpt>
      <trkpt lat="42.2054210" lon="-8.1933010">
        <ele>176.8</ele>
        <time>2022-08-27T11:28:16Z</time>
      </trkpt>
      <trkpt lat="42.2053990" lon="-8.1933510">
        <ele>177.6</ele>
        <time>2022-08-27T11:28:19Z</time>
      </trkpt>
      <trkpt lat="42.2053730" lon="-8.1933970">
        <ele>178.2</ele>
        <time>2022-08-27T11:28:23Z</time>
      </trkpt>
      <trkpt lat="42.2053280" lon="-8.1934420">
        <ele>178.6</ele>
        <time>2022-08-27T11:28:26Z</time>
      </trkpt>
      <trkpt lat="42.2052210" lon="-8.1935530">
        <ele>179.0</ele>
        <time>2022-08-27T11:28:30Z</time>
      </trkpt>
      <trkpt lat="42.2051250" lon="-8.1936290">
        <ele>179.0</ele>
        <time>2022-08-27T11:28:35Z</time>
      </trkpt>
      <trkpt lat="42.2050650" lon="-8.1936740">
        <ele>178.2</ele>
        <time>2022-08-27T11:28:42Z</time>
      </trkpt>
      <trkpt lat="42.2050620" lon="-8.1936730">
        <ele>177.8</ele>
        <time>2022-08-27T11:28:44Z</time>
      </trkpt>
      <trkpt lat="42.2050920" lon="-8.1936480">
        <ele>177.0</ele>
        <time>2022-08-27T11:29:16Z</time>
      </trkpt>
      <trkpt lat="42.2051210" lon="-8.1936330">
        <ele>177.0</ele>
        <time>2022-08-27T11:29:18Z</time>
      </trkpt>
      <trkpt lat="42.2052260" lon="-8.1935320">
        <ele>177.2</ele>
        <time>2022-08-27T11:29:25Z</time>
      </trkpt>
      <trkpt lat="42.2052670" lon="-8.1934900">
        <ele>177.6</ele>
        <time>2022-08-27T11:29:28Z</time>
      </trkpt>
      <trkpt lat="42.2053120" lon="-8.1934480">
        <ele>178.2</ele>
        <time>2022-08-27T11:29:32Z</time>
      </trkpt>
      <trkpt lat="42.2053210" lon="-8.1934390">
        <ele>178.2</ele>
        <time>2022-08-27T11:29:33Z</time>
      </trkpt>
      <trkpt lat="42.2053250" lon="-8.1934380">
        <ele>178.2</ele>
        <time>2022-08-27T11:29:34Z</time>
      </trkpt>
      <trkpt lat="42.2053360" lon="-8.1934390">
        <ele>178.6</ele>
        <time>2022-08-27T11:29:36Z</time>
      </trkpt>
      <trkpt lat="42.2058290" lon="-8.1949200">
        <ele>207.6</ele>
        <time>2022-08-27T11:33:10Z</time>
      </trkpt>
      <trkpt lat="42.2059230" lon="-8.1950780">
        <ele>207.8</ele>
        <time>2022-08-27T11:33:16Z</time>
      </trkpt>
      <trkpt lat="42.2060440" lon="-8.1952600">
        <ele>208.0</ele>
        <time>2022-08-27T11:33:21Z</time>
      </trkpt>
      <trkpt lat="42.2061770" lon="-8.1954310">
        <ele>208.0</ele>
        <time>2022-08-27T11:33:27Z</time>
      </trkpt>
      <trkpt lat="42.2063360" lon="-8.1955920">
        <ele>207.8</ele>
        <time>2022-08-27T11:33:34Z</time>
      </trkpt>
      <trkpt lat="42.2064060" lon="-8.1957440">
        <ele>208.0</ele>
        <time>2022-08-27T11:33:40Z</time>
      </trkpt>
      <trkpt lat="42.2063840" lon="-8.1958850">
        <ele>209.2</ele>
        <time>2022-08-27T11:33:47Z</time>
      </trkpt>
      <trkpt lat="42.2063740" lon="-8.1959040">
        <ele>209.4</ele>
        <time>2022-08-27T11:33:48Z</time>
      </trkpt>
      <trkpt lat="42.2063390" lon="-8.1959730">
        <ele>210.8</ele>
        <time>2022-08-27T11:33:52Z</time>
      </trkpt>
      <trkpt lat="42.2063120" lon="-8.1960410">
        <ele>211.8</ele>
        <time>2022-08-27T11:33:56Z</time>
      </trkpt>
      <trkpt lat="42.2062640" lon="-8.1961120">
        <ele>213.0</ele>
        <time>2022-08-27T11:34:01Z</time>
      </trkpt>
      <trkpt lat="42.2062320" lon="-8.1961690">
        <ele>213.6</ele>
        <time>2022-08-27T11:34:04Z</time>
      </trkpt>
      <trkpt lat="42.2062070" lon="-8.1962160">
        <ele>214.2</ele>
        <time>2022-08-27T11:34:06Z</time>
      </trkpt>
      <trkpt lat="42.2061470" lon="-8.1963150">
        <ele>215.0</ele>
        <time>2022-08-27T11:34:11Z</time>
      </trkpt>
      <trkpt lat="42.2061060" lon="-8.1963950">
        <ele>215.4</ele>
        <time>2022-08-27T11:34:15Z</time>
      </trkpt>
      <trkpt lat="42.2060920" lon="-8.1964280">
        <ele>215.6</ele>
        <time>2022-08-27T11:34:17Z</time>
      </trkpt>
      <trkpt lat="42.2060720" lon="-8.1964850">
        <ele>216.2</ele>
        <time>2022-08-27T11:34:21Z</time>
      </trkpt>
      <trkpt lat="42.2060710" lon="-8.1965030">
        <ele>216.4</ele>
        <time>2022-08-27T11:34:22Z</time>
      </trkpt>
      <trkpt lat="42.2060690" lon="-8.1965230">
        <ele>216.8</ele>
        <time>2022-08-27T11:34:23Z</time>
      </trkpt>
      <trkpt lat="42.2060760" lon="-8.1965900">
        <ele>217.6</ele>
        <time>2022-08-27T11:34:27Z</time>
      </trkpt>
      <trkpt lat="42.2060860" lon="-8.1966380">
        <ele>217.8</ele>
        <time>2022-08-27T11:34:30Z</time>
      </trkpt>
      <trkpt lat="42.2060940" lon="-8.1966960">
        <ele>218.8</ele>
        <time>2022-08-27T11:34:34Z</time>
      </trkpt>
      <trkpt lat="42.2061190" lon="-8.1967410">
        <ele>219.4</ele>
        <time>2022-08-27T11:34:37Z</time>
      </trkpt>
      <trkpt lat="42.2061380" lon="-8.1967730">
        <ele>220.0</ele>
        <time>2022-08-27T11:34:39Z</time>
      </trkpt>
      <trkpt lat="42.2061570" lon="-8.1968440">
        <ele>220.6</ele>
        <time>2022-08-27T11:34:43Z</time>
      </trkpt>
      <trkpt lat="42.2061730" lon="-8.1969000">
        <ele>221.0</ele>
        <time>2022-08-27T11:34:46Z</time>
      </trkpt>
      <trkpt lat="42.2061760" lon="-8.1969240">
        <ele>221.2</ele>
        <time>2022-08-27T11:34:47Z</time>
      </trkpt>
      <trkpt lat="42.2061880" lon="-8.1969870">
        <ele>221.6</ele>
        <time>2022-08-27T11:34:50Z</time>
      </trkpt>
      <trkpt lat="42.2061990" lon="-8.1970440">
        <ele>222.0</ele>
        <time>2022-08-27T11:34:53Z</time>
      </trkpt>
      <trkpt lat="42.2062300" lon="-8.1971340">
        <ele>222.8</ele>
        <time>2022-08-27T11:34:58Z</time>
      </trkpt>
      <trkpt lat="42.2062440" lon="-8.1971720">
        <ele>223.2</ele>
        <time>2022-08-27T11:35:00Z</time>
      </trkpt>
      <trkpt lat="42.2062790" lon="-8.1972440">
        <ele>224.0</ele>
        <time>2022-08-27T11:35:04Z</time>
      </trkpt>
      <trkpt lat="42.2062910" lon="-8.1972600">
        <ele>224.2</ele>
        <time>2022-08-27T11:35:05Z</time>
      </trkpt>
      <trkpt lat="42.2062980" lon="-8.1972800">
        <ele>224.2</ele>
        <time>2022-08-27T11:35:06Z</time>
      </trkpt>
      <trkpt lat="42.2063340" lon="-8.1973300">
        <ele>224.4</ele>
        <time>2022-08-27T11:35:09Z</time>
      </trkpt>
      <trkpt lat="42.2063880" lon="-8.1973940">
        <ele>225.2</ele>
        <time>2022-08-27T11:35:13Z</time>
      </trkpt>
      <trkpt lat="42.2064270" lon="-8.1974330">
        <ele>225.4</ele>
        <time>2022-08-27T11:35:16Z</time>
      </trkpt>
      <trkpt lat="42.2065050" lon="-8.1974850">
        <ele>226.2</ele>
        <time>2022-08-27T11:35:21Z</time>
      </trkpt>
      <trkpt lat="42.2065350" lon="-8.1975080">
        <ele>226.6</ele>
        <time>2022-08-27T11:35:23Z</time>
      </trkpt>
      <trkpt lat="42.2066290" lon="-8.1975800">
        <ele>227.2</ele>
        <time>2022-08-27T11:35:28Z</time>
      </trkpt>
      <trkpt lat="42.2066460" lon="-8.1975990">
        <ele>227.4</ele>
        <time>2022-08-27T11:35:29Z</time>
      </trkpt>
      <trkpt lat="42.2067460" lon="-8.1976870">
        <ele>228.0</ele>
        <time>2022-08-27T11:35:35Z</time>
      </trkpt>
      <trkpt lat="42.2067580" lon="-8.1977040">
        <ele>228.2</ele>
        <time>2022-08-27T11:35:36Z</time>
      </trkpt>
      <trkpt lat="42.2067900" lon="-8.1977440">
        <ele>229.0</ele>
        <time>2022-08-27T11:35:39Z</time>
      </trkpt>
      <trkpt lat="42.2068160" lon="-8.1977690">
        <ele>229.4</ele>
        <time>2022-08-27T11:35:41Z</time>
      </trkpt>
      <trkpt lat="42.2068970" lon="-8.1978300">
        <ele>230.4</ele>
        <time>2022-08-27T11:35:46Z</time>
      </trkpt>
      <trkpt lat="42.2069110" lon="-8.1978430">
        <ele>230.8</ele>
        <time>2022-08-27T11:35:47Z</time>
      </trkpt>
      <trkpt lat="42.2069600" lon="-8.1978760">
        <ele>231.4</ele>
        <time>2022-08-27T11:35:50Z</time>
      </trkpt>
      <trkpt lat="42.2070420" lon="-8.1979090">
        <ele>232.4</ele>
        <time>2022-08-27T11:35:55Z</time>
      </trkpt>
      <trkpt lat="42.2070550" lon="-8.1979150">
        <ele>232.6</ele>
        <time>2022-08-27T11:35:56Z</time>
      </trkpt>
      <trkpt lat="42.2071100" lon="-8.1979330">
        <ele>233.6</ele>
        <time>2022-08-27T11:36:00Z</time>
      </trkpt>
      <trkpt lat="42.2071260" lon="-8.1979360">
        <ele>233.8</ele>
        <time>2022-08-27T11:36:01Z</time>
      </trkpt>
      <trkpt lat="42.2071800" lon="-8.1979530">
        <ele>234.8</ele>
        <time>2022-08-27T11:36:05Z</time>
      </trkpt>
      <trkpt lat="42.2072090" lon="-8.1979650">
        <ele>235.4</ele>
        <time>2022-08-27T11:36:07Z</time>
      </trkpt>
      <trkpt lat="42.2072470" lon="-8.1979920">
        <ele>236.0</ele>
        <time>2022-08-27T11:36:10Z</time>
      </trkpt>
      <trkpt lat="42.2072900" lon="-8.1980190">
        <ele>236.8</ele>
        <time>2022-08-27T11:36:13Z</time>
      </trkpt>
      <trkpt lat="42.2073230" lon="-8.1980320">
        <ele>237.0</ele>
        <time>2022-08-27T11:36:15Z</time>
      </trkpt>
      <trkpt lat="42.2074300" lon="-8.1980990">
        <ele>237.6</ele>
        <time>2022-08-27T11:36:19Z</time>
      </trkpt>
      <trkpt lat="42.2075640" lon="-8.1982450">
        <ele>237.6</ele>
        <time>2022-08-27T11:36:24Z</time>
      </trkpt>
      <trkpt lat="42.2075980" lon="-8.1983510">
        <ele>236.8</ele>
        <time>2022-08-27T11:36:28Z</time>
      </trkpt>
      <trkpt lat="42.2076030" lon="-8.1983860">
        <ele>236.0</ele>
        <time>2022-08-27T11:36:30Z</time>
      </trkpt>
      <trkpt lat="42.2076220" lon="-8.1984660">
        <ele>235.6</ele>
        <time>2022-08-27T11:36:35Z</time>
      </trkpt>
      <trkpt lat="42.2076500" lon="-8.1985860">
        <ele>236.8</ele>
        <time>2022-08-27T11:36:43Z</time>
      </trkpt>
      <trkpt lat="42.2076520" lon="-8.1986050">
        <ele>237.0</ele>
        <time>2022-08-27T11:36:44Z</time>
      </trkpt>
      <trkpt lat="42.2076700" lon="-8.1986740">
        <ele>238.0</ele>
        <time>2022-08-27T11:36:48Z</time>
      </trkpt>
      <trkpt lat="42.2076740" lon="-8.1986880">
        <ele>238.4</ele>
        <time>2022-08-27T11:36:49Z</time>
      </trkpt>
      <trkpt lat="42.2076790" lon="-8.1987440">
        <ele>239.4</ele>
        <time>2022-08-27T11:36:53Z</time>
      </trkpt>
      <trkpt lat="42.2076890" lon="-8.1987780">
        <ele>240.0</ele>
        <time>2022-08-27T11:36:56Z</time>
      </trkpt>
      <trkpt lat="42.2076960" lon="-8.1987910">
        <ele>240.4</ele>
        <time>2022-08-27T11:36:57Z</time>
      </trkpt>
      <trkpt lat="42.2077050" lon="-8.1988350">
        <ele>240.8</ele>
        <time>2022-08-27T11:36:59Z</time>
      </trkpt>
      <trkpt lat="42.2077050" lon="-8.1989010">
        <ele>241.6</ele>
        <time>2022-08-27T11:37:02Z</time>
      </trkpt>
      <trkpt lat="42.2076930" lon="-8.1989580">
        <ele>242.2</ele>
        <time>2022-08-27T11:37:05Z</time>
      </trkpt>
      <trkpt lat="42.2076710" lon="-8.1989990">
        <ele>242.6</ele>
        <time>2022-08-27T11:37:08Z</time>
      </trkpt>
      <trkpt lat="42.2076080" lon="-8.1990210">
        <ele>243.6</ele>
        <time>2022-08-27T11:37:13Z</time>
      </trkpt>
      <trkpt lat="42.2075430" lon="-8.1989990">
        <ele>244.6</ele>
        <time>2022-08-27T11:37:18Z</time>
      </trkpt>
      <trkpt lat="42.2075320" lon="-8.1989960">
        <ele>244.8</ele>
        <time>2022-08-27T11:37:19Z</time>
      </trkpt>
      <trkpt lat="42.2075000" lon="-8.1989870">
        <ele>245.4</ele>
        <time>2022-08-27T11:37:23Z</time>
      </trkpt>
      <trkpt lat="42.2074810" lon="-8.1989850">
        <ele>246.2</ele>
        <time>2022-08-27T11:37:26Z</time>
      </trkpt>
      <trkpt lat="42.2074560" lon="-8.1989790">
        <ele>246.8</ele>
        <time>2022-08-27T11:37:29Z</time>
      </trkpt>
      <trkpt lat="42.2073960" lon="-8.1989650">
        <ele>248.0</ele>
        <time>2022-08-27T11:37:34Z</time>
      </trkpt>
      <trkpt lat="42.2073870" lon="-8.1989620">
        <ele>248.0</ele>
        <time>2022-08-27T11:37:35Z</time>
      </trkpt>
      <trkpt lat="42.2073460" lon="-8.1989450">
        <ele>249.0</ele>
        <time>2022-08-27T11:37:40Z</time>
      </trkpt>
      <trkpt lat="42.2072650" lon="-8.1989080">
        <ele>250.2</ele>
        <time>2022-08-27T11:37:47Z</time>
      </trkpt>
      <trkpt lat="42.2071720" lon="-8.1988840">
        <ele>251.4</ele>
        <time>2022-08-27T11:37:53Z</time>
      </trkpt>
      <trkpt lat="42.2071240" lon="-8.1988660">
        <ele>252.0</ele>
        <time>2022-08-27T11:37:56Z</time>
      </trkpt>
      <trkpt lat="42.2070850" lon="-8.1988410">
        <ele>252.4</ele>
        <time>2022-08-27T11:37:58Z</time>
      </trkpt>
      <trkpt lat="42.2069960" lon="-8.1988120">
        <ele>253.2</ele>
        <time>2022-08-27T11:38:02Z</time>
      </trkpt>
      <trkpt lat="42.2068850" lon="-8.1987440">
        <ele>253.4</ele>
        <time>2022-08-27T11:38:08Z</time>
      </trkpt>
      <trkpt lat="42.2068710" lon="-8.1987330">
        <ele>253.6</ele>
        <time>2022-08-27T11:38:09Z</time>
      </trkpt>
      <trkpt lat="42.2068090" lon="-8.1986620">
        <ele>253.8</ele>
        <time>2022-08-27T11:38:14Z</time>
      </trkpt>
      <trkpt lat="42.2067730" lon="-8.1986090">
        <ele>254.6</ele>
        <time>2022-08-27T11:38:17Z</time>
      </trkpt>
      <trkpt lat="42.2067190" lon="-8.1985430">
        <ele>255.4</ele>
        <time>2022-08-27T11:38:21Z</time>
      </trkpt>
      <trkpt lat="42.2066910" lon="-8.1985210">
        <ele>255.6</ele>
        <time>2022-08-27T11:38:23Z</time>
      </trkpt>
      <trkpt lat="42.2066170" lon="-8.1985010">
        <ele>256.4</ele>
        <time>2022-08-27T11:38:28Z</time>
      </trkpt>
      <trkpt lat="42.2066040" lon="-8.1984970">
        <ele>256.6</ele>
        <time>2022-08-27T11:38:29Z</time>
      </trkpt>
      <trkpt lat="42.2065050" lon="-8.1984780">
        <ele>257.8</ele>
        <time>2022-08-27T11:38:34Z</time>
      </trkpt>
      <trkpt lat="42.2064250" lon="-8.1984820">
        <ele>259.0</ele>
        <time>2022-08-27T11:38:38Z</time>
      </trkpt>
      <trkpt lat="42.2063960" lon="-8.1984740">
        <ele>259.4</ele>
        <time>2022-08-27T11:38:40Z</time>
      </trkpt>
      <trkpt lat="42.2063790" lon="-8.1984700">
        <ele>259.6</ele>
        <time>2022-08-27T11:38:41Z</time>
      </trkpt>
      <trkpt lat="42.2063520" lon="-8.1984650">
        <ele>260.0</ele>
        <time>2022-08-27T11:38:43Z</time>
      </trkpt>
      <trkpt lat="42.2063010" lon="-8.1984500">
        <ele>260.6</ele>
        <time>2022-08-27T11:38:46Z</time>
      </trkpt>
      <trkpt lat="42.2062400" lon="-8.1984530">
        <ele>261.0</ele>
        <time>2022-08-27T11:38:49Z</time>
      </trkpt>
      <trkpt lat="42.2061530" lon="-8.1984460">
        <ele>262.0</ele>
        <time>2022-08-27T11:38:53Z</time>
      </trkpt>
      <trkpt lat="42.2061350" lon="-8.1984450">
        <ele>262.2</ele>
        <time>2022-08-27T11:38:54Z</time>
      </trkpt>
      <trkpt lat="42.2060150" lon="-8.1984360">
        <ele>263.0</ele>
        <time>2022-08-27T11:39:00Z</time>
      </trkpt>
      <trkpt lat="42.2059940" lon="-8.1984360">
        <ele>263.2</ele>
        <time>2022-08-27T11:39:01Z</time>
      </trkpt>
      <trkpt lat="42.2058840" lon="-8.1984240">
        <ele>263.8</ele>
        <time>2022-08-27T11:39:06Z</time>
      </trkpt>
      <trkpt lat="42.2058230" lon="-8.1984180">
        <ele>264.4</ele>
        <time>2022-08-27T11:39:09Z</time>
      </trkpt>
      <trkpt lat="42.2057030" lon="-8.1984190">
        <ele>265.4</ele>
        <time>2022-08-27T11:39:15Z</time>
      </trkpt>
      <trkpt lat="42.2055660" lon="-8.1984170">
        <ele>266.2</ele>
        <time>2022-08-27T11:39:21Z</time>
      </trkpt>
      <trkpt lat="42.2055420" lon="-8.1984160">
        <ele>266.4</ele>
        <time>2022-08-27T11:39:22Z</time>
      </trkpt>
      <trkpt lat="42.2054350" lon="-8.1984290">
        <ele>267.2</ele>
        <time>2022-08-27T11:39:28Z</time>
      </trkpt>
      <trkpt lat="42.2054150" lon="-8.1984320">
        <ele>267.4</ele>
        <time>2022-08-27T11:39:29Z</time>
      </trkpt>
      <trkpt lat="42.2053160" lon="-8.1984460">
        <ele>268.6</ele>
        <time>2022-08-27T11:39:34Z</time>
      </trkpt>
      <trkpt lat="42.2052960" lon="-8.1984500">
        <ele>268.8</ele>
        <time>2022-08-27T11:39:35Z</time>
      </trkpt>
      <trkpt lat="42.2051800" lon="-8.1984690">
        <ele>269.8</ele>
        <time>2022-08-27T11:39:41Z</time>
      </trkpt>
      <trkpt lat="42.2051400" lon="-8.1984760">
        <ele>270.0</ele>
        <time>2022-08-27T11:39:43Z</time>
      </trkpt>
      <trkpt lat="42.2050540" lon="-8.1984790">
        <ele>270.8</ele>
        <time>2022-08-27T11:39:47Z</time>
      </trkpt>
      <trkpt lat="42.2050080" lon="-8.1984860">
        <ele>271.0</ele>
        <time>2022-08-27T11:39:49Z</time>
      </trkpt>
      <trkpt lat="42.2049090" lon="-8.1985050">
        <ele>271.8</ele>
        <time>2022-08-27T11:39:54Z</time>
      </trkpt>
      <trkpt lat="42.2048640" lon="-8.1985020">
        <ele>272.2</ele>
        <time>2022-08-27T11:39:56Z</time>
      </trkpt>
      <trkpt lat="42.2047740" lon="-8.1984910">
        <ele>273.0</ele>
        <time>2022-08-27T11:40:00Z</time>
      </trkpt>
      <trkpt lat="42.2046570" lon="-8.1984740">
        <ele>273.8</ele>
        <time>2022-08-27T11:40:05Z</time>
      </trkpt>
      <trkpt lat="42.2046300" lon="-8.1984670">
        <ele>274.0</ele>
        <time>2022-08-27T11:40:06Z</time>
      </trkpt>
      <trkpt lat="42.2045250" lon="-8.1984820">
        <ele>275.2</ele>
        <time>2022-08-27T11:40:11Z</time>
      </trkpt>
      <trkpt lat="42.2044580" lon="-8.1985140">
        <ele>276.4</ele>
        <time>2022-08-27T11:40:15Z</time>
      </trkpt>
      <trkpt lat="42.2043950" lon="-8.1985480">
        <ele>277.2</ele>
        <time>2022-08-27T11:40:19Z</time>
      </trkpt>
      <trkpt lat="42.2043810" lon="-8.1985570">
        <ele>277.4</ele>
        <time>2022-08-27T11:40:20Z</time>
      </trkpt>
      <trkpt lat="42.2043120" lon="-8.1986210">
        <ele>278.4</ele>
        <time>2022-08-27T11:40:26Z</time>
      </trkpt>
      <trkpt lat="42.2043050" lon="-8.1986320">
        <ele>278.4</ele>
        <time>2022-08-27T11:40:27Z</time>
      </trkpt>
      <trkpt lat="42.2042400" lon="-8.1987170">
        <ele>279.6</ele>
        <time>2022-08-27T11:40:33Z</time>
      </trkpt>
      <trkpt lat="42.2042130" lon="-8.1987540">
        <ele>280.0</ele>
        <time>2022-08-27T11:40:35Z</time>
      </trkpt>
      <trkpt lat="42.2041730" lon="-8.1988160">
        <ele>280.8</ele>
        <time>2022-08-27T11:40:38Z</time>
      </trkpt>
      <trkpt lat="42.2041440" lon="-8.1989140">
        <ele>281.6</ele>
        <time>2022-08-27T11:40:42Z</time>
      </trkpt>
      <trkpt lat="42.2041430" lon="-8.1989350">
        <ele>282.0</ele>
        <time>2022-08-27T11:40:43Z</time>
      </trkpt>
      <trkpt lat="42.2041270" lon="-8.1990450">
        <ele>282.8</ele>
        <time>2022-08-27T11:40:48Z</time>
      </trkpt>
      <trkpt lat="42.2041250" lon="-8.1990830">
        <ele>283.2</ele>
        <time>2022-08-27T11:40:50Z</time>
      </trkpt>
      <trkpt lat="42.2041160" lon="-8.1991840">
        <ele>283.8</ele>
        <time>2022-08-27T11:40:55Z</time>
      </trkpt>
      <trkpt lat="42.2041110" lon="-8.1992380">
        <ele>284.2</ele>
        <time>2022-08-27T11:40:57Z</time>
      </trkpt>
      <trkpt lat="42.2041050" lon="-8.1993390">
        <ele>284.8</ele>
        <time>2022-08-27T11:41:01Z</time>
      </trkpt>
      <trkpt lat="42.2040990" lon="-8.1993920">
        <ele>285.2</ele>
        <time>2022-08-27T11:41:03Z</time>
      </trkpt>
      <trkpt lat="42.2041020" lon="-8.1994780">
        <ele>285.8</ele>
        <time>2022-08-27T11:41:07Z</time>
      </trkpt>
      <trkpt lat="42.2040970" lon="-8.1995370">
        <ele>286.2</ele>
        <time>2022-08-27T11:41:10Z</time>
      </trkpt>
      <trkpt lat="42.2040870" lon="-8.1996420">
        <ele>287.0</ele>
        <time>2022-08-27T11:41:15Z</time>
      </trkpt>
      <trkpt lat="42.2040820" lon="-8.1996800">
        <ele>287.4</ele>
        <time>2022-08-27T11:41:17Z</time>
      </trkpt>
      <trkpt lat="42.2040520" lon="-8.1997800">
        <ele>288.6</ele>
        <time>2022-08-27T11:41:22Z</time>
      </trkpt>
      <trkpt lat="42.2040220" lon="-8.1998920">
        <ele>289.6</ele>
        <time>2022-08-27T11:41:28Z</time>
      </trkpt>
      <trkpt lat="42.2040150" lon="-8.1999110">
        <ele>289.8</ele>
        <time>2022-08-27T11:41:29Z</time>
      </trkpt>
      <trkpt lat="42.2039900" lon="-8.1999990">
        <ele>290.8</ele>
        <time>2022-08-27T11:41:34Z</time>
      </trkpt>
      <trkpt lat="42.2039740" lon="-8.2000590">
        <ele>291.8</ele>
        <time>2022-08-27T11:41:37Z</time>
      </trkpt>
      <trkpt lat="42.2039440" lon="-8.2001410">
        <ele>292.8</ele>
        <time>2022-08-27T11:41:41Z</time>
      </trkpt>
      <trkpt lat="42.2039390" lon="-8.2001580">
        <ele>293.0</ele>
        <time>2022-08-27T11:41:42Z</time>
      </trkpt>
      <trkpt lat="42.2039140" lon="-8.2002620">
        <ele>294.2</ele>
        <time>2022-08-27T11:41:48Z</time>
      </trkpt>
      <trkpt lat="42.2039010" lon="-8.2003520">
        <ele>295.4</ele>
        <time>2022-08-27T11:41:53Z</time>
      </trkpt>
      <trkpt lat="42.2039050" lon="-8.2004430">
        <ele>296.4</ele>
        <time>2022-08-27T11:41:58Z</time>
      </trkpt>
      <trkpt lat="42.2039090" lon="-8.2005570">
        <ele>297.2</ele>
        <time>2022-08-27T11:42:04Z</time>
      </trkpt>
      <trkpt lat="42.2039110" lon="-8.2005980">
        <ele>297.6</ele>
        <time>2022-08-27T11:42:06Z</time>
      </trkpt>
      <trkpt lat="42.2039150" lon="-8.2007300">
        <ele>298.6</ele>
        <time>2022-08-27T11:42:12Z</time>
      </trkpt>
      <trkpt lat="42.2039170" lon="-8.2007530">
        <ele>298.6</ele>
        <time>2022-08-27T11:42:13Z</time>
      </trkpt>
      <trkpt lat="42.2039310" lon="-8.2008700">
        <ele>299.6</ele>
        <time>2022-08-27T11:42:19Z</time>
      </trkpt>
      <trkpt lat="42.2039320" lon="-8.2008910">
        <ele>299.8</ele>
        <time>2022-08-27T11:42:20Z</time>
      </trkpt>
      <trkpt lat="42.2039470" lon="-8.2009900">
        <ele>300.8</ele>
        <time>2022-08-27T11:42:25Z</time>
      </trkpt>
      <trkpt lat="42.2039700" lon="-8.2010750">
        <ele>301.6</ele>
        <time>2022-08-27T11:42:30Z</time>
      </trkpt>
      <trkpt lat="42.2039750" lon="-8.2010920">
        <ele>301.8</ele>
        <time>2022-08-27T11:42:31Z</time>
      </trkpt>
      <trkpt lat="42.2040270" lon="-8.2011710">
        <ele>302.8</ele>
        <time>2022-08-27T11:42:37Z</time>
      </trkpt>
      <trkpt lat="42.2040350" lon="-8.2011840">
        <ele>303.0</ele>
        <time>2022-08-27T11:42:38Z</time>
      </trkpt>
      <trkpt lat="42.2040770" lon="-8.2012490">
        <ele>303.8</ele>
        <time>2022-08-27T11:42:43Z</time>
      </trkpt>
      <trkpt lat="42.2041150" lon="-8.2012940">
        <ele>305.0</ele>
        <time>2022-08-27T11:42:47Z</time>
      </trkpt>
      <trkpt lat="42.2041250" lon="-8.2013050">
        <ele>305.2</ele>
        <time>2022-08-27T11:42:48Z</time>
      </trkpt>
      <trkpt lat="42.2041680" lon="-8.2013660">
        <ele>306.0</ele>
        <time>2022-08-27T11:42:53Z</time>
      </trkpt>
      <trkpt lat="42.2041990" lon="-8.2014040">
        <ele>306.4</ele>
        <time>2022-08-27T11:42:56Z</time>
      </trkpt>
      <trkpt lat="42.2042310" lon="-8.2014360">
        <ele>307.0</ele>
        <time>2022-08-27T11:42:59Z</time>
      </trkpt>
      <trkpt lat="42.2042530" lon="-8.2014620">
        <ele>307.8</ele>
        <time>2022-08-27T11:43:02Z</time>
      </trkpt>
      <trkpt lat="42.2042600" lon="-8.2014750">
        <ele>308.0</ele>
        <time>2022-08-27T11:43:03Z</time>
      </trkpt>
      <trkpt lat="42.2042730" lon="-8.2014930">
        <ele>308.8</ele>
        <time>2022-08-27T11:43:05Z</time>
      </trkpt>
      <trkpt lat="42.2042810" lon="-8.2015000">
        <ele>309.0</ele>
        <time>2022-08-27T11:43:06Z</time>
      </trkpt>
      <trkpt lat="42.2042950" lon="-8.2015090">
        <ele>309.6</ele>
        <time>2022-08-27T11:43:08Z</time>
      </trkpt>
      <trkpt lat="42.2043260" lon="-8.2015290">
        <ele>310.2</ele>
        <time>2022-08-27T11:43:11Z</time>
      </trkpt>
      <trkpt lat="42.2043720" lon="-8.2015800">
        <ele>311.2</ele>
        <time>2022-08-27T11:43:17Z</time>
      </trkpt>
      <trkpt lat="42.2043790" lon="-8.2015900">
        <ele>311.4</ele>
        <time>2022-08-27T11:43:18Z</time>
      </trkpt>
      <trkpt lat="42.2044590" lon="-8.2017060">
        <ele>312.4</ele>
        <time>2022-08-27T11:43:26Z</time>
      </trkpt>
      <trkpt lat="42.2044970" lon="-8.2018080">
        <ele>313.4</ele>
        <time>2022-08-27T11:43:31Z</time>
      </trkpt>
      <trkpt lat="42.2045210" lon="-8.2018980">
        <ele>314.2</ele>
        <time>2022-08-27T11:43:35Z</time>
      </trkpt>
      <trkpt lat="42.2045370" lon="-8.2019400">
        <ele>314.6</ele>
        <time>2022-08-27T11:43:37Z</time>
      </trkpt>
      <trkpt lat="42.2045750" lon="-8.2020770">
        <ele>315.6</ele>
        <time>2022-08-27T11:43:43Z</time>
      </trkpt>
      <trkpt lat="42.2045850" lon="-8.2021010">
        <ele>316.0</ele>
        <time>2022-08-27T11:43:44Z</time>
      </trkpt>
      <trkpt lat="42.2046510" lon="-8.2021920">
        <ele>316.4</ele>
        <time>2022-08-27T11:43:49Z</time>
      </trkpt>
      <trkpt lat="42.2047460" lon="-8.2021990">
        <ele>317.0</ele>
        <time>2022-08-27T11:43:55Z</time>
      </trkpt>
      <trkpt lat="42.2047600" lon="-8.2021950">
        <ele>317.2</ele>
        <time>2022-08-27T11:43:56Z</time>
      </trkpt>
      <trkpt lat="42.2048270" lon="-8.2021790">
        <ele>318.2</ele>
        <time>2022-08-27T11:44:00Z</time>
      </trkpt>
      <trkpt lat="42.2048650" lon="-8.2021790">
        <ele>318.8</ele>
        <time>2022-08-27T11:44:02Z</time>
      </trkpt>
      <trkpt lat="42.2049250" lon="-8.2021840">
        <ele>319.2</ele>
        <time>2022-08-27T11:44:05Z</time>
      </trkpt>
      <trkpt lat="42.2050590" lon="-8.2021990">
        <ele>320.0</ele>
        <time>2022-08-27T11:44:11Z</time>
      </trkpt>
      <trkpt lat="42.2051930" lon="-8.2021990">
        <ele>320.2</ele>
        <time>2022-08-27T11:44:16Z</time>
      </trkpt>
      <trkpt lat="42.2052160" lon="-8.2022920">
        <ele>320.2</ele>
        <time>2022-08-27T11:44:20Z</time>
      </trkpt>
      <trkpt lat="42.2052170" lon="-8.2023070">
        <ele>320.2</ele>
        <time>2022-08-27T11:44:21Z</time>
      </trkpt>
      <trkpt lat="42.2052250" lon="-8.2023260">
        <ele>320.4</ele>
        <time>2022-08-27T11:44:25Z</time>
      </trkpt>
      <trkpt lat="42.2052240" lon="-8.2023300">
        <ele>320.4</ele>
        <time>2022-08-27T11:44:26Z</time>
      </trkpt>
      <trkpt lat="42.2052890" lon="-8.2021520">
        <ele>320.4</ele>
        <time>2022-08-27T11:46:28Z</time>
      </trkpt>
      <trkpt lat="42.2053270" lon="-8.2021280">
        <ele>320.4</ele>
        <time>2022-08-27T11:46:30Z</time>
      </trkpt>
      <trkpt lat="42.2054950" lon="-8.2020480">
        <ele>320.6</ele>
        <time>2022-08-27T11:46:38Z</time>
      </trkpt>
      <trkpt lat="42.2055170" lon="-8.2020410">
        <ele>321.0</ele>
        <time>2022-08-27T11:46:39Z</time>
      </trkpt>
      <trkpt lat="42.2056120" lon="-8.2020160">
        <ele>322.0</ele>
        <time>2022-08-27T11:46:44Z</time>
      </trkpt>
      <trkpt lat="42.2056610" lon="-8.2020070">
        <ele>322.8</ele>
        <time>2022-08-27T11:46:47Z</time>
      </trkpt>
      <trkpt lat="42.2056910" lon="-8.2020050">
        <ele>323.2</ele>
        <time>2022-08-27T11:46:49Z</time>
      </trkpt>
      <trkpt lat="42.2057950" lon="-8.2020120">
        <ele>324.0</ele>
        <time>2022-08-27T11:46:54Z</time>
      </trkpt>
      <trkpt lat="42.2058160" lon="-8.2020160">
        <ele>324.2</ele>
        <time>2022-08-27T11:46:55Z</time>
      </trkpt>
      <trkpt lat="42.2059100" lon="-8.2020490">
        <ele>325.2</ele>
        <time>2022-08-27T11:47:00Z</time>
      </trkpt>
      <trkpt lat="42.2059460" lon="-8.2020630">
        <ele>325.4</ele>
        <time>2022-08-27T11:47:02Z</time>
      </trkpt>
      <trkpt lat="42.2060530" lon="-8.2021010">
        <ele>326.4</ele>
        <time>2022-08-27T11:47:08Z</time>
      </trkpt>
      <trkpt lat="42.2061100" lon="-8.2021110">
        <ele>326.8</ele>
        <time>2022-08-27T11:47:11Z</time>
      </trkpt>
      <trkpt lat="42.2061660" lon="-8.2021210">
        <ele>327.4</ele>
        <time>2022-08-27T11:47:14Z</time>
      </trkpt>
      <trkpt lat="42.2062650" lon="-8.2021230">
        <ele>328.2</ele>
        <time>2022-08-27T11:47:19Z</time>
      </trkpt>
      <trkpt lat="42.2062830" lon="-8.2021210">
        <ele>328.4</ele>
        <time>2022-08-27T11:47:20Z</time>
      </trkpt>
      <trkpt lat="42.2064030" lon="-8.2021260">
        <ele>329.4</ele>
        <time>2022-08-27T11:47:27Z</time>
      </trkpt>
      <trkpt lat="42.2064180" lon="-8.2021290">
        <ele>329.6</ele>
        <time>2022-08-27T11:47:28Z</time>
      </trkpt>
      <trkpt lat="42.2064970" lon="-8.2021690">
        <ele>330.6</ele>
        <time>2022-08-27T11:47:33Z</time>
      </trkpt>
      <trkpt lat="42.2065400" lon="-8.2022010">
        <ele>331.2</ele>
        <time>2022-08-27T11:47:36Z</time>
      </trkpt>
      <trkpt lat="42.2065520" lon="-8.2022120">
        <ele>331.6</ele>
        <time>2022-08-27T11:47:37Z</time>
      </trkpt>
      <trkpt lat="42.2066170" lon="-8.2022780">
        <ele>332.8</ele>
        <time>2022-08-27T11:47:43Z</time>
      </trkpt>
      <trkpt lat="42.2066290" lon="-8.2022880">
        <ele>333.0</ele>
        <time>2022-08-27T11:47:44Z</time>
      </trkpt>
      <trkpt lat="42.2066780" lon="-8.2023350">
        <ele>333.8</ele>
        <time>2022-08-27T11:47:48Z</time>
      </trkpt>
      <trkpt lat="42.2067430" lon="-8.2023890">
        <ele>335.0</ele>
        <time>2022-08-27T11:47:53Z</time>
      </trkpt>
      <trkpt lat="42.2067550" lon="-8.2024000">
        <ele>335.0</ele>
        <time>2022-08-27T11:47:54Z</time>
      </trkpt>
      <trkpt lat="42.2068050" lon="-8.2024380">
        <ele>336.0</ele>
        <time>2022-08-27T11:47:58Z</time>
      </trkpt>
      <trkpt lat="42.2068810" lon="-8.2024940">
        <ele>337.0</ele>
        <time>2022-08-27T11:48:03Z</time>
      </trkpt>
      <trkpt lat="42.2069000" lon="-8.2025000">
        <ele>337.2</ele>
        <time>2022-08-27T11:48:04Z</time>
      </trkpt>
      <trkpt lat="42.2069740" lon="-8.2025220">
        <ele>338.2</ele>
        <time>2022-08-27T11:48:08Z</time>
      </trkpt>
      <trkpt lat="42.2070190" lon="-8.2025410">
        <ele>338.4</ele>
        <time>2022-08-27T11:48:11Z</time>
      </trkpt>
      <trkpt lat="42.2071010" lon="-8.2025760">
        <ele>339.2</ele>
        <time>2022-08-27T11:48:17Z</time>
      </trkpt>
      <trkpt lat="42.2071150" lon="-8.2025840">
        <ele>339.4</ele>
        <time>2022-08-27T11:48:18Z</time>
      </trkpt>
      <trkpt lat="42.2071650" lon="-8.2026230">
        <ele>340.4</ele>
        <time>2022-08-27T11:48:22Z</time>
      </trkpt>
      <trkpt lat="42.2072010" lon="-8.2026700">
        <ele>341.0</ele>
        <time>2022-08-27T11:48:26Z</time>
      </trkpt>
      <trkpt lat="42.2072210" lon="-8.2026910">
        <ele>341.4</ele>
        <time>2022-08-27T11:48:28Z</time>
      </trkpt>
      <trkpt lat="42.2072780" lon="-8.2027400">
        <ele>342.2</ele>
        <time>2022-08-27T11:48:33Z</time>
      </trkpt>
      <trkpt lat="42.2073020" lon="-8.2027590">
        <ele>342.4</ele>
        <time>2022-08-27T11:48:35Z</time>
      </trkpt>
      <trkpt lat="42.2073690" lon="-8.2028220">
        <ele>343.6</ele>
        <time>2022-08-27T11:48:41Z</time>
      </trkpt>
      <trkpt lat="42.2074010" lon="-8.2028470">
        <ele>344.0</ele>
        <time>2022-08-27T11:48:44Z</time>
      </trkpt>
      <trkpt lat="42.2074310" lon="-8.2028810">
        <ele>344.8</ele>
        <time>2022-08-27T11:48:48Z</time>
      </trkpt>
      <trkpt lat="42.2074740" lon="-8.2029160">
        <ele>345.8</ele>
        <time>2022-08-27T11:48:52Z</time>
      </trkpt>
      <trkpt lat="42.2075360" lon="-8.2029610">
        <ele>347.0</ele>
        <time>2022-08-27T11:48:58Z</time>
      </trkpt>
      <trkpt lat="42.2075510" lon="-8.2029770">
        <ele>347.2</ele>
        <time>2022-08-27T11:49:00Z</time>
      </trkpt>
      <trkpt lat="42.2075880" lon="-8.2030110">
        <ele>348.0</ele>
        <time>2022-08-27T11:49:04Z</time>
      </trkpt>
      <trkpt lat="42.2076360" lon="-8.2030410">
        <ele>349.0</ele>
        <time>2022-08-27T11:49:09Z</time>
      </trkpt>
      <trkpt lat="42.2076450" lon="-8.2030480">
        <ele>349.0</ele>
        <time>2022-08-27T11:49:10Z</time>
      </trkpt>
      <trkpt lat="42.2077110" lon="-8.2030990">
        <ele>350.2</ele>
        <time>2022-08-27T11:49:17Z</time>
      </trkpt>
      <trkpt lat="42.2077230" lon="-8.2031100">
        <ele>350.4</ele>
        <time>2022-08-27T11:49:18Z</time>
      </trkpt>
      <trkpt lat="42.2077870" lon="-8.2031640">
        <ele>351.4</ele>
        <time>2022-08-27T11:49:24Z</time>
      </trkpt>
      <trkpt lat="42.2078050" lon="-8.2031790">
        <ele>351.6</ele>
        <time>2022-08-27T11:49:26Z</time>
      </trkpt>
      <trkpt lat="42.2078430" lon="-8.2032160">
        <ele>352.6</ele>
        <time>2022-08-27T11:49:31Z</time>
      </trkpt>
      <trkpt lat="42.2078510" lon="-8.2032240">
        <ele>352.6</ele>
        <time>2022-08-27T11:49:32Z</time>
      </trkpt>
      <trkpt lat="42.2078950" lon="-8.2032470">
        <ele>353.8</ele>
        <time>2022-08-27T11:49:37Z</time>
      </trkpt>
      <trkpt lat="42.2079530" lon="-8.2033220">
        <ele>354.8</ele>
        <time>2022-08-27T11:49:43Z</time>
      </trkpt>
      <trkpt lat="42.2080200" lon="-8.2033960">
        <ele>356.0</ele>
        <time>2022-08-27T11:49:50Z</time>
      </trkpt>
      <trkpt lat="42.2080740" lon="-8.2034760">
        <ele>357.0</ele>
        <time>2022-08-27T11:49:56Z</time>
      </trkpt>
      <trkpt lat="42.2081200" lon="-8.2035460">
        <ele>358.0</ele>
        <time>2022-08-27T11:50:02Z</time>
      </trkpt>
      <trkpt lat="42.2081650" lon="-8.2036200">
        <ele>359.0</ele>
        <time>2022-08-27T11:50:09Z</time>
      </trkpt>
      <trkpt lat="42.2081760" lon="-8.2036420">
        <ele>359.4</ele>
        <time>2022-08-27T11:50:11Z</time>
      </trkpt>
      <trkpt lat="42.2082190" lon="-8.2036950">
        <ele>360.2</ele>
        <time>2022-08-27T11:50:16Z</time>
      </trkpt>
      <trkpt lat="42.2082590" lon="-8.2037660">
        <ele>361.4</ele>
        <time>2022-08-27T11:50:22Z</time>
      </trkpt>
      <trkpt lat="42.2082710" lon="-8.2037820">
        <ele>361.8</ele>
        <time>2022-08-27T11:50:24Z</time>
      </trkpt>
      <trkpt lat="42.2082960" lon="-8.2038160">
        <ele>362.2</ele>
        <time>2022-08-27T11:50:28Z</time>
      </trkpt>
      <trkpt lat="42.2083330" lon="-8.2038770">
        <ele>363.4</ele>
        <time>2022-08-27T11:50:34Z</time>
      </trkpt>
      <trkpt lat="42.2083650" lon="-8.2038960">
        <ele>364.2</ele>
        <time>2022-08-27T11:50:37Z</time>
      </trkpt>
      <trkpt lat="42.2083830" lon="-8.2039100">
        <ele>364.4</ele>
        <time>2022-08-27T11:50:39Z</time>
      </trkpt>
      <trkpt lat="42.2084440" lon="-8.2039750">
        <ele>365.6</ele>
        <time>2022-08-27T11:50:45Z</time>
      </trkpt>
      <trkpt lat="42.2084920" lon="-8.2040280">
        <ele>366.4</ele>
        <time>2022-08-27T11:50:49Z</time>
      </trkpt>
      <trkpt lat="42.2085160" lon="-8.2040550">
        <ele>366.6</ele>
        <time>2022-08-27T11:50:51Z</time>
      </trkpt>
      <trkpt lat="42.2086090" lon="-8.2041210">
        <ele>367.8</ele>
        <time>2022-08-27T11:50:58Z</time>
      </trkpt>
      <trkpt lat="42.2086370" lon="-8.2041350">
        <ele>368.0</ele>
        <time>2022-08-27T11:51:00Z</time>
      </trkpt>
      <trkpt lat="42.2087000" lon="-8.2041950">
        <ele>368.8</ele>
        <time>2022-08-27T11:51:05Z</time>
      </trkpt>
      <trkpt lat="42.2087710" lon="-8.2042750">
        <ele>369.6</ele>
        <time>2022-08-27T11:51:11Z</time>
      </trkpt>
      <trkpt lat="42.2087950" lon="-8.2042990">
        <ele>370.0</ele>
        <time>2022-08-27T11:51:13Z</time>
      </trkpt>
      <trkpt lat="42.2088530" lon="-8.2043650">
        <ele>371.0</ele>
        <time>2022-08-27T11:51:18Z</time>
      </trkpt>
      <trkpt lat="42.2089190" lon="-8.2044120">
        <ele>372.0</ele>
        <time>2022-08-27T11:51:23Z</time>
      </trkpt>
      <trkpt lat="42.2089310" lon="-8.2044170">
        <ele>372.2</ele>
        <time>2022-08-27T11:51:24Z</time>
      </trkpt>
      <trkpt lat="42.2090060" lon="-8.2044520">
        <ele>373.0</ele>
        <time>2022-08-27T11:51:29Z</time>
      </trkpt>
      <trkpt lat="42.2090810" lon="-8.2044710">
        <ele>374.2</ele>
        <time>2022-08-27T11:51:34Z</time>
      </trkpt>
      <trkpt lat="42.2091400" lon="-8.2044800">
        <ele>374.8</ele>
        <time>2022-08-27T11:51:38Z</time>
      </trkpt>
      <trkpt lat="42.2091900" lon="-8.2044820">
        <ele>375.2</ele>
        <time>2022-08-27T11:51:41Z</time>
      </trkpt>
      <trkpt lat="42.2092540" lon="-8.2045020">
        <ele>376.0</ele>
        <time>2022-08-27T11:51:46Z</time>
      </trkpt>
      <trkpt lat="42.2092990" lon="-8.2045160">
        <ele>376.6</ele>
        <time>2022-08-27T11:51:49Z</time>
      </trkpt>
      <trkpt lat="42.2093410" lon="-8.2045400">
        <ele>377.2</ele>
        <time>2022-08-27T11:51:52Z</time>
      </trkpt>
      <trkpt lat="42.2094920" lon="-8.2046100">
        <ele>378.2</ele>
        <time>2022-08-27T11:52:00Z</time>
      </trkpt>
      <trkpt lat="42.2095090" lon="-8.2046220">
        <ele>378.4</ele>
        <time>2022-08-27T11:52:01Z</time>
      </trkpt>
      <trkpt lat="42.2096080" lon="-8.2046680">
        <ele>379.4</ele>
        <time>2022-08-27T11:52:08Z</time>
      </trkpt>
      <trkpt lat="42.2096770" lon="-8.2047040">
        <ele>380.4</ele>
        <time>2022-08-27T11:52:13Z</time>
      </trkpt>
      <trkpt lat="42.2097150" lon="-8.2047240">
        <ele>380.8</ele>
        <time>2022-08-27T11:52:16Z</time>
      </trkpt>
      <trkpt lat="42.2097600" lon="-8.2047480">
        <ele>381.6</ele>
        <time>2022-08-27T11:52:20Z</time>
      </trkpt>
      <trkpt lat="42.2097900" lon="-8.2047620">
        <ele>382.2</ele>
        <time>2022-08-27T11:52:23Z</time>
      </trkpt>
      <trkpt lat="42.2098140" lon="-8.2047760">
        <ele>382.6</ele>
        <time>2022-08-27T11:52:25Z</time>
      </trkpt>
      <trkpt lat="42.2098690" lon="-8.2048110">
        <ele>383.4</ele>
        <time>2022-08-27T11:52:30Z</time>
      </trkpt>
      <trkpt lat="42.2098910" lon="-8.2048310">
        <ele>383.6</ele>
        <time>2022-08-27T11:52:32Z</time>
      </trkpt>
      <trkpt lat="42.2099350" lon="-8.2048710">
        <ele>384.6</ele>
        <time>2022-08-27T11:52:36Z</time>
      </trkpt>
      <trkpt lat="42.2099460" lon="-8.2048800">
        <ele>384.8</ele>
        <time>2022-08-27T11:52:37Z</time>
      </trkpt>
      <trkpt lat="42.2099960" lon="-8.2049290">
        <ele>386.0</ele>
        <time>2022-08-27T11:52:42Z</time>
      </trkpt>
      <trkpt lat="42.2100070" lon="-8.2049400">
        <ele>386.2</ele>
        <time>2022-08-27T11:52:43Z</time>
      </trkpt>
      <trkpt lat="42.2100490" lon="-8.2049840">
        <ele>387.2</ele>
        <time>2022-08-27T11:52:47Z</time>
      </trkpt>
      <trkpt lat="42.2100860" lon="-8.2050330">
        <ele>388.0</ele>
        <time>2022-08-27T11:52:51Z</time>
      </trkpt>
      <trkpt lat="42.2100930" lon="-8.2050470">
        <ele>388.2</ele>
        <time>2022-08-27T11:52:52Z</time>
      </trkpt>
      <trkpt lat="42.2101330" lon="-8.2051030">
        <ele>389.4</ele>
        <time>2022-08-27T11:52:57Z</time>
      </trkpt>
      <trkpt lat="42.2101390" lon="-8.2051170">
        <ele>389.6</ele>
        <time>2022-08-27T11:52:58Z</time>
      </trkpt>
      <trkpt lat="42.2101720" lon="-8.2051680">
        <ele>390.6</ele>
        <time>2022-08-27T11:53:02Z</time>
      </trkpt>
      <trkpt lat="42.2102100" lon="-8.2052200">
        <ele>391.8</ele>
        <time>2022-08-27T11:53:06Z</time>
      </trkpt>
      <trkpt lat="42.2102270" lon="-8.2052430">
        <ele>392.4</ele>
        <time>2022-08-27T11:53:08Z</time>
      </trkpt>
      <trkpt lat="42.2102560" lon="-8.2052780">
        <ele>393.0</ele>
        <time>2022-08-27T11:53:11Z</time>
      </trkpt>
      <trkpt lat="42.2102860" lon="-8.2053350">
        <ele>393.6</ele>
        <time>2022-08-27T11:53:15Z</time>
      </trkpt>
      <trkpt lat="42.2103130" lon="-8.2053780">
        <ele>394.2</ele>
        <time>2022-08-27T11:53:18Z</time>
      </trkpt>
      <trkpt lat="42.2103790" lon="-8.2054130">
        <ele>394.4</ele>
        <time>2022-08-27T11:53:21Z</time>
      </trkpt>
      <trkpt lat="42.2104940" lon="-8.2054390">
        <ele>394.6</ele>
        <time>2022-08-27T11:53:24Z</time>
      </trkpt>
      <trkpt lat="42.2105420" lon="-8.2054410">
        <ele>394.6</ele>
        <time>2022-08-27T11:53:25Z</time>
      </trkpt>
      <trkpt lat="42.2107920" lon="-8.2054150">
        <ele>394.6</ele>
        <time>2022-08-27T11:53:29Z</time>
      </trkpt>
      <trkpt lat="42.2111960" lon="-8.2053940">
        <ele>393.6</ele>
        <time>2022-08-27T11:53:34Z</time>
      </trkpt>
      <trkpt lat="42.2113590" lon="-8.2053910">
        <ele>392.8</ele>
        <time>2022-08-27T11:53:36Z</time>
      </trkpt>
      <trkpt lat="42.2116120" lon="-8.2053940">
        <ele>391.2</ele>
        <time>2022-08-27T11:53:39Z</time>
      </trkpt>
      <trkpt lat="42.2117800" lon="-8.2054080">
        <ele>390.0</ele>
        <time>2022-08-27T11:53:41Z</time>
      </trkpt>
      <trkpt lat="42.2119320" lon="-8.2054320">
        <ele>388.8</ele>
        <time>2022-08-27T11:53:43Z</time>
      </trkpt>
      <trkpt lat="42.2120580" lon="-8.2054580">
        <ele>387.4</ele>
        <time>2022-08-27T11:53:45Z</time>
      </trkpt>
      <trkpt lat="42.2121130" lon="-8.2054690">
        <ele>386.8</ele>
        <time>2022-08-27T11:53:46Z</time>
      </trkpt>
      <trkpt lat="42.2121600" lon="-8.2054750">
        <ele>386.2</ele>
        <time>2022-08-27T11:53:47Z</time>
      </trkpt>
      <trkpt lat="42.2122280" lon="-8.2054620">
        <ele>385.0</ele>
        <time>2022-08-27T11:53:49Z</time>
      </trkpt>
      <trkpt lat="42.2122430" lon="-8.2054550">
        <ele>384.2</ele>
        <time>2022-08-27T11:53:50Z</time>
      </trkpt>
      <trkpt lat="42.2122490" lon="-8.2054530">
        <ele>383.6</ele>
        <time>2022-08-27T11:53:51Z</time>
      </trkpt>
      <trkpt lat="42.2122500" lon="-8.2054530">
        <ele>382.8</ele>
        <time>2022-08-27T11:53:52Z</time>
      </trkpt>
      <trkpt lat="42.2122820" lon="-8.2053970">
        <ele>379.0</ele>
        <time>2022-08-27T11:54:52Z</time>
      </trkpt>
      <trkpt lat="42.2122950" lon="-8.2053770">
        <ele>379.0</ele>
        <time>2022-08-27T11:54:53Z</time>
      </trkpt>
      <trkpt lat="42.2123770" lon="-8.2053140">
        <ele>379.0</ele>
        <time>2022-08-27T11:54:58Z</time>
      </trkpt>
      <trkpt lat="42.2123970" lon="-8.2053000">
        <ele>379.0</ele>
        <time>2022-08-27T11:55:01Z</time>
      </trkpt>
      <trkpt lat="42.2125730" lon="-8.2053170">
        <ele>379.8</ele>
        <time>2022-08-27T12:08:52Z</time>
      </trkpt>
      <trkpt lat="42.2126940" lon="-8.2053470">
        <ele>379.8</ele>
        <time>2022-08-27T12:08:58Z</time>
      </trkpt>
      <trkpt lat="42.2127320" lon="-8.2053560">
        <ele>379.8</ele>
        <time>2022-08-27T12:09:02Z</time>
      </trkpt>
      <trkpt lat="42.2127870" lon="-8.2053860">
        <ele>379.4</ele>
        <time>2022-08-27T12:09:20Z</time>
      </trkpt>
      <trkpt lat="42.2129240" lon="-8.2054480">
        <ele>379.2</ele>
        <time>2022-08-27T12:09:25Z</time>
      </trkpt>
      <trkpt lat="42.2131370" lon="-8.2055220">
        <ele>379.0</ele>
        <time>2022-08-27T12:09:30Z</time>
      </trkpt>
      <trkpt lat="42.2131910" lon="-8.2055380">
        <ele>379.0</ele>
        <time>2022-08-27T12:09:31Z</time>
      </trkpt>
      <trkpt lat="42.2133500" lon="-8.2056050">
        <ele>378.4</ele>
        <time>2022-08-27T12:09:34Z</time>
      </trkpt>
      <trkpt lat="42.2134420" lon="-8.2057130">
        <ele>378.0</ele>
        <time>2022-08-27T12:09:36Z</time>
      </trkpt>
      <trkpt lat="42.2135240" lon="-8.2058550">
        <ele>377.4</ele>
        <time>2022-08-27T12:09:38Z</time>
      </trkpt>
      <trkpt lat="42.2136090" lon="-8.2060120">
        <ele>376.6</ele>
        <time>2022-08-27T12:09:40Z</time>
      </trkpt>
      <trkpt lat="42.2136860" lon="-8.2061810">
        <ele>375.4</ele>
        <time>2022-08-27T12:09:42Z</time>
      </trkpt>
      <trkpt lat="42.2137160" lon="-8.2062670">
        <ele>374.6</ele>
        <time>2022-08-27T12:09:43Z</time>
      </trkpt>
      <trkpt lat="42.2137370" lon="-8.2063540">
        <ele>374.0</ele>
        <time>2022-08-27T12:09:44Z</time>
      </trkpt>
      <trkpt lat="42.2137510" lon="-8.2065260">
        <ele>373.2</ele>
        <time>2022-08-27T12:09:46Z</time>
      </trkpt>
      <trkpt lat="42.2137500" lon="-8.2066090">
        <ele>372.6</ele>
        <time>2022-08-27T12:09:47Z</time>
      </trkpt>
      <trkpt lat="42.2137470" lon="-8.2066870">
        <ele>372.2</ele>
        <time>2022-08-27T12:09:48Z</time>
      </trkpt>
      <trkpt lat="42.2137300" lon="-8.2068170">
        <ele>371.4</ele>
        <time>2022-08-27T12:09:50Z</time>
      </trkpt>
      <trkpt lat="42.2137280" lon="-8.2068780">
        <ele>371.0</ele>
        <time>2022-08-27T12:09:51Z</time>
      </trkpt>
      <trkpt lat="42.2137750" lon="-8.2070060">
        <ele>370.0</ele>
        <time>2022-08-27T12:09:53Z</time>
      </trkpt>
      <trkpt lat="42.2138110" lon="-8.2070750">
        <ele>369.4</ele>
        <time>2022-08-27T12:09:54Z</time>
      </trkpt>
      <trkpt lat="42.2138520" lon="-8.2071480">
        <ele>368.8</ele>
        <time>2022-08-27T12:09:55Z</time>
      </trkpt>
      <trkpt lat="42.2139400" lon="-8.2073160">
        <ele>367.2</ele>
        <time>2022-08-27T12:09:57Z</time>
      </trkpt>
      <trkpt lat="42.2140380" lon="-8.2075080">
        <ele>365.4</ele>
        <time>2022-08-27T12:09:59Z</time>
      </trkpt>
      <trkpt lat="42.2141410" lon="-8.2077130">
        <ele>363.8</ele>
        <time>2022-08-27T12:10:01Z</time>
      </trkpt>
      <trkpt lat="42.2142480" lon="-8.2079330">
        <ele>362.6</ele>
        <time>2022-08-27T12:10:03Z</time>
      </trkpt>
      <trkpt lat="42.2143670" lon="-8.2081660">
        <ele>361.4</ele>
        <time>2022-08-27T12:10:05Z</time>
      </trkpt>
      <trkpt lat="42.2145040" lon="-8.2084090">
        <ele>359.8</ele>
        <time>2022-08-27T12:10:07Z</time>
      </trkpt>
      <trkpt lat="42.2146540" lon="-8.2086440">
        <ele>358.0</ele>
        <time>2022-08-27T12:10:09Z</time>
      </trkpt>
      <trkpt lat="42.2147360" lon="-8.2087570">
        <ele>357.4</ele>
        <time>2022-08-27T12:10:10Z</time>
      </trkpt>
      <trkpt lat="42.2148250" lon="-8.2088650">
        <ele>356.6</ele>
        <time>2022-08-27T12:10:11Z</time>
      </trkpt>
      <trkpt lat="42.2150150" lon="-8.2090530">
        <ele>354.8</ele>
        <time>2022-08-27T12:10:13Z</time>
      </trkpt>
      <trkpt lat="42.2151130" lon="-8.2091290">
        <ele>354.0</ele>
        <time>2022-08-27T12:10:14Z</time>
      </trkpt>
      <trkpt lat="42.2152150" lon="-8.2092000">
        <ele>353.0</ele>
        <time>2022-08-27T12:10:15Z</time>
      </trkpt>
      <trkpt lat="42.2153250" lon="-8.2092590">
        <ele>352.0</ele>
        <time>2022-08-27T12:10:16Z</time>
      </trkpt>
      <trkpt lat="42.2155490" lon="-8.2093430">
        <ele>350.2</ele>
        <time>2022-08-27T12:10:18Z</time>
      </trkpt>
      <trkpt lat="42.2156650" lon="-8.2093680">
        <ele>349.0</ele>
        <time>2022-08-27T12:10:19Z</time>
      </trkpt>
      <trkpt lat="42.2157800" lon="-8.2093770">
        <ele>348.0</ele>
        <time>2022-08-27T12:10:20Z</time>
      </trkpt>
      <trkpt lat="42.2158960" lon="-8.2093800">
        <ele>346.8</ele>
        <time>2022-08-27T12:10:21Z</time>
      </trkpt>
      <trkpt lat="42.2160120" lon="-8.2093730">
        <ele>345.6</ele>
        <time>2022-08-27T12:10:22Z</time>
      </trkpt>
      <trkpt lat="42.2161320" lon="-8.2093550">
        <ele>344.6</ele>
        <time>2022-08-27T12:10:23Z</time>
      </trkpt>
      <trkpt lat="42.2162530" lon="-8.2093230">
        <ele>343.6</ele>
        <time>2022-08-27T12:10:24Z</time>
      </trkpt>
      <trkpt lat="42.2163740" lon="-8.2092770">
        <ele>342.6</ele>
        <time>2022-08-27T12:10:25Z</time>
      </trkpt>
      <trkpt lat="42.2164930" lon="-8.2092160">
        <ele>341.4</ele>
        <time>2022-08-27T12:10:26Z</time>
      </trkpt>
      <trkpt lat="42.2166090" lon="-8.2091440">
        <ele>340.4</ele>
        <time>2022-08-27T12:10:27Z</time>
      </trkpt>
      <trkpt lat="42.2167200" lon="-8.2090630">
        <ele>339.2</ele>
        <time>2022-08-27T12:10:28Z</time>
      </trkpt>
      <trkpt lat="42.2168280" lon="-8.2089760">
        <ele>337.6</ele>
        <time>2022-08-27T12:10:29Z</time>
      </trkpt>
      <trkpt lat="42.2169360" lon="-8.2088850">
        <ele>336.8</ele>
        <time>2022-08-27T12:10:30Z</time>
      </trkpt>
      <trkpt lat="42.2170410" lon="-8.2087880">
        <ele>335.8</ele>
        <time>2022-08-27T12:10:31Z</time>
      </trkpt>
      <trkpt lat="42.2171430" lon="-8.2086860">
        <ele>334.6</ele>
        <time>2022-08-27T12:10:32Z</time>
      </trkpt>
      <trkpt lat="42.2172430" lon="-8.2085770">
        <ele>333.6</ele>
        <time>2022-08-27T12:10:33Z</time>
      </trkpt>
      <trkpt lat="42.2174390" lon="-8.2083620">
        <ele>331.6</ele>
        <time>2022-08-27T12:10:35Z</time>
      </trkpt>
      <trkpt lat="42.2176210" lon="-8.2081610">
        <ele>329.6</ele>
        <time>2022-08-27T12:10:37Z</time>
      </trkpt>
      <trkpt lat="42.2177010" lon="-8.2080680">
        <ele>328.4</ele>
        <time>2022-08-27T12:10:38Z</time>
      </trkpt>
      <trkpt lat="42.2177760" lon="-8.2079740">
        <ele>327.0</ele>
        <time>2022-08-27T12:10:39Z</time>
      </trkpt>
      <trkpt lat="42.2178460" lon="-8.2078760">
        <ele>325.6</ele>
        <time>2022-08-27T12:10:40Z</time>
      </trkpt>
      <trkpt lat="42.2179110" lon="-8.2077770">
        <ele>324.2</ele>
        <time>2022-08-27T12:10:41Z</time>
      </trkpt>
      <trkpt lat="42.2179710" lon="-8.2076740">
        <ele>323.0</ele>
        <time>2022-08-27T12:10:42Z</time>
      </trkpt>
      <trkpt lat="42.2180250" lon="-8.2075660">
        <ele>322.0</ele>
        <time>2022-08-27T12:10:43Z</time>
      </trkpt>
      <trkpt lat="42.2181080" lon="-8.2073450">
        <ele>320.0</ele>
        <time>2022-08-27T12:10:45Z</time>
      </trkpt>
      <trkpt lat="42.2181400" lon="-8.2072400">
        <ele>318.8</ele>
        <time>2022-08-27T12:10:46Z</time>
      </trkpt>
      <trkpt lat="42.2181670" lon="-8.2071410">
        <ele>317.8</ele>
        <time>2022-08-27T12:10:47Z</time>
      </trkpt>
      <trkpt lat="42.2182120" lon="-8.2069880">
        <ele>315.8</ele>
        <time>2022-08-27T12:10:49Z</time>
      </trkpt>
      <trkpt lat="42.2182330" lon="-8.2069310">
        <ele>315.0</ele>
        <time>2022-08-27T12:10:50Z</time>
      </trkpt>
      <trkpt lat="42.2182580" lon="-8.2068840">
        <ele>314.0</ele>
        <time>2022-08-27T12:10:51Z</time>
      </trkpt>
      <trkpt lat="42.2183180" lon="-8.2068290">
        <ele>312.6</ele>
        <time>2022-08-27T12:10:53Z</time>
      </trkpt>
      <trkpt lat="42.2183570" lon="-8.2068260">
        <ele>310.0</ele>
        <time>2022-08-27T12:10:55Z</time>
      </trkpt>
      <trkpt lat="42.2183850" lon="-8.2068490">
        <ele>308.8</ele>
        <time>2022-08-27T12:10:57Z</time>
      </trkpt>
      <trkpt lat="42.2183980" lon="-8.2068630">
        <ele>308.6</ele>
        <time>2022-08-27T12:10:58Z</time>
      </trkpt>
      <trkpt lat="42.2185090" lon="-8.2069240">
        <ele>308.4</ele>
        <time>2022-08-27T12:11:05Z</time>
      </trkpt>
      <trkpt lat="42.2186140" lon="-8.2069580">
        <ele>309.2</ele>
        <time>2022-08-27T12:11:11Z</time>
      </trkpt>
      <trkpt lat="42.2186570" lon="-8.2069780">
        <ele>310.0</ele>
        <time>2022-08-27T12:11:14Z</time>
      </trkpt>
      <trkpt lat="42.2187190" lon="-8.2070000">
        <ele>311.0</ele>
        <time>2022-08-27T12:11:18Z</time>
      </trkpt>
      <trkpt lat="42.2187350" lon="-8.2070070">
        <ele>311.2</ele>
        <time>2022-08-27T12:11:19Z</time>
      </trkpt>
      <trkpt lat="42.2188320" lon="-8.2070740">
        <ele>311.8</ele>
        <time>2022-08-27T12:11:26Z</time>
      </trkpt>
      <trkpt lat="42.2188470" lon="-8.2070830">
        <ele>312.0</ele>
        <time>2022-08-27T12:11:27Z</time>
      </trkpt>
      <trkpt lat="42.2189700" lon="-8.2071760">
        <ele>312.8</ele>
        <time>2022-08-27T12:11:35Z</time>
      </trkpt>
      <trkpt lat="42.2190790" lon="-8.2072760">
        <ele>313.8</ele>
        <time>2022-08-27T12:11:43Z</time>
      </trkpt>
      <trkpt lat="42.2190950" lon="-8.2072870">
        <ele>314.0</ele>
        <time>2022-08-27T12:11:44Z</time>
      </trkpt>
      <trkpt lat="42.2191900" lon="-8.2073610">
        <ele>315.0</ele>
        <time>2022-08-27T12:11:51Z</time>
      </trkpt>
      <trkpt lat="42.2192810" lon="-8.2074520">
        <ele>315.8</ele>
        <time>2022-08-27T12:11:59Z</time>
      </trkpt>
      <trkpt lat="42.2193480" lon="-8.2075230">
        <ele>316.8</ele>
        <time>2022-08-27T12:12:06Z</time>
      </trkpt>
      <trkpt lat="42.2193570" lon="-8.2075340">
        <ele>317.0</ele>
        <time>2022-08-27T12:12:07Z</time>
      </trkpt>
      <trkpt lat="42.2193780" lon="-8.2076370">
        <ele>317.6</ele>
        <time>2022-08-27T12:12:12Z</time>
      </trkpt>
      <trkpt lat="42.2193590" lon="-8.2077300">
        <ele>318.2</ele>
        <time>2022-08-27T12:12:16Z</time>
      </trkpt>
      <trkpt lat="42.2193500" lon="-8.2077520">
        <ele>318.4</ele>
        <time>2022-08-27T12:12:17Z</time>
      </trkpt>
      <trkpt lat="42.2192670" lon="-8.2078390">
        <ele>319.0</ele>
        <time>2022-08-27T12:12:23Z</time>
      </trkpt>
      <trkpt lat="42.2192480" lon="-8.2078470">
        <ele>319.2</ele>
        <time>2022-08-27T12:12:24Z</time>
      </trkpt>
      <trkpt lat="42.2191500" lon="-8.2078670">
        <ele>319.8</ele>
        <time>2022-08-27T12:12:29Z</time>
      </trkpt>
      <trkpt lat="42.2191040" lon="-8.2078700">
        <ele>320.2</ele>
        <time>2022-08-27T12:12:31Z</time>
      </trkpt>
      <trkpt lat="42.2189890" lon="-8.2078710">
        <ele>320.8</ele>
        <time>2022-08-27T12:12:36Z</time>
      </trkpt>
      <trkpt lat="42.2188380" lon="-8.2078920">
        <ele>321.2</ele>
        <time>2022-08-27T12:12:42Z</time>
      </trkpt>
      <trkpt lat="42.2187530" lon="-8.2079150">
        <ele>321.2</ele>
        <time>2022-08-27T12:12:45Z</time>
      </trkpt>
      <trkpt lat="42.2187020" lon="-8.2079440">
        <ele>321.2</ele>
        <time>2022-08-27T12:12:47Z</time>
      </trkpt>
      <trkpt lat="42.2185990" lon="-8.2080510">
        <ele>321.0</ele>
        <time>2022-08-27T12:12:52Z</time>
      </trkpt>
      <trkpt lat="42.2184920" lon="-8.2082290">
        <ele>321.4</ele>
        <time>2022-08-27T12:13:00Z</time>
      </trkpt>
      <trkpt lat="42.2184520" lon="-8.2083160">
        <ele>321.8</ele>
        <time>2022-08-27T12:13:05Z</time>
      </trkpt>
      <trkpt lat="42.2184570" lon="-8.2083320">
        <ele>322.0</ele>
        <time>2022-08-27T12:13:06Z</time>
      </trkpt>
      <trkpt lat="42.2184750" lon="-8.2083570">
        <ele>322.2</ele>
        <time>2022-08-27T12:13:08Z</time>
      </trkpt>
      <trkpt lat="42.2185030" lon="-8.2083710">
        <ele>322.4</ele>
        <time>2022-08-27T12:13:10Z</time>
      </trkpt>
      <trkpt lat="42.2185190" lon="-8.2083680">
        <ele>322.4</ele>
        <time>2022-08-27T12:13:11Z</time>
      </trkpt>
      <trkpt lat="42.2185660" lon="-8.2083330">
        <ele>323.2</ele>
        <time>2022-08-27T12:13:15Z</time>
      </trkpt>
      <trkpt lat="42.2185760" lon="-8.2083220">
        <ele>323.4</ele>
        <time>2022-08-27T12:13:16Z</time>
      </trkpt>
      <trkpt lat="42.2185950" lon="-8.2082980">
        <ele>323.8</ele>
        <time>2022-08-27T12:13:18Z</time>
      </trkpt>
      <trkpt lat="42.2186270" lon="-8.2082570">
        <ele>324.4</ele>
        <time>2022-08-27T12:13:21Z</time>
      </trkpt>
      <trkpt lat="42.2186770" lon="-8.2081960">
        <ele>325.0</ele>
        <time>2022-08-27T12:13:26Z</time>
      </trkpt>
      <trkpt lat="42.2187020" lon="-8.2081620">
        <ele>325.2</ele>
        <time>2022-08-27T12:13:29Z</time>
      </trkpt>
      <trkpt lat="42.2187350" lon="-8.2081350">
        <ele>325.8</ele>
        <time>2022-08-27T12:13:33Z</time>
      </trkpt>
      <trkpt lat="42.2187870" lon="-8.2081050">
        <ele>326.4</ele>
        <time>2022-08-27T12:13:38Z</time>
      </trkpt>
      <trkpt lat="42.2188220" lon="-8.2080900">
        <ele>326.8</ele>
        <time>2022-08-27T12:13:41Z</time>
      </trkpt>
      <trkpt lat="42.2188630" lon="-8.2080810">
        <ele>327.4</ele>
        <time>2022-08-27T12:13:45Z</time>
      </trkpt>
      <trkpt lat="42.2188860" lon="-8.2080750">
        <ele>327.6</ele>
        <time>2022-08-27T12:13:47Z</time>
      </trkpt>
      <trkpt lat="42.2189630" lon="-8.2080710">
        <ele>328.6</ele>
        <time>2022-08-27T12:13:54Z</time>
      </trkpt>
      <trkpt lat="42.2190310" lon="-8.2080750">
        <ele>329.6</ele>
        <time>2022-08-27T12:14:00Z</time>
      </trkpt>
      <trkpt lat="42.2190430" lon="-8.2080760">
        <ele>329.8</ele>
        <time>2022-08-27T12:14:01Z</time>
      </trkpt>
      <trkpt lat="42.2191120" lon="-8.2080940">
        <ele>330.8</ele>
        <time>2022-08-27T12:14:07Z</time>
      </trkpt>
      <trkpt lat="42.2191360" lon="-8.2080980">
        <ele>331.2</ele>
        <time>2022-08-27T12:14:09Z</time>
      </trkpt>
      <trkpt lat="42.2191930" lon="-8.2081130">
        <ele>331.8</ele>
        <time>2022-08-27T12:14:14Z</time>
      </trkpt>
      <trkpt lat="42.2192130" lon="-8.2081250">
        <ele>332.0</ele>
        <time>2022-08-27T12:14:16Z</time>
      </trkpt>
      <trkpt lat="42.2192720" lon="-8.2081790">
        <ele>332.8</ele>
        <time>2022-08-27T12:14:24Z</time>
      </trkpt>
      <trkpt lat="42.2192790" lon="-8.2081870">
        <ele>333.0</ele>
        <time>2022-08-27T12:14:25Z</time>
      </trkpt>
      <trkpt lat="42.2193190" lon="-8.2082220">
        <ele>334.0</ele>
        <time>2022-08-27T12:14:31Z</time>
      </trkpt>
      <trkpt lat="42.2193550" lon="-8.2082620">
        <ele>334.8</ele>
        <time>2022-08-27T12:14:36Z</time>
      </trkpt>
      <trkpt lat="42.2193640" lon="-8.2082680">
        <ele>334.8</ele>
        <time>2022-08-27T12:14:37Z</time>
      </trkpt>
      <trkpt lat="42.2194090" lon="-8.2083100">
        <ele>336.0</ele>
        <time>2022-08-27T12:14:43Z</time>
      </trkpt>
      <trkpt lat="42.2194410" lon="-8.2083440">
        <ele>336.8</ele>
        <time>2022-08-27T12:14:48Z</time>
      </trkpt>
      <trkpt lat="42.2194700" lon="-8.2083590">
        <ele>337.2</ele>
        <time>2022-08-27T12:14:51Z</time>
      </trkpt>
      <trkpt lat="42.2195280" lon="-8.2083930">
        <ele>338.0</ele>
        <time>2022-08-27T12:14:57Z</time>
      </trkpt>
      <trkpt lat="42.2195420" lon="-8.2084000">
        <ele>338.2</ele>
        <time>2022-08-27T12:14:59Z</time>
      </trkpt>
      <trkpt lat="42.2195880" lon="-8.2084130">
        <ele>339.4</ele>
        <time>2022-08-27T12:15:04Z</time>
      </trkpt>
      <trkpt lat="42.2196410" lon="-8.2084190">
        <ele>340.4</ele>
        <time>2022-08-27T12:15:10Z</time>
      </trkpt>
      <trkpt lat="42.2197080" lon="-8.2084440">
        <ele>341.2</ele>
        <time>2022-08-27T12:15:17Z</time>
      </trkpt>
      <trkpt lat="42.2197630" lon="-8.2084560">
        <ele>342.0</ele>
        <time>2022-08-27T12:15:23Z</time>
      </trkpt>
      <trkpt lat="42.2197840" lon="-8.2084620">
        <ele>342.4</ele>
        <time>2022-08-27T12:15:25Z</time>
      </trkpt>
      <trkpt lat="42.2198430" lon="-8.2084740">
        <ele>343.4</ele>
        <time>2022-08-27T12:15:31Z</time>
      </trkpt>
      <trkpt lat="42.2198830" lon="-8.2084720">
        <ele>344.4</ele>
        <time>2022-08-27T12:15:36Z</time>
      </trkpt>
      <trkpt lat="42.2198950" lon="-8.2084730">
        <ele>344.4</ele>
        <time>2022-08-27T12:15:37Z</time>
      </trkpt>
      <trkpt lat="42.2199060" lon="-8.2084760">
        <ele>344.4</ele>
        <time>2022-08-27T12:15:38Z</time>
      </trkpt>
      <trkpt lat="42.2199170" lon="-8.2084800">
        <ele>344.6</ele>
        <time>2022-08-27T12:15:39Z</time>
      </trkpt>
      <trkpt lat="42.2199710" lon="-8.2084930">
        <ele>345.6</ele>
        <time>2022-08-27T12:15:46Z</time>
      </trkpt>
      <trkpt lat="42.2199800" lon="-8.2084910">
        <ele>345.8</ele>
        <time>2022-08-27T12:15:47Z</time>
      </trkpt>
      <trkpt lat="42.2200350" lon="-8.2084980">
        <ele>346.6</ele>
        <time>2022-08-27T12:15:54Z</time>
      </trkpt>
      <trkpt lat="42.2200930" lon="-8.2084950">
        <ele>347.4</ele>
        <time>2022-08-27T12:16:00Z</time>
      </trkpt>
      <trkpt lat="42.2201040" lon="-8.2084950">
        <ele>347.6</ele>
        <time>2022-08-27T12:16:01Z</time>
      </trkpt>
      <trkpt lat="42.2201500" lon="-8.2084730">
        <ele>348.6</ele>
        <time>2022-08-27T12:16:06Z</time>
      </trkpt>
      <trkpt lat="42.2201900" lon="-8.2084730">
        <ele>349.4</ele>
        <time>2022-08-27T12:16:10Z</time>
      </trkpt>
      <trkpt lat="42.2202270" lon="-8.2084710">
        <ele>349.8</ele>
        <time>2022-08-27T12:16:13Z</time>
      </trkpt>
      <trkpt lat="42.2202950" lon="-8.2084790">
        <ele>350.8</ele>
        <time>2022-08-27T12:16:20Z</time>
      </trkpt>
      <trkpt lat="42.2203040" lon="-8.2084790">
        <ele>350.8</ele>
        <time>2022-08-27T12:16:21Z</time>
      </trkpt>
      <trkpt lat="42.2203830" lon="-8.2085040">
        <ele>351.8</ele>
        <time>2022-08-27T12:16:30Z</time>
      </trkpt>
      <trkpt lat="42.2204030" lon="-8.2085130">
        <ele>352.2</ele>
        <time>2022-08-27T12:16:32Z</time>
      </trkpt>
      <trkpt lat="42.2204380" lon="-8.2085250">
        <ele>352.8</ele>
        <time>2022-08-27T12:16:36Z</time>
      </trkpt>
      <trkpt lat="42.2204760" lon="-8.2085380">
        <ele>353.8</ele>
        <time>2022-08-27T12:16:40Z</time>
      </trkpt>
      <trkpt lat="42.2205290" lon="-8.2085490">
        <ele>354.8</ele>
        <time>2022-08-27T12:16:45Z</time>
      </trkpt>
      <trkpt lat="42.2205380" lon="-8.2085480">
        <ele>354.8</ele>
        <time>2022-08-27T12:16:46Z</time>
      </trkpt>
      <trkpt lat="42.2206100" lon="-8.2085510">
        <ele>355.8</ele>
        <time>2022-08-27T12:16:54Z</time>
      </trkpt>
      <trkpt lat="42.2206710" lon="-8.2085450">
        <ele>356.8</ele>
        <time>2022-08-27T12:17:01Z</time>
      </trkpt>
      <trkpt lat="42.2207040" lon="-8.2085380">
        <ele>357.4</ele>
        <time>2022-08-27T12:17:05Z</time>
      </trkpt>
      <trkpt lat="42.2207300" lon="-8.2085270">
        <ele>357.8</ele>
        <time>2022-08-27T12:17:08Z</time>
      </trkpt>
      <trkpt lat="42.2208020" lon="-8.2085140">
        <ele>358.6</ele>
        <time>2022-08-27T12:17:15Z</time>
      </trkpt>
      <trkpt lat="42.2208220" lon="-8.2084970">
        <ele>359.0</ele>
        <time>2022-08-27T12:17:18Z</time>
      </trkpt>
      <trkpt lat="42.2208420" lon="-8.2084820">
        <ele>359.4</ele>
        <time>2022-08-27T12:17:20Z</time>
      </trkpt>
      <trkpt lat="42.2208960" lon="-8.2084710">
        <ele>360.2</ele>
        <time>2022-08-27T12:17:25Z</time>
      </trkpt>
      <trkpt lat="42.2209660" lon="-8.2084690">
        <ele>361.0</ele>
        <time>2022-08-27T12:17:32Z</time>
      </trkpt>
      <trkpt lat="42.2210240" lon="-8.2084930">
        <ele>362.2</ele>
        <time>2022-08-27T12:17:38Z</time>
      </trkpt>
      <trkpt lat="42.2210800" lon="-8.2085110">
        <ele>363.2</ele>
        <time>2022-08-27T12:17:44Z</time>
      </trkpt>
      <trkpt lat="42.2211210" lon="-8.2085310">
        <ele>364.2</ele>
        <time>2022-08-27T12:17:49Z</time>
      </trkpt>
      <trkpt lat="42.2211290" lon="-8.2085350">
        <ele>364.4</ele>
        <time>2022-08-27T12:17:50Z</time>
      </trkpt>
      <trkpt lat="42.2211480" lon="-8.2085420">
        <ele>364.6</ele>
        <time>2022-08-27T12:17:52Z</time>
      </trkpt>
      <trkpt lat="42.2211760" lon="-8.2085600">
        <ele>365.4</ele>
        <time>2022-08-27T12:17:56Z</time>
      </trkpt>
      <trkpt lat="42.2212090" lon="-8.2085800">
        <ele>366.2</ele>
        <time>2022-08-27T12:18:00Z</time>
      </trkpt>
      <trkpt lat="42.2212170" lon="-8.2085860">
        <ele>366.2</ele>
        <time>2022-08-27T12:18:01Z</time>
      </trkpt>
      <trkpt lat="42.2212750" lon="-8.2086070">
        <ele>367.4</ele>
        <time>2022-08-27T12:18:07Z</time>
      </trkpt>
      <trkpt lat="42.2213230" lon="-8.2086310">
        <ele>368.4</ele>
        <time>2022-08-27T12:18:12Z</time>
      </trkpt>
      <trkpt lat="42.2213310" lon="-8.2086320">
        <ele>368.6</ele>
        <time>2022-08-27T12:18:13Z</time>
      </trkpt>
      <trkpt lat="42.2213760" lon="-8.2086550">
        <ele>369.8</ele>
        <time>2022-08-27T12:18:18Z</time>
      </trkpt>
      <trkpt lat="42.2214120" lon="-8.2086770">
        <ele>370.8</ele>
        <time>2022-08-27T12:18:23Z</time>
      </trkpt>
      <trkpt lat="42.2214200" lon="-8.2086840">
        <ele>371.0</ele>
        <time>2022-08-27T12:18:24Z</time>
      </trkpt>
      <trkpt lat="42.2214440" lon="-8.2086980">
        <ele>371.8</ele>
        <time>2022-08-27T12:18:27Z</time>
      </trkpt>
      <trkpt lat="42.2214910" lon="-8.2087360">
        <ele>372.8</ele>
        <time>2022-08-27T12:18:34Z</time>
      </trkpt>
      <trkpt lat="42.2214930" lon="-8.2087370">
        <ele>373.0</ele>
        <time>2022-08-27T12:18:35Z</time>
      </trkpt>
      <trkpt lat="42.2215230" lon="-8.2087530">
        <ele>374.2</ele>
        <time>2022-08-27T12:18:39Z</time>
      </trkpt>
      <trkpt lat="42.2215660" lon="-8.2087850">
        <ele>375.0</ele>
        <time>2022-08-27T12:18:44Z</time>
      </trkpt>
      <trkpt lat="42.2215950" lon="-8.2087970">
        <ele>375.4</ele>
        <time>2022-08-27T12:18:47Z</time>
      </trkpt>
      <trkpt lat="42.2216410" lon="-8.2088050">
        <ele>376.0</ele>
        <time>2022-08-27T12:18:51Z</time>
      </trkpt>
      <trkpt lat="42.2216890" lon="-8.2088100">
        <ele>377.2</ele>
        <time>2022-08-27T12:18:57Z</time>
      </trkpt>
      <trkpt lat="42.2217160" lon="-8.2088130">
        <ele>377.8</ele>
        <time>2022-08-27T12:19:00Z</time>
      </trkpt>
      <trkpt lat="42.2217340" lon="-8.2088090">
        <ele>378.2</ele>
        <time>2022-08-27T12:19:02Z</time>
      </trkpt>
      <trkpt lat="42.2218010" lon="-8.2087740">
        <ele>379.2</ele>
        <time>2022-08-27T12:19:10Z</time>
      </trkpt>
      <trkpt lat="42.2218100" lon="-8.2087680">
        <ele>379.4</ele>
        <time>2022-08-27T12:19:11Z</time>
      </trkpt>
      <trkpt lat="42.2218540" lon="-8.2087360">
        <ele>380.2</ele>
        <time>2022-08-27T12:19:16Z</time>
      </trkpt>
      <trkpt lat="42.2219170" lon="-8.2087060">
        <ele>381.2</ele>
        <time>2022-08-27T12:19:23Z</time>
      </trkpt>
      <trkpt lat="42.2219260" lon="-8.2087030">
        <ele>381.4</ele>
        <time>2022-08-27T12:19:24Z</time>
      </trkpt>
      <trkpt lat="42.2219910" lon="-8.2086830">
        <ele>382.4</ele>
        <time>2022-08-27T12:19:30Z</time>
      </trkpt>
      <trkpt lat="42.2220420" lon="-8.2086730">
        <ele>383.2</ele>
        <time>2022-08-27T12:19:35Z</time>
      </trkpt>
      <trkpt lat="42.2220560" lon="-8.2086710">
        <ele>383.4</ele>
        <time>2022-08-27T12:19:36Z</time>
      </trkpt>
      <trkpt lat="42.2221200" lon="-8.2086760">
        <ele>384.4</ele>
        <time>2022-08-27T12:19:41Z</time>
      </trkpt>
      <trkpt lat="42.2221540" lon="-8.2086830">
        <ele>385.0</ele>
        <time>2022-08-27T12:19:45Z</time>
      </trkpt>
      <trkpt lat="42.2221820" lon="-8.2086880">
        <ele>385.4</ele>
        <time>2022-08-27T12:19:48Z</time>
      </trkpt>
      <trkpt lat="42.2222390" lon="-8.2086960">
        <ele>386.6</ele>
        <time>2022-08-27T12:19:54Z</time>
      </trkpt>
      <trkpt lat="42.2222630" lon="-8.2087040">
        <ele>386.8</ele>
        <time>2022-08-27T12:19:56Z</time>
      </trkpt>
      <trkpt lat="42.2223140" lon="-8.2087300">
        <ele>387.6</ele>
        <time>2022-08-27T12:20:01Z</time>
      </trkpt>
      <trkpt lat="42.2223660" lon="-8.2087630">
        <ele>388.6</ele>
        <time>2022-08-27T12:20:07Z</time>
      </trkpt>
      <trkpt lat="42.2223990" lon="-8.2087720">
        <ele>389.4</ele>
        <time>2022-08-27T12:20:11Z</time>
      </trkpt>
      <trkpt lat="42.2224410" lon="-8.2087880">
        <ele>390.6</ele>
        <time>2022-08-27T12:20:17Z</time>
      </trkpt>
      <trkpt lat="42.2224460" lon="-8.2087900">
        <ele>390.6</ele>
        <time>2022-08-27T12:20:18Z</time>
      </trkpt>
      <trkpt lat="42.2225130" lon="-8.2088170">
        <ele>391.6</ele>
        <time>2022-08-27T12:20:26Z</time>
      </trkpt>
      <trkpt lat="42.2225380" lon="-8.2088210">
        <ele>392.2</ele>
        <time>2022-08-27T12:20:29Z</time>
      </trkpt>
      <trkpt lat="42.2225720" lon="-8.2088270">
        <ele>392.6</ele>
        <time>2022-08-27T12:20:33Z</time>
      </trkpt>
      <trkpt lat="42.2226210" lon="-8.2088500">
        <ele>393.8</ele>
        <time>2022-08-27T12:20:39Z</time>
      </trkpt>
      <trkpt lat="42.2226430" lon="-8.2088610">
        <ele>394.2</ele>
        <time>2022-08-27T12:20:42Z</time>
      </trkpt>
      <trkpt lat="42.2226780" lon="-8.2088660">
        <ele>394.8</ele>
        <time>2022-08-27T12:20:45Z</time>
      </trkpt>
      <trkpt lat="42.2226900" lon="-8.2088640">
        <ele>395.0</ele>
        <time>2022-08-27T12:20:46Z</time>
      </trkpt>
      <trkpt lat="42.2227420" lon="-8.2088300">
        <ele>395.8</ele>
        <time>2022-08-27T12:20:51Z</time>
      </trkpt>
      <trkpt lat="42.2227480" lon="-8.2088150">
        <ele>396.0</ele>
        <time>2022-08-27T12:20:52Z</time>
      </trkpt>
      <trkpt lat="42.2227400" lon="-8.2087180">
        <ele>396.8</ele>
        <time>2022-08-27T12:20:57Z</time>
      </trkpt>
      <trkpt lat="42.2227080" lon="-8.2086770">
        <ele>397.2</ele>
        <time>2022-08-27T12:21:00Z</time>
      </trkpt>
      <trkpt lat="42.2226540" lon="-8.2086430">
        <ele>397.4</ele>
        <time>2022-08-27T12:21:03Z</time>
      </trkpt>
      <trkpt lat="42.2225820" lon="-8.2085820">
        <ele>398.0</ele>
        <time>2022-08-27T12:21:08Z</time>
      </trkpt>
      <trkpt lat="42.2225680" lon="-8.2085720">
        <ele>398.0</ele>
        <time>2022-08-27T12:21:09Z</time>
      </trkpt>
      <trkpt lat="42.2224590" lon="-8.2084910">
        <ele>398.2</ele>
        <time>2022-08-27T12:21:16Z</time>
      </trkpt>
      <trkpt lat="42.2223390" lon="-8.2083880">
        <ele>398.8</ele>
        <time>2022-08-27T12:21:25Z</time>
      </trkpt>
      <trkpt lat="42.2223200" lon="-8.2083610">
        <ele>399.0</ele>
        <time>2022-08-27T12:21:27Z</time>
      </trkpt>
      <trkpt lat="42.2223040" lon="-8.2082100">
        <ele>399.8</ele>
        <time>2022-08-27T12:21:35Z</time>
      </trkpt>
      <trkpt lat="42.2223290" lon="-8.2081600">
        <ele>400.2</ele>
        <time>2022-08-27T12:21:38Z</time>
      </trkpt>
      <trkpt lat="42.2223840" lon="-8.2080770">
        <ele>401.0</ele>
        <time>2022-08-27T12:21:44Z</time>
      </trkpt>
      <trkpt lat="42.2223930" lon="-8.2080680">
        <ele>401.2</ele>
        <time>2022-08-27T12:21:45Z</time>
      </trkpt>
      <trkpt lat="42.2224600" lon="-8.2080160">
        <ele>402.0</ele>
        <time>2022-08-27T12:21:51Z</time>
      </trkpt>
      <trkpt lat="42.2224690" lon="-8.2080070">
        <ele>402.2</ele>
        <time>2022-08-27T12:21:52Z</time>
      </trkpt>
      <trkpt lat="42.2225290" lon="-8.2079610">
        <ele>403.2</ele>
        <time>2022-08-27T12:21:58Z</time>
      </trkpt>
      <trkpt lat="42.2225380" lon="-8.2079510">
        <ele>403.4</ele>
        <time>2022-08-27T12:21:59Z</time>
      </trkpt>
      <trkpt lat="42.2225890" lon="-8.2079110">
        <ele>404.6</ele>
        <time>2022-08-27T12:22:04Z</time>
      </trkpt>
      <trkpt lat="42.2226530" lon="-8.2078420">
        <ele>405.2</ele>
        <time>2022-08-27T12:22:11Z</time>
      </trkpt>
      <trkpt lat="42.2226800" lon="-8.2078080">
        <ele>405.8</ele>
        <time>2022-08-27T12:22:14Z</time>
      </trkpt>
      <trkpt lat="42.2227160" lon="-8.2077620">
        <ele>406.2</ele>
        <time>2022-08-27T12:22:18Z</time>
      </trkpt>
      <trkpt lat="42.2227520" lon="-8.2077050">
        <ele>406.8</ele>
        <time>2022-08-27T12:22:23Z</time>
      </trkpt>
      <trkpt lat="42.2227680" lon="-8.2076860">
        <ele>407.2</ele>
        <time>2022-08-27T12:22:25Z</time>
      </trkpt>
      <trkpt lat="42.2227980" lon="-8.2076210">
        <ele>407.8</ele>
        <time>2022-08-27T12:22:30Z</time>
      </trkpt>
      <trkpt lat="42.2228100" lon="-8.2075960">
        <ele>408.0</ele>
        <time>2022-08-27T12:22:32Z</time>
      </trkpt>
      <trkpt lat="42.2228440" lon="-8.2075330">
        <ele>408.8</ele>
        <time>2022-08-27T12:22:37Z</time>
      </trkpt>
      <trkpt lat="42.2228670" lon="-8.2074630">
        <ele>410.0</ele>
        <time>2022-08-27T12:22:42Z</time>
      </trkpt>
      <trkpt lat="42.2228720" lon="-8.2074330">
        <ele>410.2</ele>
        <time>2022-08-27T12:22:44Z</time>
      </trkpt>
      <trkpt lat="42.2228760" lon="-8.2074160">
        <ele>410.4</ele>
        <time>2022-08-27T12:22:45Z</time>
      </trkpt>
      <trkpt lat="42.2229150" lon="-8.2073500">
        <ele>411.0</ele>
        <time>2022-08-27T12:22:50Z</time>
      </trkpt>
      <trkpt lat="42.2229250" lon="-8.2073450">
        <ele>411.0</ele>
        <time>2022-08-27T12:22:51Z</time>
      </trkpt>
      <trkpt lat="42.2229890" lon="-8.2073330">
        <ele>412.0</ele>
        <time>2022-08-27T12:22:56Z</time>
      </trkpt>
      <trkpt lat="42.2230150" lon="-8.2073300">
        <ele>412.0</ele>
        <time>2022-08-27T12:22:58Z</time>
      </trkpt>
      <trkpt lat="42.2231080" lon="-8.2073390">
        <ele>413.0</ele>
        <time>2022-08-27T12:23:04Z</time>
      </trkpt>
      <trkpt lat="42.2231230" lon="-8.2073400">
        <ele>413.2</ele>
        <time>2022-08-27T12:23:05Z</time>
      </trkpt>
      <trkpt lat="42.2231400" lon="-8.2073450">
        <ele>413.2</ele>
        <time>2022-08-27T12:23:06Z</time>
      </trkpt>
      <trkpt lat="42.2232090" lon="-8.2073530">
        <ele>413.8</ele>
        <time>2022-08-27T12:23:11Z</time>
      </trkpt>
      <trkpt lat="42.2232690" lon="-8.2073540">
        <ele>414.2</ele>
        <time>2022-08-27T12:23:15Z</time>
      </trkpt>
      <trkpt lat="42.2232940" lon="-8.2073550">
        <ele>414.6</ele>
        <time>2022-08-27T12:23:17Z</time>
      </trkpt>
      <trkpt lat="42.2233450" lon="-8.2073630">
        <ele>415.2</ele>
        <time>2022-08-27T12:23:21Z</time>
      </trkpt>
      <trkpt lat="42.2233730" lon="-8.2073660">
        <ele>415.6</ele>
        <time>2022-08-27T12:23:24Z</time>
      </trkpt>
      <trkpt lat="42.2234290" lon="-8.2073720">
        <ele>416.2</ele>
        <time>2022-08-27T12:23:29Z</time>
      </trkpt>
      <trkpt lat="42.2234510" lon="-8.2073740">
        <ele>416.4</ele>
        <time>2022-08-27T12:23:31Z</time>
      </trkpt>
      <trkpt lat="42.2235160" lon="-8.2073930">
        <ele>417.0</ele>
        <time>2022-08-27T12:23:37Z</time>
      </trkpt>
      <trkpt lat="42.2235390" lon="-8.2073970">
        <ele>417.4</ele>
        <time>2022-08-27T12:23:39Z</time>
      </trkpt>
      <trkpt lat="42.2235800" lon="-8.2074080">
        <ele>418.2</ele>
        <time>2022-08-27T12:23:42Z</time>
      </trkpt>
      <trkpt lat="42.2236280" lon="-8.2074360">
        <ele>418.8</ele>
        <time>2022-08-27T12:23:46Z</time>
      </trkpt>
      <trkpt lat="42.2236730" lon="-8.2074740">
        <ele>419.4</ele>
        <time>2022-08-27T12:23:50Z</time>
      </trkpt>
      <trkpt lat="42.2237130" lon="-8.2074910">
        <ele>419.8</ele>
        <time>2022-08-27T12:23:53Z</time>
      </trkpt>
      <trkpt lat="42.2237740" lon="-8.2075070">
        <ele>420.4</ele>
        <time>2022-08-27T12:23:57Z</time>
      </trkpt>
      <trkpt lat="42.2238000" lon="-8.2075150">
        <ele>420.6</ele>
        <time>2022-08-27T12:23:59Z</time>
      </trkpt>
      <trkpt lat="42.2238590" lon="-8.2075290">
        <ele>421.4</ele>
        <time>2022-08-27T12:24:04Z</time>
      </trkpt>
      <trkpt lat="42.2238930" lon="-8.2075270">
        <ele>421.8</ele>
        <time>2022-08-27T12:24:07Z</time>
      </trkpt>
      <trkpt lat="42.2239410" lon="-8.2075200">
        <ele>422.4</ele>
        <time>2022-08-27T12:24:11Z</time>
      </trkpt>
      <trkpt lat="42.2239740" lon="-8.2075100">
        <ele>423.0</ele>
        <time>2022-08-27T12:24:14Z</time>
      </trkpt>
      <trkpt lat="42.2239950" lon="-8.2075000">
        <ele>423.6</ele>
        <time>2022-08-27T12:24:16Z</time>
      </trkpt>
      <trkpt lat="42.2240630" lon="-8.2074700">
        <ele>424.8</ele>
        <time>2022-08-27T12:24:22Z</time>
      </trkpt>
      <trkpt lat="42.2240750" lon="-8.2074660">
        <ele>425.0</ele>
        <time>2022-08-27T12:24:23Z</time>
      </trkpt>
      <trkpt lat="42.2241880" lon="-8.2074360">
        <ele>425.8</ele>
        <time>2022-08-27T12:24:31Z</time>
      </trkpt>
      <trkpt lat="42.2242310" lon="-8.2074370">
        <ele>426.4</ele>
        <time>2022-08-27T12:24:34Z</time>
      </trkpt>
      <trkpt lat="42.2242890" lon="-8.2074460">
        <ele>426.6</ele>
        <time>2022-08-27T12:24:38Z</time>
      </trkpt>
      <trkpt lat="42.2243270" lon="-8.2074600">
        <ele>427.2</ele>
        <time>2022-08-27T12:24:41Z</time>
      </trkpt>
      <trkpt lat="42.2243680" lon="-8.2074600">
        <ele>427.6</ele>
        <time>2022-08-27T12:24:44Z</time>
      </trkpt>
      <trkpt lat="42.2243810" lon="-8.2074640">
        <ele>427.8</ele>
        <time>2022-08-27T12:24:45Z</time>
      </trkpt>
      <trkpt lat="42.2244150" lon="-8.2074620">
        <ele>428.0</ele>
        <time>2022-08-27T12:24:48Z</time>
      </trkpt>
      <trkpt lat="42.2244660" lon="-8.2074750">
        <ele>428.8</ele>
        <time>2022-08-27T12:24:52Z</time>
      </trkpt>
      <trkpt lat="42.2245100" lon="-8.2074780">
        <ele>429.4</ele>
        <time>2022-08-27T12:24:56Z</time>
      </trkpt>
      <trkpt lat="42.2245480" lon="-8.2074820">
        <ele>430.0</ele>
        <time>2022-08-27T12:24:59Z</time>
      </trkpt>
      <trkpt lat="42.2245960" lon="-8.2074940">
        <ele>430.4</ele>
        <time>2022-08-27T12:25:03Z</time>
      </trkpt>
      <trkpt lat="42.2246560" lon="-8.2075010">
        <ele>431.0</ele>
        <time>2022-08-27T12:25:08Z</time>
      </trkpt>
      <trkpt lat="42.2246690" lon="-8.2074990">
        <ele>431.2</ele>
        <time>2022-08-27T12:25:09Z</time>
      </trkpt>
      <trkpt lat="42.2247430" lon="-8.2074940">
        <ele>432.2</ele>
        <time>2022-08-27T12:25:14Z</time>
      </trkpt>
      <trkpt lat="42.2247540" lon="-8.2074870">
        <ele>432.2</ele>
        <time>2022-08-27T12:25:15Z</time>
      </trkpt>
      <trkpt lat="42.2247670" lon="-8.2074850">
        <ele>432.4</ele>
        <time>2022-08-27T12:25:16Z</time>
      </trkpt>
      <trkpt lat="42.2248090" lon="-8.2074820">
        <ele>433.0</ele>
        <time>2022-08-27T12:25:19Z</time>
      </trkpt>
      <trkpt lat="42.2248420" lon="-8.2074800">
        <ele>433.4</ele>
        <time>2022-08-27T12:25:21Z</time>
      </trkpt>
      <trkpt lat="42.2249290" lon="-8.2074560">
        <ele>434.0</ele>
        <time>2022-08-27T12:25:26Z</time>
      </trkpt>
      <trkpt lat="42.2249600" lon="-8.2074480">
        <ele>434.2</ele>
        <time>2022-08-27T12:25:28Z</time>
      </trkpt>
      <trkpt lat="42.2250360" lon="-8.2074540">
        <ele>434.6</ele>
        <time>2022-08-27T12:25:33Z</time>
      </trkpt>
      <trkpt lat="42.2250810" lon="-8.2075240">
        <ele>435.2</ele>
        <time>2022-08-27T12:25:39Z</time>
      </trkpt>
      <trkpt lat="42.2250860" lon="-8.2075360">
        <ele>435.4</ele>
        <time>2022-08-27T12:25:40Z</time>
      </trkpt>
      <trkpt lat="42.2250900" lon="-8.2076350">
        <ele>436.4</ele>
        <time>2022-08-27T12:25:46Z</time>
      </trkpt>
      <trkpt lat="42.2250850" lon="-8.2076560">
        <ele>436.6</ele>
        <time>2022-08-27T12:25:47Z</time>
      </trkpt>
      <trkpt lat="42.2250660" lon="-8.2077130">
        <ele>437.4</ele>
        <time>2022-08-27T12:25:50Z</time>
      </trkpt>
      <trkpt lat="42.2250290" lon="-8.2077650">
        <ele>437.8</ele>
        <time>2022-08-27T12:25:54Z</time>
      </trkpt>
      <trkpt lat="42.2249420" lon="-8.2078130">
        <ele>438.4</ele>
        <time>2022-08-27T12:26:01Z</time>
      </trkpt>
      <trkpt lat="42.2248880" lon="-8.2078370">
        <ele>439.6</ele>
        <time>2022-08-27T12:26:06Z</time>
      </trkpt>
      <trkpt lat="42.2247860" lon="-8.2078580">
        <ele>440.4</ele>
        <time>2022-08-27T12:26:14Z</time>
      </trkpt>
      <trkpt lat="42.2247130" lon="-8.2078750">
        <ele>441.4</ele>
        <time>2022-08-27T12:26:20Z</time>
      </trkpt>
      <trkpt lat="42.2246820" lon="-8.2078790">
        <ele>441.6</ele>
        <time>2022-08-27T12:26:22Z</time>
      </trkpt>
      <trkpt lat="42.2246100" lon="-8.2078830">
        <ele>442.4</ele>
        <time>2022-08-27T12:26:26Z</time>
      </trkpt>
      <trkpt lat="42.2245410" lon="-8.2079020">
        <ele>443.0</ele>
        <time>2022-08-27T12:26:30Z</time>
      </trkpt>
      <trkpt lat="42.2244910" lon="-8.2079360">
        <ele>443.6</ele>
        <time>2022-08-27T12:26:34Z</time>
      </trkpt>
      <trkpt lat="42.2244680" lon="-8.2079550">
        <ele>443.8</ele>
        <time>2022-08-27T12:26:36Z</time>
      </trkpt>
      <trkpt lat="42.2244260" lon="-8.2080080">
        <ele>444.6</ele>
        <time>2022-08-27T12:26:40Z</time>
      </trkpt>
      <trkpt lat="42.2244080" lon="-8.2080650">
        <ele>445.0</ele>
        <time>2022-08-27T12:26:43Z</time>
      </trkpt>
      <trkpt lat="42.2244080" lon="-8.2081410">
        <ele>445.6</ele>
        <time>2022-08-27T12:26:47Z</time>
      </trkpt>
      <trkpt lat="42.2244230" lon="-8.2082740">
        <ele>446.2</ele>
        <time>2022-08-27T12:26:53Z</time>
      </trkpt>
      <trkpt lat="42.2244270" lon="-8.2083120">
        <ele>446.6</ele>
        <time>2022-08-27T12:26:55Z</time>
      </trkpt>
      <trkpt lat="42.2244330" lon="-8.2084310">
        <ele>447.4</ele>
        <time>2022-08-27T12:27:00Z</time>
      </trkpt>
      <trkpt lat="42.2244320" lon="-8.2084610">
        <ele>447.6</ele>
        <time>2022-08-27T12:27:01Z</time>
      </trkpt>
      <trkpt lat="42.2243840" lon="-8.2085600">
        <ele>448.0</ele>
        <time>2022-08-27T12:27:05Z</time>
      </trkpt>
      <trkpt lat="42.2242590" lon="-8.2086810">
        <ele>448.0</ele>
        <time>2022-08-27T12:27:11Z</time>
      </trkpt>
      <trkpt lat="42.2242340" lon="-8.2088580">
        <ele>448.2</ele>
        <time>2022-08-27T12:27:16Z</time>
      </trkpt>
      <trkpt lat="42.2242800" lon="-8.2090420">
        <ele>448.4</ele>
        <time>2022-08-27T12:27:22Z</time>
      </trkpt>
      <trkpt lat="42.2243110" lon="-8.2091580">
        <ele>448.8</ele>
        <time>2022-08-27T12:27:27Z</time>
      </trkpt>
      <trkpt lat="42.2243480" lon="-8.2092670">
        <ele>449.6</ele>
        <time>2022-08-27T12:27:31Z</time>
      </trkpt>
      <trkpt lat="42.2243650" lon="-8.2093170">
        <ele>449.8</ele>
        <time>2022-08-27T12:27:33Z</time>
      </trkpt>
      <trkpt lat="42.2244060" lon="-8.2094560">
        <ele>450.6</ele>
        <time>2022-08-27T12:27:38Z</time>
      </trkpt>
      <trkpt lat="42.2244260" lon="-8.2095100">
        <ele>450.8</ele>
        <time>2022-08-27T12:27:40Z</time>
      </trkpt>
      <trkpt lat="42.2244960" lon="-8.2096760">
        <ele>451.6</ele>
        <time>2022-08-27T12:27:46Z</time>
      </trkpt>
      <trkpt lat="42.2245400" lon="-8.2097650">
        <ele>452.0</ele>
        <time>2022-08-27T12:27:49Z</time>
      </trkpt>
      <trkpt lat="42.2246290" lon="-8.2099720">
        <ele>452.4</ele>
        <time>2022-08-27T12:27:56Z</time>
      </trkpt>
      <trkpt lat="42.2246860" lon="-8.2101490">
        <ele>452.8</ele>
        <time>2022-08-27T12:28:02Z</time>
      </trkpt>
      <trkpt lat="42.2246910" lon="-8.2101800">
        <ele>453.0</ele>
        <time>2022-08-27T12:28:03Z</time>
      </trkpt>
      <trkpt lat="42.2246850" lon="-8.2103380">
        <ele>453.4</ele>
        <time>2022-08-27T12:28:09Z</time>
      </trkpt>
      <trkpt lat="42.2246400" lon="-8.2104060">
        <ele>454.0</ele>
        <time>2022-08-27T12:28:13Z</time>
      </trkpt>
      <trkpt lat="42.2246140" lon="-8.2104170">
        <ele>454.2</ele>
        <time>2022-08-27T12:28:15Z</time>
      </trkpt>
      <trkpt lat="42.2245860" lon="-8.2104090">
        <ele>454.6</ele>
        <time>2022-08-27T12:28:17Z</time>
      </trkpt>
      <trkpt lat="42.2245560" lon="-8.2103850">
        <ele>455.0</ele>
        <time>2022-08-27T12:28:19Z</time>
      </trkpt>
      <trkpt lat="42.2245390" lon="-8.2103750">
        <ele>455.2</ele>
        <time>2022-08-27T12:28:20Z</time>
      </trkpt>
      <trkpt lat="42.2245050" lon="-8.2103330">
        <ele>456.0</ele>
        <time>2022-08-27T12:28:23Z</time>
      </trkpt>
      <trkpt lat="42.2244670" lon="-8.2102970">
        <ele>456.2</ele>
        <time>2022-08-27T12:28:26Z</time>
      </trkpt>
      <trkpt lat="42.2243680" lon="-8.2102400">
        <ele>456.8</ele>
        <time>2022-08-27T12:28:32Z</time>
      </trkpt>
      <trkpt lat="42.2243190" lon="-8.2102370">
        <ele>457.0</ele>
        <time>2022-08-27T12:28:36Z</time>
      </trkpt>
      <trkpt lat="42.2242530" lon="-8.2102280">
        <ele>457.6</ele>
        <time>2022-08-27T12:28:41Z</time>
      </trkpt>
      <trkpt lat="42.2242120" lon="-8.2102280">
        <ele>458.2</ele>
        <time>2022-08-27T12:28:44Z</time>
      </trkpt>
      <trkpt lat="42.2241500" lon="-8.2102480">
        <ele>459.0</ele>
        <time>2022-08-27T12:28:49Z</time>
      </trkpt>
      <trkpt lat="42.2241350" lon="-8.2102520">
        <ele>459.4</ele>
        <time>2022-08-27T12:28:50Z</time>
      </trkpt>
      <trkpt lat="42.2240420" lon="-8.2102680">
        <ele>460.0</ele>
        <time>2022-08-27T12:28:56Z</time>
      </trkpt>
      <trkpt lat="42.2240170" lon="-8.2102730">
        <ele>460.4</ele>
        <time>2022-08-27T12:28:58Z</time>
      </trkpt>
      <trkpt lat="42.2239490" lon="-8.2102580">
        <ele>461.2</ele>
        <time>2022-08-27T12:29:02Z</time>
      </trkpt>
      <trkpt lat="42.2239080" lon="-8.2102570">
        <ele>461.4</ele>
        <time>2022-08-27T12:29:04Z</time>
      </trkpt>
      <trkpt lat="42.2237650" lon="-8.2102670">
        <ele>462.0</ele>
        <time>2022-08-27T12:29:11Z</time>
      </trkpt>
      <trkpt lat="42.2237070" lon="-8.2103110">
        <ele>462.2</ele>
        <time>2022-08-27T12:29:14Z</time>
      </trkpt>
      <trkpt lat="42.2236280" lon="-8.2104030">
        <ele>462.4</ele>
        <time>2022-08-27T12:29:18Z</time>
      </trkpt>
      <trkpt lat="42.2235270" lon="-8.2105870">
        <ele>463.0</ele>
        <time>2022-08-27T12:29:25Z</time>
      </trkpt>
      <trkpt lat="42.2234810" lon="-8.2107650">
        <ele>463.0</ele>
        <time>2022-08-27T12:29:32Z</time>
      </trkpt>
      <trkpt lat="42.2234730" lon="-8.2108130">
        <ele>463.6</ele>
        <time>2022-08-27T12:29:34Z</time>
      </trkpt>
      <trkpt lat="42.2234570" lon="-8.2109260">
        <ele>463.8</ele>
        <time>2022-08-27T12:29:39Z</time>
      </trkpt>
      <trkpt lat="42.2234370" lon="-8.2109900">
        <ele>464.4</ele>
        <time>2022-08-27T12:29:42Z</time>
      </trkpt>
      <trkpt lat="42.2234210" lon="-8.2110670">
        <ele>465.2</ele>
        <time>2022-08-27T12:29:46Z</time>
      </trkpt>
      <trkpt lat="42.2234090" lon="-8.2111160">
        <ele>465.6</ele>
        <time>2022-08-27T12:29:48Z</time>
      </trkpt>
      <trkpt lat="42.2234030" lon="-8.2112290">
        <ele>466.2</ele>
        <time>2022-08-27T12:29:53Z</time>
      </trkpt>
      <trkpt lat="42.2233950" lon="-8.2113070">
        <ele>466.6</ele>
        <time>2022-08-27T12:29:56Z</time>
      </trkpt>
      <trkpt lat="42.2233910" lon="-8.2113580">
        <ele>466.8</ele>
        <time>2022-08-27T12:29:58Z</time>
      </trkpt>
      <trkpt lat="42.2233760" lon="-8.2114800">
        <ele>467.8</ele>
        <time>2022-08-27T12:30:03Z</time>
      </trkpt>
      <trkpt lat="42.2233710" lon="-8.2115040">
        <ele>467.8</ele>
        <time>2022-08-27T12:30:04Z</time>
      </trkpt>
      <trkpt lat="42.2233210" lon="-8.2116530">
        <ele>468.8</ele>
        <time>2022-08-27T12:30:10Z</time>
      </trkpt>
      <trkpt lat="42.2233150" lon="-8.2116820">
        <ele>468.8</ele>
        <time>2022-08-27T12:30:11Z</time>
      </trkpt>
      <trkpt lat="42.2233010" lon="-8.2118260">
        <ele>469.8</ele>
        <time>2022-08-27T12:30:16Z</time>
      </trkpt>
      <trkpt lat="42.2232970" lon="-8.2118580">
        <ele>469.8</ele>
        <time>2022-08-27T12:30:17Z</time>
      </trkpt>
      <trkpt lat="42.2232870" lon="-8.2120580">
        <ele>470.6</ele>
        <time>2022-08-27T12:30:24Z</time>
      </trkpt>
      <trkpt lat="42.2232990" lon="-8.2121410">
        <ele>470.8</ele>
        <time>2022-08-27T12:30:27Z</time>
      </trkpt>
      <trkpt lat="42.2233320" lon="-8.2122220">
        <ele>471.2</ele>
        <time>2022-08-27T12:30:30Z</time>
      </trkpt>
      <trkpt lat="42.2233680" lon="-8.2123700">
        <ele>471.4</ele>
        <time>2022-08-27T12:30:35Z</time>
      </trkpt>
      <trkpt lat="42.2233360" lon="-8.2124640">
        <ele>471.6</ele>
        <time>2022-08-27T12:30:39Z</time>
      </trkpt>
      <trkpt lat="42.2233200" lon="-8.2124800">
        <ele>471.8</ele>
        <time>2022-08-27T12:30:40Z</time>
      </trkpt>
      <trkpt lat="42.2232280" lon="-8.2124990">
        <ele>472.4</ele>
        <time>2022-08-27T12:30:45Z</time>
      </trkpt>
      <trkpt lat="42.2231730" lon="-8.2124830">
        <ele>472.6</ele>
        <time>2022-08-27T12:30:48Z</time>
      </trkpt>
      <trkpt lat="42.2231070" lon="-8.2124560">
        <ele>473.0</ele>
        <time>2022-08-27T12:30:52Z</time>
      </trkpt>
      <trkpt lat="42.2230340" lon="-8.2124310">
        <ele>473.6</ele>
        <time>2022-08-27T12:30:57Z</time>
      </trkpt>
      <trkpt lat="42.2230060" lon="-8.2124280">
        <ele>473.8</ele>
        <time>2022-08-27T12:30:59Z</time>
      </trkpt>
      <trkpt lat="42.2229060" lon="-8.2124140">
        <ele>474.8</ele>
        <time>2022-08-27T12:31:06Z</time>
      </trkpt>
      <trkpt lat="42.2228040" lon="-8.2123760">
        <ele>475.6</ele>
        <time>2022-08-27T12:31:13Z</time>
      </trkpt>
      <trkpt lat="42.2227780" lon="-8.2123690">
        <ele>475.8</ele>
        <time>2022-08-27T12:31:15Z</time>
      </trkpt>
      <trkpt lat="42.2227080" lon="-8.2123590">
        <ele>476.4</ele>
        <time>2022-08-27T12:31:21Z</time>
      </trkpt>
      <trkpt lat="42.2226810" lon="-8.2123510">
        <ele>476.8</ele>
        <time>2022-08-27T12:31:23Z</time>
      </trkpt>
      <trkpt lat="42.2226070" lon="-8.2123140">
        <ele>477.8</ele>
        <time>2022-08-27T12:31:29Z</time>
      </trkpt>
      <trkpt lat="42.2225870" lon="-8.2123090">
        <ele>477.8</ele>
        <time>2022-08-27T12:31:31Z</time>
      </trkpt>
      <trkpt lat="42.2225300" lon="-8.2123010">
        <ele>479.0</ele>
        <time>2022-08-27T12:31:37Z</time>
      </trkpt>
      <trkpt lat="42.2224840" lon="-8.2123090">
        <ele>480.0</ele>
        <time>2022-08-27T12:31:41Z</time>
      </trkpt>
      <trkpt lat="42.2224280" lon="-8.2123290">
        <ele>481.0</ele>
        <time>2022-08-27T12:31:46Z</time>
      </trkpt>
      <trkpt lat="42.2224190" lon="-8.2123350">
        <ele>481.2</ele>
        <time>2022-08-27T12:31:47Z</time>
      </trkpt>
      <trkpt lat="42.2224010" lon="-8.2123590">
        <ele>481.4</ele>
        <time>2022-08-27T12:31:50Z</time>
      </trkpt>
      <trkpt lat="42.2223750" lon="-8.2123940">
        <ele>482.0</ele>
        <time>2022-08-27T12:31:54Z</time>
      </trkpt>
      <trkpt lat="42.2223700" lon="-8.2124060">
        <ele>482.2</ele>
        <time>2022-08-27T12:31:55Z</time>
      </trkpt>
      <trkpt lat="42.2223690" lon="-8.2124190">
        <ele>482.2</ele>
        <time>2022-08-27T12:31:56Z</time>
      </trkpt>
      <trkpt lat="42.2223710" lon="-8.2124330">
        <ele>482.2</ele>
        <time>2022-08-27T12:31:57Z</time>
      </trkpt>
      <trkpt lat="42.2223820" lon="-8.2124550">
        <ele>482.6</ele>
        <time>2022-08-27T12:31:59Z</time>
      </trkpt>
      <trkpt lat="42.2224030" lon="-8.2124730">
        <ele>483.0</ele>
        <time>2022-08-27T12:32:01Z</time>
      </trkpt>
      <trkpt lat="42.2224340" lon="-8.2124920">
        <ele>483.2</ele>
        <time>2022-08-27T12:32:04Z</time>
      </trkpt>
      <trkpt lat="42.2224520" lon="-8.2124990">
        <ele>483.6</ele>
        <time>2022-08-27T12:32:06Z</time>
      </trkpt>
      <trkpt lat="42.2225050" lon="-8.2125130">
        <ele>484.4</ele>
        <time>2022-08-27T12:32:10Z</time>
      </trkpt>
      <trkpt lat="42.2225500" lon="-8.2125410">
        <ele>484.8</ele>
        <time>2022-08-27T12:32:13Z</time>
      </trkpt>
      <trkpt lat="42.2226120" lon="-8.2125650">
        <ele>485.4</ele>
        <time>2022-08-27T12:32:17Z</time>
      </trkpt>
      <trkpt lat="42.2226680" lon="-8.2125970">
        <ele>485.8</ele>
        <time>2022-08-27T12:32:21Z</time>
      </trkpt>
      <trkpt lat="42.2227470" lon="-8.2126420">
        <ele>486.6</ele>
        <time>2022-08-27T12:32:28Z</time>
      </trkpt>
      <trkpt lat="42.2227590" lon="-8.2126520">
        <ele>486.8</ele>
        <time>2022-08-27T12:32:29Z</time>
      </trkpt>
      <trkpt lat="42.2228180" lon="-8.2127160">
        <ele>487.6</ele>
        <time>2022-08-27T12:32:36Z</time>
      </trkpt>
      <trkpt lat="42.2228260" lon="-8.2127260">
        <ele>487.8</ele>
        <time>2022-08-27T12:32:37Z</time>
      </trkpt>
      <trkpt lat="42.2228660" lon="-8.2127780">
        <ele>488.4</ele>
        <time>2022-08-27T12:32:43Z</time>
      </trkpt>
      <trkpt lat="42.2228820" lon="-8.2128070">
        <ele>488.8</ele>
        <time>2022-08-27T12:32:46Z</time>
      </trkpt>
      <trkpt lat="42.2229080" lon="-8.2128530">
        <ele>489.2</ele>
        <time>2022-08-27T12:32:50Z</time>
      </trkpt>
      <trkpt lat="42.2229400" lon="-8.2129220">
        <ele>489.8</ele>
        <time>2022-08-27T12:32:56Z</time>
      </trkpt>
      <trkpt lat="42.2229500" lon="-8.2129420">
        <ele>490.0</ele>
        <time>2022-08-27T12:32:58Z</time>
      </trkpt>
      <trkpt lat="42.2229800" lon="-8.2129830">
        <ele>491.0</ele>
        <time>2022-08-27T12:33:03Z</time>
      </trkpt>
      <trkpt lat="42.2229820" lon="-8.2129840">
        <ele>491.2</ele>
        <time>2022-08-27T12:33:04Z</time>
      </trkpt>
      <trkpt lat="42.2233840" lon="-8.2135810">
        <ele>509.0</ele>
        <time>2022-08-27T12:36:40Z</time>
      </trkpt>
      <trkpt lat="42.2233950" lon="-8.2135750">
        <ele>509.0</ele>
        <time>2022-08-27T12:36:41Z</time>
      </trkpt>
      <trkpt lat="42.2234850" lon="-8.2135210">
        <ele>509.4</ele>
        <time>2022-08-27T12:36:49Z</time>
      </trkpt>
      <trkpt lat="42.2235170" lon="-8.2135010">
        <ele>510.0</ele>
        <time>2022-08-27T12:36:52Z</time>
      </trkpt>
      <trkpt lat="42.2235640" lon="-8.2134840">
        <ele>510.8</ele>
        <time>2022-08-27T12:36:56Z</time>
      </trkpt>
      <trkpt lat="42.2235860" lon="-8.2134750">
        <ele>511.2</ele>
        <time>2022-08-27T12:36:58Z</time>
      </trkpt>
      <trkpt lat="42.2236380" lon="-8.2134530">
        <ele>512.4</ele>
        <time>2022-08-27T12:37:03Z</time>
      </trkpt>
      <trkpt lat="42.2236570" lon="-8.2134460">
        <ele>512.6</ele>
        <time>2022-08-27T12:37:05Z</time>
      </trkpt>
      <trkpt lat="42.2236990" lon="-8.2134340">
        <ele>513.4</ele>
        <time>2022-08-27T12:37:09Z</time>
      </trkpt>
      <trkpt lat="42.2237320" lon="-8.2134270">
        <ele>513.8</ele>
        <time>2022-08-27T12:37:12Z</time>
      </trkpt>
      <trkpt lat="42.2237710" lon="-8.2134240">
        <ele>514.2</ele>
        <time>2022-08-27T12:37:15Z</time>
      </trkpt>
      <trkpt lat="42.2238310" lon="-8.2134130">
        <ele>514.8</ele>
        <time>2022-08-27T12:37:19Z</time>
      </trkpt>
      <trkpt lat="42.2239260" lon="-8.2134100">
        <ele>515.4</ele>
        <time>2022-08-27T12:37:25Z</time>
      </trkpt>
      <trkpt lat="42.2239430" lon="-8.2134090">
        <ele>515.4</ele>
        <time>2022-08-27T12:37:26Z</time>
      </trkpt>
      <trkpt lat="42.2240540" lon="-8.2133950">
        <ele>515.8</ele>
        <time>2022-08-27T12:37:33Z</time>
      </trkpt>
      <trkpt lat="42.2241500" lon="-8.2133680">
        <ele>516.4</ele>
        <time>2022-08-27T12:37:40Z</time>
      </trkpt>
      <trkpt lat="42.2242190" lon="-8.2133380">
        <ele>517.0</ele>
        <time>2022-08-27T12:37:46Z</time>
      </trkpt>
      <trkpt lat="42.2242700" lon="-8.2133180">
        <ele>517.2</ele>
        <time>2022-08-27T12:37:51Z</time>
      </trkpt>
      <trkpt lat="42.2242900" lon="-8.2133120">
        <ele>517.8</ele>
        <time>2022-08-27T12:37:53Z</time>
      </trkpt>
      <trkpt lat="42.2243320" lon="-8.2132900">
        <ele>518.4</ele>
        <time>2022-08-27T12:37:57Z</time>
      </trkpt>
      <trkpt lat="42.2243510" lon="-8.2132870">
        <ele>518.6</ele>
        <time>2022-08-27T12:37:59Z</time>
      </trkpt>
      <trkpt lat="42.2244170" lon="-8.2132770">
        <ele>519.4</ele>
        <time>2022-08-27T12:38:05Z</time>
      </trkpt>
      <trkpt lat="42.2244390" lon="-8.2132730">
        <ele>519.8</ele>
        <time>2022-08-27T12:38:07Z</time>
      </trkpt>
      <trkpt lat="42.2244760" lon="-8.2132600">
        <ele>520.4</ele>
        <time>2022-08-27T12:38:11Z</time>
      </trkpt>
      <trkpt lat="42.2245100" lon="-8.2132510">
        <ele>521.0</ele>
        <time>2022-08-27T12:38:15Z</time>
      </trkpt>
      <trkpt lat="42.2245470" lon="-8.2132430">
        <ele>521.4</ele>
        <time>2022-08-27T12:38:19Z</time>
      </trkpt>
      <trkpt lat="42.2245810" lon="-8.2132300">
        <ele>522.0</ele>
        <time>2022-08-27T12:38:23Z</time>
      </trkpt>
      <trkpt lat="42.2245980" lon="-8.2132210">
        <ele>522.6</ele>
        <time>2022-08-27T12:38:25Z</time>
      </trkpt>
      <trkpt lat="42.2246400" lon="-8.2131910">
        <ele>523.4</ele>
        <time>2022-08-27T12:38:30Z</time>
      </trkpt>
      <trkpt lat="42.2246540" lon="-8.2131820">
        <ele>523.8</ele>
        <time>2022-08-27T12:38:32Z</time>
      </trkpt>
      <trkpt lat="42.2246930" lon="-8.2131720">
        <ele>524.4</ele>
        <time>2022-08-27T12:38:36Z</time>
      </trkpt>
      <trkpt lat="42.2247230" lon="-8.2131710">
        <ele>525.0</ele>
        <time>2022-08-27T12:38:39Z</time>
      </trkpt>
      <trkpt lat="42.2247430" lon="-8.2131700">
        <ele>525.4</ele>
        <time>2022-08-27T12:38:41Z</time>
      </trkpt>
      <trkpt lat="42.2247710" lon="-8.2131780">
        <ele>526.0</ele>
        <time>2022-08-27T12:38:44Z</time>
      </trkpt>
      <trkpt lat="42.2247840" lon="-8.2131830">
        <ele>526.6</ele>
        <time>2022-08-27T12:38:47Z</time>
      </trkpt>
      <trkpt lat="42.2249960" lon="-8.2146710">
        <ele>568.8</ele>
        <time>2022-08-27T12:50:40Z</time>
      </trkpt>
      <trkpt lat="42.2249620" lon="-8.2146720">
        <ele>569.2</ele>
        <time>2022-08-27T12:50:43Z</time>
      </trkpt>
      <trkpt lat="42.2249390" lon="-8.2146730">
        <ele>569.6</ele>
        <time>2022-08-27T12:50:45Z</time>
      </trkpt>
      <trkpt lat="42.2248520" lon="-8.2147030">
        <ele>570.8</ele>
        <time>2022-08-27T12:50:51Z</time>
      </trkpt>
      <trkpt lat="42.2247310" lon="-8.2147740">
        <ele>571.8</ele>
        <time>2022-08-27T12:50:59Z</time>
      </trkpt>
      <trkpt lat="42.2246540" lon="-8.2148750">
        <ele>572.8</ele>
        <time>2022-08-27T12:51:07Z</time>
      </trkpt>
      <trkpt lat="42.2246390" lon="-8.2149050">
        <ele>573.0</ele>
        <time>2022-08-27T12:51:09Z</time>
      </trkpt>
      <trkpt lat="42.2246010" lon="-8.2149770">
        <ele>573.8</ele>
        <time>2022-08-27T12:51:14Z</time>
      </trkpt>
      <trkpt lat="42.2245950" lon="-8.2149940">
        <ele>574.0</ele>
        <time>2022-08-27T12:51:15Z</time>
      </trkpt>
      <trkpt lat="42.2245560" lon="-8.2150850">
        <ele>575.2</ele>
        <time>2022-08-27T12:51:21Z</time>
      </trkpt>
      <trkpt lat="42.2245500" lon="-8.2150980">
        <ele>575.2</ele>
        <time>2022-08-27T12:51:22Z</time>
      </trkpt>
      <trkpt lat="42.2245200" lon="-8.2151760">
        <ele>575.8</ele>
        <time>2022-08-27T12:51:28Z</time>
      </trkpt>
      <trkpt lat="42.2245030" lon="-8.2152180">
        <ele>576.4</ele>
        <time>2022-08-27T12:51:31Z</time>
      </trkpt>
      <trkpt lat="42.2244820" lon="-8.2152830">
        <ele>577.6</ele>
        <time>2022-08-27T12:51:36Z</time>
      </trkpt>
      <trkpt lat="42.2244790" lon="-8.2152950">
        <ele>577.8</ele>
        <time>2022-08-27T12:51:37Z</time>
      </trkpt>
      <trkpt lat="42.2244650" lon="-8.2153440">
        <ele>578.8</ele>
        <time>2022-08-27T12:51:41Z</time>
      </trkpt>
      <trkpt lat="42.2244590" lon="-8.2153880">
        <ele>579.2</ele>
        <time>2022-08-27T12:51:44Z</time>
      </trkpt>
      <trkpt lat="42.2244540" lon="-8.2154530">
        <ele>579.8</ele>
        <time>2022-08-27T12:51:49Z</time>
      </trkpt>
      <trkpt lat="42.2244530" lon="-8.2154750">
        <ele>580.2</ele>
        <time>2022-08-27T12:51:51Z</time>
      </trkpt>
      <trkpt lat="42.2244580" lon="-8.2155380">
        <ele>581.0</ele>
        <time>2022-08-27T12:51:56Z</time>
      </trkpt>
      <trkpt lat="42.2244580" lon="-8.2155930">
        <ele>581.8</ele>
        <time>2022-08-27T12:52:00Z</time>
      </trkpt>
      <trkpt lat="42.2244600" lon="-8.2156040">
        <ele>582.0</ele>
        <time>2022-08-27T12:52:01Z</time>
      </trkpt>
      <trkpt lat="42.2244640" lon="-8.2156790">
        <ele>583.0</ele>
        <time>2022-08-27T12:52:07Z</time>
      </trkpt>
      <trkpt lat="42.2244660" lon="-8.2156920">
        <ele>583.2</ele>
        <time>2022-08-27T12:52:08Z</time>
      </trkpt>
      <trkpt lat="42.2244660" lon="-8.2157040">
        <ele>583.4</ele>
        <time>2022-08-27T12:52:09Z</time>
      </trkpt>
      <trkpt lat="42.2244850" lon="-8.2157780">
        <ele>584.2</ele>
        <time>2022-08-27T12:52:15Z</time>
      </trkpt>
      <trkpt lat="42.2244890" lon="-8.2157930">
        <ele>584.4</ele>
        <time>2022-08-27T12:52:16Z</time>
      </trkpt>
      <trkpt lat="42.2245040" lon="-8.2158230">
        <ele>584.8</ele>
        <time>2022-08-27T12:52:19Z</time>
      </trkpt>
      <trkpt lat="42.2245350" lon="-8.2158510">
        <ele>585.0</ele>
        <time>2022-08-27T12:52:23Z</time>
      </trkpt>
      <trkpt lat="42.2245560" lon="-8.2158630">
        <ele>585.4</ele>
        <time>2022-08-27T12:52:26Z</time>
      </trkpt>
      <trkpt lat="42.2245930" lon="-8.2158790">
        <ele>586.4</ele>
        <time>2022-08-27T12:52:31Z</time>
      </trkpt>
      <trkpt lat="42.2246240" lon="-8.2158870">
        <ele>587.4</ele>
        <time>2022-08-27T12:52:34Z</time>
      </trkpt>
      <trkpt lat="42.2246940" lon="-8.2159420">
        <ele>588.2</ele>
        <time>2022-08-27T12:52:42Z</time>
      </trkpt>
      <trkpt lat="42.2247760" lon="-8.2159950">
        <ele>589.2</ele>
        <time>2022-08-27T12:52:48Z</time>
      </trkpt>
      <trkpt lat="42.2248530" lon="-8.2160300">
        <ele>589.8</ele>
        <time>2022-08-27T12:52:54Z</time>
      </trkpt>
      <trkpt lat="42.2248970" lon="-8.2160390">
        <ele>590.2</ele>
        <time>2022-08-27T12:52:57Z</time>
      </trkpt>
      <trkpt lat="42.2249440" lon="-8.2160470">
        <ele>590.8</ele>
        <time>2022-08-27T12:53:00Z</time>
      </trkpt>
      <trkpt lat="42.2250450" lon="-8.2160450">
        <ele>591.4</ele>
        <time>2022-08-27T12:53:08Z</time>
      </trkpt>
      <trkpt lat="42.2250960" lon="-8.2160390">
        <ele>591.8</ele>
        <time>2022-08-27T12:53:13Z</time>
      </trkpt>
      <trkpt lat="42.2251190" lon="-8.2160350">
        <ele>592.4</ele>
        <time>2022-08-27T12:53:15Z</time>
      </trkpt>
      <trkpt lat="42.2252140" lon="-8.2160070">
        <ele>593.4</ele>
        <time>2022-08-27T12:53:23Z</time>
      </trkpt>
      <trkpt lat="42.2252340" lon="-8.2160000">
        <ele>593.6</ele>
        <time>2022-08-27T12:53:25Z</time>
      </trkpt>
      <trkpt lat="42.2253030" lon="-8.2159740">
        <ele>594.2</ele>
        <time>2022-08-27T12:53:31Z</time>
      </trkpt>
      <trkpt lat="42.2253310" lon="-8.2159610">
        <ele>594.6</ele>
        <time>2022-08-27T12:53:34Z</time>
      </trkpt>
      <trkpt lat="42.2253950" lon="-8.2159450">
        <ele>595.4</ele>
        <time>2022-08-27T12:53:40Z</time>
      </trkpt>
      <trkpt lat="42.2254310" lon="-8.2159370">
        <ele>596.0</ele>
        <time>2022-08-27T12:53:43Z</time>
      </trkpt>
      <trkpt lat="42.2254640" lon="-8.2159300">
        <ele>596.4</ele>
        <time>2022-08-27T12:53:46Z</time>
      </trkpt>
      <trkpt lat="42.2255200" lon="-8.2159150">
        <ele>597.0</ele>
        <time>2022-08-27T12:53:51Z</time>
      </trkpt>
      <trkpt lat="42.2255420" lon="-8.2159090">
        <ele>597.4</ele>
        <time>2022-08-27T12:53:53Z</time>
      </trkpt>
      <trkpt lat="42.2255800" lon="-8.2158930">
        <ele>598.2</ele>
        <time>2022-08-27T12:53:57Z</time>
      </trkpt>
      <trkpt lat="42.2255890" lon="-8.2158850">
        <ele>598.4</ele>
        <time>2022-08-27T12:53:58Z</time>
      </trkpt>
      <trkpt lat="42.2255970" lon="-8.2158790">
        <ele>598.6</ele>
        <time>2022-08-27T12:53:59Z</time>
      </trkpt>
      <trkpt lat="42.2256480" lon="-8.2158730">
        <ele>599.4</ele>
        <time>2022-08-27T12:54:04Z</time>
      </trkpt>
      <trkpt lat="42.2256650" lon="-8.2158730">
        <ele>599.6</ele>
        <time>2022-08-27T12:54:06Z</time>
      </trkpt>
      <trkpt lat="42.2257110" lon="-8.2158910">
        <ele>600.2</ele>
        <time>2022-08-27T12:54:11Z</time>
      </trkpt>
      <trkpt lat="42.2257250" lon="-8.2159100">
        <ele>600.6</ele>
        <time>2022-08-27T12:54:13Z</time>
      </trkpt>
      <trkpt lat="42.2257210" lon="-8.2159750">
        <ele>601.6</ele>
        <time>2022-08-27T12:54:19Z</time>
      </trkpt>
      <trkpt lat="42.2257150" lon="-8.2159870">
        <ele>601.8</ele>
        <time>2022-08-27T12:54:20Z</time>
      </trkpt>
      <trkpt lat="42.2257010" lon="-8.2160240">
        <ele>602.6</ele>
        <time>2022-08-27T12:54:23Z</time>
      </trkpt>
      <trkpt lat="42.2256900" lon="-8.2160790">
        <ele>603.6</ele>
        <time>2022-08-27T12:54:27Z</time>
      </trkpt>
      <trkpt lat="42.2256880" lon="-8.2160930">
        <ele>603.6</ele>
        <time>2022-08-27T12:54:28Z</time>
      </trkpt>
      <trkpt lat="42.2256660" lon="-8.2161750">
        <ele>604.6</ele>
        <time>2022-08-27T12:54:35Z</time>
      </trkpt>
      <trkpt lat="42.2256630" lon="-8.2161840">
        <ele>604.8</ele>
        <time>2022-08-27T12:54:36Z</time>
      </trkpt>
      <trkpt lat="42.2256540" lon="-8.2162910">
        <ele>605.8</ele>
        <time>2022-08-27T12:54:45Z</time>
      </trkpt>
      <trkpt lat="42.2256530" lon="-8.2163030">
        <ele>605.8</ele>
        <time>2022-08-27T12:54:46Z</time>
      </trkpt>
      <trkpt lat="42.2256490" lon="-8.2163690">
        <ele>606.8</ele>
        <time>2022-08-27T12:54:51Z</time>
      </trkpt>
      <trkpt lat="42.2256510" lon="-8.2164230">
        <ele>607.4</ele>
        <time>2022-08-27T12:54:56Z</time>
      </trkpt>
      <trkpt lat="42.2256550" lon="-8.2164510">
        <ele>607.8</ele>
        <time>2022-08-27T12:54:58Z</time>
      </trkpt>
      <trkpt lat="42.2256410" lon="-8.2165650">
        <ele>608.8</ele>
        <time>2022-08-27T12:55:05Z</time>
      </trkpt>
      <trkpt lat="42.2256310" lon="-8.2166020">
        <ele>609.2</ele>
        <time>2022-08-27T12:55:07Z</time>
      </trkpt>
      <trkpt lat="42.2255800" lon="-8.2167200">
        <ele>609.8</ele>
        <time>2022-08-27T12:55:13Z</time>
      </trkpt>
      <trkpt lat="42.2255390" lon="-8.2167820">
        <ele>610.0</ele>
        <time>2022-08-27T12:55:16Z</time>
      </trkpt>
      <trkpt lat="42.2254390" lon="-8.2168870">
        <ele>610.0</ele>
        <time>2022-08-27T12:55:23Z</time>
      </trkpt>
      <trkpt lat="42.2253320" lon="-8.2169610">
        <ele>610.6</ele>
        <time>2022-08-27T12:55:29Z</time>
      </trkpt>
      <trkpt lat="42.2253140" lon="-8.2169710">
        <ele>610.8</ele>
        <time>2022-08-27T12:55:30Z</time>
      </trkpt>
      <trkpt lat="42.2252410" lon="-8.2170110">
        <ele>611.0</ele>
        <time>2022-08-27T12:55:34Z</time>
      </trkpt>
      <trkpt lat="42.2250800" lon="-8.2170960">
        <ele>611.6</ele>
        <time>2022-08-27T12:55:41Z</time>
      </trkpt>
      <trkpt lat="42.2250520" lon="-8.2171030">
        <ele>611.6</ele>
        <time>2022-08-27T12:55:42Z</time>
      </trkpt>
      <trkpt lat="42.2248840" lon="-8.2171480">
        <ele>612.0</ele>
        <time>2022-08-27T12:55:48Z</time>
      </trkpt>
      <trkpt lat="42.2247060" lon="-8.2171950">
        <ele>612.2</ele>
        <time>2022-08-27T12:55:55Z</time>
      </trkpt>
      <trkpt lat="42.2245210" lon="-8.2172430">
        <ele>612.2</ele>
        <time>2022-08-27T12:56:01Z</time>
      </trkpt>
      <trkpt lat="42.2243520" lon="-8.2173800">
        <ele>611.8</ele>
        <time>2022-08-27T12:56:08Z</time>
      </trkpt>
      <trkpt lat="42.2242630" lon="-8.2175260">
        <ele>612.2</ele>
        <time>2022-08-27T12:56:15Z</time>
      </trkpt>
      <trkpt lat="42.2242050" lon="-8.2176230">
        <ele>612.6</ele>
        <time>2022-08-27T12:56:19Z</time>
      </trkpt>
      <trkpt lat="42.2241690" lon="-8.2176900">
        <ele>612.8</ele>
        <time>2022-08-27T12:56:22Z</time>
      </trkpt>
      <trkpt lat="42.2241110" lon="-8.2178080">
        <ele>613.8</ele>
        <time>2022-08-27T12:56:28Z</time>
      </trkpt>
      <trkpt lat="42.2241020" lon="-8.2178280">
        <ele>614.0</ele>
        <time>2022-08-27T12:56:29Z</time>
      </trkpt>
      <trkpt lat="42.2240550" lon="-8.2179760">
        <ele>614.8</ele>
        <time>2022-08-27T12:56:35Z</time>
      </trkpt>
      <trkpt lat="42.2240480" lon="-8.2180040">
        <ele>615.0</ele>
        <time>2022-08-27T12:56:36Z</time>
      </trkpt>
      <trkpt lat="42.2239810" lon="-8.2181980">
        <ele>615.8</ele>
        <time>2022-08-27T12:56:43Z</time>
      </trkpt>
      <trkpt lat="42.2239040" lon="-8.2183850">
        <ele>616.4</ele>
        <time>2022-08-27T12:56:49Z</time>
      </trkpt>
      <trkpt lat="42.2238310" lon="-8.2185760">
        <ele>616.8</ele>
        <time>2022-08-27T12:56:55Z</time>
      </trkpt>
      <trkpt lat="42.2238260" lon="-8.2186050">
        <ele>616.8</ele>
        <time>2022-08-27T12:56:56Z</time>
      </trkpt>
      <trkpt lat="42.2238100" lon="-8.2187570">
        <ele>616.8</ele>
        <time>2022-08-27T12:57:02Z</time>
      </trkpt>
      <trkpt lat="42.2237270" lon="-8.2189110">
        <ele>617.6</ele>
        <time>2022-08-27T12:57:09Z</time>
      </trkpt>
      <trkpt lat="42.2237040" lon="-8.2189480">
        <ele>617.8</ele>
        <time>2022-08-27T12:57:11Z</time>
      </trkpt>
      <trkpt lat="42.2236600" lon="-8.2189930">
        <ele>618.2</ele>
        <time>2022-08-27T12:57:15Z</time>
      </trkpt>
      <trkpt lat="42.2236020" lon="-8.2190790">
        <ele>618.8</ele>
        <time>2022-08-27T12:57:21Z</time>
      </trkpt>
      <trkpt lat="42.2235580" lon="-8.2191740">
        <ele>619.8</ele>
        <time>2022-08-27T12:57:28Z</time>
      </trkpt>
      <trkpt lat="42.2235300" lon="-8.2192620">
        <ele>620.8</ele>
        <time>2022-08-27T12:57:34Z</time>
      </trkpt>
      <trkpt lat="42.2234910" lon="-8.2193440">
        <ele>621.8</ele>
        <time>2022-08-27T12:57:40Z</time>
      </trkpt>
      <trkpt lat="42.2234810" lon="-8.2193590">
        <ele>622.0</ele>
        <time>2022-08-27T12:57:41Z</time>
      </trkpt>
      <trkpt lat="42.2233930" lon="-8.2194400">
        <ele>622.6</ele>
        <time>2022-08-27T12:57:47Z</time>
      </trkpt>
      <trkpt lat="42.2233100" lon="-8.2194810">
        <ele>623.0</ele>
        <time>2022-08-27T12:57:52Z</time>
      </trkpt>
      <trkpt lat="42.2232800" lon="-8.2194870">
        <ele>623.0</ele>
        <time>2022-08-27T12:57:54Z</time>
      </trkpt>
      <trkpt lat="42.2231860" lon="-8.2194950">
        <ele>623.4</ele>
        <time>2022-08-27T12:58:00Z</time>
      </trkpt>
      <trkpt lat="42.2231050" lon="-8.2194880">
        <ele>624.0</ele>
        <time>2022-08-27T12:58:06Z</time>
      </trkpt>
      <trkpt lat="42.2230870" lon="-8.2194870">
        <ele>624.2</ele>
        <time>2022-08-27T12:58:07Z</time>
      </trkpt>
      <trkpt lat="42.2230250" lon="-8.2194930">
        <ele>625.0</ele>
        <time>2022-08-27T12:58:11Z</time>
      </trkpt>
      <trkpt lat="42.2229760" lon="-8.2195010">
        <ele>625.4</ele>
        <time>2022-08-27T12:58:14Z</time>
      </trkpt>
      <trkpt lat="42.2229140" lon="-8.2195080">
        <ele>626.0</ele>
        <time>2022-08-27T12:58:17Z</time>
      </trkpt>
      <trkpt lat="42.2227980" lon="-8.2195340">
        <ele>626.6</ele>
        <time>2022-08-27T12:58:23Z</time>
      </trkpt>
      <trkpt lat="42.2226600" lon="-8.2195710">
        <ele>627.0</ele>
        <time>2022-08-27T12:58:30Z</time>
      </trkpt>
      <trkpt lat="42.2226430" lon="-8.2195760">
        <ele>627.0</ele>
        <time>2022-08-27T12:58:31Z</time>
      </trkpt>
      <trkpt lat="42.2225610" lon="-8.2196450">
        <ele>627.6</ele>
        <time>2022-08-27T12:58:37Z</time>
      </trkpt>
      <trkpt lat="42.2225630" lon="-8.2197320">
        <ele>628.0</ele>
        <time>2022-08-27T12:58:42Z</time>
      </trkpt>
      <trkpt lat="42.2225740" lon="-8.2197400">
        <ele>628.0</ele>
        <time>2022-08-27T12:58:43Z</time>
      </trkpt>
      <trkpt lat="42.2226030" lon="-8.2197530">
        <ele>628.2</ele>
        <time>2022-08-27T12:58:45Z</time>
      </trkpt>
      <trkpt lat="42.2226600" lon="-8.2197650">
        <ele>628.6</ele>
        <time>2022-08-27T12:58:49Z</time>
      </trkpt>
      <trkpt lat="42.2226960" lon="-8.2197700">
        <ele>629.2</ele>
        <time>2022-08-27T12:58:52Z</time>
      </trkpt>
      <trkpt lat="42.2227690" lon="-8.2197830">
        <ele>630.0</ele>
        <time>2022-08-27T12:58:57Z</time>
      </trkpt>
      <trkpt lat="42.2228040" lon="-8.2197940">
        <ele>630.2</ele>
        <time>2022-08-27T12:58:59Z</time>
      </trkpt>
      <trkpt lat="42.2229420" lon="-8.2198300">
        <ele>631.2</ele>
        <time>2022-08-27T12:59:07Z</time>
      </trkpt>
      <trkpt lat="42.2229570" lon="-8.2198330">
        <ele>631.2</ele>
        <time>2022-08-27T12:59:08Z</time>
      </trkpt>
      <trkpt lat="42.2230420" lon="-8.2198520">
        <ele>631.6</ele>
        <time>2022-08-27T12:59:13Z</time>
      </trkpt>
      <trkpt lat="42.2231510" lon="-8.2198680">
        <ele>632.2</ele>
        <time>2022-08-27T12:59:19Z</time>
      </trkpt>
      <trkpt lat="42.2231660" lon="-8.2198710">
        <ele>632.2</ele>
        <time>2022-08-27T12:59:20Z</time>
      </trkpt>
      <trkpt lat="42.2232850" lon="-8.2198820">
        <ele>632.8</ele>
        <time>2022-08-27T12:59:26Z</time>
      </trkpt>
      <trkpt lat="42.2233220" lon="-8.2198900">
        <ele>633.0</ele>
        <time>2022-08-27T12:59:28Z</time>
      </trkpt>
      <trkpt lat="42.2233590" lon="-8.2199040">
        <ele>633.4</ele>
        <time>2022-08-27T12:59:30Z</time>
      </trkpt>
      <trkpt lat="42.2233790" lon="-8.2199060">
        <ele>633.4</ele>
        <time>2022-08-27T12:59:31Z</time>
      </trkpt>
      <trkpt lat="42.2233970" lon="-8.2199040">
        <ele>633.6</ele>
        <time>2022-08-27T12:59:32Z</time>
      </trkpt>
      <trkpt lat="42.2234800" lon="-8.2199200">
        <ele>634.0</ele>
        <time>2022-08-27T12:59:36Z</time>
      </trkpt>
      <trkpt lat="42.2236030" lon="-8.2199530">
        <ele>634.4</ele>
        <time>2022-08-27T12:59:42Z</time>
      </trkpt>
      <trkpt lat="42.2236220" lon="-8.2199580">
        <ele>634.6</ele>
        <time>2022-08-27T12:59:43Z</time>
      </trkpt>
      <trkpt lat="42.2237200" lon="-8.2199810">
        <ele>634.8</ele>
        <time>2022-08-27T12:59:48Z</time>
      </trkpt>
      <trkpt lat="42.2238270" lon="-8.2200050">
        <ele>635.2</ele>
        <time>2022-08-27T12:59:54Z</time>
      </trkpt>
      <trkpt lat="42.2238460" lon="-8.2200080">
        <ele>635.4</ele>
        <time>2022-08-27T12:59:55Z</time>
      </trkpt>
      <trkpt lat="42.2239580" lon="-8.2200170">
        <ele>636.0</ele>
        <time>2022-08-27T13:00:01Z</time>
      </trkpt>
      <trkpt lat="42.2240190" lon="-8.2200370">
        <ele>636.4</ele>
        <time>2022-08-27T13:00:04Z</time>
      </trkpt>
      <trkpt lat="42.2240890" lon="-8.2200490">
        <ele>636.8</ele>
        <time>2022-08-27T13:00:08Z</time>
      </trkpt>
      <trkpt lat="42.2241330" lon="-8.2200530">
        <ele>637.4</ele>
        <time>2022-08-27T13:00:11Z</time>
      </trkpt>
      <trkpt lat="42.2241920" lon="-8.2200640">
        <ele>638.0</ele>
        <time>2022-08-27T13:00:15Z</time>
      </trkpt>
      <trkpt lat="42.2242570" lon="-8.2200840">
        <ele>638.6</ele>
        <time>2022-08-27T13:00:19Z</time>
      </trkpt>
      <trkpt lat="42.2242850" lon="-8.2200890">
        <ele>639.0</ele>
        <time>2022-08-27T13:00:21Z</time>
      </trkpt>
      <trkpt lat="42.2243670" lon="-8.2201170">
        <ele>639.6</ele>
        <time>2022-08-27T13:00:26Z</time>
      </trkpt>
      <trkpt lat="42.2243990" lon="-8.2201290">
        <ele>639.8</ele>
        <time>2022-08-27T13:00:28Z</time>
      </trkpt>
      <trkpt lat="42.2244480" lon="-8.2201470">
        <ele>640.4</ele>
        <time>2022-08-27T13:00:31Z</time>
      </trkpt>
      <trkpt lat="42.2244890" lon="-8.2201630">
        <ele>641.0</ele>
        <time>2022-08-27T13:00:34Z</time>
      </trkpt>
      <trkpt lat="42.2245280" lon="-8.2201740">
        <ele>641.6</ele>
        <time>2022-08-27T13:00:37Z</time>
      </trkpt>
      <trkpt lat="42.2245660" lon="-8.2201830">
        <ele>642.0</ele>
        <time>2022-08-27T13:00:40Z</time>
      </trkpt>
      <trkpt lat="42.2246190" lon="-8.2202040">
        <ele>642.6</ele>
        <time>2022-08-27T13:00:44Z</time>
      </trkpt>
      <trkpt lat="42.2246580" lon="-8.2202190">
        <ele>643.4</ele>
        <time>2022-08-27T13:00:47Z</time>
      </trkpt>
      <trkpt lat="42.2246950" lon="-8.2202260">
        <ele>644.0</ele>
        <time>2022-08-27T13:00:50Z</time>
      </trkpt>
      <trkpt lat="42.2247380" lon="-8.2202330">
        <ele>644.4</ele>
        <time>2022-08-27T13:00:53Z</time>
      </trkpt>
      <trkpt lat="42.2247530" lon="-8.2202310">
        <ele>644.6</ele>
        <time>2022-08-27T13:00:54Z</time>
      </trkpt>
      <trkpt lat="42.2247680" lon="-8.2202260">
        <ele>644.8</ele>
        <time>2022-08-27T13:00:55Z</time>
      </trkpt>
      <trkpt lat="42.2247830" lon="-8.2202250">
        <ele>645.2</ele>
        <time>2022-08-27T13:00:56Z</time>
      </trkpt>
      <trkpt lat="42.2248060" lon="-8.2202210">
        <ele>645.4</ele>
        <time>2022-08-27T13:00:58Z</time>
      </trkpt>
      <trkpt lat="42.2248190" lon="-8.2202250">
        <ele>645.6</ele>
        <time>2022-08-27T13:00:59Z</time>
      </trkpt>
      <trkpt lat="42.2248500" lon="-8.2202390">
        <ele>646.0</ele>
        <time>2022-08-27T13:01:02Z</time>
      </trkpt>
      <trkpt lat="42.2248950" lon="-8.2202410">
        <ele>646.4</ele>
        <time>2022-08-27T13:01:06Z</time>
      </trkpt>
      <trkpt lat="42.2249220" lon="-8.2202400">
        <ele>646.8</ele>
        <time>2022-08-27T13:01:08Z</time>
      </trkpt>
      <trkpt lat="42.2249640" lon="-8.2202320">
        <ele>647.2</ele>
        <time>2022-08-27T13:01:11Z</time>
      </trkpt>
      <trkpt lat="42.2250060" lon="-8.2202290">
        <ele>647.6</ele>
        <time>2022-08-27T13:01:14Z</time>
      </trkpt>
      <trkpt lat="42.2250360" lon="-8.2202260">
        <ele>647.8</ele>
        <time>2022-08-27T13:01:16Z</time>
      </trkpt>
      <trkpt lat="42.2251020" lon="-8.2202160">
        <ele>648.4</ele>
        <time>2022-08-27T13:01:21Z</time>
      </trkpt>
      <trkpt lat="42.2251920" lon="-8.2202070">
        <ele>648.6</ele>
        <time>2022-08-27T13:01:28Z</time>
      </trkpt>
      <trkpt lat="42.2252050" lon="-8.2202080">
        <ele>648.8</ele>
        <time>2022-08-27T13:01:29Z</time>
      </trkpt>
      <trkpt lat="42.2252830" lon="-8.2202330">
        <ele>649.2</ele>
        <time>2022-08-27T13:01:35Z</time>
      </trkpt>
      <trkpt lat="42.2253350" lon="-8.2203000">
        <ele>649.8</ele>
        <time>2022-08-27T13:01:41Z</time>
      </trkpt>
      <trkpt lat="42.2253410" lon="-8.2203120">
        <ele>650.0</ele>
        <time>2022-08-27T13:01:42Z</time>
      </trkpt>
      <trkpt lat="42.2253750" lon="-8.2204030">
        <ele>650.8</ele>
        <time>2022-08-27T13:01:48Z</time>
      </trkpt>
      <trkpt lat="42.2254000" lon="-8.2204870">
        <ele>651.6</ele>
        <time>2022-08-27T13:01:53Z</time>
      </trkpt>
      <trkpt lat="42.2254240" lon="-8.2205590">
        <ele>651.8</ele>
        <time>2022-08-27T13:01:57Z</time>
      </trkpt>
      <trkpt lat="42.2254670" lon="-8.2206930">
        <ele>652.6</ele>
        <time>2022-08-27T13:02:03Z</time>
      </trkpt>
      <trkpt lat="42.2254880" lon="-8.2207390">
        <ele>653.0</ele>
        <time>2022-08-27T13:02:06Z</time>
      </trkpt>
      <trkpt lat="42.2254960" lon="-8.2207810">
        <ele>653.2</ele>
        <time>2022-08-27T13:02:09Z</time>
      </trkpt>
      <trkpt lat="42.2254860" lon="-8.2208080">
        <ele>653.6</ele>
        <time>2022-08-27T13:02:12Z</time>
      </trkpt>
      <trkpt lat="42.2255570" lon="-8.2210370">
        <ele>653.8</ele>
        <time>2022-08-27T13:02:36Z</time>
      </trkpt>
      <trkpt lat="42.2255720" lon="-8.2210820">
        <ele>653.8</ele>
        <time>2022-08-27T13:02:38Z</time>
      </trkpt>
      <trkpt lat="42.2256140" lon="-8.2212420">
        <ele>653.4</ele>
        <time>2022-08-27T13:02:43Z</time>
      </trkpt>
      <trkpt lat="42.2257080" lon="-8.2213970">
        <ele>653.2</ele>
        <time>2022-08-27T13:02:47Z</time>
      </trkpt>
      <trkpt lat="42.2258540" lon="-8.2214410">
        <ele>652.4</ele>
        <time>2022-08-27T13:02:51Z</time>
      </trkpt>
      <trkpt lat="42.2259390" lon="-8.2214460">
        <ele>651.8</ele>
        <time>2022-08-27T13:02:54Z</time>
      </trkpt>
      <trkpt lat="42.2260180" lon="-8.2214700">
        <ele>651.2</ele>
        <time>2022-08-27T13:02:57Z</time>
      </trkpt>
      <trkpt lat="42.2261250" lon="-8.2214750">
        <ele>651.0</ele>
        <time>2022-08-27T13:03:01Z</time>
      </trkpt>
      <trkpt lat="42.2261570" lon="-8.2214810">
        <ele>651.0</ele>
        <time>2022-08-27T13:03:02Z</time>
      </trkpt>
      <trkpt lat="42.2263610" lon="-8.2215800">
        <ele>651.0</ele>
        <time>2022-08-27T13:03:09Z</time>
      </trkpt>
      <trkpt lat="42.2265180" lon="-8.2217590">
        <ele>651.0</ele>
        <time>2022-08-27T13:03:15Z</time>
      </trkpt>
      <trkpt lat="42.2266790" lon="-8.2219380">
        <ele>651.2</ele>
        <time>2022-08-27T13:03:21Z</time>
      </trkpt>
      <trkpt lat="42.2268420" lon="-8.2220660">
        <ele>651.4</ele>
        <time>2022-08-27T13:03:26Z</time>
      </trkpt>
      <trkpt lat="42.2270090" lon="-8.2221660">
        <ele>651.4</ele>
        <time>2022-08-27T13:03:31Z</time>
      </trkpt>
      <trkpt lat="42.2271450" lon="-8.2222290">
        <ele>651.0</ele>
        <time>2022-08-27T13:03:36Z</time>
      </trkpt>
      <trkpt lat="42.2271960" lon="-8.2222650">
        <ele>650.8</ele>
        <time>2022-08-27T13:03:38Z</time>
      </trkpt>
      <trkpt lat="42.2272420" lon="-8.2223270">
        <ele>650.8</ele>
        <time>2022-08-27T13:03:40Z</time>
      </trkpt>
      <trkpt lat="42.2272930" lon="-8.2224470">
        <ele>650.6</ele>
        <time>2022-08-27T13:03:43Z</time>
      </trkpt>
      <trkpt lat="42.2273100" lon="-8.2225490">
        <ele>650.6</ele>
        <time>2022-08-27T13:03:45Z</time>
      </trkpt>
      <trkpt lat="42.2273250" lon="-8.2227670">
        <ele>649.8</ele>
        <time>2022-08-27T13:03:50Z</time>
      </trkpt>
      <trkpt lat="42.2273340" lon="-8.2227940">
        <ele>649.4</ele>
        <time>2022-08-27T13:03:51Z</time>
      </trkpt>
      <trkpt lat="42.2273390" lon="-8.2228140">
        <ele>649.0</ele>
        <time>2022-08-27T13:03:52Z</time>
      </trkpt>
      <trkpt lat="42.2273440" lon="-8.2228300">
        <ele>648.6</ele>
        <time>2022-08-27T13:03:54Z</time>
      </trkpt>
      <trkpt lat="42.2273440" lon="-8.2228370">
        <ele>648.2</ele>
        <time>2022-08-27T13:03:55Z</time>
      </trkpt>
      <trkpt lat="42.2273460" lon="-8.2228400">
        <ele>648.0</ele>
        <time>2022-08-27T13:03:56Z</time>
      </trkpt>
      <trkpt lat="42.2274290" lon="-8.2229300">
        <ele>646.8</ele>
        <time>2022-08-27T13:04:12Z</time>
      </trkpt>
      <trkpt lat="42.2274810" lon="-8.2229650">
        <ele>646.8</ele>
        <time>2022-08-27T13:04:14Z</time>
      </trkpt>
      <trkpt lat="42.2276780" lon="-8.2231030">
        <ele>646.8</ele>
        <time>2022-08-27T13:04:20Z</time>
      </trkpt>
      <trkpt lat="42.2277620" lon="-8.2231690">
        <ele>646.8</ele>
        <time>2022-08-27T13:04:24Z</time>
      </trkpt>
      <trkpt lat="42.2278940" lon="-8.2232570">
        <ele>647.0</ele>
        <time>2022-08-27T13:04:30Z</time>
      </trkpt>
      <trkpt lat="42.2280360" lon="-8.2233730">
        <ele>647.8</ele>
        <time>2022-08-27T13:04:36Z</time>
      </trkpt>
      <trkpt lat="42.2280580" lon="-8.2233930">
        <ele>648.0</ele>
        <time>2022-08-27T13:04:37Z</time>
      </trkpt>
      <trkpt lat="42.2281630" lon="-8.2234830">
        <ele>648.4</ele>
        <time>2022-08-27T13:04:43Z</time>
      </trkpt>
      <trkpt lat="42.2282570" lon="-8.2235540">
        <ele>649.0</ele>
        <time>2022-08-27T13:04:48Z</time>
      </trkpt>
      <trkpt lat="42.2282770" lon="-8.2235680">
        <ele>649.2</ele>
        <time>2022-08-27T13:04:49Z</time>
      </trkpt>
      <trkpt lat="42.2284010" lon="-8.2236860">
        <ele>650.2</ele>
        <time>2022-08-27T13:04:56Z</time>
      </trkpt>
      <trkpt lat="42.2285110" lon="-8.2237730">
        <ele>650.6</ele>
        <time>2022-08-27T13:05:02Z</time>
      </trkpt>
      <trkpt lat="42.2285740" lon="-8.2238090">
        <ele>651.4</ele>
        <time>2022-08-27T13:05:05Z</time>
      </trkpt>
      <trkpt lat="42.2286590" lon="-8.2238730">
        <ele>651.6</ele>
        <time>2022-08-27T13:05:09Z</time>
      </trkpt>
      <trkpt lat="42.2288230" lon="-8.2239590">
        <ele>652.2</ele>
        <time>2022-08-27T13:05:16Z</time>
      </trkpt>
      <trkpt lat="42.2288450" lon="-8.2239650">
        <ele>652.4</ele>
        <time>2022-08-27T13:05:17Z</time>
      </trkpt>
      <trkpt lat="42.2289360" lon="-8.2240030">
        <ele>653.0</ele>
        <time>2022-08-27T13:05:22Z</time>
      </trkpt>
      <trkpt lat="42.2290370" lon="-8.2240540">
        <ele>653.4</ele>
        <time>2022-08-27T13:05:26Z</time>
      </trkpt>
      <trkpt lat="42.2290670" lon="-8.2240720">
        <ele>653.6</ele>
        <time>2022-08-27T13:05:27Z</time>
      </trkpt>
      <trkpt lat="42.2292250" lon="-8.2241480">
        <ele>653.8</ele>
        <time>2022-08-27T13:05:31Z</time>
      </trkpt>
      <trkpt lat="42.2292760" lon="-8.2241700">
        <ele>653.8</ele>
        <time>2022-08-27T13:05:32Z</time>
      </trkpt>
      <trkpt lat="42.2293280" lon="-8.2241890">
        <ele>653.8</ele>
        <time>2022-08-27T13:05:33Z</time>
      </trkpt>
      <trkpt lat="42.2295470" lon="-8.2242480">
        <ele>653.8</ele>
        <time>2022-08-27T13:05:37Z</time>
      </trkpt>
      <trkpt lat="42.2297290" lon="-8.2243010">
        <ele>653.2</ele>
        <time>2022-08-27T13:05:40Z</time>
      </trkpt>
      <trkpt lat="42.2297880" lon="-8.2243430">
        <ele>653.0</ele>
        <time>2022-08-27T13:05:41Z</time>
      </trkpt>
      <trkpt lat="42.2299890" lon="-8.2246210">
        <ele>652.2</ele>
        <time>2022-08-27T13:05:45Z</time>
      </trkpt>
      <trkpt lat="42.2300300" lon="-8.2247180">
        <ele>652.0</ele>
        <time>2022-08-27T13:05:46Z</time>
      </trkpt>
      <trkpt lat="42.2301750" lon="-8.2250040">
        <ele>651.0</ele>
        <time>2022-08-27T13:05:49Z</time>
      </trkpt>
      <trkpt lat="42.2302310" lon="-8.2250940">
        <ele>650.2</ele>
        <time>2022-08-27T13:05:50Z</time>
      </trkpt>
      <trkpt lat="42.2302840" lon="-8.2251860">
        <ele>649.6</ele>
        <time>2022-08-27T13:05:51Z</time>
      </trkpt>
      <trkpt lat="42.2303900" lon="-8.2253610">
        <ele>648.6</ele>
        <time>2022-08-27T13:05:53Z</time>
      </trkpt>
      <trkpt lat="42.2305020" lon="-8.2255250">
        <ele>647.2</ele>
        <time>2022-08-27T13:05:55Z</time>
      </trkpt>
      <trkpt lat="42.2305580" lon="-8.2256080">
        <ele>646.2</ele>
        <time>2022-08-27T13:05:56Z</time>
      </trkpt>
      <trkpt lat="42.2306090" lon="-8.2256940">
        <ele>645.6</ele>
        <time>2022-08-27T13:05:57Z</time>
      </trkpt>
      <trkpt lat="42.2307050" lon="-8.2258760">
        <ele>644.6</ele>
        <time>2022-08-27T13:05:59Z</time>
      </trkpt>
      <trkpt lat="42.2307430" lon="-8.2259740">
        <ele>644.2</ele>
        <time>2022-08-27T13:06:00Z</time>
      </trkpt>
      <trkpt lat="42.2307680" lon="-8.2260800">
        <ele>643.4</ele>
        <time>2022-08-27T13:06:01Z</time>
      </trkpt>
      <trkpt lat="42.2308120" lon="-8.2264100">
        <ele>641.8</ele>
        <time>2022-08-27T13:06:04Z</time>
      </trkpt>
      <trkpt lat="42.2308470" lon="-8.2266270">
        <ele>640.8</ele>
        <time>2022-08-27T13:06:06Z</time>
      </trkpt>
      <trkpt lat="42.2308690" lon="-8.2267320">
        <ele>640.6</ele>
        <time>2022-08-27T13:06:07Z</time>
      </trkpt>
      <trkpt lat="42.2309910" lon="-8.2271250">
        <ele>639.6</ele>
        <time>2022-08-27T13:06:11Z</time>
      </trkpt>
      <trkpt lat="42.2310260" lon="-8.2272210">
        <ele>639.4</ele>
        <time>2022-08-27T13:06:12Z</time>
      </trkpt>
      <trkpt lat="42.2311240" lon="-8.2275200">
        <ele>638.4</ele>
        <time>2022-08-27T13:06:15Z</time>
      </trkpt>
      <trkpt lat="42.2311860" lon="-8.2277310">
        <ele>637.6</ele>
        <time>2022-08-27T13:06:17Z</time>
      </trkpt>
      <trkpt lat="42.2312180" lon="-8.2278320">
        <ele>637.2</ele>
        <time>2022-08-27T13:06:18Z</time>
      </trkpt>
      <trkpt lat="42.2312810" lon="-8.2280440">
        <ele>635.8</ele>
        <time>2022-08-27T13:06:20Z</time>
      </trkpt>
      <trkpt lat="42.2313370" lon="-8.2282360">
        <ele>635.0</ele>
        <time>2022-08-27T13:06:22Z</time>
      </trkpt>
      <trkpt lat="42.2313640" lon="-8.2283340">
        <ele>634.8</ele>
        <time>2022-08-27T13:06:23Z</time>
      </trkpt>
      <trkpt lat="42.2314650" lon="-8.2286380">
        <ele>633.2</ele>
        <time>2022-08-27T13:06:26Z</time>
      </trkpt>
      <trkpt lat="42.2315050" lon="-8.2287370">
        <ele>632.6</ele>
        <time>2022-08-27T13:06:27Z</time>
      </trkpt>
      <trkpt lat="42.2315430" lon="-8.2288360">
        <ele>632.2</ele>
        <time>2022-08-27T13:06:28Z</time>
      </trkpt>
      <trkpt lat="42.2316430" lon="-8.2291360">
        <ele>630.6</ele>
        <time>2022-08-27T13:06:31Z</time>
      </trkpt>
      <trkpt lat="42.2316710" lon="-8.2292250">
        <ele>630.2</ele>
        <time>2022-08-27T13:06:32Z</time>
      </trkpt>
      <trkpt lat="42.2317310" lon="-8.2293900">
        <ele>629.4</ele>
        <time>2022-08-27T13:06:34Z</time>
      </trkpt>
      <trkpt lat="42.2317550" lon="-8.2294680">
        <ele>628.8</ele>
        <time>2022-08-27T13:06:35Z</time>
      </trkpt>
      <trkpt lat="42.2317810" lon="-8.2295490">
        <ele>628.0</ele>
        <time>2022-08-27T13:06:36Z</time>
      </trkpt>
      <trkpt lat="42.2318070" lon="-8.2296230">
        <ele>627.6</ele>
        <time>2022-08-27T13:06:37Z</time>
      </trkpt>
      <trkpt lat="42.2318830" lon="-8.2299020">
        <ele>627.0</ele>
        <time>2022-08-27T13:06:41Z</time>
      </trkpt>
      <trkpt lat="42.2318890" lon="-8.2299710">
        <ele>627.0</ele>
        <time>2022-08-27T13:06:42Z</time>
      </trkpt>
      <trkpt lat="42.2319280" lon="-8.2302090">
        <ele>627.0</ele>
        <time>2022-08-27T13:06:46Z</time>
      </trkpt>
      <trkpt lat="42.2319960" lon="-8.2305230">
        <ele>627.6</ele>
        <time>2022-08-27T13:06:52Z</time>
      </trkpt>
      <trkpt lat="42.2320160" lon="-8.2306140">
        <ele>628.0</ele>
        <time>2022-08-27T13:06:54Z</time>
      </trkpt>
      <trkpt lat="42.2320650" lon="-8.2308080">
        <ele>628.8</ele>
        <time>2022-08-27T13:06:59Z</time>
      </trkpt>
      <trkpt lat="42.2320950" lon="-8.2309510">
        <ele>629.2</ele>
        <time>2022-08-27T13:07:02Z</time>
      </trkpt>
      <trkpt lat="42.2321060" lon="-8.2311220">
        <ele>629.4</ele>
        <time>2022-08-27T13:07:05Z</time>
      </trkpt>
      <trkpt lat="42.2320480" lon="-8.2314380">
        <ele>629.4</ele>
        <time>2022-08-27T13:07:10Z</time>
      </trkpt>
      <trkpt lat="42.2319900" lon="-8.2316180">
        <ele>629.0</ele>
        <time>2022-08-27T13:07:14Z</time>
      </trkpt>
      <trkpt lat="42.2319870" lon="-8.2316230">
        <ele>628.8</ele>
        <time>2022-08-27T13:07:16Z</time>
      </trkpt>
      <trkpt lat="42.2320430" lon="-8.2315930">
        <ele>627.2</ele>
        <time>2022-08-27T13:08:54Z</time>
      </trkpt>
      <trkpt lat="42.2320540" lon="-8.2315710">
        <ele>627.2</ele>
        <time>2022-08-27T13:08:55Z</time>
      </trkpt>
      <trkpt lat="42.2320990" lon="-8.2315040">
        <ele>627.2</ele>
        <time>2022-08-27T13:08:58Z</time>
      </trkpt>
      <trkpt lat="42.2321590" lon="-8.2314400">
        <ele>627.0</ele>
        <time>2022-08-27T13:09:01Z</time>
      </trkpt>
      <trkpt lat="42.2323570" lon="-8.2313200">
        <ele>627.0</ele>
        <time>2022-08-27T13:09:07Z</time>
      </trkpt>
      <trkpt lat="42.2325540" lon="-8.2312350">
        <ele>626.8</ele>
        <time>2022-08-27T13:09:10Z</time>
      </trkpt>
      <trkpt lat="42.2328630" lon="-8.2310560">
        <ele>626.2</ele>
        <time>2022-08-27T13:09:15Z</time>
      </trkpt>
      <trkpt lat="42.2329970" lon="-8.2309010">
        <ele>624.6</ele>
        <time>2022-08-27T13:09:18Z</time>
      </trkpt>
      <trkpt lat="42.2330910" lon="-8.2307920">
        <ele>623.6</ele>
        <time>2022-08-27T13:09:20Z</time>
      </trkpt>
      <trkpt lat="42.2331940" lon="-8.2306740">
        <ele>622.4</ele>
        <time>2022-08-27T13:09:22Z</time>
      </trkpt>
      <trkpt lat="42.2333060" lon="-8.2305130">
        <ele>621.0</ele>
        <time>2022-08-27T13:09:25Z</time>
      </trkpt>
      <trkpt lat="42.2333220" lon="-8.2304680">
        <ele>619.8</ele>
        <time>2022-08-27T13:09:26Z</time>
      </trkpt>
      <trkpt lat="42.2333450" lon="-8.2304010">
        <ele>618.4</ele>
        <time>2022-08-27T13:09:28Z</time>
      </trkpt>
      <trkpt lat="42.2333530" lon="-8.2303720">
        <ele>617.8</ele>
        <time>2022-08-27T13:09:29Z</time>
      </trkpt>
      <trkpt lat="42.2333560" lon="-8.2303460">
        <ele>617.0</ele>
        <time>2022-08-27T13:09:30Z</time>
      </trkpt>
      <trkpt lat="42.2333570" lon="-8.2303150">
        <ele>615.0</ele>
        <time>2022-08-27T13:09:32Z</time>
      </trkpt>
      <trkpt lat="42.2333540" lon="-8.2303130">
        <ele>614.4</ele>
        <time>2022-08-27T13:09:33Z</time>
      </trkpt>
      <trkpt lat="42.2333060" lon="-8.2303100">
        <ele>614.2</ele>
        <time>2022-08-27T13:11:04Z</time>
      </trkpt>
      <trkpt lat="42.2332720" lon="-8.2302160">
        <ele>614.6</ele>
        <time>2022-08-27T13:11:10Z</time>
      </trkpt>
      <trkpt lat="42.2332160" lon="-8.2301330">
        <ele>615.4</ele>
        <time>2022-08-27T13:11:16Z</time>
      </trkpt>
      <trkpt lat="42.2331980" lon="-8.2301110">
        <ele>615.8</ele>
        <time>2022-08-27T13:11:18Z</time>
      </trkpt>
      <trkpt lat="42.2331820" lon="-8.2300910">
        <ele>616.2</ele>
        <time>2022-08-27T13:11:20Z</time>
      </trkpt>
      <trkpt lat="42.2331680" lon="-8.2300790">
        <ele>616.4</ele>
        <time>2022-08-27T13:11:22Z</time>
      </trkpt>
      <trkpt lat="42.2331630" lon="-8.2300730">
        <ele>616.6</ele>
        <time>2022-08-27T13:11:23Z</time>
      </trkpt>
      <trkpt lat="42.2330970" lon="-8.2299760">
        <ele>616.8</ele>
        <time>2022-08-27T13:11:29Z</time>
      </trkpt>
      <trkpt lat="42.2330480" lon="-8.2297940">
        <ele>616.8</ele>
        <time>2022-08-27T13:11:34Z</time>
      </trkpt>
      <trkpt lat="42.2329730" lon="-8.2295970">
        <ele>616.4</ele>
        <time>2022-08-27T13:11:40Z</time>
      </trkpt>
      <trkpt lat="42.2329310" lon="-8.2294070">
        <ele>615.6</ele>
        <time>2022-08-27T13:11:45Z</time>
      </trkpt>
      <trkpt lat="42.2329500" lon="-8.2293410">
        <ele>615.4</ele>
        <time>2022-08-27T13:11:47Z</time>
      </trkpt>
      <trkpt lat="42.2329910" lon="-8.2292690">
        <ele>615.2</ele>
        <time>2022-08-27T13:11:49Z</time>
      </trkpt>
      <trkpt lat="42.2330630" lon="-8.2291960">
        <ele>615.2</ele>
        <time>2022-08-27T13:11:51Z</time>
      </trkpt>
      <trkpt lat="42.2331560" lon="-8.2291230">
        <ele>615.2</ele>
        <time>2022-08-27T13:11:53Z</time>
      </trkpt>
      <trkpt lat="42.2334380" lon="-8.2289090">
        <ele>614.4</ele>
        <time>2022-08-27T13:11:59Z</time>
      </trkpt>
      <trkpt lat="42.2334740" lon="-8.2288670">
        <ele>614.2</ele>
        <time>2022-08-27T13:12:00Z</time>
      </trkpt>
      <trkpt lat="42.2335770" lon="-8.2287400">
        <ele>612.4</ele>
        <time>2022-08-27T13:12:03Z</time>
      </trkpt>
      <trkpt lat="42.2336280" lon="-8.2286790">
        <ele>611.0</ele>
        <time>2022-08-27T13:12:05Z</time>
      </trkpt>
      <trkpt lat="42.2336430" lon="-8.2286640">
        <ele>610.2</ele>
        <time>2022-08-27T13:12:06Z</time>
      </trkpt>
      <trkpt lat="42.2336580" lon="-8.2286630">
        <ele>609.6</ele>
        <time>2022-08-27T13:12:07Z</time>
      </trkpt>
      <trkpt lat="42.2336760" lon="-8.2286910">
        <ele>608.2</ele>
        <time>2022-08-27T13:12:09Z</time>
      </trkpt>
      <trkpt lat="42.2336640" lon="-8.2287420">
        <ele>607.2</ele>
        <time>2022-08-27T13:12:11Z</time>
      </trkpt>
      <trkpt lat="42.2336510" lon="-8.2287840">
        <ele>606.0</ele>
        <time>2022-08-27T13:12:12Z</time>
      </trkpt>
      <trkpt lat="42.2336190" lon="-8.2288860">
        <ele>605.0</ele>
        <time>2022-08-27T13:12:14Z</time>
      </trkpt>
      <trkpt lat="42.2336000" lon="-8.2289340">
        <ele>604.6</ele>
        <time>2022-08-27T13:12:15Z</time>
      </trkpt>
      <trkpt lat="42.2335500" lon="-8.2291020">
        <ele>603.8</ele>
        <time>2022-08-27T13:12:19Z</time>
      </trkpt>
      <trkpt lat="42.2335390" lon="-8.2291700">
        <ele>603.0</ele>
        <time>2022-08-27T13:12:21Z</time>
      </trkpt>
      <trkpt lat="42.2335340" lon="-8.2291970">
        <ele>602.4</ele>
        <time>2022-08-27T13:12:22Z</time>
      </trkpt>
      <trkpt lat="42.2335350" lon="-8.2292510">
        <ele>601.2</ele>
        <time>2022-08-27T13:12:24Z</time>
      </trkpt>
      <trkpt lat="42.2335610" lon="-8.2292940">
        <ele>599.6</ele>
        <time>2022-08-27T13:12:26Z</time>
      </trkpt>
      <trkpt lat="42.2335810" lon="-8.2293200">
        <ele>598.4</ele>
        <time>2022-08-27T13:12:30Z</time>
      </trkpt>
      <trkpt lat="42.2335850" lon="-8.2293230">
        <ele>598.2</ele>
        <time>2022-08-27T13:12:31Z</time>
      </trkpt>
      <trkpt lat="42.2333100" lon="-8.2289850">
        <ele>613.2</ele>
        <time>2022-08-27T14:45:52Z</time>
      </trkpt>
      <trkpt lat="42.2332780" lon="-8.2290200">
        <ele>613.6</ele>
        <time>2022-08-27T14:45:55Z</time>
      </trkpt>
      <trkpt lat="42.2332440" lon="-8.2290520">
        <ele>614.2</ele>
        <time>2022-08-27T14:45:59Z</time>
      </trkpt>
      <trkpt lat="42.2331910" lon="-8.2290770">
        <ele>614.8</ele>
        <time>2022-08-27T14:46:05Z</time>
      </trkpt>
      <trkpt lat="42.2331420" lon="-8.2291070">
        <ele>615.2</ele>
        <time>2022-08-27T14:46:10Z</time>
      </trkpt>
      <trkpt lat="42.2330780" lon="-8.2291530">
        <ele>616.2</ele>
        <time>2022-08-27T14:46:16Z</time>
      </trkpt>
      <trkpt lat="42.2330660" lon="-8.2291610">
        <ele>616.4</ele>
        <time>2022-08-27T14:46:17Z</time>
      </trkpt>
      <trkpt lat="42.2329650" lon="-8.2292590">
        <ele>617.4</ele>
        <time>2022-08-27T14:46:26Z</time>
      </trkpt>
      <trkpt lat="42.2329390" lon="-8.2293830">
        <ele>618.4</ele>
        <time>2022-08-27T14:46:31Z</time>
      </trkpt>
      <trkpt lat="42.2329440" lon="-8.2294110">
        <ele>618.6</ele>
        <time>2022-08-27T14:46:32Z</time>
      </trkpt>
      <trkpt lat="42.2330010" lon="-8.2295810">
        <ele>619.6</ele>
        <time>2022-08-27T14:46:38Z</time>
      </trkpt>
      <trkpt lat="42.2330100" lon="-8.2296150">
        <ele>619.6</ele>
        <time>2022-08-27T14:46:39Z</time>
      </trkpt>
      <trkpt lat="42.2330750" lon="-8.2298270">
        <ele>619.8</ele>
        <time>2022-08-27T14:46:45Z</time>
      </trkpt>
      <trkpt lat="42.2331240" lon="-8.2299600">
        <ele>620.0</ele>
        <time>2022-08-27T14:46:50Z</time>
      </trkpt>
      <trkpt lat="42.2332100" lon="-8.2300770">
        <ele>620.6</ele>
        <time>2022-08-27T14:46:57Z</time>
      </trkpt>
      <trkpt lat="42.2332280" lon="-8.2300950">
        <ele>621.0</ele>
        <time>2022-08-27T14:46:58Z</time>
      </trkpt>
      <trkpt lat="42.2333300" lon="-8.2302880">
        <ele>621.4</ele>
        <time>2022-08-27T14:47:04Z</time>
      </trkpt>
      <trkpt lat="42.2333620" lon="-8.2303910">
        <ele>621.4</ele>
        <time>2022-08-27T14:47:06Z</time>
      </trkpt>
      <trkpt lat="42.2333600" lon="-8.2305210">
        <ele>621.4</ele>
        <time>2022-08-27T14:47:08Z</time>
      </trkpt>
      <trkpt lat="42.2333090" lon="-8.2306550">
        <ele>621.0</ele>
        <time>2022-08-27T14:47:11Z</time>
      </trkpt>
      <trkpt lat="42.2332710" lon="-8.2306950">
        <ele>620.4</ele>
        <time>2022-08-27T14:47:13Z</time>
      </trkpt>
      <trkpt lat="42.2332180" lon="-8.2307500">
        <ele>619.6</ele>
        <time>2022-08-27T14:47:16Z</time>
      </trkpt>
      <trkpt lat="42.2332020" lon="-8.2307680">
        <ele>619.6</ele>
        <time>2022-08-27T14:47:17Z</time>
      </trkpt>
      <trkpt lat="42.2331240" lon="-8.2308740">
        <ele>619.8</ele>
        <time>2022-08-27T14:47:24Z</time>
      </trkpt>
      <trkpt lat="42.2330560" lon="-8.2309480">
        <ele>620.6</ele>
        <time>2022-08-27T14:47:30Z</time>
      </trkpt>
      <trkpt lat="42.2330220" lon="-8.2309920">
        <ele>621.6</ele>
        <time>2022-08-27T14:47:34Z</time>
      </trkpt>
      <trkpt lat="42.2330140" lon="-8.2310050">
        <ele>621.8</ele>
        <time>2022-08-27T14:47:35Z</time>
      </trkpt>
      <trkpt lat="42.2329660" lon="-8.2310700">
        <ele>623.2</ele>
        <time>2022-08-27T14:47:41Z</time>
      </trkpt>
      <trkpt lat="42.2329490" lon="-8.2310910">
        <ele>623.6</ele>
        <time>2022-08-27T14:47:43Z</time>
      </trkpt>
      <trkpt lat="42.2329310" lon="-8.2311070">
        <ele>624.2</ele>
        <time>2022-08-27T14:47:45Z</time>
      </trkpt>
      <trkpt lat="42.2328830" lon="-8.2311370">
        <ele>624.6</ele>
        <time>2022-08-27T14:47:49Z</time>
      </trkpt>
      <trkpt lat="42.2328110" lon="-8.2311680">
        <ele>625.2</ele>
        <time>2022-08-27T14:47:54Z</time>
      </trkpt>
      <trkpt lat="42.2327270" lon="-8.2312110">
        <ele>626.4</ele>
        <time>2022-08-27T14:48:00Z</time>
      </trkpt>
      <trkpt lat="42.2327120" lon="-8.2312160">
        <ele>626.4</ele>
        <time>2022-08-27T14:48:01Z</time>
      </trkpt>
      <trkpt lat="42.2326060" lon="-8.2312760">
        <ele>627.0</ele>
        <time>2022-08-27T14:48:08Z</time>
      </trkpt>
      <trkpt lat="42.2325620" lon="-8.2312980">
        <ele>627.6</ele>
        <time>2022-08-27T14:48:11Z</time>
      </trkpt>
      <trkpt lat="42.2325170" lon="-8.2313190">
        <ele>627.8</ele>
        <time>2022-08-27T14:48:14Z</time>
      </trkpt>
      <trkpt lat="42.2324170" lon="-8.2313730">
        <ele>628.8</ele>
        <time>2022-08-27T14:48:21Z</time>
      </trkpt>
      <trkpt lat="42.2323210" lon="-8.2314140">
        <ele>629.6</ele>
        <time>2022-08-27T14:48:28Z</time>
      </trkpt>
      <trkpt lat="42.2323060" lon="-8.2314230">
        <ele>629.8</ele>
        <time>2022-08-27T14:48:29Z</time>
      </trkpt>
      <trkpt lat="42.2322150" lon="-8.2314740">
        <ele>630.8</ele>
        <time>2022-08-27T14:48:35Z</time>
      </trkpt>
      <trkpt lat="42.2321020" lon="-8.2315910">
        <ele>631.6</ele>
        <time>2022-08-27T14:48:42Z</time>
      </trkpt>
      <trkpt lat="42.2320660" lon="-8.2316340">
        <ele>632.0</ele>
        <time>2022-08-27T14:48:44Z</time>
      </trkpt>
      <trkpt lat="42.2319790" lon="-8.2317820">
        <ele>632.2</ele>
        <time>2022-08-27T14:48:49Z</time>
      </trkpt>
      <trkpt lat="42.2319460" lon="-8.2318810">
        <ele>632.2</ele>
        <time>2022-08-27T14:48:51Z</time>
      </trkpt>
      <trkpt lat="42.2319270" lon="-8.2320650">
        <ele>632.2</ele>
        <time>2022-08-27T14:48:54Z</time>
      </trkpt>
      <trkpt lat="42.2320090" lon="-8.2323070">
        <ele>632.0</ele>
        <time>2022-08-27T14:48:58Z</time>
      </trkpt>
      <trkpt lat="42.2320880" lon="-8.2324280">
        <ele>631.6</ele>
        <time>2022-08-27T14:49:00Z</time>
      </trkpt>
      <trkpt lat="42.2321640" lon="-8.2325430">
        <ele>631.0</ele>
        <time>2022-08-27T14:49:02Z</time>
      </trkpt>
      <trkpt lat="42.2322360" lon="-8.2326730">
        <ele>630.4</ele>
        <time>2022-08-27T14:49:04Z</time>
      </trkpt>
      <trkpt lat="42.2323380" lon="-8.2328680">
        <ele>629.8</ele>
        <time>2022-08-27T14:49:07Z</time>
      </trkpt>
      <trkpt lat="42.2324200" lon="-8.2330470">
        <ele>629.2</ele>
        <time>2022-08-27T14:49:10Z</time>
      </trkpt>
      <trkpt lat="42.2324460" lon="-8.2331010">
        <ele>629.2</ele>
        <time>2022-08-27T14:49:11Z</time>
      </trkpt>
      <trkpt lat="42.2325400" lon="-8.2332970">
        <ele>629.0</ele>
        <time>2022-08-27T14:49:15Z</time>
      </trkpt>
      <trkpt lat="42.2326790" lon="-8.2335100">
        <ele>629.2</ele>
        <time>2022-08-27T14:49:21Z</time>
      </trkpt>
      <trkpt lat="42.2327880" lon="-8.2335830">
        <ele>629.2</ele>
        <time>2022-08-27T14:49:26Z</time>
      </trkpt>
      <trkpt lat="42.2329230" lon="-8.2335990">
        <ele>630.6</ele>
        <time>2022-08-27T14:49:33Z</time>
      </trkpt>
      <trkpt lat="42.2330100" lon="-8.2335990">
        <ele>631.0</ele>
        <time>2022-08-27T14:49:38Z</time>
      </trkpt>
      <trkpt lat="42.2330560" lon="-8.2335970">
        <ele>631.6</ele>
        <time>2022-08-27T14:49:41Z</time>
      </trkpt>
      <trkpt lat="42.2331290" lon="-8.2335980">
        <ele>632.0</ele>
        <time>2022-08-27T14:49:46Z</time>
      </trkpt>
      <trkpt lat="42.2331870" lon="-8.2335870">
        <ele>632.6</ele>
        <time>2022-08-27T14:49:50Z</time>
      </trkpt>
      <trkpt lat="42.2332480" lon="-8.2335720">
        <ele>633.2</ele>
        <time>2022-08-27T14:49:54Z</time>
      </trkpt>
      <trkpt lat="42.2333010" lon="-8.2335520">
        <ele>633.6</ele>
        <time>2022-08-27T14:49:58Z</time>
      </trkpt>
      <trkpt lat="42.2333380" lon="-8.2335410">
        <ele>634.2</ele>
        <time>2022-08-27T14:50:01Z</time>
      </trkpt>
      <trkpt lat="42.2334000" lon="-8.2335290">
        <ele>635.0</ele>
        <time>2022-08-27T14:50:05Z</time>
      </trkpt>
      <trkpt lat="42.2334880" lon="-8.2335220">
        <ele>635.2</ele>
        <time>2022-08-27T14:50:10Z</time>
      </trkpt>
      <trkpt lat="42.2335550" lon="-8.2335250">
        <ele>635.8</ele>
        <time>2022-08-27T14:50:14Z</time>
      </trkpt>
      <trkpt lat="42.2336150" lon="-8.2335430">
        <ele>636.4</ele>
        <time>2022-08-27T14:50:18Z</time>
      </trkpt>
      <trkpt lat="42.2336490" lon="-8.2335530">
        <ele>636.8</ele>
        <time>2022-08-27T14:50:20Z</time>
      </trkpt>
      <trkpt lat="42.2337540" lon="-8.2335960">
        <ele>637.6</ele>
        <time>2022-08-27T14:50:27Z</time>
      </trkpt>
      <trkpt lat="42.2338590" lon="-8.2336600">
        <ele>639.0</ele>
        <time>2022-08-27T14:50:35Z</time>
      </trkpt>
      <trkpt lat="42.2338720" lon="-8.2336660">
        <ele>639.2</ele>
        <time>2022-08-27T14:50:36Z</time>
      </trkpt>
      <trkpt lat="42.2339140" lon="-8.2336880">
        <ele>640.0</ele>
        <time>2022-08-27T14:50:39Z</time>
      </trkpt>
      <trkpt lat="42.2339610" lon="-8.2337150">
        <ele>640.4</ele>
        <time>2022-08-27T14:50:43Z</time>
      </trkpt>
      <trkpt lat="42.2340220" lon="-8.2337350">
        <ele>641.0</ele>
        <time>2022-08-27T14:50:47Z</time>
      </trkpt>
      <trkpt lat="42.2340750" lon="-8.2337480">
        <ele>641.6</ele>
        <time>2022-08-27T14:50:51Z</time>
      </trkpt>
      <trkpt lat="42.2341130" lon="-8.2337480">
        <ele>642.4</ele>
        <time>2022-08-27T14:50:54Z</time>
      </trkpt>
      <trkpt lat="42.2341860" lon="-8.2337620">
        <ele>643.2</ele>
        <time>2022-08-27T14:50:58Z</time>
      </trkpt>
      <trkpt lat="42.2342330" lon="-8.2337600">
        <ele>643.4</ele>
        <time>2022-08-27T14:51:00Z</time>
      </trkpt>
      <trkpt lat="42.2343500" lon="-8.2337230">
        <ele>643.8</ele>
        <time>2022-08-27T14:51:04Z</time>
      </trkpt>
      <trkpt lat="42.2345150" lon="-8.2336660">
        <ele>644.0</ele>
        <time>2022-08-27T14:51:09Z</time>
      </trkpt>
      <trkpt lat="42.2346930" lon="-8.2334650">
        <ele>643.6</ele>
        <time>2022-08-27T14:51:14Z</time>
      </trkpt>
      <trkpt lat="42.2348900" lon="-8.2333090">
        <ele>643.2</ele>
        <time>2022-08-27T14:51:18Z</time>
      </trkpt>
      <trkpt lat="42.2349350" lon="-8.2332550">
        <ele>643.2</ele>
        <time>2022-08-27T14:51:19Z</time>
      </trkpt>
      <trkpt lat="42.2350440" lon="-8.2330370">
        <ele>642.6</ele>
        <time>2022-08-27T14:51:22Z</time>
      </trkpt>
      <trkpt lat="42.2350820" lon="-8.2329560">
        <ele>642.4</ele>
        <time>2022-08-27T14:51:23Z</time>
      </trkpt>
      <trkpt lat="42.2352910" lon="-8.2325230">
        <ele>641.4</ele>
        <time>2022-08-27T14:51:28Z</time>
      </trkpt>
      <trkpt lat="42.2353810" lon="-8.2323610">
        <ele>641.0</ele>
        <time>2022-08-27T14:51:30Z</time>
      </trkpt>
      <trkpt lat="42.2354300" lon="-8.2322900">
        <ele>640.8</ele>
        <time>2022-08-27T14:51:31Z</time>
      </trkpt>
      <trkpt lat="42.2355380" lon="-8.2321810">
        <ele>640.4</ele>
        <time>2022-08-27T14:51:33Z</time>
      </trkpt>
      <trkpt lat="42.2355960" lon="-8.2321460">
        <ele>640.2</ele>
        <time>2022-08-27T14:51:34Z</time>
      </trkpt>
      <trkpt lat="42.2356520" lon="-8.2321190">
        <ele>640.0</ele>
        <time>2022-08-27T14:51:35Z</time>
      </trkpt>
      <trkpt lat="42.2357440" lon="-8.2320890">
        <ele>639.8</ele>
        <time>2022-08-27T14:51:37Z</time>
      </trkpt>
      <trkpt lat="42.2357860" lon="-8.2320810">
        <ele>639.8</ele>
        <time>2022-08-27T14:51:38Z</time>
      </trkpt>
      <trkpt lat="42.2360450" lon="-8.2319790">
        <ele>640.2</ele>
        <time>2022-08-27T14:51:45Z</time>
      </trkpt>
      <trkpt lat="42.2362910" lon="-8.2318760">
        <ele>641.4</ele>
        <time>2022-08-27T14:51:52Z</time>
      </trkpt>
      <trkpt lat="42.2363270" lon="-8.2318650">
        <ele>641.6</ele>
        <time>2022-08-27T14:51:53Z</time>
      </trkpt>
      <trkpt lat="42.2366420" lon="-8.2317880">
        <ele>642.4</ele>
        <time>2022-08-27T14:52:02Z</time>
      </trkpt>
      <trkpt lat="42.2366770" lon="-8.2317840">
        <ele>642.6</ele>
        <time>2022-08-27T14:52:03Z</time>
      </trkpt>
      <trkpt lat="42.2369980" lon="-8.2317500">
        <ele>643.4</ele>
        <time>2022-08-27T14:52:12Z</time>
      </trkpt>
      <trkpt lat="42.2371840" lon="-8.2317270">
        <ele>643.8</ele>
        <time>2022-08-27T14:52:17Z</time>
      </trkpt>
      <trkpt lat="42.2373310" lon="-8.2317040">
        <ele>644.2</ele>
        <time>2022-08-27T14:52:21Z</time>
      </trkpt>
      <trkpt lat="42.2374050" lon="-8.2316900">
        <ele>644.4</ele>
        <time>2022-08-27T14:52:23Z</time>
      </trkpt>
      <trkpt lat="42.2376510" lon="-8.2316600">
        <ele>644.6</ele>
        <time>2022-08-27T14:52:30Z</time>
      </trkpt>
      <trkpt lat="42.2377190" lon="-8.2316550">
        <ele>644.8</ele>
        <time>2022-08-27T14:52:32Z</time>
      </trkpt>
      <trkpt lat="42.2378770" lon="-8.2316500">
        <ele>645.4</ele>
        <time>2022-08-27T14:52:37Z</time>
      </trkpt>
      <trkpt lat="42.2380310" lon="-8.2316690">
        <ele>645.8</ele>
        <time>2022-08-27T14:52:42Z</time>
      </trkpt>
      <trkpt lat="42.2381220" lon="-8.2316820">
        <ele>646.2</ele>
        <time>2022-08-27T14:52:45Z</time>
      </trkpt>
      <trkpt lat="42.2383600" lon="-8.2317130">
        <ele>647.2</ele>
        <time>2022-08-27T14:52:53Z</time>
      </trkpt>
      <trkpt lat="42.2383860" lon="-8.2317140">
        <ele>647.2</ele>
        <time>2022-08-27T14:52:54Z</time>
      </trkpt>
      <trkpt lat="42.2385690" lon="-8.2317170">
        <ele>648.2</ele>
        <time>2022-08-27T14:53:01Z</time>
      </trkpt>
      <trkpt lat="42.2386190" lon="-8.2317150">
        <ele>648.6</ele>
        <time>2022-08-27T14:53:03Z</time>
      </trkpt>
      <trkpt lat="42.2387310" lon="-8.2316980">
        <ele>649.4</ele>
        <time>2022-08-27T14:53:08Z</time>
      </trkpt>
      <trkpt lat="42.2387970" lon="-8.2316800">
        <ele>649.6</ele>
        <time>2022-08-27T14:53:11Z</time>
      </trkpt>
      <trkpt lat="42.2388620" lon="-8.2316560">
        <ele>650.4</ele>
        <time>2022-08-27T14:53:14Z</time>
      </trkpt>
      <trkpt lat="42.2390020" lon="-8.2315670">
        <ele>651.4</ele>
        <time>2022-08-27T14:53:21Z</time>
      </trkpt>
      <trkpt lat="42.2390210" lon="-8.2315520">
        <ele>651.6</ele>
        <time>2022-08-27T14:53:22Z</time>
      </trkpt>
      <trkpt lat="42.2391340" lon="-8.2314490">
        <ele>652.4</ele>
        <time>2022-08-27T14:53:29Z</time>
      </trkpt>
      <trkpt lat="42.2391450" lon="-8.2314330">
        <ele>652.6</ele>
        <time>2022-08-27T14:53:30Z</time>
      </trkpt>
      <trkpt lat="42.2392210" lon="-8.2313470">
        <ele>653.6</ele>
        <time>2022-08-27T14:53:36Z</time>
      </trkpt>
      <trkpt lat="42.2392610" lon="-8.2313040">
        <ele>654.0</ele>
        <time>2022-08-27T14:53:39Z</time>
      </trkpt>
      <trkpt lat="42.2393170" lon="-8.2312520">
        <ele>654.8</ele>
        <time>2022-08-27T14:53:43Z</time>
      </trkpt>
      <trkpt lat="42.2394110" lon="-8.2311930">
        <ele>655.6</ele>
        <time>2022-08-27T14:53:49Z</time>
      </trkpt>
      <trkpt lat="42.2394460" lon="-8.2311790">
        <ele>655.8</ele>
        <time>2022-08-27T14:53:51Z</time>
      </trkpt>
      <trkpt lat="42.2395530" lon="-8.2311530">
        <ele>657.0</ele>
        <time>2022-08-27T14:53:57Z</time>
      </trkpt>
      <trkpt lat="42.2395900" lon="-8.2311540">
        <ele>657.6</ele>
        <time>2022-08-27T14:53:59Z</time>
      </trkpt>
      <trkpt lat="42.2396620" lon="-8.2311660">
        <ele>658.0</ele>
        <time>2022-08-27T14:54:03Z</time>
      </trkpt>
      <trkpt lat="42.2397830" lon="-8.2312150">
        <ele>659.2</ele>
        <time>2022-08-27T14:54:10Z</time>
      </trkpt>
      <trkpt lat="42.2397980" lon="-8.2312230">
        <ele>659.6</ele>
        <time>2022-08-27T14:54:11Z</time>
      </trkpt>
      <trkpt lat="42.2398710" lon="-8.2312820">
        <ele>660.2</ele>
        <time>2022-08-27T14:54:17Z</time>
      </trkpt>
      <trkpt lat="42.2398960" lon="-8.2313040">
        <ele>660.6</ele>
        <time>2022-08-27T14:54:19Z</time>
      </trkpt>
      <trkpt lat="42.2399550" lon="-8.2313680">
        <ele>661.4</ele>
        <time>2022-08-27T14:54:24Z</time>
      </trkpt>
      <trkpt lat="42.2399960" lon="-8.2314360">
        <ele>662.2</ele>
        <time>2022-08-27T14:54:28Z</time>
      </trkpt>
      <trkpt lat="42.2400210" lon="-8.2314960">
        <ele>662.6</ele>
        <time>2022-08-27T14:54:31Z</time>
      </trkpt>
      <trkpt lat="42.2400580" lon="-8.2316050">
        <ele>663.4</ele>
        <time>2022-08-27T14:54:36Z</time>
      </trkpt>
      <trkpt lat="42.2400750" lon="-8.2316470">
        <ele>663.6</ele>
        <time>2022-08-27T14:54:38Z</time>
      </trkpt>
      <trkpt lat="42.2401210" lon="-8.2318000">
        <ele>664.6</ele>
        <time>2022-08-27T14:54:45Z</time>
      </trkpt>
      <trkpt lat="42.2401270" lon="-8.2318180">
        <ele>664.6</ele>
        <time>2022-08-27T14:54:46Z</time>
      </trkpt>
      <trkpt lat="42.2401880" lon="-8.2319200">
        <ele>665.6</ele>
        <time>2022-08-27T14:54:53Z</time>
      </trkpt>
      <trkpt lat="42.2401990" lon="-8.2319350">
        <ele>665.6</ele>
        <time>2022-08-27T14:54:54Z</time>
      </trkpt>
      <trkpt lat="42.2402460" lon="-8.2320150">
        <ele>666.8</ele>
        <time>2022-08-27T14:54:59Z</time>
      </trkpt>
      <trkpt lat="42.2402550" lon="-8.2320290">
        <ele>667.0</ele>
        <time>2022-08-27T14:55:00Z</time>
      </trkpt>
      <trkpt lat="42.2403190" lon="-8.2321200">
        <ele>668.0</ele>
        <time>2022-08-27T14:55:06Z</time>
      </trkpt>
      <trkpt lat="42.2403310" lon="-8.2321350">
        <ele>668.2</ele>
        <time>2022-08-27T14:55:07Z</time>
      </trkpt>
      <trkpt lat="42.2403780" lon="-8.2321900">
        <ele>669.0</ele>
        <time>2022-08-27T14:55:11Z</time>
      </trkpt>
      <trkpt lat="42.2404050" lon="-8.2322140">
        <ele>669.2</ele>
        <time>2022-08-27T14:55:13Z</time>
      </trkpt>
      <trkpt lat="42.2404320" lon="-8.2322320">
        <ele>669.6</ele>
        <time>2022-08-27T14:55:15Z</time>
      </trkpt>
      <trkpt lat="42.2404720" lon="-8.2322670">
        <ele>670.2</ele>
        <time>2022-08-27T14:55:18Z</time>
      </trkpt>
      <trkpt lat="42.2405310" lon="-8.2323100">
        <ele>670.6</ele>
        <time>2022-08-27T14:55:22Z</time>
      </trkpt>
      <trkpt lat="42.2405870" lon="-8.2323520">
        <ele>671.2</ele>
        <time>2022-08-27T14:55:26Z</time>
      </trkpt>
      <trkpt lat="42.2406420" lon="-8.2323910">
        <ele>672.0</ele>
        <time>2022-08-27T14:55:30Z</time>
      </trkpt>
      <trkpt lat="42.2406830" lon="-8.2324110">
        <ele>672.2</ele>
        <time>2022-08-27T14:55:33Z</time>
      </trkpt>
      <trkpt lat="42.2407280" lon="-8.2324310">
        <ele>672.8</ele>
        <time>2022-08-27T14:55:36Z</time>
      </trkpt>
      <trkpt lat="42.2407850" lon="-8.2324510">
        <ele>673.2</ele>
        <time>2022-08-27T14:55:39Z</time>
      </trkpt>
      <trkpt lat="42.2408750" lon="-8.2324810">
        <ele>673.8</ele>
        <time>2022-08-27T14:55:44Z</time>
      </trkpt>
      <trkpt lat="42.2409640" lon="-8.2325110">
        <ele>674.4</ele>
        <time>2022-08-27T14:55:49Z</time>
      </trkpt>
      <trkpt lat="42.2410170" lon="-8.2325240">
        <ele>675.0</ele>
        <time>2022-08-27T14:55:52Z</time>
      </trkpt>
      <trkpt lat="42.2411220" lon="-8.2325550">
        <ele>675.8</ele>
        <time>2022-08-27T14:55:58Z</time>
      </trkpt>
      <trkpt lat="42.2411930" lon="-8.2325760">
        <ele>676.2</ele>
        <time>2022-08-27T14:56:02Z</time>
      </trkpt>
      <trkpt lat="42.2413210" lon="-8.2326090">
        <ele>676.8</ele>
        <time>2022-08-27T14:56:10Z</time>
      </trkpt>
      <trkpt lat="42.2413350" lon="-8.2326140">
        <ele>677.2</ele>
        <time>2022-08-27T14:56:11Z</time>
      </trkpt>
      <trkpt lat="42.2413770" lon="-8.2326230">
        <ele>678.0</ele>
        <time>2022-08-27T14:56:14Z</time>
      </trkpt>
      <trkpt lat="42.2414500" lon="-8.2326530">
        <ele>678.8</ele>
        <time>2022-08-27T14:56:19Z</time>
      </trkpt>
      <trkpt lat="42.2414910" lon="-8.2326810">
        <ele>679.2</ele>
        <time>2022-08-27T14:56:22Z</time>
      </trkpt>
      <trkpt lat="42.2415490" lon="-8.2327290">
        <ele>680.4</ele>
        <time>2022-08-27T14:56:27Z</time>
      </trkpt>
      <trkpt lat="42.2415980" lon="-8.2327950">
        <ele>681.4</ele>
        <time>2022-08-27T14:56:32Z</time>
      </trkpt>
      <trkpt lat="42.2416210" lon="-8.2328320">
        <ele>681.8</ele>
        <time>2022-08-27T14:56:35Z</time>
      </trkpt>
      <trkpt lat="42.2416480" lon="-8.2328800">
        <ele>682.6</ele>
        <time>2022-08-27T14:56:39Z</time>
      </trkpt>
      <trkpt lat="42.2416610" lon="-8.2329730">
        <ele>683.6</ele>
        <time>2022-08-27T14:56:45Z</time>
      </trkpt>
      <trkpt lat="42.2416600" lon="-8.2330890">
        <ele>684.6</ele>
        <time>2022-08-27T14:56:52Z</time>
      </trkpt>
      <trkpt lat="42.2416560" lon="-8.2331220">
        <ele>685.2</ele>
        <time>2022-08-27T14:56:54Z</time>
      </trkpt>
      <trkpt lat="42.2416490" lon="-8.2331740">
        <ele>685.8</ele>
        <time>2022-08-27T14:56:57Z</time>
      </trkpt>
      <trkpt lat="42.2416360" lon="-8.2332440">
        <ele>686.4</ele>
        <time>2022-08-27T14:57:01Z</time>
      </trkpt>
      <trkpt lat="42.2416270" lon="-8.2332780">
        <ele>686.8</ele>
        <time>2022-08-27T14:57:03Z</time>
      </trkpt>
      <trkpt lat="42.2415950" lon="-8.2334100">
        <ele>687.6</ele>
        <time>2022-08-27T14:57:10Z</time>
      </trkpt>
      <trkpt lat="42.2415900" lon="-8.2334280">
        <ele>687.8</ele>
        <time>2022-08-27T14:57:11Z</time>
      </trkpt>
      <trkpt lat="42.2415430" lon="-8.2335760">
        <ele>688.8</ele>
        <time>2022-08-27T14:57:19Z</time>
      </trkpt>
      <trkpt lat="42.2414980" lon="-8.2337360">
        <ele>689.8</ele>
        <time>2022-08-27T14:57:27Z</time>
      </trkpt>
      <trkpt lat="42.2414830" lon="-8.2337760">
        <ele>690.0</ele>
        <time>2022-08-27T14:57:29Z</time>
      </trkpt>
      <trkpt lat="42.2414460" lon="-8.2338970">
        <ele>690.8</ele>
        <time>2022-08-27T14:57:35Z</time>
      </trkpt>
      <trkpt lat="42.2414380" lon="-8.2339390">
        <ele>691.0</ele>
        <time>2022-08-27T14:57:37Z</time>
      </trkpt>
      <trkpt lat="42.2414080" lon="-8.2340830">
        <ele>692.0</ele>
        <time>2022-08-27T14:57:44Z</time>
      </trkpt>
      <trkpt lat="42.2414040" lon="-8.2341040">
        <ele>692.2</ele>
        <time>2022-08-27T14:57:45Z</time>
      </trkpt>
      <trkpt lat="42.2413910" lon="-8.2342260">
        <ele>693.0</ele>
        <time>2022-08-27T14:57:51Z</time>
      </trkpt>
      <trkpt lat="42.2413900" lon="-8.2343360">
        <ele>693.6</ele>
        <time>2022-08-27T14:57:56Z</time>
      </trkpt>
      <trkpt lat="42.2413970" lon="-8.2343990">
        <ele>694.2</ele>
        <time>2022-08-27T14:57:59Z</time>
      </trkpt>
      <trkpt lat="42.2414230" lon="-8.2345200">
        <ele>695.4</ele>
        <time>2022-08-27T14:58:05Z</time>
      </trkpt>
      <trkpt lat="42.2414650" lon="-8.2346030">
        <ele>696.4</ele>
        <time>2022-08-27T14:58:10Z</time>
      </trkpt>
      <trkpt lat="42.2415210" lon="-8.2347100">
        <ele>697.0</ele>
        <time>2022-08-27T14:58:16Z</time>
      </trkpt>
      <trkpt lat="42.2415480" lon="-8.2347600">
        <ele>697.4</ele>
        <time>2022-08-27T14:58:19Z</time>
      </trkpt>
      <trkpt lat="42.2416200" lon="-8.2348650">
        <ele>698.4</ele>
        <time>2022-08-27T14:58:26Z</time>
      </trkpt>
      <trkpt lat="42.2416310" lon="-8.2348780">
        <ele>698.6</ele>
        <time>2022-08-27T14:58:27Z</time>
      </trkpt>
      <trkpt lat="42.2417480" lon="-8.2349740">
        <ele>699.6</ele>
        <time>2022-08-27T14:58:37Z</time>
      </trkpt>
      <trkpt lat="42.2417600" lon="-8.2349750">
        <ele>699.8</ele>
        <time>2022-08-27T14:58:38Z</time>
      </trkpt>
      <trkpt lat="42.2418200" lon="-8.2349810">
        <ele>701.2</ele>
        <time>2022-08-27T14:58:43Z</time>
      </trkpt>
      <trkpt lat="42.2418860" lon="-8.2349820">
        <ele>701.8</ele>
        <time>2022-08-27T14:58:48Z</time>
      </trkpt>
      <trkpt lat="42.2419110" lon="-8.2349790">
        <ele>702.4</ele>
        <time>2022-08-27T14:58:50Z</time>
      </trkpt>
      <trkpt lat="42.2419690" lon="-8.2349580">
        <ele>703.4</ele>
        <time>2022-08-27T14:58:55Z</time>
      </trkpt>
      <trkpt lat="42.2419910" lon="-8.2349480">
        <ele>703.8</ele>
        <time>2022-08-27T14:58:57Z</time>
      </trkpt>
      <trkpt lat="42.2420250" lon="-8.2349340">
        <ele>704.4</ele>
        <time>2022-08-27T14:59:00Z</time>
      </trkpt>
      <trkpt lat="42.2420860" lon="-8.2349100">
        <ele>705.4</ele>
        <time>2022-08-27T14:59:05Z</time>
      </trkpt>
      <trkpt lat="42.2421360" lon="-8.2348850">
        <ele>706.2</ele>
        <time>2022-08-27T14:59:09Z</time>
      </trkpt>
      <trkpt lat="42.2421630" lon="-8.2348740">
        <ele>706.6</ele>
        <time>2022-08-27T14:59:11Z</time>
      </trkpt>
      <trkpt lat="42.2422270" lon="-8.2348490">
        <ele>707.2</ele>
        <time>2022-08-27T14:59:16Z</time>
      </trkpt>
      <trkpt lat="42.2422740" lon="-8.2348230">
        <ele>707.6</ele>
        <time>2022-08-27T14:59:20Z</time>
      </trkpt>
      <trkpt lat="42.2423360" lon="-8.2348060">
        <ele>708.6</ele>
        <time>2022-08-27T14:59:25Z</time>
      </trkpt>
      <trkpt lat="42.2423490" lon="-8.2348000">
        <ele>708.8</ele>
        <time>2022-08-27T14:59:26Z</time>
      </trkpt>
      <trkpt lat="42.2424600" lon="-8.2347610">
        <ele>709.6</ele>
        <time>2022-08-27T14:59:35Z</time>
      </trkpt>
      <trkpt lat="42.2424730" lon="-8.2347580">
        <ele>709.8</ele>
        <time>2022-08-27T14:59:36Z</time>
      </trkpt>
      <trkpt lat="42.2425270" lon="-8.2347520">
        <ele>711.0</ele>
        <time>2022-08-27T14:59:40Z</time>
      </trkpt>
      <trkpt lat="42.2425770" lon="-8.2347410">
        <ele>711.8</ele>
        <time>2022-08-27T14:59:44Z</time>
      </trkpt>
      <trkpt lat="42.2425900" lon="-8.2347410">
        <ele>712.0</ele>
        <time>2022-08-27T14:59:45Z</time>
      </trkpt>
      <trkpt lat="42.2426740" lon="-8.2347740">
        <ele>713.0</ele>
        <time>2022-08-27T14:59:52Z</time>
      </trkpt>
      <trkpt lat="42.2426850" lon="-8.2347790">
        <ele>713.2</ele>
        <time>2022-08-27T14:59:53Z</time>
      </trkpt>
      <trkpt lat="42.2427440" lon="-8.2348420">
        <ele>713.8</ele>
        <time>2022-08-27T14:59:59Z</time>
      </trkpt>
      <trkpt lat="42.2427600" lon="-8.2348660">
        <ele>714.2</ele>
        <time>2022-08-27T15:00:01Z</time>
      </trkpt>
      <trkpt lat="42.2427960" lon="-8.2349550">
        <ele>715.2</ele>
        <time>2022-08-27T15:00:07Z</time>
      </trkpt>
      <trkpt lat="42.2427990" lon="-8.2349710">
        <ele>715.2</ele>
        <time>2022-08-27T15:00:08Z</time>
      </trkpt>
      <trkpt lat="42.2428200" lon="-8.2350510">
        <ele>715.8</ele>
        <time>2022-08-27T15:00:13Z</time>
      </trkpt>
      <trkpt lat="42.2428340" lon="-8.2351010">
        <ele>716.2</ele>
        <time>2022-08-27T15:00:16Z</time>
      </trkpt>
      <trkpt lat="42.2428360" lon="-8.2351190">
        <ele>716.4</ele>
        <time>2022-08-27T15:00:17Z</time>
      </trkpt>
      <trkpt lat="42.2428430" lon="-8.2352220">
        <ele>717.2</ele>
        <time>2022-08-27T15:00:23Z</time>
      </trkpt>
      <trkpt lat="42.2428450" lon="-8.2352560">
        <ele>717.4</ele>
        <time>2022-08-27T15:00:25Z</time>
      </trkpt>
      <trkpt lat="42.2428640" lon="-8.2353210">
        <ele>718.2</ele>
        <time>2022-08-27T15:00:29Z</time>
      </trkpt>
      <trkpt lat="42.2428820" lon="-8.2353860">
        <ele>719.0</ele>
        <time>2022-08-27T15:00:33Z</time>
      </trkpt>
      <trkpt lat="42.2429010" lon="-8.2354480">
        <ele>719.4</ele>
        <time>2022-08-27T15:00:37Z</time>
      </trkpt>
      <trkpt lat="42.2429280" lon="-8.2355060">
        <ele>719.8</ele>
        <time>2022-08-27T15:00:41Z</time>
      </trkpt>
      <trkpt lat="42.2429520" lon="-8.2355500">
        <ele>720.6</ele>
        <time>2022-08-27T15:00:44Z</time>
      </trkpt>
      <trkpt lat="42.2430100" lon="-8.2356160">
        <ele>721.2</ele>
        <time>2022-08-27T15:00:50Z</time>
      </trkpt>
      <trkpt lat="42.2430600" lon="-8.2356520">
        <ele>721.6</ele>
        <time>2022-08-27T15:00:54Z</time>
      </trkpt>
      <trkpt lat="42.2431440" lon="-8.2357060">
        <ele>722.8</ele>
        <time>2022-08-27T15:01:00Z</time>
      </trkpt>
      <trkpt lat="42.2432410" lon="-8.2357560">
        <ele>723.8</ele>
        <time>2022-08-27T15:01:07Z</time>
      </trkpt>
      <trkpt lat="42.2432970" lon="-8.2357780">
        <ele>724.4</ele>
        <time>2022-08-27T15:01:11Z</time>
      </trkpt>
      <trkpt lat="42.2433410" lon="-8.2357910">
        <ele>724.8</ele>
        <time>2022-08-27T15:01:14Z</time>
      </trkpt>
      <trkpt lat="42.2434100" lon="-8.2358140">
        <ele>725.8</ele>
        <time>2022-08-27T15:01:19Z</time>
      </trkpt>
      <trkpt lat="42.2434250" lon="-8.2358160">
        <ele>726.0</ele>
        <time>2022-08-27T15:01:20Z</time>
      </trkpt>
      <trkpt lat="42.2435290" lon="-8.2358360">
        <ele>727.0</ele>
        <time>2022-08-27T15:01:27Z</time>
      </trkpt>
      <trkpt lat="42.2436440" lon="-8.2358640">
        <ele>728.2</ele>
        <time>2022-08-27T15:01:35Z</time>
      </trkpt>
      <trkpt lat="42.2436860" lon="-8.2358790">
        <ele>728.8</ele>
        <time>2022-08-27T15:01:38Z</time>
      </trkpt>
      <trkpt lat="42.2437290" lon="-8.2358970">
        <ele>729.2</ele>
        <time>2022-08-27T15:01:41Z</time>
      </trkpt>
      <trkpt lat="42.2437440" lon="-8.2358970">
        <ele>729.4</ele>
        <time>2022-08-27T15:01:42Z</time>
      </trkpt>
      <trkpt lat="42.2437860" lon="-8.2358990">
        <ele>729.8</ele>
        <time>2022-08-27T15:01:45Z</time>
      </trkpt>
      <trkpt lat="42.2438250" lon="-8.2359130">
        <ele>730.4</ele>
        <time>2022-08-27T15:01:48Z</time>
      </trkpt>
      <trkpt lat="42.2438760" lon="-8.2359220">
        <ele>730.8</ele>
        <time>2022-08-27T15:01:52Z</time>
      </trkpt>
      <trkpt lat="42.2439270" lon="-8.2359320">
        <ele>731.6</ele>
        <time>2022-08-27T15:01:56Z</time>
      </trkpt>
      <trkpt lat="42.2439940" lon="-8.2359390">
        <ele>732.2</ele>
        <time>2022-08-27T15:02:01Z</time>
      </trkpt>
      <trkpt lat="42.2440470" lon="-8.2359490">
        <ele>732.6</ele>
        <time>2022-08-27T15:02:05Z</time>
      </trkpt>
      <trkpt lat="42.2441250" lon="-8.2359690">
        <ele>733.6</ele>
        <time>2022-08-27T15:02:11Z</time>
      </trkpt>
      <trkpt lat="42.2441380" lon="-8.2359740">
        <ele>733.8</ele>
        <time>2022-08-27T15:02:12Z</time>
      </trkpt>
      <trkpt lat="42.2442010" lon="-8.2359960">
        <ele>735.0</ele>
        <time>2022-08-27T15:02:17Z</time>
      </trkpt>
      <trkpt lat="42.2442390" lon="-8.2360170">
        <ele>735.2</ele>
        <time>2022-08-27T15:02:20Z</time>
      </trkpt>
      <trkpt lat="42.2443010" lon="-8.2360650">
        <ele>736.0</ele>
        <time>2022-08-27T15:02:25Z</time>
      </trkpt>
      <trkpt lat="42.2443340" lon="-8.2360940">
        <ele>736.4</ele>
        <time>2022-08-27T15:02:28Z</time>
      </trkpt>
      <trkpt lat="42.2444000" lon="-8.2361580">
        <ele>737.2</ele>
        <time>2022-08-27T15:02:34Z</time>
      </trkpt>
      <trkpt lat="42.2444150" lon="-8.2361900">
        <ele>737.6</ele>
        <time>2022-08-27T15:02:36Z</time>
      </trkpt>
      <trkpt lat="42.2444530" lon="-8.2363180">
        <ele>738.2</ele>
        <time>2022-08-27T15:02:43Z</time>
      </trkpt>
      <trkpt lat="42.2444550" lon="-8.2363710">
        <ele>738.8</ele>
        <time>2022-08-27T15:02:46Z</time>
      </trkpt>
      <trkpt lat="42.2444380" lon="-8.2364640">
        <ele>739.4</ele>
        <time>2022-08-27T15:02:52Z</time>
      </trkpt>
      <trkpt lat="42.2444220" lon="-8.2365550">
        <ele>740.6</ele>
        <time>2022-08-27T15:02:58Z</time>
      </trkpt>
      <trkpt lat="42.2444180" lon="-8.2365950">
        <ele>740.8</ele>
        <time>2022-08-27T15:03:00Z</time>
      </trkpt>
      <trkpt lat="42.2444120" lon="-8.2367310">
        <ele>741.6</ele>
        <time>2022-08-27T15:03:06Z</time>
      </trkpt>
      <trkpt lat="42.2444230" lon="-8.2367770">
        <ele>741.8</ele>
        <time>2022-08-27T15:03:08Z</time>
      </trkpt>
      <trkpt lat="42.2444740" lon="-8.2368690">
        <ele>742.6</ele>
        <time>2022-08-27T15:03:13Z</time>
      </trkpt>
      <trkpt lat="42.2445010" lon="-8.2368920">
        <ele>742.8</ele>
        <time>2022-08-27T15:03:15Z</time>
      </trkpt>
      <trkpt lat="42.2445870" lon="-8.2369430">
        <ele>743.8</ele>
        <time>2022-08-27T15:03:21Z</time>
      </trkpt>
      <trkpt lat="42.2446300" lon="-8.2369580">
        <ele>744.2</ele>
        <time>2022-08-27T15:03:24Z</time>
      </trkpt>
      <trkpt lat="42.2446990" lon="-8.2369810">
        <ele>744.8</ele>
        <time>2022-08-27T15:03:29Z</time>
      </trkpt>
      <trkpt lat="42.2447970" lon="-8.2370060">
        <ele>745.8</ele>
        <time>2022-08-27T15:03:36Z</time>
      </trkpt>
      <trkpt lat="42.2448100" lon="-8.2370100">
        <ele>746.0</ele>
        <time>2022-08-27T15:03:37Z</time>
      </trkpt>
      <trkpt lat="42.2448880" lon="-8.2370360">
        <ele>747.4</ele>
        <time>2022-08-27T15:03:43Z</time>
      </trkpt>
      <trkpt lat="42.2449240" lon="-8.2370500">
        <ele>748.0</ele>
        <time>2022-08-27T15:03:46Z</time>
      </trkpt>
      <trkpt lat="42.2449890" lon="-8.2370740">
        <ele>748.6</ele>
        <time>2022-08-27T15:03:51Z</time>
      </trkpt>
      <trkpt lat="42.2450280" lon="-8.2370880">
        <ele>748.8</ele>
        <time>2022-08-27T15:03:54Z</time>
      </trkpt>
      <trkpt lat="42.2451030" lon="-8.2371300">
        <ele>749.6</ele>
        <time>2022-08-27T15:04:00Z</time>
      </trkpt>
      <trkpt lat="42.2451590" lon="-8.2371600">
        <ele>749.8</ele>
        <time>2022-08-27T15:04:04Z</time>
      </trkpt>
      <trkpt lat="42.2452280" lon="-8.2371950">
        <ele>750.4</ele>
        <time>2022-08-27T15:04:09Z</time>
      </trkpt>
      <trkpt lat="42.2452680" lon="-8.2372250">
        <ele>751.2</ele>
        <time>2022-08-27T15:04:12Z</time>
      </trkpt>
      <trkpt lat="42.2452810" lon="-8.2372330">
        <ele>751.4</ele>
        <time>2022-08-27T15:04:13Z</time>
      </trkpt>
      <trkpt lat="42.2453770" lon="-8.2372570">
        <ele>752.4</ele>
        <time>2022-08-27T15:04:20Z</time>
      </trkpt>
      <trkpt lat="42.2454040" lon="-8.2372670">
        <ele>752.6</ele>
        <time>2022-08-27T15:04:22Z</time>
      </trkpt>
      <trkpt lat="42.2455160" lon="-8.2373150">
        <ele>753.6</ele>
        <time>2022-08-27T15:04:31Z</time>
      </trkpt>
      <trkpt lat="42.2455280" lon="-8.2373180">
        <ele>753.6</ele>
        <time>2022-08-27T15:04:32Z</time>
      </trkpt>
      <trkpt lat="42.2456070" lon="-8.2373320">
        <ele>754.8</ele>
        <time>2022-08-27T15:04:38Z</time>
      </trkpt>
      <trkpt lat="42.2456460" lon="-8.2373350">
        <ele>755.2</ele>
        <time>2022-08-27T15:04:41Z</time>
      </trkpt>
      <trkpt lat="42.2457020" lon="-8.2373360">
        <ele>756.0</ele>
        <time>2022-08-27T15:04:45Z</time>
      </trkpt>
      <trkpt lat="42.2457560" lon="-8.2373440">
        <ele>756.6</ele>
        <time>2022-08-27T15:04:49Z</time>
      </trkpt>
      <trkpt lat="42.2457840" lon="-8.2373470">
        <ele>757.0</ele>
        <time>2022-08-27T15:04:51Z</time>
      </trkpt>
      <trkpt lat="42.2458790" lon="-8.2373530">
        <ele>758.0</ele>
        <time>2022-08-27T15:04:58Z</time>
      </trkpt>
      <trkpt lat="42.2459030" lon="-8.2373550">
        <ele>758.6</ele>
        <time>2022-08-27T15:05:00Z</time>
      </trkpt>
      <trkpt lat="42.2459230" lon="-8.2373600">
        <ele>759.2</ele>
        <time>2022-08-27T15:05:02Z</time>
      </trkpt>
      <trkpt lat="42.2459800" lon="-8.2373800">
        <ele>760.2</ele>
        <time>2022-08-27T15:05:07Z</time>
      </trkpt>
      <trkpt lat="42.2460060" lon="-8.2373880">
        <ele>760.4</ele>
        <time>2022-08-27T15:05:09Z</time>
      </trkpt>
      <trkpt lat="42.2461530" lon="-8.2374360">
        <ele>761.4</ele>
        <time>2022-08-27T15:05:19Z</time>
      </trkpt>
      <trkpt lat="42.2461690" lon="-8.2374420">
        <ele>761.6</ele>
        <time>2022-08-27T15:05:20Z</time>
      </trkpt>
      <trkpt lat="42.2462620" lon="-8.2374830">
        <ele>762.4</ele>
        <time>2022-08-27T15:05:26Z</time>
      </trkpt>
      <trkpt lat="42.2463200" lon="-8.2375060">
        <ele>763.0</ele>
        <time>2022-08-27T15:05:30Z</time>
      </trkpt>
      <trkpt lat="42.2463630" lon="-8.2375250">
        <ele>763.6</ele>
        <time>2022-08-27T15:05:33Z</time>
      </trkpt>
      <trkpt lat="42.2464860" lon="-8.2375820">
        <ele>764.6</ele>
        <time>2022-08-27T15:05:41Z</time>
      </trkpt>
      <trkpt lat="42.2465020" lon="-8.2375880">
        <ele>764.8</ele>
        <time>2022-08-27T15:05:42Z</time>
      </trkpt>
      <trkpt lat="42.2466360" lon="-8.2376440">
        <ele>765.8</ele>
        <time>2022-08-27T15:05:50Z</time>
      </trkpt>
      <trkpt lat="42.2466860" lon="-8.2376690">
        <ele>766.0</ele>
        <time>2022-08-27T15:05:53Z</time>
      </trkpt>
      <trkpt lat="42.2467670" lon="-8.2377020">
        <ele>766.8</ele>
        <time>2022-08-27T15:05:58Z</time>
      </trkpt>
      <trkpt lat="42.2468470" lon="-8.2377360">
        <ele>768.0</ele>
        <time>2022-08-27T15:06:03Z</time>
      </trkpt>
      <trkpt lat="42.2469820" lon="-8.2377930">
        <ele>769.0</ele>
        <time>2022-08-27T15:06:11Z</time>
      </trkpt>
      <trkpt lat="42.2470160" lon="-8.2378100">
        <ele>769.2</ele>
        <time>2022-08-27T15:06:13Z</time>
      </trkpt>
      <trkpt lat="42.2471330" lon="-8.2378630">
        <ele>770.0</ele>
        <time>2022-08-27T15:06:20Z</time>
      </trkpt>
      <trkpt lat="42.2472160" lon="-8.2378970">
        <ele>771.0</ele>
        <time>2022-08-27T15:06:25Z</time>
      </trkpt>
      <trkpt lat="42.2472320" lon="-8.2379060">
        <ele>771.2</ele>
        <time>2022-08-27T15:06:26Z</time>
      </trkpt>
      <trkpt lat="42.2472810" lon="-8.2379270">
        <ele>772.2</ele>
        <time>2022-08-27T15:06:29Z</time>
      </trkpt>
      <trkpt lat="42.2473600" lon="-8.2379580">
        <ele>773.4</ele>
        <time>2022-08-27T15:06:34Z</time>
      </trkpt>
      <trkpt lat="42.2473950" lon="-8.2379720">
        <ele>773.6</ele>
        <time>2022-08-27T15:06:36Z</time>
      </trkpt>
      <trkpt lat="42.2474970" lon="-8.2380190">
        <ele>774.4</ele>
        <time>2022-08-27T15:06:42Z</time>
      </trkpt>
      <trkpt lat="42.2475530" lon="-8.2380440">
        <ele>774.8</ele>
        <time>2022-08-27T15:06:45Z</time>
      </trkpt>
      <trkpt lat="42.2476050" lon="-8.2380680">
        <ele>775.4</ele>
        <time>2022-08-27T15:06:48Z</time>
      </trkpt>
      <trkpt lat="42.2476890" lon="-8.2381020">
        <ele>776.0</ele>
        <time>2022-08-27T15:06:53Z</time>
      </trkpt>
      <trkpt lat="42.2477390" lon="-8.2381290">
        <ele>776.4</ele>
        <time>2022-08-27T15:06:56Z</time>
      </trkpt>
      <trkpt lat="42.2478350" lon="-8.2381890">
        <ele>777.6</ele>
        <time>2022-08-27T15:07:02Z</time>
      </trkpt>
      <trkpt lat="42.2478520" lon="-8.2381980">
        <ele>777.6</ele>
        <time>2022-08-27T15:07:03Z</time>
      </trkpt>
      <trkpt lat="42.2479710" lon="-8.2382680">
        <ele>778.6</ele>
        <time>2022-08-27T15:07:10Z</time>
      </trkpt>
      <trkpt lat="42.2480350" lon="-8.2383130">
        <ele>779.0</ele>
        <time>2022-08-27T15:07:14Z</time>
      </trkpt>
      <trkpt lat="42.2481490" lon="-8.2383950">
        <ele>779.6</ele>
        <time>2022-08-27T15:07:19Z</time>
      </trkpt>
      <trkpt lat="42.2481750" lon="-8.2384160">
        <ele>779.8</ele>
        <time>2022-08-27T15:07:20Z</time>
      </trkpt>
      <trkpt lat="42.2484130" lon="-8.2386120">
        <ele>780.0</ele>
        <time>2022-08-27T15:07:28Z</time>
      </trkpt>
      <trkpt lat="42.2487120" lon="-8.2388510">
        <ele>779.2</ele>
        <time>2022-08-27T15:07:37Z</time>
      </trkpt>
      <trkpt lat="42.2490270" lon="-8.2391050">
        <ele>778.8</ele>
        <time>2022-08-27T15:07:45Z</time>
      </trkpt>
      <trkpt lat="42.2492840" lon="-8.2393030">
        <ele>778.8</ele>
        <time>2022-08-27T15:07:52Z</time>
      </trkpt>
      <trkpt lat="42.2496870" lon="-8.2396230">
        <ele>779.6</ele>
        <time>2022-08-27T15:08:04Z</time>
      </trkpt>
      <trkpt lat="42.2499730" lon="-8.2398520">
        <ele>780.0</ele>
        <time>2022-08-27T15:08:12Z</time>
      </trkpt>
      <trkpt lat="42.2503790" lon="-8.2401980">
        <ele>780.2</ele>
        <time>2022-08-27T15:08:23Z</time>
      </trkpt>
      <trkpt lat="42.2508440" lon="-8.2405680">
        <ele>780.0</ele>
        <time>2022-08-27T15:08:35Z</time>
      </trkpt>
      <trkpt lat="42.2509170" lon="-8.2406290">
        <ele>780.0</ele>
        <time>2022-08-27T15:08:37Z</time>
      </trkpt>
      <trkpt lat="42.2512500" lon="-8.2408900">
        <ele>780.6</ele>
        <time>2022-08-27T15:08:47Z</time>
      </trkpt>
      <trkpt lat="42.2512810" lon="-8.2409180">
        <ele>780.6</ele>
        <time>2022-08-27T15:08:48Z</time>
      </trkpt>
      <trkpt lat="42.2516550" lon="-8.2412140">
        <ele>781.6</ele>
        <time>2022-08-27T15:09:00Z</time>
      </trkpt>
      <trkpt lat="42.2518530" lon="-8.2413720">
        <ele>782.8</ele>
        <time>2022-08-27T15:09:07Z</time>
      </trkpt>
      <trkpt lat="42.2518790" lon="-8.2413900">
        <ele>783.0</ele>
        <time>2022-08-27T15:09:08Z</time>
      </trkpt>
      <trkpt lat="42.2520750" lon="-8.2415260">
        <ele>784.0</ele>
        <time>2022-08-27T15:09:16Z</time>
      </trkpt>
      <trkpt lat="42.2520990" lon="-8.2415440">
        <ele>784.2</ele>
        <time>2022-08-27T15:09:17Z</time>
      </trkpt>
      <trkpt lat="42.2522340" lon="-8.2416400">
        <ele>785.2</ele>
        <time>2022-08-27T15:09:22Z</time>
      </trkpt>
      <trkpt lat="42.2523170" lon="-8.2417190">
        <ele>785.6</ele>
        <time>2022-08-27T15:09:25Z</time>
      </trkpt>
      <trkpt lat="42.2525620" lon="-8.2420630">
        <ele>786.2</ele>
        <time>2022-08-27T15:09:35Z</time>
      </trkpt>
      <trkpt lat="42.2526010" lon="-8.2421360">
        <ele>786.2</ele>
        <time>2022-08-27T15:09:37Z</time>
      </trkpt>
      <trkpt lat="42.2527130" lon="-8.2423510">
        <ele>786.8</ele>
        <time>2022-08-27T15:09:43Z</time>
      </trkpt>
      <trkpt lat="42.2527790" lon="-8.2424860">
        <ele>787.4</ele>
        <time>2022-08-27T15:09:47Z</time>
      </trkpt>
      <trkpt lat="42.2528570" lon="-8.2426370">
        <ele>787.8</ele>
        <time>2022-08-27T15:09:52Z</time>
      </trkpt>
      <trkpt lat="42.2529240" lon="-8.2427790">
        <ele>788.4</ele>
        <time>2022-08-27T15:09:57Z</time>
      </trkpt>
      <trkpt lat="42.2529730" lon="-8.2429010">
        <ele>789.2</ele>
        <time>2022-08-27T15:10:01Z</time>
      </trkpt>
      <trkpt lat="42.2529970" lon="-8.2429720">
        <ele>789.6</ele>
        <time>2022-08-27T15:10:03Z</time>
      </trkpt>
      <trkpt lat="42.2530610" lon="-8.2431840">
        <ele>790.4</ele>
        <time>2022-08-27T15:10:08Z</time>
      </trkpt>
      <trkpt lat="42.2530840" lon="-8.2432990">
        <ele>790.6</ele>
        <time>2022-08-27T15:10:10Z</time>
      </trkpt>
      <trkpt lat="42.2530990" lon="-8.2433630">
        <ele>790.6</ele>
        <time>2022-08-27T15:10:11Z</time>
      </trkpt>
      <trkpt lat="42.2531220" lon="-8.2435130">
        <ele>790.6</ele>
        <time>2022-08-27T15:10:13Z</time>
      </trkpt>
      <trkpt lat="42.2530770" lon="-8.2437860">
        <ele>790.6</ele>
        <time>2022-08-27T15:10:16Z</time>
      </trkpt>
      <trkpt lat="42.2530030" lon="-8.2439870">
        <ele>790.2</ele>
        <time>2022-08-27T15:10:18Z</time>
      </trkpt>
      <trkpt lat="42.2529270" lon="-8.2442020">
        <ele>789.8</ele>
        <time>2022-08-27T15:10:20Z</time>
      </trkpt>
      <trkpt lat="42.2528950" lon="-8.2443150">
        <ele>789.2</ele>
        <time>2022-08-27T15:10:21Z</time>
      </trkpt>
      <trkpt lat="42.2528700" lon="-8.2445680">
        <ele>788.0</ele>
        <time>2022-08-27T15:10:23Z</time>
      </trkpt>
      <trkpt lat="42.2529120" lon="-8.2448170">
        <ele>786.2</ele>
        <time>2022-08-27T15:10:25Z</time>
      </trkpt>
      <trkpt lat="42.2529410" lon="-8.2449350">
        <ele>785.2</ele>
        <time>2022-08-27T15:10:26Z</time>
      </trkpt>
      <trkpt lat="42.2529690" lon="-8.2450470">
        <ele>784.6</ele>
        <time>2022-08-27T15:10:27Z</time>
      </trkpt>
      <trkpt lat="42.2530260" lon="-8.2452600">
        <ele>782.6</ele>
        <time>2022-08-27T15:10:29Z</time>
      </trkpt>
      <trkpt lat="42.2530570" lon="-8.2453610">
        <ele>781.4</ele>
        <time>2022-08-27T15:10:30Z</time>
      </trkpt>
      <trkpt lat="42.2530910" lon="-8.2454550">
        <ele>780.2</ele>
        <time>2022-08-27T15:10:31Z</time>
      </trkpt>
      <trkpt lat="42.2531300" lon="-8.2455380">
        <ele>779.2</ele>
        <time>2022-08-27T15:10:32Z</time>
      </trkpt>
      <trkpt lat="42.2531730" lon="-8.2456100">
        <ele>778.8</ele>
        <time>2022-08-27T15:10:33Z</time>
      </trkpt>
      <trkpt lat="42.2532970" lon="-8.2457490">
        <ele>778.2</ele>
        <time>2022-08-27T15:10:36Z</time>
      </trkpt>
      <trkpt lat="42.2533620" lon="-8.2457870">
        <ele>778.2</ele>
        <time>2022-08-27T15:10:38Z</time>
      </trkpt>
      <trkpt lat="42.2534110" lon="-8.2458160">
        <ele>778.2</ele>
        <time>2022-08-27T15:10:40Z</time>
      </trkpt>
      <trkpt lat="42.2535140" lon="-8.2458720">
        <ele>779.8</ele>
        <time>2022-08-27T15:10:45Z</time>
      </trkpt>
      <trkpt lat="42.2535770" lon="-8.2459220">
        <ele>781.2</ele>
        <time>2022-08-27T15:10:48Z</time>
      </trkpt>
      <trkpt lat="42.2536690" lon="-8.2459870">
        <ele>782.2</ele>
        <time>2022-08-27T15:10:52Z</time>
      </trkpt>
      <trkpt lat="42.2537330" lon="-8.2460460">
        <ele>782.8</ele>
        <time>2022-08-27T15:10:55Z</time>
      </trkpt>
      <trkpt lat="42.2538650" lon="-8.2461770">
        <ele>783.4</ele>
        <time>2022-08-27T15:11:01Z</time>
      </trkpt>
      <trkpt lat="42.2539080" lon="-8.2462330">
        <ele>784.0</ele>
        <time>2022-08-27T15:11:03Z</time>
      </trkpt>
      <trkpt lat="42.2539520" lon="-8.2462910">
        <ele>784.6</ele>
        <time>2022-08-27T15:11:05Z</time>
      </trkpt>
      <trkpt lat="42.2540690" lon="-8.2464840">
        <ele>785.0</ele>
        <time>2022-08-27T15:11:11Z</time>
      </trkpt>
      <trkpt lat="42.2541120" lon="-8.2465540">
        <ele>785.6</ele>
        <time>2022-08-27T15:11:13Z</time>
      </trkpt>
      <trkpt lat="42.2542270" lon="-8.2467160">
        <ele>786.0</ele>
        <time>2022-08-27T15:11:18Z</time>
      </trkpt>
      <trkpt lat="42.2542510" lon="-8.2467470">
        <ele>786.2</ele>
        <time>2022-08-27T15:11:19Z</time>
      </trkpt>
      <trkpt lat="42.2543650" lon="-8.2469170">
        <ele>786.6</ele>
        <time>2022-08-27T15:11:24Z</time>
      </trkpt>
      <trkpt lat="42.2544530" lon="-8.2470580">
        <ele>787.0</ele>
        <time>2022-08-27T15:11:28Z</time>
      </trkpt>
      <trkpt lat="42.2546230" lon="-8.2473400">
        <ele>787.6</ele>
        <time>2022-08-27T15:11:36Z</time>
      </trkpt>
      <trkpt lat="42.2546780" lon="-8.2474390">
        <ele>787.8</ele>
        <time>2022-08-27T15:11:39Z</time>
      </trkpt>
      <trkpt lat="42.2548320" lon="-8.2476810">
        <ele>788.4</ele>
        <time>2022-08-27T15:11:46Z</time>
      </trkpt>
      <trkpt lat="42.2548910" lon="-8.2477460">
        <ele>788.6</ele>
        <time>2022-08-27T15:11:48Z</time>
      </trkpt>
      <trkpt lat="42.2550530" lon="-8.2479220">
        <ele>788.8</ele>
        <time>2022-08-27T15:11:53Z</time>
      </trkpt>
      <trkpt lat="42.2553190" lon="-8.2482580">
        <ele>788.2</ele>
        <time>2022-08-27T15:12:00Z</time>
      </trkpt>
      <trkpt lat="42.2554540" lon="-8.2484380">
        <ele>787.4</ele>
        <time>2022-08-27T15:12:03Z</time>
      </trkpt>
      <trkpt lat="42.2555890" lon="-8.2486710">
        <ele>787.0</ele>
        <time>2022-08-27T15:12:06Z</time>
      </trkpt>
      <trkpt lat="42.2556500" lon="-8.2488690">
        <ele>786.2</ele>
        <time>2022-08-27T15:12:08Z</time>
      </trkpt>
      <trkpt lat="42.2556640" lon="-8.2489720">
        <ele>786.0</ele>
        <time>2022-08-27T15:12:09Z</time>
      </trkpt>
      <trkpt lat="42.2556730" lon="-8.2491690">
        <ele>785.2</ele>
        <time>2022-08-27T15:12:11Z</time>
      </trkpt>
      <trkpt lat="42.2556760" lon="-8.2494500">
        <ele>784.0</ele>
        <time>2022-08-27T15:12:14Z</time>
      </trkpt>
      <trkpt lat="42.2556800" lon="-8.2496670">
        <ele>782.6</ele>
        <time>2022-08-27T15:12:16Z</time>
      </trkpt>
      <trkpt lat="42.2557000" lon="-8.2498680">
        <ele>781.6</ele>
        <time>2022-08-27T15:12:18Z</time>
      </trkpt>
      <trkpt lat="42.2557200" lon="-8.2499580">
        <ele>780.4</ele>
        <time>2022-08-27T15:12:19Z</time>
      </trkpt>
      <trkpt lat="42.2557470" lon="-8.2500360">
        <ele>779.4</ele>
        <time>2022-08-27T15:12:20Z</time>
      </trkpt>
      <trkpt lat="42.2557790" lon="-8.2500990">
        <ele>778.2</ele>
        <time>2022-08-27T15:12:21Z</time>
      </trkpt>
      <trkpt lat="42.2558110" lon="-8.2501540">
        <ele>777.2</ele>
        <time>2022-08-27T15:12:22Z</time>
      </trkpt>
      <trkpt lat="42.2558450" lon="-8.2502040">
        <ele>776.4</ele>
        <time>2022-08-27T15:12:23Z</time>
      </trkpt>
      <trkpt lat="42.2559110" lon="-8.2502930">
        <ele>775.0</ele>
        <time>2022-08-27T15:12:25Z</time>
      </trkpt>
      <trkpt lat="42.2560250" lon="-8.2504540">
        <ele>774.6</ele>
        <time>2022-08-27T15:12:29Z</time>
      </trkpt>
      <trkpt lat="42.2561730" lon="-8.2506400">
        <ele>774.8</ele>
        <time>2022-08-27T15:12:35Z</time>
      </trkpt>
      <trkpt lat="42.2563330" lon="-8.2508330">
        <ele>775.6</ele>
        <time>2022-08-27T15:12:43Z</time>
      </trkpt>
      <trkpt lat="42.2563610" lon="-8.2508780">
        <ele>775.8</ele>
        <time>2022-08-27T15:12:45Z</time>
      </trkpt>
      <trkpt lat="42.2564140" lon="-8.2510450">
        <ele>776.8</ele>
        <time>2022-08-27T15:12:51Z</time>
      </trkpt>
      <trkpt lat="42.2564180" lon="-8.2510770">
        <ele>777.0</ele>
        <time>2022-08-27T15:12:52Z</time>
      </trkpt>
      <trkpt lat="42.2564320" lon="-8.2513040">
        <ele>778.0</ele>
        <time>2022-08-27T15:12:59Z</time>
      </trkpt>
      <trkpt lat="42.2565020" lon="-8.2516590">
        <ele>779.0</ele>
        <time>2022-08-27T15:13:10Z</time>
      </trkpt>
      <trkpt lat="42.2565250" lon="-8.2517250">
        <ele>779.0</ele>
        <time>2022-08-27T15:13:12Z</time>
      </trkpt>
      <trkpt lat="42.2565880" lon="-8.2518750">
        <ele>779.4</ele>
        <time>2022-08-27T15:13:17Z</time>
      </trkpt>
      <trkpt lat="42.2566620" lon="-8.2520590">
        <ele>780.0</ele>
        <time>2022-08-27T15:13:23Z</time>
      </trkpt>
      <trkpt lat="42.2566950" lon="-8.2521530">
        <ele>780.4</ele>
        <time>2022-08-27T15:13:26Z</time>
      </trkpt>
      <trkpt lat="42.2567940" lon="-8.2523680">
        <ele>780.6</ele>
        <time>2022-08-27T15:13:33Z</time>
      </trkpt>
      <trkpt lat="42.2568560" lon="-8.2524510">
        <ele>780.8</ele>
        <time>2022-08-27T15:13:36Z</time>
      </trkpt>
      <trkpt lat="42.2569440" lon="-8.2525380">
        <ele>781.0</ele>
        <time>2022-08-27T15:13:40Z</time>
      </trkpt>
      <trkpt lat="42.2569650" lon="-8.2525510">
        <ele>781.2</ele>
        <time>2022-08-27T15:13:41Z</time>
      </trkpt>
      <trkpt lat="42.2571140" lon="-8.2526760">
        <ele>781.6</ele>
        <time>2022-08-27T15:13:48Z</time>
      </trkpt>
      <trkpt lat="42.2572020" lon="-8.2527660">
        <ele>782.2</ele>
        <time>2022-08-27T15:13:52Z</time>
      </trkpt>
      <trkpt lat="42.2572900" lon="-8.2528650">
        <ele>782.4</ele>
        <time>2022-08-27T15:13:56Z</time>
      </trkpt>
      <trkpt lat="42.2574620" lon="-8.2530720">
        <ele>783.2</ele>
        <time>2022-08-27T15:14:04Z</time>
      </trkpt>
      <trkpt lat="42.2574840" lon="-8.2530990">
        <ele>783.2</ele>
        <time>2022-08-27T15:14:05Z</time>
      </trkpt>
      <trkpt lat="42.2576080" lon="-8.2532670">
        <ele>783.8</ele>
        <time>2022-08-27T15:14:11Z</time>
      </trkpt>
      <trkpt lat="42.2576650" lon="-8.2533570">
        <ele>784.2</ele>
        <time>2022-08-27T15:14:14Z</time>
      </trkpt>
      <trkpt lat="42.2578080" lon="-8.2535880">
        <ele>785.2</ele>
        <time>2022-08-27T15:14:21Z</time>
      </trkpt>
      <trkpt lat="42.2578490" lon="-8.2536580">
        <ele>785.4</ele>
        <time>2022-08-27T15:14:23Z</time>
      </trkpt>
      <trkpt lat="42.2579560" lon="-8.2538510">
        <ele>785.8</ele>
        <time>2022-08-27T15:14:29Z</time>
      </trkpt>
      <trkpt lat="42.2580610" lon="-8.2541390">
        <ele>786.2</ele>
        <time>2022-08-27T15:14:37Z</time>
      </trkpt>
      <trkpt lat="42.2580750" lon="-8.2541740">
        <ele>786.2</ele>
        <time>2022-08-27T15:14:38Z</time>
      </trkpt>
      <trkpt lat="42.2581560" lon="-8.2544070">
        <ele>786.8</ele>
        <time>2022-08-27T15:14:45Z</time>
      </trkpt>
      <trkpt lat="42.2581830" lon="-8.2545080">
        <ele>787.2</ele>
        <time>2022-08-27T15:14:48Z</time>
      </trkpt>
      <trkpt lat="42.2582150" lon="-8.2546190">
        <ele>787.6</ele>
        <time>2022-08-27T15:14:51Z</time>
      </trkpt>
      <trkpt lat="42.2583000" lon="-8.2548390">
        <ele>788.2</ele>
        <time>2022-08-27T15:14:57Z</time>
      </trkpt>
      <trkpt lat="42.2583430" lon="-8.2549160">
        <ele>788.4</ele>
        <time>2022-08-27T15:14:59Z</time>
      </trkpt>
      <trkpt lat="42.2585370" lon="-8.2551760">
        <ele>788.4</ele>
        <time>2022-08-27T15:15:06Z</time>
      </trkpt>
      <trkpt lat="42.2586650" lon="-8.2552720">
        <ele>788.4</ele>
        <time>2022-08-27T15:15:11Z</time>
      </trkpt>
      <trkpt lat="42.2588280" lon="-8.2553620">
        <ele>788.6</ele>
        <time>2022-08-27T15:15:19Z</time>
      </trkpt>
      <trkpt lat="42.2589060" lon="-8.2553950">
        <ele>789.4</ele>
        <time>2022-08-27T15:15:23Z</time>
      </trkpt>
      <trkpt lat="42.2590150" lon="-8.2554150">
        <ele>790.2</ele>
        <time>2022-08-27T15:15:29Z</time>
      </trkpt>
      <trkpt lat="42.2590530" lon="-8.2554180">
        <ele>790.4</ele>
        <time>2022-08-27T15:15:31Z</time>
      </trkpt>
      <trkpt lat="42.2591590" lon="-8.2554220">
        <ele>791.2</ele>
        <time>2022-08-27T15:15:37Z</time>
      </trkpt>
      <trkpt lat="42.2591920" lon="-8.2554200">
        <ele>792.0</ele>
        <time>2022-08-27T15:15:39Z</time>
      </trkpt>
      <trkpt lat="42.2592410" lon="-8.2554200">
        <ele>792.4</ele>
        <time>2022-08-27T15:15:42Z</time>
      </trkpt>
      <trkpt lat="42.2593350" lon="-8.2554280">
        <ele>793.4</ele>
        <time>2022-08-27T15:15:48Z</time>
      </trkpt>
      <trkpt lat="42.2594270" lon="-8.2554410">
        <ele>794.6</ele>
        <time>2022-08-27T15:15:54Z</time>
      </trkpt>
      <trkpt lat="42.2594990" lon="-8.2554600">
        <ele>795.2</ele>
        <time>2022-08-27T15:15:58Z</time>
      </trkpt>
      <trkpt lat="42.2595600" lon="-8.2554800">
        <ele>795.6</ele>
        <time>2022-08-27T15:16:01Z</time>
      </trkpt>
      <trkpt lat="42.2596840" lon="-8.2555160">
        <ele>796.4</ele>
        <time>2022-08-27T15:16:06Z</time>
      </trkpt>
      <trkpt lat="42.2597630" lon="-8.2555420">
        <ele>796.6</ele>
        <time>2022-08-27T15:16:09Z</time>
      </trkpt>
      <trkpt lat="42.2598710" lon="-8.2555870">
        <ele>797.0</ele>
        <time>2022-08-27T15:16:13Z</time>
      </trkpt>
      <trkpt lat="42.2601480" lon="-8.2556550">
        <ele>797.6</ele>
        <time>2022-08-27T15:16:23Z</time>
      </trkpt>
      <trkpt lat="42.2601990" lon="-8.2556690">
        <ele>797.6</ele>
        <time>2022-08-27T15:16:25Z</time>
      </trkpt>
      <trkpt lat="42.2603360" lon="-8.2557030">
        <ele>798.0</ele>
        <time>2022-08-27T15:16:31Z</time>
      </trkpt>
      <trkpt lat="42.2604520" lon="-8.2557330">
        <ele>798.6</ele>
        <time>2022-08-27T15:16:36Z</time>
      </trkpt>
      <trkpt lat="42.2604980" lon="-8.2557440">
        <ele>798.8</ele>
        <time>2022-08-27T15:16:38Z</time>
      </trkpt>
      <trkpt lat="42.2606310" lon="-8.2557750">
        <ele>799.6</ele>
        <time>2022-08-27T15:16:44Z</time>
      </trkpt>
      <trkpt lat="42.2606920" lon="-8.2557910">
        <ele>799.8</ele>
        <time>2022-08-27T15:16:47Z</time>
      </trkpt>
      <trkpt lat="42.2608660" lon="-8.2558410">
        <ele>800.6</ele>
        <time>2022-08-27T15:16:55Z</time>
      </trkpt>
      <trkpt lat="42.2608900" lon="-8.2558470">
        <ele>800.6</ele>
        <time>2022-08-27T15:16:56Z</time>
      </trkpt>
      <trkpt lat="42.2610540" lon="-8.2558890">
        <ele>801.4</ele>
        <time>2022-08-27T15:17:03Z</time>
      </trkpt>
      <trkpt lat="42.2611610" lon="-8.2559240">
        <ele>801.6</ele>
        <time>2022-08-27T15:17:08Z</time>
      </trkpt>
      <trkpt lat="42.2611810" lon="-8.2559270">
        <ele>801.8</ele>
        <time>2022-08-27T15:17:09Z</time>
      </trkpt>
      <trkpt lat="42.2613380" lon="-8.2559590">
        <ele>802.6</ele>
        <time>2022-08-27T15:17:17Z</time>
      </trkpt>
      <trkpt lat="42.2613550" lon="-8.2559670">
        <ele>802.8</ele>
        <time>2022-08-27T15:17:18Z</time>
      </trkpt>
      <trkpt lat="42.2614860" lon="-8.2560130">
        <ele>803.6</ele>
        <time>2022-08-27T15:17:26Z</time>
      </trkpt>
      <trkpt lat="42.2615320" lon="-8.2560310">
        <ele>803.8</ele>
        <time>2022-08-27T15:17:29Z</time>
      </trkpt>
      <trkpt lat="42.2616120" lon="-8.2560730">
        <ele>804.6</ele>
        <time>2022-08-27T15:17:34Z</time>
      </trkpt>
      <trkpt lat="42.2616410" lon="-8.2560910">
        <ele>805.0</ele>
        <time>2022-08-27T15:17:36Z</time>
      </trkpt>
      <trkpt lat="42.2617200" lon="-8.2561500">
        <ele>805.8</ele>
        <time>2022-08-27T15:17:42Z</time>
      </trkpt>
      <trkpt lat="42.2617400" lon="-8.2561720">
        <ele>806.0</ele>
        <time>2022-08-27T15:17:44Z</time>
      </trkpt>
      <trkpt lat="42.2617890" lon="-8.2562430">
        <ele>807.2</ele>
        <time>2022-08-27T15:17:51Z</time>
      </trkpt>
      <trkpt lat="42.2618110" lon="-8.2563170">
        <ele>808.2</ele>
        <time>2022-08-27T15:17:57Z</time>
      </trkpt>
      <trkpt lat="42.2618140" lon="-8.2563240">
        <ele>808.8</ele>
        <time>2022-08-27T15:17:58Z</time>
      </trkpt>
      <trkpt lat="42.2618150" lon="-8.2563630">
        <ele>809.2</ele>
        <time>2022-08-27T15:18:01Z</time>
      </trkpt>
      <trkpt lat="42.2618180" lon="-8.2563700">
        <ele>809.4</ele>
        <time>2022-08-27T15:18:02Z</time>
      </trkpt>
      <trkpt lat="42.2618190" lon="-8.2564000">
        <ele>810.0</ele>
        <time>2022-08-27T15:18:05Z</time>
      </trkpt>
      <trkpt lat="42.2618200" lon="-8.2564300">
        <ele>810.4</ele>
        <time>2022-08-27T15:18:08Z</time>
      </trkpt>
      <trkpt lat="42.2618140" lon="-8.2565210">
        <ele>811.2</ele>
        <time>2022-08-27T15:18:14Z</time>
      </trkpt>
      <trkpt lat="42.2618130" lon="-8.2565350">
        <ele>811.2</ele>
        <time>2022-08-27T15:18:15Z</time>
      </trkpt>
      <trkpt lat="42.2618100" lon="-8.2566190">
        <ele>812.6</ele>
        <time>2022-08-27T15:18:22Z</time>
      </trkpt>
      <trkpt lat="42.2618080" lon="-8.2566320">
        <ele>812.6</ele>
        <time>2022-08-27T15:18:23Z</time>
      </trkpt>
      <trkpt lat="42.2618020" lon="-8.2566940">
        <ele>813.4</ele>
        <time>2022-08-27T15:18:28Z</time>
      </trkpt>
      <trkpt lat="42.2617990" lon="-8.2567260">
        <ele>813.8</ele>
        <time>2022-08-27T15:18:31Z</time>
      </trkpt>
      <trkpt lat="42.2617990" lon="-8.2567640">
        <ele>814.6</ele>
        <time>2022-08-27T15:18:34Z</time>
      </trkpt>
      <trkpt lat="42.2618020" lon="-8.2568340">
        <ele>815.6</ele>
        <time>2022-08-27T15:18:40Z</time>
      </trkpt>
      <trkpt lat="42.2617990" lon="-8.2568600">
        <ele>815.8</ele>
        <time>2022-08-27T15:18:42Z</time>
      </trkpt>
      <trkpt lat="42.2617980" lon="-8.2569150">
        <ele>816.4</ele>
        <time>2022-08-27T15:18:46Z</time>
      </trkpt>
      <trkpt lat="42.2617960" lon="-8.2569280">
        <ele>816.8</ele>
        <time>2022-08-27T15:18:47Z</time>
      </trkpt>
      <trkpt lat="42.2617830" lon="-8.2570050">
        <ele>817.8</ele>
        <time>2022-08-27T15:18:53Z</time>
      </trkpt>
      <trkpt lat="42.2617790" lon="-8.2570450">
        <ele>818.6</ele>
        <time>2022-08-27T15:18:56Z</time>
      </trkpt>
      <trkpt lat="42.2617790" lon="-8.2570720">
        <ele>819.0</ele>
        <time>2022-08-27T15:18:58Z</time>
      </trkpt>
      <trkpt lat="42.2617850" lon="-8.2571560">
        <ele>820.0</ele>
        <time>2022-08-27T15:19:04Z</time>
      </trkpt>
      <trkpt lat="42.2617850" lon="-8.2571840">
        <ele>820.2</ele>
        <time>2022-08-27T15:19:06Z</time>
      </trkpt>
      <trkpt lat="42.2617720" lon="-8.2572670">
        <ele>821.0</ele>
        <time>2022-08-27T15:19:12Z</time>
      </trkpt>
      <trkpt lat="42.2617570" lon="-8.2573290">
        <ele>821.8</ele>
        <time>2022-08-27T15:19:17Z</time>
      </trkpt>
      <trkpt lat="42.2617510" lon="-8.2573550">
        <ele>822.2</ele>
        <time>2022-08-27T15:19:19Z</time>
      </trkpt>
      <trkpt lat="42.2617210" lon="-8.2574290">
        <ele>823.4</ele>
        <time>2022-08-27T15:19:25Z</time>
      </trkpt>
      <trkpt lat="42.2617110" lon="-8.2574530">
        <ele>823.8</ele>
        <time>2022-08-27T15:19:27Z</time>
      </trkpt>
      <trkpt lat="42.2616960" lon="-8.2574900">
        <ele>824.4</ele>
        <time>2022-08-27T15:19:30Z</time>
      </trkpt>
      <trkpt lat="42.2616530" lon="-8.2575910">
        <ele>825.4</ele>
        <time>2022-08-27T15:19:38Z</time>
      </trkpt>
      <trkpt lat="42.2616460" lon="-8.2576030">
        <ele>825.6</ele>
        <time>2022-08-27T15:19:39Z</time>
      </trkpt>
      <trkpt lat="42.2616040" lon="-8.2576740">
        <ele>826.6</ele>
        <time>2022-08-27T15:19:45Z</time>
      </trkpt>
      <trkpt lat="42.2615830" lon="-8.2577270">
        <ele>827.6</ele>
        <time>2022-08-27T15:19:49Z</time>
      </trkpt>
      <trkpt lat="42.2615730" lon="-8.2577540">
        <ele>828.0</ele>
        <time>2022-08-27T15:19:51Z</time>
      </trkpt>
      <trkpt lat="42.2615440" lon="-8.2578460">
        <ele>828.8</ele>
        <time>2022-08-27T15:19:58Z</time>
      </trkpt>
      <trkpt lat="42.2615360" lon="-8.2578710">
        <ele>829.2</ele>
        <time>2022-08-27T15:20:00Z</time>
      </trkpt>
      <trkpt lat="42.2615250" lon="-8.2579100">
        <ele>829.8</ele>
        <time>2022-08-27T15:20:03Z</time>
      </trkpt>
      <trkpt lat="42.2615040" lon="-8.2579880">
        <ele>830.8</ele>
        <time>2022-08-27T15:20:09Z</time>
      </trkpt>
      <trkpt lat="42.2615010" lon="-8.2580010">
        <ele>830.8</ele>
        <time>2022-08-27T15:20:10Z</time>
      </trkpt>
      <trkpt lat="42.2614820" lon="-8.2580750">
        <ele>831.8</ele>
        <time>2022-08-27T15:20:16Z</time>
      </trkpt>
      <trkpt lat="42.2614760" lon="-8.2581000">
        <ele>832.4</ele>
        <time>2022-08-27T15:20:18Z</time>
      </trkpt>
      <trkpt lat="42.2614660" lon="-8.2581370">
        <ele>832.8</ele>
        <time>2022-08-27T15:20:21Z</time>
      </trkpt>
      <trkpt lat="42.2614520" lon="-8.2581950">
        <ele>833.8</ele>
        <time>2022-08-27T15:20:26Z</time>
      </trkpt>
      <trkpt lat="42.2614510" lon="-8.2582060">
        <ele>834.0</ele>
        <time>2022-08-27T15:20:27Z</time>
      </trkpt>
      <trkpt lat="42.2614440" lon="-8.2582790">
        <ele>835.2</ele>
        <time>2022-08-27T15:20:33Z</time>
      </trkpt>
      <trkpt lat="42.2614310" lon="-8.2583300">
        <ele>836.0</ele>
        <time>2022-08-27T15:20:37Z</time>
      </trkpt>
      <trkpt lat="42.2614250" lon="-8.2583580">
        <ele>836.4</ele>
        <time>2022-08-27T15:20:39Z</time>
      </trkpt>
      <trkpt lat="42.2614180" lon="-8.2584330">
        <ele>837.8</ele>
        <time>2022-08-27T15:20:44Z</time>
      </trkpt>
      <trkpt lat="42.2614180" lon="-8.2584940">
        <ele>838.6</ele>
        <time>2022-08-27T15:20:48Z</time>
      </trkpt>
      <trkpt lat="42.2614210" lon="-8.2585100">
        <ele>838.8</ele>
        <time>2022-08-27T15:20:49Z</time>
      </trkpt>
      <trkpt lat="42.2614330" lon="-8.2585820">
        <ele>839.8</ele>
        <time>2022-08-27T15:20:54Z</time>
      </trkpt>
      <trkpt lat="42.2614440" lon="-8.2586270">
        <ele>840.2</ele>
        <time>2022-08-27T15:20:57Z</time>
      </trkpt>
      <trkpt lat="42.2614480" lon="-8.2586770">
        <ele>840.6</ele>
        <time>2022-08-27T15:21:00Z</time>
      </trkpt>
      <trkpt lat="42.2614670" lon="-8.2587730">
        <ele>841.4</ele>
        <time>2022-08-27T15:21:06Z</time>
      </trkpt>
      <trkpt lat="42.2614790" lon="-8.2588010">
        <ele>841.8</ele>
        <time>2022-08-27T15:21:08Z</time>
      </trkpt>
      <trkpt lat="42.2615090" lon="-8.2589040">
        <ele>842.8</ele>
        <time>2022-08-27T15:21:15Z</time>
      </trkpt>
      <trkpt lat="42.2615120" lon="-8.2589190">
        <ele>843.0</ele>
        <time>2022-08-27T15:21:16Z</time>
      </trkpt>
      <trkpt lat="42.2615460" lon="-8.2591120">
        <ele>844.0</ele>
        <time>2022-08-27T15:21:27Z</time>
      </trkpt>
      <trkpt lat="42.2615660" lon="-8.2592560">
        <ele>844.8</ele>
        <time>2022-08-27T15:21:35Z</time>
      </trkpt>
      <trkpt lat="42.2615720" lon="-8.2592890">
        <ele>845.0</ele>
        <time>2022-08-27T15:21:37Z</time>
      </trkpt>
      <trkpt lat="42.2615900" lon="-8.2594000">
        <ele>846.0</ele>
        <time>2022-08-27T15:21:44Z</time>
      </trkpt>
      <trkpt lat="42.2616110" lon="-8.2595090">
        <ele>847.0</ele>
        <time>2022-08-27T15:21:51Z</time>
      </trkpt>
      <trkpt lat="42.2616220" lon="-8.2595660">
        <ele>847.8</ele>
        <time>2022-08-27T15:21:55Z</time>
      </trkpt>
      <trkpt lat="42.2616290" lon="-8.2596110">
        <ele>848.2</ele>
        <time>2022-08-27T15:21:58Z</time>
      </trkpt>
      <trkpt lat="42.2616520" lon="-8.2597230">
        <ele>849.4</ele>
        <time>2022-08-27T15:22:06Z</time>
      </trkpt>
      <trkpt lat="42.2616700" lon="-8.2598150">
        <ele>850.4</ele>
        <time>2022-08-27T15:22:12Z</time>
      </trkpt>
      <trkpt lat="42.2616770" lon="-8.2598590">
        <ele>850.8</ele>
        <time>2022-08-27T15:22:15Z</time>
      </trkpt>
      <trkpt lat="42.2616860" lon="-8.2599130">
        <ele>851.4</ele>
        <time>2022-08-27T15:22:19Z</time>
      </trkpt>
      <trkpt lat="42.2616950" lon="-8.2599810">
        <ele>852.2</ele>
        <time>2022-08-27T15:22:24Z</time>
      </trkpt>
      <trkpt lat="42.2616970" lon="-8.2599950">
        <ele>852.4</ele>
        <time>2022-08-27T15:22:25Z</time>
      </trkpt>
      <trkpt lat="42.2617010" lon="-8.2600630">
        <ele>853.6</ele>
        <time>2022-08-27T15:22:30Z</time>
      </trkpt>
      <trkpt lat="42.2617020" lon="-8.2600910">
        <ele>854.0</ele>
        <time>2022-08-27T15:22:32Z</time>
      </trkpt>
      <trkpt lat="42.2617030" lon="-8.2601180">
        <ele>854.6</ele>
        <time>2022-08-27T15:22:34Z</time>
      </trkpt>
      <trkpt lat="42.2616940" lon="-8.2602190">
        <ele>855.6</ele>
        <time>2022-08-27T15:22:41Z</time>
      </trkpt>
      <trkpt lat="42.2616900" lon="-8.2602340">
        <ele>855.8</ele>
        <time>2022-08-27T15:22:42Z</time>
      </trkpt>
      <trkpt lat="42.2616690" lon="-8.2603250">
        <ele>856.6</ele>
        <time>2022-08-27T15:22:48Z</time>
      </trkpt>
      <trkpt lat="42.2616590" lon="-8.2603630">
        <ele>857.0</ele>
        <time>2022-08-27T15:22:51Z</time>
      </trkpt>
      <trkpt lat="42.2616350" lon="-8.2604410">
        <ele>857.8</ele>
        <time>2022-08-27T15:22:57Z</time>
      </trkpt>
      <trkpt lat="42.2616260" lon="-8.2604840">
        <ele>858.2</ele>
        <time>2022-08-27T15:23:00Z</time>
      </trkpt>
      <trkpt lat="42.2616170" lon="-8.2605120">
        <ele>858.8</ele>
        <time>2022-08-27T15:23:02Z</time>
      </trkpt>
      <trkpt lat="42.2615780" lon="-8.2606190">
        <ele>860.0</ele>
        <time>2022-08-27T15:23:10Z</time>
      </trkpt>
      <trkpt lat="42.2615410" lon="-8.2607210">
        <ele>861.0</ele>
        <time>2022-08-27T15:23:18Z</time>
      </trkpt>
      <trkpt lat="42.2615210" lon="-8.2607760">
        <ele>861.6</ele>
        <time>2022-08-27T15:23:22Z</time>
      </trkpt>
      <trkpt lat="42.2615050" lon="-8.2608190">
        <ele>862.0</ele>
        <time>2022-08-27T15:23:25Z</time>
      </trkpt>
      <trkpt lat="42.2614740" lon="-8.2609010">
        <ele>863.0</ele>
        <time>2022-08-27T15:23:31Z</time>
      </trkpt>
      <trkpt lat="42.2614570" lon="-8.2609400">
        <ele>863.4</ele>
        <time>2022-08-27T15:23:34Z</time>
      </trkpt>
      <trkpt lat="42.2614240" lon="-8.2609980">
        <ele>864.2</ele>
        <time>2022-08-27T15:23:39Z</time>
      </trkpt>
      <trkpt lat="42.2614030" lon="-8.2610470">
        <ele>864.6</ele>
        <time>2022-08-27T15:23:43Z</time>
      </trkpt>
      <trkpt lat="42.2613850" lon="-8.2610820">
        <ele>865.2</ele>
        <time>2022-08-27T15:23:46Z</time>
      </trkpt>
      <trkpt lat="42.2613460" lon="-8.2611640">
        <ele>866.0</ele>
        <time>2022-08-27T15:23:53Z</time>
      </trkpt>
      <trkpt lat="42.2613390" lon="-8.2611750">
        <ele>866.2</ele>
        <time>2022-08-27T15:23:54Z</time>
      </trkpt>
      <trkpt lat="42.2613180" lon="-8.2612080">
        <ele>866.8</ele>
        <time>2022-08-27T15:23:57Z</time>
      </trkpt>
      <trkpt lat="42.2612990" lon="-8.2612430">
        <ele>867.2</ele>
        <time>2022-08-27T15:24:00Z</time>
      </trkpt>
      <trkpt lat="42.2612710" lon="-8.2612850">
        <ele>868.0</ele>
        <time>2022-08-27T15:24:04Z</time>
      </trkpt>
      <trkpt lat="42.2612550" lon="-8.2613050">
        <ele>868.4</ele>
        <time>2022-08-27T15:24:06Z</time>
      </trkpt>
      <trkpt lat="42.2611860" lon="-8.2613790">
        <ele>869.2</ele>
        <time>2022-08-27T15:24:14Z</time>
      </trkpt>
      <trkpt lat="42.2611770" lon="-8.2613880">
        <ele>869.2</ele>
        <time>2022-08-27T15:24:15Z</time>
      </trkpt>
      <trkpt lat="42.2611200" lon="-8.2614370">
        <ele>870.2</ele>
        <time>2022-08-27T15:24:21Z</time>
      </trkpt>
      <trkpt lat="42.2611010" lon="-8.2614490">
        <ele>870.8</ele>
        <time>2022-08-27T15:24:23Z</time>
      </trkpt>
      <trkpt lat="42.2610510" lon="-8.2614790">
        <ele>871.4</ele>
        <time>2022-08-27T15:24:28Z</time>
      </trkpt>
      <trkpt lat="42.2610030" lon="-8.2614940">
        <ele>872.0</ele>
        <time>2022-08-27T15:24:32Z</time>
      </trkpt>
      <trkpt lat="42.2609420" lon="-8.2615120">
        <ele>872.6</ele>
        <time>2022-08-27T15:24:37Z</time>
      </trkpt>
      <trkpt lat="42.2608730" lon="-8.2615480">
        <ele>873.2</ele>
        <time>2022-08-27T15:24:43Z</time>
      </trkpt>
      <trkpt lat="42.2608350" lon="-8.2615690">
        <ele>873.6</ele>
        <time>2022-08-27T15:24:46Z</time>
      </trkpt>
      <trkpt lat="42.2607490" lon="-8.2616080">
        <ele>874.6</ele>
        <time>2022-08-27T15:24:52Z</time>
      </trkpt>
      <trkpt lat="42.2607360" lon="-8.2616190">
        <ele>874.6</ele>
        <time>2022-08-27T15:24:53Z</time>
      </trkpt>
      <trkpt lat="42.2606330" lon="-8.2617250">
        <ele>875.6</ele>
        <time>2022-08-27T15:25:02Z</time>
      </trkpt>
      <trkpt lat="42.2606230" lon="-8.2617390">
        <ele>875.8</ele>
        <time>2022-08-27T15:25:03Z</time>
      </trkpt>
      <trkpt lat="42.2605530" lon="-8.2618360">
        <ele>876.8</ele>
        <time>2022-08-27T15:25:10Z</time>
      </trkpt>
      <trkpt lat="42.2605430" lon="-8.2618510">
        <ele>877.0</ele>
        <time>2022-08-27T15:25:11Z</time>
      </trkpt>
      <trkpt lat="42.2604970" lon="-8.2619230">
        <ele>877.8</ele>
        <time>2022-08-27T15:25:16Z</time>
      </trkpt>
      <trkpt lat="42.2604210" lon="-8.2619950">
        <ele>878.8</ele>
        <time>2022-08-27T15:25:22Z</time>
      </trkpt>
      <trkpt lat="42.2604080" lon="-8.2620060">
        <ele>879.0</ele>
        <time>2022-08-27T15:25:23Z</time>
      </trkpt>
      <trkpt lat="42.2603080" lon="-8.2620450">
        <ele>880.0</ele>
        <time>2022-08-27T15:25:30Z</time>
      </trkpt>
      <trkpt lat="42.2602940" lon="-8.2620480">
        <ele>880.2</ele>
        <time>2022-08-27T15:25:31Z</time>
      </trkpt>
      <trkpt lat="42.2601650" lon="-8.2620470">
        <ele>880.8</ele>
        <time>2022-08-27T15:25:39Z</time>
      </trkpt>
      <trkpt lat="42.2600830" lon="-8.2620460">
        <ele>881.2</ele>
        <time>2022-08-27T15:25:43Z</time>
      </trkpt>
      <trkpt lat="42.2600050" lon="-8.2620500">
        <ele>881.2</ele>
        <time>2022-08-27T15:25:46Z</time>
      </trkpt>
      <trkpt lat="42.2598470" lon="-8.2621230">
        <ele>881.6</ele>
        <time>2022-08-27T15:25:52Z</time>
      </trkpt>
      <trkpt lat="42.2596540" lon="-8.2623390">
        <ele>881.8</ele>
        <time>2022-08-27T15:26:02Z</time>
      </trkpt>
      <trkpt lat="42.2596190" lon="-8.2623930">
        <ele>882.0</ele>
        <time>2022-08-27T15:26:05Z</time>
      </trkpt>
      <trkpt lat="42.2595540" lon="-8.2624890">
        <ele>882.8</ele>
        <time>2022-08-27T15:26:11Z</time>
      </trkpt>
      <trkpt lat="42.2595450" lon="-8.2625030">
        <ele>883.0</ele>
        <time>2022-08-27T15:26:12Z</time>
      </trkpt>
      <trkpt lat="42.2595060" lon="-8.2625610">
        <ele>884.2</ele>
        <time>2022-08-27T15:26:16Z</time>
      </trkpt>
      <trkpt lat="42.2594540" lon="-8.2626470">
        <ele>885.0</ele>
        <time>2022-08-27T15:26:22Z</time>
      </trkpt>
      <trkpt lat="42.2594280" lon="-8.2626870">
        <ele>885.4</ele>
        <time>2022-08-27T15:26:25Z</time>
      </trkpt>
      <trkpt lat="42.2593810" lon="-8.2627610">
        <ele>886.0</ele>
        <time>2022-08-27T15:26:31Z</time>
      </trkpt>
      <trkpt lat="42.2593730" lon="-8.2627740">
        <ele>886.4</ele>
        <time>2022-08-27T15:26:32Z</time>
      </trkpt>
      <trkpt lat="42.2593210" lon="-8.2628530">
        <ele>887.2</ele>
        <time>2022-08-27T15:26:39Z</time>
      </trkpt>
      <trkpt lat="42.2593140" lon="-8.2628660">
        <ele>887.4</ele>
        <time>2022-08-27T15:26:40Z</time>
      </trkpt>
      <trkpt lat="42.2592760" lon="-8.2629400">
        <ele>888.4</ele>
        <time>2022-08-27T15:26:47Z</time>
      </trkpt>
      <trkpt lat="42.2592680" lon="-8.2629480">
        <ele>888.4</ele>
        <time>2022-08-27T15:26:48Z</time>
      </trkpt>
      <trkpt lat="42.2592120" lon="-8.2630170">
        <ele>889.6</ele>
        <time>2022-08-27T15:26:55Z</time>
      </trkpt>
      <trkpt lat="42.2592040" lon="-8.2630290">
        <ele>889.6</ele>
        <time>2022-08-27T15:26:56Z</time>
      </trkpt>
      <trkpt lat="42.2591740" lon="-8.2631030">
        <ele>890.6</ele>
        <time>2022-08-27T15:27:02Z</time>
      </trkpt>
      <trkpt lat="42.2591670" lon="-8.2631460">
        <ele>891.4</ele>
        <time>2022-08-27T15:27:05Z</time>
      </trkpt>
      <trkpt lat="42.2591680" lon="-8.2631910">
        <ele>891.8</ele>
        <time>2022-08-27T15:27:08Z</time>
      </trkpt>
      <trkpt lat="42.2591810" lon="-8.2632550">
        <ele>893.0</ele>
        <time>2022-08-27T15:27:13Z</time>
      </trkpt>
      <trkpt lat="42.2591850" lon="-8.2632670">
        <ele>893.2</ele>
        <time>2022-08-27T15:27:14Z</time>
      </trkpt>
      <trkpt lat="42.2592150" lon="-8.2633230">
        <ele>894.0</ele>
        <time>2022-08-27T15:27:19Z</time>
      </trkpt>
      <trkpt lat="42.2592230" lon="-8.2633310">
        <ele>894.2</ele>
        <time>2022-08-27T15:27:20Z</time>
      </trkpt>
      <trkpt lat="42.2592540" lon="-8.2633640">
        <ele>895.2</ele>
        <time>2022-08-27T15:27:25Z</time>
      </trkpt>
      <trkpt lat="42.2592840" lon="-8.2633910">
        <ele>895.8</ele>
        <time>2022-08-27T15:27:29Z</time>
      </trkpt>
      <trkpt lat="42.2592880" lon="-8.2633960">
        <ele>896.0</ele>
        <time>2022-08-27T15:27:30Z</time>
      </trkpt>
      <trkpt lat="42.2593030" lon="-8.2634180">
        <ele>896.8</ele>
        <time>2022-08-27T15:27:34Z</time>
      </trkpt>
      <trkpt lat="42.2597630" lon="-8.2638920">
        <ele>909.2</ele>
        <time>2022-08-27T15:29:19Z</time>
      </trkpt>
      <trkpt lat="42.2598780" lon="-8.2640310">
        <ele>909.8</ele>
        <time>2022-08-27T15:29:29Z</time>
      </trkpt>
      <trkpt lat="42.2599210" lon="-8.2640830">
        <ele>910.4</ele>
        <time>2022-08-27T15:29:33Z</time>
      </trkpt>
      <trkpt lat="42.2599660" lon="-8.2641330">
        <ele>911.2</ele>
        <time>2022-08-27T15:29:37Z</time>
      </trkpt>
      <trkpt lat="42.2599750" lon="-8.2641460">
        <ele>911.4</ele>
        <time>2022-08-27T15:29:38Z</time>
      </trkpt>
      <trkpt lat="42.2600670" lon="-8.2642270">
        <ele>912.2</ele>
        <time>2022-08-27T15:29:46Z</time>
      </trkpt>
      <trkpt lat="42.2600870" lon="-8.2642450">
        <ele>912.4</ele>
        <time>2022-08-27T15:29:48Z</time>
      </trkpt>
      <trkpt lat="42.2601390" lon="-8.2642860">
        <ele>913.4</ele>
        <time>2022-08-27T15:29:53Z</time>
      </trkpt>
      <trkpt lat="42.2601700" lon="-8.2643150">
        <ele>913.8</ele>
        <time>2022-08-27T15:29:56Z</time>
      </trkpt>
      <trkpt lat="42.2602230" lon="-8.2643610">
        <ele>914.6</ele>
        <time>2022-08-27T15:30:01Z</time>
      </trkpt>
      <trkpt lat="42.2602830" lon="-8.2644090">
        <ele>915.8</ele>
        <time>2022-08-27T15:30:07Z</time>
      </trkpt>
      <trkpt lat="42.2603710" lon="-8.2645080">
        <ele>916.8</ele>
        <time>2022-08-27T15:30:17Z</time>
      </trkpt>
      <trkpt lat="42.2603780" lon="-8.2645170">
        <ele>917.0</ele>
        <time>2022-08-27T15:30:18Z</time>
      </trkpt>
      <trkpt lat="42.2604170" lon="-8.2645610">
        <ele>917.8</ele>
        <time>2022-08-27T15:30:23Z</time>
      </trkpt>
      <trkpt lat="42.2604510" lon="-8.2646110">
        <ele>918.2</ele>
        <time>2022-08-27T15:30:28Z</time>
      </trkpt>
      <trkpt lat="42.2604680" lon="-8.2646430">
        <ele>918.6</ele>
        <time>2022-08-27T15:30:31Z</time>
      </trkpt>
      <trkpt lat="42.2605010" lon="-8.2646880">
        <ele>919.6</ele>
        <time>2022-08-27T15:30:36Z</time>
      </trkpt>
      <trkpt lat="42.2605070" lon="-8.2646980">
        <ele>919.8</ele>
        <time>2022-08-27T15:30:37Z</time>
      </trkpt>
      <trkpt lat="42.2605310" lon="-8.2647530">
        <ele>920.6</ele>
        <time>2022-08-27T15:30:42Z</time>
      </trkpt>
      <trkpt lat="42.2605290" lon="-8.2647670">
        <ele>920.8</ele>
        <time>2022-08-27T15:30:43Z</time>
      </trkpt>
      <trkpt lat="42.2605150" lon="-8.2647980">
        <ele>921.0</ele>
        <time>2022-08-27T15:30:45Z</time>
      </trkpt>
      <trkpt lat="42.2604700" lon="-8.2648310">
        <ele>922.0</ele>
        <time>2022-08-27T15:30:49Z</time>
      </trkpt>
      <trkpt lat="42.2604470" lon="-8.2648350">
        <ele>922.4</ele>
        <time>2022-08-27T15:30:51Z</time>
      </trkpt>
      <trkpt lat="42.2604140" lon="-8.2648410">
        <ele>923.0</ele>
        <time>2022-08-27T15:30:54Z</time>
      </trkpt>
      <trkpt lat="42.2603560" lon="-8.2648330">
        <ele>923.8</ele>
        <time>2022-08-27T15:30:59Z</time>
      </trkpt>
      <trkpt lat="42.2603450" lon="-8.2648290">
        <ele>924.2</ele>
        <time>2022-08-27T15:31:00Z</time>
      </trkpt>
      <trkpt lat="42.2602630" lon="-8.2647910">
        <ele>925.2</ele>
        <time>2022-08-27T15:31:07Z</time>
      </trkpt>
      <trkpt lat="42.2602270" lon="-8.2647700">
        <ele>925.6</ele>
        <time>2022-08-27T15:31:10Z</time>
      </trkpt>
      <trkpt lat="42.2601620" lon="-8.2647500">
        <ele>926.4</ele>
        <time>2022-08-27T15:31:15Z</time>
      </trkpt>
      <trkpt lat="42.2601220" lon="-8.2647320">
        <ele>926.6</ele>
        <time>2022-08-27T15:31:18Z</time>
      </trkpt>
      <trkpt lat="42.2600530" lon="-8.2646950">
        <ele>927.4</ele>
        <time>2022-08-27T15:31:23Z</time>
      </trkpt>
      <trkpt lat="42.2600380" lon="-8.2646900">
        <ele>927.6</ele>
        <time>2022-08-27T15:31:24Z</time>
      </trkpt>
      <trkpt lat="42.2599840" lon="-8.2646690">
        <ele>927.6</ele>
        <time>2022-08-27T15:31:28Z</time>
      </trkpt>
      <trkpt lat="42.2598870" lon="-8.2646580">
        <ele>928.4</ele>
        <time>2022-08-27T15:31:36Z</time>
      </trkpt>
      <trkpt lat="42.2598670" lon="-8.2647010">
        <ele>928.8</ele>
        <time>2022-08-27T15:31:39Z</time>
      </trkpt>
      <trkpt lat="42.2598740" lon="-8.2647500">
        <ele>929.2</ele>
        <time>2022-08-27T15:31:42Z</time>
      </trkpt>
      <trkpt lat="42.2598930" lon="-8.2647770">
        <ele>929.6</ele>
        <time>2022-08-27T15:31:44Z</time>
      </trkpt>
      <trkpt lat="42.2599030" lon="-8.2647880">
        <ele>929.6</ele>
        <time>2022-08-27T15:31:45Z</time>
      </trkpt>
      <trkpt lat="42.2599470" lon="-8.2648380">
        <ele>930.6</ele>
        <time>2022-08-27T15:31:50Z</time>
      </trkpt>
      <trkpt lat="42.2599990" lon="-8.2649000">
        <ele>931.8</ele>
        <time>2022-08-27T15:31:56Z</time>
      </trkpt>
      <trkpt lat="42.2600350" lon="-8.2649390">
        <ele>932.6</ele>
        <time>2022-08-27T15:32:00Z</time>
      </trkpt>
      <trkpt lat="42.2600550" lon="-8.2649610">
        <ele>933.0</ele>
        <time>2022-08-27T15:32:02Z</time>
      </trkpt>
      <trkpt lat="42.2601150" lon="-8.2650200">
        <ele>934.0</ele>
        <time>2022-08-27T15:32:08Z</time>
      </trkpt>
      <trkpt lat="42.2601270" lon="-8.2650270">
        <ele>934.2</ele>
        <time>2022-08-27T15:32:09Z</time>
      </trkpt>
      <trkpt lat="42.2601830" lon="-8.2650740">
        <ele>935.0</ele>
        <time>2022-08-27T15:32:14Z</time>
      </trkpt>
      <trkpt lat="42.2602320" lon="-8.2651170">
        <ele>935.8</ele>
        <time>2022-08-27T15:32:18Z</time>
      </trkpt>
      <trkpt lat="42.2602780" lon="-8.2651510">
        <ele>936.2</ele>
        <time>2022-08-27T15:32:21Z</time>
      </trkpt>
      <trkpt lat="42.2603620" lon="-8.2652210">
        <ele>936.6</ele>
        <time>2022-08-27T15:32:25Z</time>
      </trkpt>
      <trkpt lat="42.2605140" lon="-8.2653470">
        <ele>937.2</ele>
        <time>2022-08-27T15:32:31Z</time>
      </trkpt>
      <trkpt lat="42.2605510" lon="-8.2653910">
        <ele>937.2</ele>
        <time>2022-08-27T15:32:33Z</time>
      </trkpt>
      <trkpt lat="42.2606450" lon="-8.2655070">
        <ele>937.6</ele>
        <time>2022-08-27T15:32:40Z</time>
      </trkpt>
      <trkpt lat="42.2606760" lon="-8.2655460">
        <ele>938.2</ele>
        <time>2022-08-27T15:32:43Z</time>
      </trkpt>
      <trkpt lat="42.2607330" lon="-8.2656000">
        <ele>939.4</ele>
        <time>2022-08-27T15:32:49Z</time>
      </trkpt>
      <trkpt lat="42.2607890" lon="-8.2656490">
        <ele>940.6</ele>
        <time>2022-08-27T15:32:55Z</time>
      </trkpt>
      <trkpt lat="42.2608240" lon="-8.2656810">
        <ele>941.2</ele>
        <time>2022-08-27T15:32:59Z</time>
      </trkpt>
      <trkpt lat="42.2608420" lon="-8.2656960">
        <ele>941.4</ele>
        <time>2022-08-27T15:33:01Z</time>
      </trkpt>
      <trkpt lat="42.2608850" lon="-8.2657360">
        <ele>942.6</ele>
        <time>2022-08-27T15:33:06Z</time>
      </trkpt>
      <trkpt lat="42.2609030" lon="-8.2657540">
        <ele>943.0</ele>
        <time>2022-08-27T15:33:08Z</time>
      </trkpt>
      <trkpt lat="42.2609350" lon="-8.2657800">
        <ele>943.8</ele>
        <time>2022-08-27T15:33:11Z</time>
      </trkpt>
      <trkpt lat="42.2609920" lon="-8.2658310">
        <ele>945.0</ele>
        <time>2022-08-27T15:33:16Z</time>
      </trkpt>
      <trkpt lat="42.2610150" lon="-8.2658490">
        <ele>945.2</ele>
        <time>2022-08-27T15:33:18Z</time>
      </trkpt>
      <trkpt lat="42.2611220" lon="-8.2659380">
        <ele>946.2</ele>
        <time>2022-08-27T15:33:25Z</time>
      </trkpt>
      <trkpt lat="42.2612730" lon="-8.2661320">
        <ele>946.8</ele>
        <time>2022-08-27T15:33:32Z</time>
      </trkpt>
      <trkpt lat="42.2613440" lon="-8.2663460">
        <ele>946.8</ele>
        <time>2022-08-27T15:33:39Z</time>
      </trkpt>
      <trkpt lat="42.2613430" lon="-8.2666410">
        <ele>947.0</ele>
        <time>2022-08-27T15:33:50Z</time>
      </trkpt>
      <trkpt lat="42.2613370" lon="-8.2666830">
        <ele>947.2</ele>
        <time>2022-08-27T15:33:52Z</time>
      </trkpt>
      <trkpt lat="42.2613230" lon="-8.2667890">
        <ele>948.2</ele>
        <time>2022-08-27T15:33:58Z</time>
      </trkpt>
      <trkpt lat="42.2613220" lon="-8.2668010">
        <ele>948.4</ele>
        <time>2022-08-27T15:33:59Z</time>
      </trkpt>
      <trkpt lat="42.2613150" lon="-8.2668500">
        <ele>948.8</ele>
        <time>2022-08-27T15:34:03Z</time>
      </trkpt>
      <trkpt lat="42.2613100" lon="-8.2668960">
        <ele>949.2</ele>
        <time>2022-08-27T15:34:06Z</time>
      </trkpt>
      <trkpt lat="42.2613110" lon="-8.2669090">
        <ele>949.4</ele>
        <time>2022-08-27T15:34:07Z</time>
      </trkpt>
      <trkpt lat="42.2612930" lon="-8.2669980">
        <ele>950.6</ele>
        <time>2022-08-27T15:34:13Z</time>
      </trkpt>
      <trkpt lat="42.2612870" lon="-8.2670260">
        <ele>951.0</ele>
        <time>2022-08-27T15:34:15Z</time>
      </trkpt>
      <trkpt lat="42.2612760" lon="-8.2671000">
        <ele>951.4</ele>
        <time>2022-08-27T15:34:20Z</time>
      </trkpt>
      <trkpt lat="42.2612600" lon="-8.2671940">
        <ele>952.4</ele>
        <time>2022-08-27T15:34:26Z</time>
      </trkpt>
      <trkpt lat="42.2612540" lon="-8.2672510">
        <ele>953.6</ele>
        <time>2022-08-27T15:34:30Z</time>
      </trkpt>
      <trkpt lat="42.2612450" lon="-8.2673270">
        <ele>954.4</ele>
        <time>2022-08-27T15:34:35Z</time>
      </trkpt>
      <trkpt lat="42.2612420" lon="-8.2673730">
        <ele>954.8</ele>
        <time>2022-08-27T15:34:38Z</time>
      </trkpt>
      <trkpt lat="42.2612380" lon="-8.2674540">
        <ele>955.8</ele>
        <time>2022-08-27T15:34:43Z</time>
      </trkpt>
      <trkpt lat="42.2612380" lon="-8.2674890">
        <ele>956.2</ele>
        <time>2022-08-27T15:34:45Z</time>
      </trkpt>
      <trkpt lat="42.2612300" lon="-8.2675530">
        <ele>956.8</ele>
        <time>2022-08-27T15:34:49Z</time>
      </trkpt>
      <trkpt lat="42.2612000" lon="-8.2676420">
        <ele>957.8</ele>
        <time>2022-08-27T15:34:55Z</time>
      </trkpt>
      <trkpt lat="42.2611430" lon="-8.2677910">
        <ele>958.8</ele>
        <time>2022-08-27T15:35:04Z</time>
      </trkpt>
      <trkpt lat="42.2611340" lon="-8.2678090">
        <ele>959.0</ele>
        <time>2022-08-27T15:35:05Z</time>
      </trkpt>
      <trkpt lat="42.2610380" lon="-8.2679680">
        <ele>959.6</ele>
        <time>2022-08-27T15:35:14Z</time>
      </trkpt>
      <trkpt lat="42.2610180" lon="-8.2680030">
        <ele>959.8</ele>
        <time>2022-08-27T15:35:16Z</time>
      </trkpt>
      <trkpt lat="42.2609650" lon="-8.2681150">
        <ele>960.2</ele>
        <time>2022-08-27T15:35:22Z</time>
      </trkpt>
      <trkpt lat="42.2608810" lon="-8.2682340">
        <ele>960.8</ele>
        <time>2022-08-27T15:35:29Z</time>
      </trkpt>
      <trkpt lat="42.2608560" lon="-8.2682660">
        <ele>961.2</ele>
        <time>2022-08-27T15:35:31Z</time>
      </trkpt>
      <trkpt lat="42.2607450" lon="-8.2684140">
        <ele>961.8</ele>
        <time>2022-08-27T15:35:40Z</time>
      </trkpt>
      <trkpt lat="42.2607010" lon="-8.2684620">
        <ele>962.0</ele>
        <time>2022-08-27T15:35:43Z</time>
      </trkpt>
      <trkpt lat="42.2605840" lon="-8.2685710">
        <ele>962.6</ele>
        <time>2022-08-27T15:35:51Z</time>
      </trkpt>
      <trkpt lat="42.2605700" lon="-8.2685800">
        <ele>962.6</ele>
        <time>2022-08-27T15:35:52Z</time>
      </trkpt>
      <trkpt lat="42.2604870" lon="-8.2686130">
        <ele>963.4</ele>
        <time>2022-08-27T15:35:59Z</time>
      </trkpt>
      <trkpt lat="42.2604610" lon="-8.2686180">
        <ele>963.8</ele>
        <time>2022-08-27T15:36:01Z</time>
      </trkpt>
      <trkpt lat="42.2603760" lon="-8.2686050">
        <ele>965.0</ele>
        <time>2022-08-27T15:36:07Z</time>
      </trkpt>
      <trkpt lat="42.2602970" lon="-8.2685820">
        <ele>966.0</ele>
        <time>2022-08-27T15:36:13Z</time>
      </trkpt>
      <trkpt lat="42.2602680" lon="-8.2685840">
        <ele>966.2</ele>
        <time>2022-08-27T15:36:15Z</time>
      </trkpt>
      <trkpt lat="42.2601870" lon="-8.2685840">
        <ele>967.2</ele>
        <time>2022-08-27T15:36:21Z</time>
      </trkpt>
      <trkpt lat="42.2601360" lon="-8.2685960">
        <ele>967.8</ele>
        <time>2022-08-27T15:36:25Z</time>
      </trkpt>
      <trkpt lat="42.2600690" lon="-8.2686640">
        <ele>968.4</ele>
        <time>2022-08-27T15:36:32Z</time>
      </trkpt>
      <trkpt lat="42.2600520" lon="-8.2687550">
        <ele>969.2</ele>
        <time>2022-08-27T15:36:37Z</time>
      </trkpt>
      <trkpt lat="42.2600440" lon="-8.2688400">
        <ele>969.6</ele>
        <time>2022-08-27T15:36:41Z</time>
      </trkpt>
      <trkpt lat="42.2600540" lon="-8.2689230">
        <ele>969.6</ele>
        <time>2022-08-27T15:36:46Z</time>
      </trkpt>
      <trkpt lat="42.2600650" lon="-8.2689600">
        <ele>969.4</ele>
        <time>2022-08-27T15:37:29Z</time>
      </trkpt>
      <trkpt lat="42.2600960" lon="-8.2690160">
        <ele>969.4</ele>
        <time>2022-08-27T15:37:31Z</time>
      </trkpt>
      <trkpt lat="42.2602190" lon="-8.2692430">
        <ele>969.4</ele>
        <time>2022-08-27T15:37:36Z</time>
      </trkpt>
      <trkpt lat="42.2602960" lon="-8.2694150">
        <ele>968.8</ele>
        <time>2022-08-27T15:37:39Z</time>
      </trkpt>
      <trkpt lat="42.2603220" lon="-8.2695320">
        <ele>968.2</ele>
        <time>2022-08-27T15:37:41Z</time>
      </trkpt>
      <trkpt lat="42.2603530" lon="-8.2697670">
        <ele>967.2</ele>
        <time>2022-08-27T15:37:46Z</time>
      </trkpt>
      <trkpt lat="42.2603580" lon="-8.2698060">
        <ele>967.0</ele>
        <time>2022-08-27T15:37:47Z</time>
      </trkpt>
      <trkpt lat="42.2603960" lon="-8.2701250">
        <ele>966.6</ele>
        <time>2022-08-27T15:37:54Z</time>
      </trkpt>
      <trkpt lat="42.2605090" lon="-8.2703350">
        <ele>966.6</ele>
        <time>2022-08-27T15:37:59Z</time>
      </trkpt>
      <trkpt lat="42.2607080" lon="-8.2704390">
        <ele>966.6</ele>
        <time>2022-08-27T15:38:05Z</time>
      </trkpt>
      <trkpt lat="42.2608970" lon="-8.2704650">
        <ele>967.0</ele>
        <time>2022-08-27T15:38:12Z</time>
      </trkpt>
      <trkpt lat="42.2610720" lon="-8.2704800">
        <ele>968.0</ele>
        <time>2022-08-27T15:38:20Z</time>
      </trkpt>
      <trkpt lat="42.2611210" lon="-8.2704870">
        <ele>968.4</ele>
        <time>2022-08-27T15:38:22Z</time>
      </trkpt>
      <trkpt lat="42.2612710" lon="-8.2705200">
        <ele>969.0</ele>
        <time>2022-08-27T15:38:28Z</time>
      </trkpt>
      <trkpt lat="42.2614250" lon="-8.2705710">
        <ele>969.6</ele>
        <time>2022-08-27T15:38:34Z</time>
      </trkpt>
      <trkpt lat="42.2616660" lon="-8.2707100">
        <ele>969.8</ele>
        <time>2022-08-27T15:38:44Z</time>
      </trkpt>
      <trkpt lat="42.2617780" lon="-8.2708040">
        <ele>970.0</ele>
        <time>2022-08-27T15:38:51Z</time>
      </trkpt>
      <trkpt lat="42.2618250" lon="-8.2708300">
        <ele>970.2</ele>
        <time>2022-08-27T15:38:54Z</time>
      </trkpt>
      <trkpt lat="42.2619020" lon="-8.2708920">
        <ele>970.8</ele>
        <time>2022-08-27T15:38:59Z</time>
      </trkpt>
      <trkpt lat="42.2619480" lon="-8.2709320">
        <ele>971.4</ele>
        <time>2022-08-27T15:39:02Z</time>
      </trkpt>
      <trkpt lat="42.2620310" lon="-8.2709810">
        <ele>972.0</ele>
        <time>2022-08-27T15:39:07Z</time>
      </trkpt>
      <trkpt lat="42.2620790" lon="-8.2710070">
        <ele>972.4</ele>
        <time>2022-08-27T15:39:10Z</time>
      </trkpt>
      <trkpt lat="42.2622050" lon="-8.2710510">
        <ele>973.2</ele>
        <time>2022-08-27T15:39:18Z</time>
      </trkpt>
      <trkpt lat="42.2622550" lon="-8.2710640">
        <ele>973.6</ele>
        <time>2022-08-27T15:39:21Z</time>
      </trkpt>
      <trkpt lat="42.2623460" lon="-8.2710900">
        <ele>974.2</ele>
        <time>2022-08-27T15:39:26Z</time>
      </trkpt>
      <trkpt lat="42.2623830" lon="-8.2710980">
        <ele>974.6</ele>
        <time>2022-08-27T15:39:28Z</time>
      </trkpt>
      <trkpt lat="42.2624840" lon="-8.2711580">
        <ele>975.4</ele>
        <time>2022-08-27T15:39:34Z</time>
      </trkpt>
      <trkpt lat="42.2625220" lon="-8.2711690">
        <ele>975.4</ele>
        <time>2022-08-27T15:39:36Z</time>
      </trkpt>
      <trkpt lat="42.2626770" lon="-8.2712150">
        <ele>976.4</ele>
        <time>2022-08-27T15:39:44Z</time>
      </trkpt>
      <trkpt lat="42.2626970" lon="-8.2712180">
        <ele>976.6</ele>
        <time>2022-08-27T15:39:45Z</time>
      </trkpt>
      <trkpt lat="42.2628130" lon="-8.2712430">
        <ele>977.2</ele>
        <time>2022-08-27T15:39:52Z</time>
      </trkpt>
      <trkpt lat="42.2628420" lon="-8.2712480">
        <ele>977.6</ele>
        <time>2022-08-27T15:39:54Z</time>
      </trkpt>
      <trkpt lat="42.2629420" lon="-8.2712520">
        <ele>978.6</ele>
        <time>2022-08-27T15:40:01Z</time>
      </trkpt>
      <trkpt lat="42.2630270" lon="-8.2712550">
        <ele>979.8</ele>
        <time>2022-08-27T15:40:08Z</time>
      </trkpt>
      <trkpt lat="42.2630390" lon="-8.2712560">
        <ele>980.0</ele>
        <time>2022-08-27T15:40:09Z</time>
      </trkpt>
      <trkpt lat="42.2631130" lon="-8.2712500">
        <ele>980.8</ele>
        <time>2022-08-27T15:40:15Z</time>
      </trkpt>
      <trkpt lat="42.2631720" lon="-8.2712500">
        <ele>981.2</ele>
        <time>2022-08-27T15:40:19Z</time>
      </trkpt>
      <trkpt lat="42.2632340" lon="-8.2712500">
        <ele>982.0</ele>
        <time>2022-08-27T15:40:23Z</time>
      </trkpt>
      <trkpt lat="42.2633810" lon="-8.2712480">
        <ele>982.8</ele>
        <time>2022-08-27T15:40:32Z</time>
      </trkpt>
      <trkpt lat="42.2634140" lon="-8.2712500">
        <ele>983.0</ele>
        <time>2022-08-27T15:40:34Z</time>
      </trkpt>
      <trkpt lat="42.2635420" lon="-8.2712460">
        <ele>984.0</ele>
        <time>2022-08-27T15:40:42Z</time>
      </trkpt>
      <trkpt lat="42.2635560" lon="-8.2712460">
        <ele>984.0</ele>
        <time>2022-08-27T15:40:43Z</time>
      </trkpt>
      <trkpt lat="42.2636490" lon="-8.2712530">
        <ele>984.8</ele>
        <time>2022-08-27T15:40:51Z</time>
      </trkpt>
      <trkpt lat="42.2636800" lon="-8.2712530">
        <ele>985.2</ele>
        <time>2022-08-27T15:40:54Z</time>
      </trkpt>
      <trkpt lat="42.2637490" lon="-8.2712590">
        <ele>986.0</ele>
        <time>2022-08-27T15:41:01Z</time>
      </trkpt>
      <trkpt lat="42.2637700" lon="-8.2712610">
        <ele>986.2</ele>
        <time>2022-08-27T15:41:03Z</time>
      </trkpt>
      <trkpt lat="42.2638440" lon="-8.2712680">
        <ele>987.2</ele>
        <time>2022-08-27T15:41:10Z</time>
      </trkpt>
      <trkpt lat="42.2638550" lon="-8.2712710">
        <ele>987.2</ele>
        <time>2022-08-27T15:41:11Z</time>
      </trkpt>
      <trkpt lat="42.2639080" lon="-8.2712720">
        <ele>988.4</ele>
        <time>2022-08-27T15:41:16Z</time>
      </trkpt>
      <trkpt lat="42.2639320" lon="-8.2712740">
        <ele>988.6</ele>
        <time>2022-08-27T15:41:18Z</time>
      </trkpt>
      <trkpt lat="42.2639810" lon="-8.2712740">
        <ele>989.4</ele>
        <time>2022-08-27T15:41:22Z</time>
      </trkpt>
      <trkpt lat="42.2640280" lon="-8.2712700">
        <ele>989.8</ele>
        <time>2022-08-27T15:41:26Z</time>
      </trkpt>
      <trkpt lat="42.2640730" lon="-8.2712660">
        <ele>990.6</ele>
        <time>2022-08-27T15:41:30Z</time>
      </trkpt>
      <trkpt lat="42.2641160" lon="-8.2712690">
        <ele>991.2</ele>
        <time>2022-08-27T15:41:34Z</time>
      </trkpt>
      <trkpt lat="42.2641440" lon="-8.2712590">
        <ele>991.6</ele>
        <time>2022-08-27T15:41:37Z</time>
      </trkpt>
      <trkpt lat="42.2641990" lon="-8.2712500">
        <ele>992.6</ele>
        <time>2022-08-27T15:41:43Z</time>
      </trkpt>
      <trkpt lat="42.2642080" lon="-8.2712470">
        <ele>992.8</ele>
        <time>2022-08-27T15:41:44Z</time>
      </trkpt>
      <trkpt lat="42.2642680" lon="-8.2712330">
        <ele>993.6</ele>
        <time>2022-08-27T15:41:51Z</time>
      </trkpt>
      <trkpt lat="42.2642770" lon="-8.2712270">
        <ele>994.0</ele>
        <time>2022-08-27T15:41:52Z</time>
      </trkpt>
      <trkpt lat="42.2643300" lon="-8.2712020">
        <ele>995.0</ele>
        <time>2022-08-27T15:41:59Z</time>
      </trkpt>
      <trkpt lat="42.2643470" lon="-8.2711980">
        <ele>995.4</ele>
        <time>2022-08-27T15:42:01Z</time>
      </trkpt>
      <trkpt lat="42.2643820" lon="-8.2711890">
        <ele>995.8</ele>
        <time>2022-08-27T15:42:05Z</time>
      </trkpt>
      <trkpt lat="42.2644270" lon="-8.2711630">
        <ele>996.6</ele>
        <time>2022-08-27T15:42:10Z</time>
      </trkpt>
      <trkpt lat="42.2644440" lon="-8.2711480">
        <ele>997.0</ele>
        <time>2022-08-27T15:42:12Z</time>
      </trkpt>
      <trkpt lat="42.2645050" lon="-8.2711180">
        <ele>998.0</ele>
        <time>2022-08-27T15:42:19Z</time>
      </trkpt>
      <trkpt lat="42.2645480" lon="-8.2710700">
        <ele>999.2</ele>
        <time>2022-08-27T15:42:25Z</time>
      </trkpt>
      <trkpt lat="42.2645630" lon="-8.2710560">
        <ele>999.6</ele>
        <time>2022-08-27T15:42:27Z</time>
      </trkpt>
      <trkpt lat="42.2645780" lon="-8.2710390">
        <ele>1000.2</ele>
        <time>2022-08-27T15:42:29Z</time>
      </trkpt>
      <trkpt lat="42.2646110" lon="-8.2709790">
        <ele>1001.0</ele>
        <time>2022-08-27T15:42:35Z</time>
      </trkpt>
      <trkpt lat="42.2646170" lon="-8.2709690">
        <ele>1001.2</ele>
        <time>2022-08-27T15:42:36Z</time>
      </trkpt>
      <trkpt lat="42.2646350" lon="-8.2709370">
        <ele>1002.2</ele>
        <time>2022-08-27T15:42:39Z</time>
      </trkpt>
      <trkpt lat="42.2646560" lon="-8.2708770">
        <ele>1003.2</ele>
        <time>2022-08-27T15:42:44Z</time>
      </trkpt>
      <trkpt lat="42.2646650" lon="-8.2708530">
        <ele>1003.6</ele>
        <time>2022-08-27T15:42:46Z</time>
      </trkpt>
      <trkpt lat="42.2646840" lon="-8.2707610">
        <ele>1004.8</ele>
        <time>2022-08-27T15:42:53Z</time>
      </trkpt>
      <trkpt lat="42.2646880" lon="-8.2707470">
        <ele>1005.0</ele>
        <time>2022-08-27T15:42:54Z</time>
      </trkpt>
      <trkpt lat="42.2647090" lon="-8.2706750">
        <ele>1005.8</ele>
        <time>2022-08-27T15:42:59Z</time>
      </trkpt>
      <trkpt lat="42.2647260" lon="-8.2706230">
        <ele>1006.6</ele>
        <time>2022-08-27T15:43:03Z</time>
      </trkpt>
      <trkpt lat="42.2647320" lon="-8.2705950">
        <ele>1007.0</ele>
        <time>2022-08-27T15:43:05Z</time>
      </trkpt>
      <trkpt lat="42.2647490" lon="-8.2705260">
        <ele>1008.2</ele>
        <time>2022-08-27T15:43:10Z</time>
      </trkpt>
      <trkpt lat="42.2647600" lon="-8.2704670">
        <ele>1008.4</ele>
        <time>2022-08-27T15:43:14Z</time>
      </trkpt>
      <trkpt lat="42.2647740" lon="-8.2704260">
        <ele>1009.0</ele>
        <time>2022-08-27T15:43:17Z</time>
      </trkpt>
      <trkpt lat="42.2647950" lon="-8.2703430">
        <ele>1010.0</ele>
        <time>2022-08-27T15:43:23Z</time>
      </trkpt>
      <trkpt lat="42.2648150" lon="-8.2702620">
        <ele>1011.2</ele>
        <time>2022-08-27T15:43:29Z</time>
      </trkpt>
      <trkpt lat="42.2648180" lon="-8.2702200">
        <ele>1011.6</ele>
        <time>2022-08-27T15:43:32Z</time>
      </trkpt>
      <trkpt lat="42.2648210" lon="-8.2701940">
        <ele>1012.2</ele>
        <time>2022-08-27T15:43:34Z</time>
      </trkpt>
      <trkpt lat="42.2648260" lon="-8.2701660">
        <ele>1012.4</ele>
        <time>2022-08-27T15:43:36Z</time>
      </trkpt>
      <trkpt lat="42.2648350" lon="-8.2701140">
        <ele>1013.2</ele>
        <time>2022-08-27T15:43:40Z</time>
      </trkpt>
      <trkpt lat="42.2648540" lon="-8.2700390">
        <ele>1014.2</ele>
        <time>2022-08-27T15:43:46Z</time>
      </trkpt>
      <trkpt lat="42.2648710" lon="-8.2700080">
        <ele>1014.8</ele>
        <time>2022-08-27T15:43:49Z</time>
      </trkpt>
      <trkpt lat="42.2648930" lon="-8.2699770">
        <ele>1015.4</ele>
        <time>2022-08-27T15:43:52Z</time>
      </trkpt>
      <trkpt lat="42.2649410" lon="-8.2699380">
        <ele>1016.0</ele>
        <time>2022-08-27T15:43:57Z</time>
      </trkpt>
      <trkpt lat="42.2649520" lon="-8.2699340">
        <ele>1016.4</ele>
        <time>2022-08-27T15:43:58Z</time>
      </trkpt>
      <trkpt lat="42.2649840" lon="-8.2699230">
        <ele>1017.6</ele>
        <time>2022-08-27T15:44:01Z</time>
      </trkpt>
      <trkpt lat="42.2650460" lon="-8.2699360">
        <ele>1018.4</ele>
        <time>2022-08-27T15:44:07Z</time>
      </trkpt>
      <trkpt lat="42.2650550" lon="-8.2699420">
        <ele>1018.6</ele>
        <time>2022-08-27T15:44:08Z</time>
      </trkpt>
      <trkpt lat="42.2651130" lon="-8.2699710">
        <ele>1019.8</ele>
        <time>2022-08-27T15:44:15Z</time>
      </trkpt>
      <trkpt lat="42.2651210" lon="-8.2699730">
        <ele>1019.8</ele>
        <time>2022-08-27T15:44:16Z</time>
      </trkpt>
      <trkpt lat="42.2651860" lon="-8.2700340">
        <ele>1021.0</ele>
        <time>2022-08-27T15:44:25Z</time>
      </trkpt>
      <trkpt lat="42.2652110" lon="-8.2700700">
        <ele>1022.0</ele>
        <time>2022-08-27T15:44:29Z</time>
      </trkpt>
      <trkpt lat="42.2652500" lon="-8.2701160">
        <ele>1023.0</ele>
        <time>2022-08-27T15:44:35Z</time>
      </trkpt>
      <trkpt lat="42.2652700" lon="-8.2701440">
        <ele>1023.6</ele>
        <time>2022-08-27T15:44:38Z</time>
      </trkpt>
      <trkpt lat="42.2652900" lon="-8.2701760">
        <ele>1024.2</ele>
        <time>2022-08-27T15:44:41Z</time>
      </trkpt>
      <trkpt lat="42.2653110" lon="-8.2702070">
        <ele>1025.0</ele>
        <time>2022-08-27T15:44:44Z</time>
      </trkpt>
      <trkpt lat="42.2653260" lon="-8.2702240">
        <ele>1025.4</ele>
        <time>2022-08-27T15:44:46Z</time>
      </trkpt>
      <trkpt lat="42.2653790" lon="-8.2702870">
        <ele>1026.6</ele>
        <time>2022-08-27T15:44:53Z</time>
      </trkpt>
      <trkpt lat="42.2653870" lon="-8.2702980">
        <ele>1026.6</ele>
        <time>2022-08-27T15:44:54Z</time>
      </trkpt>
      <trkpt lat="42.2654280" lon="-8.2703400">
        <ele>1027.6</ele>
        <time>2022-08-27T15:44:59Z</time>
      </trkpt>
      <trkpt lat="42.2654630" lon="-8.2703620">
        <ele>1028.2</ele>
        <time>2022-08-27T15:45:03Z</time>
      </trkpt>
      <trkpt lat="42.2654990" lon="-8.2703810">
        <ele>1028.6</ele>
        <time>2022-08-27T15:45:07Z</time>
      </trkpt>
      <trkpt lat="42.2655360" lon="-8.2703940">
        <ele>1029.6</ele>
        <time>2022-08-27T15:45:11Z</time>
      </trkpt>
      <trkpt lat="42.2655450" lon="-8.2703990">
        <ele>1029.8</ele>
        <time>2022-08-27T15:45:12Z</time>
      </trkpt>
      <trkpt lat="42.2656080" lon="-8.2704250">
        <ele>1031.0</ele>
        <time>2022-08-27T15:45:19Z</time>
      </trkpt>
      <trkpt lat="42.2656420" lon="-8.2704430">
        <ele>1031.2</ele>
        <time>2022-08-27T15:45:23Z</time>
      </trkpt>
      <trkpt lat="42.2656720" lon="-8.2704630">
        <ele>1032.0</ele>
        <time>2022-08-27T15:45:26Z</time>
      </trkpt>
      <trkpt lat="42.2657310" lon="-8.2704930">
        <ele>1033.2</ele>
        <time>2022-08-27T15:45:32Z</time>
      </trkpt>
      <trkpt lat="42.2657730" lon="-8.2705110">
        <ele>1033.8</ele>
        <time>2022-08-27T15:45:36Z</time>
      </trkpt>
      <trkpt lat="42.2658060" lon="-8.2705160">
        <ele>1034.2</ele>
        <time>2022-08-27T15:45:39Z</time>
      </trkpt>
      <trkpt lat="42.2658640" lon="-8.2705520">
        <ele>1035.4</ele>
        <time>2022-08-27T15:45:45Z</time>
      </trkpt>
      <trkpt lat="42.2659220" lon="-8.2705610">
        <ele>1036.4</ele>
        <time>2022-08-27T15:45:50Z</time>
      </trkpt>
      <trkpt lat="42.2659610" lon="-8.2705680">
        <ele>1036.8</ele>
        <time>2022-08-27T15:45:53Z</time>
      </trkpt>
      <trkpt lat="42.2660570" lon="-8.2705880">
        <ele>1037.4</ele>
        <time>2022-08-27T15:46:00Z</time>
      </trkpt>
      <trkpt lat="42.2661140" lon="-8.2705910">
        <ele>1038.2</ele>
        <time>2022-08-27T15:46:04Z</time>
      </trkpt>
      <trkpt lat="42.2661400" lon="-8.2705920">
        <ele>1038.4</ele>
        <time>2022-08-27T15:46:06Z</time>
      </trkpt>
      <trkpt lat="42.2662060" lon="-8.2705920">
        <ele>1038.8</ele>
        <time>2022-08-27T15:46:12Z</time>
      </trkpt>
      <trkpt lat="42.2662720" lon="-8.2705790">
        <ele>1039.6</ele>
        <time>2022-08-27T15:46:18Z</time>
      </trkpt>
      <trkpt lat="42.2663070" lon="-8.2705840">
        <ele>1040.2</ele>
        <time>2022-08-27T15:46:21Z</time>
      </trkpt>
      <trkpt lat="42.2663510" lon="-8.2705860">
        <ele>1041.0</ele>
        <time>2022-08-27T15:46:25Z</time>
      </trkpt>
      <trkpt lat="42.2663920" lon="-8.2705990">
        <ele>1041.6</ele>
        <time>2022-08-27T15:46:29Z</time>
      </trkpt>
      <trkpt lat="42.2664140" lon="-8.2706110">
        <ele>1042.2</ele>
        <time>2022-08-27T15:46:31Z</time>
      </trkpt>
      <trkpt lat="42.2664580" lon="-8.2706540">
        <ele>1043.4</ele>
        <time>2022-08-27T15:46:36Z</time>
      </trkpt>
      <trkpt lat="42.2664850" lon="-8.2706830">
        <ele>1044.0</ele>
        <time>2022-08-27T15:46:39Z</time>
      </trkpt>
      <trkpt lat="42.2665210" lon="-8.2707260">
        <ele>1044.6</ele>
        <time>2022-08-27T15:46:43Z</time>
      </trkpt>
      <trkpt lat="42.2665550" lon="-8.2707810">
        <ele>1045.6</ele>
        <time>2022-08-27T15:46:47Z</time>
      </trkpt>
      <trkpt lat="42.2665630" lon="-8.2707970">
        <ele>1045.8</ele>
        <time>2022-08-27T15:46:48Z</time>
      </trkpt>
      <trkpt lat="42.2666230" lon="-8.2709090">
        <ele>1046.4</ele>
        <time>2022-08-27T15:46:54Z</time>
      </trkpt>
      <trkpt lat="42.2666500" lon="-8.2709440">
        <ele>1046.8</ele>
        <time>2022-08-27T15:46:56Z</time>
      </trkpt>
      <trkpt lat="42.2667640" lon="-8.2710680">
        <ele>1047.4</ele>
        <time>2022-08-27T15:47:04Z</time>
      </trkpt>
      <trkpt lat="42.2669080" lon="-8.2711660">
        <ele>1047.8</ele>
        <time>2022-08-27T15:47:13Z</time>
      </trkpt>
      <trkpt lat="42.2669260" lon="-8.2711740">
        <ele>1048.0</ele>
        <time>2022-08-27T15:47:16Z</time>
      </trkpt>
      <trkpt lat="42.2669570" lon="-8.2711740">
        <ele>1047.4</ele>
        <time>2022-08-27T15:48:55Z</time>
      </trkpt>
      <trkpt lat="42.2670710" lon="-8.2711920">
        <ele>1047.4</ele>
        <time>2022-08-27T15:48:59Z</time>
      </trkpt>
      <trkpt lat="42.2671580" lon="-8.2711940">
        <ele>1047.4</ele>
        <time>2022-08-27T15:49:01Z</time>
      </trkpt>
      <trkpt lat="42.2672680" lon="-8.2711630">
        <ele>1047.6</ele>
        <time>2022-08-27T15:49:03Z</time>
      </trkpt>
      <trkpt lat="42.2675570" lon="-8.2710310">
        <ele>1046.8</ele>
        <time>2022-08-27T15:49:08Z</time>
      </trkpt>
      <trkpt lat="42.2676690" lon="-8.2709770">
        <ele>1045.6</ele>
        <time>2022-08-27T15:49:10Z</time>
      </trkpt>
      <trkpt lat="42.2677820" lon="-8.2709270">
        <ele>1044.4</ele>
        <time>2022-08-27T15:49:12Z</time>
      </trkpt>
      <trkpt lat="42.2679420" lon="-8.2708610">
        <ele>1043.0</ele>
        <time>2022-08-27T15:49:15Z</time>
      </trkpt>
      <trkpt lat="42.2679990" lon="-8.2708480">
        <ele>1042.8</ele>
        <time>2022-08-27T15:49:16Z</time>
      </trkpt>
      <trkpt lat="42.2681740" lon="-8.2708520">
        <ele>1042.2</ele>
        <time>2022-08-27T15:49:19Z</time>
      </trkpt>
      <trkpt lat="42.2682360" lon="-8.2708550">
        <ele>1041.8</ele>
        <time>2022-08-27T15:49:20Z</time>
      </trkpt>
      <trkpt lat="42.2683030" lon="-8.2708480">
        <ele>1041.2</ele>
        <time>2022-08-27T15:49:21Z</time>
      </trkpt>
      <trkpt lat="42.2683730" lon="-8.2708260">
        <ele>1040.6</ele>
        <time>2022-08-27T15:49:22Z</time>
      </trkpt>
      <trkpt lat="42.2684440" lon="-8.2707910">
        <ele>1040.0</ele>
        <time>2022-08-27T15:49:23Z</time>
      </trkpt>
      <trkpt lat="42.2685150" lon="-8.2707440">
        <ele>1039.6</ele>
        <time>2022-08-27T15:49:24Z</time>
      </trkpt>
      <trkpt lat="42.2686430" lon="-8.2706330">
        <ele>1038.6</ele>
        <time>2022-08-27T15:49:26Z</time>
      </trkpt>
      <trkpt lat="42.2687040" lon="-8.2705770">
        <ele>1038.0</ele>
        <time>2022-08-27T15:49:27Z</time>
      </trkpt>
      <trkpt lat="42.2688300" lon="-8.2704780">
        <ele>1036.8</ele>
        <time>2022-08-27T15:49:29Z</time>
      </trkpt>
      <trkpt lat="42.2689360" lon="-8.2703960">
        <ele>1035.4</ele>
        <time>2022-08-27T15:49:31Z</time>
      </trkpt>
      <trkpt lat="42.2690350" lon="-8.2703250">
        <ele>1034.0</ele>
        <time>2022-08-27T15:49:33Z</time>
      </trkpt>
      <trkpt lat="42.2692190" lon="-8.2701970">
        <ele>1032.8</ele>
        <time>2022-08-27T15:49:36Z</time>
      </trkpt>
      <trkpt lat="42.2694430" lon="-8.2700320">
        <ele>1031.6</ele>
        <time>2022-08-27T15:49:39Z</time>
      </trkpt>
      <trkpt lat="42.2696800" lon="-8.2698660">
        <ele>1030.0</ele>
        <time>2022-08-27T15:49:42Z</time>
      </trkpt>
      <trkpt lat="42.2698400" lon="-8.2697540">
        <ele>1029.0</ele>
        <time>2022-08-27T15:49:44Z</time>
      </trkpt>
      <trkpt lat="42.2699970" lon="-8.2696340">
        <ele>1027.6</ele>
        <time>2022-08-27T15:49:46Z</time>
      </trkpt>
      <trkpt lat="42.2701500" lon="-8.2695040">
        <ele>1026.0</ele>
        <time>2022-08-27T15:49:48Z</time>
      </trkpt>
      <trkpt lat="42.2702990" lon="-8.2693820">
        <ele>1024.8</ele>
        <time>2022-08-27T15:49:50Z</time>
      </trkpt>
      <trkpt lat="42.2705080" lon="-8.2692150">
        <ele>1023.6</ele>
        <time>2022-08-27T15:49:53Z</time>
      </trkpt>
      <trkpt lat="42.2706300" lon="-8.2691110">
        <ele>1022.4</ele>
        <time>2022-08-27T15:49:55Z</time>
      </trkpt>
      <trkpt lat="42.2706880" lon="-8.2690710">
        <ele>1021.8</ele>
        <time>2022-08-27T15:49:56Z</time>
      </trkpt>
      <trkpt lat="42.2708520" lon="-8.2689680">
        <ele>1021.2</ele>
        <time>2022-08-27T15:49:59Z</time>
      </trkpt>
      <trkpt lat="42.2709620" lon="-8.2688980">
        <ele>1021.2</ele>
        <time>2022-08-27T15:50:01Z</time>
      </trkpt>
      <trkpt lat="42.2710800" lon="-8.2688280">
        <ele>1021.2</ele>
        <time>2022-08-27T15:50:03Z</time>
      </trkpt>
      <trkpt lat="42.2714660" lon="-8.2686790">
        <ele>1020.6</ele>
        <time>2022-08-27T15:50:10Z</time>
      </trkpt>
      <trkpt lat="42.2715500" lon="-8.2686580">
        <ele>1020.6</ele>
        <time>2022-08-27T15:50:14Z</time>
      </trkpt>
      <trkpt lat="42.2715500" lon="-8.2686590">
        <ele>1020.6</ele>
        <time>2022-08-27T15:50:15Z</time>
      </trkpt>
      <trkpt lat="42.2715810" lon="-8.2686350">
        <ele>1021.0</ele>
        <time>2022-08-27T15:51:26Z</time>
      </trkpt>
      <trkpt lat="42.2716290" lon="-8.2686090">
        <ele>1021.0</ele>
        <time>2022-08-27T15:51:28Z</time>
      </trkpt>
      <trkpt lat="42.2718590" lon="-8.2685340">
        <ele>1021.0</ele>
        <time>2022-08-27T15:51:34Z</time>
      </trkpt>
      <trkpt lat="42.2719090" lon="-8.2685290">
        <ele>1021.0</ele>
        <time>2022-08-27T15:51:35Z</time>
      </trkpt>
      <trkpt lat="42.2721230" lon="-8.2685520">
        <ele>1020.8</ele>
        <time>2022-08-27T15:51:39Z</time>
      </trkpt>
      <trkpt lat="42.2723680" lon="-8.2686090">
        <ele>1020.0</ele>
        <time>2022-08-27T15:51:44Z</time>
      </trkpt>
      <trkpt lat="42.2724100" lon="-8.2686210">
        <ele>1020.0</ele>
        <time>2022-08-27T15:51:45Z</time>
      </trkpt>
      <trkpt lat="42.2726080" lon="-8.2686880">
        <ele>1020.0</ele>
        <time>2022-08-27T15:51:51Z</time>
      </trkpt>
      <trkpt lat="42.2727970" lon="-8.2687950">
        <ele>1020.4</ele>
        <time>2022-08-27T15:51:59Z</time>
      </trkpt>
      <trkpt lat="42.2728850" lon="-8.2688670">
        <ele>1021.2</ele>
        <time>2022-08-27T15:52:04Z</time>
      </trkpt>
      <trkpt lat="42.2729380" lon="-8.2689180">
        <ele>1022.0</ele>
        <time>2022-08-27T15:52:07Z</time>
      </trkpt>
      <trkpt lat="42.2729560" lon="-8.2689350">
        <ele>1022.2</ele>
        <time>2022-08-27T15:52:08Z</time>
      </trkpt>
      <trkpt lat="42.2731000" lon="-8.2690440">
        <ele>1023.0</ele>
        <time>2022-08-27T15:52:15Z</time>
      </trkpt>
      <trkpt lat="42.2732930" lon="-8.2691710">
        <ele>1024.2</ele>
        <time>2022-08-27T15:52:23Z</time>
      </trkpt>
      <trkpt lat="42.2733440" lon="-8.2692100">
        <ele>1024.4</ele>
        <time>2022-08-27T15:52:25Z</time>
      </trkpt>
      <trkpt lat="42.2735810" lon="-8.2693960">
        <ele>1025.2</ele>
        <time>2022-08-27T15:52:35Z</time>
      </trkpt>
      <trkpt lat="42.2736030" lon="-8.2694130">
        <ele>1025.2</ele>
        <time>2022-08-27T15:52:36Z</time>
      </trkpt>
      <trkpt lat="42.2738070" lon="-8.2695050">
        <ele>1025.6</ele>
        <time>2022-08-27T15:52:44Z</time>
      </trkpt>
      <trkpt lat="42.2740010" lon="-8.2694950">
        <ele>1026.0</ele>
        <time>2022-08-27T15:52:50Z</time>
      </trkpt>
      <trkpt lat="42.2741660" lon="-8.2694160">
        <ele>1026.2</ele>
        <time>2022-08-27T15:52:56Z</time>
      </trkpt>
      <trkpt lat="42.2741940" lon="-8.2694060">
        <ele>1026.4</ele>
        <time>2022-08-27T15:52:57Z</time>
      </trkpt>
      <trkpt lat="42.2744030" lon="-8.2693720">
        <ele>1027.2</ele>
        <time>2022-08-27T15:53:04Z</time>
      </trkpt>
      <trkpt lat="42.2744330" lon="-8.2693740">
        <ele>1027.4</ele>
        <time>2022-08-27T15:53:05Z</time>
      </trkpt>
      <trkpt lat="42.2746360" lon="-8.2694390">
        <ele>1027.8</ele>
        <time>2022-08-27T15:53:12Z</time>
      </trkpt>
      <trkpt lat="42.2747890" lon="-8.2695440">
        <ele>1028.2</ele>
        <time>2022-08-27T15:53:19Z</time>
      </trkpt>
      <trkpt lat="42.2748060" lon="-8.2695590">
        <ele>1028.2</ele>
        <time>2022-08-27T15:53:20Z</time>
      </trkpt>
      <trkpt lat="42.2749120" lon="-8.2696700">
        <ele>1029.0</ele>
        <time>2022-08-27T15:53:27Z</time>
      </trkpt>
      <trkpt lat="42.2749590" lon="-8.2697090">
        <ele>1029.4</ele>
        <time>2022-08-27T15:53:30Z</time>
      </trkpt>
      <trkpt lat="42.2750160" lon="-8.2697580">
        <ele>1030.0</ele>
        <time>2022-08-27T15:53:34Z</time>
      </trkpt>
      <trkpt lat="42.2750450" lon="-8.2697830">
        <ele>1030.4</ele>
        <time>2022-08-27T15:53:36Z</time>
      </trkpt>
      <trkpt lat="42.2751460" lon="-8.2698800">
        <ele>1031.4</ele>
        <time>2022-08-27T15:53:43Z</time>
      </trkpt>
      <trkpt lat="42.2751720" lon="-8.2699150">
        <ele>1031.6</ele>
        <time>2022-08-27T15:53:45Z</time>
      </trkpt>
      <trkpt lat="42.2752260" lon="-8.2700090">
        <ele>1032.8</ele>
        <time>2022-08-27T15:53:50Z</time>
      </trkpt>
      <trkpt lat="42.2752630" lon="-8.2701030">
        <ele>1033.2</ele>
        <time>2022-08-27T15:53:54Z</time>
      </trkpt>
      <trkpt lat="42.2753040" lon="-8.2702470">
        <ele>1033.8</ele>
        <time>2022-08-27T15:53:59Z</time>
      </trkpt>
      <trkpt lat="42.2753290" lon="-8.2703650">
        <ele>1034.0</ele>
        <time>2022-08-27T15:54:02Z</time>
      </trkpt>
      <trkpt lat="42.2754100" lon="-8.2706000">
        <ele>1034.0</ele>
        <time>2022-08-27T15:54:08Z</time>
      </trkpt>
      <trkpt lat="42.2755660" lon="-8.2707510">
        <ele>1033.6</ele>
        <time>2022-08-27T15:54:15Z</time>
      </trkpt>
      <trkpt lat="42.2756930" lon="-8.2708000">
        <ele>1034.2</ele>
        <time>2022-08-27T15:54:23Z</time>
      </trkpt>
      <trkpt lat="42.2757240" lon="-8.2708080">
        <ele>1034.8</ele>
        <time>2022-08-27T15:54:25Z</time>
      </trkpt>
      <trkpt lat="42.2757820" lon="-8.2708170">
        <ele>1035.6</ele>
        <time>2022-08-27T15:54:29Z</time>
      </trkpt>
      <trkpt lat="42.2757980" lon="-8.2708190">
        <ele>1035.8</ele>
        <time>2022-08-27T15:54:30Z</time>
      </trkpt>
      <trkpt lat="42.2758940" lon="-8.2708420">
        <ele>1036.8</ele>
        <time>2022-08-27T15:54:36Z</time>
      </trkpt>
      <trkpt lat="42.2759090" lon="-8.2708450">
        <ele>1037.0</ele>
        <time>2022-08-27T15:54:37Z</time>
      </trkpt>
      <trkpt lat="42.2760100" lon="-8.2708600">
        <ele>1037.8</ele>
        <time>2022-08-27T15:54:43Z</time>
      </trkpt>
      <trkpt lat="42.2760590" lon="-8.2708580">
        <ele>1038.0</ele>
        <time>2022-08-27T15:54:46Z</time>
      </trkpt>
      <trkpt lat="42.2760940" lon="-8.2708560">
        <ele>1038.8</ele>
        <time>2022-08-27T15:54:48Z</time>
      </trkpt>
      <trkpt lat="42.2762080" lon="-8.2708590">
        <ele>1040.0</ele>
        <time>2022-08-27T15:54:55Z</time>
      </trkpt>
      <trkpt lat="42.2762240" lon="-8.2708590">
        <ele>1040.2</ele>
        <time>2022-08-27T15:54:56Z</time>
      </trkpt>
      <trkpt lat="42.2762870" lon="-8.2708550">
        <ele>1041.0</ele>
        <time>2022-08-27T15:55:00Z</time>
      </trkpt>
      <trkpt lat="42.2763520" lon="-8.2708470">
        <ele>1041.8</ele>
        <time>2022-08-27T15:55:05Z</time>
      </trkpt>
      <trkpt lat="42.2763750" lon="-8.2708490">
        <ele>1042.0</ele>
        <time>2022-08-27T15:55:07Z</time>
      </trkpt>
      <trkpt lat="42.2764470" lon="-8.2708430">
        <ele>1043.2</ele>
        <time>2022-08-27T15:55:13Z</time>
      </trkpt>
      <trkpt lat="42.2764600" lon="-8.2708450">
        <ele>1043.4</ele>
        <time>2022-08-27T15:55:14Z</time>
      </trkpt>
      <trkpt lat="42.2765250" lon="-8.2708430">
        <ele>1044.0</ele>
        <time>2022-08-27T15:55:19Z</time>
      </trkpt>
      <trkpt lat="42.2765990" lon="-8.2708540">
        <ele>1045.0</ele>
        <time>2022-08-27T15:55:24Z</time>
      </trkpt>
      <trkpt lat="42.2766140" lon="-8.2708560">
        <ele>1045.2</ele>
        <time>2022-08-27T15:55:25Z</time>
      </trkpt>
      <trkpt lat="42.2767280" lon="-8.2708850">
        <ele>1046.2</ele>
        <time>2022-08-27T15:55:32Z</time>
      </trkpt>
      <trkpt lat="42.2767430" lon="-8.2708840">
        <ele>1046.4</ele>
        <time>2022-08-27T15:55:33Z</time>
      </trkpt>
      <trkpt lat="42.2768760" lon="-8.2709000">
        <ele>1047.0</ele>
        <time>2022-08-27T15:55:41Z</time>
      </trkpt>
      <trkpt lat="42.2769280" lon="-8.2709060">
        <ele>1047.4</ele>
        <time>2022-08-27T15:55:44Z</time>
      </trkpt>
      <trkpt lat="42.2769450" lon="-8.2709070">
        <ele>1047.6</ele>
        <time>2022-08-27T15:55:45Z</time>
      </trkpt>
      <trkpt lat="42.2770340" lon="-8.2709160">
        <ele>1048.4</ele>
        <time>2022-08-27T15:55:50Z</time>
      </trkpt>
      <trkpt lat="42.2771740" lon="-8.2709370">
        <ele>1049.2</ele>
        <time>2022-08-27T15:55:58Z</time>
      </trkpt>
      <trkpt lat="42.2772110" lon="-8.2709440">
        <ele>1049.8</ele>
        <time>2022-08-27T15:56:00Z</time>
      </trkpt>
      <trkpt lat="42.2773250" lon="-8.2709820">
        <ele>1050.4</ele>
        <time>2022-08-27T15:56:05Z</time>
      </trkpt>
      <trkpt lat="42.2773780" lon="-8.2710030">
        <ele>1050.8</ele>
        <time>2022-08-27T15:56:07Z</time>
      </trkpt>
      <trkpt lat="42.2776040" lon="-8.2711310">
        <ele>1051.2</ele>
        <time>2022-08-27T15:56:15Z</time>
      </trkpt>
      <trkpt lat="42.2779030" lon="-8.2713480">
        <ele>1051.4</ele>
        <time>2022-08-27T15:56:25Z</time>
      </trkpt>
      <trkpt lat="42.2780470" lon="-8.2714550">
        <ele>1051.4</ele>
        <time>2022-08-27T15:56:30Z</time>
      </trkpt>
      <trkpt lat="42.2781170" lon="-8.2715140">
        <ele>1051.6</ele>
        <time>2022-08-27T15:56:33Z</time>
      </trkpt>
      <trkpt lat="42.2782150" lon="-8.2715790">
        <ele>1051.6</ele>
        <time>2022-08-27T15:56:40Z</time>
      </trkpt>
      <trkpt lat="42.2782440" lon="-8.2716040">
        <ele>1052.6</ele>
        <time>2022-08-27T15:56:43Z</time>
      </trkpt>
      <trkpt lat="42.2782930" lon="-8.2716360">
        <ele>1053.8</ele>
        <time>2022-08-27T15:56:48Z</time>
      </trkpt>
      <trkpt lat="42.2783110" lon="-8.2716470">
        <ele>1054.0</ele>
        <time>2022-08-27T15:56:50Z</time>
      </trkpt>
      <trkpt lat="42.2783470" lon="-8.2716690">
        <ele>1054.8</ele>
        <time>2022-08-27T15:56:54Z</time>
      </trkpt>
      <trkpt lat="42.2783810" lon="-8.2716910">
        <ele>1055.4</ele>
        <time>2022-08-27T15:56:58Z</time>
      </trkpt>
      <trkpt lat="42.2784000" lon="-8.2716980">
        <ele>1055.8</ele>
        <time>2022-08-27T15:57:00Z</time>
      </trkpt>
      <trkpt lat="42.2784510" lon="-8.2717350">
        <ele>1056.8</ele>
        <time>2022-08-27T15:57:06Z</time>
      </trkpt>
      <trkpt lat="42.2784600" lon="-8.2717410">
        <ele>1057.0</ele>
        <time>2022-08-27T15:57:07Z</time>
      </trkpt>
      <trkpt lat="42.2784930" lon="-8.2717630">
        <ele>1058.2</ele>
        <time>2022-08-27T15:57:11Z</time>
      </trkpt>
      <trkpt lat="42.2785450" lon="-8.2718060">
        <ele>1059.2</ele>
        <time>2022-08-27T15:57:17Z</time>
      </trkpt>
      <trkpt lat="42.2785540" lon="-8.2718140">
        <ele>1059.4</ele>
        <time>2022-08-27T15:57:18Z</time>
      </trkpt>
      <trkpt lat="42.2786090" lon="-8.2718590">
        <ele>1060.4</ele>
        <time>2022-08-27T15:57:24Z</time>
      </trkpt>
      <trkpt lat="42.2786280" lon="-8.2718740">
        <ele>1060.6</ele>
        <time>2022-08-27T15:57:26Z</time>
      </trkpt>
      <trkpt lat="42.2786770" lon="-8.2719140">
        <ele>1061.2</ele>
        <time>2022-08-27T15:57:32Z</time>
      </trkpt>
      <trkpt lat="42.2787060" lon="-8.2719390">
        <ele>1061.8</ele>
        <time>2022-08-27T15:57:36Z</time>
      </trkpt>
      <trkpt lat="42.2787170" lon="-8.2719560">
        <ele>1062.2</ele>
        <time>2022-08-27T15:57:38Z</time>
      </trkpt>
      <trkpt lat="42.2787230" lon="-8.2719670">
        <ele>1062.6</ele>
        <time>2022-08-27T15:57:39Z</time>
      </trkpt>
      <trkpt lat="42.2787560" lon="-8.2719960">
        <ele>1063.2</ele>
        <time>2022-08-27T15:57:44Z</time>
      </trkpt>
      <trkpt lat="42.2787760" lon="-8.2720260">
        <ele>1063.8</ele>
        <time>2022-08-27T15:57:48Z</time>
      </trkpt>
      <trkpt lat="42.2788080" lon="-8.2720630">
        <ele>1064.6</ele>
        <time>2022-08-27T15:57:53Z</time>
      </trkpt>
      <trkpt lat="42.2788250" lon="-8.2720850">
        <ele>1065.0</ele>
        <time>2022-08-27T15:57:56Z</time>
      </trkpt>
      <trkpt lat="42.2788700" lon="-8.2721360">
        <ele>1065.8</ele>
        <time>2022-08-27T15:58:03Z</time>
      </trkpt>
      <trkpt lat="42.2788760" lon="-8.2721420">
        <ele>1066.0</ele>
        <time>2022-08-27T15:58:04Z</time>
      </trkpt>
      <trkpt lat="42.2789000" lon="-8.2721650">
        <ele>1067.2</ele>
        <time>2022-08-27T15:58:08Z</time>
      </trkpt>
      <trkpt lat="42.2789320" lon="-8.2721980">
        <ele>1068.0</ele>
        <time>2022-08-27T15:58:13Z</time>
      </trkpt>
      <trkpt lat="42.2789360" lon="-8.2722040">
        <ele>1068.2</ele>
        <time>2022-08-27T15:58:14Z</time>
      </trkpt>
      <trkpt lat="42.2789710" lon="-8.2722260">
        <ele>1069.0</ele>
        <time>2022-08-27T15:58:19Z</time>
      </trkpt>
      <trkpt lat="42.2789790" lon="-8.2722300">
        <ele>1069.2</ele>
        <time>2022-08-27T15:58:20Z</time>
      </trkpt>
      <trkpt lat="42.2789850" lon="-8.2722350">
        <ele>1069.2</ele>
        <time>2022-08-27T15:58:21Z</time>
      </trkpt>
      <trkpt lat="42.2790280" lon="-8.2722540">
        <ele>1070.4</ele>
        <time>2022-08-27T15:58:27Z</time>
      </trkpt>
      <trkpt lat="42.2790420" lon="-8.2722620">
        <ele>1070.8</ele>
        <time>2022-08-27T15:58:29Z</time>
      </trkpt>
      <trkpt lat="42.2790710" lon="-8.2722850">
        <ele>1071.4</ele>
        <time>2022-08-27T15:58:33Z</time>
      </trkpt>
      <trkpt lat="42.2790990" lon="-8.2723130">
        <ele>1072.0</ele>
        <time>2022-08-27T15:58:37Z</time>
      </trkpt>
      <trkpt lat="42.2791290" lon="-8.2723350">
        <ele>1072.2</ele>
        <time>2022-08-27T15:58:41Z</time>
      </trkpt>
      <trkpt lat="42.2791500" lon="-8.2723430">
        <ele>1072.6</ele>
        <time>2022-08-27T15:58:43Z</time>
      </trkpt>
      <trkpt lat="42.2791670" lon="-8.2723480">
        <ele>1072.8</ele>
        <time>2022-08-27T15:58:45Z</time>
      </trkpt>
      <trkpt lat="42.2792010" lon="-8.2723610">
        <ele>1073.6</ele>
        <time>2022-08-27T15:58:49Z</time>
      </trkpt>
      <trkpt lat="42.2792400" lon="-8.2723670">
        <ele>1074.6</ele>
        <time>2022-08-27T15:58:54Z</time>
      </trkpt>
      <trkpt lat="42.2792480" lon="-8.2723660">
        <ele>1075.2</ele>
        <time>2022-08-27T15:58:55Z</time>
      </trkpt>
      <trkpt lat="42.2792890" lon="-8.2723660">
        <ele>1075.8</ele>
        <time>2022-08-27T15:59:00Z</time>
      </trkpt>
      <trkpt lat="42.2793160" lon="-8.2723640">
        <ele>1076.2</ele>
        <time>2022-08-27T15:59:03Z</time>
      </trkpt>
      <trkpt lat="42.2793460" lon="-8.2723470">
        <ele>1077.2</ele>
        <time>2022-08-27T15:59:07Z</time>
      </trkpt>
      <trkpt lat="42.2793530" lon="-8.2723410">
        <ele>1077.2</ele>
        <time>2022-08-27T15:59:08Z</time>
      </trkpt>
      <trkpt lat="42.2793690" lon="-8.2723270">
        <ele>1077.8</ele>
        <time>2022-08-27T15:59:10Z</time>
      </trkpt>
      <trkpt lat="42.2793860" lon="-8.2723140">
        <ele>1078.2</ele>
        <time>2022-08-27T15:59:12Z</time>
      </trkpt>
      <trkpt lat="42.2794220" lon="-8.2722780">
        <ele>1079.2</ele>
        <time>2022-08-27T15:59:17Z</time>
      </trkpt>
      <trkpt lat="42.2794500" lon="-8.2722480">
        <ele>1080.0</ele>
        <time>2022-08-27T15:59:20Z</time>
      </trkpt>
      <trkpt lat="42.2794690" lon="-8.2722270">
        <ele>1080.4</ele>
        <time>2022-08-27T15:59:22Z</time>
      </trkpt>
      <trkpt lat="42.2795240" lon="-8.2722030">
        <ele>1081.0</ele>
        <time>2022-08-27T15:59:27Z</time>
      </trkpt>
      <trkpt lat="42.2796210" lon="-8.2720600">
        <ele>1081.4</ele>
        <time>2022-08-27T15:59:32Z</time>
      </trkpt>
      <trkpt lat="42.2797390" lon="-8.2719740">
        <ele>1081.4</ele>
        <time>2022-08-27T15:59:36Z</time>
      </trkpt>
      <trkpt lat="42.2797480" lon="-8.2719700">
        <ele>1081.4</ele>
        <time>2022-08-27T15:59:38Z</time>
      </trkpt>
      <trkpt lat="42.2797990" lon="-8.2719680">
        <ele>1079.2</ele>
        <time>2022-08-27T15:59:57Z</time>
      </trkpt>
      <trkpt lat="42.2798240" lon="-8.2719660">
        <ele>1079.2</ele>
        <time>2022-08-27T15:59:58Z</time>
      </trkpt>
      <trkpt lat="42.2799870" lon="-8.2719890">
        <ele>1079.2</ele>
        <time>2022-08-27T16:00:03Z</time>
      </trkpt>
      <trkpt lat="42.2802130" lon="-8.2720740">
        <ele>1079.0</ele>
        <time>2022-08-27T16:00:08Z</time>
      </trkpt>
      <trkpt lat="42.2803260" lon="-8.2721640">
        <ele>1078.8</ele>
        <time>2022-08-27T16:00:10Z</time>
      </trkpt>
      <trkpt lat="42.2804300" lon="-8.2722740">
        <ele>1078.2</ele>
        <time>2022-08-27T16:00:12Z</time>
      </trkpt>
      <trkpt lat="42.2805380" lon="-8.2723430">
        <ele>1077.0</ele>
        <time>2022-08-27T16:00:14Z</time>
      </trkpt>
      <trkpt lat="42.2806000" lon="-8.2723620">
        <ele>1076.4</ele>
        <time>2022-08-27T16:00:15Z</time>
      </trkpt>
      <trkpt lat="42.2806650" lon="-8.2723780">
        <ele>1075.6</ele>
        <time>2022-08-27T16:00:16Z</time>
      </trkpt>
      <trkpt lat="42.2807970" lon="-8.2724240">
        <ele>1074.0</ele>
        <time>2022-08-27T16:00:18Z</time>
      </trkpt>
      <trkpt lat="42.2809200" lon="-8.2725210">
        <ele>1073.2</ele>
        <time>2022-08-27T16:00:20Z</time>
      </trkpt>
      <trkpt lat="42.2809680" lon="-8.2725790">
        <ele>1072.8</ele>
        <time>2022-08-27T16:00:21Z</time>
      </trkpt>
      <trkpt lat="42.2810490" lon="-8.2727160">
        <ele>1071.6</ele>
        <time>2022-08-27T16:00:23Z</time>
      </trkpt>
      <trkpt lat="42.2810940" lon="-8.2727970">
        <ele>1070.8</ele>
        <time>2022-08-27T16:00:24Z</time>
      </trkpt>
      <trkpt lat="42.2811470" lon="-8.2728780">
        <ele>1070.0</ele>
        <time>2022-08-27T16:00:25Z</time>
      </trkpt>
      <trkpt lat="42.2812880" lon="-8.2730230">
        <ele>1068.2</ele>
        <time>2022-08-27T16:00:27Z</time>
      </trkpt>
      <trkpt lat="42.2814550" lon="-8.2730960">
        <ele>1066.4</ele>
        <time>2022-08-27T16:00:29Z</time>
      </trkpt>
      <trkpt lat="42.2815330" lon="-8.2731040">
        <ele>1065.8</ele>
        <time>2022-08-27T16:00:30Z</time>
      </trkpt>
      <trkpt lat="42.2816010" lon="-8.2731020">
        <ele>1064.8</ele>
        <time>2022-08-27T16:00:31Z</time>
      </trkpt>
      <trkpt lat="42.2817050" lon="-8.2730810">
        <ele>1063.4</ele>
        <time>2022-08-27T16:00:33Z</time>
      </trkpt>
      <trkpt lat="42.2818120" lon="-8.2730670">
        <ele>1062.6</ele>
        <time>2022-08-27T16:00:37Z</time>
      </trkpt>
      <trkpt lat="42.2819590" lon="-8.2730750">
        <ele>1062.8</ele>
        <time>2022-08-27T16:00:45Z</time>
      </trkpt>
      <trkpt lat="42.2820910" lon="-8.2731240">
        <ele>1064.2</ele>
        <time>2022-08-27T16:00:52Z</time>
      </trkpt>
      <trkpt lat="42.2821110" lon="-8.2731320">
        <ele>1064.8</ele>
        <time>2022-08-27T16:00:53Z</time>
      </trkpt>
      <trkpt lat="42.2822750" lon="-8.2732600">
        <ele>1065.4</ele>
        <time>2022-08-27T16:01:00Z</time>
      </trkpt>
      <trkpt lat="42.2824220" lon="-8.2734020">
        <ele>1065.4</ele>
        <time>2022-08-27T16:01:03Z</time>
      </trkpt>
      <trkpt lat="42.2828440" lon="-8.2737700">
        <ele>1064.4</ele>
        <time>2022-08-27T16:01:09Z</time>
      </trkpt>
      <trkpt lat="42.2829690" lon="-8.2738900">
        <ele>1062.2</ele>
        <time>2022-08-27T16:01:11Z</time>
      </trkpt>
      <trkpt lat="42.2830330" lon="-8.2739510">
        <ele>1061.0</ele>
        <time>2022-08-27T16:01:12Z</time>
      </trkpt>
      <trkpt lat="42.2830970" lon="-8.2740100">
        <ele>1059.4</ele>
        <time>2022-08-27T16:01:13Z</time>
      </trkpt>
      <trkpt lat="42.2831610" lon="-8.2740680">
        <ele>1057.6</ele>
        <time>2022-08-27T16:01:14Z</time>
      </trkpt>
      <trkpt lat="42.2832250" lon="-8.2741250">
        <ele>1056.0</ele>
        <time>2022-08-27T16:01:15Z</time>
      </trkpt>
      <trkpt lat="42.2832880" lon="-8.2741820">
        <ele>1054.2</ele>
        <time>2022-08-27T16:01:16Z</time>
      </trkpt>
      <trkpt lat="42.2833510" lon="-8.2742380">
        <ele>1052.6</ele>
        <time>2022-08-27T16:01:17Z</time>
      </trkpt>
      <trkpt lat="42.2834120" lon="-8.2742930">
        <ele>1051.0</ele>
        <time>2022-08-27T16:01:18Z</time>
      </trkpt>
      <trkpt lat="42.2835280" lon="-8.2744000">
        <ele>1049.4</ele>
        <time>2022-08-27T16:01:20Z</time>
      </trkpt>
      <trkpt lat="42.2836330" lon="-8.2744990">
        <ele>1048.4</ele>
        <time>2022-08-27T16:01:22Z</time>
      </trkpt>
      <trkpt lat="42.2836770" lon="-8.2745520">
        <ele>1047.6</ele>
        <time>2022-08-27T16:01:23Z</time>
      </trkpt>
      <trkpt lat="42.2837150" lon="-8.2746070">
        <ele>1047.2</ele>
        <time>2022-08-27T16:01:24Z</time>
      </trkpt>
      <trkpt lat="42.2838220" lon="-8.2747680">
        <ele>1045.8</ele>
        <time>2022-08-27T16:01:27Z</time>
      </trkpt>
      <trkpt lat="42.2840660" lon="-8.2751370">
        <ele>1044.8</ele>
        <time>2022-08-27T16:01:33Z</time>
      </trkpt>
      <trkpt lat="42.2841090" lon="-8.2752150">
        <ele>1044.6</ele>
        <time>2022-08-27T16:01:34Z</time>
      </trkpt>
      <trkpt lat="42.2842330" lon="-8.2754460">
        <ele>1043.0</ele>
        <time>2022-08-27T16:01:37Z</time>
      </trkpt>
      <trkpt lat="42.2843220" lon="-8.2755790">
        <ele>1042.2</ele>
        <time>2022-08-27T16:01:39Z</time>
      </trkpt>
      <trkpt lat="42.2844160" lon="-8.2756980">
        <ele>1041.4</ele>
        <time>2022-08-27T16:01:41Z</time>
      </trkpt>
      <trkpt lat="42.2845060" lon="-8.2757960">
        <ele>1040.0</ele>
        <time>2022-08-27T16:01:43Z</time>
      </trkpt>
      <trkpt lat="42.2845540" lon="-8.2758420">
        <ele>1039.0</ele>
        <time>2022-08-27T16:01:44Z</time>
      </trkpt>
      <trkpt lat="42.2846070" lon="-8.2758820">
        <ele>1038.4</ele>
        <time>2022-08-27T16:01:45Z</time>
      </trkpt>
      <trkpt lat="42.2847210" lon="-8.2759280">
        <ele>1036.8</ele>
        <time>2022-08-27T16:01:47Z</time>
      </trkpt>
      <trkpt lat="42.2847800" lon="-8.2759260">
        <ele>1036.0</ele>
        <time>2022-08-27T16:01:48Z</time>
      </trkpt>
      <trkpt lat="42.2848340" lon="-8.2759050">
        <ele>1035.2</ele>
        <time>2022-08-27T16:01:49Z</time>
      </trkpt>
      <trkpt lat="42.2849250" lon="-8.2758100">
        <ele>1034.0</ele>
        <time>2022-08-27T16:01:51Z</time>
      </trkpt>
      <trkpt lat="42.2849850" lon="-8.2755940">
        <ele>1032.4</ele>
        <time>2022-08-27T16:01:54Z</time>
      </trkpt>
      <trkpt lat="42.2849920" lon="-8.2754480">
        <ele>1031.6</ele>
        <time>2022-08-27T16:01:56Z</time>
      </trkpt>
      <trkpt lat="42.2849930" lon="-8.2753720">
        <ele>1031.2</ele>
        <time>2022-08-27T16:01:57Z</time>
      </trkpt>
      <trkpt lat="42.2849810" lon="-8.2751310">
        <ele>1030.2</ele>
        <time>2022-08-27T16:02:00Z</time>
      </trkpt>
      <trkpt lat="42.2848860" lon="-8.2747900">
        <ele>1029.8</ele>
        <time>2022-08-27T16:02:04Z</time>
      </trkpt>
      <trkpt lat="42.2847770" lon="-8.2742680">
        <ele>1029.0</ele>
        <time>2022-08-27T16:02:09Z</time>
      </trkpt>
      <trkpt lat="42.2847390" lon="-8.2740760">
        <ele>1027.4</ele>
        <time>2022-08-27T16:02:11Z</time>
      </trkpt>
      <trkpt lat="42.2847200" lon="-8.2739880">
        <ele>1026.4</ele>
        <time>2022-08-27T16:02:12Z</time>
      </trkpt>
      <trkpt lat="42.2847010" lon="-8.2739050">
        <ele>1025.2</ele>
        <time>2022-08-27T16:02:13Z</time>
      </trkpt>
      <trkpt lat="42.2846830" lon="-8.2738240">
        <ele>1024.0</ele>
        <time>2022-08-27T16:02:14Z</time>
      </trkpt>
      <trkpt lat="42.2846660" lon="-8.2737460">
        <ele>1022.8</ele>
        <time>2022-08-27T16:02:15Z</time>
      </trkpt>
      <trkpt lat="42.2846500" lon="-8.2736770">
        <ele>1021.8</ele>
        <time>2022-08-27T16:02:16Z</time>
      </trkpt>
      <trkpt lat="42.2846230" lon="-8.2735620">
        <ele>1020.0</ele>
        <time>2022-08-27T16:02:18Z</time>
      </trkpt>
      <trkpt lat="42.2846060" lon="-8.2734640">
        <ele>1018.6</ele>
        <time>2022-08-27T16:02:20Z</time>
      </trkpt>
      <trkpt lat="42.2845950" lon="-8.2734130">
        <ele>1017.8</ele>
        <time>2022-08-27T16:02:21Z</time>
      </trkpt>
      <trkpt lat="42.2845750" lon="-8.2733580">
        <ele>1017.0</ele>
        <time>2022-08-27T16:02:22Z</time>
      </trkpt>
      <trkpt lat="42.2845020" lon="-8.2732310">
        <ele>1015.4</ele>
        <time>2022-08-27T16:02:24Z</time>
      </trkpt>
      <trkpt lat="42.2843800" lon="-8.2730900">
        <ele>1013.4</ele>
        <time>2022-08-27T16:02:26Z</time>
      </trkpt>
      <trkpt lat="42.2842410" lon="-8.2729350">
        <ele>1012.2</ele>
        <time>2022-08-27T16:02:28Z</time>
      </trkpt>
      <trkpt lat="42.2840970" lon="-8.2727780">
        <ele>1011.0</ele>
        <time>2022-08-27T16:02:30Z</time>
      </trkpt>
      <trkpt lat="42.2839620" lon="-8.2726030">
        <ele>1009.4</ele>
        <time>2022-08-27T16:02:32Z</time>
      </trkpt>
      <trkpt lat="42.2838370" lon="-8.2724260">
        <ele>1007.8</ele>
        <time>2022-08-27T16:02:34Z</time>
      </trkpt>
      <trkpt lat="42.2837340" lon="-8.2722500">
        <ele>1006.0</ele>
        <time>2022-08-27T16:02:36Z</time>
      </trkpt>
      <trkpt lat="42.2836680" lon="-8.2720790">
        <ele>1004.6</ele>
        <time>2022-08-27T16:02:38Z</time>
      </trkpt>
      <trkpt lat="42.2835740" lon="-8.2717660">
        <ele>1003.4</ele>
        <time>2022-08-27T16:02:41Z</time>
      </trkpt>
      <trkpt lat="42.2835460" lon="-8.2716480">
        <ele>1003.2</ele>
        <time>2022-08-27T16:02:42Z</time>
      </trkpt>
      <trkpt lat="42.2835240" lon="-8.2715220">
        <ele>1003.0</ele>
        <time>2022-08-27T16:02:43Z</time>
      </trkpt>
      <trkpt lat="42.2835040" lon="-8.2712390">
        <ele>1002.8</ele>
        <time>2022-08-27T16:02:45Z</time>
      </trkpt>
      <trkpt lat="42.2834720" lon="-8.2709400">
        <ele>1002.6</ele>
        <time>2022-08-27T16:02:47Z</time>
      </trkpt>
      <trkpt lat="42.2834410" lon="-8.2708010">
        <ele>1002.0</ele>
        <time>2022-08-27T16:02:48Z</time>
      </trkpt>
      <trkpt lat="42.2833540" lon="-8.2705610">
        <ele>1000.6</ele>
        <time>2022-08-27T16:02:50Z</time>
      </trkpt>
      <trkpt lat="42.2833050" lon="-8.2704620">
        <ele>999.8</ele>
        <time>2022-08-27T16:02:51Z</time>
      </trkpt>
      <trkpt lat="42.2832580" lon="-8.2703740">
        <ele>998.8</ele>
        <time>2022-08-27T16:02:52Z</time>
      </trkpt>
      <trkpt lat="42.2832150" lon="-8.2702960">
        <ele>997.6</ele>
        <time>2022-08-27T16:02:53Z</time>
      </trkpt>
      <trkpt lat="42.2831480" lon="-8.2701620">
        <ele>996.2</ele>
        <time>2022-08-27T16:02:55Z</time>
      </trkpt>
      <trkpt lat="42.2831240" lon="-8.2701050">
        <ele>996.2</ele>
        <time>2022-08-27T16:02:56Z</time>
      </trkpt>
      <trkpt lat="42.2830910" lon="-8.2699670">
        <ele>996.2</ele>
        <time>2022-08-27T16:02:59Z</time>
      </trkpt>
      <trkpt lat="42.2831320" lon="-8.2697900">
        <ele>996.6</ele>
        <time>2022-08-27T16:03:04Z</time>
      </trkpt>
      <trkpt lat="42.2831810" lon="-8.2697500">
        <ele>997.2</ele>
        <time>2022-08-27T16:03:06Z</time>
      </trkpt>
      <trkpt lat="42.2832680" lon="-8.2697210">
        <ele>998.4</ele>
        <time>2022-08-27T16:03:09Z</time>
      </trkpt>
      <trkpt lat="42.2835050" lon="-8.2697080">
        <ele>999.4</ele>
        <time>2022-08-27T16:03:17Z</time>
      </trkpt>
      <trkpt lat="42.2835610" lon="-8.2697130">
        <ele>999.4</ele>
        <time>2022-08-27T16:03:19Z</time>
      </trkpt>
      <trkpt lat="42.2837070" lon="-8.2697020">
        <ele>1000.2</ele>
        <time>2022-08-27T16:03:26Z</time>
      </trkpt>
      <trkpt lat="42.2837520" lon="-8.2696970">
        <ele>1000.4</ele>
        <time>2022-08-27T16:03:29Z</time>
      </trkpt>
      <trkpt lat="42.2838290" lon="-8.2696880">
        <ele>1001.6</ele>
        <time>2022-08-27T16:03:35Z</time>
      </trkpt>
      <trkpt lat="42.2838410" lon="-8.2696840">
        <ele>1001.8</ele>
        <time>2022-08-27T16:03:36Z</time>
      </trkpt>
      <trkpt lat="42.2839040" lon="-8.2696760">
        <ele>1002.8</ele>
        <time>2022-08-27T16:03:41Z</time>
      </trkpt>
      <trkpt lat="42.2839760" lon="-8.2696600">
        <ele>1003.8</ele>
        <time>2022-08-27T16:03:47Z</time>
      </trkpt>
      <trkpt lat="42.2840540" lon="-8.2696690">
        <ele>1004.8</ele>
        <time>2022-08-27T16:03:53Z</time>
      </trkpt>
      <trkpt lat="42.2840930" lon="-8.2696650">
        <ele>1005.2</ele>
        <time>2022-08-27T16:03:56Z</time>
      </trkpt>
      <trkpt lat="42.2841760" lon="-8.2696510">
        <ele>1006.0</ele>
        <time>2022-08-27T16:04:02Z</time>
      </trkpt>
      <trkpt lat="42.2842320" lon="-8.2696420">
        <ele>1006.8</ele>
        <time>2022-08-27T16:04:06Z</time>
      </trkpt>
      <trkpt lat="42.2842580" lon="-8.2696360">
        <ele>1007.0</ele>
        <time>2022-08-27T16:04:08Z</time>
      </trkpt>
      <trkpt lat="42.2843490" lon="-8.2696260">
        <ele>1008.2</ele>
        <time>2022-08-27T16:04:14Z</time>
      </trkpt>
      <trkpt lat="42.2844060" lon="-8.2696210">
        <ele>1008.6</ele>
        <time>2022-08-27T16:04:17Z</time>
      </trkpt>
      <trkpt lat="42.2845940" lon="-8.2695810">
        <ele>1008.8</ele>
        <time>2022-08-27T16:04:26Z</time>
      </trkpt>
      <trkpt lat="42.2847070" lon="-8.2695530">
        <ele>1009.2</ele>
        <time>2022-08-27T16:04:31Z</time>
      </trkpt>
      <trkpt lat="42.2848240" lon="-8.2695220">
        <ele>1009.4</ele>
        <time>2022-08-27T16:04:36Z</time>
      </trkpt>
      <trkpt lat="42.2850260" lon="-8.2694760">
        <ele>1010.0</ele>
        <time>2022-08-27T16:04:45Z</time>
      </trkpt>
      <trkpt lat="42.2850890" lon="-8.2694550">
        <ele>1010.4</ele>
        <time>2022-08-27T16:04:48Z</time>
      </trkpt>
      <trkpt lat="42.2851700" lon="-8.2694360">
        <ele>1010.8</ele>
        <time>2022-08-27T16:04:53Z</time>
      </trkpt>
      <trkpt lat="42.2852340" lon="-8.2694190">
        <ele>1011.6</ele>
        <time>2022-08-27T16:04:58Z</time>
      </trkpt>
      <trkpt lat="42.2852770" lon="-8.2694110">
        <ele>1012.0</ele>
        <time>2022-08-27T16:05:02Z</time>
      </trkpt>
      <trkpt lat="42.2853100" lon="-8.2694020">
        <ele>1012.6</ele>
        <time>2022-08-27T16:05:05Z</time>
      </trkpt>
      <trkpt lat="42.2854010" lon="-8.2693650">
        <ele>1013.8</ele>
        <time>2022-08-27T16:05:13Z</time>
      </trkpt>
      <trkpt lat="42.2854420" lon="-8.2693340">
        <ele>1015.0</ele>
        <time>2022-08-27T16:05:17Z</time>
      </trkpt>
      <trkpt lat="42.2854840" lon="-8.2693110">
        <ele>1016.0</ele>
        <time>2022-08-27T16:05:21Z</time>
      </trkpt>
      <trkpt lat="42.2855680" lon="-8.2692740">
        <ele>1017.0</ele>
        <time>2022-08-27T16:05:29Z</time>
      </trkpt>
      <trkpt lat="42.2856000" lon="-8.2692540">
        <ele>1017.4</ele>
        <time>2022-08-27T16:05:32Z</time>
      </trkpt>
      <trkpt lat="42.2856420" lon="-8.2692260">
        <ele>1018.0</ele>
        <time>2022-08-27T16:05:36Z</time>
      </trkpt>
      <trkpt lat="42.2857010" lon="-8.2691750">
        <ele>1018.4</ele>
        <time>2022-08-27T16:05:42Z</time>
      </trkpt>
      <trkpt lat="42.2857290" lon="-8.2691510">
        <ele>1019.0</ele>
        <time>2022-08-27T16:05:45Z</time>
      </trkpt>
      <trkpt lat="42.2857990" lon="-8.2690960">
        <ele>1019.6</ele>
        <time>2022-08-27T16:05:52Z</time>
      </trkpt>
      <trkpt lat="42.2858400" lon="-8.2690660">
        <ele>1020.2</ele>
        <time>2022-08-27T16:05:56Z</time>
      </trkpt>
      <trkpt lat="42.2859080" lon="-8.2690160">
        <ele>1021.0</ele>
        <time>2022-08-27T16:06:03Z</time>
      </trkpt>
      <trkpt lat="42.2859190" lon="-8.2690120">
        <ele>1021.2</ele>
        <time>2022-08-27T16:06:04Z</time>
      </trkpt>
      <trkpt lat="42.2859860" lon="-8.2689760">
        <ele>1022.4</ele>
        <time>2022-08-27T16:06:11Z</time>
      </trkpt>
      <trkpt lat="42.2859950" lon="-8.2689710">
        <ele>1022.4</ele>
        <time>2022-08-27T16:06:12Z</time>
      </trkpt>
      <trkpt lat="42.2860540" lon="-8.2689370">
        <ele>1023.6</ele>
        <time>2022-08-27T16:06:18Z</time>
      </trkpt>
      <trkpt lat="42.2861060" lon="-8.2689060">
        <ele>1024.4</ele>
        <time>2022-08-27T16:06:23Z</time>
      </trkpt>
      <trkpt lat="42.2861270" lon="-8.2688900">
        <ele>1024.6</ele>
        <time>2022-08-27T16:06:25Z</time>
      </trkpt>
      <trkpt lat="42.2862240" lon="-8.2688370">
        <ele>1025.6</ele>
        <time>2022-08-27T16:06:34Z</time>
      </trkpt>
      <trkpt lat="42.2862340" lon="-8.2688330">
        <ele>1025.8</ele>
        <time>2022-08-27T16:06:35Z</time>
      </trkpt>
      <trkpt lat="42.2863210" lon="-8.2687920">
        <ele>1026.8</ele>
        <time>2022-08-27T16:06:43Z</time>
      </trkpt>
      <trkpt lat="42.2863320" lon="-8.2687850">
        <ele>1026.8</ele>
        <time>2022-08-27T16:06:44Z</time>
      </trkpt>
      <trkpt lat="42.2863890" lon="-8.2687570">
        <ele>1027.8</ele>
        <time>2022-08-27T16:06:49Z</time>
      </trkpt>
      <trkpt lat="42.2864600" lon="-8.2687150">
        <ele>1028.2</ele>
        <time>2022-08-27T16:06:55Z</time>
      </trkpt>
      <trkpt lat="42.2865290" lon="-8.2686920">
        <ele>1028.8</ele>
        <time>2022-08-27T16:07:00Z</time>
      </trkpt>
      <trkpt lat="42.2865880" lon="-8.2686740">
        <ele>1029.4</ele>
        <time>2022-08-27T16:07:04Z</time>
      </trkpt>
      <trkpt lat="42.2866190" lon="-8.2686650">
        <ele>1030.0</ele>
        <time>2022-08-27T16:07:06Z</time>
      </trkpt>
      <trkpt lat="42.2867590" lon="-8.2686190">
        <ele>1031.0</ele>
        <time>2022-08-27T16:07:15Z</time>
      </trkpt>
      <trkpt lat="42.2868990" lon="-8.2685980">
        <ele>1032.0</ele>
        <time>2022-08-27T16:07:24Z</time>
      </trkpt>
      <trkpt lat="42.2869420" lon="-8.2685880">
        <ele>1032.2</ele>
        <time>2022-08-27T16:07:27Z</time>
      </trkpt>
      <trkpt lat="42.2870330" lon="-8.2685410">
        <ele>1032.8</ele>
        <time>2022-08-27T16:07:34Z</time>
      </trkpt>
      <trkpt lat="42.2870790" lon="-8.2685150">
        <ele>1033.2</ele>
        <time>2022-08-27T16:07:38Z</time>
      </trkpt>
      <trkpt lat="42.2871130" lon="-8.2684960">
        <ele>1033.8</ele>
        <time>2022-08-27T16:07:41Z</time>
      </trkpt>
      <trkpt lat="42.2871360" lon="-8.2684830">
        <ele>1034.2</ele>
        <time>2022-08-27T16:07:43Z</time>
      </trkpt>
      <trkpt lat="42.2872000" lon="-8.2684360">
        <ele>1035.4</ele>
        <time>2022-08-27T16:07:49Z</time>
      </trkpt>
      <trkpt lat="42.2872070" lon="-8.2684240">
        <ele>1035.6</ele>
        <time>2022-08-27T16:07:50Z</time>
      </trkpt>
      <trkpt lat="42.2872590" lon="-8.2683740">
        <ele>1036.6</ele>
        <time>2022-08-27T16:07:56Z</time>
      </trkpt>
      <trkpt lat="42.2872720" lon="-8.2683570">
        <ele>1036.6</ele>
        <time>2022-08-27T16:07:58Z</time>
      </trkpt>
      <trkpt lat="42.2872950" lon="-8.2683320">
        <ele>1037.6</ele>
        <time>2022-08-27T16:08:01Z</time>
      </trkpt>
      <trkpt lat="42.2873280" lon="-8.2683020">
        <ele>1038.4</ele>
        <time>2022-08-27T16:08:05Z</time>
      </trkpt>
      <trkpt lat="42.2873450" lon="-8.2682920">
        <ele>1038.6</ele>
        <time>2022-08-27T16:08:07Z</time>
      </trkpt>
      <trkpt lat="42.2873890" lon="-8.2682660">
        <ele>1039.6</ele>
        <time>2022-08-27T16:08:12Z</time>
      </trkpt>
      <trkpt lat="42.2873990" lon="-8.2682630">
        <ele>1040.0</ele>
        <time>2022-08-27T16:08:13Z</time>
      </trkpt>
      <trkpt lat="42.2874820" lon="-8.2682290">
        <ele>1041.4</ele>
        <time>2022-08-27T16:08:21Z</time>
      </trkpt>
      <trkpt lat="42.2874940" lon="-8.2682240">
        <ele>1041.6</ele>
        <time>2022-08-27T16:08:22Z</time>
      </trkpt>
      <trkpt lat="42.2875550" lon="-8.2681940">
        <ele>1042.4</ele>
        <time>2022-08-27T16:08:27Z</time>
      </trkpt>
      <trkpt lat="42.2875820" lon="-8.2681830">
        <ele>1042.6</ele>
        <time>2022-08-27T16:08:29Z</time>
      </trkpt>
      <trkpt lat="42.2877120" lon="-8.2681600">
        <ele>1043.2</ele>
        <time>2022-08-27T16:08:36Z</time>
      </trkpt>
      <trkpt lat="42.2877480" lon="-8.2681560">
        <ele>1043.4</ele>
        <time>2022-08-27T16:08:38Z</time>
      </trkpt>
      <trkpt lat="42.2878900" lon="-8.2681360">
        <ele>1044.2</ele>
        <time>2022-08-27T16:08:45Z</time>
      </trkpt>
      <trkpt lat="42.2879610" lon="-8.2681290">
        <ele>1044.4</ele>
        <time>2022-08-27T16:08:48Z</time>
      </trkpt>
      <trkpt lat="42.2881170" lon="-8.2681260">
        <ele>1044.6</ele>
        <time>2022-08-27T16:08:54Z</time>
      </trkpt>
      <trkpt lat="42.2883310" lon="-8.2681020">
        <ele>1044.6</ele>
        <time>2022-08-27T16:09:02Z</time>
      </trkpt>
      <trkpt lat="42.2885450" lon="-8.2680510">
        <ele>1044.8</ele>
        <time>2022-08-27T16:09:11Z</time>
      </trkpt>
      <trkpt lat="42.2886700" lon="-8.2680130">
        <ele>1045.6</ele>
        <time>2022-08-27T16:09:18Z</time>
      </trkpt>
      <trkpt lat="42.2887050" lon="-8.2680030">
        <ele>1045.8</ele>
        <time>2022-08-27T16:09:20Z</time>
      </trkpt>
      <trkpt lat="42.2887720" lon="-8.2679840">
        <ele>1046.4</ele>
        <time>2022-08-27T16:09:24Z</time>
      </trkpt>
      <trkpt lat="42.2888650" lon="-8.2679610">
        <ele>1047.2</ele>
        <time>2022-08-27T16:09:29Z</time>
      </trkpt>
      <trkpt lat="42.2889020" lon="-8.2679550">
        <ele>1047.4</ele>
        <time>2022-08-27T16:09:31Z</time>
      </trkpt>
      <trkpt lat="42.2890380" lon="-8.2679210">
        <ele>1048.6</ele>
        <time>2022-08-27T16:09:38Z</time>
      </trkpt>
      <trkpt lat="42.2890580" lon="-8.2679150">
        <ele>1048.6</ele>
        <time>2022-08-27T16:09:39Z</time>
      </trkpt>
      <trkpt lat="42.2891960" lon="-8.2678710">
        <ele>1049.6</ele>
        <time>2022-08-27T16:09:46Z</time>
      </trkpt>
      <trkpt lat="42.2892500" lon="-8.2678510">
        <ele>1049.8</ele>
        <time>2022-08-27T16:09:49Z</time>
      </trkpt>
      <trkpt lat="42.2893340" lon="-8.2678260">
        <ele>1050.8</ele>
        <time>2022-08-27T16:09:54Z</time>
      </trkpt>
      <trkpt lat="42.2894070" lon="-8.2677870">
        <ele>1051.4</ele>
        <time>2022-08-27T16:09:59Z</time>
      </trkpt>
      <trkpt lat="42.2894530" lon="-8.2677630">
        <ele>1051.6</ele>
        <time>2022-08-27T16:10:02Z</time>
      </trkpt>
      <trkpt lat="42.2895260" lon="-8.2677440">
        <ele>1052.6</ele>
        <time>2022-08-27T16:10:07Z</time>
      </trkpt>
      <trkpt lat="42.2895420" lon="-8.2677380">
        <ele>1052.8</ele>
        <time>2022-08-27T16:10:08Z</time>
      </trkpt>
      <trkpt lat="42.2895880" lon="-8.2677160">
        <ele>1053.8</ele>
        <time>2022-08-27T16:10:11Z</time>
      </trkpt>
      <trkpt lat="42.2897110" lon="-8.2676500">
        <ele>1055.0</ele>
        <time>2022-08-27T16:10:19Z</time>
      </trkpt>
      <trkpt lat="42.2898000" lon="-8.2676050">
        <ele>1056.0</ele>
        <time>2022-08-27T16:10:25Z</time>
      </trkpt>
      <trkpt lat="42.2898750" lon="-8.2675700">
        <ele>1056.8</ele>
        <time>2022-08-27T16:10:30Z</time>
      </trkpt>
      <trkpt lat="42.2899040" lon="-8.2675560">
        <ele>1057.2</ele>
        <time>2022-08-27T16:10:32Z</time>
      </trkpt>
      <trkpt lat="42.2899780" lon="-8.2675050">
        <ele>1058.0</ele>
        <time>2022-08-27T16:10:38Z</time>
      </trkpt>
      <trkpt lat="42.2899890" lon="-8.2674940">
        <ele>1058.2</ele>
        <time>2022-08-27T16:10:39Z</time>
      </trkpt>
      <trkpt lat="42.2900690" lon="-8.2674270">
        <ele>1059.2</ele>
        <time>2022-08-27T16:10:46Z</time>
      </trkpt>
      <trkpt lat="42.2900960" lon="-8.2674100">
        <ele>1059.6</ele>
        <time>2022-08-27T16:10:48Z</time>
      </trkpt>
      <trkpt lat="42.2901760" lon="-8.2673440">
        <ele>1060.4</ele>
        <time>2022-08-27T16:10:54Z</time>
      </trkpt>
      <trkpt lat="42.2902270" lon="-8.2673070">
        <ele>1061.2</ele>
        <time>2022-08-27T16:10:58Z</time>
      </trkpt>
      <trkpt lat="42.2902650" lon="-8.2672800">
        <ele>1061.6</ele>
        <time>2022-08-27T16:11:01Z</time>
      </trkpt>
      <trkpt lat="42.2903660" lon="-8.2672040">
        <ele>1062.6</ele>
        <time>2022-08-27T16:11:08Z</time>
      </trkpt>
      <trkpt lat="42.2903800" lon="-8.2671920">
        <ele>1062.6</ele>
        <time>2022-08-27T16:11:09Z</time>
      </trkpt>
      <trkpt lat="42.2905080" lon="-8.2671060">
        <ele>1063.6</ele>
        <time>2022-08-27T16:11:17Z</time>
      </trkpt>
      <trkpt lat="42.2905260" lon="-8.2670980">
        <ele>1063.8</ele>
        <time>2022-08-27T16:11:18Z</time>
      </trkpt>
      <trkpt lat="42.2906230" lon="-8.2670550">
        <ele>1064.8</ele>
        <time>2022-08-27T16:11:24Z</time>
      </trkpt>
      <trkpt lat="42.2906690" lon="-8.2670370">
        <ele>1065.2</ele>
        <time>2022-08-27T16:11:27Z</time>
      </trkpt>
      <trkpt lat="42.2907280" lon="-8.2670210">
        <ele>1065.8</ele>
        <time>2022-08-27T16:11:31Z</time>
      </trkpt>
      <trkpt lat="42.2907900" lon="-8.2670050">
        <ele>1066.8</ele>
        <time>2022-08-27T16:11:35Z</time>
      </trkpt>
      <trkpt lat="42.2908070" lon="-8.2670010">
        <ele>1067.0</ele>
        <time>2022-08-27T16:11:36Z</time>
      </trkpt>
      <trkpt lat="42.2908850" lon="-8.2669860">
        <ele>1067.8</ele>
        <time>2022-08-27T16:11:41Z</time>
      </trkpt>
      <trkpt lat="42.2909500" lon="-8.2669710">
        <ele>1068.2</ele>
        <time>2022-08-27T16:11:45Z</time>
      </trkpt>
      <trkpt lat="42.2910600" lon="-8.2669530">
        <ele>1069.0</ele>
        <time>2022-08-27T16:11:52Z</time>
      </trkpt>
      <trkpt lat="42.2910880" lon="-8.2669480">
        <ele>1069.0</ele>
        <time>2022-08-27T16:11:54Z</time>
      </trkpt>
      <trkpt lat="42.2911710" lon="-8.2669390">
        <ele>1069.8</ele>
        <time>2022-08-27T16:12:00Z</time>
      </trkpt>
      <trkpt lat="42.2911970" lon="-8.2669350">
        <ele>1070.4</ele>
        <time>2022-08-27T16:12:02Z</time>
      </trkpt>
      <trkpt lat="42.2912700" lon="-8.2669290">
        <ele>1070.8</ele>
        <time>2022-08-27T16:12:07Z</time>
      </trkpt>
      <trkpt lat="42.2913250" lon="-8.2669320">
        <ele>1071.6</ele>
        <time>2022-08-27T16:12:11Z</time>
      </trkpt>
      <trkpt lat="42.2913590" lon="-8.2669350">
        <ele>1072.0</ele>
        <time>2022-08-27T16:12:14Z</time>
      </trkpt>
      <trkpt lat="42.2914240" lon="-8.2669450">
        <ele>1072.8</ele>
        <time>2022-08-27T16:12:19Z</time>
      </trkpt>
      <trkpt lat="42.2914530" lon="-8.2669490">
        <ele>1073.0</ele>
        <time>2022-08-27T16:12:21Z</time>
      </trkpt>
      <trkpt lat="42.2915500" lon="-8.2669630">
        <ele>1073.6</ele>
        <time>2022-08-27T16:12:28Z</time>
      </trkpt>
      <trkpt lat="42.2915960" lon="-8.2669830">
        <ele>1074.0</ele>
        <time>2022-08-27T16:12:31Z</time>
      </trkpt>
      <trkpt lat="42.2916860" lon="-8.2670170">
        <ele>1075.0</ele>
        <time>2022-08-27T16:12:36Z</time>
      </trkpt>
      <trkpt lat="42.2918270" lon="-8.2670620">
        <ele>1075.4</ele>
        <time>2022-08-27T16:12:43Z</time>
      </trkpt>
      <trkpt lat="42.2920420" lon="-8.2670670">
        <ele>1075.6</ele>
        <time>2022-08-27T16:12:52Z</time>
      </trkpt>
      <trkpt lat="42.2921870" lon="-8.2670000">
        <ele>1076.0</ele>
        <time>2022-08-27T16:13:00Z</time>
      </trkpt>
      <trkpt lat="42.2922020" lon="-8.2669830">
        <ele>1076.2</ele>
        <time>2022-08-27T16:13:01Z</time>
      </trkpt>
      <trkpt lat="42.2922330" lon="-8.2669440">
        <ele>1077.2</ele>
        <time>2022-08-27T16:13:03Z</time>
      </trkpt>
      <trkpt lat="42.2923150" lon="-8.2668490">
        <ele>1077.8</ele>
        <time>2022-08-27T16:13:08Z</time>
      </trkpt>
      <trkpt lat="42.2923480" lon="-8.2668030">
        <ele>1078.2</ele>
        <time>2022-08-27T16:13:10Z</time>
      </trkpt>
      <trkpt lat="42.2924630" lon="-8.2666870">
        <ele>1078.8</ele>
        <time>2022-08-27T16:13:16Z</time>
      </trkpt>
      <trkpt lat="42.2926050" lon="-8.2666020">
        <ele>1079.0</ele>
        <time>2022-08-27T16:13:22Z</time>
      </trkpt>
      <trkpt lat="42.2926300" lon="-8.2665910">
        <ele>1079.2</ele>
        <time>2022-08-27T16:13:23Z</time>
      </trkpt>
      <trkpt lat="42.2927860" lon="-8.2664860">
        <ele>1079.8</ele>
        <time>2022-08-27T16:13:29Z</time>
      </trkpt>
      <trkpt lat="42.2930280" lon="-8.2663570">
        <ele>1080.0</ele>
        <time>2022-08-27T16:13:36Z</time>
      </trkpt>
      <trkpt lat="42.2932700" lon="-8.2663550">
        <ele>1079.8</ele>
        <time>2022-08-27T16:13:42Z</time>
      </trkpt>
      <trkpt lat="42.2935850" lon="-8.2664760">
        <ele>1079.6</ele>
        <time>2022-08-27T16:13:50Z</time>
      </trkpt>
      <trkpt lat="42.2939120" lon="-8.2665720">
        <ele>1079.4</ele>
        <time>2022-08-27T16:13:58Z</time>
      </trkpt>
      <trkpt lat="42.2941660" lon="-8.2666500">
        <ele>1079.6</ele>
        <time>2022-08-27T16:14:05Z</time>
      </trkpt>
      <trkpt lat="42.2945340" lon="-8.2667690">
        <ele>1079.6</ele>
        <time>2022-08-27T16:14:13Z</time>
      </trkpt>
      <trkpt lat="42.2948270" lon="-8.2668310">
        <ele>1079.4</ele>
        <time>2022-08-27T16:14:20Z</time>
      </trkpt>
      <trkpt lat="42.2950660" lon="-8.2668800">
        <ele>1079.4</ele>
        <time>2022-08-27T16:14:28Z</time>
      </trkpt>
      <trkpt lat="42.2951510" lon="-8.2669110">
        <ele>1080.0</ele>
        <time>2022-08-27T16:14:31Z</time>
      </trkpt>
      <trkpt lat="42.2952880" lon="-8.2669750">
        <ele>1080.8</ele>
        <time>2022-08-27T16:14:36Z</time>
      </trkpt>
      <trkpt lat="42.2953650" lon="-8.2670210">
        <ele>1081.2</ele>
        <time>2022-08-27T16:14:39Z</time>
      </trkpt>
      <trkpt lat="42.2954890" lon="-8.2671120">
        <ele>1081.6</ele>
        <time>2022-08-27T16:14:45Z</time>
      </trkpt>
      <trkpt lat="42.2956130" lon="-8.2672280">
        <ele>1082.2</ele>
        <time>2022-08-27T16:14:52Z</time>
      </trkpt>
      <trkpt lat="42.2956650" lon="-8.2672680">
        <ele>1082.8</ele>
        <time>2022-08-27T16:14:55Z</time>
      </trkpt>
      <trkpt lat="42.2957190" lon="-8.2672990">
        <ele>1083.4</ele>
        <time>2022-08-27T16:14:58Z</time>
      </trkpt>
      <trkpt lat="42.2958400" lon="-8.2673490">
        <ele>1084.4</ele>
        <time>2022-08-27T16:15:04Z</time>
      </trkpt>
      <trkpt lat="42.2958630" lon="-8.2673510">
        <ele>1084.6</ele>
        <time>2022-08-27T16:15:05Z</time>
      </trkpt>
      <trkpt lat="42.2960040" lon="-8.2673250">
        <ele>1085.6</ele>
        <time>2022-08-27T16:15:11Z</time>
      </trkpt>
      <trkpt lat="42.2961490" lon="-8.2672090">
        <ele>1086.0</ele>
        <time>2022-08-27T16:15:18Z</time>
      </trkpt>
      <trkpt lat="42.2962680" lon="-8.2670700">
        <ele>1086.6</ele>
        <time>2022-08-27T16:15:23Z</time>
      </trkpt>
      <trkpt lat="42.2963760" lon="-8.2669480">
        <ele>1086.8</ele>
        <time>2022-08-27T16:15:27Z</time>
      </trkpt>
      <trkpt lat="42.2966500" lon="-8.2667310">
        <ele>1086.8</ele>
        <time>2022-08-27T16:15:35Z</time>
      </trkpt>
      <trkpt lat="42.2967300" lon="-8.2667010">
        <ele>1086.8</ele>
        <time>2022-08-27T16:15:37Z</time>
      </trkpt>
      <trkpt lat="42.2968830" lon="-8.2666820">
        <ele>1086.8</ele>
        <time>2022-08-27T16:15:41Z</time>
      </trkpt>
      <trkpt lat="42.2971790" lon="-8.2666920">
        <ele>1086.8</ele>
        <time>2022-08-27T16:15:50Z</time>
      </trkpt>
      <trkpt lat="42.2973640" lon="-8.2666970">
        <ele>1087.8</ele>
        <time>2022-08-27T16:15:57Z</time>
      </trkpt>
      <trkpt lat="42.2974090" lon="-8.2666910">
        <ele>1088.0</ele>
        <time>2022-08-27T16:15:59Z</time>
      </trkpt>
      <trkpt lat="42.2975360" lon="-8.2666750">
        <ele>1089.0</ele>
        <time>2022-08-27T16:16:05Z</time>
      </trkpt>
      <trkpt lat="42.2976110" lon="-8.2666620">
        <ele>1089.4</ele>
        <time>2022-08-27T16:16:09Z</time>
      </trkpt>
      <trkpt lat="42.2976850" lon="-8.2666480">
        <ele>1090.0</ele>
        <time>2022-08-27T16:16:13Z</time>
      </trkpt>
      <trkpt lat="42.2977720" lon="-8.2666380">
        <ele>1090.6</ele>
        <time>2022-08-27T16:16:18Z</time>
      </trkpt>
      <trkpt lat="42.2978470" lon="-8.2666270">
        <ele>1091.0</ele>
        <time>2022-08-27T16:16:22Z</time>
      </trkpt>
      <trkpt lat="42.2979200" lon="-8.2666260">
        <ele>1091.2</ele>
        <time>2022-08-27T16:16:26Z</time>
      </trkpt>
      <trkpt lat="42.2980090" lon="-8.2666150">
        <ele>1092.0</ele>
        <time>2022-08-27T16:16:31Z</time>
      </trkpt>
      <trkpt lat="42.2980940" lon="-8.2666050">
        <ele>1092.6</ele>
        <time>2022-08-27T16:16:36Z</time>
      </trkpt>
      <trkpt lat="42.2981770" lon="-8.2665960">
        <ele>1093.2</ele>
        <time>2022-08-27T16:16:41Z</time>
      </trkpt>
      <trkpt lat="42.2982400" lon="-8.2665830">
        <ele>1093.8</ele>
        <time>2022-08-27T16:16:45Z</time>
      </trkpt>
      <trkpt lat="42.2982880" lon="-8.2665700">
        <ele>1094.2</ele>
        <time>2022-08-27T16:16:48Z</time>
      </trkpt>
      <trkpt lat="42.2983560" lon="-8.2665620">
        <ele>1094.8</ele>
        <time>2022-08-27T16:16:52Z</time>
      </trkpt>
      <trkpt lat="42.2984070" lon="-8.2665560">
        <ele>1095.2</ele>
        <time>2022-08-27T16:16:55Z</time>
      </trkpt>
      <trkpt lat="42.2984950" lon="-8.2665410">
        <ele>1096.0</ele>
        <time>2022-08-27T16:17:00Z</time>
      </trkpt>
      <trkpt lat="42.2985690" lon="-8.2665390">
        <ele>1096.4</ele>
        <time>2022-08-27T16:17:04Z</time>
      </trkpt>
      <trkpt lat="42.2986660" lon="-8.2665270">
        <ele>1097.0</ele>
        <time>2022-08-27T16:17:09Z</time>
      </trkpt>
      <trkpt lat="42.2987930" lon="-8.2665080">
        <ele>1097.6</ele>
        <time>2022-08-27T16:17:16Z</time>
      </trkpt>
      <trkpt lat="42.2988660" lon="-8.2664970">
        <ele>1098.0</ele>
        <time>2022-08-27T16:17:20Z</time>
      </trkpt>
      <trkpt lat="42.2989370" lon="-8.2664880">
        <ele>1098.4</ele>
        <time>2022-08-27T16:17:24Z</time>
      </trkpt>
      <trkpt lat="42.2990650" lon="-8.2664690">
        <ele>1099.2</ele>
        <time>2022-08-27T16:17:31Z</time>
      </trkpt>
      <trkpt lat="42.2991200" lon="-8.2664640">
        <ele>1099.4</ele>
        <time>2022-08-27T16:17:34Z</time>
      </trkpt>
      <trkpt lat="42.2992150" lon="-8.2664470">
        <ele>1100.0</ele>
        <time>2022-08-27T16:17:39Z</time>
      </trkpt>
      <trkpt lat="42.2993250" lon="-8.2664390">
        <ele>1100.6</ele>
        <time>2022-08-27T16:17:45Z</time>
      </trkpt>
      <trkpt lat="42.2993790" lon="-8.2664390">
        <ele>1100.8</ele>
        <time>2022-08-27T16:17:48Z</time>
      </trkpt>
      <trkpt lat="42.2994300" lon="-8.2664330">
        <ele>1101.8</ele>
        <time>2022-08-27T16:17:51Z</time>
      </trkpt>
      <trkpt lat="42.2995570" lon="-8.2664290">
        <ele>1102.2</ele>
        <time>2022-08-27T16:17:58Z</time>
      </trkpt>
      <trkpt lat="42.2996710" lon="-8.2664250">
        <ele>1102.8</ele>
        <time>2022-08-27T16:18:04Z</time>
      </trkpt>
      <trkpt lat="42.2997370" lon="-8.2664390">
        <ele>1103.6</ele>
        <time>2022-08-27T16:18:08Z</time>
      </trkpt>
      <trkpt lat="42.2997540" lon="-8.2664420">
        <ele>1104.0</ele>
        <time>2022-08-27T16:18:09Z</time>
      </trkpt>
      <trkpt lat="42.2998410" lon="-8.2664480">
        <ele>1105.0</ele>
        <time>2022-08-27T16:18:14Z</time>
      </trkpt>
      <trkpt lat="42.2999050" lon="-8.2664520">
        <ele>1105.6</ele>
        <time>2022-08-27T16:18:17Z</time>
      </trkpt>
      <trkpt lat="42.3000740" lon="-8.2664700">
        <ele>1105.8</ele>
        <time>2022-08-27T16:18:23Z</time>
      </trkpt>
      <trkpt lat="42.3002930" lon="-8.2664480">
        <ele>1105.6</ele>
        <time>2022-08-27T16:18:29Z</time>
      </trkpt>
      <trkpt lat="42.3004770" lon="-8.2663970">
        <ele>1105.0</ele>
        <time>2022-08-27T16:18:34Z</time>
      </trkpt>
      <trkpt lat="42.3007590" lon="-8.2663400">
        <ele>1105.0</ele>
        <time>2022-08-27T16:18:43Z</time>
      </trkpt>
      <trkpt lat="42.3009800" lon="-8.2662660">
        <ele>1105.6</ele>
        <time>2022-08-27T16:18:51Z</time>
      </trkpt>
      <trkpt lat="42.3011450" lon="-8.2661900">
        <ele>1105.8</ele>
        <time>2022-08-27T16:18:58Z</time>
      </trkpt>
      <trkpt lat="42.3012340" lon="-8.2661580">
        <ele>1106.2</ele>
        <time>2022-08-27T16:19:02Z</time>
      </trkpt>
      <trkpt lat="42.3013160" lon="-8.2661280">
        <ele>1106.8</ele>
        <time>2022-08-27T16:19:06Z</time>
      </trkpt>
      <trkpt lat="42.3013560" lon="-8.2661120">
        <ele>1107.2</ele>
        <time>2022-08-27T16:19:08Z</time>
      </trkpt>
      <trkpt lat="42.3013770" lon="-8.2661050">
        <ele>1107.4</ele>
        <time>2022-08-27T16:19:09Z</time>
      </trkpt>
      <trkpt lat="42.3014830" lon="-8.2660500">
        <ele>1107.6</ele>
        <time>2022-08-27T16:19:14Z</time>
      </trkpt>
      <trkpt lat="42.3015820" lon="-8.2659790">
        <ele>1108.2</ele>
        <time>2022-08-27T16:19:19Z</time>
      </trkpt>
      <trkpt lat="42.3016130" lon="-8.2659480">
        <ele>1108.4</ele>
        <time>2022-08-27T16:19:21Z</time>
      </trkpt>
      <trkpt lat="42.3017550" lon="-8.2658440">
        <ele>1109.2</ele>
        <time>2022-08-27T16:19:28Z</time>
      </trkpt>
      <trkpt lat="42.3017770" lon="-8.2658310">
        <ele>1109.2</ele>
        <time>2022-08-27T16:19:29Z</time>
      </trkpt>
      <trkpt lat="42.3019130" lon="-8.2657890">
        <ele>1110.2</ele>
        <time>2022-08-27T16:19:35Z</time>
      </trkpt>
      <trkpt lat="42.3019400" lon="-8.2657840">
        <ele>1110.4</ele>
        <time>2022-08-27T16:19:36Z</time>
      </trkpt>
      <trkpt lat="42.3021320" lon="-8.2657800">
        <ele>1111.0</ele>
        <time>2022-08-27T16:19:43Z</time>
      </trkpt>
      <trkpt lat="42.3021880" lon="-8.2657770">
        <ele>1111.4</ele>
        <time>2022-08-27T16:19:45Z</time>
      </trkpt>
      <trkpt lat="42.3024780" lon="-8.2658000">
        <ele>1111.8</ele>
        <time>2022-08-27T16:19:55Z</time>
      </trkpt>
      <trkpt lat="42.3025710" lon="-8.2658150">
        <ele>1112.2</ele>
        <time>2022-08-27T16:19:58Z</time>
      </trkpt>
      <trkpt lat="42.3027910" lon="-8.2658610">
        <ele>1112.6</ele>
        <time>2022-08-27T16:20:05Z</time>
      </trkpt>
      <trkpt lat="42.3030170" lon="-8.2659240">
        <ele>1112.8</ele>
        <time>2022-08-27T16:20:13Z</time>
      </trkpt>
      <trkpt lat="42.3031210" lon="-8.2659410">
        <ele>1113.2</ele>
        <time>2022-08-27T16:20:17Z</time>
      </trkpt>
      <trkpt lat="42.3032960" lon="-8.2659500">
        <ele>1114.0</ele>
        <time>2022-08-27T16:20:24Z</time>
      </trkpt>
      <trkpt lat="42.3033710" lon="-8.2659440">
        <ele>1114.4</ele>
        <time>2022-08-27T16:20:27Z</time>
      </trkpt>
      <trkpt lat="42.3035630" lon="-8.2659190">
        <ele>1115.2</ele>
        <time>2022-08-27T16:20:34Z</time>
      </trkpt>
      <trkpt lat="42.3036640" lon="-8.2658860">
        <ele>1115.4</ele>
        <time>2022-08-27T16:20:38Z</time>
      </trkpt>
      <trkpt lat="42.3037360" lon="-8.2658560">
        <ele>1115.2</ele>
        <time>2022-08-27T16:20:41Z</time>
      </trkpt>
      <trkpt lat="42.3039580" lon="-8.2657950">
        <ele>1115.8</ele>
        <time>2022-08-27T16:20:50Z</time>
      </trkpt>
      <trkpt lat="42.3040690" lon="-8.2657950">
        <ele>1116.2</ele>
        <time>2022-08-27T16:20:54Z</time>
      </trkpt>
      <trkpt lat="42.3041620" lon="-8.2657870">
        <ele>1116.4</ele>
        <time>2022-08-27T16:20:58Z</time>
      </trkpt>
      <trkpt lat="42.3042520" lon="-8.2658210">
        <ele>1116.6</ele>
        <time>2022-08-27T16:21:04Z</time>
      </trkpt>
      <trkpt lat="42.3042710" lon="-8.2658390">
        <ele>1117.2</ele>
        <time>2022-08-27T16:21:07Z</time>
      </trkpt>
      <trkpt lat="42.3042710" lon="-8.2658390">
        <ele>1117.4</ele>
        <time>2022-08-27T16:21:08Z</time>
      </trkpt>
      <trkpt lat="42.3042360" lon="-8.2658020">
        <ele>1118.4</ele>
        <time>2022-08-27T16:31:58Z</time>
      </trkpt>
      <trkpt lat="42.3041930" lon="-8.2657810">
        <ele>1118.6</ele>
        <time>2022-08-27T16:32:00Z</time>
      </trkpt>
      <trkpt lat="42.3040100" lon="-8.2657780">
        <ele>1118.6</ele>
        <time>2022-08-27T16:32:05Z</time>
      </trkpt>
      <trkpt lat="42.3039260" lon="-8.2657720">
        <ele>1118.6</ele>
        <time>2022-08-27T16:32:07Z</time>
      </trkpt>
      <trkpt lat="42.3038270" lon="-8.2657010">
        <ele>1118.4</ele>
        <time>2022-08-27T16:32:10Z</time>
      </trkpt>
      <trkpt lat="42.3037930" lon="-8.2656550">
        <ele>1117.8</ele>
        <time>2022-08-27T16:32:12Z</time>
      </trkpt>
      <trkpt lat="42.3037640" lon="-8.2656170">
        <ele>1117.4</ele>
        <time>2022-08-27T16:32:14Z</time>
      </trkpt>
      <trkpt lat="42.3037500" lon="-8.2655950">
        <ele>1117.4</ele>
        <time>2022-08-27T16:32:15Z</time>
      </trkpt>
      <trkpt lat="42.3036430" lon="-8.2654360">
        <ele>1117.4</ele>
        <time>2022-08-27T16:32:23Z</time>
      </trkpt>
      <trkpt lat="42.3034970" lon="-8.2652800">
        <ele>1118.4</ele>
        <time>2022-08-27T16:32:33Z</time>
      </trkpt>
      <trkpt lat="42.3034830" lon="-8.2652650">
        <ele>1118.4</ele>
        <time>2022-08-27T16:32:34Z</time>
      </trkpt>
      <trkpt lat="42.3033790" lon="-8.2651720">
        <ele>1119.6</ele>
        <time>2022-08-27T16:32:42Z</time>
      </trkpt>
      <trkpt lat="42.3033680" lon="-8.2651600">
        <ele>1119.6</ele>
        <time>2022-08-27T16:32:43Z</time>
      </trkpt>
      <trkpt lat="42.3032880" lon="-8.2650880">
        <ele>1120.0</ele>
        <time>2022-08-27T16:32:50Z</time>
      </trkpt>
      <trkpt lat="42.3032540" lon="-8.2650660">
        <ele>1120.6</ele>
        <time>2022-08-27T16:32:53Z</time>
      </trkpt>
      <trkpt lat="42.3031870" lon="-8.2650320">
        <ele>1121.2</ele>
        <time>2022-08-27T16:32:59Z</time>
      </trkpt>
      <trkpt lat="42.3031530" lon="-8.2650160">
        <ele>1121.6</ele>
        <time>2022-08-27T16:33:02Z</time>
      </trkpt>
      <trkpt lat="42.3030840" lon="-8.2649780">
        <ele>1122.4</ele>
        <time>2022-08-27T16:33:08Z</time>
      </trkpt>
      <trkpt lat="42.3030510" lon="-8.2649500">
        <ele>1122.8</ele>
        <time>2022-08-27T16:33:11Z</time>
      </trkpt>
      <trkpt lat="42.3029520" lon="-8.2648880">
        <ele>1123.6</ele>
        <time>2022-08-27T16:33:18Z</time>
      </trkpt>
      <trkpt lat="42.3029080" lon="-8.2648600">
        <ele>1123.8</ele>
        <time>2022-08-27T16:33:21Z</time>
      </trkpt>
      <trkpt lat="42.3027850" lon="-8.2647520">
        <ele>1124.4</ele>
        <time>2022-08-27T16:33:30Z</time>
      </trkpt>
      <trkpt lat="42.3027210" lon="-8.2646670">
        <ele>1124.8</ele>
        <time>2022-08-27T16:33:36Z</time>
      </trkpt>
      <trkpt lat="42.3026890" lon="-8.2646150">
        <ele>1125.2</ele>
        <time>2022-08-27T16:33:40Z</time>
      </trkpt>
      <trkpt lat="42.3026440" lon="-8.2645630">
        <ele>1125.8</ele>
        <time>2022-08-27T16:33:45Z</time>
      </trkpt>
      <trkpt lat="42.3026250" lon="-8.2645300">
        <ele>1126.2</ele>
        <time>2022-08-27T16:33:48Z</time>
      </trkpt>
      <trkpt lat="42.3026080" lon="-8.2644960">
        <ele>1126.8</ele>
        <time>2022-08-27T16:33:51Z</time>
      </trkpt>
      <trkpt lat="42.3025770" lon="-8.2644310">
        <ele>1127.8</ele>
        <time>2022-08-27T16:33:57Z</time>
      </trkpt>
      <trkpt lat="42.3025400" lon="-8.2643290">
        <ele>1128.8</ele>
        <time>2022-08-27T16:34:06Z</time>
      </trkpt>
      <trkpt lat="42.3025190" lon="-8.2642460">
        <ele>1130.0</ele>
        <time>2022-08-27T16:34:13Z</time>
      </trkpt>
      <trkpt lat="42.3025120" lon="-8.2642190">
        <ele>1130.2</ele>
        <time>2022-08-27T16:34:15Z</time>
      </trkpt>
      <trkpt lat="42.3024930" lon="-8.2641210">
        <ele>1131.2</ele>
        <time>2022-08-27T16:34:23Z</time>
      </trkpt>
      <trkpt lat="42.3024890" lon="-8.2640840">
        <ele>1131.4</ele>
        <time>2022-08-27T16:34:26Z</time>
      </trkpt>
      <trkpt lat="42.3024970" lon="-8.2639990">
        <ele>1132.2</ele>
        <time>2022-08-27T16:34:33Z</time>
      </trkpt>
      <trkpt lat="42.3025000" lon="-8.2639610">
        <ele>1132.6</ele>
        <time>2022-08-27T16:34:36Z</time>
      </trkpt>
      <trkpt lat="42.3024950" lon="-8.2639080">
        <ele>1133.4</ele>
        <time>2022-08-27T16:34:40Z</time>
      </trkpt>
      <trkpt lat="42.3024970" lon="-8.2638300">
        <ele>1134.4</ele>
        <time>2022-08-27T16:34:46Z</time>
      </trkpt>
      <trkpt lat="42.3024970" lon="-8.2638170">
        <ele>1134.8</ele>
        <time>2022-08-27T16:34:47Z</time>
      </trkpt>
      <trkpt lat="42.3025060" lon="-8.2637380">
        <ele>1135.8</ele>
        <time>2022-08-27T16:34:53Z</time>
      </trkpt>
      <trkpt lat="42.3025050" lon="-8.2636910">
        <ele>1136.6</ele>
        <time>2022-08-27T16:34:56Z</time>
      </trkpt>
      <trkpt lat="42.3025030" lon="-8.2636570">
        <ele>1137.0</ele>
        <time>2022-08-27T16:34:58Z</time>
      </trkpt>
      <trkpt lat="42.3024940" lon="-8.2635900">
        <ele>1138.2</ele>
        <time>2022-08-27T16:35:02Z</time>
      </trkpt>
      <trkpt lat="42.3024980" lon="-8.2635350">
        <ele>1138.6</ele>
        <time>2022-08-27T16:35:05Z</time>
      </trkpt>
      <trkpt lat="42.3025050" lon="-8.2633500">
        <ele>1138.6</ele>
        <time>2022-08-27T16:35:11Z</time>
      </trkpt>
      <trkpt lat="42.3024900" lon="-8.2630400">
        <ele>1138.2</ele>
        <time>2022-08-27T16:35:17Z</time>
      </trkpt>
      <trkpt lat="42.3025260" lon="-8.2628840">
        <ele>1137.6</ele>
        <time>2022-08-27T16:35:20Z</time>
      </trkpt>
      <trkpt lat="42.3025510" lon="-8.2628330">
        <ele>1137.2</ele>
        <time>2022-08-27T16:35:21Z</time>
      </trkpt>
      <trkpt lat="42.3025860" lon="-8.2627860">
        <ele>1136.8</ele>
        <time>2022-08-27T16:35:22Z</time>
      </trkpt>
      <trkpt lat="42.3027280" lon="-8.2626370">
        <ele>1135.6</ele>
        <time>2022-08-27T16:35:25Z</time>
      </trkpt>
      <trkpt lat="42.3028440" lon="-8.2625420">
        <ele>1134.4</ele>
        <time>2022-08-27T16:35:27Z</time>
      </trkpt>
      <trkpt lat="42.3029800" lon="-8.2624490">
        <ele>1133.2</ele>
        <time>2022-08-27T16:35:29Z</time>
      </trkpt>
      <trkpt lat="42.3030540" lon="-8.2624050">
        <ele>1132.8</ele>
        <time>2022-08-27T16:35:30Z</time>
      </trkpt>
      <trkpt lat="42.3031290" lon="-8.2623620">
        <ele>1132.2</ele>
        <time>2022-08-27T16:35:31Z</time>
      </trkpt>
      <trkpt lat="42.3032740" lon="-8.2622820">
        <ele>1130.8</ele>
        <time>2022-08-27T16:35:33Z</time>
      </trkpt>
      <trkpt lat="42.3034100" lon="-8.2621960">
        <ele>1129.4</ele>
        <time>2022-08-27T16:35:35Z</time>
      </trkpt>
      <trkpt lat="42.3035410" lon="-8.2621160">
        <ele>1128.0</ele>
        <time>2022-08-27T16:35:37Z</time>
      </trkpt>
      <trkpt lat="42.3036050" lon="-8.2620740">
        <ele>1126.6</ele>
        <time>2022-08-27T16:35:38Z</time>
      </trkpt>
      <trkpt lat="42.3037300" lon="-8.2619900">
        <ele>1124.8</ele>
        <time>2022-08-27T16:35:40Z</time>
      </trkpt>
      <trkpt lat="42.3039030" lon="-8.2618650">
        <ele>1123.6</ele>
        <time>2022-08-27T16:35:43Z</time>
      </trkpt>
      <trkpt lat="42.3039560" lon="-8.2618120">
        <ele>1123.4</ele>
        <time>2022-08-27T16:35:44Z</time>
      </trkpt>
      <trkpt lat="42.3040630" lon="-8.2616820">
        <ele>1122.6</ele>
        <time>2022-08-27T16:35:46Z</time>
      </trkpt>
      <trkpt lat="42.3041120" lon="-8.2615990">
        <ele>1122.4</ele>
        <time>2022-08-27T16:35:47Z</time>
      </trkpt>
      <trkpt lat="42.3041590" lon="-8.2615030">
        <ele>1122.0</ele>
        <time>2022-08-27T16:35:48Z</time>
      </trkpt>
      <trkpt lat="42.3042370" lon="-8.2612970">
        <ele>1121.6</ele>
        <time>2022-08-27T16:35:50Z</time>
      </trkpt>
      <trkpt lat="42.3042720" lon="-8.2611960">
        <ele>1121.2</ele>
        <time>2022-08-27T16:35:51Z</time>
      </trkpt>
      <trkpt lat="42.3043310" lon="-8.2610060">
        <ele>1120.8</ele>
        <time>2022-08-27T16:35:53Z</time>
      </trkpt>
      <trkpt lat="42.3043590" lon="-8.2609200">
        <ele>1120.0</ele>
        <time>2022-08-27T16:35:54Z</time>
      </trkpt>
      <trkpt lat="42.3044110" lon="-8.2607610">
        <ele>1118.4</ele>
        <time>2022-08-27T16:35:56Z</time>
      </trkpt>
      <trkpt lat="42.3044660" lon="-8.2606130">
        <ele>1117.4</ele>
        <time>2022-08-27T16:35:58Z</time>
      </trkpt>
      <trkpt lat="42.3044960" lon="-8.2605450">
        <ele>1117.0</ele>
        <time>2022-08-27T16:35:59Z</time>
      </trkpt>
      <trkpt lat="42.3045960" lon="-8.2603670">
        <ele>1116.6</ele>
        <time>2022-08-27T16:36:02Z</time>
      </trkpt>
      <trkpt lat="42.3046610" lon="-8.2602880">
        <ele>1116.6</ele>
        <time>2022-08-27T16:36:04Z</time>
      </trkpt>
      <trkpt lat="42.3047700" lon="-8.2602370">
        <ele>1116.6</ele>
        <time>2022-08-27T16:36:08Z</time>
      </trkpt>
      <trkpt lat="42.3049020" lon="-8.2602810">
        <ele>1117.0</ele>
        <time>2022-08-27T16:36:12Z</time>
      </trkpt>
      <trkpt lat="42.3049410" lon="-8.2603050">
        <ele>1117.0</ele>
        <time>2022-08-27T16:36:13Z</time>
      </trkpt>
      <trkpt lat="42.3051990" lon="-8.2604580">
        <ele>1117.2</ele>
        <time>2022-08-27T16:36:19Z</time>
      </trkpt>
      <trkpt lat="42.3054850" lon="-8.2605280">
        <ele>1116.6</ele>
        <time>2022-08-27T16:36:24Z</time>
      </trkpt>
      <trkpt lat="42.3056710" lon="-8.2605370">
        <ele>1116.2</ele>
        <time>2022-08-27T16:36:27Z</time>
      </trkpt>
      <trkpt lat="42.3059280" lon="-8.2605180">
        <ele>1115.2</ele>
        <time>2022-08-27T16:36:31Z</time>
      </trkpt>
      <trkpt lat="42.3059970" lon="-8.2605130">
        <ele>1115.0</ele>
        <time>2022-08-27T16:36:32Z</time>
      </trkpt>
      <trkpt lat="42.3062110" lon="-8.2604980">
        <ele>1113.8</ele>
        <time>2022-08-27T16:36:35Z</time>
      </trkpt>
      <trkpt lat="42.3064400" lon="-8.2604730">
        <ele>1113.0</ele>
        <time>2022-08-27T16:36:38Z</time>
      </trkpt>
      <trkpt lat="42.3066700" lon="-8.2604330">
        <ele>1112.4</ele>
        <time>2022-08-27T16:36:41Z</time>
      </trkpt>
      <trkpt lat="42.3068770" lon="-8.2603780">
        <ele>1111.2</ele>
        <time>2022-08-27T16:36:44Z</time>
      </trkpt>
      <trkpt lat="42.3070840" lon="-8.2602970">
        <ele>1110.0</ele>
        <time>2022-08-27T16:36:47Z</time>
      </trkpt>
      <trkpt lat="42.3073090" lon="-8.2602160">
        <ele>1109.4</ele>
        <time>2022-08-27T16:36:50Z</time>
      </trkpt>
      <trkpt lat="42.3074800" lon="-8.2601710">
        <ele>1109.0</ele>
        <time>2022-08-27T16:36:52Z</time>
      </trkpt>
      <trkpt lat="42.3075650" lon="-8.2601620">
        <ele>1108.6</ele>
        <time>2022-08-27T16:36:53Z</time>
      </trkpt>
      <trkpt lat="42.3076480" lon="-8.2601650">
        <ele>1108.2</ele>
        <time>2022-08-27T16:36:54Z</time>
      </trkpt>
      <trkpt lat="42.3078770" lon="-8.2602580">
        <ele>1107.0</ele>
        <time>2022-08-27T16:36:57Z</time>
      </trkpt>
      <trkpt lat="42.3079450" lon="-8.2603100">
        <ele>1106.2</ele>
        <time>2022-08-27T16:36:58Z</time>
      </trkpt>
      <trkpt lat="42.3080110" lon="-8.2603570">
        <ele>1105.2</ele>
        <time>2022-08-27T16:36:59Z</time>
      </trkpt>
      <trkpt lat="42.3081410" lon="-8.2604410">
        <ele>1104.0</ele>
        <time>2022-08-27T16:37:01Z</time>
      </trkpt>
      <trkpt lat="42.3082670" lon="-8.2605210">
        <ele>1103.4</ele>
        <time>2022-08-27T16:37:03Z</time>
      </trkpt>
      <trkpt lat="42.3083320" lon="-8.2605580">
        <ele>1102.2</ele>
        <time>2022-08-27T16:37:04Z</time>
      </trkpt>
      <trkpt lat="42.3086750" lon="-8.2607340">
        <ele>1101.0</ele>
        <time>2022-08-27T16:37:09Z</time>
      </trkpt>
      <trkpt lat="42.3090110" lon="-8.2609750">
        <ele>1099.8</ele>
        <time>2022-08-27T16:37:14Z</time>
      </trkpt>
      <trkpt lat="42.3090770" lon="-8.2610190">
        <ele>1099.4</ele>
        <time>2022-08-27T16:37:15Z</time>
      </trkpt>
      <trkpt lat="42.3092020" lon="-8.2611090">
        <ele>1098.6</ele>
        <time>2022-08-27T16:37:17Z</time>
      </trkpt>
      <trkpt lat="42.3093220" lon="-8.2612000">
        <ele>1097.4</ele>
        <time>2022-08-27T16:37:19Z</time>
      </trkpt>
      <trkpt lat="42.3094380" lon="-8.2612910">
        <ele>1096.6</ele>
        <time>2022-08-27T16:37:21Z</time>
      </trkpt>
      <trkpt lat="42.3094910" lon="-8.2613440">
        <ele>1096.2</ele>
        <time>2022-08-27T16:37:22Z</time>
      </trkpt>
      <trkpt lat="42.3097150" lon="-8.2615690">
        <ele>1095.0</ele>
        <time>2022-08-27T16:37:27Z</time>
      </trkpt>
      <trkpt lat="42.3099050" lon="-8.2617460">
        <ele>1094.0</ele>
        <time>2022-08-27T16:37:31Z</time>
      </trkpt>
      <trkpt lat="42.3101200" lon="-8.2618870">
        <ele>1093.0</ele>
        <time>2022-08-27T16:37:34Z</time>
      </trkpt>
      <trkpt lat="42.3102030" lon="-8.2619240">
        <ele>1092.6</ele>
        <time>2022-08-27T16:37:35Z</time>
      </trkpt>
      <trkpt lat="42.3102900" lon="-8.2619530">
        <ele>1092.0</ele>
        <time>2022-08-27T16:37:36Z</time>
      </trkpt>
      <trkpt lat="42.3103830" lon="-8.2619690">
        <ele>1091.4</ele>
        <time>2022-08-27T16:37:37Z</time>
      </trkpt>
      <trkpt lat="42.3104790" lon="-8.2619760">
        <ele>1090.2</ele>
        <time>2022-08-27T16:37:38Z</time>
      </trkpt>
      <trkpt lat="42.3105750" lon="-8.2619770">
        <ele>1089.8</ele>
        <time>2022-08-27T16:37:39Z</time>
      </trkpt>
      <trkpt lat="42.3107650" lon="-8.2619670">
        <ele>1088.6</ele>
        <time>2022-08-27T16:37:41Z</time>
      </trkpt>
      <trkpt lat="42.3108580" lon="-8.2619500">
        <ele>1087.4</ele>
        <time>2022-08-27T16:37:42Z</time>
      </trkpt>
      <trkpt lat="42.3109500" lon="-8.2619310">
        <ele>1086.2</ele>
        <time>2022-08-27T16:37:43Z</time>
      </trkpt>
      <trkpt lat="42.3110410" lon="-8.2619150">
        <ele>1085.4</ele>
        <time>2022-08-27T16:37:44Z</time>
      </trkpt>
      <trkpt lat="42.3111320" lon="-8.2619030">
        <ele>1084.4</ele>
        <time>2022-08-27T16:37:45Z</time>
      </trkpt>
      <trkpt lat="42.3112230" lon="-8.2618940">
        <ele>1083.4</ele>
        <time>2022-08-27T16:37:46Z</time>
      </trkpt>
      <trkpt lat="42.3113140" lon="-8.2618900">
        <ele>1082.0</ele>
        <time>2022-08-27T16:37:47Z</time>
      </trkpt>
      <trkpt lat="42.3114960" lon="-8.2618840">
        <ele>1080.4</ele>
        <time>2022-08-27T16:37:49Z</time>
      </trkpt>
      <trkpt lat="42.3116600" lon="-8.2618840">
        <ele>1079.6</ele>
        <time>2022-08-27T16:37:51Z</time>
      </trkpt>
      <trkpt lat="42.3117330" lon="-8.2618780">
        <ele>1079.4</ele>
        <time>2022-08-27T16:37:52Z</time>
      </trkpt>
      <trkpt lat="42.3118040" lon="-8.2618670">
        <ele>1079.2</ele>
        <time>2022-08-27T16:37:53Z</time>
      </trkpt>
      <trkpt lat="42.3119370" lon="-8.2618720">
        <ele>1078.6</ele>
        <time>2022-08-27T16:37:55Z</time>
      </trkpt>
      <trkpt lat="42.3119870" lon="-8.2618780">
        <ele>1078.4</ele>
        <time>2022-08-27T16:37:56Z</time>
      </trkpt>
      <trkpt lat="42.3120340" lon="-8.2618780">
        <ele>1078.0</ele>
        <time>2022-08-27T16:37:58Z</time>
      </trkpt>
      <trkpt lat="42.3121250" lon="-8.2618530">
        <ele>1077.2</ele>
        <time>2022-08-27T16:38:04Z</time>
      </trkpt>
      <trkpt lat="42.3121540" lon="-8.2618440">
        <ele>1077.0</ele>
        <time>2022-08-27T16:38:07Z</time>
      </trkpt>
      <trkpt lat="42.3121550" lon="-8.2618430">
        <ele>1076.8</ele>
        <time>2022-08-27T16:38:08Z</time>
      </trkpt>
      <trkpt lat="42.3121940" lon="-8.2618390">
        <ele>1076.4</ele>
        <time>2022-08-27T16:38:23Z</time>
      </trkpt>
      <trkpt lat="42.3123590" lon="-8.2618070">
        <ele>1076.2</ele>
        <time>2022-08-27T16:38:28Z</time>
      </trkpt>
      <trkpt lat="42.3125390" lon="-8.2617720">
        <ele>1075.8</ele>
        <time>2022-08-27T16:38:32Z</time>
      </trkpt>
      <trkpt lat="42.3126470" lon="-8.2617390">
        <ele>1075.4</ele>
        <time>2022-08-27T16:38:34Z</time>
      </trkpt>
      <trkpt lat="42.3127490" lon="-8.2617060">
        <ele>1074.6</ele>
        <time>2022-08-27T16:38:36Z</time>
      </trkpt>
      <trkpt lat="42.3128370" lon="-8.2616810">
        <ele>1073.2</ele>
        <time>2022-08-27T16:38:38Z</time>
      </trkpt>
      <trkpt lat="42.3129050" lon="-8.2616800">
        <ele>1071.6</ele>
        <time>2022-08-27T16:38:40Z</time>
      </trkpt>
      <trkpt lat="42.3129770" lon="-8.2617100">
        <ele>1070.4</ele>
        <time>2022-08-27T16:38:42Z</time>
      </trkpt>
      <trkpt lat="42.3130640" lon="-8.2617490">
        <ele>1069.0</ele>
        <time>2022-08-27T16:38:44Z</time>
      </trkpt>
      <trkpt lat="42.3131430" lon="-8.2617900">
        <ele>1067.8</ele>
        <time>2022-08-27T16:38:46Z</time>
      </trkpt>
      <trkpt lat="42.3131800" lon="-8.2618140">
        <ele>1067.4</ele>
        <time>2022-08-27T16:38:47Z</time>
      </trkpt>
      <trkpt lat="42.3132230" lon="-8.2618450">
        <ele>1066.8</ele>
        <time>2022-08-27T16:38:48Z</time>
      </trkpt>
      <trkpt lat="42.3133690" lon="-8.2619580">
        <ele>1065.4</ele>
        <time>2022-08-27T16:38:51Z</time>
      </trkpt>
      <trkpt lat="42.3134470" lon="-8.2620400">
        <ele>1064.4</ele>
        <time>2022-08-27T16:38:53Z</time>
      </trkpt>
      <trkpt lat="42.3134950" lon="-8.2621000">
        <ele>1063.0</ele>
        <time>2022-08-27T16:38:55Z</time>
      </trkpt>
      <trkpt lat="42.3135530" lon="-8.2621490">
        <ele>1061.0</ele>
        <time>2022-08-27T16:38:57Z</time>
      </trkpt>
      <trkpt lat="42.3136340" lon="-8.2622160">
        <ele>1059.2</ele>
        <time>2022-08-27T16:38:59Z</time>
      </trkpt>
      <trkpt lat="42.3137330" lon="-8.2623000">
        <ele>1057.8</ele>
        <time>2022-08-27T16:39:01Z</time>
      </trkpt>
      <trkpt lat="42.3138850" lon="-8.2624140">
        <ele>1056.4</ele>
        <time>2022-08-27T16:39:04Z</time>
      </trkpt>
      <trkpt lat="42.3139440" lon="-8.2624440">
        <ele>1055.8</ele>
        <time>2022-08-27T16:39:05Z</time>
      </trkpt>
      <trkpt lat="42.3140020" lon="-8.2624660">
        <ele>1055.4</ele>
        <time>2022-08-27T16:39:06Z</time>
      </trkpt>
      <trkpt lat="42.3141250" lon="-8.2624790">
        <ele>1054.4</ele>
        <time>2022-08-27T16:39:08Z</time>
      </trkpt>
      <trkpt lat="42.3141900" lon="-8.2624610">
        <ele>1053.6</ele>
        <time>2022-08-27T16:39:09Z</time>
      </trkpt>
      <trkpt lat="42.3143210" lon="-8.2623830">
        <ele>1052.4</ele>
        <time>2022-08-27T16:39:11Z</time>
      </trkpt>
      <trkpt lat="42.3143900" lon="-8.2623340">
        <ele>1051.6</ele>
        <time>2022-08-27T16:39:12Z</time>
      </trkpt>
      <trkpt lat="42.3144600" lon="-8.2622840">
        <ele>1050.8</ele>
        <time>2022-08-27T16:39:13Z</time>
      </trkpt>
      <trkpt lat="42.3146020" lon="-8.2621900">
        <ele>1049.4</ele>
        <time>2022-08-27T16:39:15Z</time>
      </trkpt>
      <trkpt lat="42.3147400" lon="-8.2621180">
        <ele>1048.2</ele>
        <time>2022-08-27T16:39:17Z</time>
      </trkpt>
      <trkpt lat="42.3148720" lon="-8.2620780">
        <ele>1046.2</ele>
        <time>2022-08-27T16:39:19Z</time>
      </trkpt>
      <trkpt lat="42.3149940" lon="-8.2620480">
        <ele>1044.8</ele>
        <time>2022-08-27T16:39:21Z</time>
      </trkpt>
      <trkpt lat="42.3150450" lon="-8.2620370">
        <ele>1044.0</ele>
        <time>2022-08-27T16:39:22Z</time>
      </trkpt>
      <trkpt lat="42.3150880" lon="-8.2620320">
        <ele>1042.8</ele>
        <time>2022-08-27T16:39:23Z</time>
      </trkpt>
      <trkpt lat="42.3151500" lon="-8.2620400">
        <ele>1041.6</ele>
        <time>2022-08-27T16:39:25Z</time>
      </trkpt>
      <trkpt lat="42.3151710" lon="-8.2620500">
        <ele>1041.0</ele>
        <time>2022-08-27T16:39:26Z</time>
      </trkpt>
      <trkpt lat="42.3151940" lon="-8.2620640">
        <ele>1039.8</ele>
        <time>2022-08-27T16:39:27Z</time>
      </trkpt>
      <trkpt lat="42.3152470" lon="-8.2621050">
        <ele>1038.6</ele>
        <time>2022-08-27T16:39:29Z</time>
      </trkpt>
      <trkpt lat="42.3152910" lon="-8.2621770">
        <ele>1037.4</ele>
        <time>2022-08-27T16:39:31Z</time>
      </trkpt>
      <trkpt lat="42.3153170" lon="-8.2623790">
        <ele>1036.2</ele>
        <time>2022-08-27T16:39:35Z</time>
      </trkpt>
      <trkpt lat="42.3152540" lon="-8.2626900">
        <ele>1035.2</ele>
        <time>2022-08-27T16:39:41Z</time>
      </trkpt>
      <trkpt lat="42.3151720" lon="-8.2630560">
        <ele>1035.0</ele>
        <time>2022-08-27T16:39:48Z</time>
      </trkpt>
      <trkpt lat="42.3150610" lon="-8.2634660">
        <ele>1034.8</ele>
        <time>2022-08-27T16:39:55Z</time>
      </trkpt>
      <trkpt lat="42.3149550" lon="-8.2638680">
        <ele>1034.4</ele>
        <time>2022-08-27T16:40:00Z</time>
      </trkpt>
      <trkpt lat="42.3148880" lon="-8.2641700">
        <ele>1034.0</ele>
        <time>2022-08-27T16:40:03Z</time>
      </trkpt>
      <trkpt lat="42.3148330" lon="-8.2644900">
        <ele>1032.4</ele>
        <time>2022-08-27T16:40:06Z</time>
      </trkpt>
      <trkpt lat="42.3147910" lon="-8.2646940">
        <ele>1031.0</ele>
        <time>2022-08-27T16:40:08Z</time>
      </trkpt>
      <trkpt lat="42.3147540" lon="-8.2648890">
        <ele>1030.0</ele>
        <time>2022-08-27T16:40:10Z</time>
      </trkpt>
      <trkpt lat="42.3147220" lon="-8.2650760">
        <ele>1029.0</ele>
        <time>2022-08-27T16:40:12Z</time>
      </trkpt>
      <trkpt lat="42.3147140" lon="-8.2651710">
        <ele>1028.6</ele>
        <time>2022-08-27T16:40:13Z</time>
      </trkpt>
      <trkpt lat="42.3147140" lon="-8.2652640">
        <ele>1027.8</ele>
        <time>2022-08-27T16:40:14Z</time>
      </trkpt>
      <trkpt lat="42.3147270" lon="-8.2654430">
        <ele>1027.2</ele>
        <time>2022-08-27T16:40:16Z</time>
      </trkpt>
      <trkpt lat="42.3147490" lon="-8.2656120">
        <ele>1026.6</ele>
        <time>2022-08-27T16:40:18Z</time>
      </trkpt>
      <trkpt lat="42.3147980" lon="-8.2658530">
        <ele>1025.2</ele>
        <time>2022-08-27T16:40:21Z</time>
      </trkpt>
      <trkpt lat="42.3148350" lon="-8.2660110">
        <ele>1025.0</ele>
        <time>2022-08-27T16:40:23Z</time>
      </trkpt>
      <trkpt lat="42.3148710" lon="-8.2661710">
        <ele>1024.2</ele>
        <time>2022-08-27T16:40:25Z</time>
      </trkpt>
      <trkpt lat="42.3149310" lon="-8.2665110">
        <ele>1023.2</ele>
        <time>2022-08-27T16:40:29Z</time>
      </trkpt>
      <trkpt lat="42.3149520" lon="-8.2666990">
        <ele>1022.6</ele>
        <time>2022-08-27T16:40:31Z</time>
      </trkpt>
      <trkpt lat="42.3149990" lon="-8.2669580">
        <ele>1022.0</ele>
        <time>2022-08-27T16:40:34Z</time>
      </trkpt>
      <trkpt lat="42.3150280" lon="-8.2670340">
        <ele>1021.8</ele>
        <time>2022-08-27T16:40:35Z</time>
      </trkpt>
      <trkpt lat="42.3151460" lon="-8.2672430">
        <ele>1020.6</ele>
        <time>2022-08-27T16:40:38Z</time>
      </trkpt>
      <trkpt lat="42.3151790" lon="-8.2673120">
        <ele>1020.2</ele>
        <time>2022-08-27T16:40:39Z</time>
      </trkpt>
      <trkpt lat="42.3152000" lon="-8.2673820">
        <ele>1019.8</ele>
        <time>2022-08-27T16:40:40Z</time>
      </trkpt>
      <trkpt lat="42.3152060" lon="-8.2674530">
        <ele>1019.6</ele>
        <time>2022-08-27T16:40:41Z</time>
      </trkpt>
      <trkpt lat="42.3151700" lon="-8.2675960">
        <ele>1018.6</ele>
        <time>2022-08-27T16:40:43Z</time>
      </trkpt>
      <trkpt lat="42.3151340" lon="-8.2676700">
        <ele>1018.4</ele>
        <time>2022-08-27T16:40:44Z</time>
      </trkpt>
      <trkpt lat="42.3150920" lon="-8.2677480">
        <ele>1018.2</ele>
        <time>2022-08-27T16:40:45Z</time>
      </trkpt>
      <trkpt lat="42.3150050" lon="-8.2679220">
        <ele>1017.4</ele>
        <time>2022-08-27T16:40:47Z</time>
      </trkpt>
      <trkpt lat="42.3148200" lon="-8.2683300">
        <ele>1016.0</ele>
        <time>2022-08-27T16:40:51Z</time>
      </trkpt>
      <trkpt lat="42.3147740" lon="-8.2684420">
        <ele>1015.6</ele>
        <time>2022-08-27T16:40:52Z</time>
      </trkpt>
      <trkpt lat="42.3147250" lon="-8.2685540">
        <ele>1014.6</ele>
        <time>2022-08-27T16:40:53Z</time>
      </trkpt>
      <trkpt lat="42.3146260" lon="-8.2687780">
        <ele>1012.8</ele>
        <time>2022-08-27T16:40:55Z</time>
      </trkpt>
      <trkpt lat="42.3145240" lon="-8.2689990">
        <ele>1011.2</ele>
        <time>2022-08-27T16:40:57Z</time>
      </trkpt>
      <trkpt lat="42.3144190" lon="-8.2692140">
        <ele>1009.2</ele>
        <time>2022-08-27T16:40:59Z</time>
      </trkpt>
      <trkpt lat="42.3143110" lon="-8.2694300">
        <ele>1007.8</ele>
        <time>2022-08-27T16:41:01Z</time>
      </trkpt>
      <trkpt lat="42.3142570" lon="-8.2695370">
        <ele>1007.0</ele>
        <time>2022-08-27T16:41:02Z</time>
      </trkpt>
      <trkpt lat="42.3142030" lon="-8.2696440">
        <ele>1006.4</ele>
        <time>2022-08-27T16:41:03Z</time>
      </trkpt>
      <trkpt lat="42.3140890" lon="-8.2698510">
        <ele>1005.0</ele>
        <time>2022-08-27T16:41:05Z</time>
      </trkpt>
      <trkpt lat="42.3139670" lon="-8.2700450">
        <ele>1003.6</ele>
        <time>2022-08-27T16:41:07Z</time>
      </trkpt>
      <trkpt lat="42.3139010" lon="-8.2701300">
        <ele>1003.0</ele>
        <time>2022-08-27T16:41:08Z</time>
      </trkpt>
      <trkpt lat="42.3138380" lon="-8.2702020">
        <ele>1002.4</ele>
        <time>2022-08-27T16:41:09Z</time>
      </trkpt>
      <trkpt lat="42.3137280" lon="-8.2703170">
        <ele>1001.0</ele>
        <time>2022-08-27T16:41:11Z</time>
      </trkpt>
      <trkpt lat="42.3136280" lon="-8.2704190">
        <ele>999.4</ele>
        <time>2022-08-27T16:41:13Z</time>
      </trkpt>
      <trkpt lat="42.3135160" lon="-8.2705070">
        <ele>998.0</ele>
        <time>2022-08-27T16:41:15Z</time>
      </trkpt>
      <trkpt lat="42.3134560" lon="-8.2705470">
        <ele>997.6</ele>
        <time>2022-08-27T16:41:16Z</time>
      </trkpt>
      <trkpt lat="42.3133940" lon="-8.2705840">
        <ele>997.0</ele>
        <time>2022-08-27T16:41:17Z</time>
      </trkpt>
      <trkpt lat="42.3133350" lon="-8.2706130">
        <ele>996.2</ele>
        <time>2022-08-27T16:41:18Z</time>
      </trkpt>
      <trkpt lat="42.3132300" lon="-8.2706770">
        <ele>995.2</ele>
        <time>2022-08-27T16:41:20Z</time>
      </trkpt>
      <trkpt lat="42.3131850" lon="-8.2707210">
        <ele>994.8</ele>
        <time>2022-08-27T16:41:21Z</time>
      </trkpt>
      <trkpt lat="42.3131470" lon="-8.2707780">
        <ele>993.8</ele>
        <time>2022-08-27T16:41:22Z</time>
      </trkpt>
      <trkpt lat="42.3131210" lon="-8.2708440">
        <ele>993.2</ele>
        <time>2022-08-27T16:41:23Z</time>
      </trkpt>
      <trkpt lat="42.3131100" lon="-8.2709160">
        <ele>992.6</ele>
        <time>2022-08-27T16:41:24Z</time>
      </trkpt>
      <trkpt lat="42.3131000" lon="-8.2710620">
        <ele>991.0</ele>
        <time>2022-08-27T16:41:26Z</time>
      </trkpt>
      <trkpt lat="42.3130940" lon="-8.2711330">
        <ele>990.6</ele>
        <time>2022-08-27T16:41:27Z</time>
      </trkpt>
      <trkpt lat="42.3130640" lon="-8.2713420">
        <ele>989.8</ele>
        <time>2022-08-27T16:41:30Z</time>
      </trkpt>
      <trkpt lat="42.3130510" lon="-8.2714070">
        <ele>989.6</ele>
        <time>2022-08-27T16:41:31Z</time>
      </trkpt>
      <trkpt lat="42.3130150" lon="-8.2715290">
        <ele>989.4</ele>
        <time>2022-08-27T16:41:33Z</time>
      </trkpt>
      <trkpt lat="42.3128710" lon="-8.2718810">
        <ele>989.4</ele>
        <time>2022-08-27T16:41:40Z</time>
      </trkpt>
      <trkpt lat="42.3127390" lon="-8.2721870">
        <ele>990.2</ele>
        <time>2022-08-27T16:41:47Z</time>
      </trkpt>
      <trkpt lat="42.3127150" lon="-8.2722340">
        <ele>990.2</ele>
        <time>2022-08-27T16:41:48Z</time>
      </trkpt>
      <trkpt lat="42.3125080" lon="-8.2726460">
        <ele>990.4</ele>
        <time>2022-08-27T16:41:56Z</time>
      </trkpt>
      <trkpt lat="42.3122710" lon="-8.2731260">
        <ele>989.6</ele>
        <time>2022-08-27T16:42:05Z</time>
      </trkpt>
      <trkpt lat="42.3121720" lon="-8.2732710">
        <ele>988.6</ele>
        <time>2022-08-27T16:42:08Z</time>
      </trkpt>
      <trkpt lat="42.3119440" lon="-8.2735530">
        <ele>988.0</ele>
        <time>2022-08-27T16:42:14Z</time>
      </trkpt>
      <trkpt lat="42.3117200" lon="-8.2738340">
        <ele>987.6</ele>
        <time>2022-08-27T16:42:20Z</time>
      </trkpt>
      <trkpt lat="42.3116210" lon="-8.2739710">
        <ele>987.2</ele>
        <time>2022-08-27T16:42:23Z</time>
      </trkpt>
      <trkpt lat="42.3115880" lon="-8.2740180">
        <ele>987.0</ele>
        <time>2022-08-27T16:42:24Z</time>
      </trkpt>
      <trkpt lat="42.3115240" lon="-8.2741170">
        <ele>986.4</ele>
        <time>2022-08-27T16:42:26Z</time>
      </trkpt>
      <trkpt lat="42.3114170" lon="-8.2742690">
        <ele>986.2</ele>
        <time>2022-08-27T16:42:29Z</time>
      </trkpt>
      <trkpt lat="42.3112300" lon="-8.2745650">
        <ele>985.6</ele>
        <time>2022-08-27T16:42:35Z</time>
      </trkpt>
      <trkpt lat="42.3112000" lon="-8.2746040">
        <ele>985.6</ele>
        <time>2022-08-27T16:42:36Z</time>
      </trkpt>
      <trkpt lat="42.3109320" lon="-8.2748800">
        <ele>985.0</ele>
        <time>2022-08-27T16:42:43Z</time>
      </trkpt>
      <trkpt lat="42.3107330" lon="-8.2750150">
        <ele>985.0</ele>
        <time>2022-08-27T16:42:47Z</time>
      </trkpt>
      <trkpt lat="42.3106790" lon="-8.2750390">
        <ele>984.8</ele>
        <time>2022-08-27T16:42:48Z</time>
      </trkpt>
      <trkpt lat="42.3105200" lon="-8.2751430">
        <ele>984.4</ele>
        <time>2022-08-27T16:42:51Z</time>
      </trkpt>
      <trkpt lat="42.3103580" lon="-8.2752660">
        <ele>983.4</ele>
        <time>2022-08-27T16:42:54Z</time>
      </trkpt>
      <trkpt lat="42.3103020" lon="-8.2753110">
        <ele>983.2</ele>
        <time>2022-08-27T16:42:55Z</time>
      </trkpt>
      <trkpt lat="42.3099880" lon="-8.2756120">
        <ele>982.0</ele>
        <time>2022-08-27T16:43:01Z</time>
      </trkpt>
      <trkpt lat="42.3098480" lon="-8.2757350">
        <ele>981.0</ele>
        <time>2022-08-27T16:43:04Z</time>
      </trkpt>
      <trkpt lat="42.3097260" lon="-8.2758490">
        <ele>979.8</ele>
        <time>2022-08-27T16:43:07Z</time>
      </trkpt>
      <trkpt lat="42.3094400" lon="-8.2762110">
        <ele>979.2</ele>
        <time>2022-08-27T16:43:15Z</time>
      </trkpt>
      <trkpt lat="42.3091690" lon="-8.2765060">
        <ele>979.0</ele>
        <time>2022-08-27T16:43:23Z</time>
      </trkpt>
      <trkpt lat="42.3089940" lon="-8.2766880">
        <ele>979.0</ele>
        <time>2022-08-27T16:43:28Z</time>
      </trkpt>
      <trkpt lat="42.3089560" lon="-8.2767270">
        <ele>979.0</ele>
        <time>2022-08-27T16:43:29Z</time>
      </trkpt>
      <trkpt lat="42.3088080" lon="-8.2769050">
        <ele>979.0</ele>
        <time>2022-08-27T16:43:33Z</time>
      </trkpt>
      <trkpt lat="42.3087250" lon="-8.2770220">
        <ele>979.0</ele>
        <time>2022-08-27T16:43:35Z</time>
      </trkpt>
      <trkpt lat="42.3085850" lon="-8.2772540">
        <ele>978.8</ele>
        <time>2022-08-27T16:43:38Z</time>
      </trkpt>
      <trkpt lat="42.3084890" lon="-8.2774370">
        <ele>978.4</ele>
        <time>2022-08-27T16:43:40Z</time>
      </trkpt>
      <trkpt lat="42.3083210" lon="-8.2776850">
        <ele>977.2</ele>
        <time>2022-08-27T16:43:43Z</time>
      </trkpt>
      <trkpt lat="42.3082610" lon="-8.2777570">
        <ele>976.6</ele>
        <time>2022-08-27T16:43:44Z</time>
      </trkpt>
      <trkpt lat="42.3082030" lon="-8.2778250">
        <ele>976.0</ele>
        <time>2022-08-27T16:43:45Z</time>
      </trkpt>
      <trkpt lat="42.3081450" lon="-8.2778870">
        <ele>974.6</ele>
        <time>2022-08-27T16:43:46Z</time>
      </trkpt>
      <trkpt lat="42.3080350" lon="-8.2779970">
        <ele>972.8</ele>
        <time>2022-08-27T16:43:48Z</time>
      </trkpt>
      <trkpt lat="42.3079830" lon="-8.2780480">
        <ele>972.0</ele>
        <time>2022-08-27T16:43:49Z</time>
      </trkpt>
      <trkpt lat="42.3079320" lon="-8.2780980">
        <ele>971.6</ele>
        <time>2022-08-27T16:43:50Z</time>
      </trkpt>
      <trkpt lat="42.3075510" lon="-8.2784660">
        <ele>970.6</ele>
        <time>2022-08-27T16:43:57Z</time>
      </trkpt>
      <trkpt lat="42.3074340" lon="-8.2785590">
        <ele>970.4</ele>
        <time>2022-08-27T16:43:59Z</time>
      </trkpt>
      <trkpt lat="42.3071750" lon="-8.2787870">
        <ele>969.2</ele>
        <time>2022-08-27T16:44:03Z</time>
      </trkpt>
      <trkpt lat="42.3069080" lon="-8.2791220">
        <ele>968.0</ele>
        <time>2022-08-27T16:44:07Z</time>
      </trkpt>
      <trkpt lat="42.3066950" lon="-8.2793960">
        <ele>966.8</ele>
        <time>2022-08-27T16:44:10Z</time>
      </trkpt>
      <trkpt lat="42.3064650" lon="-8.2796430">
        <ele>965.0</ele>
        <time>2022-08-27T16:44:13Z</time>
      </trkpt>
      <trkpt lat="42.3063030" lon="-8.2798010">
        <ele>962.0</ele>
        <time>2022-08-27T16:44:15Z</time>
      </trkpt>
      <trkpt lat="42.3061510" lon="-8.2799520">
        <ele>960.4</ele>
        <time>2022-08-27T16:44:17Z</time>
      </trkpt>
      <trkpt lat="42.3060070" lon="-8.2800740">
        <ele>959.2</ele>
        <time>2022-08-27T16:44:19Z</time>
      </trkpt>
      <trkpt lat="42.3058530" lon="-8.2801630">
        <ele>957.6</ele>
        <time>2022-08-27T16:44:21Z</time>
      </trkpt>
      <trkpt lat="42.3056790" lon="-8.2802380">
        <ele>956.0</ele>
        <time>2022-08-27T16:44:23Z</time>
      </trkpt>
      <trkpt lat="42.3054990" lon="-8.2803070">
        <ele>954.0</ele>
        <time>2022-08-27T16:44:25Z</time>
      </trkpt>
      <trkpt lat="42.3053200" lon="-8.2803710">
        <ele>952.4</ele>
        <time>2022-08-27T16:44:27Z</time>
      </trkpt>
      <trkpt lat="42.3052210" lon="-8.2803930">
        <ele>951.6</ele>
        <time>2022-08-27T16:44:28Z</time>
      </trkpt>
      <trkpt lat="42.3051150" lon="-8.2804030">
        <ele>951.0</ele>
        <time>2022-08-27T16:44:29Z</time>
      </trkpt>
      <trkpt lat="42.3048960" lon="-8.2804130">
        <ele>949.4</ele>
        <time>2022-08-27T16:44:31Z</time>
      </trkpt>
      <trkpt lat="42.3046860" lon="-8.2804440">
        <ele>947.6</ele>
        <time>2022-08-27T16:44:33Z</time>
      </trkpt>
      <trkpt lat="42.3044770" lon="-8.2805080">
        <ele>945.8</ele>
        <time>2022-08-27T16:44:35Z</time>
      </trkpt>
      <trkpt lat="42.3042660" lon="-8.2805730">
        <ele>943.6</ele>
        <time>2022-08-27T16:44:37Z</time>
      </trkpt>
      <trkpt lat="42.3041590" lon="-8.2806090">
        <ele>942.2</ele>
        <time>2022-08-27T16:44:38Z</time>
      </trkpt>
      <trkpt lat="42.3040530" lon="-8.2806520">
        <ele>940.8</ele>
        <time>2022-08-27T16:44:39Z</time>
      </trkpt>
      <trkpt lat="42.3039490" lon="-8.2807000">
        <ele>939.4</ele>
        <time>2022-08-27T16:44:40Z</time>
      </trkpt>
      <trkpt lat="42.3038460" lon="-8.2807530">
        <ele>938.0</ele>
        <time>2022-08-27T16:44:41Z</time>
      </trkpt>
      <trkpt lat="42.3037450" lon="-8.2808070">
        <ele>936.6</ele>
        <time>2022-08-27T16:44:42Z</time>
      </trkpt>
      <trkpt lat="42.3036470" lon="-8.2808640">
        <ele>935.2</ele>
        <time>2022-08-27T16:44:43Z</time>
      </trkpt>
      <trkpt lat="42.3035530" lon="-8.2809300">
        <ele>932.0</ele>
        <time>2022-08-27T16:44:44Z</time>
      </trkpt>
      <trkpt lat="42.3034640" lon="-8.2810130">
        <ele>930.8</ele>
        <time>2022-08-27T16:44:45Z</time>
      </trkpt>
      <trkpt lat="42.3033820" lon="-8.2811120">
        <ele>929.4</ele>
        <time>2022-08-27T16:44:46Z</time>
      </trkpt>
      <trkpt lat="42.3033080" lon="-8.2812250">
        <ele>928.0</ele>
        <time>2022-08-27T16:44:47Z</time>
      </trkpt>
      <trkpt lat="42.3032410" lon="-8.2813410">
        <ele>926.8</ele>
        <time>2022-08-27T16:44:48Z</time>
      </trkpt>
      <trkpt lat="42.3031750" lon="-8.2814460">
        <ele>925.2</ele>
        <time>2022-08-27T16:44:49Z</time>
      </trkpt>
      <trkpt lat="42.3031070" lon="-8.2815360">
        <ele>923.4</ele>
        <time>2022-08-27T16:44:50Z</time>
      </trkpt>
      <trkpt lat="42.3030330" lon="-8.2816120">
        <ele>922.0</ele>
        <time>2022-08-27T16:44:51Z</time>
      </trkpt>
      <trkpt lat="42.3029540" lon="-8.2816700">
        <ele>920.6</ele>
        <time>2022-08-27T16:44:52Z</time>
      </trkpt>
      <trkpt lat="42.3028700" lon="-8.2817040">
        <ele>919.0</ele>
        <time>2022-08-27T16:44:53Z</time>
      </trkpt>
      <trkpt lat="42.3027790" lon="-8.2817150">
        <ele>917.8</ele>
        <time>2022-08-27T16:44:54Z</time>
      </trkpt>
      <trkpt lat="42.3026880" lon="-8.2817150">
        <ele>916.8</ele>
        <time>2022-08-27T16:44:55Z</time>
      </trkpt>
      <trkpt lat="42.3025990" lon="-8.2817140">
        <ele>915.4</ele>
        <time>2022-08-27T16:44:56Z</time>
      </trkpt>
      <trkpt lat="42.3025150" lon="-8.2817160">
        <ele>914.2</ele>
        <time>2022-08-27T16:44:57Z</time>
      </trkpt>
      <trkpt lat="42.3024360" lon="-8.2817230">
        <ele>913.0</ele>
        <time>2022-08-27T16:44:58Z</time>
      </trkpt>
      <trkpt lat="42.3023590" lon="-8.2817480">
        <ele>911.8</ele>
        <time>2022-08-27T16:44:59Z</time>
      </trkpt>
      <trkpt lat="42.3022230" lon="-8.2818820">
        <ele>909.8</ele>
        <time>2022-08-27T16:45:01Z</time>
      </trkpt>
      <trkpt lat="42.3021770" lon="-8.2819780">
        <ele>908.8</ele>
        <time>2022-08-27T16:45:02Z</time>
      </trkpt>
      <trkpt lat="42.3021640" lon="-8.2821770">
        <ele>907.2</ele>
        <time>2022-08-27T16:45:04Z</time>
      </trkpt>
      <trkpt lat="42.3022630" lon="-8.2823470">
        <ele>905.6</ele>
        <time>2022-08-27T16:45:06Z</time>
      </trkpt>
      <trkpt lat="42.3024160" lon="-8.2824860">
        <ele>903.8</ele>
        <time>2022-08-27T16:45:08Z</time>
      </trkpt>
      <trkpt lat="42.3025000" lon="-8.2825590">
        <ele>902.8</ele>
        <time>2022-08-27T16:45:09Z</time>
      </trkpt>
      <trkpt lat="42.3025840" lon="-8.2826330">
        <ele>901.4</ele>
        <time>2022-08-27T16:45:10Z</time>
      </trkpt>
      <trkpt lat="42.3026680" lon="-8.2827050">
        <ele>900.2</ele>
        <time>2022-08-27T16:45:11Z</time>
      </trkpt>
      <trkpt lat="42.3027540" lon="-8.2827690">
        <ele>898.8</ele>
        <time>2022-08-27T16:45:12Z</time>
      </trkpt>
      <trkpt lat="42.3028450" lon="-8.2828160">
        <ele>896.6</ele>
        <time>2022-08-27T16:45:13Z</time>
      </trkpt>
      <trkpt lat="42.3029390" lon="-8.2828500">
        <ele>895.8</ele>
        <time>2022-08-27T16:45:14Z</time>
      </trkpt>
      <trkpt lat="42.3030340" lon="-8.2828770">
        <ele>895.2</ele>
        <time>2022-08-27T16:45:15Z</time>
      </trkpt>
      <trkpt lat="42.3032270" lon="-8.2829230">
        <ele>893.8</ele>
        <time>2022-08-27T16:45:17Z</time>
      </trkpt>
      <trkpt lat="42.3034220" lon="-8.2829600">
        <ele>892.4</ele>
        <time>2022-08-27T16:45:19Z</time>
      </trkpt>
      <trkpt lat="42.3035140" lon="-8.2829790">
        <ele>891.6</ele>
        <time>2022-08-27T16:45:20Z</time>
      </trkpt>
      <trkpt lat="42.3036000" lon="-8.2830050">
        <ele>891.0</ele>
        <time>2022-08-27T16:45:21Z</time>
      </trkpt>
      <trkpt lat="42.3037490" lon="-8.2831200">
        <ele>890.0</ele>
        <time>2022-08-27T16:45:23Z</time>
      </trkpt>
      <trkpt lat="42.3038060" lon="-8.2832170">
        <ele>889.6</ele>
        <time>2022-08-27T16:45:24Z</time>
      </trkpt>
      <trkpt lat="42.3038910" lon="-8.2834370">
        <ele>888.4</ele>
        <time>2022-08-27T16:45:26Z</time>
      </trkpt>
      <trkpt lat="42.3039890" lon="-8.2836540">
        <ele>887.2</ele>
        <time>2022-08-27T16:45:28Z</time>
      </trkpt>
      <trkpt lat="42.3041230" lon="-8.2838450">
        <ele>885.8</ele>
        <time>2022-08-27T16:45:30Z</time>
      </trkpt>
      <trkpt lat="42.3042730" lon="-8.2840180">
        <ele>884.6</ele>
        <time>2022-08-27T16:45:32Z</time>
      </trkpt>
      <trkpt lat="42.3044270" lon="-8.2841870">
        <ele>883.4</ele>
        <time>2022-08-27T16:45:34Z</time>
      </trkpt>
      <trkpt lat="42.3045940" lon="-8.2843390">
        <ele>882.4</ele>
        <time>2022-08-27T16:45:36Z</time>
      </trkpt>
      <trkpt lat="42.3046860" lon="-8.2844050">
        <ele>881.6</ele>
        <time>2022-08-27T16:45:37Z</time>
      </trkpt>
      <trkpt lat="42.3047830" lon="-8.2844600">
        <ele>880.8</ele>
        <time>2022-08-27T16:45:38Z</time>
      </trkpt>
      <trkpt lat="42.3049860" lon="-8.2845590">
        <ele>879.6</ele>
        <time>2022-08-27T16:45:40Z</time>
      </trkpt>
      <trkpt lat="42.3050890" lon="-8.2846100">
        <ele>878.4</ele>
        <time>2022-08-27T16:45:41Z</time>
      </trkpt>
      <trkpt lat="42.3051940" lon="-8.2846600">
        <ele>878.0</ele>
        <time>2022-08-27T16:45:42Z</time>
      </trkpt>
      <trkpt lat="42.3053000" lon="-8.2847040">
        <ele>877.4</ele>
        <time>2022-08-27T16:45:43Z</time>
      </trkpt>
      <trkpt lat="42.3055130" lon="-8.2847770">
        <ele>876.0</ele>
        <time>2022-08-27T16:45:45Z</time>
      </trkpt>
      <trkpt lat="42.3057150" lon="-8.2848560">
        <ele>874.4</ele>
        <time>2022-08-27T16:45:47Z</time>
      </trkpt>
      <trkpt lat="42.3059060" lon="-8.2849500">
        <ele>873.0</ele>
        <time>2022-08-27T16:45:49Z</time>
      </trkpt>
      <trkpt lat="42.3060870" lon="-8.2850500">
        <ele>871.4</ele>
        <time>2022-08-27T16:45:51Z</time>
      </trkpt>
      <trkpt lat="42.3062640" lon="-8.2851450">
        <ele>870.2</ele>
        <time>2022-08-27T16:45:53Z</time>
      </trkpt>
      <trkpt lat="42.3063550" lon="-8.2851810">
        <ele>869.8</ele>
        <time>2022-08-27T16:45:54Z</time>
      </trkpt>
      <trkpt lat="42.3065310" lon="-8.2852050">
        <ele>869.2</ele>
        <time>2022-08-27T16:45:56Z</time>
      </trkpt>
      <trkpt lat="42.3068480" lon="-8.2850850">
        <ele>868.4</ele>
        <time>2022-08-27T16:46:00Z</time>
      </trkpt>
      <trkpt lat="42.3069040" lon="-8.2850130">
        <ele>868.2</ele>
        <time>2022-08-27T16:46:01Z</time>
      </trkpt>
      <trkpt lat="42.3069510" lon="-8.2849310">
        <ele>868.0</ele>
        <time>2022-08-27T16:46:02Z</time>
      </trkpt>
      <trkpt lat="42.3070000" lon="-8.2848500">
        <ele>867.4</ele>
        <time>2022-08-27T16:46:03Z</time>
      </trkpt>
      <trkpt lat="42.3070510" lon="-8.2847740">
        <ele>867.0</ele>
        <time>2022-08-27T16:46:04Z</time>
      </trkpt>
      <trkpt lat="42.3071620" lon="-8.2846460">
        <ele>866.4</ele>
        <time>2022-08-27T16:46:06Z</time>
      </trkpt>
      <trkpt lat="42.3072210" lon="-8.2846080">
        <ele>866.2</ele>
        <time>2022-08-27T16:46:07Z</time>
      </trkpt>
      <trkpt lat="42.3072810" lon="-8.2845930">
        <ele>866.0</ele>
        <time>2022-08-27T16:46:08Z</time>
      </trkpt>
      <trkpt lat="42.3073960" lon="-8.2846110">
        <ele>865.8</ele>
        <time>2022-08-27T16:46:10Z</time>
      </trkpt>
      <trkpt lat="42.3075190" lon="-8.2846620">
        <ele>865.6</ele>
        <time>2022-08-27T16:46:12Z</time>
      </trkpt>
      <trkpt lat="42.3076660" lon="-8.2847320">
        <ele>865.6</ele>
        <time>2022-08-27T16:46:14Z</time>
      </trkpt>
      <trkpt lat="42.3077490" lon="-8.2847610">
        <ele>865.6</ele>
        <time>2022-08-27T16:46:15Z</time>
      </trkpt>
      <trkpt lat="42.3079230" lon="-8.2847790">
        <ele>865.4</ele>
        <time>2022-08-27T16:46:17Z</time>
      </trkpt>
      <trkpt lat="42.3080840" lon="-8.2847660">
        <ele>865.2</ele>
        <time>2022-08-27T16:46:19Z</time>
      </trkpt>
      <trkpt lat="42.3082250" lon="-8.2847580">
        <ele>865.0</ele>
        <time>2022-08-27T16:46:21Z</time>
      </trkpt>
      <trkpt lat="42.3082930" lon="-8.2847530">
        <ele>864.6</ele>
        <time>2022-08-27T16:46:22Z</time>
      </trkpt>
      <trkpt lat="42.3084110" lon="-8.2847490">
        <ele>863.2</ele>
        <time>2022-08-27T16:46:24Z</time>
      </trkpt>
      <trkpt lat="42.3084570" lon="-8.2847540">
        <ele>862.6</ele>
        <time>2022-08-27T16:46:25Z</time>
      </trkpt>
      <trkpt lat="42.3084960" lon="-8.2847600">
        <ele>862.2</ele>
        <time>2022-08-27T16:46:26Z</time>
      </trkpt>
      <trkpt lat="42.3085660" lon="-8.2847810">
        <ele>861.4</ele>
        <time>2022-08-27T16:46:29Z</time>
      </trkpt>
      <trkpt lat="42.3085830" lon="-8.2847880">
        <ele>861.2</ele>
        <time>2022-08-27T16:46:30Z</time>
      </trkpt>
      <trkpt lat="42.3086670" lon="-8.2848250">
        <ele>859.8</ele>
        <time>2022-08-27T16:46:33Z</time>
      </trkpt>
      <trkpt lat="42.3087040" lon="-8.2848550">
        <ele>859.4</ele>
        <time>2022-08-27T16:46:34Z</time>
      </trkpt>
      <trkpt lat="42.3087360" lon="-8.2848940">
        <ele>858.8</ele>
        <time>2022-08-27T16:46:35Z</time>
      </trkpt>
      <trkpt lat="42.3087780" lon="-8.2849780">
        <ele>857.8</ele>
        <time>2022-08-27T16:46:37Z</time>
      </trkpt>
      <trkpt lat="42.3087960" lon="-8.2850280">
        <ele>857.0</ele>
        <time>2022-08-27T16:46:38Z</time>
      </trkpt>
      <trkpt lat="42.3088200" lon="-8.2850770">
        <ele>856.8</ele>
        <time>2022-08-27T16:46:39Z</time>
      </trkpt>
      <trkpt lat="42.3088510" lon="-8.2851230">
        <ele>856.6</ele>
        <time>2022-08-27T16:46:40Z</time>
      </trkpt>
      <trkpt lat="42.3089270" lon="-8.2852080">
        <ele>856.0</ele>
        <time>2022-08-27T16:46:42Z</time>
      </trkpt>
      <trkpt lat="42.3089700" lon="-8.2852480">
        <ele>855.4</ele>
        <time>2022-08-27T16:46:43Z</time>
      </trkpt>
      <trkpt lat="42.3090580" lon="-8.2853340">
        <ele>854.4</ele>
        <time>2022-08-27T16:46:45Z</time>
      </trkpt>
      <trkpt lat="42.3090920" lon="-8.2853920">
        <ele>854.2</ele>
        <time>2022-08-27T16:46:46Z</time>
      </trkpt>
      <trkpt lat="42.3091110" lon="-8.2854630">
        <ele>853.8</ele>
        <time>2022-08-27T16:46:47Z</time>
      </trkpt>
      <trkpt lat="42.3090770" lon="-8.2857050">
        <ele>853.4</ele>
        <time>2022-08-27T16:46:50Z</time>
      </trkpt>
      <trkpt lat="42.3090470" lon="-8.2857860">
        <ele>853.2</ele>
        <time>2022-08-27T16:46:51Z</time>
      </trkpt>
      <trkpt lat="42.3089030" lon="-8.2860020">
        <ele>852.2</ele>
        <time>2022-08-27T16:46:54Z</time>
      </trkpt>
      <trkpt lat="42.3088420" lon="-8.2860640">
        <ele>852.0</ele>
        <time>2022-08-27T16:46:55Z</time>
      </trkpt>
      <trkpt lat="42.3087820" lon="-8.2861220">
        <ele>851.6</ele>
        <time>2022-08-27T16:46:56Z</time>
      </trkpt>
      <trkpt lat="42.3087260" lon="-8.2861820">
        <ele>851.2</ele>
        <time>2022-08-27T16:46:57Z</time>
      </trkpt>
      <trkpt lat="42.3086800" lon="-8.2862510">
        <ele>851.0</ele>
        <time>2022-08-27T16:46:58Z</time>
      </trkpt>
      <trkpt lat="42.3086500" lon="-8.2863380">
        <ele>850.8</ele>
        <time>2022-08-27T16:46:59Z</time>
      </trkpt>
      <trkpt lat="42.3086360" lon="-8.2864410">
        <ele>850.4</ele>
        <time>2022-08-27T16:47:00Z</time>
      </trkpt>
      <trkpt lat="42.3086270" lon="-8.2866700">
        <ele>849.6</ele>
        <time>2022-08-27T16:47:02Z</time>
      </trkpt>
      <trkpt lat="42.3085800" lon="-8.2869020">
        <ele>848.6</ele>
        <time>2022-08-27T16:47:04Z</time>
      </trkpt>
      <trkpt lat="42.3085400" lon="-8.2870100">
        <ele>847.4</ele>
        <time>2022-08-27T16:47:05Z</time>
      </trkpt>
      <trkpt lat="42.3084950" lon="-8.2871150">
        <ele>845.4</ele>
        <time>2022-08-27T16:47:06Z</time>
      </trkpt>
      <trkpt lat="42.3084170" lon="-8.2873250">
        <ele>843.8</ele>
        <time>2022-08-27T16:47:08Z</time>
      </trkpt>
      <trkpt lat="42.3083990" lon="-8.2875510">
        <ele>842.0</ele>
        <time>2022-08-27T16:47:10Z</time>
      </trkpt>
      <trkpt lat="42.3084140" lon="-8.2876720">
        <ele>841.0</ele>
        <time>2022-08-27T16:47:11Z</time>
      </trkpt>
      <trkpt lat="42.3084350" lon="-8.2877990">
        <ele>839.8</ele>
        <time>2022-08-27T16:47:12Z</time>
      </trkpt>
      <trkpt lat="42.3084520" lon="-8.2879310">
        <ele>838.8</ele>
        <time>2022-08-27T16:47:13Z</time>
      </trkpt>
      <trkpt lat="42.3084650" lon="-8.2882180">
        <ele>837.4</ele>
        <time>2022-08-27T16:47:15Z</time>
      </trkpt>
      <trkpt lat="42.3084900" lon="-8.2885200">
        <ele>835.8</ele>
        <time>2022-08-27T16:47:17Z</time>
      </trkpt>
      <trkpt lat="42.3085400" lon="-8.2888160">
        <ele>834.4</ele>
        <time>2022-08-27T16:47:19Z</time>
      </trkpt>
      <trkpt lat="42.3085930" lon="-8.2890890">
        <ele>832.4</ele>
        <time>2022-08-27T16:47:21Z</time>
      </trkpt>
      <trkpt lat="42.3086150" lon="-8.2892130">
        <ele>831.4</ele>
        <time>2022-08-27T16:47:22Z</time>
      </trkpt>
      <trkpt lat="42.3086310" lon="-8.2893300">
        <ele>830.2</ele>
        <time>2022-08-27T16:47:23Z</time>
      </trkpt>
      <trkpt lat="42.3086390" lon="-8.2894390">
        <ele>829.0</ele>
        <time>2022-08-27T16:47:24Z</time>
      </trkpt>
      <trkpt lat="42.3086330" lon="-8.2895410">
        <ele>827.4</ele>
        <time>2022-08-27T16:47:25Z</time>
      </trkpt>
      <trkpt lat="42.3086080" lon="-8.2896360">
        <ele>825.8</ele>
        <time>2022-08-27T16:47:26Z</time>
      </trkpt>
      <trkpt lat="42.3085650" lon="-8.2897250">
        <ele>824.4</ele>
        <time>2022-08-27T16:47:27Z</time>
      </trkpt>
      <trkpt lat="42.3085110" lon="-8.2898080">
        <ele>823.0</ele>
        <time>2022-08-27T16:47:28Z</time>
      </trkpt>
      <trkpt lat="42.3084560" lon="-8.2898870">
        <ele>821.8</ele>
        <time>2022-08-27T16:47:29Z</time>
      </trkpt>
      <trkpt lat="42.3084050" lon="-8.2899670">
        <ele>820.6</ele>
        <time>2022-08-27T16:47:30Z</time>
      </trkpt>
      <trkpt lat="42.3083660" lon="-8.2900580">
        <ele>819.4</ele>
        <time>2022-08-27T16:47:31Z</time>
      </trkpt>
      <trkpt lat="42.3083430" lon="-8.2901640">
        <ele>818.4</ele>
        <time>2022-08-27T16:47:32Z</time>
      </trkpt>
      <trkpt lat="42.3083400" lon="-8.2902790">
        <ele>817.6</ele>
        <time>2022-08-27T16:47:33Z</time>
      </trkpt>
      <trkpt lat="42.3083600" lon="-8.2905070">
        <ele>815.2</ele>
        <time>2022-08-27T16:47:35Z</time>
      </trkpt>
      <trkpt lat="42.3083600" lon="-8.2906080">
        <ele>814.2</ele>
        <time>2022-08-27T16:47:36Z</time>
      </trkpt>
      <trkpt lat="42.3083500" lon="-8.2906980">
        <ele>813.0</ele>
        <time>2022-08-27T16:47:37Z</time>
      </trkpt>
      <trkpt lat="42.3083290" lon="-8.2907730">
        <ele>812.0</ele>
        <time>2022-08-27T16:47:38Z</time>
      </trkpt>
      <trkpt lat="42.3082950" lon="-8.2908320">
        <ele>810.8</ele>
        <time>2022-08-27T16:47:39Z</time>
      </trkpt>
      <trkpt lat="42.3081810" lon="-8.2909020">
        <ele>809.4</ele>
        <time>2022-08-27T16:47:41Z</time>
      </trkpt>
      <trkpt lat="42.3080350" lon="-8.2908710">
        <ele>807.6</ele>
        <time>2022-08-27T16:47:43Z</time>
      </trkpt>
      <trkpt lat="42.3079690" lon="-8.2908280">
        <ele>806.6</ele>
        <time>2022-08-27T16:47:44Z</time>
      </trkpt>
      <trkpt lat="42.3079080" lon="-8.2907720">
        <ele>805.8</ele>
        <time>2022-08-27T16:47:45Z</time>
      </trkpt>
      <trkpt lat="42.3078130" lon="-8.2906460">
        <ele>804.4</ele>
        <time>2022-08-27T16:47:47Z</time>
      </trkpt>
      <trkpt lat="42.3077730" lon="-8.2905860">
        <ele>803.6</ele>
        <time>2022-08-27T16:47:48Z</time>
      </trkpt>
      <trkpt lat="42.3077310" lon="-8.2905350">
        <ele>803.0</ele>
        <time>2022-08-27T16:47:49Z</time>
      </trkpt>
      <trkpt lat="42.3076340" lon="-8.2904910">
        <ele>801.6</ele>
        <time>2022-08-27T16:47:51Z</time>
      </trkpt>
      <trkpt lat="42.3075520" lon="-8.2905570">
        <ele>799.8</ele>
        <time>2022-08-27T16:47:53Z</time>
      </trkpt>
      <trkpt lat="42.3075320" lon="-8.2906290">
        <ele>799.0</ele>
        <time>2022-08-27T16:47:54Z</time>
      </trkpt>
      <trkpt lat="42.3075260" lon="-8.2907230">
        <ele>798.2</ele>
        <time>2022-08-27T16:47:55Z</time>
      </trkpt>
      <trkpt lat="42.3075520" lon="-8.2909500">
        <ele>796.6</ele>
        <time>2022-08-27T16:47:57Z</time>
      </trkpt>
      <trkpt lat="42.3076130" lon="-8.2911860">
        <ele>795.0</ele>
        <time>2022-08-27T16:47:59Z</time>
      </trkpt>
      <trkpt lat="42.3076940" lon="-8.2914000">
        <ele>793.2</ele>
        <time>2022-08-27T16:48:01Z</time>
      </trkpt>
      <trkpt lat="42.3077290" lon="-8.2916180">
        <ele>791.6</ele>
        <time>2022-08-27T16:48:03Z</time>
      </trkpt>
      <trkpt lat="42.3077270" lon="-8.2917340">
        <ele>789.8</ele>
        <time>2022-08-27T16:48:04Z</time>
      </trkpt>
      <trkpt lat="42.3077290" lon="-8.2918590">
        <ele>788.6</ele>
        <time>2022-08-27T16:48:05Z</time>
      </trkpt>
      <trkpt lat="42.3077470" lon="-8.2919860">
        <ele>786.8</ele>
        <time>2022-08-27T16:48:06Z</time>
      </trkpt>
      <trkpt lat="42.3077780" lon="-8.2921090">
        <ele>785.0</ele>
        <time>2022-08-27T16:48:07Z</time>
      </trkpt>
      <trkpt lat="42.3078120" lon="-8.2922250">
        <ele>783.4</ele>
        <time>2022-08-27T16:48:08Z</time>
      </trkpt>
      <trkpt lat="42.3078470" lon="-8.2923330">
        <ele>781.8</ele>
        <time>2022-08-27T16:48:09Z</time>
      </trkpt>
      <trkpt lat="42.3078930" lon="-8.2924270">
        <ele>780.6</ele>
        <time>2022-08-27T16:48:10Z</time>
      </trkpt>
      <trkpt lat="42.3079600" lon="-8.2925070">
        <ele>779.4</ele>
        <time>2022-08-27T16:48:11Z</time>
      </trkpt>
      <trkpt lat="42.3080440" lon="-8.2925610">
        <ele>778.0</ele>
        <time>2022-08-27T16:48:12Z</time>
      </trkpt>
      <trkpt lat="42.3081370" lon="-8.2925910">
        <ele>776.8</ele>
        <time>2022-08-27T16:48:13Z</time>
      </trkpt>
      <trkpt lat="42.3082330" lon="-8.2926160">
        <ele>775.6</ele>
        <time>2022-08-27T16:48:14Z</time>
      </trkpt>
      <trkpt lat="42.3083210" lon="-8.2926470">
        <ele>774.0</ele>
        <time>2022-08-27T16:48:15Z</time>
      </trkpt>
      <trkpt lat="42.3083920" lon="-8.2926970">
        <ele>772.4</ele>
        <time>2022-08-27T16:48:16Z</time>
      </trkpt>
      <trkpt lat="42.3084420" lon="-8.2927640">
        <ele>771.2</ele>
        <time>2022-08-27T16:48:17Z</time>
      </trkpt>
      <trkpt lat="42.3084610" lon="-8.2929380">
        <ele>769.8</ele>
        <time>2022-08-27T16:48:19Z</time>
      </trkpt>
      <trkpt lat="42.3084150" lon="-8.2931050">
        <ele>768.0</ele>
        <time>2022-08-27T16:48:21Z</time>
      </trkpt>
      <trkpt lat="42.3083630" lon="-8.2932860">
        <ele>766.2</ele>
        <time>2022-08-27T16:48:23Z</time>
      </trkpt>
      <trkpt lat="42.3083180" lon="-8.2934880">
        <ele>764.4</ele>
        <time>2022-08-27T16:48:25Z</time>
      </trkpt>
      <trkpt lat="42.3082340" lon="-8.2937790">
        <ele>763.6</ele>
        <time>2022-08-27T16:48:28Z</time>
      </trkpt>
      <trkpt lat="42.3081950" lon="-8.2938640">
        <ele>763.4</ele>
        <time>2022-08-27T16:48:29Z</time>
      </trkpt>
      <trkpt lat="42.3080010" lon="-8.2941500">
        <ele>762.2</ele>
        <time>2022-08-27T16:48:33Z</time>
      </trkpt>
      <trkpt lat="42.3079590" lon="-8.2942250">
        <ele>761.8</ele>
        <time>2022-08-27T16:48:34Z</time>
      </trkpt>
      <trkpt lat="42.3078400" lon="-8.2945220">
        <ele>761.0</ele>
        <time>2022-08-27T16:48:38Z</time>
      </trkpt>
      <trkpt lat="42.3078230" lon="-8.2945960">
        <ele>760.8</ele>
        <time>2022-08-27T16:48:39Z</time>
      </trkpt>
      <trkpt lat="42.3078240" lon="-8.2948520">
        <ele>760.8</ele>
        <time>2022-08-27T16:48:43Z</time>
      </trkpt>
      <trkpt lat="42.3078810" lon="-8.2951590">
        <ele>760.6</ele>
        <time>2022-08-27T16:48:49Z</time>
      </trkpt>
      <trkpt lat="42.3079490" lon="-8.2953990">
        <ele>760.8</ele>
        <time>2022-08-27T16:48:52Z</time>
      </trkpt>
      <trkpt lat="42.3079900" lon="-8.2954910">
        <ele>760.8</ele>
        <time>2022-08-27T16:48:53Z</time>
      </trkpt>
      <trkpt lat="42.3080740" lon="-8.2956730">
        <ele>760.8</ele>
        <time>2022-08-27T16:48:55Z</time>
      </trkpt>
      <trkpt lat="42.3081030" lon="-8.2958620">
        <ele>760.8</ele>
        <time>2022-08-27T16:48:57Z</time>
      </trkpt>
      <trkpt lat="42.3080280" lon="-8.2961880">
        <ele>760.0</ele>
        <time>2022-08-27T16:49:00Z</time>
      </trkpt>
      <trkpt lat="42.3080040" lon="-8.2963000">
        <ele>758.4</ele>
        <time>2022-08-27T16:49:01Z</time>
      </trkpt>
      <trkpt lat="42.3079860" lon="-8.2964080">
        <ele>757.4</ele>
        <time>2022-08-27T16:49:02Z</time>
      </trkpt>
      <trkpt lat="42.3079600" lon="-8.2966300">
        <ele>755.8</ele>
        <time>2022-08-27T16:49:04Z</time>
      </trkpt>
      <trkpt lat="42.3079570" lon="-8.2968530">
        <ele>754.6</ele>
        <time>2022-08-27T16:49:06Z</time>
      </trkpt>
      <trkpt lat="42.3079640" lon="-8.2969570">
        <ele>753.8</ele>
        <time>2022-08-27T16:49:07Z</time>
      </trkpt>
      <trkpt lat="42.3079850" lon="-8.2970490">
        <ele>753.0</ele>
        <time>2022-08-27T16:49:08Z</time>
      </trkpt>
      <trkpt lat="42.3080640" lon="-8.2971800">
        <ele>751.0</ele>
        <time>2022-08-27T16:49:10Z</time>
      </trkpt>
      <trkpt lat="42.3081150" lon="-8.2972180">
        <ele>750.0</ele>
        <time>2022-08-27T16:49:11Z</time>
      </trkpt>
      <trkpt lat="42.3081700" lon="-8.2972480">
        <ele>749.4</ele>
        <time>2022-08-27T16:49:12Z</time>
      </trkpt>
      <trkpt lat="42.3082270" lon="-8.2972720">
        <ele>748.0</ele>
        <time>2022-08-27T16:49:13Z</time>
      </trkpt>
      <trkpt lat="42.3082820" lon="-8.2972900">
        <ele>747.0</ele>
        <time>2022-08-27T16:49:14Z</time>
      </trkpt>
      <trkpt lat="42.3083310" lon="-8.2973060">
        <ele>746.0</ele>
        <time>2022-08-27T16:49:15Z</time>
      </trkpt>
      <trkpt lat="42.3083680" lon="-8.2973240">
        <ele>745.4</ele>
        <time>2022-08-27T16:49:16Z</time>
      </trkpt>
      <trkpt lat="42.3084160" lon="-8.2973600">
        <ele>744.2</ele>
        <time>2022-08-27T16:49:18Z</time>
      </trkpt>
      <trkpt lat="42.3084400" lon="-8.2973910">
        <ele>742.8</ele>
        <time>2022-08-27T16:49:20Z</time>
      </trkpt>
      <trkpt lat="42.3084470" lon="-8.2974030">
        <ele>741.0</ele>
        <time>2022-08-27T16:49:22Z</time>
      </trkpt>
      <trkpt lat="42.3084480" lon="-8.2974020">
        <ele>740.2</ele>
        <time>2022-08-27T16:49:23Z</time>
      </trkpt>
      <trkpt lat="42.3084200" lon="-8.2974350">
        <ele>736.6</ele>
        <time>2022-08-27T16:51:47Z</time>
      </trkpt>
      <trkpt lat="42.3083770" lon="-8.2974540">
        <ele>736.6</ele>
        <time>2022-08-27T16:51:50Z</time>
      </trkpt>
      <trkpt lat="42.3083490" lon="-8.2974430">
        <ele>736.6</ele>
        <time>2022-08-27T16:51:55Z</time>
      </trkpt>
      <trkpt lat="42.3083870" lon="-8.2975090">
        <ele>736.8</ele>
        <time>2022-08-27T16:53:26Z</time>
      </trkpt>
      <trkpt lat="42.3082860" lon="-8.2976440">
        <ele>736.8</ele>
        <time>2022-08-27T16:53:33Z</time>
      </trkpt>
      <trkpt lat="42.3081170" lon="-8.2977780">
        <ele>736.6</ele>
        <time>2022-08-27T16:53:39Z</time>
      </trkpt>
      <trkpt lat="42.3079170" lon="-8.2979170">
        <ele>736.4</ele>
        <time>2022-08-27T16:53:43Z</time>
      </trkpt>
      <trkpt lat="42.3077980" lon="-8.2979920">
        <ele>736.2</ele>
        <time>2022-08-27T16:53:45Z</time>
      </trkpt>
      <trkpt lat="42.3075220" lon="-8.2981830">
        <ele>735.6</ele>
        <time>2022-08-27T16:53:49Z</time>
      </trkpt>
      <trkpt lat="42.3074500" lon="-8.2982440">
        <ele>735.0</ele>
        <time>2022-08-27T16:53:50Z</time>
      </trkpt>
      <trkpt lat="42.3072530" lon="-8.2984660">
        <ele>733.8</ele>
        <time>2022-08-27T16:53:53Z</time>
      </trkpt>
      <trkpt lat="42.3071330" lon="-8.2987620">
        <ele>732.2</ele>
        <time>2022-08-27T16:53:56Z</time>
      </trkpt>
      <trkpt lat="42.3071080" lon="-8.2989860">
        <ele>731.0</ele>
        <time>2022-08-27T16:53:58Z</time>
      </trkpt>
      <trkpt lat="42.3071050" lon="-8.2991000">
        <ele>730.6</ele>
        <time>2022-08-27T16:53:59Z</time>
      </trkpt>
      <trkpt lat="42.3071020" lon="-8.2992130">
        <ele>730.2</ele>
        <time>2022-08-27T16:54:00Z</time>
      </trkpt>
      <trkpt lat="42.3070960" lon="-8.2993260">
        <ele>729.8</ele>
        <time>2022-08-27T16:54:01Z</time>
      </trkpt>
      <trkpt lat="42.3070440" lon="-8.2996700">
        <ele>728.4</ele>
        <time>2022-08-27T16:54:04Z</time>
      </trkpt>
      <trkpt lat="42.3070100" lon="-8.2997830">
        <ele>728.0</ele>
        <time>2022-08-27T16:54:05Z</time>
      </trkpt>
      <trkpt lat="42.3069060" lon="-8.2999890">
        <ele>727.2</ele>
        <time>2022-08-27T16:54:07Z</time>
      </trkpt>
      <trkpt lat="42.3068370" lon="-8.3000780">
        <ele>726.8</ele>
        <time>2022-08-27T16:54:08Z</time>
      </trkpt>
      <trkpt lat="42.3066770" lon="-8.3002380">
        <ele>726.0</ele>
        <time>2022-08-27T16:54:10Z</time>
      </trkpt>
      <trkpt lat="42.3064280" lon="-8.3004680">
        <ele>725.0</ele>
        <time>2022-08-27T16:54:13Z</time>
      </trkpt>
      <trkpt lat="42.3063470" lon="-8.3005410">
        <ele>724.4</ele>
        <time>2022-08-27T16:54:14Z</time>
      </trkpt>
      <trkpt lat="42.3062680" lon="-8.3006110">
        <ele>723.8</ele>
        <time>2022-08-27T16:54:15Z</time>
      </trkpt>
      <trkpt lat="42.3061120" lon="-8.3007370">
        <ele>722.6</ele>
        <time>2022-08-27T16:54:17Z</time>
      </trkpt>
      <trkpt lat="42.3060340" lon="-8.3007890">
        <ele>721.4</ele>
        <time>2022-08-27T16:54:18Z</time>
      </trkpt>
      <trkpt lat="42.3059560" lon="-8.3008310">
        <ele>720.8</ele>
        <time>2022-08-27T16:54:19Z</time>
      </trkpt>
      <trkpt lat="42.3058770" lon="-8.3008650">
        <ele>720.4</ele>
        <time>2022-08-27T16:54:20Z</time>
      </trkpt>
      <trkpt lat="42.3057110" lon="-8.3009240">
        <ele>719.2</ele>
        <time>2022-08-27T16:54:22Z</time>
      </trkpt>
      <trkpt lat="42.3054430" lon="-8.3010070">
        <ele>718.2</ele>
        <time>2022-08-27T16:54:25Z</time>
      </trkpt>
      <trkpt lat="42.3053510" lon="-8.3010330">
        <ele>718.0</ele>
        <time>2022-08-27T16:54:26Z</time>
      </trkpt>
      <trkpt lat="42.3049000" lon="-8.3011610">
        <ele>716.8</ele>
        <time>2022-08-27T16:54:31Z</time>
      </trkpt>
      <trkpt lat="42.3046450" lon="-8.3012390">
        <ele>715.4</ele>
        <time>2022-08-27T16:54:34Z</time>
      </trkpt>
      <trkpt lat="42.3044800" lon="-8.3012860">
        <ele>714.2</ele>
        <time>2022-08-27T16:54:36Z</time>
      </trkpt>
      <trkpt lat="42.3040560" lon="-8.3013760">
        <ele>713.2</ele>
        <time>2022-08-27T16:54:41Z</time>
      </trkpt>
      <trkpt lat="42.3038830" lon="-8.3014010">
        <ele>712.6</ele>
        <time>2022-08-27T16:54:43Z</time>
      </trkpt>
      <trkpt lat="42.3037070" lon="-8.3014310">
        <ele>712.0</ele>
        <time>2022-08-27T16:54:45Z</time>
      </trkpt>
      <trkpt lat="42.3035270" lon="-8.3014650">
        <ele>711.0</ele>
        <time>2022-08-27T16:54:47Z</time>
      </trkpt>
      <trkpt lat="42.3031610" lon="-8.3015240">
        <ele>709.8</ele>
        <time>2022-08-27T16:54:51Z</time>
      </trkpt>
      <trkpt lat="42.3030670" lon="-8.3015400">
        <ele>709.4</ele>
        <time>2022-08-27T16:54:52Z</time>
      </trkpt>
      <trkpt lat="42.3028760" lon="-8.3015710">
        <ele>708.4</ele>
        <time>2022-08-27T16:54:54Z</time>
      </trkpt>
      <trkpt lat="42.3025810" lon="-8.3016200">
        <ele>707.4</ele>
        <time>2022-08-27T16:54:57Z</time>
      </trkpt>
      <trkpt lat="42.3022970" lon="-8.3016690">
        <ele>706.2</ele>
        <time>2022-08-27T16:55:00Z</time>
      </trkpt>
      <trkpt lat="42.3022150" lon="-8.3016810">
        <ele>705.6</ele>
        <time>2022-08-27T16:55:01Z</time>
      </trkpt>
      <trkpt lat="42.3021380" lon="-8.3016930">
        <ele>705.0</ele>
        <time>2022-08-27T16:55:02Z</time>
      </trkpt>
      <trkpt lat="42.3019000" lon="-8.3017340">
        <ele>703.6</ele>
        <time>2022-08-27T16:55:05Z</time>
      </trkpt>
      <trkpt lat="42.3017350" lon="-8.3017560">
        <ele>702.4</ele>
        <time>2022-08-27T16:55:07Z</time>
      </trkpt>
      <trkpt lat="42.3015700" lon="-8.3017740">
        <ele>701.2</ele>
        <time>2022-08-27T16:55:09Z</time>
      </trkpt>
      <trkpt lat="42.3014040" lon="-8.3018010">
        <ele>700.0</ele>
        <time>2022-08-27T16:55:11Z</time>
      </trkpt>
      <trkpt lat="42.3011600" lon="-8.3018470">
        <ele>698.8</ele>
        <time>2022-08-27T16:55:14Z</time>
      </trkpt>
      <trkpt lat="42.3010090" lon="-8.3018740">
        <ele>697.4</ele>
        <time>2022-08-27T16:55:16Z</time>
      </trkpt>
      <trkpt lat="42.3007950" lon="-8.3019110">
        <ele>696.6</ele>
        <time>2022-08-27T16:55:19Z</time>
      </trkpt>
      <trkpt lat="42.3004680" lon="-8.3019600">
        <ele>696.0</ele>
        <time>2022-08-27T16:55:24Z</time>
      </trkpt>
      <trkpt lat="42.3000490" lon="-8.3020250">
        <ele>695.8</ele>
        <time>2022-08-27T16:55:30Z</time>
      </trkpt>
      <trkpt lat="42.2998060" lon="-8.3021430">
        <ele>695.4</ele>
        <time>2022-08-27T16:55:33Z</time>
      </trkpt>
      <trkpt lat="42.2997180" lon="-8.3021870">
        <ele>695.2</ele>
        <time>2022-08-27T16:55:34Z</time>
      </trkpt>
      <trkpt lat="42.2995390" lon="-8.3022790">
        <ele>694.4</ele>
        <time>2022-08-27T16:55:36Z</time>
      </trkpt>
      <trkpt lat="42.2992650" lon="-8.3024240">
        <ele>693.0</ele>
        <time>2022-08-27T16:55:39Z</time>
      </trkpt>
      <trkpt lat="42.2990770" lon="-8.3025230">
        <ele>691.6</ele>
        <time>2022-08-27T16:55:41Z</time>
      </trkpt>
      <trkpt lat="42.2988820" lon="-8.3026270">
        <ele>689.8</ele>
        <time>2022-08-27T16:55:43Z</time>
      </trkpt>
      <trkpt lat="42.2986810" lon="-8.3027470">
        <ele>688.2</ele>
        <time>2022-08-27T16:55:45Z</time>
      </trkpt>
      <trkpt lat="42.2984930" lon="-8.3028780">
        <ele>687.0</ele>
        <time>2022-08-27T16:55:47Z</time>
      </trkpt>
      <trkpt lat="42.2984070" lon="-8.3029420">
        <ele>686.4</ele>
        <time>2022-08-27T16:55:48Z</time>
      </trkpt>
      <trkpt lat="42.2983230" lon="-8.3030050">
        <ele>685.6</ele>
        <time>2022-08-27T16:55:49Z</time>
      </trkpt>
      <trkpt lat="42.2981560" lon="-8.3031470">
        <ele>684.4</ele>
        <time>2022-08-27T16:55:51Z</time>
      </trkpt>
      <trkpt lat="42.2979750" lon="-8.3033120">
        <ele>683.0</ele>
        <time>2022-08-27T16:55:53Z</time>
      </trkpt>
      <trkpt lat="42.2977800" lon="-8.3034890">
        <ele>680.8</ele>
        <time>2022-08-27T16:55:55Z</time>
      </trkpt>
      <trkpt lat="42.2975770" lon="-8.3036600">
        <ele>679.0</ele>
        <time>2022-08-27T16:55:57Z</time>
      </trkpt>
      <trkpt lat="42.2973720" lon="-8.3038270">
        <ele>677.0</ele>
        <time>2022-08-27T16:55:59Z</time>
      </trkpt>
      <trkpt lat="42.2972700" lon="-8.3039100">
        <ele>675.6</ele>
        <time>2022-08-27T16:56:00Z</time>
      </trkpt>
      <trkpt lat="42.2971690" lon="-8.3039890">
        <ele>674.4</ele>
        <time>2022-08-27T16:56:01Z</time>
      </trkpt>
      <trkpt lat="42.2970750" lon="-8.3040630">
        <ele>673.0</ele>
        <time>2022-08-27T16:56:02Z</time>
      </trkpt>
      <trkpt lat="42.2969890" lon="-8.3041310">
        <ele>671.4</ele>
        <time>2022-08-27T16:56:03Z</time>
      </trkpt>
      <trkpt lat="42.2969050" lon="-8.3041990">
        <ele>670.2</ele>
        <time>2022-08-27T16:56:04Z</time>
      </trkpt>
      <trkpt lat="42.2968210" lon="-8.3042670">
        <ele>669.0</ele>
        <time>2022-08-27T16:56:05Z</time>
      </trkpt>
      <trkpt lat="42.2967390" lon="-8.3043340">
        <ele>668.0</ele>
        <time>2022-08-27T16:56:06Z</time>
      </trkpt>
      <trkpt lat="42.2965770" lon="-8.3044670">
        <ele>666.4</ele>
        <time>2022-08-27T16:56:08Z</time>
      </trkpt>
      <trkpt lat="42.2964260" lon="-8.3045890">
        <ele>665.2</ele>
        <time>2022-08-27T16:56:10Z</time>
      </trkpt>
      <trkpt lat="42.2963600" lon="-8.3046360">
        <ele>663.4</ele>
        <time>2022-08-27T16:56:11Z</time>
      </trkpt>
      <trkpt lat="42.2962960" lon="-8.3046710">
        <ele>662.8</ele>
        <time>2022-08-27T16:56:12Z</time>
      </trkpt>
      <trkpt lat="42.2962360" lon="-8.3046970">
        <ele>662.4</ele>
        <time>2022-08-27T16:56:13Z</time>
      </trkpt>
      <trkpt lat="42.2961590" lon="-8.3047250">
        <ele>661.8</ele>
        <time>2022-08-27T16:56:15Z</time>
      </trkpt>
      <trkpt lat="42.2961360" lon="-8.3047300">
        <ele>661.4</ele>
        <time>2022-08-27T16:56:16Z</time>
      </trkpt>
      <trkpt lat="42.2960820" lon="-8.3047320">
        <ele>660.2</ele>
        <time>2022-08-27T16:56:19Z</time>
      </trkpt>
      <trkpt lat="42.2960620" lon="-8.3047250">
        <ele>659.4</ele>
        <time>2022-08-27T16:56:21Z</time>
      </trkpt>
      <trkpt lat="42.2960590" lon="-8.3047180">
        <ele>659.0</ele>
        <time>2022-08-27T16:56:22Z</time>
      </trkpt>
      <trkpt lat="42.2960630" lon="-8.3047040">
        <ele>658.4</ele>
        <time>2022-08-27T16:56:23Z</time>
      </trkpt>
      <trkpt lat="42.2960860" lon="-8.3046860">
        <ele>658.0</ele>
        <time>2022-08-27T16:56:25Z</time>
      </trkpt>
      <trkpt lat="42.2960960" lon="-8.3046850">
        <ele>657.6</ele>
        <time>2022-08-27T16:56:26Z</time>
      </trkpt>
      <trkpt lat="42.2961050" lon="-8.3046900">
        <ele>657.2</ele>
        <time>2022-08-27T16:56:29Z</time>
      </trkpt>
      <trkpt lat="42.2960820" lon="-8.3047160">
        <ele>657.2</ele>
        <time>2022-08-27T16:56:35Z</time>
      </trkpt>
      <trkpt lat="42.2960340" lon="-8.3046780">
        <ele>657.0</ele>
        <time>2022-08-27T16:56:40Z</time>
      </trkpt>
      <trkpt lat="42.2961160" lon="-8.3046850">
        <ele>657.0</ele>
        <time>2022-08-27T16:56:45Z</time>
      </trkpt>
      <trkpt lat="42.2962420" lon="-8.3046900">
        <ele>657.0</ele>
        <time>2022-08-27T16:56:52Z</time>
      </trkpt>
      <trkpt lat="42.2962760" lon="-8.3047060">
        <ele>657.0</ele>
        <time>2022-08-27T16:56:54Z</time>
      </trkpt>
      <trkpt lat="42.2962960" lon="-8.3047760">
        <ele>657.2</ele>
        <time>2022-08-27T16:56:57Z</time>
      </trkpt>
      <trkpt lat="42.2962370" lon="-8.3049320">
        <ele>657.8</ele>
        <time>2022-08-27T16:57:02Z</time>
      </trkpt>
      <trkpt lat="42.2961400" lon="-8.3050100">
        <ele>657.8</ele>
        <time>2022-08-27T16:57:05Z</time>
      </trkpt>
      <trkpt lat="42.2961010" lon="-8.3050370">
        <ele>657.8</ele>
        <time>2022-08-27T16:57:06Z</time>
      </trkpt>
      <trkpt lat="42.2960190" lon="-8.3050970">
        <ele>657.8</ele>
        <time>2022-08-27T16:57:08Z</time>
      </trkpt>
      <trkpt lat="42.2958710" lon="-8.3051650">
        <ele>657.8</ele>
        <time>2022-08-27T16:57:11Z</time>
      </trkpt>
      <trkpt lat="42.2958190" lon="-8.3051940">
        <ele>657.6</ele>
        <time>2022-08-27T16:57:12Z</time>
      </trkpt>
      <trkpt lat="42.2957200" lon="-8.3052800">
        <ele>657.4</ele>
        <time>2022-08-27T16:57:14Z</time>
      </trkpt>
      <trkpt lat="42.2956180" lon="-8.3053580">
        <ele>657.0</ele>
        <time>2022-08-27T16:57:16Z</time>
      </trkpt>
      <trkpt lat="42.2954210" lon="-8.3055040">
        <ele>656.0</ele>
        <time>2022-08-27T16:57:20Z</time>
      </trkpt>
      <trkpt lat="42.2953690" lon="-8.3055450">
        <ele>655.8</ele>
        <time>2022-08-27T16:57:21Z</time>
      </trkpt>
      <trkpt lat="42.2951600" lon="-8.3057460">
        <ele>655.0</ele>
        <time>2022-08-27T16:57:25Z</time>
      </trkpt>
      <trkpt lat="42.2951040" lon="-8.3057940">
        <ele>654.8</ele>
        <time>2022-08-27T16:57:26Z</time>
      </trkpt>
      <trkpt lat="42.2949990" lon="-8.3058870">
        <ele>654.0</ele>
        <time>2022-08-27T16:57:28Z</time>
      </trkpt>
      <trkpt lat="42.2949520" lon="-8.3059370">
        <ele>653.4</ele>
        <time>2022-08-27T16:57:29Z</time>
      </trkpt>
      <trkpt lat="42.2948570" lon="-8.3060350">
        <ele>652.4</ele>
        <time>2022-08-27T16:57:31Z</time>
      </trkpt>
      <trkpt lat="42.2947180" lon="-8.3061740">
        <ele>651.0</ele>
        <time>2022-08-27T16:57:34Z</time>
      </trkpt>
      <trkpt lat="42.2946250" lon="-8.3062630">
        <ele>649.8</ele>
        <time>2022-08-27T16:57:36Z</time>
      </trkpt>
      <trkpt lat="42.2945770" lon="-8.3063200">
        <ele>649.0</ele>
        <time>2022-08-27T16:57:37Z</time>
      </trkpt>
      <trkpt lat="42.2945390" lon="-8.3063920">
        <ele>648.6</ele>
        <time>2022-08-27T16:57:38Z</time>
      </trkpt>
      <trkpt lat="42.2944970" lon="-8.3065510">
        <ele>647.4</ele>
        <time>2022-08-27T16:57:40Z</time>
      </trkpt>
      <trkpt lat="42.2944590" lon="-8.3066740">
        <ele>645.8</ele>
        <time>2022-08-27T16:57:42Z</time>
      </trkpt>
      <trkpt lat="42.2944250" lon="-8.3067590">
        <ele>644.4</ele>
        <time>2022-08-27T16:57:44Z</time>
      </trkpt>
      <trkpt lat="42.2943820" lon="-8.3068550">
        <ele>644.0</ele>
        <time>2022-08-27T16:57:47Z</time>
      </trkpt>
      <trkpt lat="42.2943300" lon="-8.3070760">
        <ele>644.2</ele>
        <time>2022-08-27T16:57:54Z</time>
      </trkpt>
      <trkpt lat="42.2944110" lon="-8.3071830">
        <ele>645.2</ele>
        <time>2022-08-27T16:57:59Z</time>
      </trkpt>
      <trkpt lat="42.2945470" lon="-8.3072220">
        <ele>645.6</ele>
        <time>2022-08-27T16:58:05Z</time>
      </trkpt>
      <trkpt lat="42.2946200" lon="-8.3072190">
        <ele>645.8</ele>
        <time>2022-08-27T16:58:08Z</time>
      </trkpt>
      <trkpt lat="42.2947170" lon="-8.3071300">
        <ele>645.8</ele>
        <time>2022-08-27T16:58:13Z</time>
      </trkpt>
      <trkpt lat="42.2947440" lon="-8.3070880">
        <ele>645.8</ele>
        <time>2022-08-27T16:58:18Z</time>
      </trkpt>
      <trkpt lat="42.2947190" lon="-8.3071000">
        <ele>647.0</ele>
        <time>2022-08-27T16:58:43Z</time>
      </trkpt>
      <trkpt lat="42.2946850" lon="-8.3071550">
        <ele>647.0</ele>
        <time>2022-08-27T16:58:45Z</time>
      </trkpt>
      <trkpt lat="42.2945840" lon="-8.3071980">
        <ele>647.0</ele>
        <time>2022-08-27T16:58:48Z</time>
      </trkpt>
      <trkpt lat="42.2945510" lon="-8.3071940">
        <ele>647.0</ele>
        <time>2022-08-27T16:58:49Z</time>
      </trkpt>
      <trkpt lat="42.2944100" lon="-8.3071660">
        <ele>646.4</ele>
        <time>2022-08-27T16:58:54Z</time>
      </trkpt>
      <trkpt lat="42.2943420" lon="-8.3071230">
        <ele>646.0</ele>
        <time>2022-08-27T16:58:58Z</time>
      </trkpt>
      <trkpt lat="42.2943400" lon="-8.3071220">
        <ele>646.0</ele>
        <time>2022-08-27T16:58:59Z</time>
      </trkpt>
      <trkpt lat="42.2943400" lon="-8.3071210">
        <ele>646.0</ele>
        <time>2022-08-27T16:59:00Z</time>
      </trkpt>
      <trkpt lat="42.2943040" lon="-8.3071190">
        <ele>645.4</ele>
        <time>2022-08-27T17:00:28Z</time>
      </trkpt>
      <trkpt lat="42.2942510" lon="-8.3071270">
        <ele>645.6</ele>
        <time>2022-08-27T17:00:31Z</time>
      </trkpt>
      <trkpt lat="42.2941370" lon="-8.3071490">
        <ele>645.6</ele>
        <time>2022-08-27T17:00:36Z</time>
      </trkpt>
      <trkpt lat="42.2941110" lon="-8.3071620">
        <ele>645.6</ele>
        <time>2022-08-27T17:00:37Z</time>
      </trkpt>
      <trkpt lat="42.2938590" lon="-8.3072610">
        <ele>645.2</ele>
        <time>2022-08-27T17:00:44Z</time>
      </trkpt>
      <trkpt lat="42.2935780" lon="-8.3073780">
        <ele>645.0</ele>
        <time>2022-08-27T17:00:49Z</time>
      </trkpt>
      <trkpt lat="42.2934550" lon="-8.3074350">
        <ele>644.6</ele>
        <time>2022-08-27T17:00:51Z</time>
      </trkpt>
      <trkpt lat="42.2931920" lon="-8.3075470">
        <ele>644.0</ele>
        <time>2022-08-27T17:00:55Z</time>
      </trkpt>
      <trkpt lat="42.2930730" lon="-8.3075970">
        <ele>642.8</ele>
        <time>2022-08-27T17:00:57Z</time>
      </trkpt>
      <trkpt lat="42.2929630" lon="-8.3076440">
        <ele>641.6</ele>
        <time>2022-08-27T17:00:59Z</time>
      </trkpt>
      <trkpt lat="42.2929180" lon="-8.3076620">
        <ele>641.0</ele>
        <time>2022-08-27T17:01:00Z</time>
      </trkpt>
      <trkpt lat="42.2928770" lon="-8.3076750">
        <ele>640.6</ele>
        <time>2022-08-27T17:01:01Z</time>
      </trkpt>
      <trkpt lat="42.2928030" lon="-8.3076980">
        <ele>639.4</ele>
        <time>2022-08-27T17:01:03Z</time>
      </trkpt>
      <trkpt lat="42.2927260" lon="-8.3076980">
        <ele>638.2</ele>
        <time>2022-08-27T17:01:05Z</time>
      </trkpt>
      <trkpt lat="42.2926130" lon="-8.3076660">
        <ele>637.0</ele>
        <time>2022-08-27T17:01:08Z</time>
      </trkpt>
      <trkpt lat="42.2925110" lon="-8.3076440">
        <ele>635.8</ele>
        <time>2022-08-27T17:01:11Z</time>
      </trkpt>
      <trkpt lat="42.2924800" lon="-8.3076640">
        <ele>635.4</ele>
        <time>2022-08-27T17:01:12Z</time>
      </trkpt>
      <trkpt lat="42.2924490" lon="-8.3077210">
        <ele>634.8</ele>
        <time>2022-08-27T17:01:14Z</time>
      </trkpt>
      <trkpt lat="42.2924430" lon="-8.3077420">
        <ele>634.4</ele>
        <time>2022-08-27T17:01:15Z</time>
      </trkpt>
      <trkpt lat="42.2924410" lon="-8.3077810">
        <ele>633.4</ele>
        <time>2022-08-27T17:01:17Z</time>
      </trkpt>
      <trkpt lat="42.2924430" lon="-8.3078090">
        <ele>633.0</ele>
        <time>2022-08-27T17:01:18Z</time>
      </trkpt>
      <trkpt lat="42.2924460" lon="-8.3078510">
        <ele>632.6</ele>
        <time>2022-08-27T17:01:19Z</time>
      </trkpt>
      <trkpt lat="42.2924520" lon="-8.3079010">
        <ele>632.0</ele>
        <time>2022-08-27T17:01:20Z</time>
      </trkpt>
      <trkpt lat="42.2924690" lon="-8.3079950">
        <ele>630.8</ele>
        <time>2022-08-27T17:01:22Z</time>
      </trkpt>
      <trkpt lat="42.2924590" lon="-8.3080570">
        <ele>630.2</ele>
        <time>2022-08-27T17:01:24Z</time>
      </trkpt>
      <trkpt lat="42.2924020" lon="-8.3080710">
        <ele>629.2</ele>
        <time>2022-08-27T17:01:26Z</time>
      </trkpt>
      <trkpt lat="42.2923630" lon="-8.3080690">
        <ele>629.0</ele>
        <time>2022-08-27T17:01:27Z</time>
      </trkpt>
      <trkpt lat="42.2922700" lon="-8.3080420">
        <ele>627.4</ele>
        <time>2022-08-27T17:01:29Z</time>
      </trkpt>
      <trkpt lat="42.2921550" lon="-8.3080020">
        <ele>626.4</ele>
        <time>2022-08-27T17:01:31Z</time>
      </trkpt>
      <trkpt lat="42.2919190" lon="-8.3079400">
        <ele>625.4</ele>
        <time>2022-08-27T17:01:35Z</time>
      </trkpt>
      <trkpt lat="42.2917990" lon="-8.3079040">
        <ele>624.4</ele>
        <time>2022-08-27T17:01:37Z</time>
      </trkpt>
      <trkpt lat="42.2917420" lon="-8.3078880">
        <ele>624.0</ele>
        <time>2022-08-27T17:01:38Z</time>
      </trkpt>
      <trkpt lat="42.2916350" lon="-8.3078570">
        <ele>622.6</ele>
        <time>2022-08-27T17:01:40Z</time>
      </trkpt>
      <trkpt lat="42.2915390" lon="-8.3078250">
        <ele>621.6</ele>
        <time>2022-08-27T17:01:42Z</time>
      </trkpt>
      <trkpt lat="42.2914950" lon="-8.3078050">
        <ele>621.0</ele>
        <time>2022-08-27T17:01:43Z</time>
      </trkpt>
      <trkpt lat="42.2914530" lon="-8.3077810">
        <ele>620.6</ele>
        <time>2022-08-27T17:01:44Z</time>
      </trkpt>
      <trkpt lat="42.2914110" lon="-8.3077540">
        <ele>620.2</ele>
        <time>2022-08-27T17:01:45Z</time>
      </trkpt>
      <trkpt lat="42.2912320" lon="-8.3076260">
        <ele>619.8</ele>
        <time>2022-08-27T17:01:49Z</time>
      </trkpt>
      <trkpt lat="42.2911200" lon="-8.3075390">
        <ele>619.6</ele>
        <time>2022-08-27T17:01:52Z</time>
      </trkpt>
      <trkpt lat="42.2910910" lon="-8.3075180">
        <ele>619.4</ele>
        <time>2022-08-27T17:01:53Z</time>
      </trkpt>
      <trkpt lat="42.2909710" lon="-8.3074940">
        <ele>618.4</ele>
        <time>2022-08-27T17:01:57Z</time>
      </trkpt>
      <trkpt lat="42.2908930" lon="-8.3075210">
        <ele>617.2</ele>
        <time>2022-08-27T17:02:00Z</time>
      </trkpt>
      <trkpt lat="42.2908530" lon="-8.3075270">
        <ele>617.0</ele>
        <time>2022-08-27T17:02:01Z</time>
      </trkpt>
      <trkpt lat="42.2907690" lon="-8.3075310">
        <ele>616.2</ele>
        <time>2022-08-27T17:02:03Z</time>
      </trkpt>
      <trkpt lat="42.2906480" lon="-8.3075030">
        <ele>615.0</ele>
        <time>2022-08-27T17:02:06Z</time>
      </trkpt>
      <trkpt lat="42.2906120" lon="-8.3074880">
        <ele>614.8</ele>
        <time>2022-08-27T17:02:07Z</time>
      </trkpt>
      <trkpt lat="42.2905760" lon="-8.3074640">
        <ele>614.6</ele>
        <time>2022-08-27T17:02:08Z</time>
      </trkpt>
      <trkpt lat="42.2905140" lon="-8.3074150">
        <ele>613.8</ele>
        <time>2022-08-27T17:02:10Z</time>
      </trkpt>
      <trkpt lat="42.2904960" lon="-8.3073830">
        <ele>613.2</ele>
        <time>2022-08-27T17:02:11Z</time>
      </trkpt>
      <trkpt lat="42.2904900" lon="-8.3073410">
        <ele>612.4</ele>
        <time>2022-08-27T17:02:12Z</time>
      </trkpt>
      <trkpt lat="42.2905060" lon="-8.3072370">
        <ele>610.8</ele>
        <time>2022-08-27T17:02:14Z</time>
      </trkpt>
      <trkpt lat="42.2905210" lon="-8.3071440">
        <ele>609.0</ele>
        <time>2022-08-27T17:02:16Z</time>
      </trkpt>
      <trkpt lat="42.2905260" lon="-8.3070600">
        <ele>607.4</ele>
        <time>2022-08-27T17:02:18Z</time>
      </trkpt>
      <trkpt lat="42.2905260" lon="-8.3070240">
        <ele>607.0</ele>
        <time>2022-08-27T17:02:19Z</time>
      </trkpt>
      <trkpt lat="42.2905230" lon="-8.3069950">
        <ele>606.6</ele>
        <time>2022-08-27T17:02:20Z</time>
      </trkpt>
      <trkpt lat="42.2904990" lon="-8.3068940">
        <ele>605.0</ele>
        <time>2022-08-27T17:02:23Z</time>
      </trkpt>
      <trkpt lat="42.2904880" lon="-8.3068520">
        <ele>604.4</ele>
        <time>2022-08-27T17:02:24Z</time>
      </trkpt>
      <trkpt lat="42.2904780" lon="-8.3068070">
        <ele>603.8</ele>
        <time>2022-08-27T17:02:25Z</time>
      </trkpt>
      <trkpt lat="42.2904550" lon="-8.3067150">
        <ele>602.4</ele>
        <time>2022-08-27T17:02:27Z</time>
      </trkpt>
      <trkpt lat="42.2904290" lon="-8.3066700">
        <ele>601.6</ele>
        <time>2022-08-27T17:02:29Z</time>
      </trkpt>
      <trkpt lat="42.2904230" lon="-8.3066640">
        <ele>601.2</ele>
        <time>2022-08-27T17:02:30Z</time>
      </trkpt>
      <trkpt lat="42.2904250" lon="-8.3066650">
        <ele>600.0</ele>
        <time>2022-08-27T17:02:32Z</time>
      </trkpt>
      <trkpt lat="42.2904240" lon="-8.3066300">
        <ele>597.2</ele>
        <time>2022-08-27T17:02:35Z</time>
      </trkpt>
      <trkpt lat="42.2904310" lon="-8.3066110">
        <ele>596.4</ele>
        <time>2022-08-27T17:02:36Z</time>
      </trkpt>
      <trkpt lat="42.2904420" lon="-8.3065890">
        <ele>595.8</ele>
        <time>2022-08-27T17:02:37Z</time>
      </trkpt>
      <trkpt lat="42.2904880" lon="-8.3064920">
        <ele>594.8</ele>
        <time>2022-08-27T17:02:40Z</time>
      </trkpt>
      <trkpt lat="42.2905040" lon="-8.3064510">
        <ele>594.6</ele>
        <time>2022-08-27T17:02:41Z</time>
      </trkpt>
      <trkpt lat="42.2906130" lon="-8.3062050">
        <ele>594.2</ele>
        <time>2022-08-27T17:02:48Z</time>
      </trkpt>
      <trkpt lat="42.2906720" lon="-8.3061060">
        <ele>594.2</ele>
        <time>2022-08-27T17:02:54Z</time>
      </trkpt>
      <trkpt lat="42.2906800" lon="-8.3061080">
        <ele>594.6</ele>
        <time>2022-08-27T17:02:57Z</time>
      </trkpt>
      <trkpt lat="42.2906410" lon="-8.3061500">
        <ele>595.2</ele>
        <time>2022-08-27T17:03:01Z</time>
      </trkpt>
      <trkpt lat="42.2905350" lon="-8.3063270">
        <ele>595.2</ele>
        <time>2022-08-27T17:03:06Z</time>
      </trkpt>
      <trkpt lat="42.2904950" lon="-8.3064030">
        <ele>595.2</ele>
        <time>2022-08-27T17:03:09Z</time>
      </trkpt>
      <trkpt lat="42.2904940" lon="-8.3064090">
        <ele>595.0</ele>
        <time>2022-08-27T17:03:11Z</time>
      </trkpt>
      <trkpt lat="42.2902820" lon="-8.3062440">
        <ele>587.4</ele>
        <time>2022-08-27T17:04:37Z</time>
      </trkpt>
      <trkpt lat="42.2902710" lon="-8.3062440">
        <ele>587.2</ele>
        <time>2022-08-27T17:04:39Z</time>
      </trkpt>
      <trkpt lat="42.2902690" lon="-8.3062440">
        <ele>587.2</ele>
        <time>2022-08-27T17:04:40Z</time>
      </trkpt>
      <trkpt lat="42.2902420" lon="-8.3062900">
        <ele>587.0</ele>
        <time>2022-08-27T17:04:44Z</time>
      </trkpt>
      <trkpt lat="42.2902040" lon="-8.3063450">
        <ele>586.6</ele>
        <time>2022-08-27T17:04:46Z</time>
      </trkpt>
      <trkpt lat="42.2901790" lon="-8.3063830">
        <ele>586.4</ele>
        <time>2022-08-27T17:04:47Z</time>
      </trkpt>
      <trkpt lat="42.2900450" lon="-8.3065780">
        <ele>586.2</ele>
        <time>2022-08-27T17:04:51Z</time>
      </trkpt>
      <trkpt lat="42.2898240" lon="-8.3069090">
        <ele>585.4</ele>
        <time>2022-08-27T17:04:56Z</time>
      </trkpt>
      <trkpt lat="42.2896180" lon="-8.3072020">
        <ele>584.2</ele>
        <time>2022-08-27T17:05:00Z</time>
      </trkpt>
      <trkpt lat="42.2895220" lon="-8.3073460">
        <ele>583.8</ele>
        <time>2022-08-27T17:05:02Z</time>
      </trkpt>
      <trkpt lat="42.2894230" lon="-8.3074760">
        <ele>582.8</ele>
        <time>2022-08-27T17:05:04Z</time>
      </trkpt>
      <trkpt lat="42.2893010" lon="-8.3075730">
        <ele>581.8</ele>
        <time>2022-08-27T17:05:06Z</time>
      </trkpt>
      <trkpt lat="42.2892290" lon="-8.3075990">
        <ele>581.2</ele>
        <time>2022-08-27T17:05:07Z</time>
      </trkpt>
      <trkpt lat="42.2890900" lon="-8.3075960">
        <ele>580.2</ele>
        <time>2022-08-27T17:05:09Z</time>
      </trkpt>
      <trkpt lat="42.2890320" lon="-8.3075640">
        <ele>579.6</ele>
        <time>2022-08-27T17:05:10Z</time>
      </trkpt>
      <trkpt lat="42.2889370" lon="-8.3074510">
        <ele>578.0</ele>
        <time>2022-08-27T17:05:12Z</time>
      </trkpt>
      <trkpt lat="42.2888850" lon="-8.3072790">
        <ele>576.8</ele>
        <time>2022-08-27T17:05:14Z</time>
      </trkpt>
      <trkpt lat="42.2888710" lon="-8.3071800">
        <ele>576.2</ele>
        <time>2022-08-27T17:05:15Z</time>
      </trkpt>
      <trkpt lat="42.2888600" lon="-8.3070780">
        <ele>574.8</ele>
        <time>2022-08-27T17:05:16Z</time>
      </trkpt>
      <trkpt lat="42.2888470" lon="-8.3068710">
        <ele>573.6</ele>
        <time>2022-08-27T17:05:18Z</time>
      </trkpt>
      <trkpt lat="42.2888220" lon="-8.3065740">
        <ele>572.6</ele>
        <time>2022-08-27T17:05:21Z</time>
      </trkpt>
      <trkpt lat="42.2887340" lon="-8.3063170">
        <ele>571.4</ele>
        <time>2022-08-27T17:05:24Z</time>
      </trkpt>
      <trkpt lat="42.2885740" lon="-8.3061650">
        <ele>570.6</ele>
        <time>2022-08-27T17:05:27Z</time>
      </trkpt>
      <trkpt lat="42.2885130" lon="-8.3061440">
        <ele>570.4</ele>
        <time>2022-08-27T17:05:28Z</time>
      </trkpt>
      <trkpt lat="42.2883880" lon="-8.3061500">
        <ele>570.0</ele>
        <time>2022-08-27T17:05:30Z</time>
      </trkpt>
      <trkpt lat="42.2882210" lon="-8.3062810">
        <ele>569.6</ele>
        <time>2022-08-27T17:05:33Z</time>
      </trkpt>
      <trkpt lat="42.2881090" lon="-8.3065250">
        <ele>569.4</ele>
        <time>2022-08-27T17:05:36Z</time>
      </trkpt>
      <trkpt lat="42.2880790" lon="-8.3066200">
        <ele>569.2</ele>
        <time>2022-08-27T17:05:37Z</time>
      </trkpt>
      <trkpt lat="42.2879180" lon="-8.3071400">
        <ele>568.4</ele>
        <time>2022-08-27T17:05:42Z</time>
      </trkpt>
      <trkpt lat="42.2878540" lon="-8.3073540">
        <ele>567.4</ele>
        <time>2022-08-27T17:05:44Z</time>
      </trkpt>
      <trkpt lat="42.2878220" lon="-8.3074540">
        <ele>566.8</ele>
        <time>2022-08-27T17:05:45Z</time>
      </trkpt>
      <trkpt lat="42.2877600" lon="-8.3076490">
        <ele>565.8</ele>
        <time>2022-08-27T17:05:47Z</time>
      </trkpt>
      <trkpt lat="42.2876910" lon="-8.3079540">
        <ele>564.4</ele>
        <time>2022-08-27T17:05:50Z</time>
      </trkpt>
      <trkpt lat="42.2876770" lon="-8.3080690">
        <ele>564.0</ele>
        <time>2022-08-27T17:05:51Z</time>
      </trkpt>
      <trkpt lat="42.2876690" lon="-8.3083000">
        <ele>563.2</ele>
        <time>2022-08-27T17:05:53Z</time>
      </trkpt>
      <trkpt lat="42.2876680" lon="-8.3084090">
        <ele>563.2</ele>
        <time>2022-08-27T17:05:54Z</time>
      </trkpt>
      <trkpt lat="42.2876740" lon="-8.3087060">
        <ele>562.4</ele>
        <time>2022-08-27T17:05:57Z</time>
      </trkpt>
      <trkpt lat="42.2877030" lon="-8.3087950">
        <ele>562.2</ele>
        <time>2022-08-27T17:05:58Z</time>
      </trkpt>
      <trkpt lat="42.2878220" lon="-8.3089450">
        <ele>561.2</ele>
        <time>2022-08-27T17:06:00Z</time>
      </trkpt>
      <trkpt lat="42.2879060" lon="-8.3089930">
        <ele>560.0</ele>
        <time>2022-08-27T17:06:01Z</time>
      </trkpt>
      <trkpt lat="42.2879970" lon="-8.3090390">
        <ele>558.8</ele>
        <time>2022-08-27T17:06:02Z</time>
      </trkpt>
      <trkpt lat="42.2880920" lon="-8.3090830">
        <ele>557.6</ele>
        <time>2022-08-27T17:06:03Z</time>
      </trkpt>
      <trkpt lat="42.2881870" lon="-8.3091260">
        <ele>556.4</ele>
        <time>2022-08-27T17:06:04Z</time>
      </trkpt>
      <trkpt lat="42.2883630" lon="-8.3092150">
        <ele>554.6</ele>
        <time>2022-08-27T17:06:06Z</time>
      </trkpt>
      <trkpt lat="42.2883630" lon="-8.3092150">
        <ele>554.6</ele>
        <time>2022-08-27T17:06:07Z</time>
      </trkpt>
      <trkpt lat="42.2715040" lon="-8.2686390">
        <ele>1020.5</ele>
        <time>2022-08-27T15:51:13Z</time>
      </trkpt>
      <trkpt lat="42.2715020" lon="-8.2686490">
        <ele>1020.5</ele>
        <time>2022-08-27T15:51:14Z</time>
      </trkpt>
      <trkpt lat="42.2715090" lon="-8.2686520">
        <ele>1020.5</ele>
        <time>2022-08-27T15:51:15Z</time>
      </trkpt>
      <trkpt lat="42.2715150" lon="-8.2686490">
        <ele>1020.5</ele>
        <time>2022-08-27T15:51:16Z</time>
      </trkpt>
      <trkpt lat="42.2715120" lon="-8.2686550">
        <ele>1020.5</ele>
        <time>2022-08-27T15:51:17Z</time>
      </trkpt>
      <trkpt lat="42.2715110" lon="-8.2686640">
        <ele>1020.5</ele>
        <time>2022-08-27T15:51:18Z</time>
      </trkpt>
      <trkpt lat="42.2715130" lon="-8.2686610">
        <ele>1020.5</ele>
        <time>2022-08-27T15:51:19Z</time>
      </trkpt>
      <trkpt lat="42.2715120" lon="-8.2686600">
        <ele>1020.5</ele>
        <time>2022-08-27T15:51:20Z</time>
      </trkpt>
      <trkpt lat="42.2715100" lon="-8.2686600">
        <ele>1020.5</ele>
        <time>2022-08-27T15:51:21Z</time>
      </trkpt>
      <trkpt lat="42.2715120" lon="-8.2686540">
        <ele>1020.5</ele>
        <time>2022-08-27T15:51:22Z</time>
      </trkpt>
      <trkpt lat="42.2715420" lon="-8.2686340">
        <ele>1020.5</ele>
        <time>2022-08-27T15:51:24Z</time>
      </trkpt>
      <trkpt lat="42.2715670" lon="-8.2686160">
        <ele>1020.5</ele>
        <time>2022-08-27T15:51:25Z</time>
      </trkpt>
      <trkpt lat="42.2715790" lon="-8.2686070">
        <ele>1020.5</ele>
        <time>2022-08-27T15:51:26Z</time>
      </trkpt>
      <trkpt lat="42.2716170" lon="-8.2685830">
        <ele>1020.5</ele>
        <time>2022-08-27T15:51:27Z</time>
      </trkpt>
      <trkpt lat="42.2716330" lon="-8.2685750">
        <ele>1020.5</ele>
        <time>2022-08-27T15:51:28Z</time>
      </trkpt>
      <trkpt lat="42.2716600" lon="-8.2685650">
        <ele>1020.5</ele>
        <time>2022-08-27T15:51:29Z</time>
      </trkpt>
      <trkpt lat="42.2717070" lon="-8.2685450">
        <ele>1020.4</ele>
        <time>2022-08-27T15:51:30Z</time>
      </trkpt>
      <trkpt lat="42.2717560" lon="-8.2685310">
        <ele>1020.4</ele>
        <time>2022-08-27T15:51:31Z</time>
      </trkpt>
      <trkpt lat="42.2717960" lon="-8.2685180">
        <ele>1020.3</ele>
        <time>2022-08-27T15:51:32Z</time>
      </trkpt>
      <trkpt lat="42.2718390" lon="-8.2685040">
        <ele>1020.2</ele>
        <time>2022-08-27T15:51:33Z</time>
      </trkpt>
      <trkpt lat="42.2718830" lon="-8.2684980">
        <ele>1020.2</ele>
        <time>2022-08-27T15:51:34Z</time>
      </trkpt>
      <trkpt lat="42.2719280" lon="-8.2684970">
        <ele>1020.1</ele>
        <time>2022-08-27T15:51:35Z</time>
      </trkpt>
      <trkpt lat="42.2719770" lon="-8.2685020">
        <ele>1020.1</ele>
        <time>2022-08-27T15:51:36Z</time>
      </trkpt>
      <trkpt lat="42.2720290" lon="-8.2685150">
        <ele>1020.1</ele>
        <time>2022-08-27T15:51:37Z</time>
      </trkpt>
      <trkpt lat="42.2720920" lon="-8.2685250">
        <ele>1020.1</ele>
        <time>2022-08-27T15:51:38Z</time>
      </trkpt>
      <trkpt lat="42.2721520" lon="-8.2685310">
        <ele>1020.1</ele>
        <time>2022-08-27T15:51:39Z</time>
      </trkpt>
      <trkpt lat="42.2722070" lon="-8.2685450">
        <ele>1020.1</ele>
        <time>2022-08-27T15:51:40Z</time>
      </trkpt>
      <trkpt lat="42.2722560" lon="-8.2685640">
        <ele>1020.1</ele>
        <time>2022-08-27T15:51:41Z</time>
      </trkpt>
      <trkpt lat="42.2723000" lon="-8.2685840">
        <ele>1020.2</ele>
        <time>2022-08-27T15:51:42Z</time>
      </trkpt>
      <trkpt lat="42.2723420" lon="-8.2686100">
        <ele>1020.3</ele>
        <time>2022-08-27T15:51:43Z</time>
      </trkpt>
      <trkpt lat="42.2723630" lon="-8.2686170">
        <ele>1020.3</ele>
        <time>2022-08-27T15:51:44Z</time>
      </trkpt>
      <trkpt lat="42.2723940" lon="-8.2686290">
        <ele>1020.4</ele>
        <time>2022-08-27T15:51:45Z</time>
      </trkpt>
      <trkpt lat="42.2724320" lon="-8.2686480">
        <ele>1020.5</ele>
        <time>2022-08-27T15:51:46Z</time>
      </trkpt>
      <trkpt lat="42.2724640" lon="-8.2686630">
        <ele>1020.6</ele>
        <time>2022-08-27T15:51:47Z</time>
      </trkpt>
      <trkpt lat="42.2725030" lon="-8.2686760">
        <ele>1020.7</ele>
        <time>2022-08-27T15:51:48Z</time>
      </trkpt>
      <trkpt lat="42.2725190" lon="-8.2686800">
        <ele>1020.7</ele>
        <time>2022-08-27T15:51:49Z</time>
      </trkpt>
      <trkpt lat="42.2725540" lon="-8.2686920">
        <ele>1020.9</ele>
        <time>2022-08-27T15:51:50Z</time>
      </trkpt>
      <trkpt lat="42.2725860" lon="-8.2686990">
        <ele>1021.0</ele>
        <time>2022-08-27T15:51:51Z</time>
      </trkpt>
      <trkpt lat="42.2725960" lon="-8.2687020">
        <ele>1021.1</ele>
        <time>2022-08-27T15:51:52Z</time>
      </trkpt>
      <trkpt lat="42.2726290" lon="-8.2687170">
        <ele>1021.2</ele>
        <time>2022-08-27T15:51:53Z</time>
      </trkpt>
      <trkpt lat="42.2726410" lon="-8.2687240">
        <ele>1021.3</ele>
        <time>2022-08-27T15:51:54Z</time>
      </trkpt>
      <trkpt lat="42.2726770" lon="-8.2687430">
        <ele>1021.5</ele>
        <time>2022-08-27T15:51:55Z</time>
      </trkpt>
      <trkpt lat="42.2727050" lon="-8.2687690">
        <ele>1021.8</ele>
        <time>2022-08-27T15:51:57Z</time>
      </trkpt>
      <trkpt lat="42.2727300" lon="-8.2687870">
        <ele>1022.0</ele>
        <time>2022-08-27T15:51:58Z</time>
      </trkpt>
      <trkpt lat="42.2727620" lon="-8.2688070">
        <ele>1022.2</ele>
        <time>2022-08-27T15:51:59Z</time>
      </trkpt>
      <trkpt lat="42.2727730" lon="-8.2688140">
        <ele>1022.3</ele>
        <time>2022-08-27T15:52:00Z</time>
      </trkpt>
      <trkpt lat="42.2727870" lon="-8.2688240">
        <ele>1022.4</ele>
        <time>2022-08-27T15:52:01Z</time>
      </trkpt>
      <trkpt lat="42.2728020" lon="-8.2688410">
        <ele>1022.5</ele>
        <time>2022-08-27T15:52:02Z</time>
      </trkpt>
      <trkpt lat="42.2728170" lon="-8.2688570">
        <ele>1022.7</ele>
        <time>2022-08-27T15:52:03Z</time>
      </trkpt>
      <trkpt lat="42.2728390" lon="-8.2688740">
        <ele>1022.9</ele>
        <time>2022-08-27T15:52:05Z</time>
      </trkpt>
      <trkpt lat="42.2728680" lon="-8.2689040">
        <ele>1023.1</ele>
        <time>2022-08-27T15:52:06Z</time>
      </trkpt>
      <trkpt lat="42.2728800" lon="-8.2689160">
        <ele>1023.2</ele>
        <time>2022-08-27T15:52:07Z</time>
      </trkpt>
      <trkpt lat="42.2728970" lon="-8.2689330">
        <ele>1023.4</ele>
        <time>2022-08-27T15:52:08Z</time>
      </trkpt>
      <trkpt lat="42.2729200" lon="-8.2689560">
        <ele>1023.6</ele>
        <time>2022-08-27T15:52:10Z</time>
      </trkpt>
      <trkpt lat="42.2729490" lon="-8.2689770">
        <ele>1023.8</ele>
        <time>2022-08-27T15:52:11Z</time>
      </trkpt>
      <trkpt lat="42.2729610" lon="-8.2689860">
        <ele>1023.9</ele>
        <time>2022-08-27T15:52:12Z</time>
      </trkpt>
      <trkpt lat="42.2730060" lon="-8.2690180">
        <ele>1024.3</ele>
        <time>2022-08-27T15:52:14Z</time>
      </trkpt>
      <trkpt lat="42.2730420" lon="-8.2690350">
        <ele>1024.6</ele>
        <time>2022-08-27T15:52:15Z</time>
      </trkpt>
      <trkpt lat="42.2730530" lon="-8.2690410">
        <ele>1024.6</ele>
        <time>2022-08-27T15:52:16Z</time>
      </trkpt>
      <trkpt lat="42.2730840" lon="-8.2690590">
        <ele>1024.8</ele>
        <time>2022-08-27T15:52:17Z</time>
      </trkpt>
      <trkpt lat="42.2730970" lon="-8.2690680">
        <ele>1024.9</ele>
        <time>2022-08-27T15:52:18Z</time>
      </trkpt>
      <trkpt lat="42.2731230" lon="-8.2690880">
        <ele>1025.0</ele>
        <time>2022-08-27T15:52:19Z</time>
      </trkpt>
      <trkpt lat="42.2731590" lon="-8.2691040">
        <ele>1025.1</ele>
        <time>2022-08-27T15:52:20Z</time>
      </trkpt>
      <trkpt lat="42.2731700" lon="-8.2691100">
        <ele>1025.2</ele>
        <time>2022-08-27T15:52:21Z</time>
      </trkpt>
      <trkpt lat="42.2731960" lon="-8.2691300">
        <ele>1025.3</ele>
        <time>2022-08-27T15:52:22Z</time>
      </trkpt>
      <trkpt lat="42.2732100" lon="-8.2691400">
        <ele>1025.3</ele>
        <time>2022-08-27T15:52:23Z</time>
      </trkpt>
      <trkpt lat="42.2732310" lon="-8.2691650">
        <ele>1025.4</ele>
        <time>2022-08-27T15:52:24Z</time>
      </trkpt>
      <trkpt lat="42.2732600" lon="-8.2691840">
        <ele>1025.5</ele>
        <time>2022-08-27T15:52:25Z</time>
      </trkpt>
      <trkpt lat="42.2732890" lon="-8.2692030">
        <ele>1025.6</ele>
        <time>2022-08-27T15:52:26Z</time>
      </trkpt>
      <trkpt lat="42.2733140" lon="-8.2692230">
        <ele>1025.7</ele>
        <time>2022-08-27T15:52:27Z</time>
      </trkpt>
      <trkpt lat="42.2733440" lon="-8.2692460">
        <ele>1025.8</ele>
        <time>2022-08-27T15:52:28Z</time>
      </trkpt>
      <trkpt lat="42.2733740" lon="-8.2692670">
        <ele>1025.8</ele>
        <time>2022-08-27T15:52:29Z</time>
      </trkpt>
      <trkpt lat="42.2734210" lon="-8.2692970">
        <ele>1026.0</ele>
        <time>2022-08-27T15:52:31Z</time>
      </trkpt>
      <trkpt lat="42.2734480" lon="-8.2693220">
        <ele>1026.1</ele>
        <time>2022-08-27T15:52:32Z</time>
      </trkpt>
      <trkpt lat="42.2734750" lon="-8.2693470">
        <ele>1026.2</ele>
        <time>2022-08-27T15:52:33Z</time>
      </trkpt>
      <trkpt lat="42.2735120" lon="-8.2693740">
        <ele>1026.4</ele>
        <time>2022-08-27T15:52:34Z</time>
      </trkpt>
      <trkpt lat="42.2735460" lon="-8.2694030">
        <ele>1026.5</ele>
        <time>2022-08-27T15:52:36Z</time>
      </trkpt>
      <trkpt lat="42.2735750" lon="-8.2694240">
        <ele>1026.6</ele>
        <time>2022-08-27T15:52:37Z</time>
      </trkpt>
      <trkpt lat="42.2735830" lon="-8.2694280">
        <ele>1026.6</ele>
        <time>2022-08-27T15:52:38Z</time>
      </trkpt>
      <trkpt lat="42.2736210" lon="-8.2694460">
        <ele>1026.8</ele>
        <time>2022-08-27T15:52:39Z</time>
      </trkpt>
      <trkpt lat="42.2736360" lon="-8.2694520">
        <ele>1026.8</ele>
        <time>2022-08-27T15:52:40Z</time>
      </trkpt>
      <trkpt lat="42.2736620" lon="-8.2694660">
        <ele>1026.9</ele>
        <time>2022-08-27T15:52:41Z</time>
      </trkpt>
      <trkpt lat="42.2736880" lon="-8.2694770">
        <ele>1027.0</ele>
        <time>2022-08-27T15:52:42Z</time>
      </trkpt>
      <trkpt lat="42.2737200" lon="-8.2694850">
        <ele>1027.1</ele>
        <time>2022-08-27T15:52:43Z</time>
      </trkpt>
      <trkpt lat="42.2737640" lon="-8.2694970">
        <ele>1027.3</ele>
        <time>2022-08-27T15:52:44Z</time>
      </trkpt>
      <trkpt lat="42.2738270" lon="-8.2694960">
        <ele>1027.4</ele>
        <time>2022-08-27T15:52:46Z</time>
      </trkpt>
      <trkpt lat="42.2738660" lon="-8.2694930">
        <ele>1027.5</ele>
        <time>2022-08-27T15:52:47Z</time>
      </trkpt>
      <trkpt lat="42.2738990" lon="-8.2694920">
        <ele>1027.6</ele>
        <time>2022-08-27T15:52:48Z</time>
      </trkpt>
      <trkpt lat="42.2739580" lon="-8.2694810">
        <ele>1027.7</ele>
        <time>2022-08-27T15:52:50Z</time>
      </trkpt>
      <trkpt lat="42.2739980" lon="-8.2694650">
        <ele>1027.8</ele>
        <time>2022-08-27T15:52:51Z</time>
      </trkpt>
      <trkpt lat="42.2740300" lon="-8.2694460">
        <ele>1027.9</ele>
        <time>2022-08-27T15:52:52Z</time>
      </trkpt>
      <trkpt lat="42.2740570" lon="-8.2694310">
        <ele>1028.0</ele>
        <time>2022-08-27T15:52:53Z</time>
      </trkpt>
      <trkpt lat="42.2740840" lon="-8.2694160">
        <ele>1028.0</ele>
        <time>2022-08-27T15:52:54Z</time>
      </trkpt>
      <trkpt lat="42.2741320" lon="-8.2693980">
        <ele>1028.1</ele>
        <time>2022-08-27T15:52:55Z</time>
      </trkpt>
      <trkpt lat="42.2741630" lon="-8.2693870">
        <ele>1028.2</ele>
        <time>2022-08-27T15:52:56Z</time>
      </trkpt>
      <trkpt lat="42.2741970" lon="-8.2693730">
        <ele>1028.3</ele>
        <time>2022-08-27T15:52:58Z</time>
      </trkpt>
      <trkpt lat="42.2742280" lon="-8.2693600">
        <ele>1028.3</ele>
        <time>2022-08-27T15:52:59Z</time>
      </trkpt>
      <trkpt lat="42.2742660" lon="-8.2693480">
        <ele>1028.4</ele>
        <time>2022-08-27T15:53:00Z</time>
      </trkpt>
      <trkpt lat="42.2743060" lon="-8.2693400">
        <ele>1028.5</ele>
        <time>2022-08-27T15:53:01Z</time>
      </trkpt>
      <trkpt lat="42.2743400" lon="-8.2693370">
        <ele>1028.6</ele>
        <time>2022-08-27T15:53:02Z</time>
      </trkpt>
      <trkpt lat="42.2743720" lon="-8.2693390">
        <ele>1028.7</ele>
        <time>2022-08-27T15:53:03Z</time>
      </trkpt>
      <trkpt lat="42.2744200" lon="-8.2693480">
        <ele>1028.8</ele>
        <time>2022-08-27T15:53:05Z</time>
      </trkpt>
      <trkpt lat="42.2744640" lon="-8.2693530">
        <ele>1028.9</ele>
        <time>2022-08-27T15:53:06Z</time>
      </trkpt>
      <trkpt lat="42.2744920" lon="-8.2693560">
        <ele>1029.0</ele>
        <time>2022-08-27T15:53:07Z</time>
      </trkpt>
      <trkpt lat="42.2745290" lon="-8.2693710">
        <ele>1029.1</ele>
        <time>2022-08-27T15:53:08Z</time>
      </trkpt>
      <trkpt lat="42.2745430" lon="-8.2693760">
        <ele>1029.2</ele>
        <time>2022-08-27T15:53:09Z</time>
      </trkpt>
      <trkpt lat="42.2745740" lon="-8.2693850">
        <ele>1029.3</ele>
        <time>2022-08-27T15:53:10Z</time>
      </trkpt>
      <trkpt lat="42.2746020" lon="-8.2693940">
        <ele>1029.3</ele>
        <time>2022-08-27T15:53:11Z</time>
      </trkpt>
      <trkpt lat="42.2746270" lon="-8.2694110">
        <ele>1029.4</ele>
        <time>2022-08-27T15:53:12Z</time>
      </trkpt>
      <trkpt lat="42.2746580" lon="-8.2694400">
        <ele>1029.6</ele>
        <time>2022-08-27T15:53:13Z</time>
      </trkpt>
      <trkpt lat="42.2746690" lon="-8.2694530">
        <ele>1029.6</ele>
        <time>2022-08-27T15:53:14Z</time>
      </trkpt>
      <trkpt lat="42.2746930" lon="-8.2694740">
        <ele>1029.8</ele>
        <time>2022-08-27T15:53:15Z</time>
      </trkpt>
      <trkpt lat="42.2747210" lon="-8.2695090">
        <ele>1029.9</ele>
        <time>2022-08-27T15:53:17Z</time>
      </trkpt>
      <trkpt lat="42.2747490" lon="-8.2695360">
        <ele>1030.1</ele>
        <time>2022-08-27T15:53:18Z</time>
      </trkpt>
      <trkpt lat="42.2747570" lon="-8.2695420">
        <ele>1030.1</ele>
        <time>2022-08-27T15:53:19Z</time>
      </trkpt>
      <trkpt lat="42.2747770" lon="-8.2695670">
        <ele>1030.3</ele>
        <time>2022-08-27T15:53:21Z</time>
      </trkpt>
      <trkpt lat="42.2747990" lon="-8.2695980">
        <ele>1030.4</ele>
        <time>2022-08-27T15:53:22Z</time>
      </trkpt>
      <trkpt lat="42.2748200" lon="-8.2696290">
        <ele>1030.6</ele>
        <time>2022-08-27T15:53:23Z</time>
      </trkpt>
      <trkpt lat="42.2748260" lon="-8.2696370">
        <ele>1030.7</ele>
        <time>2022-08-27T15:53:24Z</time>
      </trkpt>
      <trkpt lat="42.2748450" lon="-8.2696580">
        <ele>1030.8</ele>
        <time>2022-08-27T15:53:25Z</time>
      </trkpt>
      <trkpt lat="42.2748620" lon="-8.2696770">
        <ele>1031.0</ele>
        <time>2022-08-27T15:53:27Z</time>
      </trkpt>
      <trkpt lat="42.2748880" lon="-8.2697010">
        <ele>1031.2</ele>
        <time>2022-08-27T15:53:28Z</time>
      </trkpt>
      <trkpt lat="42.2748980" lon="-8.2697070">
        <ele>1031.3</ele>
        <time>2022-08-27T15:53:29Z</time>
      </trkpt>
      <trkpt lat="42.2749230" lon="-8.2697250">
        <ele>1031.5</ele>
        <time>2022-08-27T15:53:30Z</time>
      </trkpt>
      <trkpt lat="42.2749310" lon="-8.2697300">
        <ele>1031.6</ele>
        <time>2022-08-27T15:53:31Z</time>
      </trkpt>
      <trkpt lat="42.2749600" lon="-8.2697530">
        <ele>1031.8</ele>
        <time>2022-08-27T15:53:32Z</time>
      </trkpt>
      <trkpt lat="42.2749700" lon="-8.2697600">
        <ele>1031.9</ele>
        <time>2022-08-27T15:53:33Z</time>
      </trkpt>
      <trkpt lat="42.2749800" lon="-8.2697660">
        <ele>1032.0</ele>
        <time>2022-08-27T15:53:34Z</time>
      </trkpt>
      <trkpt lat="42.2750000" lon="-8.2697840">
        <ele>1032.2</ele>
        <time>2022-08-27T15:53:36Z</time>
      </trkpt>
      <trkpt lat="42.2750110" lon="-8.2697910">
        <ele>1032.3</ele>
        <time>2022-08-27T15:53:37Z</time>
      </trkpt>
      <trkpt lat="42.2750230" lon="-8.2697980">
        <ele>1032.4</ele>
        <time>2022-08-27T15:53:38Z</time>
      </trkpt>
      <trkpt lat="42.2750470" lon="-8.2698130">
        <ele>1032.7</ele>
        <time>2022-08-27T15:53:40Z</time>
      </trkpt>
      <trkpt lat="42.2750770" lon="-8.2698290">
        <ele>1033.0</ele>
        <time>2022-08-27T15:53:41Z</time>
      </trkpt>
      <trkpt lat="42.2750900" lon="-8.2698350">
        <ele>1033.1</ele>
        <time>2022-08-27T15:53:42Z</time>
      </trkpt>
      <trkpt lat="42.2751160" lon="-8.2698580">
        <ele>1033.4</ele>
        <time>2022-08-27T15:53:43Z</time>
      </trkpt>
      <trkpt lat="42.2751230" lon="-8.2698680">
        <ele>1033.5</ele>
        <time>2022-08-27T15:53:44Z</time>
      </trkpt>
      <trkpt lat="42.2751460" lon="-8.2699080">
        <ele>1033.8</ele>
        <time>2022-08-27T15:53:46Z</time>
      </trkpt>
      <trkpt lat="42.2751520" lon="-8.2699200">
        <ele>1033.9</ele>
        <time>2022-08-27T15:53:47Z</time>
      </trkpt>
      <trkpt lat="42.2751640" lon="-8.2699510">
        <ele>1034.1</ele>
        <time>2022-08-27T15:53:48Z</time>
      </trkpt>
      <trkpt lat="42.2751750" lon="-8.2699730">
        <ele>1034.3</ele>
        <time>2022-08-27T15:53:50Z</time>
      </trkpt>
      <trkpt lat="42.2751920" lon="-8.2700160">
        <ele>1034.6</ele>
        <time>2022-08-27T15:53:51Z</time>
      </trkpt>
      <trkpt lat="42.2752000" lon="-8.2700330">
        <ele>1034.8</ele>
        <time>2022-08-27T15:53:52Z</time>
      </trkpt>
      <trkpt lat="42.2752110" lon="-8.2700620">
        <ele>1035.0</ele>
        <time>2022-08-27T15:53:53Z</time>
      </trkpt>
      <trkpt lat="42.2752230" lon="-8.2700980">
        <ele>1035.1</ele>
        <time>2022-08-27T15:53:55Z</time>
      </trkpt>
      <trkpt lat="42.2752370" lon="-8.2701390">
        <ele>1035.2</ele>
        <time>2022-08-27T15:53:56Z</time>
      </trkpt>
      <trkpt lat="42.2752510" lon="-8.2701880">
        <ele>1035.3</ele>
        <time>2022-08-27T15:53:57Z</time>
      </trkpt>
      <trkpt lat="42.2752560" lon="-8.2702070">
        <ele>1035.4</ele>
        <time>2022-08-27T15:53:58Z</time>
      </trkpt>
      <trkpt lat="42.2752650" lon="-8.2702490">
        <ele>1035.4</ele>
        <time>2022-08-27T15:53:59Z</time>
      </trkpt>
      <trkpt lat="42.2752760" lon="-8.2702980">
        <ele>1035.4</ele>
        <time>2022-08-27T15:54:00Z</time>
      </trkpt>
      <trkpt lat="42.2752900" lon="-8.2703760">
        <ele>1035.5</ele>
        <time>2022-08-27T15:54:02Z</time>
      </trkpt>
      <trkpt lat="42.2752980" lon="-8.2704260">
        <ele>1035.5</ele>
        <time>2022-08-27T15:54:03Z</time>
      </trkpt>
      <trkpt lat="42.2753120" lon="-8.2704720">
        <ele>1035.4</ele>
        <time>2022-08-27T15:54:04Z</time>
      </trkpt>
      <trkpt lat="42.2753230" lon="-8.2705080">
        <ele>1035.4</ele>
        <time>2022-08-27T15:54:05Z</time>
      </trkpt>
      <trkpt lat="42.2753430" lon="-8.2705500">
        <ele>1035.4</ele>
        <time>2022-08-27T15:54:06Z</time>
      </trkpt>
      <trkpt lat="42.2753660" lon="-8.2705860">
        <ele>1035.5</ele>
        <time>2022-08-27T15:54:07Z</time>
      </trkpt>
      <trkpt lat="42.2753980" lon="-8.2706290">
        <ele>1035.5</ele>
        <time>2022-08-27T15:54:09Z</time>
      </trkpt>
      <trkpt lat="42.2754300" lon="-8.2706630">
        <ele>1035.6</ele>
        <time>2022-08-27T15:54:10Z</time>
      </trkpt>
      <trkpt lat="42.2754650" lon="-8.2706870">
        <ele>1035.7</ele>
        <time>2022-08-27T15:54:11Z</time>
      </trkpt>
      <trkpt lat="42.2754940" lon="-8.2707100">
        <ele>1035.8</ele>
        <time>2022-08-27T15:54:12Z</time>
      </trkpt>
      <trkpt lat="42.2755050" lon="-8.2707180">
        <ele>1035.9</ele>
        <time>2022-08-27T15:54:13Z</time>
      </trkpt>
      <trkpt lat="42.2755480" lon="-8.2707400">
        <ele>1036.1</ele>
        <time>2022-08-27T15:54:15Z</time>
      </trkpt>
      <trkpt lat="42.2755620" lon="-8.2707460">
        <ele>1036.2</ele>
        <time>2022-08-27T15:54:16Z</time>
      </trkpt>
      <trkpt lat="42.2755770" lon="-8.2707510">
        <ele>1036.3</ele>
        <time>2022-08-27T15:54:17Z</time>
      </trkpt>
      <trkpt lat="42.2755940" lon="-8.2707600">
        <ele>1036.4</ele>
        <time>2022-08-27T15:54:18Z</time>
      </trkpt>
      <trkpt lat="42.2756070" lon="-8.2707620">
        <ele>1036.5</ele>
        <time>2022-08-27T15:54:19Z</time>
      </trkpt>
      <trkpt lat="42.2756240" lon="-8.2707630">
        <ele>1036.7</ele>
        <time>2022-08-27T15:54:20Z</time>
      </trkpt>
      <trkpt lat="42.2756350" lon="-8.2707640">
        <ele>1036.7</ele>
        <time>2022-08-27T15:54:21Z</time>
      </trkpt>
      <trkpt lat="42.2756630" lon="-8.2707530">
        <ele>1037.0</ele>
        <time>2022-08-27T15:54:23Z</time>
      </trkpt>
      <trkpt lat="42.2756710" lon="-8.2707510">
        <ele>1037.1</ele>
        <time>2022-08-27T15:54:24Z</time>
      </trkpt>
      <trkpt lat="42.2756880" lon="-8.2707460">
        <ele>1037.3</ele>
        <time>2022-08-27T15:54:25Z</time>
      </trkpt>
      <trkpt lat="42.2756980" lon="-8.2707480">
        <ele>1037.4</ele>
        <time>2022-08-27T15:54:26Z</time>
      </trkpt>
      <trkpt lat="42.2757140" lon="-8.2707530">
        <ele>1037.5</ele>
        <time>2022-08-27T15:54:28Z</time>
      </trkpt>
      <trkpt lat="42.2757360" lon="-8.2707530">
        <ele>1037.7</ele>
        <time>2022-08-27T15:54:29Z</time>
      </trkpt>
      <trkpt lat="42.2757480" lon="-8.2707480">
        <ele>1037.9</ele>
        <time>2022-08-27T15:54:30Z</time>
      </trkpt>
      <trkpt lat="42.2757650" lon="-8.2707500">
        <ele>1038.1</ele>
        <time>2022-08-27T15:54:31Z</time>
      </trkpt>
      <trkpt lat="42.2757800" lon="-8.2707600">
        <ele>1038.2</ele>
        <time>2022-08-27T15:54:32Z</time>
      </trkpt>
      <trkpt lat="42.2758120" lon="-8.2707690">
        <ele>1038.6</ele>
        <time>2022-08-27T15:54:34Z</time>
      </trkpt>
      <trkpt lat="42.2758200" lon="-8.2707700">
        <ele>1038.6</ele>
        <time>2022-08-27T15:54:35Z</time>
      </trkpt>
      <trkpt lat="42.2758350" lon="-8.2707730">
        <ele>1038.8</ele>
        <time>2022-08-27T15:54:36Z</time>
      </trkpt>
      <trkpt lat="42.2758480" lon="-8.2707760">
        <ele>1038.9</ele>
        <time>2022-08-27T15:54:37Z</time>
      </trkpt>
      <trkpt lat="42.2758610" lon="-8.2707800">
        <ele>1039.1</ele>
        <time>2022-08-27T15:54:38Z</time>
      </trkpt>
      <trkpt lat="42.2758720" lon="-8.2707820">
        <ele>1039.2</ele>
        <time>2022-08-27T15:54:39Z</time>
      </trkpt>
      <trkpt lat="42.2758830" lon="-8.2707820">
        <ele>1039.3</ele>
        <time>2022-08-27T15:54:40Z</time>
      </trkpt>
      <trkpt lat="42.2758980" lon="-8.2707830">
        <ele>1039.4</ele>
        <time>2022-08-27T15:54:41Z</time>
      </trkpt>
      <trkpt lat="42.2759070" lon="-8.2707850">
        <ele>1039.5</ele>
        <time>2022-08-27T15:54:42Z</time>
      </trkpt>
      <trkpt lat="42.2759400" lon="-8.2707870">
        <ele>1039.9</ele>
        <time>2022-08-27T15:54:44Z</time>
      </trkpt>
      <trkpt lat="42.2759740" lon="-8.2707890">
        <ele>1040.2</ele>
        <time>2022-08-27T15:54:45Z</time>
      </trkpt>
      <trkpt lat="42.2759900" lon="-8.2707920">
        <ele>1040.4</ele>
        <time>2022-08-27T15:54:46Z</time>
      </trkpt>
      <trkpt lat="42.2760250" lon="-8.2707970">
        <ele>1040.8</ele>
        <time>2022-08-27T15:54:47Z</time>
      </trkpt>
      <trkpt lat="42.2760360" lon="-8.2708000">
        <ele>1040.9</ele>
        <time>2022-08-27T15:54:48Z</time>
      </trkpt>
      <trkpt lat="42.2760700" lon="-8.2707980">
        <ele>1041.2</ele>
        <time>2022-08-27T15:54:50Z</time>
      </trkpt>
      <trkpt lat="42.2760800" lon="-8.2707950">
        <ele>1041.4</ele>
        <time>2022-08-27T15:54:51Z</time>
      </trkpt>
      <trkpt lat="42.2761070" lon="-8.2707920">
        <ele>1041.7</ele>
        <time>2022-08-27T15:54:52Z</time>
      </trkpt>
      <trkpt lat="42.2761530" lon="-8.2707870">
        <ele>1042.2</ele>
        <time>2022-08-27T15:54:54Z</time>
      </trkpt>
      <trkpt lat="42.2761700" lon="-8.2707870">
        <ele>1042.4</ele>
        <time>2022-08-27T15:54:55Z</time>
      </trkpt>
      <trkpt lat="42.2761860" lon="-8.2707880">
        <ele>1042.6</ele>
        <time>2022-08-27T15:54:56Z</time>
      </trkpt>
      <trkpt lat="42.2762000" lon="-8.2707880">
        <ele>1042.8</ele>
        <time>2022-08-27T15:54:57Z</time>
      </trkpt>
      <trkpt lat="42.2762150" lon="-8.2707920">
        <ele>1042.9</ele>
        <time>2022-08-27T15:54:58Z</time>
      </trkpt>
      <trkpt lat="42.2762310" lon="-8.2707970">
        <ele>1043.1</ele>
        <time>2022-08-27T15:54:59Z</time>
      </trkpt>
      <trkpt lat="42.2762490" lon="-8.2708000">
        <ele>1043.4</ele>
        <time>2022-08-27T15:55:00Z</time>
      </trkpt>
      <trkpt lat="42.2762650" lon="-8.2707990">
        <ele>1043.6</ele>
        <time>2022-08-27T15:55:01Z</time>
      </trkpt>
      <trkpt lat="42.2762840" lon="-8.2707930">
        <ele>1043.8</ele>
        <time>2022-08-27T15:55:02Z</time>
      </trkpt>
      <trkpt lat="42.2762990" lon="-8.2707940">
        <ele>1044.0</ele>
        <time>2022-08-27T15:55:03Z</time>
      </trkpt>
      <trkpt lat="42.2763240" lon="-8.2707920">
        <ele>1044.3</ele>
        <time>2022-08-27T15:55:05Z</time>
      </trkpt>
      <trkpt lat="42.2763380" lon="-8.2707910">
        <ele>1044.5</ele>
        <time>2022-08-27T15:55:06Z</time>
      </trkpt>
      <trkpt lat="42.2763480" lon="-8.2707930">
        <ele>1044.6</ele>
        <time>2022-08-27T15:55:07Z</time>
      </trkpt>
      <trkpt lat="42.2763580" lon="-8.2707920">
        <ele>1044.7</ele>
        <time>2022-08-27T15:55:09Z</time>
      </trkpt>
      <trkpt lat="42.2763680" lon="-8.2707880">
        <ele>1044.9</ele>
        <time>2022-08-27T15:55:10Z</time>
      </trkpt>
      <trkpt lat="42.2763760" lon="-8.2707840">
        <ele>1045.0</ele>
        <time>2022-08-27T15:55:11Z</time>
      </trkpt>
      <trkpt lat="42.2763830" lon="-8.2707840">
        <ele>1045.1</ele>
        <time>2022-08-27T15:55:12Z</time>
      </trkpt>
      <trkpt lat="42.2763910" lon="-8.2707870">
        <ele>1045.2</ele>
        <time>2022-08-27T15:55:13Z</time>
      </trkpt>
      <trkpt lat="42.2763930" lon="-8.2707860">
        <ele>1045.2</ele>
        <time>2022-08-27T15:55:14Z</time>
      </trkpt>
      <trkpt lat="42.2764080" lon="-8.2707860">
        <ele>1045.4</ele>
        <time>2022-08-27T15:55:15Z</time>
      </trkpt>
      <trkpt lat="42.2764210" lon="-8.2707830">
        <ele>1045.6</ele>
        <time>2022-08-27T15:55:16Z</time>
      </trkpt>
      <trkpt lat="42.2764360" lon="-8.2707820">
        <ele>1045.8</ele>
        <time>2022-08-27T15:55:18Z</time>
      </trkpt>
      <trkpt lat="42.2764500" lon="-8.2707830">
        <ele>1045.9</ele>
        <time>2022-08-27T15:55:19Z</time>
      </trkpt>
      <trkpt lat="42.2764790" lon="-8.2707840">
        <ele>1046.3</ele>
        <time>2022-08-27T15:55:20Z</time>
      </trkpt>
      <trkpt lat="42.2764920" lon="-8.2707850">
        <ele>1046.4</ele>
        <time>2022-08-27T15:55:21Z</time>
      </trkpt>
      <trkpt lat="42.2765070" lon="-8.2707890">
        <ele>1046.6</ele>
        <time>2022-08-27T15:55:23Z</time>
      </trkpt>
      <trkpt lat="42.2765260" lon="-8.2707930">
        <ele>1046.8</ele>
        <time>2022-08-27T15:55:24Z</time>
      </trkpt>
      <trkpt lat="42.2765420" lon="-8.2707930">
        <ele>1047.0</ele>
        <time>2022-08-27T15:55:25Z</time>
      </trkpt>
      <trkpt lat="42.2765590" lon="-8.2707970">
        <ele>1047.2</ele>
        <time>2022-08-27T15:55:26Z</time>
      </trkpt>
      <trkpt lat="42.2765890" lon="-8.2708090">
        <ele>1047.5</ele>
        <time>2022-08-27T15:55:27Z</time>
      </trkpt>
      <trkpt lat="42.2766000" lon="-8.2708130">
        <ele>1047.7</ele>
        <time>2022-08-27T15:55:28Z</time>
      </trkpt>
      <trkpt lat="42.2766270" lon="-8.2708160">
        <ele>1047.9</ele>
        <time>2022-08-27T15:55:29Z</time>
      </trkpt>
      <trkpt lat="42.2766630" lon="-8.2708220">
        <ele>1048.3</ele>
        <time>2022-08-27T15:55:31Z</time>
      </trkpt>
      <trkpt lat="42.2766740" lon="-8.2708230">
        <ele>1048.4</ele>
        <time>2022-08-27T15:55:32Z</time>
      </trkpt>
      <trkpt lat="42.2767080" lon="-8.2708210">
        <ele>1048.7</ele>
        <time>2022-08-27T15:55:33Z</time>
      </trkpt>
      <trkpt lat="42.2767210" lon="-8.2708200">
        <ele>1048.8</ele>
        <time>2022-08-27T15:55:34Z</time>
      </trkpt>
      <trkpt lat="42.2767520" lon="-8.2708360">
        <ele>1049.1</ele>
        <time>2022-08-27T15:55:36Z</time>
      </trkpt>
      <trkpt lat="42.2767660" lon="-8.2708420">
        <ele>1049.2</ele>
        <time>2022-08-27T15:55:37Z</time>
      </trkpt>
      <trkpt lat="42.2767840" lon="-8.2708480">
        <ele>1049.3</ele>
        <time>2022-08-27T15:55:38Z</time>
      </trkpt>
      <trkpt lat="42.2767980" lon="-8.2708520">
        <ele>1049.4</ele>
        <time>2022-08-27T15:55:39Z</time>
      </trkpt>
      <trkpt lat="42.2768120" lon="-8.2708560">
        <ele>1049.5</ele>
        <time>2022-08-27T15:55:40Z</time>
      </trkpt>
      <trkpt lat="42.2768290" lon="-8.2708600">
        <ele>1049.6</ele>
        <time>2022-08-27T15:55:41Z</time>
      </trkpt>
      <trkpt lat="42.2768420" lon="-8.2708640">
        <ele>1049.7</ele>
        <time>2022-08-27T15:55:42Z</time>
      </trkpt>
      <trkpt lat="42.2768590" lon="-8.2708650">
        <ele>1049.9</ele>
        <time>2022-08-27T15:55:43Z</time>
      </trkpt>
      <trkpt lat="42.2768770" lon="-8.2708630">
        <ele>1050.0</ele>
        <time>2022-08-27T15:55:44Z</time>
      </trkpt>
      <trkpt lat="42.2768940" lon="-8.2708620">
        <ele>1050.1</ele>
        <time>2022-08-27T15:55:45Z</time>
      </trkpt>
      <trkpt lat="42.2769100" lon="-8.2708610">
        <ele>1050.2</ele>
        <time>2022-08-27T15:55:46Z</time>
      </trkpt>
      <trkpt lat="42.2769390" lon="-8.2708650">
        <ele>1050.4</ele>
        <time>2022-08-27T15:55:47Z</time>
      </trkpt>
      <trkpt lat="42.2769480" lon="-8.2708660">
        <ele>1050.5</ele>
        <time>2022-08-27T15:55:48Z</time>
      </trkpt>
      <trkpt lat="42.2769690" lon="-8.2708690">
        <ele>1050.6</ele>
        <time>2022-08-27T15:55:49Z</time>
      </trkpt>
      <trkpt lat="42.2769830" lon="-8.2708710">
        <ele>1050.7</ele>
        <time>2022-08-27T15:55:50Z</time>
      </trkpt>
      <trkpt lat="42.2770110" lon="-8.2708780">
        <ele>1050.9</ele>
        <time>2022-08-27T15:55:51Z</time>
      </trkpt>
      <trkpt lat="42.2770210" lon="-8.2708800">
        <ele>1051.0</ele>
        <time>2022-08-27T15:55:52Z</time>
      </trkpt>
      <trkpt lat="42.2770400" lon="-8.2708840">
        <ele>1051.2</ele>
        <time>2022-08-27T15:55:53Z</time>
      </trkpt>
      <trkpt lat="42.2770550" lon="-8.2708870">
        <ele>1051.4</ele>
        <time>2022-08-27T15:55:54Z</time>
      </trkpt>
      <trkpt lat="42.2770780" lon="-8.2708910">
        <ele>1051.6</ele>
        <time>2022-08-27T15:55:55Z</time>
      </trkpt>
      <trkpt lat="42.2770870" lon="-8.2708930">
        <ele>1051.7</ele>
        <time>2022-08-27T15:55:56Z</time>
      </trkpt>
      <trkpt lat="42.2770970" lon="-8.2708940">
        <ele>1051.8</ele>
        <time>2022-08-27T15:55:57Z</time>
      </trkpt>
      <trkpt lat="42.2771210" lon="-8.2709050">
        <ele>1052.0</ele>
        <time>2022-08-27T15:55:58Z</time>
      </trkpt>
      <trkpt lat="42.2771300" lon="-8.2709100">
        <ele>1052.1</ele>
        <time>2022-08-27T15:55:59Z</time>
      </trkpt>
      <trkpt lat="42.2771390" lon="-8.2709160">
        <ele>1052.2</ele>
        <time>2022-08-27T15:56:00Z</time>
      </trkpt>
      <trkpt lat="42.2771700" lon="-8.2709330">
        <ele>1052.5</ele>
        <time>2022-08-27T15:56:01Z</time>
      </trkpt>
      <trkpt lat="42.2771820" lon="-8.2709400">
        <ele>1052.6</ele>
        <time>2022-08-27T15:56:02Z</time>
      </trkpt>
      <trkpt lat="42.2772090" lon="-8.2709540">
        <ele>1052.8</ele>
        <time>2022-08-27T15:56:03Z</time>
      </trkpt>
      <trkpt lat="42.2772390" lon="-8.2709650">
        <ele>1053.0</ele>
        <time>2022-08-27T15:56:04Z</time>
      </trkpt>
      <trkpt lat="42.2772680" lon="-8.2709700">
        <ele>1053.2</ele>
        <time>2022-08-27T15:56:05Z</time>
      </trkpt>
      <trkpt lat="42.2772960" lon="-8.2709750">
        <ele>1053.4</ele>
        <time>2022-08-27T15:56:06Z</time>
      </trkpt>
      <trkpt lat="42.2773260" lon="-8.2709820">
        <ele>1053.5</ele>
        <time>2022-08-27T15:56:07Z</time>
      </trkpt>
      <trkpt lat="42.2773560" lon="-8.2709940">
        <ele>1053.6</ele>
        <time>2022-08-27T15:56:08Z</time>
      </trkpt>
      <trkpt lat="42.2773940" lon="-8.2710130">
        <ele>1053.8</ele>
        <time>2022-08-27T15:56:09Z</time>
      </trkpt>
      <trkpt lat="42.2774330" lon="-8.2710320">
        <ele>1053.9</ele>
        <time>2022-08-27T15:56:10Z</time>
      </trkpt>
      <trkpt lat="42.2774470" lon="-8.2710390">
        <ele>1053.9</ele>
        <time>2022-08-27T15:56:11Z</time>
      </trkpt>
      <trkpt lat="42.2774760" lon="-8.2710530">
        <ele>1054.0</ele>
        <time>2022-08-27T15:56:12Z</time>
      </trkpt>
      <trkpt lat="42.2775070" lon="-8.2710700">
        <ele>1054.0</ele>
        <time>2022-08-27T15:56:13Z</time>
      </trkpt>
      <trkpt lat="42.2775370" lon="-8.2710870">
        <ele>1054.0</ele>
        <time>2022-08-27T15:56:14Z</time>
      </trkpt>
      <trkpt lat="42.2775720" lon="-8.2711080">
        <ele>1054.1</ele>
        <time>2022-08-27T15:56:15Z</time>
      </trkpt>
      <trkpt lat="42.2776060" lon="-8.2711250">
        <ele>1054.1</ele>
        <time>2022-08-27T15:56:16Z</time>
      </trkpt>
      <trkpt lat="42.2776360" lon="-8.2711440">
        <ele>1054.2</ele>
        <time>2022-08-27T15:56:17Z</time>
      </trkpt>
      <trkpt lat="42.2776690" lon="-8.2711650">
        <ele>1054.2</ele>
        <time>2022-08-27T15:56:18Z</time>
      </trkpt>
      <trkpt lat="42.2776980" lon="-8.2711860">
        <ele>1054.2</ele>
        <time>2022-08-27T15:56:19Z</time>
      </trkpt>
      <trkpt lat="42.2777250" lon="-8.2712060">
        <ele>1054.3</ele>
        <time>2022-08-27T15:56:20Z</time>
      </trkpt>
      <trkpt lat="42.2777580" lon="-8.2712310">
        <ele>1054.3</ele>
        <time>2022-08-27T15:56:21Z</time>
      </trkpt>
      <trkpt lat="42.2777900" lon="-8.2712560">
        <ele>1054.4</ele>
        <time>2022-08-27T15:56:22Z</time>
      </trkpt>
      <trkpt lat="42.2778190" lon="-8.2712780">
        <ele>1054.4</ele>
        <time>2022-08-27T15:56:23Z</time>
      </trkpt>
      <trkpt lat="42.2778450" lon="-8.2712980">
        <ele>1054.5</ele>
        <time>2022-08-27T15:56:24Z</time>
      </trkpt>
      <trkpt lat="42.2778720" lon="-8.2713190">
        <ele>1054.5</ele>
        <time>2022-08-27T15:56:25Z</time>
      </trkpt>
      <trkpt lat="42.2779040" lon="-8.2713390">
        <ele>1054.6</ele>
        <time>2022-08-27T15:56:26Z</time>
      </trkpt>
      <trkpt lat="42.2779390" lon="-8.2713580">
        <ele>1054.7</ele>
        <time>2022-08-27T15:56:27Z</time>
      </trkpt>
      <trkpt lat="42.2779770" lon="-8.2713810">
        <ele>1054.8</ele>
        <time>2022-08-27T15:56:28Z</time>
      </trkpt>
      <trkpt lat="42.2780080" lon="-8.2714010">
        <ele>1054.9</ele>
        <time>2022-08-27T15:56:29Z</time>
      </trkpt>
      <trkpt lat="42.2780400" lon="-8.2714210">
        <ele>1055.0</ele>
        <time>2022-08-27T15:56:30Z</time>
      </trkpt>
      <trkpt lat="42.2780770" lon="-8.2714500">
        <ele>1055.2</ele>
        <time>2022-08-27T15:56:31Z</time>
      </trkpt>
      <trkpt lat="42.2780900" lon="-8.2714610">
        <ele>1055.3</ele>
        <time>2022-08-27T15:56:32Z</time>
      </trkpt>
      <trkpt lat="42.2781180" lon="-8.2714810">
        <ele>1055.5</ele>
        <time>2022-08-27T15:56:33Z</time>
      </trkpt>
      <trkpt lat="42.2781260" lon="-8.2714860">
        <ele>1055.6</ele>
        <time>2022-08-27T15:56:34Z</time>
      </trkpt>
      <trkpt lat="42.2781390" lon="-8.2714930">
        <ele>1055.7</ele>
        <time>2022-08-27T15:56:35Z</time>
      </trkpt>
      <trkpt lat="42.2781510" lon="-8.2715010">
        <ele>1055.8</ele>
        <time>2022-08-27T15:56:36Z</time>
      </trkpt>
      <trkpt lat="42.2781630" lon="-8.2715100">
        <ele>1055.9</ele>
        <time>2022-08-27T15:56:37Z</time>
      </trkpt>
      <trkpt lat="42.2781750" lon="-8.2715190">
        <ele>1056.0</ele>
        <time>2022-08-27T15:56:38Z</time>
      </trkpt>
      <trkpt lat="42.2781860" lon="-8.2715290">
        <ele>1056.1</ele>
        <time>2022-08-27T15:56:39Z</time>
      </trkpt>
      <trkpt lat="42.2782050" lon="-8.2715430">
        <ele>1056.4</ele>
        <time>2022-08-27T15:56:40Z</time>
      </trkpt>
      <trkpt lat="42.2782160" lon="-8.2715570">
        <ele>1056.5</ele>
        <time>2022-08-27T15:56:42Z</time>
      </trkpt>
      <trkpt lat="42.2782310" lon="-8.2715700">
        <ele>1056.8</ele>
        <time>2022-08-27T15:56:43Z</time>
      </trkpt>
      <trkpt lat="42.2782370" lon="-8.2715730">
        <ele>1056.9</ele>
        <time>2022-08-27T15:56:44Z</time>
      </trkpt>
      <trkpt lat="42.2782440" lon="-8.2715730">
        <ele>1057.0</ele>
        <time>2022-08-27T15:56:45Z</time>
      </trkpt>
      <trkpt lat="42.2782580" lon="-8.2715790">
        <ele>1057.2</ele>
        <time>2022-08-27T15:56:46Z</time>
      </trkpt>
      <trkpt lat="42.2782770" lon="-8.2715960">
        <ele>1057.5</ele>
        <time>2022-08-27T15:56:47Z</time>
      </trkpt>
      <trkpt lat="42.2782850" lon="-8.2716060">
        <ele>1057.7</ele>
        <time>2022-08-27T15:56:48Z</time>
      </trkpt>
      <trkpt lat="42.2782920" lon="-8.2716160">
        <ele>1057.8</ele>
        <time>2022-08-27T15:56:50Z</time>
      </trkpt>
      <trkpt lat="42.2783000" lon="-8.2716270">
        <ele>1058.0</ele>
        <time>2022-08-27T15:56:51Z</time>
      </trkpt>
      <trkpt lat="42.2783070" lon="-8.2716370">
        <ele>1058.2</ele>
        <time>2022-08-27T15:56:52Z</time>
      </trkpt>
      <trkpt lat="42.2783150" lon="-8.2716470">
        <ele>1058.4</ele>
        <time>2022-08-27T15:56:53Z</time>
      </trkpt>
      <trkpt lat="42.2783260" lon="-8.2716580">
        <ele>1058.7</ele>
        <time>2022-08-27T15:56:55Z</time>
      </trkpt>
      <trkpt lat="42.2783340" lon="-8.2716660">
        <ele>1058.8</ele>
        <time>2022-08-27T15:56:56Z</time>
      </trkpt>
      <trkpt lat="42.2783380" lon="-8.2716690">
        <ele>1058.9</ele>
        <time>2022-08-27T15:56:57Z</time>
      </trkpt>
      <trkpt lat="42.2783490" lon="-8.2716700">
        <ele>1059.1</ele>
        <time>2022-08-27T15:56:58Z</time>
      </trkpt>
      <trkpt lat="42.2783690" lon="-8.2716730">
        <ele>1059.5</ele>
        <time>2022-08-27T15:57:00Z</time>
      </trkpt>
      <trkpt lat="42.2783860" lon="-8.2716730">
        <ele>1059.9</ele>
        <time>2022-08-27T15:57:01Z</time>
      </trkpt>
      <trkpt lat="42.2783910" lon="-8.2716750">
        <ele>1060.0</ele>
        <time>2022-08-27T15:57:02Z</time>
      </trkpt>
      <trkpt lat="42.2783960" lon="-8.2716800">
        <ele>1060.1</ele>
        <time>2022-08-27T15:57:03Z</time>
      </trkpt>
      <trkpt lat="42.2783980" lon="-8.2716860">
        <ele>1060.2</ele>
        <time>2022-08-27T15:57:04Z</time>
      </trkpt>
      <trkpt lat="42.2784070" lon="-8.2716970">
        <ele>1060.4</ele>
        <time>2022-08-27T15:57:06Z</time>
      </trkpt>
      <trkpt lat="42.2784120" lon="-8.2717000">
        <ele>1060.5</ele>
        <time>2022-08-27T15:57:07Z</time>
      </trkpt>
      <trkpt lat="42.2784270" lon="-8.2717070">
        <ele>1060.9</ele>
        <time>2022-08-27T15:57:08Z</time>
      </trkpt>
      <trkpt lat="42.2784360" lon="-8.2717110">
        <ele>1061.1</ele>
        <time>2022-08-27T15:57:09Z</time>
      </trkpt>
      <trkpt lat="42.2784420" lon="-8.2717140">
        <ele>1061.2</ele>
        <time>2022-08-27T15:57:10Z</time>
      </trkpt>
      <trkpt lat="42.2784510" lon="-8.2717230">
        <ele>1061.4</ele>
        <time>2022-08-27T15:57:11Z</time>
      </trkpt>
      <trkpt lat="42.2784580" lon="-8.2717290">
        <ele>1061.6</ele>
        <time>2022-08-27T15:57:12Z</time>
      </trkpt>
      <trkpt lat="42.2784660" lon="-8.2717370">
        <ele>1061.8</ele>
        <time>2022-08-27T15:57:13Z</time>
      </trkpt>
      <trkpt lat="42.2784780" lon="-8.2717480">
        <ele>1062.0</ele>
        <time>2022-08-27T15:57:14Z</time>
      </trkpt>
      <trkpt lat="42.2784860" lon="-8.2717520">
        <ele>1062.2</ele>
        <time>2022-08-27T15:57:15Z</time>
      </trkpt>
      <trkpt lat="42.2784950" lon="-8.2717570">
        <ele>1062.4</ele>
        <time>2022-08-27T15:57:16Z</time>
      </trkpt>
      <trkpt lat="42.2785040" lon="-8.2717640">
        <ele>1062.5</ele>
        <time>2022-08-27T15:57:17Z</time>
      </trkpt>
      <trkpt lat="42.2785100" lon="-8.2717690">
        <ele>1062.7</ele>
        <time>2022-08-27T15:57:18Z</time>
      </trkpt>
      <trkpt lat="42.2785180" lon="-8.2717760">
        <ele>1062.8</ele>
        <time>2022-08-27T15:57:19Z</time>
      </trkpt>
      <trkpt lat="42.2785300" lon="-8.2717860">
        <ele>1063.1</ele>
        <time>2022-08-27T15:57:20Z</time>
      </trkpt>
      <trkpt lat="42.2785370" lon="-8.2717930">
        <ele>1063.3</ele>
        <time>2022-08-27T15:57:21Z</time>
      </trkpt>
      <trkpt lat="42.2785460" lon="-8.2718030">
        <ele>1063.5</ele>
        <time>2022-08-27T15:57:22Z</time>
      </trkpt>
      <trkpt lat="42.2785560" lon="-8.2718130">
        <ele>1063.7</ele>
        <time>2022-08-27T15:57:23Z</time>
      </trkpt>
      <trkpt lat="42.2785610" lon="-8.2718170">
        <ele>1063.8</ele>
        <time>2022-08-27T15:57:24Z</time>
      </trkpt>
      <trkpt lat="42.2785700" lon="-8.2718230">
        <ele>1064.0</ele>
        <time>2022-08-27T15:57:25Z</time>
      </trkpt>
      <trkpt lat="42.2785850" lon="-8.2718330">
        <ele>1064.3</ele>
        <time>2022-08-27T15:57:26Z</time>
      </trkpt>
      <trkpt lat="42.2785900" lon="-8.2718370">
        <ele>1064.4</ele>
        <time>2022-08-27T15:57:27Z</time>
      </trkpt>
      <trkpt lat="42.2785990" lon="-8.2718430">
        <ele>1064.5</ele>
        <time>2022-08-27T15:57:28Z</time>
      </trkpt>
      <trkpt lat="42.2786060" lon="-8.2718480">
        <ele>1064.7</ele>
        <time>2022-08-27T15:57:29Z</time>
      </trkpt>
      <trkpt lat="42.2786110" lon="-8.2718500">
        <ele>1064.8</ele>
        <time>2022-08-27T15:57:30Z</time>
      </trkpt>
      <trkpt lat="42.2786170" lon="-8.2718540">
        <ele>1064.9</ele>
        <time>2022-08-27T15:57:31Z</time>
      </trkpt>
      <trkpt lat="42.2786290" lon="-8.2718620">
        <ele>1065.1</ele>
        <time>2022-08-27T15:57:32Z</time>
      </trkpt>
      <trkpt lat="42.2786370" lon="-8.2718670">
        <ele>1065.3</ele>
        <time>2022-08-27T15:57:33Z</time>
      </trkpt>
      <trkpt lat="42.2786430" lon="-8.2718700">
        <ele>1065.4</ele>
        <time>2022-08-27T15:57:34Z</time>
      </trkpt>
      <trkpt lat="42.2786500" lon="-8.2718770">
        <ele>1065.5</ele>
        <time>2022-08-27T15:57:35Z</time>
      </trkpt>
      <trkpt lat="42.2786600" lon="-8.2718880">
        <ele>1065.7</ele>
        <time>2022-08-27T15:57:36Z</time>
      </trkpt>
      <trkpt lat="42.2786670" lon="-8.2719020">
        <ele>1066.0</ele>
        <time>2022-08-27T15:57:37Z</time>
      </trkpt>
      <trkpt lat="42.2786700" lon="-8.2719100">
        <ele>1066.1</ele>
        <time>2022-08-27T15:57:38Z</time>
      </trkpt>
      <trkpt lat="42.2786740" lon="-8.2719190">
        <ele>1066.2</ele>
        <time>2022-08-27T15:57:39Z</time>
      </trkpt>
      <trkpt lat="42.2786790" lon="-8.2719280">
        <ele>1066.4</ele>
        <time>2022-08-27T15:57:40Z</time>
      </trkpt>
      <trkpt lat="42.2786880" lon="-8.2719370">
        <ele>1066.6</ele>
        <time>2022-08-27T15:57:41Z</time>
      </trkpt>
      <trkpt lat="42.2786940" lon="-8.2719430">
        <ele>1066.7</ele>
        <time>2022-08-27T15:57:42Z</time>
      </trkpt>
      <trkpt lat="42.2787000" lon="-8.2719460">
        <ele>1066.8</ele>
        <time>2022-08-27T15:57:43Z</time>
      </trkpt>
      <trkpt lat="42.2787070" lon="-8.2719510">
        <ele>1067.0</ele>
        <time>2022-08-27T15:57:44Z</time>
      </trkpt>
      <trkpt lat="42.2787140" lon="-8.2719570">
        <ele>1067.1</ele>
        <time>2022-08-27T15:57:45Z</time>
      </trkpt>
      <trkpt lat="42.2787190" lon="-8.2719640">
        <ele>1067.3</ele>
        <time>2022-08-27T15:57:46Z</time>
      </trkpt>
      <trkpt lat="42.2787240" lon="-8.2719750">
        <ele>1067.5</ele>
        <time>2022-08-27T15:57:47Z</time>
      </trkpt>
      <trkpt lat="42.2787280" lon="-8.2719840">
        <ele>1067.6</ele>
        <time>2022-08-27T15:57:48Z</time>
      </trkpt>
      <trkpt lat="42.2787300" lon="-8.2719910">
        <ele>1067.7</ele>
        <time>2022-08-27T15:57:49Z</time>
      </trkpt>
      <trkpt lat="42.2787370" lon="-8.2719980">
        <ele>1067.9</ele>
        <time>2022-08-27T15:57:50Z</time>
      </trkpt>
      <trkpt lat="42.2787470" lon="-8.2720070">
        <ele>1068.1</ele>
        <time>2022-08-27T15:57:51Z</time>
      </trkpt>
      <trkpt lat="42.2787590" lon="-8.2720180">
        <ele>1068.4</ele>
        <time>2022-08-27T15:57:52Z</time>
      </trkpt>
      <trkpt lat="42.2787660" lon="-8.2720240">
        <ele>1068.5</ele>
        <time>2022-08-27T15:57:53Z</time>
      </trkpt>
      <trkpt lat="42.2787670" lon="-8.2720230">
        <ele>1068.6</ele>
        <time>2022-08-27T15:57:54Z</time>
      </trkpt>
      <trkpt lat="42.2787730" lon="-8.2720270">
        <ele>1068.7</ele>
        <time>2022-08-27T15:57:55Z</time>
      </trkpt>
      <trkpt lat="42.2787800" lon="-8.2720350">
        <ele>1068.9</ele>
        <time>2022-08-27T15:57:56Z</time>
      </trkpt>
      <trkpt lat="42.2787880" lon="-8.2720440">
        <ele>1069.1</ele>
        <time>2022-08-27T15:57:57Z</time>
      </trkpt>
      <trkpt lat="42.2787980" lon="-8.2720540">
        <ele>1069.4</ele>
        <time>2022-08-27T15:57:58Z</time>
      </trkpt>
      <trkpt lat="42.2788040" lon="-8.2720600">
        <ele>1069.5</ele>
        <time>2022-08-27T15:57:59Z</time>
      </trkpt>
      <trkpt lat="42.2788120" lon="-8.2720700">
        <ele>1069.7</ele>
        <time>2022-08-27T15:58:00Z</time>
      </trkpt>
      <trkpt lat="42.2788200" lon="-8.2720800">
        <ele>1070.0</ele>
        <time>2022-08-27T15:58:01Z</time>
      </trkpt>
      <trkpt lat="42.2788310" lon="-8.2720940">
        <ele>1070.3</ele>
        <time>2022-08-27T15:58:02Z</time>
      </trkpt>
      <trkpt lat="42.2788330" lon="-8.2720980">
        <ele>1070.4</ele>
        <time>2022-08-27T15:58:03Z</time>
      </trkpt>
      <trkpt lat="42.2788350" lon="-8.2721020">
        <ele>1070.4</ele>
        <time>2022-08-27T15:58:04Z</time>
      </trkpt>
      <trkpt lat="42.2788400" lon="-8.2721100">
        <ele>1070.6</ele>
        <time>2022-08-27T15:58:05Z</time>
      </trkpt>
      <trkpt lat="42.2788450" lon="-8.2721180">
        <ele>1070.7</ele>
        <time>2022-08-27T15:58:06Z</time>
      </trkpt>
      <trkpt lat="42.2788540" lon="-8.2721300">
        <ele>1071.0</ele>
        <time>2022-08-27T15:58:07Z</time>
      </trkpt>
      <trkpt lat="42.2788580" lon="-8.2721330">
        <ele>1071.1</ele>
        <time>2022-08-27T15:58:08Z</time>
      </trkpt>
      <trkpt lat="42.2788640" lon="-8.2721380">
        <ele>1071.2</ele>
        <time>2022-08-27T15:58:09Z</time>
      </trkpt>
      <trkpt lat="42.2788680" lon="-8.2721430">
        <ele>1071.4</ele>
        <time>2022-08-27T15:58:10Z</time>
      </trkpt>
      <trkpt lat="42.2788770" lon="-8.2721490">
        <ele>1071.6</ele>
        <time>2022-08-27T15:58:11Z</time>
      </trkpt>
      <trkpt lat="42.2788810" lon="-8.2721570">
        <ele>1071.7</ele>
        <time>2022-08-27T15:58:12Z</time>
      </trkpt>
      <trkpt lat="42.2788840" lon="-8.2721590">
        <ele>1071.8</ele>
        <time>2022-08-27T15:58:13Z</time>
      </trkpt>
      <trkpt lat="42.2788890" lon="-8.2721620">
        <ele>1071.9</ele>
        <time>2022-08-27T15:58:14Z</time>
      </trkpt>
      <trkpt lat="42.2788970" lon="-8.2721670">
        <ele>1072.1</ele>
        <time>2022-08-27T15:58:15Z</time>
      </trkpt>
      <trkpt lat="42.2789060" lon="-8.2721710">
        <ele>1072.3</ele>
        <time>2022-08-27T15:58:16Z</time>
      </trkpt>
      <trkpt lat="42.2789180" lon="-8.2721750">
        <ele>1072.6</ele>
        <time>2022-08-27T15:58:17Z</time>
      </trkpt>
      <trkpt lat="42.2789230" lon="-8.2721720">
        <ele>1072.7</ele>
        <time>2022-08-27T15:58:18Z</time>
      </trkpt>
      <trkpt lat="42.2789280" lon="-8.2721700">
        <ele>1072.8</ele>
        <time>2022-08-27T15:58:19Z</time>
      </trkpt>
      <trkpt lat="42.2789340" lon="-8.2721700">
        <ele>1072.9</ele>
        <time>2022-08-27T15:58:20Z</time>
      </trkpt>
      <trkpt lat="42.2789400" lon="-8.2721720">
        <ele>1073.1</ele>
        <time>2022-08-27T15:58:21Z</time>
      </trkpt>
      <trkpt lat="42.2789480" lon="-8.2721750">
        <ele>1073.2</ele>
        <time>2022-08-27T15:58:22Z</time>
      </trkpt>
      <trkpt lat="42.2789580" lon="-8.2721790">
        <ele>1073.4</ele>
        <time>2022-08-27T15:58:23Z</time>
      </trkpt>
      <trkpt lat="42.2789650" lon="-8.2721820">
        <ele>1073.6</ele>
        <time>2022-08-27T15:58:24Z</time>
      </trkpt>
      <trkpt lat="42.2789720" lon="-8.2721850">
        <ele>1073.8</ele>
        <time>2022-08-27T15:58:25Z</time>
      </trkpt>
      <trkpt lat="42.2789790" lon="-8.2721880">
        <ele>1073.9</ele>
        <time>2022-08-27T15:58:26Z</time>
      </trkpt>
      <trkpt lat="42.2789860" lon="-8.2721910">
        <ele>1074.1</ele>
        <time>2022-08-27T15:58:27Z</time>
      </trkpt>
      <trkpt lat="42.2789960" lon="-8.2722010">
        <ele>1074.3</ele>
        <time>2022-08-27T15:58:28Z</time>
      </trkpt>
      <trkpt lat="42.2790020" lon="-8.2722060">
        <ele>1074.5</ele>
        <time>2022-08-27T15:58:29Z</time>
      </trkpt>
      <trkpt lat="42.2790070" lon="-8.2722100">
        <ele>1074.6</ele>
        <time>2022-08-27T15:58:30Z</time>
      </trkpt>
      <trkpt lat="42.2790130" lon="-8.2722150">
        <ele>1074.8</ele>
        <time>2022-08-27T15:58:31Z</time>
      </trkpt>
      <trkpt lat="42.2790190" lon="-8.2722190">
        <ele>1074.9</ele>
        <time>2022-08-27T15:58:32Z</time>
      </trkpt>
      <trkpt lat="42.2790280" lon="-8.2722270">
        <ele>1075.1</ele>
        <time>2022-08-27T15:58:33Z</time>
      </trkpt>
      <trkpt lat="42.2790330" lon="-8.2722300">
        <ele>1075.2</ele>
        <time>2022-08-27T15:58:34Z</time>
      </trkpt>
      <trkpt lat="42.2790400" lon="-8.2722360">
        <ele>1075.4</ele>
        <time>2022-08-27T15:58:35Z</time>
      </trkpt>
      <trkpt lat="42.2790490" lon="-8.2722460">
        <ele>1075.6</ele>
        <time>2022-08-27T15:58:36Z</time>
      </trkpt>
      <trkpt lat="42.2790700" lon="-8.2722630">
        <ele>1076.2</ele>
        <time>2022-08-27T15:58:37Z</time>
      </trkpt>
      <trkpt lat="42.2790770" lon="-8.2722670">
        <ele>1076.3</ele>
        <time>2022-08-27T15:58:38Z</time>
      </trkpt>
      <trkpt lat="42.2790830" lon="-8.2722700">
        <ele>1076.4</ele>
        <time>2022-08-27T15:58:39Z</time>
      </trkpt>
      <trkpt lat="42.2790900" lon="-8.2722710">
        <ele>1076.6</ele>
        <time>2022-08-27T15:58:40Z</time>
      </trkpt>
      <trkpt lat="42.2790970" lon="-8.2722740">
        <ele>1076.7</ele>
        <time>2022-08-27T15:58:41Z</time>
      </trkpt>
      <trkpt lat="42.2791150" lon="-8.2722780">
        <ele>1077.1</ele>
        <time>2022-08-27T15:58:42Z</time>
      </trkpt>
      <trkpt lat="42.2791260" lon="-8.2722810">
        <ele>1077.3</ele>
        <time>2022-08-27T15:58:43Z</time>
      </trkpt>
      <trkpt lat="42.2791340" lon="-8.2722840">
        <ele>1077.5</ele>
        <time>2022-08-27T15:58:44Z</time>
      </trkpt>
      <trkpt lat="42.2791420" lon="-8.2722870">
        <ele>1077.7</ele>
        <time>2022-08-27T15:58:45Z</time>
      </trkpt>
      <trkpt lat="42.2791500" lon="-8.2722900">
        <ele>1077.9</ele>
        <time>2022-08-27T15:58:46Z</time>
      </trkpt>
      <trkpt lat="42.2791570" lon="-8.2722920">
        <ele>1078.0</ele>
        <time>2022-08-27T15:58:47Z</time>
      </trkpt>
      <trkpt lat="42.2791670" lon="-8.2722960">
        <ele>1078.2</ele>
        <time>2022-08-27T15:58:48Z</time>
      </trkpt>
      <trkpt lat="42.2791760" lon="-8.2722990">
        <ele>1078.4</ele>
        <time>2022-08-27T15:58:49Z</time>
      </trkpt>
      <trkpt lat="42.2791870" lon="-8.2723030">
        <ele>1078.7</ele>
        <time>2022-08-27T15:58:50Z</time>
      </trkpt>
      <trkpt lat="42.2792000" lon="-8.2723070">
        <ele>1078.9</ele>
        <time>2022-08-27T15:58:51Z</time>
      </trkpt>
      <trkpt lat="42.2792140" lon="-8.2723120">
        <ele>1079.2</ele>
        <time>2022-08-27T15:58:52Z</time>
      </trkpt>
      <trkpt lat="42.2792320" lon="-8.2723140">
        <ele>1079.6</ele>
        <time>2022-08-27T15:58:53Z</time>
      </trkpt>
      <trkpt lat="42.2792420" lon="-8.2723170">
        <ele>1079.8</ele>
        <time>2022-08-27T15:58:54Z</time>
      </trkpt>
      <trkpt lat="42.2792490" lon="-8.2723180">
        <ele>1080.0</ele>
        <time>2022-08-27T15:58:55Z</time>
      </trkpt>
      <trkpt lat="42.2792570" lon="-8.2723190">
        <ele>1080.1</ele>
        <time>2022-08-27T15:58:56Z</time>
      </trkpt>
      <trkpt lat="42.2792740" lon="-8.2723190">
        <ele>1080.5</ele>
        <time>2022-08-27T15:58:57Z</time>
      </trkpt>
      <trkpt lat="42.2792730" lon="-8.2723200">
        <ele>1080.5</ele>
        <time>2022-08-27T15:58:58Z</time>
      </trkpt>
      <trkpt lat="42.2792790" lon="-8.2723220">
        <ele>1080.6</ele>
        <time>2022-08-27T15:58:59Z</time>
      </trkpt>
      <trkpt lat="42.2792870" lon="-8.2723240">
        <ele>1080.8</ele>
        <time>2022-08-27T15:59:00Z</time>
      </trkpt>
      <trkpt lat="42.2792940" lon="-8.2723260">
        <ele>1080.9</ele>
        <time>2022-08-27T15:59:01Z</time>
      </trkpt>
      <trkpt lat="42.2793040" lon="-8.2723260">
        <ele>1081.2</ele>
        <time>2022-08-27T15:59:02Z</time>
      </trkpt>
      <trkpt lat="42.2793130" lon="-8.2723230">
        <ele>1081.3</ele>
        <time>2022-08-27T15:59:03Z</time>
      </trkpt>
      <trkpt lat="42.2793190" lon="-8.2723210">
        <ele>1081.5</ele>
        <time>2022-08-27T15:59:04Z</time>
      </trkpt>
      <trkpt lat="42.2793250" lon="-8.2723160">
        <ele>1081.6</ele>
        <time>2022-08-27T15:59:05Z</time>
      </trkpt>
      <trkpt lat="42.2793300" lon="-8.2723090">
        <ele>1081.8</ele>
        <time>2022-08-27T15:59:06Z</time>
      </trkpt>
      <trkpt lat="42.2793300" lon="-8.2723040">
        <ele>1081.8</ele>
        <time>2022-08-27T15:59:07Z</time>
      </trkpt>
      <trkpt lat="42.2793340" lon="-8.2722970">
        <ele>1082.0</ele>
        <time>2022-08-27T15:59:08Z</time>
      </trkpt>
      <trkpt lat="42.2793380" lon="-8.2722900">
        <ele>1082.1</ele>
        <time>2022-08-27T15:59:09Z</time>
      </trkpt>
      <trkpt lat="42.2793460" lon="-8.2722830">
        <ele>1082.3</ele>
        <time>2022-08-27T15:59:10Z</time>
      </trkpt>
      <trkpt lat="42.2793550" lon="-8.2722750">
        <ele>1082.3</ele>
        <time>2022-08-27T15:59:11Z</time>
      </trkpt>
      <trkpt lat="42.2793660" lon="-8.2722660">
        <ele>1082.4</ele>
        <time>2022-08-27T15:59:12Z</time>
      </trkpt>
      <trkpt lat="42.2793720" lon="-8.2722600">
        <ele>1082.5</ele>
        <time>2022-08-27T15:59:13Z</time>
      </trkpt>
      <trkpt lat="42.2793780" lon="-8.2722510">
        <ele>1082.6</ele>
        <time>2022-08-27T15:59:14Z</time>
      </trkpt>
      <trkpt lat="42.2793950" lon="-8.2722340">
        <ele>1082.7</ele>
        <time>2022-08-27T15:59:15Z</time>
      </trkpt>
      <trkpt lat="42.2794030" lon="-8.2722280">
        <ele>1082.8</ele>
        <time>2022-08-27T15:59:16Z</time>
      </trkpt>
      <trkpt lat="42.2794100" lon="-8.2722220">
        <ele>1082.8</ele>
        <time>2022-08-27T15:59:17Z</time>
      </trkpt>
      <trkpt lat="42.2794160" lon="-8.2722200">
        <ele>1082.9</ele>
        <time>2022-08-27T15:59:18Z</time>
      </trkpt>
      <trkpt lat="42.2794280" lon="-8.2722140">
        <ele>1082.9</ele>
        <time>2022-08-27T15:59:19Z</time>
      </trkpt>
      <trkpt lat="42.2794400" lon="-8.2722040">
        <ele>1083.0</ele>
        <time>2022-08-27T15:59:20Z</time>
      </trkpt>
      <trkpt lat="42.2794530" lon="-8.2721910">
        <ele>1083.1</ele>
        <time>2022-08-27T15:59:21Z</time>
      </trkpt>
      <trkpt lat="42.2794680" lon="-8.2721770">
        <ele>1083.1</ele>
        <time>2022-08-27T15:59:22Z</time>
      </trkpt>
      <trkpt lat="42.2794810" lon="-8.2721650">
        <ele>1083.1</ele>
        <time>2022-08-27T15:59:23Z</time>
      </trkpt>
      <trkpt lat="42.2794860" lon="-8.2721610">
        <ele>1083.1</ele>
        <time>2022-08-27T15:59:24Z</time>
      </trkpt>
      <trkpt lat="42.2794930" lon="-8.2721540">
        <ele>1083.2</ele>
        <time>2022-08-27T15:59:25Z</time>
      </trkpt>
      <trkpt lat="42.2795000" lon="-8.2721470">
        <ele>1083.2</ele>
        <time>2022-08-27T15:59:26Z</time>
      </trkpt>
      <trkpt lat="42.2795160" lon="-8.2721330">
        <ele>1083.1</ele>
        <time>2022-08-27T15:59:27Z</time>
      </trkpt>
      <trkpt lat="42.2795410" lon="-8.2721050">
        <ele>1083.1</ele>
        <time>2022-08-27T15:59:28Z</time>
      </trkpt>
      <trkpt lat="42.2795470" lon="-8.2720950">
        <ele>1083.1</ele>
        <time>2022-08-27T15:59:29Z</time>
      </trkpt>
      <trkpt lat="42.2795710" lon="-8.2720530">
        <ele>1082.9</ele>
        <time>2022-08-27T15:59:30Z</time>
      </trkpt>
      <trkpt lat="42.2796020" lon="-8.2720080">
        <ele>1082.7</ele>
        <time>2022-08-27T15:59:31Z</time>
      </trkpt>
      <trkpt lat="42.2796300" lon="-8.2719760">
        <ele>1082.5</ele>
        <time>2022-08-27T15:59:32Z</time>
      </trkpt>
      <trkpt lat="42.2796640" lon="-8.2719440">
        <ele>1082.3</ele>
        <time>2022-08-27T15:59:33Z</time>
      </trkpt>
      <trkpt lat="42.2797030" lon="-8.2719240">
        <ele>1082.0</ele>
        <time>2022-08-27T15:59:34Z</time>
      </trkpt>
      <trkpt lat="42.2797270" lon="-8.2719150">
        <ele>1081.8</ele>
        <time>2022-08-27T15:59:35Z</time>
      </trkpt>
      <trkpt lat="42.2797360" lon="-8.2719190">
        <ele>1081.8</ele>
        <time>2022-08-27T15:59:36Z</time>
      </trkpt>
      <trkpt lat="42.2797470" lon="-8.2719270">
        <ele>1081.7</ele>
        <time>2022-08-27T15:59:37Z</time>
      </trkpt>
      <trkpt lat="42.2797510" lon="-8.2719270">
        <ele>1081.7</ele>
        <time>2022-08-27T15:59:38Z</time>
      </trkpt>
      <trkpt lat="42.2797550" lon="-8.2719280">
        <ele>1081.6</ele>
        <time>2022-08-27T15:59:39Z</time>
      </trkpt>
      <trkpt lat="42.2797590" lon="-8.2719290">
        <ele>1081.6</ele>
        <time>2022-08-27T15:59:40Z</time>
      </trkpt>
      <trkpt lat="42.2797630" lon="-8.2719300">
        <ele>1081.6</ele>
        <time>2022-08-27T15:59:41Z</time>
      </trkpt>
      <trkpt lat="42.2797670" lon="-8.2719310">
        <ele>1081.5</ele>
        <time>2022-08-27T15:59:42Z</time>
      </trkpt>
      <trkpt lat="42.2797710" lon="-8.2719320">
        <ele>1081.5</ele>
        <time>2022-08-27T15:59:43Z</time>
      </trkpt>
      <trkpt lat="42.2797750" lon="-8.2719330">
        <ele>1081.5</ele>
        <time>2022-08-27T15:59:44Z</time>
      </trkpt>
      <trkpt lat="42.2797790" lon="-8.2719340">
        <ele>1081.4</ele>
        <time>2022-08-27T15:59:45Z</time>
      </trkpt>
      <trkpt lat="42.2797820" lon="-8.2719350">
        <ele>1081.4</ele>
        <time>2022-08-27T15:59:46Z</time>
      </trkpt>
      <trkpt lat="42.2797860" lon="-8.2719350">
        <ele>1081.4</ele>
        <time>2022-08-27T15:59:47Z</time>
      </trkpt>
      <trkpt lat="42.2797900" lon="-8.2719360">
        <ele>1081.3</ele>
        <time>2022-08-27T15:59:48Z</time>
      </trkpt>
      <trkpt lat="42.2797940" lon="-8.2719370">
        <ele>1081.3</ele>
        <time>2022-08-27T15:59:49Z</time>
      </trkpt>
      <trkpt lat="42.2797980" lon="-8.2719380">
        <ele>1081.3</ele>
        <time>2022-08-27T15:59:50Z</time>
      </trkpt>
      <trkpt lat="42.2798020" lon="-8.2719390">
        <ele>1081.2</ele>
        <time>2022-08-27T15:59:54Z</time>
      </trkpt>
      <trkpt lat="42.2798060" lon="-8.2719400">
        <ele>1081.2</ele>
        <time>2022-08-27T15:59:55Z</time>
      </trkpt>
      <trkpt lat="42.2798100" lon="-8.2719410">
        <ele>1081.2</ele>
        <time>2022-08-27T15:59:56Z</time>
      </trkpt>
      <trkpt lat="42.2798140" lon="-8.2719420">
        <ele>1081.1</ele>
        <time>2022-08-27T15:59:57Z</time>
      </trkpt>
      <trkpt lat="42.2798440" lon="-8.2719370">
        <ele>1080.8</ele>
        <time>2022-08-27T15:59:58Z</time>
      </trkpt>
      <trkpt lat="42.2798820" lon="-8.2719310">
        <ele>1080.4</ele>
        <time>2022-08-27T15:59:59Z</time>
      </trkpt>
      <trkpt lat="42.2799140" lon="-8.2719300">
        <ele>1080.0</ele>
        <time>2022-08-27T16:00:00Z</time>
      </trkpt>
      <trkpt lat="42.2799500" lon="-8.2719380">
        <ele>1079.6</ele>
        <time>2022-08-27T16:00:01Z</time>
      </trkpt>
      <trkpt lat="42.2799880" lon="-8.2719500">
        <ele>1079.0</ele>
        <time>2022-08-27T16:00:02Z</time>
      </trkpt>
      <trkpt lat="42.2800290" lon="-8.2719620">
        <ele>1078.5</ele>
        <time>2022-08-27T16:00:03Z</time>
      </trkpt>
      <trkpt lat="42.2800780" lon="-8.2719720">
        <ele>1077.8</ele>
        <time>2022-08-27T16:00:04Z</time>
      </trkpt>
      <trkpt lat="42.2801280" lon="-8.2719880">
        <ele>1077.2</ele>
        <time>2022-08-27T16:00:05Z</time>
      </trkpt>
      <trkpt lat="42.2801810" lon="-8.2720150">
        <ele>1076.5</ele>
        <time>2022-08-27T16:00:06Z</time>
      </trkpt>
      <trkpt lat="42.2802360" lon="-8.2720500">
        <ele>1075.9</ele>
        <time>2022-08-27T16:00:07Z</time>
      </trkpt>
      <trkpt lat="42.2802950" lon="-8.2720960">
        <ele>1075.3</ele>
        <time>2022-08-27T16:00:08Z</time>
      </trkpt>
      <trkpt lat="42.2803500" lon="-8.2721470">
        <ele>1074.7</ele>
        <time>2022-08-27T16:00:09Z</time>
      </trkpt>
      <trkpt lat="42.2804000" lon="-8.2722030">
        <ele>1074.1</ele>
        <time>2022-08-27T16:00:10Z</time>
      </trkpt>
      <trkpt lat="42.2804470" lon="-8.2722510">
        <ele>1073.4</ele>
        <time>2022-08-27T16:00:11Z</time>
      </trkpt>
      <trkpt lat="42.2804920" lon="-8.2722880">
        <ele>1072.8</ele>
        <time>2022-08-27T16:00:12Z</time>
      </trkpt>
      <trkpt lat="42.2805310" lon="-8.2723020">
        <ele>1072.3</ele>
        <time>2022-08-27T16:00:13Z</time>
      </trkpt>
      <trkpt lat="42.2805800" lon="-8.2723120">
        <ele>1071.7</ele>
        <time>2022-08-27T16:00:14Z</time>
      </trkpt>
      <trkpt lat="42.2806440" lon="-8.2723210">
        <ele>1071.0</ele>
        <time>2022-08-27T16:00:15Z</time>
      </trkpt>
      <trkpt lat="42.2807170" lon="-8.2723410">
        <ele>1070.2</ele>
        <time>2022-08-27T16:00:16Z</time>
      </trkpt>
      <trkpt lat="42.2807810" lon="-8.2723750">
        <ele>1069.5</ele>
        <time>2022-08-27T16:00:17Z</time>
      </trkpt>
      <trkpt lat="42.2808460" lon="-8.2724210">
        <ele>1068.7</ele>
        <time>2022-08-27T16:00:18Z</time>
      </trkpt>
      <trkpt lat="42.2809030" lon="-8.2724850">
        <ele>1068.0</ele>
        <time>2022-08-27T16:00:19Z</time>
      </trkpt>
      <trkpt lat="42.2809460" lon="-8.2725580">
        <ele>1067.2</ele>
        <time>2022-08-27T16:00:20Z</time>
      </trkpt>
      <trkpt lat="42.2809810" lon="-8.2726260">
        <ele>1066.4</ele>
        <time>2022-08-27T16:00:21Z</time>
      </trkpt>
      <trkpt lat="42.2810190" lon="-8.2727050">
        <ele>1065.6</ele>
        <time>2022-08-27T16:00:22Z</time>
      </trkpt>
      <trkpt lat="42.2810650" lon="-8.2727900">
        <ele>1064.9</ele>
        <time>2022-08-27T16:00:23Z</time>
      </trkpt>
      <trkpt lat="42.2811120" lon="-8.2728810">
        <ele>1064.2</ele>
        <time>2022-08-27T16:00:24Z</time>
      </trkpt>
      <trkpt lat="42.2811780" lon="-8.2729600">
        <ele>1063.7</ele>
        <time>2022-08-27T16:00:25Z</time>
      </trkpt>
      <trkpt lat="42.2812590" lon="-8.2730220">
        <ele>1063.3</ele>
        <time>2022-08-27T16:00:26Z</time>
      </trkpt>
      <trkpt lat="42.2813460" lon="-8.2730540">
        <ele>1063.1</ele>
        <time>2022-08-27T16:00:27Z</time>
      </trkpt>
      <trkpt lat="42.2814320" lon="-8.2730620">
        <ele>1063.1</ele>
        <time>2022-08-27T16:00:28Z</time>
      </trkpt>
      <trkpt lat="42.2815070" lon="-8.2730470">
        <ele>1063.2</ele>
        <time>2022-08-27T16:00:29Z</time>
      </trkpt>
      <trkpt lat="42.2815670" lon="-8.2730220">
        <ele>1063.4</ele>
        <time>2022-08-27T16:00:30Z</time>
      </trkpt>
      <trkpt lat="42.2816170" lon="-8.2730030">
        <ele>1063.6</ele>
        <time>2022-08-27T16:00:31Z</time>
      </trkpt>
      <trkpt lat="42.2816610" lon="-8.2729890">
        <ele>1063.8</ele>
        <time>2022-08-27T16:00:32Z</time>
      </trkpt>
      <trkpt lat="42.2816870" lon="-8.2729790">
        <ele>1064.0</ele>
        <time>2022-08-27T16:00:33Z</time>
      </trkpt>
      <trkpt lat="42.2817180" lon="-8.2729770">
        <ele>1064.2</ele>
        <time>2022-08-27T16:00:34Z</time>
      </trkpt>
      <trkpt lat="42.2817280" lon="-8.2729790">
        <ele>1064.2</ele>
        <time>2022-08-27T16:00:35Z</time>
      </trkpt>
      <trkpt lat="42.2817440" lon="-8.2729790">
        <ele>1064.3</ele>
        <time>2022-08-27T16:00:36Z</time>
      </trkpt>
      <trkpt lat="42.2817570" lon="-8.2729780">
        <ele>1064.4</ele>
        <time>2022-08-27T16:00:37Z</time>
      </trkpt>
      <trkpt lat="42.2817830" lon="-8.2729820">
        <ele>1064.5</ele>
        <time>2022-08-27T16:00:38Z</time>
      </trkpt>
      <trkpt lat="42.2817960" lon="-8.2729850">
        <ele>1064.6</ele>
        <time>2022-08-27T16:00:39Z</time>
      </trkpt>
      <trkpt lat="42.2818240" lon="-8.2729950">
        <ele>1064.8</ele>
        <time>2022-08-27T16:00:40Z</time>
      </trkpt>
      <trkpt lat="42.2818390" lon="-8.2729990">
        <ele>1064.9</ele>
        <time>2022-08-27T16:00:41Z</time>
      </trkpt>
      <trkpt lat="42.2818860" lon="-8.2730000">
        <ele>1065.2</ele>
        <time>2022-08-27T16:00:43Z</time>
      </trkpt>
      <trkpt lat="42.2819020" lon="-8.2730010">
        <ele>1065.4</ele>
        <time>2022-08-27T16:00:44Z</time>
      </trkpt>
      <trkpt lat="42.2819180" lon="-8.2730010">
        <ele>1065.5</ele>
        <time>2022-08-27T16:00:45Z</time>
      </trkpt>
      <trkpt lat="42.2819350" lon="-8.2730060">
        <ele>1065.6</ele>
        <time>2022-08-27T16:00:46Z</time>
      </trkpt>
      <trkpt lat="42.2819700" lon="-8.2730140">
        <ele>1065.8</ele>
        <time>2022-08-27T16:00:48Z</time>
      </trkpt>
      <trkpt lat="42.2820010" lon="-8.2730260">
        <ele>1066.1</ele>
        <time>2022-08-27T16:00:49Z</time>
      </trkpt>
      <trkpt lat="42.2820130" lon="-8.2730290">
        <ele>1066.1</ele>
        <time>2022-08-27T16:00:50Z</time>
      </trkpt>
      <trkpt lat="42.2820400" lon="-8.2730360">
        <ele>1066.3</ele>
        <time>2022-08-27T16:00:51Z</time>
      </trkpt>
      <trkpt lat="42.2820750" lon="-8.2730480">
        <ele>1066.3</ele>
        <time>2022-08-27T16:00:53Z</time>
      </trkpt>
      <trkpt lat="42.2821070" lon="-8.2730570">
        <ele>1066.4</ele>
        <time>2022-08-27T16:00:54Z</time>
      </trkpt>
      <trkpt lat="42.2821350" lon="-8.2730800">
        <ele>1066.4</ele>
        <time>2022-08-27T16:00:55Z</time>
      </trkpt>
      <trkpt lat="42.2821620" lon="-8.2731030">
        <ele>1066.4</ele>
        <time>2022-08-27T16:00:57Z</time>
      </trkpt>
      <trkpt lat="42.2821970" lon="-8.2731410">
        <ele>1066.2</ele>
        <time>2022-08-27T16:00:58Z</time>
      </trkpt>
      <trkpt lat="42.2822220" lon="-8.2731700">
        <ele>1066.1</ele>
        <time>2022-08-27T16:00:59Z</time>
      </trkpt>
      <trkpt lat="42.2822620" lon="-8.2732290">
        <ele>1065.6</ele>
        <time>2022-08-27T16:01:00Z</time>
      </trkpt>
      <trkpt lat="42.2823090" lon="-8.2732830">
        <ele>1065.0</ele>
        <time>2022-08-27T16:01:01Z</time>
      </trkpt>
      <trkpt lat="42.2823740" lon="-8.2733460">
        <ele>1064.0</ele>
        <time>2022-08-27T16:01:02Z</time>
      </trkpt>
      <trkpt lat="42.2824520" lon="-8.2734090">
        <ele>1062.4</ele>
        <time>2022-08-27T16:01:03Z</time>
      </trkpt>
      <trkpt lat="42.2825320" lon="-8.2734780">
        <ele>1060.6</ele>
        <time>2022-08-27T16:01:04Z</time>
      </trkpt>
      <trkpt lat="42.2826090" lon="-8.2735460">
        <ele>1059.0</ele>
        <time>2022-08-27T16:01:05Z</time>
      </trkpt>
      <trkpt lat="42.2826810" lon="-8.2736130">
        <ele>1057.5</ele>
        <time>2022-08-27T16:01:06Z</time>
      </trkpt>
      <trkpt lat="42.2827540" lon="-8.2736790">
        <ele>1055.9</ele>
        <time>2022-08-27T16:01:07Z</time>
      </trkpt>
      <trkpt lat="42.2828230" lon="-8.2737420">
        <ele>1054.5</ele>
        <time>2022-08-27T16:01:08Z</time>
      </trkpt>
      <trkpt lat="42.2828870" lon="-8.2738030">
        <ele>1053.3</ele>
        <time>2022-08-27T16:01:09Z</time>
      </trkpt>
      <trkpt lat="42.2829460" lon="-8.2738710">
        <ele>1052.2</ele>
        <time>2022-08-27T16:01:10Z</time>
      </trkpt>
      <trkpt lat="42.2830040" lon="-8.2739290">
        <ele>1051.5</ele>
        <time>2022-08-27T16:01:11Z</time>
      </trkpt>
      <trkpt lat="42.2830680" lon="-8.2739850">
        <ele>1050.8</ele>
        <time>2022-08-27T16:01:12Z</time>
      </trkpt>
      <trkpt lat="42.2831300" lon="-8.2740410">
        <ele>1050.1</ele>
        <time>2022-08-27T16:01:13Z</time>
      </trkpt>
      <trkpt lat="42.2831930" lon="-8.2740990">
        <ele>1049.4</ele>
        <time>2022-08-27T16:01:14Z</time>
      </trkpt>
      <trkpt lat="42.2832480" lon="-8.2741550">
        <ele>1048.8</ele>
        <time>2022-08-27T16:01:15Z</time>
      </trkpt>
      <trkpt lat="42.2833040" lon="-8.2742060">
        <ele>1048.2</ele>
        <time>2022-08-27T16:01:16Z</time>
      </trkpt>
      <trkpt lat="42.2833670" lon="-8.2742520">
        <ele>1047.6</ele>
        <time>2022-08-27T16:01:17Z</time>
      </trkpt>
      <trkpt lat="42.2834250" lon="-8.2743070">
        <ele>1047.1</ele>
        <time>2022-08-27T16:01:18Z</time>
      </trkpt>
      <trkpt lat="42.2834820" lon="-8.2743620">
        <ele>1046.6</ele>
        <time>2022-08-27T16:01:19Z</time>
      </trkpt>
      <trkpt lat="42.2835330" lon="-8.2744140">
        <ele>1046.3</ele>
        <time>2022-08-27T16:01:20Z</time>
      </trkpt>
      <trkpt lat="42.2835820" lon="-8.2744650">
        <ele>1046.1</ele>
        <time>2022-08-27T16:01:21Z</time>
      </trkpt>
      <trkpt lat="42.2836210" lon="-8.2745220">
        <ele>1045.8</ele>
        <time>2022-08-27T16:01:22Z</time>
      </trkpt>
      <trkpt lat="42.2836500" lon="-8.2745850">
        <ele>1045.6</ele>
        <time>2022-08-27T16:01:23Z</time>
      </trkpt>
      <trkpt lat="42.2836810" lon="-8.2746480">
        <ele>1045.4</ele>
        <time>2022-08-27T16:01:24Z</time>
      </trkpt>
      <trkpt lat="42.2837190" lon="-8.2747000">
        <ele>1045.1</ele>
        <time>2022-08-27T16:01:25Z</time>
      </trkpt>
      <trkpt lat="42.2837600" lon="-8.2747510">
        <ele>1044.7</ele>
        <time>2022-08-27T16:01:26Z</time>
      </trkpt>
      <trkpt lat="42.2837930" lon="-8.2747980">
        <ele>1044.4</ele>
        <time>2022-08-27T16:01:27Z</time>
      </trkpt>
      <trkpt lat="42.2838330" lon="-8.2748540">
        <ele>1044.0</ele>
        <time>2022-08-27T16:01:28Z</time>
      </trkpt>
      <trkpt lat="42.2838780" lon="-8.2749160">
        <ele>1043.5</ele>
        <time>2022-08-27T16:01:29Z</time>
      </trkpt>
      <trkpt lat="42.2839250" lon="-8.2749800">
        <ele>1042.9</ele>
        <time>2022-08-27T16:01:30Z</time>
      </trkpt>
      <trkpt lat="42.2839730" lon="-8.2750500">
        <ele>1042.2</ele>
        <time>2022-08-27T16:01:31Z</time>
      </trkpt>
      <trkpt lat="42.2840230" lon="-8.2751280">
        <ele>1041.6</ele>
        <time>2022-08-27T16:01:32Z</time>
      </trkpt>
      <trkpt lat="42.2840710" lon="-8.2752120">
        <ele>1040.9</ele>
        <time>2022-08-27T16:01:33Z</time>
      </trkpt>
      <trkpt lat="42.2841110" lon="-8.2752950">
        <ele>1040.2</ele>
        <time>2022-08-27T16:01:34Z</time>
      </trkpt>
      <trkpt lat="42.2841530" lon="-8.2753700">
        <ele>1039.5</ele>
        <time>2022-08-27T16:01:35Z</time>
      </trkpt>
      <trkpt lat="42.2841970" lon="-8.2754350">
        <ele>1038.9</ele>
        <time>2022-08-27T16:01:36Z</time>
      </trkpt>
      <trkpt lat="42.2842360" lon="-8.2754990">
        <ele>1038.3</ele>
        <time>2022-08-27T16:01:37Z</time>
      </trkpt>
      <trkpt lat="42.2842800" lon="-8.2755590">
        <ele>1037.7</ele>
        <time>2022-08-27T16:01:38Z</time>
      </trkpt>
      <trkpt lat="42.2843270" lon="-8.2756140">
        <ele>1037.0</ele>
        <time>2022-08-27T16:01:39Z</time>
      </trkpt>
      <trkpt lat="42.2843750" lon="-8.2756720">
        <ele>1036.4</ele>
        <time>2022-08-27T16:01:40Z</time>
      </trkpt>
      <trkpt lat="42.2844150" lon="-8.2757250">
        <ele>1035.8</ele>
        <time>2022-08-27T16:01:41Z</time>
      </trkpt>
      <trkpt lat="42.2844580" lon="-8.2757690">
        <ele>1035.3</ele>
        <time>2022-08-27T16:01:42Z</time>
      </trkpt>
      <trkpt lat="42.2845100" lon="-8.2758150">
        <ele>1034.8</ele>
        <time>2022-08-27T16:01:43Z</time>
      </trkpt>
      <trkpt lat="42.2845660" lon="-8.2758530">
        <ele>1034.2</ele>
        <time>2022-08-27T16:01:44Z</time>
      </trkpt>
      <trkpt lat="42.2846230" lon="-8.2758730">
        <ele>1033.8</ele>
        <time>2022-08-27T16:01:45Z</time>
      </trkpt>
      <trkpt lat="42.2846870" lon="-8.2758840">
        <ele>1033.5</ele>
        <time>2022-08-27T16:01:46Z</time>
      </trkpt>
      <trkpt lat="42.2847440" lon="-8.2758740">
        <ele>1033.3</ele>
        <time>2022-08-27T16:01:47Z</time>
      </trkpt>
      <trkpt lat="42.2848000" lon="-8.2758410">
        <ele>1033.1</ele>
        <time>2022-08-27T16:01:48Z</time>
      </trkpt>
      <trkpt lat="42.2848510" lon="-8.2757940">
        <ele>1032.6</ele>
        <time>2022-08-27T16:01:49Z</time>
      </trkpt>
      <trkpt lat="42.2848890" lon="-8.2757270">
        <ele>1032.1</ele>
        <time>2022-08-27T16:01:50Z</time>
      </trkpt>
      <trkpt lat="42.2849230" lon="-8.2756540">
        <ele>1031.6</ele>
        <time>2022-08-27T16:01:51Z</time>
      </trkpt>
      <trkpt lat="42.2849360" lon="-8.2755780">
        <ele>1031.1</ele>
        <time>2022-08-27T16:01:52Z</time>
      </trkpt>
      <trkpt lat="42.2849440" lon="-8.2755010">
        <ele>1030.7</ele>
        <time>2022-08-27T16:01:53Z</time>
      </trkpt>
      <trkpt lat="42.2849480" lon="-8.2754250">
        <ele>1030.2</ele>
        <time>2022-08-27T16:01:54Z</time>
      </trkpt>
      <trkpt lat="42.2849520" lon="-8.2753590">
        <ele>1029.9</ele>
        <time>2022-08-27T16:01:55Z</time>
      </trkpt>
      <trkpt lat="42.2849540" lon="-8.2752930">
        <ele>1029.5</ele>
        <time>2022-08-27T16:01:56Z</time>
      </trkpt>
      <trkpt lat="42.2849550" lon="-8.2752190">
        <ele>1029.1</ele>
        <time>2022-08-27T16:01:57Z</time>
      </trkpt>
      <trkpt lat="42.2849510" lon="-8.2751390">
        <ele>1028.7</ele>
        <time>2022-08-27T16:01:58Z</time>
      </trkpt>
      <trkpt lat="42.2849370" lon="-8.2750630">
        <ele>1028.2</ele>
        <time>2022-08-27T16:01:59Z</time>
      </trkpt>
      <trkpt lat="42.2849170" lon="-8.2749920">
        <ele>1027.8</ele>
        <time>2022-08-27T16:02:00Z</time>
      </trkpt>
      <trkpt lat="42.2848910" lon="-8.2749240">
        <ele>1027.2</ele>
        <time>2022-08-27T16:02:01Z</time>
      </trkpt>
      <trkpt lat="42.2848640" lon="-8.2748400">
        <ele>1026.5</ele>
        <time>2022-08-27T16:02:02Z</time>
      </trkpt>
      <trkpt lat="42.2848360" lon="-8.2747400">
        <ele>1025.7</ele>
        <time>2022-08-27T16:02:03Z</time>
      </trkpt>
      <trkpt lat="42.2848120" lon="-8.2746340">
        <ele>1024.8</ele>
        <time>2022-08-27T16:02:04Z</time>
      </trkpt>
      <trkpt lat="42.2847870" lon="-8.2745240">
        <ele>1023.9</ele>
        <time>2022-08-27T16:02:05Z</time>
      </trkpt>
      <trkpt lat="42.2847640" lon="-8.2744220">
        <ele>1023.1</ele>
        <time>2022-08-27T16:02:06Z</time>
      </trkpt>
      <trkpt lat="42.2847430" lon="-8.2743080">
        <ele>1022.2</ele>
        <time>2022-08-27T16:02:07Z</time>
      </trkpt>
      <trkpt lat="42.2847220" lon="-8.2742030">
        <ele>1021.4</ele>
        <time>2022-08-27T16:02:08Z</time>
      </trkpt>
      <trkpt lat="42.2847020" lon="-8.2741070">
        <ele>1020.7</ele>
        <time>2022-08-27T16:02:09Z</time>
      </trkpt>
      <trkpt lat="42.2846840" lon="-8.2740150">
        <ele>1020.0</ele>
        <time>2022-08-27T16:02:10Z</time>
      </trkpt>
      <trkpt lat="42.2846660" lon="-8.2739270">
        <ele>1019.3</ele>
        <time>2022-08-27T16:02:11Z</time>
      </trkpt>
      <trkpt lat="42.2846500" lon="-8.2738530">
        <ele>1018.7</ele>
        <time>2022-08-27T16:02:12Z</time>
      </trkpt>
      <trkpt lat="42.2846310" lon="-8.2737720">
        <ele>1018.1</ele>
        <time>2022-08-27T16:02:13Z</time>
      </trkpt>
      <trkpt lat="42.2846190" lon="-8.2736960">
        <ele>1017.5</ele>
        <time>2022-08-27T16:02:14Z</time>
      </trkpt>
      <trkpt lat="42.2846030" lon="-8.2736230">
        <ele>1016.9</ele>
        <time>2022-08-27T16:02:15Z</time>
      </trkpt>
      <trkpt lat="42.2845890" lon="-8.2735600">
        <ele>1016.3</ele>
        <time>2022-08-27T16:02:16Z</time>
      </trkpt>
      <trkpt lat="42.2845750" lon="-8.2735010">
        <ele>1015.8</ele>
        <time>2022-08-27T16:02:17Z</time>
      </trkpt>
      <trkpt lat="42.2845640" lon="-8.2734420">
        <ele>1015.3</ele>
        <time>2022-08-27T16:02:18Z</time>
      </trkpt>
      <trkpt lat="42.2845600" lon="-8.2734130">
        <ele>1015.0</ele>
        <time>2022-08-27T16:02:19Z</time>
      </trkpt>
      <trkpt lat="42.2845570" lon="-8.2733470">
        <ele>1014.3</ele>
        <time>2022-08-27T16:02:20Z</time>
      </trkpt>
      <trkpt lat="42.2845350" lon="-8.2732940">
        <ele>1013.6</ele>
        <time>2022-08-27T16:02:21Z</time>
      </trkpt>
      <trkpt lat="42.2844980" lon="-8.2732340">
        <ele>1012.7</ele>
        <time>2022-08-27T16:02:22Z</time>
      </trkpt>
      <trkpt lat="42.2844530" lon="-8.2731690">
        <ele>1011.7</ele>
        <time>2022-08-27T16:02:23Z</time>
      </trkpt>
      <trkpt lat="42.2843930" lon="-8.2731030">
        <ele>1010.4</ele>
        <time>2022-08-27T16:02:24Z</time>
      </trkpt>
      <trkpt lat="42.2843230" lon="-8.2730370">
        <ele>1009.1</ele>
        <time>2022-08-27T16:02:25Z</time>
      </trkpt>
      <trkpt lat="42.2842480" lon="-8.2729620">
        <ele>1007.7</ele>
        <time>2022-08-27T16:02:26Z</time>
      </trkpt>
      <trkpt lat="42.2841680" lon="-8.2728880">
        <ele>1006.5</ele>
        <time>2022-08-27T16:02:27Z</time>
      </trkpt>
      <trkpt lat="42.2840950" lon="-8.2728150">
        <ele>1005.5</ele>
        <time>2022-08-27T16:02:28Z</time>
      </trkpt>
      <trkpt lat="42.2840210" lon="-8.2727340">
        <ele>1004.5</ele>
        <time>2022-08-27T16:02:29Z</time>
      </trkpt>
      <trkpt lat="42.2839510" lon="-8.2726510">
        <ele>1003.5</ele>
        <time>2022-08-27T16:02:30Z</time>
      </trkpt>
      <trkpt lat="42.2838780" lon="-8.2725590">
        <ele>1002.7</ele>
        <time>2022-08-27T16:02:31Z</time>
      </trkpt>
      <trkpt lat="42.2838100" lon="-8.2724720">
        <ele>1002.1</ele>
        <time>2022-08-27T16:02:32Z</time>
      </trkpt>
      <trkpt lat="42.2837400" lon="-8.2723680">
        <ele>1001.5</ele>
        <time>2022-08-27T16:02:33Z</time>
      </trkpt>
      <trkpt lat="42.2836790" lon="-8.2722690">
        <ele>1001.0</ele>
        <time>2022-08-27T16:02:34Z</time>
      </trkpt>
      <trkpt lat="42.2836240" lon="-8.2721780">
        <ele>1000.6</ele>
        <time>2022-08-27T16:02:35Z</time>
      </trkpt>
      <trkpt lat="42.2835740" lon="-8.2720890">
        <ele>1000.3</ele>
        <time>2022-08-27T16:02:36Z</time>
      </trkpt>
      <trkpt lat="42.2835650" lon="-8.2720090">
        <ele>1000.0</ele>
        <time>2022-08-27T16:02:37Z</time>
      </trkpt>
      <trkpt lat="42.2835600" lon="-8.2719140">
        <ele>999.6</ele>
        <time>2022-08-27T16:02:38Z</time>
      </trkpt>
      <trkpt lat="42.2835410" lon="-8.2718030">
        <ele>999.1</ele>
        <time>2022-08-27T16:02:39Z</time>
      </trkpt>
      <trkpt lat="42.2835100" lon="-8.2716900">
        <ele>998.5</ele>
        <time>2022-08-27T16:02:40Z</time>
      </trkpt>
      <trkpt lat="42.2834840" lon="-8.2715660">
        <ele>997.7</ele>
        <time>2022-08-27T16:02:41Z</time>
      </trkpt>
      <trkpt lat="42.2834620" lon="-8.2714400">
        <ele>996.9</ele>
        <time>2022-08-27T16:02:42Z</time>
      </trkpt>
      <trkpt lat="42.2834500" lon="-8.2712950">
        <ele>996.2</ele>
        <time>2022-08-27T16:02:43Z</time>
      </trkpt>
      <trkpt lat="42.2834480" lon="-8.2711380">
        <ele>995.4</ele>
        <time>2022-08-27T16:02:44Z</time>
      </trkpt>
      <trkpt lat="42.2834420" lon="-8.2709840">
        <ele>994.7</ele>
        <time>2022-08-27T16:02:45Z</time>
      </trkpt>
      <trkpt lat="42.2834180" lon="-8.2708440">
        <ele>994.2</ele>
        <time>2022-08-27T16:02:46Z</time>
      </trkpt>
      <trkpt lat="42.2833830" lon="-8.2707190">
        <ele>993.9</ele>
        <time>2022-08-27T16:02:47Z</time>
      </trkpt>
      <trkpt lat="42.2833440" lon="-8.2706100">
        <ele>993.7</ele>
        <time>2022-08-27T16:02:48Z</time>
      </trkpt>
      <trkpt lat="42.2832890" lon="-8.2704990">
        <ele>993.7</ele>
        <time>2022-08-27T16:02:49Z</time>
      </trkpt>
      <trkpt lat="42.2832360" lon="-8.2704040">
        <ele>993.8</ele>
        <time>2022-08-27T16:02:50Z</time>
      </trkpt>
      <trkpt lat="42.2831850" lon="-8.2703220">
        <ele>994.1</ele>
        <time>2022-08-27T16:02:51Z</time>
      </trkpt>
      <trkpt lat="42.2831420" lon="-8.2702520">
        <ele>994.6</ele>
        <time>2022-08-27T16:02:52Z</time>
      </trkpt>
      <trkpt lat="42.2831100" lon="-8.2701860">
        <ele>995.1</ele>
        <time>2022-08-27T16:02:53Z</time>
      </trkpt>
      <trkpt lat="42.2830880" lon="-8.2701300">
        <ele>995.5</ele>
        <time>2022-08-27T16:02:54Z</time>
      </trkpt>
      <trkpt lat="42.2830750" lon="-8.2700800">
        <ele>995.8</ele>
        <time>2022-08-27T16:02:55Z</time>
      </trkpt>
      <trkpt lat="42.2830690" lon="-8.2700210">
        <ele>996.2</ele>
        <time>2022-08-27T16:02:56Z</time>
      </trkpt>
      <trkpt lat="42.2830690" lon="-8.2699980">
        <ele>996.3</ele>
        <time>2022-08-27T16:02:57Z</time>
      </trkpt>
      <trkpt lat="42.2830710" lon="-8.2699600">
        <ele>996.6</ele>
        <time>2022-08-27T16:02:58Z</time>
      </trkpt>
      <trkpt lat="42.2830680" lon="-8.2699100">
        <ele>996.9</ele>
        <time>2022-08-27T16:02:59Z</time>
      </trkpt>
      <trkpt lat="42.2830640" lon="-8.2698670">
        <ele>997.2</ele>
        <time>2022-08-27T16:03:00Z</time>
      </trkpt>
      <trkpt lat="42.2830750" lon="-8.2698120">
        <ele>997.6</ele>
        <time>2022-08-27T16:03:01Z</time>
      </trkpt>
      <trkpt lat="42.2830830" lon="-8.2697890">
        <ele>997.7</ele>
        <time>2022-08-27T16:03:02Z</time>
      </trkpt>
      <trkpt lat="42.2831090" lon="-8.2697550">
        <ele>998.0</ele>
        <time>2022-08-27T16:03:03Z</time>
      </trkpt>
      <trkpt lat="42.2831180" lon="-8.2697470">
        <ele>998.1</ele>
        <time>2022-08-27T16:03:04Z</time>
      </trkpt>
      <trkpt lat="42.2831470" lon="-8.2697360">
        <ele>998.4</ele>
        <time>2022-08-27T16:03:05Z</time>
      </trkpt>
      <trkpt lat="42.2831770" lon="-8.2697290">
        <ele>998.6</ele>
        <time>2022-08-27T16:03:06Z</time>
      </trkpt>
      <trkpt lat="42.2832170" lon="-8.2697220">
        <ele>998.9</ele>
        <time>2022-08-27T16:03:07Z</time>
      </trkpt>
      <trkpt lat="42.2832300" lon="-8.2697190">
        <ele>999.0</ele>
        <time>2022-08-27T16:03:08Z</time>
      </trkpt>
      <trkpt lat="42.2832610" lon="-8.2697130">
        <ele>999.2</ele>
        <time>2022-08-27T16:03:09Z</time>
      </trkpt>
      <trkpt lat="42.2832930" lon="-8.2697070">
        <ele>999.4</ele>
        <time>2022-08-27T16:03:10Z</time>
      </trkpt>
      <trkpt lat="42.2833190" lon="-8.2697030">
        <ele>999.5</ele>
        <time>2022-08-27T16:03:11Z</time>
      </trkpt>
      <trkpt lat="42.2833520" lon="-8.2697000">
        <ele>999.7</ele>
        <time>2022-08-27T16:03:12Z</time>
      </trkpt>
      <trkpt lat="42.2833810" lon="-8.2696980">
        <ele>999.8</ele>
        <time>2022-08-27T16:03:13Z</time>
      </trkpt>
      <trkpt lat="42.2834120" lon="-8.2696970">
        <ele>1000.0</ele>
        <time>2022-08-27T16:03:14Z</time>
      </trkpt>
      <trkpt lat="42.2834510" lon="-8.2696960">
        <ele>1000.1</ele>
        <time>2022-08-27T16:03:15Z</time>
      </trkpt>
      <trkpt lat="42.2834660" lon="-8.2696960">
        <ele>1000.2</ele>
        <time>2022-08-27T16:03:16Z</time>
      </trkpt>
      <trkpt lat="42.2834950" lon="-8.2696990">
        <ele>1000.3</ele>
        <time>2022-08-27T16:03:17Z</time>
      </trkpt>
      <trkpt lat="42.2835270" lon="-8.2697040">
        <ele>1000.4</ele>
        <time>2022-08-27T16:03:18Z</time>
      </trkpt>
      <trkpt lat="42.2835640" lon="-8.2697060">
        <ele>1000.6</ele>
        <time>2022-08-27T16:03:19Z</time>
      </trkpt>
      <trkpt lat="42.2835770" lon="-8.2697060">
        <ele>1000.7</ele>
        <time>2022-08-27T16:03:20Z</time>
      </trkpt>
      <trkpt lat="42.2836050" lon="-8.2697020">
        <ele>1000.8</ele>
        <time>2022-08-27T16:03:21Z</time>
      </trkpt>
      <trkpt lat="42.2836300" lon="-8.2696960">
        <ele>1000.9</ele>
        <time>2022-08-27T16:03:22Z</time>
      </trkpt>
      <trkpt lat="42.2836400" lon="-8.2696930">
        <ele>1001.0</ele>
        <time>2022-08-27T16:03:23Z</time>
      </trkpt>
      <trkpt lat="42.2836540" lon="-8.2696900">
        <ele>1001.1</ele>
        <time>2022-08-27T16:03:24Z</time>
      </trkpt>
      <trkpt lat="42.2836710" lon="-8.2696890">
        <ele>1001.2</ele>
        <time>2022-08-27T16:03:25Z</time>
      </trkpt>
      <trkpt lat="42.2836910" lon="-8.2696870">
        <ele>1001.3</ele>
        <time>2022-08-27T16:03:26Z</time>
      </trkpt>
      <trkpt lat="42.2836990" lon="-8.2696850">
        <ele>1001.4</ele>
        <time>2022-08-27T16:03:27Z</time>
      </trkpt>
      <trkpt lat="42.2837070" lon="-8.2696840">
        <ele>1001.5</ele>
        <time>2022-08-27T16:03:28Z</time>
      </trkpt>
      <trkpt lat="42.2837220" lon="-8.2696810">
        <ele>1001.6</ele>
        <time>2022-08-27T16:03:29Z</time>
      </trkpt>
      <trkpt lat="42.2837420" lon="-8.2696790">
        <ele>1001.7</ele>
        <time>2022-08-27T16:03:30Z</time>
      </trkpt>
      <trkpt lat="42.2837520" lon="-8.2696770">
        <ele>1001.8</ele>
        <time>2022-08-27T16:03:31Z</time>
      </trkpt>
      <trkpt lat="42.2837640" lon="-8.2696790">
        <ele>1001.9</ele>
        <time>2022-08-27T16:03:32Z</time>
      </trkpt>
      <trkpt lat="42.2837750" lon="-8.2696810">
        <ele>1002.0</ele>
        <time>2022-08-27T16:03:33Z</time>
      </trkpt>
      <trkpt lat="42.2837970" lon="-8.2696770">
        <ele>1002.2</ele>
        <time>2022-08-27T16:03:34Z</time>
      </trkpt>
      <trkpt lat="42.2838040" lon="-8.2696740">
        <ele>1002.3</ele>
        <time>2022-08-27T16:03:35Z</time>
      </trkpt>
      <trkpt lat="42.2838110" lon="-8.2696720">
        <ele>1002.4</ele>
        <time>2022-08-27T16:03:36Z</time>
      </trkpt>
      <trkpt lat="42.2838310" lon="-8.2696690">
        <ele>1002.6</ele>
        <time>2022-08-27T16:03:37Z</time>
      </trkpt>
      <trkpt lat="42.2838400" lon="-8.2696680">
        <ele>1002.7</ele>
        <time>2022-08-27T16:03:38Z</time>
      </trkpt>
      <trkpt lat="42.2838480" lon="-8.2696680">
        <ele>1002.8</ele>
        <time>2022-08-27T16:03:39Z</time>
      </trkpt>
      <trkpt lat="42.2838600" lon="-8.2696670">
        <ele>1002.9</ele>
        <time>2022-08-27T16:03:40Z</time>
      </trkpt>
      <trkpt lat="42.2838690" lon="-8.2696650">
        <ele>1003.0</ele>
        <time>2022-08-27T16:03:41Z</time>
      </trkpt>
      <trkpt lat="42.2838830" lon="-8.2696620">
        <ele>1003.2</ele>
        <time>2022-08-27T16:03:42Z</time>
      </trkpt>
      <trkpt lat="42.2839090" lon="-8.2696520">
        <ele>1003.5</ele>
        <time>2022-08-27T16:03:43Z</time>
      </trkpt>
      <trkpt lat="42.2839210" lon="-8.2696470">
        <ele>1003.7</ele>
        <time>2022-08-27T16:03:44Z</time>
      </trkpt>
      <trkpt lat="42.2839390" lon="-8.2696430">
        <ele>1003.9</ele>
        <time>2022-08-27T16:03:45Z</time>
      </trkpt>
      <trkpt lat="42.2839550" lon="-8.2696440">
        <ele>1004.1</ele>
        <time>2022-08-27T16:03:47Z</time>
      </trkpt>
      <trkpt lat="42.2839710" lon="-8.2696530">
        <ele>1004.4</ele>
        <time>2022-08-27T16:03:48Z</time>
      </trkpt>
      <trkpt lat="42.2839890" lon="-8.2696580">
        <ele>1004.6</ele>
        <time>2022-08-27T16:03:49Z</time>
      </trkpt>
      <trkpt lat="42.2840110" lon="-8.2696570">
        <ele>1004.9</ele>
        <time>2022-08-27T16:03:50Z</time>
      </trkpt>
      <trkpt lat="42.2840180" lon="-8.2696570">
        <ele>1005.0</ele>
        <time>2022-08-27T16:03:51Z</time>
      </trkpt>
      <trkpt lat="42.2840260" lon="-8.2696580">
        <ele>1005.1</ele>
        <time>2022-08-27T16:03:52Z</time>
      </trkpt>
      <trkpt lat="42.2840390" lon="-8.2696560">
        <ele>1005.3</ele>
        <time>2022-08-27T16:03:53Z</time>
      </trkpt>
      <trkpt lat="42.2840480" lon="-8.2696540">
        <ele>1005.4</ele>
        <time>2022-08-27T16:03:54Z</time>
      </trkpt>
      <trkpt lat="42.2840570" lon="-8.2696500">
        <ele>1005.5</ele>
        <time>2022-08-27T16:03:55Z</time>
      </trkpt>
      <trkpt lat="42.2840690" lon="-8.2696440">
        <ele>1005.7</ele>
        <time>2022-08-27T16:03:56Z</time>
      </trkpt>
      <trkpt lat="42.2840940" lon="-8.2696370">
        <ele>1006.0</ele>
        <time>2022-08-27T16:03:58Z</time>
      </trkpt>
      <trkpt lat="42.2841110" lon="-8.2696330">
        <ele>1006.2</ele>
        <time>2022-08-27T16:03:59Z</time>
      </trkpt>
      <trkpt lat="42.2841210" lon="-8.2696260">
        <ele>1006.3</ele>
        <time>2022-08-27T16:04:00Z</time>
      </trkpt>
      <trkpt lat="42.2841340" lon="-8.2696190">
        <ele>1006.5</ele>
        <time>2022-08-27T16:04:01Z</time>
      </trkpt>
      <trkpt lat="42.2841600" lon="-8.2696140">
        <ele>1006.8</ele>
        <time>2022-08-27T16:04:03Z</time>
      </trkpt>
      <trkpt lat="42.2841790" lon="-8.2696110">
        <ele>1007.0</ele>
        <time>2022-08-27T16:04:04Z</time>
      </trkpt>
      <trkpt lat="42.2841930" lon="-8.2696110">
        <ele>1007.1</ele>
        <time>2022-08-27T16:04:05Z</time>
      </trkpt>
      <trkpt lat="42.2842140" lon="-8.2696040">
        <ele>1007.4</ele>
        <time>2022-08-27T16:04:06Z</time>
      </trkpt>
      <trkpt lat="42.2842220" lon="-8.2696020">
        <ele>1007.5</ele>
        <time>2022-08-27T16:04:07Z</time>
      </trkpt>
      <trkpt lat="42.2842310" lon="-8.2695990">
        <ele>1007.5</ele>
        <time>2022-08-27T16:04:08Z</time>
      </trkpt>
      <trkpt lat="42.2842460" lon="-8.2695960">
        <ele>1007.7</ele>
        <time>2022-08-27T16:04:09Z</time>
      </trkpt>
      <trkpt lat="42.2842790" lon="-8.2695970">
        <ele>1008.0</ele>
        <time>2022-08-27T16:04:11Z</time>
      </trkpt>
      <trkpt lat="42.2843100" lon="-8.2695920">
        <ele>1008.3</ele>
        <time>2022-08-27T16:04:12Z</time>
      </trkpt>
      <trkpt lat="42.2843180" lon="-8.2695920">
        <ele>1008.3</ele>
        <time>2022-08-27T16:04:13Z</time>
      </trkpt>
      <trkpt lat="42.2843460" lon="-8.2695900">
        <ele>1008.6</ele>
        <time>2022-08-27T16:04:14Z</time>
      </trkpt>
      <trkpt lat="42.2843570" lon="-8.2695910">
        <ele>1008.7</ele>
        <time>2022-08-27T16:04:15Z</time>
      </trkpt>
      <trkpt lat="42.2843890" lon="-8.2695900">
        <ele>1008.9</ele>
        <time>2022-08-27T16:04:16Z</time>
      </trkpt>
      <trkpt lat="42.2844000" lon="-8.2695890">
        <ele>1009.0</ele>
        <time>2022-08-27T16:04:17Z</time>
      </trkpt>
      <trkpt lat="42.2844270" lon="-8.2695840">
        <ele>1009.1</ele>
        <time>2022-08-27T16:04:18Z</time>
      </trkpt>
      <trkpt lat="42.2844380" lon="-8.2695810">
        <ele>1009.2</ele>
        <time>2022-08-27T16:04:19Z</time>
      </trkpt>
      <trkpt lat="42.2844670" lon="-8.2695710">
        <ele>1009.4</ele>
        <time>2022-08-27T16:04:20Z</time>
      </trkpt>
      <trkpt lat="42.2844770" lon="-8.2695680">
        <ele>1009.4</ele>
        <time>2022-08-27T16:04:21Z</time>
      </trkpt>
      <trkpt lat="42.2845070" lon="-8.2695600">
        <ele>1009.6</ele>
        <time>2022-08-27T16:04:22Z</time>
      </trkpt>
      <trkpt lat="42.2845180" lon="-8.2695570">
        <ele>1009.6</ele>
        <time>2022-08-27T16:04:23Z</time>
      </trkpt>
      <trkpt lat="42.2845530" lon="-8.2695520">
        <ele>1009.8</ele>
        <time>2022-08-27T16:04:24Z</time>
      </trkpt>
      <trkpt lat="42.2845620" lon="-8.2695510">
        <ele>1009.8</ele>
        <time>2022-08-27T16:04:25Z</time>
      </trkpt>
      <trkpt lat="42.2846000" lon="-8.2695450">
        <ele>1009.9</ele>
        <time>2022-08-27T16:04:26Z</time>
      </trkpt>
      <trkpt lat="42.2846130" lon="-8.2695430">
        <ele>1010.0</ele>
        <time>2022-08-27T16:04:27Z</time>
      </trkpt>
      <trkpt lat="42.2846450" lon="-8.2695350">
        <ele>1010.1</ele>
        <time>2022-08-27T16:04:28Z</time>
      </trkpt>
      <trkpt lat="42.2846560" lon="-8.2695310">
        <ele>1010.1</ele>
        <time>2022-08-27T16:04:29Z</time>
      </trkpt>
      <trkpt lat="42.2846930" lon="-8.2695200">
        <ele>1010.2</ele>
        <time>2022-08-27T16:04:30Z</time>
      </trkpt>
      <trkpt lat="42.2847050" lon="-8.2695160">
        <ele>1010.2</ele>
        <time>2022-08-27T16:04:31Z</time>
      </trkpt>
      <trkpt lat="42.2847330" lon="-8.2695110">
        <ele>1010.3</ele>
        <time>2022-08-27T16:04:32Z</time>
      </trkpt>
      <trkpt lat="42.2847710" lon="-8.2695070">
        <ele>1010.4</ele>
        <time>2022-08-27T16:04:33Z</time>
      </trkpt>
      <trkpt lat="42.2847850" lon="-8.2695060">
        <ele>1010.5</ele>
        <time>2022-08-27T16:04:34Z</time>
      </trkpt>
      <trkpt lat="42.2848180" lon="-8.2694970">
        <ele>1010.6</ele>
        <time>2022-08-27T16:04:35Z</time>
      </trkpt>
      <trkpt lat="42.2848300" lon="-8.2694930">
        <ele>1010.6</ele>
        <time>2022-08-27T16:04:36Z</time>
      </trkpt>
      <trkpt lat="42.2848650" lon="-8.2694890">
        <ele>1010.7</ele>
        <time>2022-08-27T16:04:37Z</time>
      </trkpt>
      <trkpt lat="42.2848760" lon="-8.2694880">
        <ele>1010.8</ele>
        <time>2022-08-27T16:04:38Z</time>
      </trkpt>
      <trkpt lat="42.2849060" lon="-8.2694850">
        <ele>1010.8</ele>
        <time>2022-08-27T16:04:39Z</time>
      </trkpt>
      <trkpt lat="42.2849170" lon="-8.2694830">
        <ele>1010.9</ele>
        <time>2022-08-27T16:04:40Z</time>
      </trkpt>
      <trkpt lat="42.2849510" lon="-8.2694760">
        <ele>1011.0</ele>
        <time>2022-08-27T16:04:41Z</time>
      </trkpt>
      <trkpt lat="42.2849620" lon="-8.2694730">
        <ele>1011.0</ele>
        <time>2022-08-27T16:04:42Z</time>
      </trkpt>
      <trkpt lat="42.2849990" lon="-8.2694640">
        <ele>1011.2</ele>
        <time>2022-08-27T16:04:43Z</time>
      </trkpt>
      <trkpt lat="42.2850110" lon="-8.2694610">
        <ele>1011.2</ele>
        <time>2022-08-27T16:04:44Z</time>
      </trkpt>
      <trkpt lat="42.2850400" lon="-8.2694520">
        <ele>1011.4</ele>
        <time>2022-08-27T16:04:45Z</time>
      </trkpt>
      <trkpt lat="42.2850520" lon="-8.2694480">
        <ele>1011.4</ele>
        <time>2022-08-27T16:04:46Z</time>
      </trkpt>
      <trkpt lat="42.2850810" lon="-8.2694360">
        <ele>1011.6</ele>
        <time>2022-08-27T16:04:47Z</time>
      </trkpt>
      <trkpt lat="42.2850900" lon="-8.2694320">
        <ele>1011.7</ele>
        <time>2022-08-27T16:04:48Z</time>
      </trkpt>
      <trkpt lat="42.2851090" lon="-8.2694230">
        <ele>1011.8</ele>
        <time>2022-08-27T16:04:49Z</time>
      </trkpt>
      <trkpt lat="42.2851200" lon="-8.2694190">
        <ele>1011.9</ele>
        <time>2022-08-27T16:04:50Z</time>
      </trkpt>
      <trkpt lat="42.2851330" lon="-8.2694130">
        <ele>1012.0</ele>
        <time>2022-08-27T16:04:51Z</time>
      </trkpt>
      <trkpt lat="42.2851440" lon="-8.2694090">
        <ele>1012.0</ele>
        <time>2022-08-27T16:04:52Z</time>
      </trkpt>
      <trkpt lat="42.2851540" lon="-8.2694060">
        <ele>1012.1</ele>
        <time>2022-08-27T16:04:53Z</time>
      </trkpt>
      <trkpt lat="42.2851700" lon="-8.2694010">
        <ele>1012.3</ele>
        <time>2022-08-27T16:04:54Z</time>
      </trkpt>
      <trkpt lat="42.2851810" lon="-8.2693970">
        <ele>1012.4</ele>
        <time>2022-08-27T16:04:55Z</time>
      </trkpt>
      <trkpt lat="42.2851940" lon="-8.2693920">
        <ele>1012.5</ele>
        <time>2022-08-27T16:04:56Z</time>
      </trkpt>
      <trkpt lat="42.2852040" lon="-8.2693880">
        <ele>1012.6</ele>
        <time>2022-08-27T16:04:57Z</time>
      </trkpt>
      <trkpt lat="42.2852120" lon="-8.2693850">
        <ele>1012.7</ele>
        <time>2022-08-27T16:04:58Z</time>
      </trkpt>
      <trkpt lat="42.2852240" lon="-8.2693820">
        <ele>1012.8</ele>
        <time>2022-08-27T16:04:59Z</time>
      </trkpt>
      <trkpt lat="42.2852300" lon="-8.2693790">
        <ele>1012.9</ele>
        <time>2022-08-27T16:05:00Z</time>
      </trkpt>
      <trkpt lat="42.2852370" lon="-8.2693770">
        <ele>1012.9</ele>
        <time>2022-08-27T16:05:01Z</time>
      </trkpt>
      <trkpt lat="42.2852450" lon="-8.2693740">
        <ele>1013.0</ele>
        <time>2022-08-27T16:05:02Z</time>
      </trkpt>
      <trkpt lat="42.2852530" lon="-8.2693710">
        <ele>1013.1</ele>
        <time>2022-08-27T16:05:03Z</time>
      </trkpt>
      <trkpt lat="42.2852620" lon="-8.2693670">
        <ele>1013.2</ele>
        <time>2022-08-27T16:05:04Z</time>
      </trkpt>
      <trkpt lat="42.2852740" lon="-8.2693620">
        <ele>1013.4</ele>
        <time>2022-08-27T16:05:05Z</time>
      </trkpt>
      <trkpt lat="42.2852950" lon="-8.2693520">
        <ele>1013.7</ele>
        <time>2022-08-27T16:05:06Z</time>
      </trkpt>
      <trkpt lat="42.2853020" lon="-8.2693480">
        <ele>1013.8</ele>
        <time>2022-08-27T16:05:07Z</time>
      </trkpt>
      <trkpt lat="42.2853100" lon="-8.2693430">
        <ele>1013.9</ele>
        <time>2022-08-27T16:05:08Z</time>
      </trkpt>
      <trkpt lat="42.2853290" lon="-8.2693360">
        <ele>1014.2</ele>
        <time>2022-08-27T16:05:09Z</time>
      </trkpt>
      <trkpt lat="42.2853400" lon="-8.2693290">
        <ele>1014.3</ele>
        <time>2022-08-27T16:05:10Z</time>
      </trkpt>
      <trkpt lat="42.2853490" lon="-8.2693190">
        <ele>1014.5</ele>
        <time>2022-08-27T16:05:11Z</time>
      </trkpt>
      <trkpt lat="42.2853580" lon="-8.2693120">
        <ele>1014.6</ele>
        <time>2022-08-27T16:05:13Z</time>
      </trkpt>
      <trkpt lat="42.2853690" lon="-8.2693060">
        <ele>1014.8</ele>
        <time>2022-08-27T16:05:14Z</time>
      </trkpt>
      <trkpt lat="42.2853870" lon="-8.2692910">
        <ele>1015.1</ele>
        <time>2022-08-27T16:05:15Z</time>
      </trkpt>
      <trkpt lat="42.2853950" lon="-8.2692830">
        <ele>1015.3</ele>
        <time>2022-08-27T16:05:16Z</time>
      </trkpt>
      <trkpt lat="42.2854030" lon="-8.2692740">
        <ele>1015.4</ele>
        <time>2022-08-27T16:05:17Z</time>
      </trkpt>
      <trkpt lat="42.2854110" lon="-8.2692680">
        <ele>1015.5</ele>
        <time>2022-08-27T16:05:18Z</time>
      </trkpt>
      <trkpt lat="42.2854230" lon="-8.2692620">
        <ele>1015.7</ele>
        <time>2022-08-27T16:05:19Z</time>
      </trkpt>
      <trkpt lat="42.2854390" lon="-8.2692570">
        <ele>1016.0</ele>
        <time>2022-08-27T16:05:21Z</time>
      </trkpt>
      <trkpt lat="42.2854550" lon="-8.2692540">
        <ele>1016.2</ele>
        <time>2022-08-27T16:05:22Z</time>
      </trkpt>
      <trkpt lat="42.2854730" lon="-8.2692520">
        <ele>1016.5</ele>
        <time>2022-08-27T16:05:23Z</time>
      </trkpt>
      <trkpt lat="42.2854950" lon="-8.2692480">
        <ele>1016.8</ele>
        <time>2022-08-27T16:05:25Z</time>
      </trkpt>
      <trkpt lat="42.2855070" lon="-8.2692490">
        <ele>1017.0</ele>
        <time>2022-08-27T16:05:26Z</time>
      </trkpt>
      <trkpt lat="42.2855250" lon="-8.2692490">
        <ele>1017.3</ele>
        <time>2022-08-27T16:05:28Z</time>
      </trkpt>
      <trkpt lat="42.2855390" lon="-8.2692430">
        <ele>1017.5</ele>
        <time>2022-08-27T16:05:29Z</time>
      </trkpt>
      <trkpt lat="42.2855540" lon="-8.2692360">
        <ele>1017.7</ele>
        <time>2022-08-27T16:05:30Z</time>
      </trkpt>
      <trkpt lat="42.2855670" lon="-8.2692310">
        <ele>1017.9</ele>
        <time>2022-08-27T16:05:31Z</time>
      </trkpt>
      <trkpt lat="42.2855830" lon="-8.2692230">
        <ele>1018.1</ele>
        <time>2022-08-27T16:05:32Z</time>
      </trkpt>
      <trkpt lat="42.2855930" lon="-8.2692190">
        <ele>1018.2</ele>
        <time>2022-08-27T16:05:33Z</time>
      </trkpt>
      <trkpt lat="42.2856090" lon="-8.2692130">
        <ele>1018.5</ele>
        <time>2022-08-27T16:05:34Z</time>
      </trkpt>
      <trkpt lat="42.2856310" lon="-8.2692010">
        <ele>1018.8</ele>
        <time>2022-08-27T16:05:36Z</time>
      </trkpt>
      <trkpt lat="42.2856460" lon="-8.2691920">
        <ele>1019.0</ele>
        <time>2022-08-27T16:05:37Z</time>
      </trkpt>
      <trkpt lat="42.2856570" lon="-8.2691870">
        <ele>1019.1</ele>
        <time>2022-08-27T16:05:38Z</time>
      </trkpt>
      <trkpt lat="42.2856720" lon="-8.2691750">
        <ele>1019.3</ele>
        <time>2022-08-27T16:05:40Z</time>
      </trkpt>
      <trkpt lat="42.2856800" lon="-8.2691660">
        <ele>1019.4</ele>
        <time>2022-08-27T16:05:41Z</time>
      </trkpt>
      <trkpt lat="42.2856860" lon="-8.2691590">
        <ele>1019.5</ele>
        <time>2022-08-27T16:05:42Z</time>
      </trkpt>
      <trkpt lat="42.2856920" lon="-8.2691500">
        <ele>1019.6</ele>
        <time>2022-08-27T16:05:43Z</time>
      </trkpt>
      <trkpt lat="42.2857000" lon="-8.2691390">
        <ele>1019.7</ele>
        <time>2022-08-27T16:05:44Z</time>
      </trkpt>
      <trkpt lat="42.2857170" lon="-8.2691210">
        <ele>1020.0</ele>
        <time>2022-08-27T16:05:45Z</time>
      </trkpt>
      <trkpt lat="42.2857240" lon="-8.2691140">
        <ele>1020.1</ele>
        <time>2022-08-27T16:05:46Z</time>
      </trkpt>
      <trkpt lat="42.2857310" lon="-8.2691060">
        <ele>1020.2</ele>
        <time>2022-08-27T16:05:47Z</time>
      </trkpt>
      <trkpt lat="42.2857510" lon="-8.2690940">
        <ele>1020.4</ele>
        <time>2022-08-27T16:05:48Z</time>
      </trkpt>
      <trkpt lat="42.2857580" lon="-8.2690900">
        <ele>1020.5</ele>
        <time>2022-08-27T16:05:49Z</time>
      </trkpt>
      <trkpt lat="42.2857650" lon="-8.2690860">
        <ele>1020.6</ele>
        <time>2022-08-27T16:05:50Z</time>
      </trkpt>
      <trkpt lat="42.2857850" lon="-8.2690730">
        <ele>1020.9</ele>
        <time>2022-08-27T16:05:51Z</time>
      </trkpt>
      <trkpt lat="42.2857920" lon="-8.2690670">
        <ele>1021.0</ele>
        <time>2022-08-27T16:05:52Z</time>
      </trkpt>
      <trkpt lat="42.2857990" lon="-8.2690600">
        <ele>1021.1</ele>
        <time>2022-08-27T16:05:53Z</time>
      </trkpt>
      <trkpt lat="42.2858140" lon="-8.2690500">
        <ele>1021.3</ele>
        <time>2022-08-27T16:05:54Z</time>
      </trkpt>
      <trkpt lat="42.2858260" lon="-8.2690410">
        <ele>1021.4</ele>
        <time>2022-08-27T16:05:55Z</time>
      </trkpt>
      <trkpt lat="42.2858360" lon="-8.2690320">
        <ele>1021.6</ele>
        <time>2022-08-27T16:05:56Z</time>
      </trkpt>
      <trkpt lat="42.2858470" lon="-8.2690220">
        <ele>1021.7</ele>
        <time>2022-08-27T16:05:57Z</time>
      </trkpt>
      <trkpt lat="42.2858550" lon="-8.2690150">
        <ele>1021.8</ele>
        <time>2022-08-27T16:05:58Z</time>
      </trkpt>
      <trkpt lat="42.2858730" lon="-8.2690020">
        <ele>1022.1</ele>
        <time>2022-08-27T16:05:59Z</time>
      </trkpt>
      <trkpt lat="42.2858810" lon="-8.2689970">
        <ele>1022.2</ele>
        <time>2022-08-27T16:06:00Z</time>
      </trkpt>
      <trkpt lat="42.2858890" lon="-8.2689910">
        <ele>1022.3</ele>
        <time>2022-08-27T16:06:01Z</time>
      </trkpt>
      <trkpt lat="42.2859100" lon="-8.2689800">
        <ele>1022.6</ele>
        <time>2022-08-27T16:06:02Z</time>
      </trkpt>
      <trkpt lat="42.2859180" lon="-8.2689770">
        <ele>1022.7</ele>
        <time>2022-08-27T16:06:03Z</time>
      </trkpt>
      <trkpt lat="42.2859260" lon="-8.2689740">
        <ele>1022.8</ele>
        <time>2022-08-27T16:06:04Z</time>
      </trkpt>
      <trkpt lat="42.2859380" lon="-8.2689710">
        <ele>1023.0</ele>
        <time>2022-08-27T16:06:05Z</time>
      </trkpt>
      <trkpt lat="42.2859480" lon="-8.2689660">
        <ele>1023.1</ele>
        <time>2022-08-27T16:06:06Z</time>
      </trkpt>
      <trkpt lat="42.2859550" lon="-8.2689610">
        <ele>1023.2</ele>
        <time>2022-08-27T16:06:07Z</time>
      </trkpt>
      <trkpt lat="42.2859630" lon="-8.2689560">
        <ele>1023.3</ele>
        <time>2022-08-27T16:06:08Z</time>
      </trkpt>
      <trkpt lat="42.2859700" lon="-8.2689500">
        <ele>1023.5</ele>
        <time>2022-08-27T16:06:09Z</time>
      </trkpt>
      <trkpt lat="42.2859780" lon="-8.2689430">
        <ele>1023.6</ele>
        <time>2022-08-27T16:06:10Z</time>
      </trkpt>
      <trkpt lat="42.2859890" lon="-8.2689340">
        <ele>1023.8</ele>
        <time>2022-08-27T16:06:11Z</time>
      </trkpt>
      <trkpt lat="42.2859990" lon="-8.2689290">
        <ele>1023.9</ele>
        <time>2022-08-27T16:06:12Z</time>
      </trkpt>
      <trkpt lat="42.2860090" lon="-8.2689210">
        <ele>1024.1</ele>
        <time>2022-08-27T16:06:13Z</time>
      </trkpt>
      <trkpt lat="42.2860200" lon="-8.2689150">
        <ele>1024.2</ele>
        <time>2022-08-27T16:06:14Z</time>
      </trkpt>
      <trkpt lat="42.2860290" lon="-8.2689100">
        <ele>1024.4</ele>
        <time>2022-08-27T16:06:15Z</time>
      </trkpt>
      <trkpt lat="42.2860390" lon="-8.2689030">
        <ele>1024.5</ele>
        <time>2022-08-27T16:06:16Z</time>
      </trkpt>
      <trkpt lat="42.2860490" lon="-8.2688970">
        <ele>1024.7</ele>
        <time>2022-08-27T16:06:17Z</time>
      </trkpt>
      <trkpt lat="42.2860590" lon="-8.2688910">
        <ele>1024.8</ele>
        <time>2022-08-27T16:06:18Z</time>
      </trkpt>
      <trkpt lat="42.2860690" lon="-8.2688850">
        <ele>1025.0</ele>
        <time>2022-08-27T16:06:19Z</time>
      </trkpt>
      <trkpt lat="42.2860780" lon="-8.2688780">
        <ele>1025.1</ele>
        <time>2022-08-27T16:06:20Z</time>
      </trkpt>
      <trkpt lat="42.2860860" lon="-8.2688710">
        <ele>1025.3</ele>
        <time>2022-08-27T16:06:21Z</time>
      </trkpt>
      <trkpt lat="42.2860930" lon="-8.2688660">
        <ele>1025.4</ele>
        <time>2022-08-27T16:06:22Z</time>
      </trkpt>
      <trkpt lat="42.2861100" lon="-8.2688540">
        <ele>1025.6</ele>
        <time>2022-08-27T16:06:23Z</time>
      </trkpt>
      <trkpt lat="42.2861170" lon="-8.2688480">
        <ele>1025.7</ele>
        <time>2022-08-27T16:06:24Z</time>
      </trkpt>
      <trkpt lat="42.2861250" lon="-8.2688430">
        <ele>1025.8</ele>
        <time>2022-08-27T16:06:25Z</time>
      </trkpt>
      <trkpt lat="42.2861450" lon="-8.2688310">
        <ele>1026.1</ele>
        <time>2022-08-27T16:06:26Z</time>
      </trkpt>
      <trkpt lat="42.2861520" lon="-8.2688270">
        <ele>1026.2</ele>
        <time>2022-08-27T16:06:27Z</time>
      </trkpt>
      <trkpt lat="42.2861600" lon="-8.2688230">
        <ele>1026.3</ele>
        <time>2022-08-27T16:06:28Z</time>
      </trkpt>
      <trkpt lat="42.2861720" lon="-8.2688190">
        <ele>1026.5</ele>
        <time>2022-08-27T16:06:29Z</time>
      </trkpt>
      <trkpt lat="42.2861860" lon="-8.2688140">
        <ele>1026.7</ele>
        <time>2022-08-27T16:06:30Z</time>
      </trkpt>
      <trkpt lat="42.2861970" lon="-8.2688100">
        <ele>1026.8</ele>
        <time>2022-08-27T16:06:31Z</time>
      </trkpt>
      <trkpt lat="42.2862060" lon="-8.2688070">
        <ele>1026.9</ele>
        <time>2022-08-27T16:06:32Z</time>
      </trkpt>
      <trkpt lat="42.2862190" lon="-8.2688020">
        <ele>1027.1</ele>
        <time>2022-08-27T16:06:33Z</time>
      </trkpt>
      <trkpt lat="42.2862350" lon="-8.2687950">
        <ele>1027.3</ele>
        <time>2022-08-27T16:06:34Z</time>
      </trkpt>
      <trkpt lat="42.2862460" lon="-8.2687910">
        <ele>1027.4</ele>
        <time>2022-08-27T16:06:35Z</time>
      </trkpt>
      <trkpt lat="42.2862550" lon="-8.2687860">
        <ele>1027.6</ele>
        <time>2022-08-27T16:06:36Z</time>
      </trkpt>
      <trkpt lat="42.2862650" lon="-8.2687820">
        <ele>1027.7</ele>
        <time>2022-08-27T16:06:37Z</time>
      </trkpt>
      <trkpt lat="42.2862760" lon="-8.2687780">
        <ele>1027.8</ele>
        <time>2022-08-27T16:06:38Z</time>
      </trkpt>
      <trkpt lat="42.2862860" lon="-8.2687740">
        <ele>1028.0</ele>
        <time>2022-08-27T16:06:39Z</time>
      </trkpt>
      <trkpt lat="42.2862950" lon="-8.2687700">
        <ele>1028.1</ele>
        <time>2022-08-27T16:06:40Z</time>
      </trkpt>
      <trkpt lat="42.2863090" lon="-8.2687640">
        <ele>1028.3</ele>
        <time>2022-08-27T16:06:41Z</time>
      </trkpt>
      <trkpt lat="42.2863300" lon="-8.2687580">
        <ele>1028.5</ele>
        <time>2022-08-27T16:06:42Z</time>
      </trkpt>
      <trkpt lat="42.2863380" lon="-8.2687560">
        <ele>1028.7</ele>
        <time>2022-08-27T16:06:43Z</time>
      </trkpt>
      <trkpt lat="42.2863470" lon="-8.2687530">
        <ele>1028.8</ele>
        <time>2022-08-27T16:06:44Z</time>
      </trkpt>
      <trkpt lat="42.2863570" lon="-8.2687500">
        <ele>1028.9</ele>
        <time>2022-08-27T16:06:45Z</time>
      </trkpt>
      <trkpt lat="42.2863680" lon="-8.2687480">
        <ele>1029.0</ele>
        <time>2022-08-27T16:06:46Z</time>
      </trkpt>
      <trkpt lat="42.2863770" lon="-8.2687470">
        <ele>1029.1</ele>
        <time>2022-08-27T16:06:47Z</time>
      </trkpt>
      <trkpt lat="42.2863880" lon="-8.2687440">
        <ele>1029.3</ele>
        <time>2022-08-27T16:06:48Z</time>
      </trkpt>
      <trkpt lat="42.2864010" lon="-8.2687430">
        <ele>1029.4</ele>
        <time>2022-08-27T16:06:49Z</time>
      </trkpt>
      <trkpt lat="42.2864110" lon="-8.2687400">
        <ele>1029.6</ele>
        <time>2022-08-27T16:06:50Z</time>
      </trkpt>
      <trkpt lat="42.2864210" lon="-8.2687340">
        <ele>1029.7</ele>
        <time>2022-08-27T16:06:51Z</time>
      </trkpt>
      <trkpt lat="42.2864300" lon="-8.2687280">
        <ele>1029.8</ele>
        <time>2022-08-27T16:06:52Z</time>
      </trkpt>
      <trkpt lat="42.2864380" lon="-8.2687230">
        <ele>1029.9</ele>
        <time>2022-08-27T16:06:53Z</time>
      </trkpt>
      <trkpt lat="42.2864580" lon="-8.2687090">
        <ele>1030.2</ele>
        <time>2022-08-27T16:06:54Z</time>
      </trkpt>
      <trkpt lat="42.2864670" lon="-8.2687020">
        <ele>1030.3</ele>
        <time>2022-08-27T16:06:55Z</time>
      </trkpt>
      <trkpt lat="42.2864770" lon="-8.2686960">
        <ele>1030.4</ele>
        <time>2022-08-27T16:06:56Z</time>
      </trkpt>
      <trkpt lat="42.2865030" lon="-8.2686870">
        <ele>1030.7</ele>
        <time>2022-08-27T16:06:57Z</time>
      </trkpt>
      <trkpt lat="42.2865120" lon="-8.2686850">
        <ele>1030.8</ele>
        <time>2022-08-27T16:06:58Z</time>
      </trkpt>
      <trkpt lat="42.2865270" lon="-8.2686820">
        <ele>1030.9</ele>
        <time>2022-08-27T16:06:59Z</time>
      </trkpt>
      <trkpt lat="42.2865410" lon="-8.2686810">
        <ele>1031.1</ele>
        <time>2022-08-27T16:07:00Z</time>
      </trkpt>
      <trkpt lat="42.2865670" lon="-8.2686740">
        <ele>1031.3</ele>
        <time>2022-08-27T16:07:01Z</time>
      </trkpt>
      <trkpt lat="42.2865760" lon="-8.2686700">
        <ele>1031.4</ele>
        <time>2022-08-27T16:07:02Z</time>
      </trkpt>
      <trkpt lat="42.2865890" lon="-8.2686640">
        <ele>1031.6</ele>
        <time>2022-08-27T16:07:03Z</time>
      </trkpt>
      <trkpt lat="42.2866030" lon="-8.2686570">
        <ele>1031.7</ele>
        <time>2022-08-27T16:07:04Z</time>
      </trkpt>
      <trkpt lat="42.2866170" lon="-8.2686540">
        <ele>1031.8</ele>
        <time>2022-08-27T16:07:05Z</time>
      </trkpt>
      <trkpt lat="42.2866330" lon="-8.2686520">
        <ele>1031.9</ele>
        <time>2022-08-27T16:07:06Z</time>
      </trkpt>
      <trkpt lat="42.2866440" lon="-8.2686500">
        <ele>1032.0</ele>
        <time>2022-08-27T16:07:07Z</time>
      </trkpt>
      <trkpt lat="42.2866620" lon="-8.2686440">
        <ele>1032.2</ele>
        <time>2022-08-27T16:07:08Z</time>
      </trkpt>
      <trkpt lat="42.2866880" lon="-8.2686320">
        <ele>1032.4</ele>
        <time>2022-08-27T16:07:09Z</time>
      </trkpt>
      <trkpt lat="42.2866970" lon="-8.2686280">
        <ele>1032.5</ele>
        <time>2022-08-27T16:07:10Z</time>
      </trkpt>
      <trkpt lat="42.2867120" lon="-8.2686210">
        <ele>1032.6</ele>
        <time>2022-08-27T16:07:11Z</time>
      </trkpt>
      <trkpt lat="42.2867270" lon="-8.2686130">
        <ele>1032.7</ele>
        <time>2022-08-27T16:07:12Z</time>
      </trkpt>
      <trkpt lat="42.2867530" lon="-8.2685980">
        <ele>1032.9</ele>
        <time>2022-08-27T16:07:13Z</time>
      </trkpt>
      <trkpt lat="42.2867640" lon="-8.2685940">
        <ele>1033.0</ele>
        <time>2022-08-27T16:07:14Z</time>
      </trkpt>
      <trkpt lat="42.2867780" lon="-8.2685920">
        <ele>1033.1</ele>
        <time>2022-08-27T16:07:15Z</time>
      </trkpt>
      <trkpt lat="42.2867920" lon="-8.2685920">
        <ele>1033.2</ele>
        <time>2022-08-27T16:07:16Z</time>
      </trkpt>
      <trkpt lat="42.2868080" lon="-8.2685900">
        <ele>1033.3</ele>
        <time>2022-08-27T16:07:17Z</time>
      </trkpt>
      <trkpt lat="42.2868250" lon="-8.2685860">
        <ele>1033.5</ele>
        <time>2022-08-27T16:07:18Z</time>
      </trkpt>
      <trkpt lat="42.2868380" lon="-8.2685820">
        <ele>1033.6</ele>
        <time>2022-08-27T16:07:19Z</time>
      </trkpt>
      <trkpt lat="42.2868520" lon="-8.2685800">
        <ele>1033.7</ele>
        <time>2022-08-27T16:07:20Z</time>
      </trkpt>
      <trkpt lat="42.2868750" lon="-8.2685790">
        <ele>1033.8</ele>
        <time>2022-08-27T16:07:21Z</time>
      </trkpt>
      <trkpt lat="42.2868850" lon="-8.2685780">
        <ele>1033.9</ele>
        <time>2022-08-27T16:07:22Z</time>
      </trkpt>
      <trkpt lat="42.2868940" lon="-8.2685760">
        <ele>1034.0</ele>
        <time>2022-08-27T16:07:23Z</time>
      </trkpt>
      <trkpt lat="42.2869110" lon="-8.2685740">
        <ele>1034.1</ele>
        <time>2022-08-27T16:07:24Z</time>
      </trkpt>
      <trkpt lat="42.2869250" lon="-8.2685700">
        <ele>1034.2</ele>
        <time>2022-08-27T16:07:25Z</time>
      </trkpt>
      <trkpt lat="42.2869430" lon="-8.2685640">
        <ele>1034.3</ele>
        <time>2022-08-27T16:07:26Z</time>
      </trkpt>
      <trkpt lat="42.2869540" lon="-8.2685590">
        <ele>1034.4</ele>
        <time>2022-08-27T16:07:27Z</time>
      </trkpt>
      <trkpt lat="42.2869620" lon="-8.2685550">
        <ele>1034.5</ele>
        <time>2022-08-27T16:07:28Z</time>
      </trkpt>
      <trkpt lat="42.2869760" lon="-8.2685470">
        <ele>1034.6</ele>
        <time>2022-08-27T16:07:29Z</time>
      </trkpt>
      <trkpt lat="42.2869850" lon="-8.2685400">
        <ele>1034.7</ele>
        <time>2022-08-27T16:07:30Z</time>
      </trkpt>
      <trkpt lat="42.2869960" lon="-8.2685320">
        <ele>1034.8</ele>
        <time>2022-08-27T16:07:31Z</time>
      </trkpt>
      <trkpt lat="42.2870110" lon="-8.2685210">
        <ele>1035.0</ele>
        <time>2022-08-27T16:07:32Z</time>
      </trkpt>
      <trkpt lat="42.2870330" lon="-8.2685090">
        <ele>1035.2</ele>
        <time>2022-08-27T16:07:33Z</time>
      </trkpt>
      <trkpt lat="42.2870410" lon="-8.2685050">
        <ele>1035.3</ele>
        <time>2022-08-27T16:07:34Z</time>
      </trkpt>
      <trkpt lat="42.2870500" lon="-8.2685020">
        <ele>1035.4</ele>
        <time>2022-08-27T16:07:35Z</time>
      </trkpt>
      <trkpt lat="42.2870720" lon="-8.2684940">
        <ele>1035.7</ele>
        <time>2022-08-27T16:07:36Z</time>
      </trkpt>
      <trkpt lat="42.2870810" lon="-8.2684910">
        <ele>1035.8</ele>
        <time>2022-08-27T16:07:37Z</time>
      </trkpt>
      <trkpt lat="42.2870910" lon="-8.2684870">
        <ele>1035.9</ele>
        <time>2022-08-27T16:07:38Z</time>
      </trkpt>
      <trkpt lat="42.2871060" lon="-8.2684820">
        <ele>1036.1</ele>
        <time>2022-08-27T16:07:39Z</time>
      </trkpt>
      <trkpt lat="42.2871230" lon="-8.2684790">
        <ele>1036.3</ele>
        <time>2022-08-27T16:07:40Z</time>
      </trkpt>
      <trkpt lat="42.2871420" lon="-8.2684710">
        <ele>1036.5</ele>
        <time>2022-08-27T16:07:41Z</time>
      </trkpt>
      <trkpt lat="42.2871510" lon="-8.2684670">
        <ele>1036.6</ele>
        <time>2022-08-27T16:07:42Z</time>
      </trkpt>
      <trkpt lat="42.2871590" lon="-8.2684630">
        <ele>1036.7</ele>
        <time>2022-08-27T16:07:43Z</time>
      </trkpt>
      <trkpt lat="42.2871800" lon="-8.2684500">
        <ele>1037.1</ele>
        <time>2022-08-27T16:07:44Z</time>
      </trkpt>
      <trkpt lat="42.2871890" lon="-8.2684450">
        <ele>1037.2</ele>
        <time>2022-08-27T16:07:45Z</time>
      </trkpt>
      <trkpt lat="42.2871970" lon="-8.2684400">
        <ele>1037.3</ele>
        <time>2022-08-27T16:07:46Z</time>
      </trkpt>
      <trkpt lat="42.2872150" lon="-8.2684310">
        <ele>1037.6</ele>
        <time>2022-08-27T16:07:47Z</time>
      </trkpt>
      <trkpt lat="42.2872300" lon="-8.2684210">
        <ele>1037.8</ele>
        <time>2022-08-27T16:07:48Z</time>
      </trkpt>
      <trkpt lat="42.2872460" lon="-8.2684040">
        <ele>1038.1</ele>
        <time>2022-08-27T16:07:49Z</time>
      </trkpt>
      <trkpt lat="42.2872520" lon="-8.2683960">
        <ele>1038.3</ele>
        <time>2022-08-27T16:07:50Z</time>
      </trkpt>
      <trkpt lat="42.2872580" lon="-8.2683880">
        <ele>1038.4</ele>
        <time>2022-08-27T16:07:51Z</time>
      </trkpt>
      <trkpt lat="42.2872720" lon="-8.2683770">
        <ele>1038.7</ele>
        <time>2022-08-27T16:07:52Z</time>
      </trkpt>
      <trkpt lat="42.2872770" lon="-8.2683700">
        <ele>1038.8</ele>
        <time>2022-08-27T16:07:53Z</time>
      </trkpt>
      <trkpt lat="42.2872820" lon="-8.2683580">
        <ele>1039.0</ele>
        <time>2022-08-27T16:07:54Z</time>
      </trkpt>
      <trkpt lat="42.2872870" lon="-8.2683440">
        <ele>1039.2</ele>
        <time>2022-08-27T16:07:55Z</time>
      </trkpt>
      <trkpt lat="42.2872940" lon="-8.2683310">
        <ele>1039.4</ele>
        <time>2022-08-27T16:07:56Z</time>
      </trkpt>
      <trkpt lat="42.2872990" lon="-8.2683230">
        <ele>1039.5</ele>
        <time>2022-08-27T16:07:57Z</time>
      </trkpt>
      <trkpt lat="42.2873100" lon="-8.2683090">
        <ele>1039.8</ele>
        <time>2022-08-27T16:07:58Z</time>
      </trkpt>
      <trkpt lat="42.2873160" lon="-8.2683020">
        <ele>1039.9</ele>
        <time>2022-08-27T16:07:59Z</time>
      </trkpt>
      <trkpt lat="42.2873220" lon="-8.2682950">
        <ele>1040.1</ele>
        <time>2022-08-27T16:08:00Z</time>
      </trkpt>
      <trkpt lat="42.2873270" lon="-8.2682890">
        <ele>1040.2</ele>
        <time>2022-08-27T16:08:01Z</time>
      </trkpt>
      <trkpt lat="42.2873350" lon="-8.2682800">
        <ele>1040.4</ele>
        <time>2022-08-27T16:08:02Z</time>
      </trkpt>
      <trkpt lat="42.2873390" lon="-8.2682710">
        <ele>1040.5</ele>
        <time>2022-08-27T16:08:03Z</time>
      </trkpt>
      <trkpt lat="42.2873460" lon="-8.2682590">
        <ele>1040.7</ele>
        <time>2022-08-27T16:08:04Z</time>
      </trkpt>
      <trkpt lat="42.2873530" lon="-8.2682490">
        <ele>1040.9</ele>
        <time>2022-08-27T16:08:05Z</time>
      </trkpt>
      <trkpt lat="42.2873650" lon="-8.2682370">
        <ele>1041.2</ele>
        <time>2022-08-27T16:08:07Z</time>
      </trkpt>
      <trkpt lat="42.2873700" lon="-8.2682360">
        <ele>1041.3</ele>
        <time>2022-08-27T16:08:08Z</time>
      </trkpt>
      <trkpt lat="42.2873840" lon="-8.2682290">
        <ele>1041.5</ele>
        <time>2022-08-27T16:08:09Z</time>
      </trkpt>
      <trkpt lat="42.2873950" lon="-8.2682200">
        <ele>1041.8</ele>
        <time>2022-08-27T16:08:11Z</time>
      </trkpt>
      <trkpt lat="42.2874070" lon="-8.2682130">
        <ele>1042.0</ele>
        <time>2022-08-27T16:08:12Z</time>
      </trkpt>
      <trkpt lat="42.2874160" lon="-8.2682070">
        <ele>1042.2</ele>
        <time>2022-08-27T16:08:13Z</time>
      </trkpt>
      <trkpt lat="42.2874240" lon="-8.2682010">
        <ele>1042.3</ele>
        <time>2022-08-27T16:08:14Z</time>
      </trkpt>
      <trkpt lat="42.2874310" lon="-8.2681990">
        <ele>1042.5</ele>
        <time>2022-08-27T16:08:15Z</time>
      </trkpt>
      <trkpt lat="42.2874440" lon="-8.2681940">
        <ele>1042.7</ele>
        <time>2022-08-27T16:08:16Z</time>
      </trkpt>
      <trkpt lat="42.2874580" lon="-8.2681890">
        <ele>1043.0</ele>
        <time>2022-08-27T16:08:17Z</time>
      </trkpt>
      <trkpt lat="42.2874690" lon="-8.2681850">
        <ele>1043.2</ele>
        <time>2022-08-27T16:08:18Z</time>
      </trkpt>
      <trkpt lat="42.2874730" lon="-8.2681780">
        <ele>1043.3</ele>
        <time>2022-08-27T16:08:19Z</time>
      </trkpt>
      <trkpt lat="42.2874840" lon="-8.2681590">
        <ele>1043.4</ele>
        <time>2022-08-27T16:08:21Z</time>
      </trkpt>
      <trkpt lat="42.2874970" lon="-8.2681460">
        <ele>1043.5</ele>
        <time>2022-08-27T16:08:22Z</time>
      </trkpt>
      <trkpt lat="42.2875120" lon="-8.2681350">
        <ele>1043.7</ele>
        <time>2022-08-27T16:08:23Z</time>
      </trkpt>
      <trkpt lat="42.2875310" lon="-8.2681230">
        <ele>1043.9</ele>
        <time>2022-08-27T16:08:24Z</time>
      </trkpt>
      <trkpt lat="42.2875380" lon="-8.2681180">
        <ele>1043.9</ele>
        <time>2022-08-27T16:08:25Z</time>
      </trkpt>
      <trkpt lat="42.2875450" lon="-8.2681130">
        <ele>1044.0</ele>
        <time>2022-08-27T16:08:26Z</time>
      </trkpt>
      <trkpt lat="42.2875600" lon="-8.2681140">
        <ele>1044.1</ele>
        <time>2022-08-27T16:08:27Z</time>
      </trkpt>
      <trkpt lat="42.2875840" lon="-8.2681180">
        <ele>1044.3</ele>
        <time>2022-08-27T16:08:29Z</time>
      </trkpt>
      <trkpt lat="42.2876210" lon="-8.2681230">
        <ele>1044.6</ele>
        <time>2022-08-27T16:08:30Z</time>
      </trkpt>
      <trkpt lat="42.2876350" lon="-8.2681250">
        <ele>1044.7</ele>
        <time>2022-08-27T16:08:31Z</time>
      </trkpt>
      <trkpt lat="42.2876620" lon="-8.2681200">
        <ele>1044.8</ele>
        <time>2022-08-27T16:08:32Z</time>
      </trkpt>
      <trkpt lat="42.2876710" lon="-8.2681190">
        <ele>1044.9</ele>
        <time>2022-08-27T16:08:33Z</time>
      </trkpt>
      <trkpt lat="42.2876950" lon="-8.2681190">
        <ele>1045.0</ele>
        <time>2022-08-27T16:08:34Z</time>
      </trkpt>
      <trkpt lat="42.2877240" lon="-8.2681170">
        <ele>1045.1</ele>
        <time>2022-08-27T16:08:36Z</time>
      </trkpt>
      <trkpt lat="42.2877390" lon="-8.2681180">
        <ele>1045.2</ele>
        <time>2022-08-27T16:08:37Z</time>
      </trkpt>
      <trkpt lat="42.2877650" lon="-8.2681150">
        <ele>1045.3</ele>
        <time>2022-08-27T16:08:39Z</time>
      </trkpt>
      <trkpt lat="42.2877970" lon="-8.2681090">
        <ele>1045.5</ele>
        <time>2022-08-27T16:08:40Z</time>
      </trkpt>
      <trkpt lat="42.2878110" lon="-8.2681090">
        <ele>1045.5</ele>
        <time>2022-08-27T16:08:41Z</time>
      </trkpt>
      <trkpt lat="42.2878510" lon="-8.2680990">
        <ele>1045.6</ele>
        <time>2022-08-27T16:08:43Z</time>
      </trkpt>
      <trkpt lat="42.2878670" lon="-8.2680970">
        <ele>1045.7</ele>
        <time>2022-08-27T16:08:44Z</time>
      </trkpt>
      <trkpt lat="42.2878980" lon="-8.2680880">
        <ele>1045.8</ele>
        <time>2022-08-27T16:08:45Z</time>
      </trkpt>
      <trkpt lat="42.2879430" lon="-8.2680800">
        <ele>1045.9</ele>
        <time>2022-08-27T16:08:46Z</time>
      </trkpt>
      <trkpt lat="42.2879660" lon="-8.2680820">
        <ele>1045.9</ele>
        <time>2022-08-27T16:08:47Z</time>
      </trkpt>
      <trkpt lat="42.2879850" lon="-8.2680840">
        <ele>1046.0</ele>
        <time>2022-08-27T16:08:49Z</time>
      </trkpt>
      <trkpt lat="42.2880140" lon="-8.2680820">
        <ele>1046.0</ele>
        <time>2022-08-27T16:08:50Z</time>
      </trkpt>
      <trkpt lat="42.2880440" lon="-8.2680840">
        <ele>1046.1</ele>
        <time>2022-08-27T16:08:51Z</time>
      </trkpt>
      <trkpt lat="42.2880850" lon="-8.2680880">
        <ele>1046.1</ele>
        <time>2022-08-27T16:08:52Z</time>
      </trkpt>
      <trkpt lat="42.2881320" lon="-8.2680870">
        <ele>1046.2</ele>
        <time>2022-08-27T16:08:54Z</time>
      </trkpt>
      <trkpt lat="42.2881640" lon="-8.2680890">
        <ele>1046.3</ele>
        <time>2022-08-27T16:08:55Z</time>
      </trkpt>
      <trkpt lat="42.2881920" lon="-8.2680870">
        <ele>1046.3</ele>
        <time>2022-08-27T16:08:56Z</time>
      </trkpt>
      <trkpt lat="42.2882340" lon="-8.2680800">
        <ele>1046.4</ele>
        <time>2022-08-27T16:08:57Z</time>
      </trkpt>
      <trkpt lat="42.2882670" lon="-8.2680750">
        <ele>1046.5</ele>
        <time>2022-08-27T16:08:58Z</time>
      </trkpt>
      <trkpt lat="42.2883090" lon="-8.2680730">
        <ele>1046.6</ele>
        <time>2022-08-27T16:09:00Z</time>
      </trkpt>
      <trkpt lat="42.2883390" lon="-8.2680740">
        <ele>1046.6</ele>
        <time>2022-08-27T16:09:01Z</time>
      </trkpt>
      <trkpt lat="42.2883720" lon="-8.2680690">
        <ele>1046.8</ele>
        <time>2022-08-27T16:09:02Z</time>
      </trkpt>
      <trkpt lat="42.2884040" lon="-8.2680630">
        <ele>1046.9</ele>
        <time>2022-08-27T16:09:03Z</time>
      </trkpt>
      <trkpt lat="42.2884390" lon="-8.2680540">
        <ele>1047.1</ele>
        <time>2022-08-27T16:09:05Z</time>
      </trkpt>
      <trkpt lat="42.2884710" lon="-8.2680460">
        <ele>1047.2</ele>
        <time>2022-08-27T16:09:06Z</time>
      </trkpt>
      <trkpt lat="42.2884830" lon="-8.2680440">
        <ele>1047.3</ele>
        <time>2022-08-27T16:09:07Z</time>
      </trkpt>
      <trkpt lat="42.2885030" lon="-8.2680430">
        <ele>1047.4</ele>
        <time>2022-08-27T16:09:08Z</time>
      </trkpt>
      <trkpt lat="42.2885370" lon="-8.2680420">
        <ele>1047.6</ele>
        <time>2022-08-27T16:09:10Z</time>
      </trkpt>
      <trkpt lat="42.2885650" lon="-8.2680380">
        <ele>1047.8</ele>
        <time>2022-08-27T16:09:11Z</time>
      </trkpt>
      <trkpt lat="42.2885970" lon="-8.2680260">
        <ele>1048.0</ele>
        <time>2022-08-27T16:09:12Z</time>
      </trkpt>
      <trkpt lat="42.2886100" lon="-8.2680210">
        <ele>1048.1</ele>
        <time>2022-08-27T16:09:13Z</time>
      </trkpt>
      <trkpt lat="42.2886530" lon="-8.2679980">
        <ele>1048.5</ele>
        <time>2022-08-27T16:09:15Z</time>
      </trkpt>
      <trkpt lat="42.2886660" lon="-8.2679930">
        <ele>1048.6</ele>
        <time>2022-08-27T16:09:16Z</time>
      </trkpt>
      <trkpt lat="42.2886800" lon="-8.2679870">
        <ele>1048.7</ele>
        <time>2022-08-27T16:09:18Z</time>
      </trkpt>
      <trkpt lat="42.2886930" lon="-8.2679820">
        <ele>1048.8</ele>
        <time>2022-08-27T16:09:19Z</time>
      </trkpt>
      <trkpt lat="42.2887070" lon="-8.2679770">
        <ele>1049.0</ele>
        <time>2022-08-27T16:09:20Z</time>
      </trkpt>
      <trkpt lat="42.2887210" lon="-8.2679730">
        <ele>1049.1</ele>
        <time>2022-08-27T16:09:21Z</time>
      </trkpt>
      <trkpt lat="42.2887370" lon="-8.2679670">
        <ele>1049.2</ele>
        <time>2022-08-27T16:09:22Z</time>
      </trkpt>
      <trkpt lat="42.2887540" lon="-8.2679610">
        <ele>1049.4</ele>
        <time>2022-08-27T16:09:23Z</time>
      </trkpt>
      <trkpt lat="42.2887710" lon="-8.2679580">
        <ele>1049.5</ele>
        <time>2022-08-27T16:09:24Z</time>
      </trkpt>
      <trkpt lat="42.2887860" lon="-8.2679540">
        <ele>1049.7</ele>
        <time>2022-08-27T16:09:25Z</time>
      </trkpt>
      <trkpt lat="42.2888210" lon="-8.2679410">
        <ele>1050.0</ele>
        <time>2022-08-27T16:09:27Z</time>
      </trkpt>
      <trkpt lat="42.2888430" lon="-8.2679360">
        <ele>1050.2</ele>
        <time>2022-08-27T16:09:28Z</time>
      </trkpt>
      <trkpt lat="42.2888700" lon="-8.2679240">
        <ele>1050.5</ele>
        <time>2022-08-27T16:09:30Z</time>
      </trkpt>
      <trkpt lat="42.2889040" lon="-8.2679110">
        <ele>1050.8</ele>
        <time>2022-08-27T16:09:31Z</time>
      </trkpt>
      <trkpt lat="42.2889150" lon="-8.2679080">
        <ele>1050.9</ele>
        <time>2022-08-27T16:09:32Z</time>
      </trkpt>
      <trkpt lat="42.2889460" lon="-8.2678980">
        <ele>1051.2</ele>
        <time>2022-08-27T16:09:33Z</time>
      </trkpt>
      <trkpt lat="42.2889580" lon="-8.2678930">
        <ele>1051.3</ele>
        <time>2022-08-27T16:09:34Z</time>
      </trkpt>
      <trkpt lat="42.2889720" lon="-8.2678870">
        <ele>1051.5</ele>
        <time>2022-08-27T16:09:35Z</time>
      </trkpt>
      <trkpt lat="42.2890120" lon="-8.2678800">
        <ele>1051.8</ele>
        <time>2022-08-27T16:09:37Z</time>
      </trkpt>
      <trkpt lat="42.2890490" lon="-8.2678800">
        <ele>1052.1</ele>
        <time>2022-08-27T16:09:38Z</time>
      </trkpt>
      <trkpt lat="42.2890600" lon="-8.2678790">
        <ele>1052.2</ele>
        <time>2022-08-27T16:09:39Z</time>
      </trkpt>
      <trkpt lat="42.2890880" lon="-8.2678770">
        <ele>1052.5</ele>
        <time>2022-08-27T16:09:40Z</time>
      </trkpt>
      <trkpt lat="42.2890980" lon="-8.2678760">
        <ele>1052.5</ele>
        <time>2022-08-27T16:09:41Z</time>
      </trkpt>
      <trkpt lat="42.2891260" lon="-8.2678670">
        <ele>1052.8</ele>
        <time>2022-08-27T16:09:42Z</time>
      </trkpt>
      <trkpt lat="42.2891340" lon="-8.2678640">
        <ele>1052.8</ele>
        <time>2022-08-27T16:09:43Z</time>
      </trkpt>
      <trkpt lat="42.2891640" lon="-8.2678530">
        <ele>1053.1</ele>
        <time>2022-08-27T16:09:44Z</time>
      </trkpt>
      <trkpt lat="42.2891740" lon="-8.2678490">
        <ele>1053.2</ele>
        <time>2022-08-27T16:09:45Z</time>
      </trkpt>
      <trkpt lat="42.2892020" lon="-8.2678390">
        <ele>1053.4</ele>
        <time>2022-08-27T16:09:46Z</time>
      </trkpt>
      <trkpt lat="42.2892100" lon="-8.2678360">
        <ele>1053.5</ele>
        <time>2022-08-27T16:09:47Z</time>
      </trkpt>
      <trkpt lat="42.2892240" lon="-8.2678280">
        <ele>1053.6</ele>
        <time>2022-08-27T16:09:48Z</time>
      </trkpt>
      <trkpt lat="42.2892400" lon="-8.2678210">
        <ele>1053.8</ele>
        <time>2022-08-27T16:09:49Z</time>
      </trkpt>
      <trkpt lat="42.2892580" lon="-8.2678160">
        <ele>1054.0</ele>
        <time>2022-08-27T16:09:50Z</time>
      </trkpt>
      <trkpt lat="42.2892710" lon="-8.2678100">
        <ele>1054.1</ele>
        <time>2022-08-27T16:09:51Z</time>
      </trkpt>
      <trkpt lat="42.2893040" lon="-8.2677960">
        <ele>1054.4</ele>
        <time>2022-08-27T16:09:52Z</time>
      </trkpt>
      <trkpt lat="42.2893140" lon="-8.2677920">
        <ele>1054.5</ele>
        <time>2022-08-27T16:09:53Z</time>
      </trkpt>
      <trkpt lat="42.2893330" lon="-8.2677830">
        <ele>1054.7</ele>
        <time>2022-08-27T16:09:55Z</time>
      </trkpt>
      <trkpt lat="42.2893470" lon="-8.2677760">
        <ele>1054.8</ele>
        <time>2022-08-27T16:09:56Z</time>
      </trkpt>
      <trkpt lat="42.2893690" lon="-8.2677640">
        <ele>1055.1</ele>
        <time>2022-08-27T16:09:57Z</time>
      </trkpt>
      <trkpt lat="42.2893790" lon="-8.2677600">
        <ele>1055.2</ele>
        <time>2022-08-27T16:09:58Z</time>
      </trkpt>
      <trkpt lat="42.2894070" lon="-8.2677420">
        <ele>1055.6</ele>
        <time>2022-08-27T16:10:00Z</time>
      </trkpt>
      <trkpt lat="42.2894150" lon="-8.2677370">
        <ele>1055.7</ele>
        <time>2022-08-27T16:10:01Z</time>
      </trkpt>
      <trkpt lat="42.2894410" lon="-8.2677250">
        <ele>1056.0</ele>
        <time>2022-08-27T16:10:03Z</time>
      </trkpt>
      <trkpt lat="42.2894570" lon="-8.2677210">
        <ele>1056.2</ele>
        <time>2022-08-27T16:10:04Z</time>
      </trkpt>
      <trkpt lat="42.2894720" lon="-8.2677170">
        <ele>1056.3</ele>
        <time>2022-08-27T16:10:05Z</time>
      </trkpt>
      <trkpt lat="42.2895010" lon="-8.2677070">
        <ele>1056.7</ele>
        <time>2022-08-27T16:10:06Z</time>
      </trkpt>
      <trkpt lat="42.2895160" lon="-8.2677030">
        <ele>1056.9</ele>
        <time>2022-08-27T16:10:07Z</time>
      </trkpt>
      <trkpt lat="42.2895530" lon="-8.2676920">
        <ele>1057.3</ele>
        <time>2022-08-27T16:10:09Z</time>
      </trkpt>
      <trkpt lat="42.2895650" lon="-8.2676880">
        <ele>1057.4</ele>
        <time>2022-08-27T16:10:10Z</time>
      </trkpt>
      <trkpt lat="42.2896000" lon="-8.2676800">
        <ele>1057.8</ele>
        <time>2022-08-27T16:10:11Z</time>
      </trkpt>
      <trkpt lat="42.2896100" lon="-8.2676790">
        <ele>1057.9</ele>
        <time>2022-08-27T16:10:12Z</time>
      </trkpt>
      <trkpt lat="42.2896410" lon="-8.2676640">
        <ele>1058.3</ele>
        <time>2022-08-27T16:10:13Z</time>
      </trkpt>
      <trkpt lat="42.2896520" lon="-8.2676590">
        <ele>1058.4</ele>
        <time>2022-08-27T16:10:14Z</time>
      </trkpt>
      <trkpt lat="42.2896860" lon="-8.2676450">
        <ele>1058.7</ele>
        <time>2022-08-27T16:10:16Z</time>
      </trkpt>
      <trkpt lat="42.2896950" lon="-8.2676410">
        <ele>1058.8</ele>
        <time>2022-08-27T16:10:17Z</time>
      </trkpt>
      <trkpt lat="42.2897220" lon="-8.2676330">
        <ele>1059.1</ele>
        <time>2022-08-27T16:10:18Z</time>
      </trkpt>
      <trkpt lat="42.2897330" lon="-8.2676300">
        <ele>1059.2</ele>
        <time>2022-08-27T16:10:19Z</time>
      </trkpt>
      <trkpt lat="42.2897540" lon="-8.2676200">
        <ele>1059.4</ele>
        <time>2022-08-27T16:10:20Z</time>
      </trkpt>
      <trkpt lat="42.2897670" lon="-8.2676190">
        <ele>1059.5</ele>
        <time>2022-08-27T16:10:21Z</time>
      </trkpt>
      <trkpt lat="42.2897950" lon="-8.2676070">
        <ele>1059.7</ele>
        <time>2022-08-27T16:10:22Z</time>
      </trkpt>
      <trkpt lat="42.2898060" lon="-8.2676010">
        <ele>1059.9</ele>
        <time>2022-08-27T16:10:23Z</time>
      </trkpt>
      <trkpt lat="42.2898340" lon="-8.2675860">
        <ele>1060.1</ele>
        <time>2022-08-27T16:10:25Z</time>
      </trkpt>
      <trkpt lat="42.2898490" lon="-8.2675760">
        <ele>1060.3</ele>
        <time>2022-08-27T16:10:26Z</time>
      </trkpt>
      <trkpt lat="42.2898590" lon="-8.2675680">
        <ele>1060.4</ele>
        <time>2022-08-27T16:10:27Z</time>
      </trkpt>
      <trkpt lat="42.2898820" lon="-8.2675610">
        <ele>1060.6</ele>
        <time>2022-08-27T16:10:28Z</time>
      </trkpt>
      <trkpt lat="42.2899010" lon="-8.2675530">
        <ele>1060.8</ele>
        <time>2022-08-27T16:10:30Z</time>
      </trkpt>
      <trkpt lat="42.2899280" lon="-8.2675420">
        <ele>1061.0</ele>
        <time>2022-08-27T16:10:31Z</time>
      </trkpt>
      <trkpt lat="42.2899430" lon="-8.2675360">
        <ele>1061.2</ele>
        <time>2022-08-27T16:10:32Z</time>
      </trkpt>
      <trkpt lat="42.2899560" lon="-8.2675340">
        <ele>1061.3</ele>
        <time>2022-08-27T16:10:33Z</time>
      </trkpt>
      <trkpt lat="42.2899720" lon="-8.2675280">
        <ele>1061.5</ele>
        <time>2022-08-27T16:10:34Z</time>
      </trkpt>
      <trkpt lat="42.2899870" lon="-8.2675220">
        <ele>1061.6</ele>
        <time>2022-08-27T16:10:35Z</time>
      </trkpt>
      <trkpt lat="42.2900050" lon="-8.2675040">
        <ele>1061.9</ele>
        <time>2022-08-27T16:10:36Z</time>
      </trkpt>
      <trkpt lat="42.2900110" lon="-8.2674970">
        <ele>1062.0</ele>
        <time>2022-08-27T16:10:37Z</time>
      </trkpt>
      <trkpt lat="42.2900160" lon="-8.2674900">
        <ele>1062.0</ele>
        <time>2022-08-27T16:10:38Z</time>
      </trkpt>
      <trkpt lat="42.2900240" lon="-8.2674720">
        <ele>1062.2</ele>
        <time>2022-08-27T16:10:39Z</time>
      </trkpt>
      <trkpt lat="42.2900320" lon="-8.2674590">
        <ele>1062.3</ele>
        <time>2022-08-27T16:10:41Z</time>
      </trkpt>
      <trkpt lat="42.2900400" lon="-8.2674470">
        <ele>1062.4</ele>
        <time>2022-08-27T16:10:42Z</time>
      </trkpt>
      <trkpt lat="42.2900510" lon="-8.2674310">
        <ele>1062.6</ele>
        <time>2022-08-27T16:10:43Z</time>
      </trkpt>
      <trkpt lat="42.2900660" lon="-8.2674100">
        <ele>1062.8</ele>
        <time>2022-08-27T16:10:44Z</time>
      </trkpt>
      <trkpt lat="42.2900740" lon="-8.2674020">
        <ele>1062.9</ele>
        <time>2022-08-27T16:10:45Z</time>
      </trkpt>
      <trkpt lat="42.2900830" lon="-8.2673950">
        <ele>1063.0</ele>
        <time>2022-08-27T16:10:46Z</time>
      </trkpt>
      <trkpt lat="42.2900940" lon="-8.2673870">
        <ele>1063.2</ele>
        <time>2022-08-27T16:10:47Z</time>
      </trkpt>
      <trkpt lat="42.2901020" lon="-8.2673800">
        <ele>1063.3</ele>
        <time>2022-08-27T16:10:48Z</time>
      </trkpt>
      <trkpt lat="42.2901100" lon="-8.2673690">
        <ele>1063.4</ele>
        <time>2022-08-27T16:10:49Z</time>
      </trkpt>
      <trkpt lat="42.2901190" lon="-8.2673570">
        <ele>1063.5</ele>
        <time>2022-08-27T16:10:50Z</time>
      </trkpt>
      <trkpt lat="42.2901360" lon="-8.2673430">
        <ele>1063.7</ele>
        <time>2022-08-27T16:10:51Z</time>
      </trkpt>
      <trkpt lat="42.2901530" lon="-8.2673330">
        <ele>1063.9</ele>
        <time>2022-08-27T16:10:52Z</time>
      </trkpt>
      <trkpt lat="42.2901650" lon="-8.2673240">
        <ele>1064.0</ele>
        <time>2022-08-27T16:10:53Z</time>
      </trkpt>
      <trkpt lat="42.2901800" lon="-8.2673120">
        <ele>1064.2</ele>
        <time>2022-08-27T16:10:54Z</time>
      </trkpt>
      <trkpt lat="42.2901920" lon="-8.2673010">
        <ele>1064.3</ele>
        <time>2022-08-27T16:10:55Z</time>
      </trkpt>
      <trkpt lat="42.2902030" lon="-8.2672910">
        <ele>1064.5</ele>
        <time>2022-08-27T16:10:56Z</time>
      </trkpt>
      <trkpt lat="42.2902150" lon="-8.2672810">
        <ele>1064.6</ele>
        <time>2022-08-27T16:10:57Z</time>
      </trkpt>
      <trkpt lat="42.2902260" lon="-8.2672710">
        <ele>1064.7</ele>
        <time>2022-08-27T16:10:58Z</time>
      </trkpt>
      <trkpt lat="42.2902410" lon="-8.2672590">
        <ele>1064.9</ele>
        <time>2022-08-27T16:10:59Z</time>
      </trkpt>
      <trkpt lat="42.2902520" lon="-8.2672520">
        <ele>1065.0</ele>
        <time>2022-08-27T16:11:00Z</time>
      </trkpt>
      <trkpt lat="42.2902720" lon="-8.2672390">
        <ele>1065.2</ele>
        <time>2022-08-27T16:11:01Z</time>
      </trkpt>
      <trkpt lat="42.2902980" lon="-8.2672230">
        <ele>1065.4</ele>
        <time>2022-08-27T16:11:02Z</time>
      </trkpt>
      <trkpt lat="42.2903060" lon="-8.2672170">
        <ele>1065.5</ele>
        <time>2022-08-27T16:11:03Z</time>
      </trkpt>
      <trkpt lat="42.2903330" lon="-8.2671960">
        <ele>1065.7</ele>
        <time>2022-08-27T16:11:04Z</time>
      </trkpt>
      <trkpt lat="42.2903420" lon="-8.2671900">
        <ele>1065.8</ele>
        <time>2022-08-27T16:11:05Z</time>
      </trkpt>
      <trkpt lat="42.2903570" lon="-8.2671800">
        <ele>1066.0</ele>
        <time>2022-08-27T16:11:06Z</time>
      </trkpt>
      <trkpt lat="42.2903700" lon="-8.2671710">
        <ele>1066.1</ele>
        <time>2022-08-27T16:11:07Z</time>
      </trkpt>
      <trkpt lat="42.2903860" lon="-8.2671600">
        <ele>1066.3</ele>
        <time>2022-08-27T16:11:08Z</time>
      </trkpt>
      <trkpt lat="42.2903990" lon="-8.2671500">
        <ele>1066.4</ele>
        <time>2022-08-27T16:11:09Z</time>
      </trkpt>
      <trkpt lat="42.2904240" lon="-8.2671300">
        <ele>1066.6</ele>
        <time>2022-08-27T16:11:10Z</time>
      </trkpt>
      <trkpt lat="42.2904330" lon="-8.2671240">
        <ele>1066.7</ele>
        <time>2022-08-27T16:11:11Z</time>
      </trkpt>
      <trkpt lat="42.2904480" lon="-8.2671150">
        <ele>1066.9</ele>
        <time>2022-08-27T16:11:12Z</time>
      </trkpt>
      <trkpt lat="42.2904590" lon="-8.2671090">
        <ele>1067.0</ele>
        <time>2022-08-27T16:11:13Z</time>
      </trkpt>
      <trkpt lat="42.2904710" lon="-8.2671020">
        <ele>1067.1</ele>
        <time>2022-08-27T16:11:14Z</time>
      </trkpt>
      <trkpt lat="42.2904890" lon="-8.2670910">
        <ele>1067.2</ele>
        <time>2022-08-27T16:11:15Z</time>
      </trkpt>
      <trkpt lat="42.2905070" lon="-8.2670810">
        <ele>1067.4</ele>
        <time>2022-08-27T16:11:16Z</time>
      </trkpt>
      <trkpt lat="42.2905220" lon="-8.2670750">
        <ele>1067.5</ele>
        <time>2022-08-27T16:11:17Z</time>
      </trkpt>
      <trkpt lat="42.2905390" lon="-8.2670690">
        <ele>1067.7</ele>
        <time>2022-08-27T16:11:18Z</time>
      </trkpt>
      <trkpt lat="42.2905560" lon="-8.2670610">
        <ele>1067.8</ele>
        <time>2022-08-27T16:11:19Z</time>
      </trkpt>
      <trkpt lat="42.2905710" lon="-8.2670550">
        <ele>1068.0</ele>
        <time>2022-08-27T16:11:20Z</time>
      </trkpt>
      <trkpt lat="42.2905840" lon="-8.2670510">
        <ele>1068.1</ele>
        <time>2022-08-27T16:11:21Z</time>
      </trkpt>
      <trkpt lat="42.2906010" lon="-8.2670450">
        <ele>1068.3</ele>
        <time>2022-08-27T16:11:22Z</time>
      </trkpt>
      <trkpt lat="42.2906190" lon="-8.2670370">
        <ele>1068.4</ele>
        <time>2022-08-27T16:11:23Z</time>
      </trkpt>
      <trkpt lat="42.2906340" lon="-8.2670300">
        <ele>1068.6</ele>
        <time>2022-08-27T16:11:24Z</time>
      </trkpt>
      <trkpt lat="42.2906510" lon="-8.2670220">
        <ele>1068.7</ele>
        <time>2022-08-27T16:11:25Z</time>
      </trkpt>
      <trkpt lat="42.2906700" lon="-8.2670150">
        <ele>1068.9</ele>
        <time>2022-08-27T16:11:26Z</time>
      </trkpt>
      <trkpt lat="42.2906840" lon="-8.2670110">
        <ele>1069.0</ele>
        <time>2022-08-27T16:11:27Z</time>
      </trkpt>
      <trkpt lat="42.2907010" lon="-8.2670070">
        <ele>1069.2</ele>
        <time>2022-08-27T16:11:28Z</time>
      </trkpt>
      <trkpt lat="42.2907160" lon="-8.2670040">
        <ele>1069.3</ele>
        <time>2022-08-27T16:11:29Z</time>
      </trkpt>
      <trkpt lat="42.2907240" lon="-8.2670030">
        <ele>1069.4</ele>
        <time>2022-08-27T16:11:30Z</time>
      </trkpt>
      <trkpt lat="42.2907360" lon="-8.2670010">
        <ele>1069.5</ele>
        <time>2022-08-27T16:11:31Z</time>
      </trkpt>
      <trkpt lat="42.2907480" lon="-8.2669980">
        <ele>1069.6</ele>
        <time>2022-08-27T16:11:32Z</time>
      </trkpt>
      <trkpt lat="42.2907700" lon="-8.2669940">
        <ele>1069.8</ele>
        <time>2022-08-27T16:11:33Z</time>
      </trkpt>
      <trkpt lat="42.2907790" lon="-8.2669920">
        <ele>1069.9</ele>
        <time>2022-08-27T16:11:34Z</time>
      </trkpt>
      <trkpt lat="42.2907880" lon="-8.2669910">
        <ele>1070.0</ele>
        <time>2022-08-27T16:11:35Z</time>
      </trkpt>
      <trkpt lat="42.2908170" lon="-8.2669830">
        <ele>1070.3</ele>
        <time>2022-08-27T16:11:36Z</time>
      </trkpt>
      <trkpt lat="42.2908260" lon="-8.2669810">
        <ele>1070.4</ele>
        <time>2022-08-27T16:11:37Z</time>
      </trkpt>
      <trkpt lat="42.2908460" lon="-8.2669770">
        <ele>1070.6</ele>
        <time>2022-08-27T16:11:38Z</time>
      </trkpt>
      <trkpt lat="42.2908600" lon="-8.2669720">
        <ele>1070.7</ele>
        <time>2022-08-27T16:11:39Z</time>
      </trkpt>
      <trkpt lat="42.2908780" lon="-8.2669670">
        <ele>1070.9</ele>
        <time>2022-08-27T16:11:40Z</time>
      </trkpt>
      <trkpt lat="42.2908910" lon="-8.2669600">
        <ele>1071.0</ele>
        <time>2022-08-27T16:11:41Z</time>
      </trkpt>
      <trkpt lat="42.2909040" lon="-8.2669530">
        <ele>1071.2</ele>
        <time>2022-08-27T16:11:42Z</time>
      </trkpt>
      <trkpt lat="42.2909220" lon="-8.2669440">
        <ele>1071.3</ele>
        <time>2022-08-27T16:11:43Z</time>
      </trkpt>
      <trkpt lat="42.2909380" lon="-8.2669370">
        <ele>1071.5</ele>
        <time>2022-08-27T16:11:44Z</time>
      </trkpt>
      <trkpt lat="42.2909510" lon="-8.2669330">
        <ele>1071.6</ele>
        <time>2022-08-27T16:11:45Z</time>
      </trkpt>
      <trkpt lat="42.2909670" lon="-8.2669300">
        <ele>1071.8</ele>
        <time>2022-08-27T16:11:46Z</time>
      </trkpt>
      <trkpt lat="42.2909800" lon="-8.2669270">
        <ele>1071.9</ele>
        <time>2022-08-27T16:11:47Z</time>
      </trkpt>
      <trkpt lat="42.2910090" lon="-8.2669210">
        <ele>1072.2</ele>
        <time>2022-08-27T16:11:48Z</time>
      </trkpt>
      <trkpt lat="42.2910170" lon="-8.2669190">
        <ele>1072.3</ele>
        <time>2022-08-27T16:11:49Z</time>
      </trkpt>
      <trkpt lat="42.2910300" lon="-8.2669150">
        <ele>1072.4</ele>
        <time>2022-08-27T16:11:50Z</time>
      </trkpt>
      <trkpt lat="42.2910470" lon="-8.2669150">
        <ele>1072.6</ele>
        <time>2022-08-27T16:11:51Z</time>
      </trkpt>
      <trkpt lat="42.2910750" lon="-8.2669120">
        <ele>1072.9</ele>
        <time>2022-08-27T16:11:52Z</time>
      </trkpt>
      <trkpt lat="42.2910830" lon="-8.2669090">
        <ele>1072.9</ele>
        <time>2022-08-27T16:11:53Z</time>
      </trkpt>
      <trkpt lat="42.2910970" lon="-8.2669050">
        <ele>1073.1</ele>
        <time>2022-08-27T16:11:54Z</time>
      </trkpt>
      <trkpt lat="42.2911180" lon="-8.2669020">
        <ele>1073.3</ele>
        <time>2022-08-27T16:11:55Z</time>
      </trkpt>
      <trkpt lat="42.2911520" lon="-8.2669000">
        <ele>1073.7</ele>
        <time>2022-08-27T16:11:57Z</time>
      </trkpt>
      <trkpt lat="42.2911590" lon="-8.2668970">
        <ele>1073.8</ele>
        <time>2022-08-27T16:11:58Z</time>
      </trkpt>
      <trkpt lat="42.2911740" lon="-8.2668870">
        <ele>1074.0</ele>
        <time>2022-08-27T16:11:59Z</time>
      </trkpt>
      <trkpt lat="42.2911980" lon="-8.2668820">
        <ele>1074.2</ele>
        <time>2022-08-27T16:12:01Z</time>
      </trkpt>
      <trkpt lat="42.2912260" lon="-8.2668810">
        <ele>1074.6</ele>
        <time>2022-08-27T16:12:02Z</time>
      </trkpt>
      <trkpt lat="42.2912370" lon="-8.2668810">
        <ele>1074.7</ele>
        <time>2022-08-27T16:12:03Z</time>
      </trkpt>
      <trkpt lat="42.2912540" lon="-8.2668790">
        <ele>1074.9</ele>
        <time>2022-08-27T16:12:04Z</time>
      </trkpt>
      <trkpt lat="42.2912670" lon="-8.2668760">
        <ele>1075.0</ele>
        <time>2022-08-27T16:12:05Z</time>
      </trkpt>
      <trkpt lat="42.2912830" lon="-8.2668760">
        <ele>1075.2</ele>
        <time>2022-08-27T16:12:06Z</time>
      </trkpt>
      <trkpt lat="42.2912930" lon="-8.2668750">
        <ele>1075.3</ele>
        <time>2022-08-27T16:12:07Z</time>
      </trkpt>
      <trkpt lat="42.2913040" lon="-8.2668740">
        <ele>1075.5</ele>
        <time>2022-08-27T16:12:09Z</time>
      </trkpt>
      <trkpt lat="42.2913200" lon="-8.2668700">
        <ele>1075.7</ele>
        <time>2022-08-27T16:12:10Z</time>
      </trkpt>
      <trkpt lat="42.2913270" lon="-8.2668700">
        <ele>1075.7</ele>
        <time>2022-08-27T16:12:11Z</time>
      </trkpt>
      <trkpt lat="42.2913340" lon="-8.2668700">
        <ele>1075.8</ele>
        <time>2022-08-27T16:12:12Z</time>
      </trkpt>
      <trkpt lat="42.2913410" lon="-8.2668700">
        <ele>1075.9</ele>
        <time>2022-08-27T16:12:13Z</time>
      </trkpt>
      <trkpt lat="42.2913530" lon="-8.2668700">
        <ele>1076.0</ele>
        <time>2022-08-27T16:12:14Z</time>
      </trkpt>
      <trkpt lat="42.2913650" lon="-8.2668750">
        <ele>1076.1</ele>
        <time>2022-08-27T16:12:15Z</time>
      </trkpt>
      <trkpt lat="42.2913730" lon="-8.2668760">
        <ele>1076.2</ele>
        <time>2022-08-27T16:12:16Z</time>
      </trkpt>
      <trkpt lat="42.2914010" lon="-8.2668790">
        <ele>1076.5</ele>
        <time>2022-08-27T16:12:18Z</time>
      </trkpt>
      <trkpt lat="42.2914150" lon="-8.2668850">
        <ele>1076.7</ele>
        <time>2022-08-27T16:12:19Z</time>
      </trkpt>
      <trkpt lat="42.2914340" lon="-8.2668970">
        <ele>1076.9</ele>
        <time>2022-08-27T16:12:20Z</time>
      </trkpt>
      <trkpt lat="42.2914490" lon="-8.2669020">
        <ele>1077.0</ele>
        <time>2022-08-27T16:12:21Z</time>
      </trkpt>
      <trkpt lat="42.2914590" lon="-8.2669090">
        <ele>1077.1</ele>
        <time>2022-08-27T16:12:22Z</time>
      </trkpt>
      <trkpt lat="42.2914840" lon="-8.2669170">
        <ele>1077.4</ele>
        <time>2022-08-27T16:12:24Z</time>
      </trkpt>
      <trkpt lat="42.2915000" lon="-8.2669100">
        <ele>1077.5</ele>
        <time>2022-08-27T16:12:25Z</time>
      </trkpt>
      <trkpt lat="42.2915130" lon="-8.2669100">
        <ele>1077.6</ele>
        <time>2022-08-27T16:12:26Z</time>
      </trkpt>
      <trkpt lat="42.2915310" lon="-8.2669180">
        <ele>1077.8</ele>
        <time>2022-08-27T16:12:27Z</time>
      </trkpt>
      <trkpt lat="42.2915450" lon="-8.2669240">
        <ele>1077.9</ele>
        <time>2022-08-27T16:12:28Z</time>
      </trkpt>
      <trkpt lat="42.2915850" lon="-8.2669500">
        <ele>1078.2</ele>
        <time>2022-08-27T16:12:30Z</time>
      </trkpt>
      <trkpt lat="42.2915990" lon="-8.2669600">
        <ele>1078.3</ele>
        <time>2022-08-27T16:12:31Z</time>
      </trkpt>
      <trkpt lat="42.2916120" lon="-8.2669700">
        <ele>1078.4</ele>
        <time>2022-08-27T16:12:32Z</time>
      </trkpt>
      <trkpt lat="42.2916350" lon="-8.2669780">
        <ele>1078.6</ele>
        <time>2022-08-27T16:12:33Z</time>
      </trkpt>
      <trkpt lat="42.2916650" lon="-8.2669840">
        <ele>1078.8</ele>
        <time>2022-08-27T16:12:35Z</time>
      </trkpt>
      <trkpt lat="42.2917010" lon="-8.2669970">
        <ele>1079.0</ele>
        <time>2022-08-27T16:12:36Z</time>
      </trkpt>
      <trkpt lat="42.2917130" lon="-8.2670030">
        <ele>1079.0</ele>
        <time>2022-08-27T16:12:37Z</time>
      </trkpt>
      <trkpt lat="42.2917390" lon="-8.2670180">
        <ele>1079.1</ele>
        <time>2022-08-27T16:12:38Z</time>
      </trkpt>
      <trkpt lat="42.2917600" lon="-8.2670190">
        <ele>1079.2</ele>
        <time>2022-08-27T16:12:39Z</time>
      </trkpt>
      <trkpt lat="42.2917910" lon="-8.2670270">
        <ele>1079.3</ele>
        <time>2022-08-27T16:12:41Z</time>
      </trkpt>
      <trkpt lat="42.2918170" lon="-8.2670350">
        <ele>1079.4</ele>
        <time>2022-08-27T16:12:42Z</time>
      </trkpt>
      <trkpt lat="42.2918510" lon="-8.2670370">
        <ele>1079.6</ele>
        <time>2022-08-27T16:12:43Z</time>
      </trkpt>
      <trkpt lat="42.2918610" lon="-8.2670380">
        <ele>1079.6</ele>
        <time>2022-08-27T16:12:44Z</time>
      </trkpt>
      <trkpt lat="42.2919030" lon="-8.2670440">
        <ele>1079.8</ele>
        <time>2022-08-27T16:12:45Z</time>
      </trkpt>
      <trkpt lat="42.2919200" lon="-8.2670470">
        <ele>1079.8</ele>
        <time>2022-08-27T16:12:46Z</time>
      </trkpt>
      <trkpt lat="42.2919630" lon="-8.2670510">
        <ele>1080.0</ele>
        <time>2022-08-27T16:12:48Z</time>
      </trkpt>
      <trkpt lat="42.2919800" lon="-8.2670520">
        <ele>1080.1</ele>
        <time>2022-08-27T16:12:49Z</time>
      </trkpt>
      <trkpt lat="42.2919960" lon="-8.2670530">
        <ele>1080.2</ele>
        <time>2022-08-27T16:12:50Z</time>
      </trkpt>
      <trkpt lat="42.2920250" lon="-8.2670540">
        <ele>1080.3</ele>
        <time>2022-08-27T16:12:51Z</time>
      </trkpt>
      <trkpt lat="42.2920610" lon="-8.2670480">
        <ele>1080.5</ele>
        <time>2022-08-27T16:12:52Z</time>
      </trkpt>
      <trkpt lat="42.2920730" lon="-8.2670460">
        <ele>1080.5</ele>
        <time>2022-08-27T16:12:53Z</time>
      </trkpt>
      <trkpt lat="42.2921070" lon="-8.2670370">
        <ele>1080.7</ele>
        <time>2022-08-27T16:12:54Z</time>
      </trkpt>
      <trkpt lat="42.2921160" lon="-8.2670330">
        <ele>1080.8</ele>
        <time>2022-08-27T16:12:55Z</time>
      </trkpt>
      <trkpt lat="42.2921390" lon="-8.2670230">
        <ele>1080.9</ele>
        <time>2022-08-27T16:12:56Z</time>
      </trkpt>
      <trkpt lat="42.2921600" lon="-8.2670180">
        <ele>1081.0</ele>
        <time>2022-08-27T16:12:58Z</time>
      </trkpt>
      <trkpt lat="42.2921870" lon="-8.2669900">
        <ele>1081.2</ele>
        <time>2022-08-27T16:12:59Z</time>
      </trkpt>
      <trkpt lat="42.2921960" lon="-8.2669780">
        <ele>1081.3</ele>
        <time>2022-08-27T16:13:00Z</time>
      </trkpt>
      <trkpt lat="42.2922110" lon="-8.2669610">
        <ele>1081.4</ele>
        <time>2022-08-27T16:13:01Z</time>
      </trkpt>
      <trkpt lat="42.2922350" lon="-8.2669260">
        <ele>1081.7</ele>
        <time>2022-08-27T16:13:03Z</time>
      </trkpt>
      <trkpt lat="42.2922610" lon="-8.2668970">
        <ele>1081.9</ele>
        <time>2022-08-27T16:13:04Z</time>
      </trkpt>
      <trkpt lat="42.2922690" lon="-8.2668880">
        <ele>1082.0</ele>
        <time>2022-08-27T16:13:05Z</time>
      </trkpt>
      <trkpt lat="42.2922930" lon="-8.2668550">
        <ele>1082.2</ele>
        <time>2022-08-27T16:13:06Z</time>
      </trkpt>
      <trkpt lat="42.2923230" lon="-8.2668050">
        <ele>1082.5</ele>
        <time>2022-08-27T16:13:08Z</time>
      </trkpt>
      <trkpt lat="42.2923330" lon="-8.2667850">
        <ele>1082.6</ele>
        <time>2022-08-27T16:13:09Z</time>
      </trkpt>
      <trkpt lat="42.2923430" lon="-8.2667660">
        <ele>1082.7</ele>
        <time>2022-08-27T16:13:10Z</time>
      </trkpt>
      <trkpt lat="42.2923650" lon="-8.2667340">
        <ele>1082.8</ele>
        <time>2022-08-27T16:13:11Z</time>
      </trkpt>
      <trkpt lat="42.2923960" lon="-8.2666930">
        <ele>1083.1</ele>
        <time>2022-08-27T16:13:13Z</time>
      </trkpt>
      <trkpt lat="42.2924260" lon="-8.2666610">
        <ele>1083.2</ele>
        <time>2022-08-27T16:13:14Z</time>
      </trkpt>
      <trkpt lat="42.2924360" lon="-8.2666530">
        <ele>1083.3</ele>
        <time>2022-08-27T16:13:15Z</time>
      </trkpt>
      <trkpt lat="42.2924720" lon="-8.2666350">
        <ele>1083.4</ele>
        <time>2022-08-27T16:13:16Z</time>
      </trkpt>
      <trkpt lat="42.2925000" lon="-8.2666200">
        <ele>1083.5</ele>
        <time>2022-08-27T16:13:18Z</time>
      </trkpt>
      <trkpt lat="42.2925310" lon="-8.2666000">
        <ele>1083.7</ele>
        <time>2022-08-27T16:13:19Z</time>
      </trkpt>
      <trkpt lat="42.2925580" lon="-8.2665830">
        <ele>1083.7</ele>
        <time>2022-08-27T16:13:20Z</time>
      </trkpt>
      <trkpt lat="42.2925870" lon="-8.2665660">
        <ele>1083.8</ele>
        <time>2022-08-27T16:13:21Z</time>
      </trkpt>
      <trkpt lat="42.2926150" lon="-8.2665530">
        <ele>1083.9</ele>
        <time>2022-08-27T16:13:22Z</time>
      </trkpt>
      <trkpt lat="42.2926440" lon="-8.2665350">
        <ele>1083.9</ele>
        <time>2022-08-27T16:13:24Z</time>
      </trkpt>
      <trkpt lat="42.2926720" lon="-8.2665200">
        <ele>1084.0</ele>
        <time>2022-08-27T16:13:25Z</time>
      </trkpt>
      <trkpt lat="42.2927050" lon="-8.2665000">
        <ele>1084.0</ele>
        <time>2022-08-27T16:13:26Z</time>
      </trkpt>
      <trkpt lat="42.2927340" lon="-8.2664820">
        <ele>1084.1</ele>
        <time>2022-08-27T16:13:27Z</time>
      </trkpt>
      <trkpt lat="42.2927650" lon="-8.2664660">
        <ele>1084.1</ele>
        <time>2022-08-27T16:13:28Z</time>
      </trkpt>
      <trkpt lat="42.2928000" lon="-8.2664470">
        <ele>1084.1</ele>
        <time>2022-08-27T16:13:29Z</time>
      </trkpt>
      <trkpt lat="42.2928340" lon="-8.2664260">
        <ele>1084.1</ele>
        <time>2022-08-27T16:13:30Z</time>
      </trkpt>
      <trkpt lat="42.2928730" lon="-8.2663970">
        <ele>1084.1</ele>
        <time>2022-08-27T16:13:31Z</time>
      </trkpt>
      <trkpt lat="42.2929310" lon="-8.2663640">
        <ele>1084.1</ele>
        <time>2022-08-27T16:13:33Z</time>
      </trkpt>
      <trkpt lat="42.2929780" lon="-8.2663440">
        <ele>1084.0</ele>
        <time>2022-08-27T16:13:34Z</time>
      </trkpt>
      <trkpt lat="42.2930410" lon="-8.2663220">
        <ele>1084.0</ele>
        <time>2022-08-27T16:13:36Z</time>
      </trkpt>
      <trkpt lat="42.2930940" lon="-8.2663110">
        <ele>1083.9</ele>
        <time>2022-08-27T16:13:37Z</time>
      </trkpt>
      <trkpt lat="42.2931720" lon="-8.2663050">
        <ele>1083.9</ele>
        <time>2022-08-27T16:13:39Z</time>
      </trkpt>
      <trkpt lat="42.2932130" lon="-8.2663130">
        <ele>1083.8</ele>
        <time>2022-08-27T16:13:40Z</time>
      </trkpt>
      <trkpt lat="42.2932590" lon="-8.2663270">
        <ele>1083.7</ele>
        <time>2022-08-27T16:13:41Z</time>
      </trkpt>
      <trkpt lat="42.2933000" lon="-8.2663420">
        <ele>1083.7</ele>
        <time>2022-08-27T16:13:42Z</time>
      </trkpt>
      <trkpt lat="42.2933410" lon="-8.2663590">
        <ele>1083.7</ele>
        <time>2022-08-27T16:13:43Z</time>
      </trkpt>
      <trkpt lat="42.2933770" lon="-8.2663770">
        <ele>1083.7</ele>
        <time>2022-08-27T16:13:44Z</time>
      </trkpt>
      <trkpt lat="42.2934130" lon="-8.2663940">
        <ele>1083.7</ele>
        <time>2022-08-27T16:13:45Z</time>
      </trkpt>
      <trkpt lat="42.2934460" lon="-8.2664130">
        <ele>1083.6</ele>
        <time>2022-08-27T16:13:46Z</time>
      </trkpt>
      <trkpt lat="42.2934810" lon="-8.2664340">
        <ele>1083.6</ele>
        <time>2022-08-27T16:13:47Z</time>
      </trkpt>
      <trkpt lat="42.2935100" lon="-8.2664540">
        <ele>1083.6</ele>
        <time>2022-08-27T16:13:48Z</time>
      </trkpt>
      <trkpt lat="42.2935460" lon="-8.2664580">
        <ele>1083.6</ele>
        <time>2022-08-27T16:13:49Z</time>
      </trkpt>
      <trkpt lat="42.2936200" lon="-8.2664620">
        <ele>1083.6</ele>
        <time>2022-08-27T16:13:51Z</time>
      </trkpt>
      <trkpt lat="42.2936520" lon="-8.2664740">
        <ele>1083.6</ele>
        <time>2022-08-27T16:13:52Z</time>
      </trkpt>
      <trkpt lat="42.2937290" lon="-8.2665070">
        <ele>1083.6</ele>
        <time>2022-08-27T16:13:53Z</time>
      </trkpt>
      <trkpt lat="42.2937660" lon="-8.2665160">
        <ele>1083.6</ele>
        <time>2022-08-27T16:13:54Z</time>
      </trkpt>
      <trkpt lat="42.2938230" lon="-8.2665270">
        <ele>1083.6</ele>
        <time>2022-08-27T16:13:56Z</time>
      </trkpt>
      <trkpt lat="42.2938760" lon="-8.2665380">
        <ele>1083.7</ele>
        <time>2022-08-27T16:13:57Z</time>
      </trkpt>
      <trkpt lat="42.2939170" lon="-8.2665460">
        <ele>1083.7</ele>
        <time>2022-08-27T16:13:58Z</time>
      </trkpt>
      <trkpt lat="42.2939720" lon="-8.2665660">
        <ele>1083.8</ele>
        <time>2022-08-27T16:13:59Z</time>
      </trkpt>
      <trkpt lat="42.2940160" lon="-8.2665780">
        <ele>1083.8</ele>
        <time>2022-08-27T16:14:01Z</time>
      </trkpt>
      <trkpt lat="42.2940630" lon="-8.2665940">
        <ele>1083.8</ele>
        <time>2022-08-27T16:14:02Z</time>
      </trkpt>
      <trkpt lat="42.2941610" lon="-8.2666160">
        <ele>1083.7</ele>
        <time>2022-08-27T16:14:04Z</time>
      </trkpt>
      <trkpt lat="42.2941970" lon="-8.2666290">
        <ele>1083.7</ele>
        <time>2022-08-27T16:14:06Z</time>
      </trkpt>
      <trkpt lat="42.2942750" lon="-8.2666480">
        <ele>1083.5</ele>
        <time>2022-08-27T16:14:07Z</time>
      </trkpt>
      <trkpt lat="42.2943270" lon="-8.2666630">
        <ele>1083.4</ele>
        <time>2022-08-27T16:14:08Z</time>
      </trkpt>
      <trkpt lat="42.2943820" lon="-8.2666770">
        <ele>1083.3</ele>
        <time>2022-08-27T16:14:09Z</time>
      </trkpt>
      <trkpt lat="42.2944290" lon="-8.2666920">
        <ele>1083.3</ele>
        <time>2022-08-27T16:14:10Z</time>
      </trkpt>
      <trkpt lat="42.2944780" lon="-8.2667100">
        <ele>1083.3</ele>
        <time>2022-08-27T16:14:11Z</time>
      </trkpt>
      <trkpt lat="42.2945220" lon="-8.2667210">
        <ele>1083.3</ele>
        <time>2022-08-27T16:14:12Z</time>
      </trkpt>
      <trkpt lat="42.2945710" lon="-8.2667330">
        <ele>1083.3</ele>
        <time>2022-08-27T16:14:13Z</time>
      </trkpt>
      <trkpt lat="42.2946160" lon="-8.2667450">
        <ele>1083.3</ele>
        <time>2022-08-27T16:14:14Z</time>
      </trkpt>
      <trkpt lat="42.2946540" lon="-8.2667580">
        <ele>1083.4</ele>
        <time>2022-08-27T16:14:15Z</time>
      </trkpt>
      <trkpt lat="42.2946880" lon="-8.2667730">
        <ele>1083.4</ele>
        <time>2022-08-27T16:14:16Z</time>
      </trkpt>
      <trkpt lat="42.2947290" lon="-8.2667800">
        <ele>1083.5</ele>
        <time>2022-08-27T16:14:17Z</time>
      </trkpt>
      <trkpt lat="42.2947670" lon="-8.2667830">
        <ele>1083.6</ele>
        <time>2022-08-27T16:14:18Z</time>
      </trkpt>
      <trkpt lat="42.2948160" lon="-8.2667950">
        <ele>1083.7</ele>
        <time>2022-08-27T16:14:19Z</time>
      </trkpt>
      <trkpt lat="42.2948560" lon="-8.2668050">
        <ele>1083.8</ele>
        <time>2022-08-27T16:14:21Z</time>
      </trkpt>
      <trkpt lat="42.2948960" lon="-8.2668070">
        <ele>1083.9</ele>
        <time>2022-08-27T16:14:22Z</time>
      </trkpt>
      <trkpt lat="42.2949240" lon="-8.2668140">
        <ele>1084.0</ele>
        <time>2022-08-27T16:14:23Z</time>
      </trkpt>
      <trkpt lat="42.2949520" lon="-8.2668230">
        <ele>1084.1</ele>
        <time>2022-08-27T16:14:24Z</time>
      </trkpt>
      <trkpt lat="42.2949830" lon="-8.2668290">
        <ele>1084.3</ele>
        <time>2022-08-27T16:14:25Z</time>
      </trkpt>
      <trkpt lat="42.2950170" lon="-8.2668340">
        <ele>1084.4</ele>
        <time>2022-08-27T16:14:26Z</time>
      </trkpt>
      <trkpt lat="42.2950480" lon="-8.2668440">
        <ele>1084.5</ele>
        <time>2022-08-27T16:14:28Z</time>
      </trkpt>
      <trkpt lat="42.2950890" lon="-8.2668470">
        <ele>1084.7</ele>
        <time>2022-08-27T16:14:29Z</time>
      </trkpt>
      <trkpt lat="42.2951230" lon="-8.2668590">
        <ele>1084.9</ele>
        <time>2022-08-27T16:14:30Z</time>
      </trkpt>
      <trkpt lat="42.2951510" lon="-8.2668810">
        <ele>1085.0</ele>
        <time>2022-08-27T16:14:31Z</time>
      </trkpt>
      <trkpt lat="42.2951860" lon="-8.2669000">
        <ele>1085.2</ele>
        <time>2022-08-27T16:14:32Z</time>
      </trkpt>
      <trkpt lat="42.2952270" lon="-8.2669190">
        <ele>1085.4</ele>
        <time>2022-08-27T16:14:34Z</time>
      </trkpt>
      <trkpt lat="42.2952540" lon="-8.2669370">
        <ele>1085.6</ele>
        <time>2022-08-27T16:14:35Z</time>
      </trkpt>
      <trkpt lat="42.2952830" lon="-8.2669610">
        <ele>1085.8</ele>
        <time>2022-08-27T16:14:36Z</time>
      </trkpt>
      <trkpt lat="42.2953160" lon="-8.2669880">
        <ele>1086.0</ele>
        <time>2022-08-27T16:14:38Z</time>
      </trkpt>
      <trkpt lat="42.2953450" lon="-8.2670180">
        <ele>1086.2</ele>
        <time>2022-08-27T16:14:39Z</time>
      </trkpt>
      <trkpt lat="42.2953740" lon="-8.2670360">
        <ele>1086.4</ele>
        <time>2022-08-27T16:14:40Z</time>
      </trkpt>
      <trkpt lat="42.2954050" lon="-8.2670570">
        <ele>1086.6</ele>
        <time>2022-08-27T16:14:42Z</time>
      </trkpt>
      <trkpt lat="42.2954280" lon="-8.2670800">
        <ele>1086.8</ele>
        <time>2022-08-27T16:14:43Z</time>
      </trkpt>
      <trkpt lat="42.2954470" lon="-8.2670880">
        <ele>1086.9</ele>
        <time>2022-08-27T16:14:44Z</time>
      </trkpt>
      <trkpt lat="42.2954680" lon="-8.2671080">
        <ele>1087.1</ele>
        <time>2022-08-27T16:14:46Z</time>
      </trkpt>
      <trkpt lat="42.2954990" lon="-8.2671310">
        <ele>1087.3</ele>
        <time>2022-08-27T16:14:47Z</time>
      </trkpt>
      <trkpt lat="42.2955100" lon="-8.2671390">
        <ele>1087.4</ele>
        <time>2022-08-27T16:14:48Z</time>
      </trkpt>
      <trkpt lat="42.2955390" lon="-8.2671620">
        <ele>1087.6</ele>
        <time>2022-08-27T16:14:49Z</time>
      </trkpt>
      <trkpt lat="42.2955490" lon="-8.2671700">
        <ele>1087.6</ele>
        <time>2022-08-27T16:14:50Z</time>
      </trkpt>
      <trkpt lat="42.2955750" lon="-8.2671880">
        <ele>1087.8</ele>
        <time>2022-08-27T16:14:51Z</time>
      </trkpt>
      <trkpt lat="42.2955820" lon="-8.2671940">
        <ele>1087.9</ele>
        <time>2022-08-27T16:14:52Z</time>
      </trkpt>
      <trkpt lat="42.2956110" lon="-8.2672160">
        <ele>1088.1</ele>
        <time>2022-08-27T16:14:53Z</time>
      </trkpt>
      <trkpt lat="42.2956210" lon="-8.2672240">
        <ele>1088.1</ele>
        <time>2022-08-27T16:14:54Z</time>
      </trkpt>
      <trkpt lat="42.2956500" lon="-8.2672420">
        <ele>1088.3</ele>
        <time>2022-08-27T16:14:55Z</time>
      </trkpt>
      <trkpt lat="42.2956610" lon="-8.2672480">
        <ele>1088.4</ele>
        <time>2022-08-27T16:14:56Z</time>
      </trkpt>
      <trkpt lat="42.2956960" lon="-8.2672660">
        <ele>1088.6</ele>
        <time>2022-08-27T16:14:57Z</time>
      </trkpt>
      <trkpt lat="42.2957070" lon="-8.2672700">
        <ele>1088.7</ele>
        <time>2022-08-27T16:14:58Z</time>
      </trkpt>
      <trkpt lat="42.2957380" lon="-8.2672790">
        <ele>1088.9</ele>
        <time>2022-08-27T16:15:00Z</time>
      </trkpt>
      <trkpt lat="42.2957640" lon="-8.2672890">
        <ele>1089.1</ele>
        <time>2022-08-27T16:15:01Z</time>
      </trkpt>
      <trkpt lat="42.2957890" lon="-8.2673100">
        <ele>1089.2</ele>
        <time>2022-08-27T16:15:02Z</time>
      </trkpt>
      <trkpt lat="42.2957980" lon="-8.2673160">
        <ele>1089.3</ele>
        <time>2022-08-27T16:15:03Z</time>
      </trkpt>
      <trkpt lat="42.2958340" lon="-8.2673220">
        <ele>1089.5</ele>
        <time>2022-08-27T16:15:04Z</time>
      </trkpt>
      <trkpt lat="42.2958470" lon="-8.2673220">
        <ele>1089.5</ele>
        <time>2022-08-27T16:15:05Z</time>
      </trkpt>
      <trkpt lat="42.2958750" lon="-8.2673220">
        <ele>1089.7</ele>
        <time>2022-08-27T16:15:06Z</time>
      </trkpt>
      <trkpt lat="42.2959120" lon="-8.2673160">
        <ele>1089.9</ele>
        <time>2022-08-27T16:15:07Z</time>
      </trkpt>
      <trkpt lat="42.2959580" lon="-8.2672940">
        <ele>1090.1</ele>
        <time>2022-08-27T16:15:09Z</time>
      </trkpt>
      <trkpt lat="42.2959770" lon="-8.2672880">
        <ele>1090.2</ele>
        <time>2022-08-27T16:15:10Z</time>
      </trkpt>
      <trkpt lat="42.2959970" lon="-8.2672810">
        <ele>1090.2</ele>
        <time>2022-08-27T16:15:11Z</time>
      </trkpt>
      <trkpt lat="42.2960240" lon="-8.2672700">
        <ele>1090.3</ele>
        <time>2022-08-27T16:15:12Z</time>
      </trkpt>
      <trkpt lat="42.2960590" lon="-8.2672530">
        <ele>1090.4</ele>
        <time>2022-08-27T16:15:13Z</time>
      </trkpt>
      <trkpt lat="42.2960710" lon="-8.2672470">
        <ele>1090.5</ele>
        <time>2022-08-27T16:15:14Z</time>
      </trkpt>
      <trkpt lat="42.2960960" lon="-8.2672300">
        <ele>1090.5</ele>
        <time>2022-08-27T16:15:15Z</time>
      </trkpt>
      <trkpt lat="42.2961300" lon="-8.2672040">
        <ele>1090.6</ele>
        <time>2022-08-27T16:15:16Z</time>
      </trkpt>
      <trkpt lat="42.2961410" lon="-8.2671930">
        <ele>1090.6</ele>
        <time>2022-08-27T16:15:17Z</time>
      </trkpt>
      <trkpt lat="42.2961620" lon="-8.2671680">
        <ele>1090.7</ele>
        <time>2022-08-27T16:15:18Z</time>
      </trkpt>
      <trkpt lat="42.2961880" lon="-8.2671350">
        <ele>1090.7</ele>
        <time>2022-08-27T16:15:19Z</time>
      </trkpt>
      <trkpt lat="42.2962290" lon="-8.2670870">
        <ele>1090.7</ele>
        <time>2022-08-27T16:15:21Z</time>
      </trkpt>
      <trkpt lat="42.2962770" lon="-8.2670100">
        <ele>1090.7</ele>
        <time>2022-08-27T16:15:22Z</time>
      </trkpt>
      <trkpt lat="42.2962870" lon="-8.2669780">
        <ele>1090.7</ele>
        <time>2022-08-27T16:15:23Z</time>
      </trkpt>
      <trkpt lat="42.2963110" lon="-8.2669470">
        <ele>1090.7</ele>
        <time>2022-08-27T16:15:25Z</time>
      </trkpt>
      <trkpt lat="42.2963520" lon="-8.2669180">
        <ele>1090.7</ele>
        <time>2022-08-27T16:15:26Z</time>
      </trkpt>
      <trkpt lat="42.2963930" lon="-8.2668790">
        <ele>1090.6</ele>
        <time>2022-08-27T16:15:27Z</time>
      </trkpt>
      <trkpt lat="42.2964280" lon="-8.2668490">
        <ele>1090.6</ele>
        <time>2022-08-27T16:15:28Z</time>
      </trkpt>
      <trkpt lat="42.2964620" lon="-8.2668250">
        <ele>1090.6</ele>
        <time>2022-08-27T16:15:29Z</time>
      </trkpt>
      <trkpt lat="42.2965080" lon="-8.2667840">
        <ele>1090.5</ele>
        <time>2022-08-27T16:15:30Z</time>
      </trkpt>
      <trkpt lat="42.2965490" lon="-8.2667600">
        <ele>1090.5</ele>
        <time>2022-08-27T16:15:31Z</time>
      </trkpt>
      <trkpt lat="42.2966070" lon="-8.2667240">
        <ele>1090.4</ele>
        <time>2022-08-27T16:15:33Z</time>
      </trkpt>
      <trkpt lat="42.2966520" lon="-8.2667030">
        <ele>1090.4</ele>
        <time>2022-08-27T16:15:34Z</time>
      </trkpt>
      <trkpt lat="42.2967110" lon="-8.2666740">
        <ele>1090.3</ele>
        <time>2022-08-27T16:15:36Z</time>
      </trkpt>
      <trkpt lat="42.2967610" lon="-8.2666590">
        <ele>1090.3</ele>
        <time>2022-08-27T16:15:37Z</time>
      </trkpt>
      <trkpt lat="42.2968010" lon="-8.2666560">
        <ele>1090.3</ele>
        <time>2022-08-27T16:15:38Z</time>
      </trkpt>
      <trkpt lat="42.2968340" lon="-8.2666480">
        <ele>1090.3</ele>
        <time>2022-08-27T16:15:39Z</time>
      </trkpt>
      <trkpt lat="42.2968810" lon="-8.2666490">
        <ele>1090.3</ele>
        <time>2022-08-27T16:15:40Z</time>
      </trkpt>
      <trkpt lat="42.2969130" lon="-8.2666540">
        <ele>1090.4</ele>
        <time>2022-08-27T16:15:41Z</time>
      </trkpt>
      <trkpt lat="42.2969710" lon="-8.2666440">
        <ele>1090.5</ele>
        <time>2022-08-27T16:15:43Z</time>
      </trkpt>
      <trkpt lat="42.2970040" lon="-8.2666470">
        <ele>1090.6</ele>
        <time>2022-08-27T16:15:44Z</time>
      </trkpt>
      <trkpt lat="42.2970390" lon="-8.2666570">
        <ele>1090.7</ele>
        <time>2022-08-27T16:15:45Z</time>
      </trkpt>
      <trkpt lat="42.2970730" lon="-8.2666700">
        <ele>1090.9</ele>
        <time>2022-08-27T16:15:46Z</time>
      </trkpt>
      <trkpt lat="42.2971100" lon="-8.2666770">
        <ele>1091.0</ele>
        <time>2022-08-27T16:15:47Z</time>
      </trkpt>
      <trkpt lat="42.2971390" lon="-8.2666740">
        <ele>1091.1</ele>
        <time>2022-08-27T16:15:48Z</time>
      </trkpt>
      <trkpt lat="42.2971700" lon="-8.2666690">
        <ele>1091.3</ele>
        <time>2022-08-27T16:15:49Z</time>
      </trkpt>
      <trkpt lat="42.2972000" lon="-8.2666710">
        <ele>1091.4</ele>
        <time>2022-08-27T16:15:50Z</time>
      </trkpt>
      <trkpt lat="42.2972350" lon="-8.2666750">
        <ele>1091.6</ele>
        <time>2022-08-27T16:15:51Z</time>
      </trkpt>
      <trkpt lat="42.2972670" lon="-8.2666760">
        <ele>1091.8</ele>
        <time>2022-08-27T16:15:52Z</time>
      </trkpt>
      <trkpt lat="42.2973000" lon="-8.2666830">
        <ele>1092.0</ele>
        <time>2022-08-27T16:15:54Z</time>
      </trkpt>
      <trkpt lat="42.2973300" lon="-8.2666830">
        <ele>1092.1</ele>
        <time>2022-08-27T16:15:55Z</time>
      </trkpt>
      <trkpt lat="42.2973780" lon="-8.2666720">
        <ele>1092.4</ele>
        <time>2022-08-27T16:15:57Z</time>
      </trkpt>
      <trkpt lat="42.2973920" lon="-8.2666710">
        <ele>1092.5</ele>
        <time>2022-08-27T16:15:58Z</time>
      </trkpt>
      <trkpt lat="42.2974050" lon="-8.2666690">
        <ele>1092.6</ele>
        <time>2022-08-27T16:15:59Z</time>
      </trkpt>
      <trkpt lat="42.2974380" lon="-8.2666670">
        <ele>1092.8</ele>
        <time>2022-08-27T16:16:00Z</time>
      </trkpt>
      <trkpt lat="42.2974720" lon="-8.2666630">
        <ele>1093.0</ele>
        <time>2022-08-27T16:16:01Z</time>
      </trkpt>
      <trkpt lat="42.2974820" lon="-8.2666620">
        <ele>1093.0</ele>
        <time>2022-08-27T16:16:02Z</time>
      </trkpt>
      <trkpt lat="42.2975140" lon="-8.2666540">
        <ele>1093.2</ele>
        <time>2022-08-27T16:16:03Z</time>
      </trkpt>
      <trkpt lat="42.2975230" lon="-8.2666530">
        <ele>1093.3</ele>
        <time>2022-08-27T16:16:04Z</time>
      </trkpt>
      <trkpt lat="42.2975520" lon="-8.2666450">
        <ele>1093.5</ele>
        <time>2022-08-27T16:16:05Z</time>
      </trkpt>
      <trkpt lat="42.2975620" lon="-8.2666420">
        <ele>1093.5</ele>
        <time>2022-08-27T16:16:06Z</time>
      </trkpt>
      <trkpt lat="42.2976010" lon="-8.2666360">
        <ele>1093.8</ele>
        <time>2022-08-27T16:16:07Z</time>
      </trkpt>
      <trkpt lat="42.2976130" lon="-8.2666340">
        <ele>1093.8</ele>
        <time>2022-08-27T16:16:08Z</time>
      </trkpt>
      <trkpt lat="42.2976580" lon="-8.2666280">
        <ele>1094.2</ele>
        <time>2022-08-27T16:16:10Z</time>
      </trkpt>
      <trkpt lat="42.2976720" lon="-8.2666240">
        <ele>1094.2</ele>
        <time>2022-08-27T16:16:11Z</time>
      </trkpt>
      <trkpt lat="42.2976860" lon="-8.2666190">
        <ele>1094.3</ele>
        <time>2022-08-27T16:16:12Z</time>
      </trkpt>
      <trkpt lat="42.2977190" lon="-8.2666170">
        <ele>1094.6</ele>
        <time>2022-08-27T16:16:14Z</time>
      </trkpt>
      <trkpt lat="42.2977280" lon="-8.2666170">
        <ele>1094.6</ele>
        <time>2022-08-27T16:16:15Z</time>
      </trkpt>
      <trkpt lat="42.2977640" lon="-8.2666230">
        <ele>1094.9</ele>
        <time>2022-08-27T16:16:16Z</time>
      </trkpt>
      <trkpt lat="42.2977790" lon="-8.2666250">
        <ele>1095.0</ele>
        <time>2022-08-27T16:16:17Z</time>
      </trkpt>
      <trkpt lat="42.2977970" lon="-8.2666260">
        <ele>1095.1</ele>
        <time>2022-08-27T16:16:19Z</time>
      </trkpt>
      <trkpt lat="42.2978090" lon="-8.2666270">
        <ele>1095.2</ele>
        <time>2022-08-27T16:16:20Z</time>
      </trkpt>
      <trkpt lat="42.2978200" lon="-8.2666240">
        <ele>1095.2</ele>
        <time>2022-08-27T16:16:21Z</time>
      </trkpt>
      <trkpt lat="42.2978360" lon="-8.2666240">
        <ele>1095.4</ele>
        <time>2022-08-27T16:16:22Z</time>
      </trkpt>
      <trkpt lat="42.2978710" lon="-8.2666150">
        <ele>1095.6</ele>
        <time>2022-08-27T16:16:23Z</time>
      </trkpt>
      <trkpt lat="42.2978820" lon="-8.2666120">
        <ele>1095.7</ele>
        <time>2022-08-27T16:16:24Z</time>
      </trkpt>
      <trkpt lat="42.2979150" lon="-8.2666030">
        <ele>1095.9</ele>
        <time>2022-08-27T16:16:25Z</time>
      </trkpt>
      <trkpt lat="42.2979260" lon="-8.2666000">
        <ele>1096.0</ele>
        <time>2022-08-27T16:16:26Z</time>
      </trkpt>
      <trkpt lat="42.2979410" lon="-8.2665940">
        <ele>1096.1</ele>
        <time>2022-08-27T16:16:28Z</time>
      </trkpt>
      <trkpt lat="42.2979540" lon="-8.2665930">
        <ele>1096.2</ele>
        <time>2022-08-27T16:16:29Z</time>
      </trkpt>
      <trkpt lat="42.2979720" lon="-8.2665950">
        <ele>1096.3</ele>
        <time>2022-08-27T16:16:30Z</time>
      </trkpt>
      <trkpt lat="42.2979880" lon="-8.2665930">
        <ele>1096.4</ele>
        <time>2022-08-27T16:16:31Z</time>
      </trkpt>
      <trkpt lat="42.2980040" lon="-8.2665880">
        <ele>1096.5</ele>
        <time>2022-08-27T16:16:32Z</time>
      </trkpt>
      <trkpt lat="42.2980230" lon="-8.2665830">
        <ele>1096.7</ele>
        <time>2022-08-27T16:16:34Z</time>
      </trkpt>
      <trkpt lat="42.2980360" lon="-8.2665820">
        <ele>1096.8</ele>
        <time>2022-08-27T16:16:35Z</time>
      </trkpt>
      <trkpt lat="42.2980540" lon="-8.2665850">
        <ele>1096.9</ele>
        <time>2022-08-27T16:16:36Z</time>
      </trkpt>
      <trkpt lat="42.2980830" lon="-8.2665890">
        <ele>1097.1</ele>
        <time>2022-08-27T16:16:37Z</time>
      </trkpt>
      <trkpt lat="42.2980930" lon="-8.2665900">
        <ele>1097.2</ele>
        <time>2022-08-27T16:16:38Z</time>
      </trkpt>
      <trkpt lat="42.2981210" lon="-8.2665920">
        <ele>1097.4</ele>
        <time>2022-08-27T16:16:39Z</time>
      </trkpt>
      <trkpt lat="42.2981310" lon="-8.2665940">
        <ele>1097.5</ele>
        <time>2022-08-27T16:16:40Z</time>
      </trkpt>
      <trkpt lat="42.2981510" lon="-8.2665990">
        <ele>1097.6</ele>
        <time>2022-08-27T16:16:41Z</time>
      </trkpt>
      <trkpt lat="42.2981880" lon="-8.2665970">
        <ele>1097.9</ele>
        <time>2022-08-27T16:16:43Z</time>
      </trkpt>
      <trkpt lat="42.2982060" lon="-8.2665940">
        <ele>1098.1</ele>
        <time>2022-08-27T16:16:44Z</time>
      </trkpt>
      <trkpt lat="42.2982230" lon="-8.2665870">
        <ele>1098.2</ele>
        <time>2022-08-27T16:16:45Z</time>
      </trkpt>
      <trkpt lat="42.2982580" lon="-8.2665780">
        <ele>1098.5</ele>
        <time>2022-08-27T16:16:46Z</time>
      </trkpt>
      <trkpt lat="42.2982690" lon="-8.2665770">
        <ele>1098.6</ele>
        <time>2022-08-27T16:16:47Z</time>
      </trkpt>
      <trkpt lat="42.2982940" lon="-8.2665770">
        <ele>1098.8</ele>
        <time>2022-08-27T16:16:48Z</time>
      </trkpt>
      <trkpt lat="42.2983200" lon="-8.2665690">
        <ele>1099.0</ele>
        <time>2022-08-27T16:16:50Z</time>
      </trkpt>
      <trkpt lat="42.2983370" lon="-8.2665630">
        <ele>1099.1</ele>
        <time>2022-08-27T16:16:51Z</time>
      </trkpt>
      <trkpt lat="42.2983730" lon="-8.2665670">
        <ele>1099.4</ele>
        <time>2022-08-27T16:16:53Z</time>
      </trkpt>
      <trkpt lat="42.2984070" lon="-8.2665600">
        <ele>1099.7</ele>
        <time>2022-08-27T16:16:54Z</time>
      </trkpt>
      <trkpt lat="42.2984160" lon="-8.2665570">
        <ele>1099.8</ele>
        <time>2022-08-27T16:16:55Z</time>
      </trkpt>
      <trkpt lat="42.2984610" lon="-8.2665470">
        <ele>1100.2</ele>
        <time>2022-08-27T16:16:57Z</time>
      </trkpt>
      <trkpt lat="42.2984740" lon="-8.2665440">
        <ele>1100.3</ele>
        <time>2022-08-27T16:16:58Z</time>
      </trkpt>
      <trkpt lat="42.2984880" lon="-8.2665410">
        <ele>1100.4</ele>
        <time>2022-08-27T16:16:59Z</time>
      </trkpt>
      <trkpt lat="42.2985090" lon="-8.2665370">
        <ele>1100.6</ele>
        <time>2022-08-27T16:17:00Z</time>
      </trkpt>
      <trkpt lat="42.2985190" lon="-8.2665380">
        <ele>1100.6</ele>
        <time>2022-08-27T16:17:01Z</time>
      </trkpt>
      <trkpt lat="42.2985370" lon="-8.2665410">
        <ele>1100.8</ele>
        <time>2022-08-27T16:17:02Z</time>
      </trkpt>
      <trkpt lat="42.2985540" lon="-8.2665400">
        <ele>1100.9</ele>
        <time>2022-08-27T16:17:03Z</time>
      </trkpt>
      <trkpt lat="42.2985840" lon="-8.2665290">
        <ele>1101.1</ele>
        <time>2022-08-27T16:17:04Z</time>
      </trkpt>
      <trkpt lat="42.2986000" lon="-8.2665220">
        <ele>1101.2</ele>
        <time>2022-08-27T16:17:05Z</time>
      </trkpt>
      <trkpt lat="42.2986440" lon="-8.2665180">
        <ele>1101.5</ele>
        <time>2022-08-27T16:17:07Z</time>
      </trkpt>
      <trkpt lat="42.2986600" lon="-8.2665160">
        <ele>1101.6</ele>
        <time>2022-08-27T16:17:08Z</time>
      </trkpt>
      <trkpt lat="42.2986750" lon="-8.2665140">
        <ele>1101.7</ele>
        <time>2022-08-27T16:17:09Z</time>
      </trkpt>
      <trkpt lat="42.2986980" lon="-8.2665100">
        <ele>1101.9</ele>
        <time>2022-08-27T16:17:10Z</time>
      </trkpt>
      <trkpt lat="42.2987220" lon="-8.2665080">
        <ele>1102.0</ele>
        <time>2022-08-27T16:17:12Z</time>
      </trkpt>
      <trkpt lat="42.2987560" lon="-8.2665040">
        <ele>1102.2</ele>
        <time>2022-08-27T16:17:13Z</time>
      </trkpt>
      <trkpt lat="42.2987660" lon="-8.2665020">
        <ele>1102.3</ele>
        <time>2022-08-27T16:17:14Z</time>
      </trkpt>
      <trkpt lat="42.2987990" lon="-8.2664950">
        <ele>1102.5</ele>
        <time>2022-08-27T16:17:15Z</time>
      </trkpt>
      <trkpt lat="42.2988440" lon="-8.2664870">
        <ele>1102.8</ele>
        <time>2022-08-27T16:17:17Z</time>
      </trkpt>
      <trkpt lat="42.2988720" lon="-8.2664810">
        <ele>1103.0</ele>
        <time>2022-08-27T16:17:18Z</time>
      </trkpt>
      <trkpt lat="42.2988830" lon="-8.2664770">
        <ele>1103.1</ele>
        <time>2022-08-27T16:17:19Z</time>
      </trkpt>
      <trkpt lat="42.2989060" lon="-8.2664740">
        <ele>1103.2</ele>
        <time>2022-08-27T16:17:20Z</time>
      </trkpt>
      <trkpt lat="42.2989340" lon="-8.2664720">
        <ele>1103.4</ele>
        <time>2022-08-27T16:17:22Z</time>
      </trkpt>
      <trkpt lat="42.2989660" lon="-8.2664690">
        <ele>1103.6</ele>
        <time>2022-08-27T16:17:23Z</time>
      </trkpt>
      <trkpt lat="42.2989750" lon="-8.2664680">
        <ele>1103.7</ele>
        <time>2022-08-27T16:17:24Z</time>
      </trkpt>
      <trkpt lat="42.2989900" lon="-8.2664660">
        <ele>1103.8</ele>
        <time>2022-08-27T16:17:25Z</time>
      </trkpt>
      <trkpt lat="42.2990040" lon="-8.2664680">
        <ele>1103.9</ele>
        <time>2022-08-27T16:17:26Z</time>
      </trkpt>
      <trkpt lat="42.2990250" lon="-8.2664690">
        <ele>1104.1</ele>
        <time>2022-08-27T16:17:27Z</time>
      </trkpt>
      <trkpt lat="42.2990450" lon="-8.2664670">
        <ele>1104.2</ele>
        <time>2022-08-27T16:17:29Z</time>
      </trkpt>
      <trkpt lat="42.2990780" lon="-8.2664630">
        <ele>1104.4</ele>
        <time>2022-08-27T16:17:30Z</time>
      </trkpt>
      <trkpt lat="42.2990880" lon="-8.2664630">
        <ele>1104.5</ele>
        <time>2022-08-27T16:17:31Z</time>
      </trkpt>
      <trkpt lat="42.2991100" lon="-8.2664620">
        <ele>1104.7</ele>
        <time>2022-08-27T16:17:32Z</time>
      </trkpt>
      <trkpt lat="42.2991400" lon="-8.2664530">
        <ele>1104.9</ele>
        <time>2022-08-27T16:17:34Z</time>
      </trkpt>
      <trkpt lat="42.2991680" lon="-8.2664520">
        <ele>1105.1</ele>
        <time>2022-08-27T16:17:36Z</time>
      </trkpt>
      <trkpt lat="42.2991980" lon="-8.2664350">
        <ele>1105.3</ele>
        <time>2022-08-27T16:17:37Z</time>
      </trkpt>
      <trkpt lat="42.2992270" lon="-8.2664200">
        <ele>1105.5</ele>
        <time>2022-08-27T16:17:38Z</time>
      </trkpt>
      <trkpt lat="42.2992360" lon="-8.2664170">
        <ele>1105.6</ele>
        <time>2022-08-27T16:17:39Z</time>
      </trkpt>
      <trkpt lat="42.2992530" lon="-8.2664070">
        <ele>1105.7</ele>
        <time>2022-08-27T16:17:40Z</time>
      </trkpt>
      <trkpt lat="42.2992690" lon="-8.2663970">
        <ele>1105.9</ele>
        <time>2022-08-27T16:17:41Z</time>
      </trkpt>
      <trkpt lat="42.2993010" lon="-8.2663950">
        <ele>1106.1</ele>
        <time>2022-08-27T16:17:43Z</time>
      </trkpt>
      <trkpt lat="42.2993090" lon="-8.2663950">
        <ele>1106.2</ele>
        <time>2022-08-27T16:17:44Z</time>
      </trkpt>
      <trkpt lat="42.2993430" lon="-8.2663950">
        <ele>1106.4</ele>
        <time>2022-08-27T16:17:45Z</time>
      </trkpt>
      <trkpt lat="42.2993540" lon="-8.2663940">
        <ele>1106.5</ele>
        <time>2022-08-27T16:17:46Z</time>
      </trkpt>
      <trkpt lat="42.2993890" lon="-8.2663860">
        <ele>1106.7</ele>
        <time>2022-08-27T16:17:48Z</time>
      </trkpt>
      <trkpt lat="42.2993990" lon="-8.2663830">
        <ele>1106.8</ele>
        <time>2022-08-27T16:17:49Z</time>
      </trkpt>
      <trkpt lat="42.2994250" lon="-8.2663790">
        <ele>1107.0</ele>
        <time>2022-08-27T16:17:50Z</time>
      </trkpt>
      <trkpt lat="42.2994500" lon="-8.2663750">
        <ele>1107.2</ele>
        <time>2022-08-27T16:17:52Z</time>
      </trkpt>
      <trkpt lat="42.2994620" lon="-8.2663740">
        <ele>1107.2</ele>
        <time>2022-08-27T16:17:53Z</time>
      </trkpt>
      <trkpt lat="42.2994820" lon="-8.2663770">
        <ele>1107.4</ele>
        <time>2022-08-27T16:17:54Z</time>
      </trkpt>
      <trkpt lat="42.2995270" lon="-8.2663870">
        <ele>1107.7</ele>
        <time>2022-08-27T16:17:56Z</time>
      </trkpt>
      <trkpt lat="42.2995390" lon="-8.2663890">
        <ele>1107.8</ele>
        <time>2022-08-27T16:17:57Z</time>
      </trkpt>
      <trkpt lat="42.2995510" lon="-8.2663910">
        <ele>1107.8</ele>
        <time>2022-08-27T16:17:58Z</time>
      </trkpt>
      <trkpt lat="42.2995850" lon="-8.2663980">
        <ele>1108.1</ele>
        <time>2022-08-27T16:17:59Z</time>
      </trkpt>
      <trkpt lat="42.2995960" lon="-8.2663980">
        <ele>1108.1</ele>
        <time>2022-08-27T16:18:00Z</time>
      </trkpt>
      <trkpt lat="42.2996250" lon="-8.2663970">
        <ele>1108.3</ele>
        <time>2022-08-27T16:18:02Z</time>
      </trkpt>
      <trkpt lat="42.2996400" lon="-8.2664020">
        <ele>1108.4</ele>
        <time>2022-08-27T16:18:03Z</time>
      </trkpt>
      <trkpt lat="42.2996570" lon="-8.2664030">
        <ele>1108.6</ele>
        <time>2022-08-27T16:18:04Z</time>
      </trkpt>
      <trkpt lat="42.2996780" lon="-8.2664080">
        <ele>1108.7</ele>
        <time>2022-08-27T16:18:05Z</time>
      </trkpt>
      <trkpt lat="42.2997060" lon="-8.2664110">
        <ele>1108.9</ele>
        <time>2022-08-27T16:18:07Z</time>
      </trkpt>
      <trkpt lat="42.2997240" lon="-8.2664150">
        <ele>1109.0</ele>
        <time>2022-08-27T16:18:08Z</time>
      </trkpt>
      <trkpt lat="42.2997330" lon="-8.2664170">
        <ele>1109.1</ele>
        <time>2022-08-27T16:18:09Z</time>
      </trkpt>
      <trkpt lat="42.2997410" lon="-8.2664190">
        <ele>1109.2</ele>
        <time>2022-08-27T16:18:10Z</time>
      </trkpt>
      <trkpt lat="42.2997560" lon="-8.2664200">
        <ele>1109.3</ele>
        <time>2022-08-27T16:18:11Z</time>
      </trkpt>
      <trkpt lat="42.2997690" lon="-8.2664210">
        <ele>1109.3</ele>
        <time>2022-08-27T16:18:12Z</time>
      </trkpt>
      <trkpt lat="42.2997960" lon="-8.2664220">
        <ele>1109.5</ele>
        <time>2022-08-27T16:18:13Z</time>
      </trkpt>
      <trkpt lat="42.2998080" lon="-8.2664220">
        <ele>1109.6</ele>
        <time>2022-08-27T16:18:14Z</time>
      </trkpt>
      <trkpt lat="42.2998370" lon="-8.2664290">
        <ele>1109.7</ele>
        <time>2022-08-27T16:18:15Z</time>
      </trkpt>
      <trkpt lat="42.2998770" lon="-8.2664330">
        <ele>1109.9</ele>
        <time>2022-08-27T16:18:17Z</time>
      </trkpt>
      <trkpt lat="42.2998910" lon="-8.2664280">
        <ele>1110.0</ele>
        <time>2022-08-27T16:18:18Z</time>
      </trkpt>
      <trkpt lat="42.2999310" lon="-8.2664330">
        <ele>1110.1</ele>
        <time>2022-08-27T16:18:19Z</time>
      </trkpt>
      <trkpt lat="42.2999670" lon="-8.2664450">
        <ele>1110.2</ele>
        <time>2022-08-27T16:18:20Z</time>
      </trkpt>
      <trkpt lat="42.2999980" lon="-8.2664430">
        <ele>1110.3</ele>
        <time>2022-08-27T16:18:22Z</time>
      </trkpt>
      <trkpt lat="42.3000380" lon="-8.2664320">
        <ele>1110.3</ele>
        <time>2022-08-27T16:18:23Z</time>
      </trkpt>
      <trkpt lat="42.3000700" lon="-8.2664260">
        <ele>1110.3</ele>
        <time>2022-08-27T16:18:24Z</time>
      </trkpt>
      <trkpt lat="42.3001070" lon="-8.2664220">
        <ele>1110.3</ele>
        <time>2022-08-27T16:18:25Z</time>
      </trkpt>
      <trkpt lat="42.3001640" lon="-8.2664140">
        <ele>1110.2</ele>
        <time>2022-08-27T16:18:27Z</time>
      </trkpt>
      <trkpt lat="42.3002290" lon="-8.2663990">
        <ele>1110.1</ele>
        <time>2022-08-27T16:18:28Z</time>
      </trkpt>
      <trkpt lat="42.3002720" lon="-8.2663990">
        <ele>1110.1</ele>
        <time>2022-08-27T16:18:29Z</time>
      </trkpt>
      <trkpt lat="42.3003150" lon="-8.2663900">
        <ele>1110.0</ele>
        <time>2022-08-27T16:18:30Z</time>
      </trkpt>
      <trkpt lat="42.3003510" lon="-8.2663790">
        <ele>1110.0</ele>
        <time>2022-08-27T16:18:31Z</time>
      </trkpt>
      <trkpt lat="42.3003910" lon="-8.2663630">
        <ele>1110.0</ele>
        <time>2022-08-27T16:18:32Z</time>
      </trkpt>
      <trkpt lat="42.3004510" lon="-8.2663460">
        <ele>1109.9</ele>
        <time>2022-08-27T16:18:33Z</time>
      </trkpt>
      <trkpt lat="42.3004950" lon="-8.2663320">
        <ele>1109.9</ele>
        <time>2022-08-27T16:18:35Z</time>
      </trkpt>
      <trkpt lat="42.3005500" lon="-8.2663150">
        <ele>1109.9</ele>
        <time>2022-08-27T16:18:36Z</time>
      </trkpt>
      <trkpt lat="42.3005960" lon="-8.2663010">
        <ele>1110.0</ele>
        <time>2022-08-27T16:18:38Z</time>
      </trkpt>
      <trkpt lat="42.3006270" lon="-8.2662910">
        <ele>1110.0</ele>
        <time>2022-08-27T16:18:39Z</time>
      </trkpt>
      <trkpt lat="42.3006720" lon="-8.2662850">
        <ele>1110.1</ele>
        <time>2022-08-27T16:18:40Z</time>
      </trkpt>
      <trkpt lat="42.3007020" lon="-8.2662830">
        <ele>1110.1</ele>
        <time>2022-08-27T16:18:41Z</time>
      </trkpt>
      <trkpt lat="42.3007440" lon="-8.2662720">
        <ele>1110.2</ele>
        <time>2022-08-27T16:18:42Z</time>
      </trkpt>
      <trkpt lat="42.3007760" lon="-8.2662630">
        <ele>1110.3</ele>
        <time>2022-08-27T16:18:43Z</time>
      </trkpt>
      <trkpt lat="42.3008040" lon="-8.2662500">
        <ele>1110.4</ele>
        <time>2022-08-27T16:18:44Z</time>
      </trkpt>
      <trkpt lat="42.3008350" lon="-8.2662420">
        <ele>1110.5</ele>
        <time>2022-08-27T16:18:46Z</time>
      </trkpt>
      <trkpt lat="42.3008740" lon="-8.2662310">
        <ele>1110.6</ele>
        <time>2022-08-27T16:18:47Z</time>
      </trkpt>
      <trkpt lat="42.3009150" lon="-8.2662160">
        <ele>1110.7</ele>
        <time>2022-08-27T16:18:48Z</time>
      </trkpt>
      <trkpt lat="42.3009640" lon="-8.2661970">
        <ele>1110.9</ele>
        <time>2022-08-27T16:18:50Z</time>
      </trkpt>
      <trkpt lat="42.3009840" lon="-8.2661890">
        <ele>1111.0</ele>
        <time>2022-08-27T16:18:51Z</time>
      </trkpt>
      <trkpt lat="42.3010040" lon="-8.2661810">
        <ele>1111.0</ele>
        <time>2022-08-27T16:18:52Z</time>
      </trkpt>
      <trkpt lat="42.3010300" lon="-8.2661700">
        <ele>1111.1</ele>
        <time>2022-08-27T16:18:53Z</time>
      </trkpt>
      <trkpt lat="42.3010620" lon="-8.2661570">
        <ele>1111.3</ele>
        <time>2022-08-27T16:18:54Z</time>
      </trkpt>
      <trkpt lat="42.3010920" lon="-8.2661460">
        <ele>1111.4</ele>
        <time>2022-08-27T16:18:55Z</time>
      </trkpt>
      <trkpt lat="42.3011270" lon="-8.2661290">
        <ele>1111.6</ele>
        <time>2022-08-27T16:18:57Z</time>
      </trkpt>
      <trkpt lat="42.3011610" lon="-8.2661090">
        <ele>1111.8</ele>
        <time>2022-08-27T16:18:58Z</time>
      </trkpt>
      <trkpt lat="42.3011730" lon="-8.2661010">
        <ele>1111.8</ele>
        <time>2022-08-27T16:18:59Z</time>
      </trkpt>
      <trkpt lat="42.3012150" lon="-8.2660770">
        <ele>1112.1</ele>
        <time>2022-08-27T16:19:01Z</time>
      </trkpt>
      <trkpt lat="42.3012290" lon="-8.2660720">
        <ele>1112.2</ele>
        <time>2022-08-27T16:19:02Z</time>
      </trkpt>
      <trkpt lat="42.3012430" lon="-8.2660680">
        <ele>1112.3</ele>
        <time>2022-08-27T16:19:03Z</time>
      </trkpt>
      <trkpt lat="42.3012640" lon="-8.2660630">
        <ele>1112.4</ele>
        <time>2022-08-27T16:19:04Z</time>
      </trkpt>
      <trkpt lat="42.3012790" lon="-8.2660570">
        <ele>1112.5</ele>
        <time>2022-08-27T16:19:06Z</time>
      </trkpt>
      <trkpt lat="42.3013170" lon="-8.2660440">
        <ele>1112.7</ele>
        <time>2022-08-27T16:19:07Z</time>
      </trkpt>
      <trkpt lat="42.3013330" lon="-8.2660400">
        <ele>1112.8</ele>
        <time>2022-08-27T16:19:08Z</time>
      </trkpt>
      <trkpt lat="42.3013710" lon="-8.2660350">
        <ele>1113.0</ele>
        <time>2022-08-27T16:19:09Z</time>
      </trkpt>
      <trkpt lat="42.3013860" lon="-8.2660330">
        <ele>1113.1</ele>
        <time>2022-08-27T16:19:10Z</time>
      </trkpt>
      <trkpt lat="42.3014280" lon="-8.2660160">
        <ele>1113.4</ele>
        <time>2022-08-27T16:19:12Z</time>
      </trkpt>
      <trkpt lat="42.3014430" lon="-8.2660090">
        <ele>1113.4</ele>
        <time>2022-08-27T16:19:13Z</time>
      </trkpt>
      <trkpt lat="42.3014590" lon="-8.2660010">
        <ele>1113.5</ele>
        <time>2022-08-27T16:19:14Z</time>
      </trkpt>
      <trkpt lat="42.3014810" lon="-8.2659900">
        <ele>1113.7</ele>
        <time>2022-08-27T16:19:15Z</time>
      </trkpt>
      <trkpt lat="42.3015290" lon="-8.2659600">
        <ele>1114.0</ele>
        <time>2022-08-27T16:19:17Z</time>
      </trkpt>
      <trkpt lat="42.3015560" lon="-8.2659390">
        <ele>1114.2</ele>
        <time>2022-08-27T16:19:19Z</time>
      </trkpt>
      <trkpt lat="42.3015860" lon="-8.2659170">
        <ele>1114.4</ele>
        <time>2022-08-27T16:19:20Z</time>
      </trkpt>
      <trkpt lat="42.3015960" lon="-8.2659110">
        <ele>1114.5</ele>
        <time>2022-08-27T16:19:21Z</time>
      </trkpt>
      <trkpt lat="42.3016360" lon="-8.2658780">
        <ele>1114.8</ele>
        <time>2022-08-27T16:19:23Z</time>
      </trkpt>
      <trkpt lat="42.3016700" lon="-8.2658540">
        <ele>1115.0</ele>
        <time>2022-08-27T16:19:24Z</time>
      </trkpt>
      <trkpt lat="42.3016800" lon="-8.2658480">
        <ele>1115.1</ele>
        <time>2022-08-27T16:19:25Z</time>
      </trkpt>
      <trkpt lat="42.3017140" lon="-8.2658250">
        <ele>1115.3</ele>
        <time>2022-08-27T16:19:26Z</time>
      </trkpt>
      <trkpt lat="42.3017250" lon="-8.2658180">
        <ele>1115.4</ele>
        <time>2022-08-27T16:19:27Z</time>
      </trkpt>
      <trkpt lat="42.3017570" lon="-8.2658000">
        <ele>1115.6</ele>
        <time>2022-08-27T16:19:28Z</time>
      </trkpt>
      <trkpt lat="42.3018140" lon="-8.2657690">
        <ele>1115.9</ele>
        <time>2022-08-27T16:19:30Z</time>
      </trkpt>
      <trkpt lat="42.3018400" lon="-8.2657550">
        <ele>1116.1</ele>
        <time>2022-08-27T16:19:32Z</time>
      </trkpt>
      <trkpt lat="42.3018720" lon="-8.2657520">
        <ele>1116.2</ele>
        <time>2022-08-27T16:19:33Z</time>
      </trkpt>
      <trkpt lat="42.3019120" lon="-8.2657460">
        <ele>1116.5</ele>
        <time>2022-08-27T16:19:34Z</time>
      </trkpt>
      <trkpt lat="42.3019280" lon="-8.2657430">
        <ele>1116.6</ele>
        <time>2022-08-27T16:19:35Z</time>
      </trkpt>
      <trkpt lat="42.3019600" lon="-8.2657360">
        <ele>1116.7</ele>
        <time>2022-08-27T16:19:36Z</time>
      </trkpt>
      <trkpt lat="42.3019900" lon="-8.2657320">
        <ele>1116.9</ele>
        <time>2022-08-27T16:19:37Z</time>
      </trkpt>
      <trkpt lat="42.3020240" lon="-8.2657350">
        <ele>1117.0</ele>
        <time>2022-08-27T16:19:38Z</time>
      </trkpt>
      <trkpt lat="42.3020470" lon="-8.2657330">
        <ele>1117.1</ele>
        <time>2022-08-27T16:19:39Z</time>
      </trkpt>
      <trkpt lat="42.3020890" lon="-8.2657310">
        <ele>1117.3</ele>
        <time>2022-08-27T16:19:41Z</time>
      </trkpt>
      <trkpt lat="42.3021230" lon="-8.2657340">
        <ele>1117.4</ele>
        <time>2022-08-27T16:19:42Z</time>
      </trkpt>
      <trkpt lat="42.3021690" lon="-8.2657310">
        <ele>1117.5</ele>
        <time>2022-08-27T16:19:44Z</time>
      </trkpt>
      <trkpt lat="42.3021990" lon="-8.2657300">
        <ele>1117.6</ele>
        <time>2022-08-27T16:19:45Z</time>
      </trkpt>
      <trkpt lat="42.3022300" lon="-8.2657340">
        <ele>1117.7</ele>
        <time>2022-08-27T16:19:46Z</time>
      </trkpt>
      <trkpt lat="42.3022640" lon="-8.2657380">
        <ele>1117.8</ele>
        <time>2022-08-27T16:19:47Z</time>
      </trkpt>
      <trkpt lat="42.3022940" lon="-8.2657370">
        <ele>1117.8</ele>
        <time>2022-08-27T16:19:48Z</time>
      </trkpt>
      <trkpt lat="42.3023280" lon="-8.2657370">
        <ele>1117.9</ele>
        <time>2022-08-27T16:19:49Z</time>
      </trkpt>
      <trkpt lat="42.3023570" lon="-8.2657410">
        <ele>1117.9</ele>
        <time>2022-08-27T16:19:50Z</time>
      </trkpt>
      <trkpt lat="42.3024040" lon="-8.2657410">
        <ele>1118.0</ele>
        <time>2022-08-27T16:19:52Z</time>
      </trkpt>
      <trkpt lat="42.3024210" lon="-8.2657410">
        <ele>1118.0</ele>
        <time>2022-08-27T16:19:53Z</time>
      </trkpt>
      <trkpt lat="42.3024390" lon="-8.2657420">
        <ele>1118.1</ele>
        <time>2022-08-27T16:19:54Z</time>
      </trkpt>
      <trkpt lat="42.3024870" lon="-8.2657560">
        <ele>1118.2</ele>
        <time>2022-08-27T16:19:56Z</time>
      </trkpt>
      <trkpt lat="42.3025210" lon="-8.2657580">
        <ele>1118.2</ele>
        <time>2022-08-27T16:19:57Z</time>
      </trkpt>
      <trkpt lat="42.3025550" lon="-8.2657630">
        <ele>1118.3</ele>
        <time>2022-08-27T16:19:58Z</time>
      </trkpt>
      <trkpt lat="42.3025950" lon="-8.2657730">
        <ele>1118.3</ele>
        <time>2022-08-27T16:19:59Z</time>
      </trkpt>
      <trkpt lat="42.3026360" lon="-8.2657880">
        <ele>1118.4</ele>
        <time>2022-08-27T16:20:00Z</time>
      </trkpt>
      <trkpt lat="42.3026720" lon="-8.2657990">
        <ele>1118.5</ele>
        <time>2022-08-27T16:20:01Z</time>
      </trkpt>
      <trkpt lat="42.3027090" lon="-8.2658070">
        <ele>1118.6</ele>
        <time>2022-08-27T16:20:02Z</time>
      </trkpt>
      <trkpt lat="42.3027470" lon="-8.2658180">
        <ele>1118.6</ele>
        <time>2022-08-27T16:20:04Z</time>
      </trkpt>
      <trkpt lat="42.3027810" lon="-8.2658290">
        <ele>1118.7</ele>
        <time>2022-08-27T16:20:05Z</time>
      </trkpt>
      <trkpt lat="42.3028120" lon="-8.2658380">
        <ele>1118.8</ele>
        <time>2022-08-27T16:20:06Z</time>
      </trkpt>
      <trkpt lat="42.3028400" lon="-8.2658490">
        <ele>1118.8</ele>
        <time>2022-08-27T16:20:07Z</time>
      </trkpt>
      <trkpt lat="42.3028690" lon="-8.2658570">
        <ele>1118.9</ele>
        <time>2022-08-27T16:20:08Z</time>
      </trkpt>
      <trkpt lat="42.3028980" lon="-8.2658630">
        <ele>1118.9</ele>
        <time>2022-08-27T16:20:09Z</time>
      </trkpt>
      <trkpt lat="42.3029370" lon="-8.2658780">
        <ele>1119.0</ele>
        <time>2022-08-27T16:20:10Z</time>
      </trkpt>
      <trkpt lat="42.3029490" lon="-8.2658850">
        <ele>1119.1</ele>
        <time>2022-08-27T16:20:11Z</time>
      </trkpt>
      <trkpt lat="42.3029830" lon="-8.2659040">
        <ele>1119.1</ele>
        <time>2022-08-27T16:20:12Z</time>
      </trkpt>
      <trkpt lat="42.3029950" lon="-8.2659080">
        <ele>1119.2</ele>
        <time>2022-08-27T16:20:13Z</time>
      </trkpt>
      <trkpt lat="42.3030400" lon="-8.2659160">
        <ele>1119.3</ele>
        <time>2022-08-27T16:20:14Z</time>
      </trkpt>
      <trkpt lat="42.3030610" lon="-8.2659190">
        <ele>1119.3</ele>
        <time>2022-08-27T16:20:15Z</time>
      </trkpt>
      <trkpt lat="42.3030930" lon="-8.2659200">
        <ele>1119.4</ele>
        <time>2022-08-27T16:20:17Z</time>
      </trkpt>
      <trkpt lat="42.3031270" lon="-8.2659260">
        <ele>1119.5</ele>
        <time>2022-08-27T16:20:18Z</time>
      </trkpt>
      <trkpt lat="42.3031690" lon="-8.2659250">
        <ele>1119.6</ele>
        <time>2022-08-27T16:20:19Z</time>
      </trkpt>
      <trkpt lat="42.3031860" lon="-8.2659240">
        <ele>1119.7</ele>
        <time>2022-08-27T16:20:20Z</time>
      </trkpt>
      <trkpt lat="42.3032130" lon="-8.2659220">
        <ele>1119.7</ele>
        <time>2022-08-27T16:20:21Z</time>
      </trkpt>
      <trkpt lat="42.3032370" lon="-8.2659260">
        <ele>1119.8</ele>
        <time>2022-08-27T16:20:23Z</time>
      </trkpt>
      <trkpt lat="42.3032760" lon="-8.2659240">
        <ele>1119.9</ele>
        <time>2022-08-27T16:20:24Z</time>
      </trkpt>
      <trkpt lat="42.3032890" lon="-8.2659230">
        <ele>1120.0</ele>
        <time>2022-08-27T16:20:25Z</time>
      </trkpt>
      <trkpt lat="42.3033220" lon="-8.2659210">
        <ele>1120.1</ele>
        <time>2022-08-27T16:20:26Z</time>
      </trkpt>
      <trkpt lat="42.3033340" lon="-8.2659190">
        <ele>1120.1</ele>
        <time>2022-08-27T16:20:27Z</time>
      </trkpt>
      <trkpt lat="42.3033660" lon="-8.2659160">
        <ele>1120.2</ele>
        <time>2022-08-27T16:20:28Z</time>
      </trkpt>
      <trkpt lat="42.3033800" lon="-8.2659140">
        <ele>1120.2</ele>
        <time>2022-08-27T16:20:29Z</time>
      </trkpt>
      <trkpt lat="42.3034150" lon="-8.2659090">
        <ele>1120.3</ele>
        <time>2022-08-27T16:20:30Z</time>
      </trkpt>
      <trkpt lat="42.3034510" lon="-8.2659050">
        <ele>1120.4</ele>
        <time>2022-08-27T16:20:31Z</time>
      </trkpt>
      <trkpt lat="42.3034930" lon="-8.2658910">
        <ele>1120.5</ele>
        <time>2022-08-27T16:20:33Z</time>
      </trkpt>
      <trkpt lat="42.3035200" lon="-8.2658870">
        <ele>1120.6</ele>
        <time>2022-08-27T16:20:34Z</time>
      </trkpt>
      <trkpt lat="42.3035600" lon="-8.2658750">
        <ele>1120.7</ele>
        <time>2022-08-27T16:20:35Z</time>
      </trkpt>
      <trkpt lat="42.3035900" lon="-8.2658670">
        <ele>1120.7</ele>
        <time>2022-08-27T16:20:37Z</time>
      </trkpt>
      <trkpt lat="42.3036250" lon="-8.2658590">
        <ele>1120.8</ele>
        <time>2022-08-27T16:20:38Z</time>
      </trkpt>
      <trkpt lat="42.3036670" lon="-8.2658450">
        <ele>1120.9</ele>
        <time>2022-08-27T16:20:39Z</time>
      </trkpt>
      <trkpt lat="42.3036840" lon="-8.2658390">
        <ele>1121.0</ele>
        <time>2022-08-27T16:20:40Z</time>
      </trkpt>
      <trkpt lat="42.3037210" lon="-8.2658280">
        <ele>1121.1</ele>
        <time>2022-08-27T16:20:42Z</time>
      </trkpt>
      <trkpt lat="42.3037600" lon="-8.2658180">
        <ele>1121.2</ele>
        <time>2022-08-27T16:20:43Z</time>
      </trkpt>
      <trkpt lat="42.3037730" lon="-8.2658140">
        <ele>1121.3</ele>
        <time>2022-08-27T16:20:44Z</time>
      </trkpt>
      <trkpt lat="42.3038170" lon="-8.2657960">
        <ele>1121.8</ele>
        <time>2022-08-27T16:20:45Z</time>
      </trkpt>
      <trkpt lat="42.3038350" lon="-8.2657880">
        <ele>1121.9</ele>
        <time>2022-08-27T16:20:46Z</time>
      </trkpt>
      <trkpt lat="42.3038810" lon="-8.2657810">
        <ele>1122.2</ele>
        <time>2022-08-27T16:20:48Z</time>
      </trkpt>
      <trkpt lat="42.3039160" lon="-8.2657800">
        <ele>1122.4</ele>
        <time>2022-08-27T16:20:49Z</time>
      </trkpt>
      <trkpt lat="42.3039490" lon="-8.2657760">
        <ele>1122.7</ele>
        <time>2022-08-27T16:20:50Z</time>
      </trkpt>
      <trkpt lat="42.3039800" lon="-8.2657820">
        <ele>1122.9</ele>
        <time>2022-08-27T16:20:51Z</time>
      </trkpt>
      <trkpt lat="42.3040130" lon="-8.2657860">
        <ele>1123.2</ele>
        <time>2022-08-27T16:20:52Z</time>
      </trkpt>
      <trkpt lat="42.3040500" lon="-8.2657880">
        <ele>1123.5</ele>
        <time>2022-08-27T16:20:54Z</time>
      </trkpt>
      <trkpt lat="42.3040930" lon="-8.2657820">
        <ele>1123.9</ele>
        <time>2022-08-27T16:20:55Z</time>
      </trkpt>
      <trkpt lat="42.3041080" lon="-8.2657780">
        <ele>1124.0</ele>
        <time>2022-08-27T16:20:56Z</time>
      </trkpt>
      <trkpt lat="42.3041420" lon="-8.2657760">
        <ele>1124.4</ele>
        <time>2022-08-27T16:20:57Z</time>
      </trkpt>
      <trkpt lat="42.3041520" lon="-8.2657760">
        <ele>1124.5</ele>
        <time>2022-08-27T16:20:58Z</time>
      </trkpt>
      <trkpt lat="42.3041770" lon="-8.2657850">
        <ele>1124.7</ele>
        <time>2022-08-27T16:21:00Z</time>
      </trkpt>
      <trkpt lat="42.3041870" lon="-8.2657910">
        <ele>1124.9</ele>
        <time>2022-08-27T16:21:01Z</time>
      </trkpt>
      <trkpt lat="42.3042030" lon="-8.2658050">
        <ele>1125.0</ele>
        <time>2022-08-27T16:21:02Z</time>
      </trkpt>
      <trkpt lat="42.3042160" lon="-8.2658130">
        <ele>1124.9</ele>
        <time>2022-08-27T16:21:03Z</time>
      </trkpt>
      <trkpt lat="42.3042290" lon="-8.2658190">
        <ele>1124.8</ele>
        <time>2022-08-27T16:21:04Z</time>
      </trkpt>
      <trkpt lat="42.3042440" lon="-8.2658320">
        <ele>1124.6</ele>
        <time>2022-08-27T16:21:05Z</time>
      </trkpt>
      <trkpt lat="42.3042440" lon="-8.2658290">
        <ele>1124.6</ele>
        <time>2022-08-27T16:21:07Z</time>
      </trkpt>
      <trkpt lat="42.3042400" lon="-8.2658200">
        <ele>1124.5</ele>
        <time>2022-08-27T16:21:08Z</time>
      </trkpt>
      <trkpt lat="42.3042360" lon="-8.2658110">
        <ele>1124.5</ele>
        <time>2022-08-27T16:21:09Z</time>
      </trkpt>
      <trkpt lat="42.3042320" lon="-8.2658030">
        <ele>1124.4</ele>
        <time>2022-08-27T16:21:10Z</time>
      </trkpt>
      <trkpt lat="42.3042280" lon="-8.2657940">
        <ele>1124.3</ele>
        <time>2022-08-27T16:21:11Z</time>
      </trkpt>
      <trkpt lat="42.3042240" lon="-8.2657850">
        <ele>1124.3</ele>
        <time>2022-08-27T16:21:12Z</time>
      </trkpt>
      <trkpt lat="42.3042200" lon="-8.2657760">
        <ele>1124.2</ele>
        <time>2022-08-27T16:21:13Z</time>
      </trkpt>
      <trkpt lat="42.3042160" lon="-8.2657670">
        <ele>1124.2</ele>
        <time>2022-08-27T16:21:14Z</time>
      </trkpt>
      <trkpt lat="42.3042120" lon="-8.2657590">
        <ele>1124.1</ele>
        <time>2022-08-27T16:21:15Z</time>
      </trkpt>
      <trkpt lat="42.3042080" lon="-8.2657500">
        <ele>1124.0</ele>
        <time>2022-08-27T16:31:58Z</time>
      </trkpt>
      <trkpt lat="42.3042040" lon="-8.2657410">
        <ele>1124.0</ele>
        <time>2022-08-27T16:31:59Z</time>
      </trkpt>
      <trkpt lat="42.3042000" lon="-8.2657320">
        <ele>1123.9</ele>
        <time>2022-08-27T16:32:00Z</time>
      </trkpt>
      <trkpt lat="42.3041420" lon="-8.2657200">
        <ele>1123.5</ele>
        <time>2022-08-27T16:32:02Z</time>
      </trkpt>
      <trkpt lat="42.3040990" lon="-8.2657180">
        <ele>1123.2</ele>
        <time>2022-08-27T16:32:03Z</time>
      </trkpt>
      <trkpt lat="42.3040430" lon="-8.2657230">
        <ele>1122.8</ele>
        <time>2022-08-27T16:32:04Z</time>
      </trkpt>
      <trkpt lat="42.3039710" lon="-8.2657310">
        <ele>1122.4</ele>
        <time>2022-08-27T16:32:05Z</time>
      </trkpt>
      <trkpt lat="42.3039100" lon="-8.2657300">
        <ele>1122.1</ele>
        <time>2022-08-27T16:32:07Z</time>
      </trkpt>
      <trkpt lat="42.3038560" lon="-8.2657110">
        <ele>1121.8</ele>
        <time>2022-08-27T16:32:08Z</time>
      </trkpt>
      <trkpt lat="42.3038230" lon="-8.2656910">
        <ele>1121.7</ele>
        <time>2022-08-27T16:32:09Z</time>
      </trkpt>
      <trkpt lat="42.3037960" lon="-8.2656630">
        <ele>1121.5</ele>
        <time>2022-08-27T16:32:10Z</time>
      </trkpt>
      <trkpt lat="42.3037760" lon="-8.2656230">
        <ele>1121.7</ele>
        <time>2022-08-27T16:32:11Z</time>
      </trkpt>
      <trkpt lat="42.3037650" lon="-8.2655960">
        <ele>1121.8</ele>
        <time>2022-08-27T16:32:12Z</time>
      </trkpt>
      <trkpt lat="42.3037520" lon="-8.2655680">
        <ele>1121.9</ele>
        <time>2022-08-27T16:32:14Z</time>
      </trkpt>
      <trkpt lat="42.3037330" lon="-8.2655270">
        <ele>1122.1</ele>
        <time>2022-08-27T16:32:15Z</time>
      </trkpt>
      <trkpt lat="42.3037280" lon="-8.2655150">
        <ele>1122.1</ele>
        <time>2022-08-27T16:32:16Z</time>
      </trkpt>
      <trkpt lat="42.3037090" lon="-8.2654840">
        <ele>1122.3</ele>
        <time>2022-08-27T16:32:17Z</time>
      </trkpt>
      <trkpt lat="42.3037010" lon="-8.2654730">
        <ele>1122.4</ele>
        <time>2022-08-27T16:32:18Z</time>
      </trkpt>
      <trkpt lat="42.3036800" lon="-8.2654430">
        <ele>1122.5</ele>
        <time>2022-08-27T16:32:19Z</time>
      </trkpt>
      <trkpt lat="42.3036730" lon="-8.2654330">
        <ele>1122.6</ele>
        <time>2022-08-27T16:32:20Z</time>
      </trkpt>
      <trkpt lat="42.3036600" lon="-8.2654050">
        <ele>1122.7</ele>
        <time>2022-08-27T16:32:21Z</time>
      </trkpt>
      <trkpt lat="42.3036460" lon="-8.2653810">
        <ele>1122.9</ele>
        <time>2022-08-27T16:32:23Z</time>
      </trkpt>
      <trkpt lat="42.3036170" lon="-8.2653470">
        <ele>1123.2</ele>
        <time>2022-08-27T16:32:24Z</time>
      </trkpt>
      <trkpt lat="42.3036090" lon="-8.2653370">
        <ele>1123.2</ele>
        <time>2022-08-27T16:32:25Z</time>
      </trkpt>
      <trkpt lat="42.3035880" lon="-8.2653120">
        <ele>1123.4</ele>
        <time>2022-08-27T16:32:26Z</time>
      </trkpt>
      <trkpt lat="42.3035820" lon="-8.2653040">
        <ele>1123.5</ele>
        <time>2022-08-27T16:32:27Z</time>
      </trkpt>
      <trkpt lat="42.3035630" lon="-8.2652800">
        <ele>1123.7</ele>
        <time>2022-08-27T16:32:28Z</time>
      </trkpt>
      <trkpt lat="42.3035550" lon="-8.2652710">
        <ele>1123.8</ele>
        <time>2022-08-27T16:32:29Z</time>
      </trkpt>
      <trkpt lat="42.3035400" lon="-8.2652580">
        <ele>1123.9</ele>
        <time>2022-08-27T16:32:30Z</time>
      </trkpt>
      <trkpt lat="42.3035270" lon="-8.2652460">
        <ele>1124.0</ele>
        <time>2022-08-27T16:32:31Z</time>
      </trkpt>
      <trkpt lat="42.3034960" lon="-8.2652250">
        <ele>1124.3</ele>
        <time>2022-08-27T16:32:32Z</time>
      </trkpt>
      <trkpt lat="42.3034670" lon="-8.2652030">
        <ele>1124.5</ele>
        <time>2022-08-27T16:32:34Z</time>
      </trkpt>
      <trkpt lat="42.3034580" lon="-8.2651970">
        <ele>1124.6</ele>
        <time>2022-08-27T16:32:35Z</time>
      </trkpt>
      <trkpt lat="42.3034370" lon="-8.2651800">
        <ele>1124.8</ele>
        <time>2022-08-27T16:32:36Z</time>
      </trkpt>
      <trkpt lat="42.3034300" lon="-8.2651740">
        <ele>1124.8</ele>
        <time>2022-08-27T16:32:37Z</time>
      </trkpt>
      <trkpt lat="42.3034220" lon="-8.2651680">
        <ele>1124.9</ele>
        <time>2022-08-27T16:32:38Z</time>
      </trkpt>
      <trkpt lat="42.3034080" lon="-8.2651570">
        <ele>1125.0</ele>
        <time>2022-08-27T16:32:39Z</time>
      </trkpt>
      <trkpt lat="42.3033940" lon="-8.2651450">
        <ele>1125.2</ele>
        <time>2022-08-27T16:32:40Z</time>
      </trkpt>
      <trkpt lat="42.3033740" lon="-8.2651310">
        <ele>1125.4</ele>
        <time>2022-08-27T16:32:41Z</time>
      </trkpt>
      <trkpt lat="42.3033660" lon="-8.2651250">
        <ele>1125.4</ele>
        <time>2022-08-27T16:32:42Z</time>
      </trkpt>
      <trkpt lat="42.3033580" lon="-8.2651190">
        <ele>1125.5</ele>
        <time>2022-08-27T16:32:43Z</time>
      </trkpt>
      <trkpt lat="42.3033460" lon="-8.2651090">
        <ele>1125.6</ele>
        <time>2022-08-27T16:32:44Z</time>
      </trkpt>
      <trkpt lat="42.3033320" lon="-8.2650990">
        <ele>1125.7</ele>
        <time>2022-08-27T16:32:45Z</time>
      </trkpt>
      <trkpt lat="42.3033200" lon="-8.2650910">
        <ele>1125.8</ele>
        <time>2022-08-27T16:32:46Z</time>
      </trkpt>
      <trkpt lat="42.3033040" lon="-8.2650820">
        <ele>1126.0</ele>
        <time>2022-08-27T16:32:48Z</time>
      </trkpt>
      <trkpt lat="42.3032850" lon="-8.2650690">
        <ele>1126.2</ele>
        <time>2022-08-27T16:32:49Z</time>
      </trkpt>
      <trkpt lat="42.3032750" lon="-8.2650620">
        <ele>1126.3</ele>
        <time>2022-08-27T16:32:50Z</time>
      </trkpt>
      <trkpt lat="42.3032540" lon="-8.2650500">
        <ele>1126.5</ele>
        <time>2022-08-27T16:32:51Z</time>
      </trkpt>
      <trkpt lat="42.3032460" lon="-8.2650440">
        <ele>1126.5</ele>
        <time>2022-08-27T16:32:52Z</time>
      </trkpt>
      <trkpt lat="42.3032380" lon="-8.2650390">
        <ele>1126.6</ele>
        <time>2022-08-27T16:32:53Z</time>
      </trkpt>
      <trkpt lat="42.3032280" lon="-8.2650320">
        <ele>1126.7</ele>
        <time>2022-08-27T16:32:54Z</time>
      </trkpt>
      <trkpt lat="42.3032150" lon="-8.2650260">
        <ele>1126.8</ele>
        <time>2022-08-27T16:32:55Z</time>
      </trkpt>
      <trkpt lat="42.3032050" lon="-8.2650210">
        <ele>1126.9</ele>
        <time>2022-08-27T16:32:56Z</time>
      </trkpt>
      <trkpt lat="42.3031860" lon="-8.2650110">
        <ele>1127.1</ele>
        <time>2022-08-27T16:32:57Z</time>
      </trkpt>
      <trkpt lat="42.3031780" lon="-8.2650080">
        <ele>1127.2</ele>
        <time>2022-08-27T16:32:58Z</time>
      </trkpt>
      <trkpt lat="42.3031700" lon="-8.2650050">
        <ele>1127.3</ele>
        <time>2022-08-27T16:32:59Z</time>
      </trkpt>
      <trkpt lat="42.3031590" lon="-8.2650020">
        <ele>1127.4</ele>
        <time>2022-08-27T16:33:00Z</time>
      </trkpt>
      <trkpt lat="42.3031480" lon="-8.2649990">
        <ele>1127.5</ele>
        <time>2022-08-27T16:33:01Z</time>
      </trkpt>
      <trkpt lat="42.3031370" lon="-8.2649980">
        <ele>1127.6</ele>
        <time>2022-08-27T16:33:02Z</time>
      </trkpt>
      <trkpt lat="42.3031150" lon="-8.2649940">
        <ele>1127.8</ele>
        <time>2022-08-27T16:33:03Z</time>
      </trkpt>
      <trkpt lat="42.3031070" lon="-8.2649910">
        <ele>1127.9</ele>
        <time>2022-08-27T16:33:04Z</time>
      </trkpt>
      <trkpt lat="42.3030990" lon="-8.2649880">
        <ele>1127.9</ele>
        <time>2022-08-27T16:33:05Z</time>
      </trkpt>
      <trkpt lat="42.3030810" lon="-8.2649760">
        <ele>1128.1</ele>
        <time>2022-08-27T16:33:06Z</time>
      </trkpt>
      <trkpt lat="42.3030730" lon="-8.2649690">
        <ele>1128.2</ele>
        <time>2022-08-27T16:33:07Z</time>
      </trkpt>
      <trkpt lat="42.3030650" lon="-8.2649620">
        <ele>1128.3</ele>
        <time>2022-08-27T16:33:08Z</time>
      </trkpt>
      <trkpt lat="42.3030490" lon="-8.2649450">
        <ele>1128.5</ele>
        <time>2022-08-27T16:33:09Z</time>
      </trkpt>
      <trkpt lat="42.3030420" lon="-8.2649390">
        <ele>1128.6</ele>
        <time>2022-08-27T16:33:10Z</time>
      </trkpt>
      <trkpt lat="42.3030350" lon="-8.2649320">
        <ele>1128.7</ele>
        <time>2022-08-27T16:33:11Z</time>
      </trkpt>
      <trkpt lat="42.3030200" lon="-8.2649230">
        <ele>1128.8</ele>
        <time>2022-08-27T16:33:12Z</time>
      </trkpt>
      <trkpt lat="42.3030080" lon="-8.2649130">
        <ele>1129.0</ele>
        <time>2022-08-27T16:33:13Z</time>
      </trkpt>
      <trkpt lat="42.3029900" lon="-8.2649010">
        <ele>1129.2</ele>
        <time>2022-08-27T16:33:14Z</time>
      </trkpt>
      <trkpt lat="42.3029770" lon="-8.2648910">
        <ele>1129.3</ele>
        <time>2022-08-27T16:33:15Z</time>
      </trkpt>
      <trkpt lat="42.3029510" lon="-8.2648760">
        <ele>1129.6</ele>
        <time>2022-08-27T16:33:16Z</time>
      </trkpt>
      <trkpt lat="42.3029410" lon="-8.2648710">
        <ele>1129.7</ele>
        <time>2022-08-27T16:33:17Z</time>
      </trkpt>
      <trkpt lat="42.3029290" lon="-8.2648630">
        <ele>1129.8</ele>
        <time>2022-08-27T16:33:18Z</time>
      </trkpt>
      <trkpt lat="42.3029170" lon="-8.2648540">
        <ele>1129.9</ele>
        <time>2022-08-27T16:33:19Z</time>
      </trkpt>
      <trkpt lat="42.3029030" lon="-8.2648440">
        <ele>1130.0</ele>
        <time>2022-08-27T16:33:20Z</time>
      </trkpt>
      <trkpt lat="42.3028870" lon="-8.2648320">
        <ele>1130.2</ele>
        <time>2022-08-27T16:33:21Z</time>
      </trkpt>
      <trkpt lat="42.3028590" lon="-8.2648150">
        <ele>1130.5</ele>
        <time>2022-08-27T16:33:22Z</time>
      </trkpt>
      <trkpt lat="42.3028460" lon="-8.2648080">
        <ele>1130.6</ele>
        <time>2022-08-27T16:33:23Z</time>
      </trkpt>
      <trkpt lat="42.3028200" lon="-8.2647910">
        <ele>1130.8</ele>
        <time>2022-08-27T16:33:24Z</time>
      </trkpt>
      <trkpt lat="42.3028120" lon="-8.2647850">
        <ele>1130.9</ele>
        <time>2022-08-27T16:33:25Z</time>
      </trkpt>
      <trkpt lat="42.3027990" lon="-8.2647730">
        <ele>1131.0</ele>
        <time>2022-08-27T16:33:26Z</time>
      </trkpt>
      <trkpt lat="42.3027830" lon="-8.2647580">
        <ele>1131.2</ele>
        <time>2022-08-27T16:33:27Z</time>
      </trkpt>
      <trkpt lat="42.3027720" lon="-8.2647480">
        <ele>1131.3</ele>
        <time>2022-08-27T16:33:28Z</time>
      </trkpt>
      <trkpt lat="42.3027590" lon="-8.2647350">
        <ele>1131.4</ele>
        <time>2022-08-27T16:33:29Z</time>
      </trkpt>
      <trkpt lat="42.3027410" lon="-8.2647160">
        <ele>1131.6</ele>
        <time>2022-08-27T16:33:30Z</time>
      </trkpt>
      <trkpt lat="42.3027320" lon="-8.2647060">
        <ele>1131.7</ele>
        <time>2022-08-27T16:33:31Z</time>
      </trkpt>
      <trkpt lat="42.3027210" lon="-8.2646940">
        <ele>1131.8</ele>
        <time>2022-08-27T16:33:32Z</time>
      </trkpt>
      <trkpt lat="42.3027120" lon="-8.2646820">
        <ele>1131.9</ele>
        <time>2022-08-27T16:33:33Z</time>
      </trkpt>
      <trkpt lat="42.3027020" lon="-8.2646680">
        <ele>1132.0</ele>
        <time>2022-08-27T16:33:34Z</time>
      </trkpt>
      <trkpt lat="42.3026950" lon="-8.2646540">
        <ele>1132.2</ele>
        <time>2022-08-27T16:33:35Z</time>
      </trkpt>
      <trkpt lat="42.3026860" lon="-8.2646360">
        <ele>1132.3</ele>
        <time>2022-08-27T16:33:36Z</time>
      </trkpt>
      <trkpt lat="42.3026790" lon="-8.2646210">
        <ele>1132.4</ele>
        <time>2022-08-27T16:33:37Z</time>
      </trkpt>
      <trkpt lat="42.3026670" lon="-8.2645960">
        <ele>1132.7</ele>
        <time>2022-08-27T16:33:38Z</time>
      </trkpt>
      <trkpt lat="42.3026630" lon="-8.2645880">
        <ele>1132.8</ele>
        <time>2022-08-27T16:33:39Z</time>
      </trkpt>
      <trkpt lat="42.3026590" lon="-8.2645790">
        <ele>1132.8</ele>
        <time>2022-08-27T16:33:40Z</time>
      </trkpt>
      <trkpt lat="42.3026440" lon="-8.2645560">
        <ele>1133.1</ele>
        <time>2022-08-27T16:33:41Z</time>
      </trkpt>
      <trkpt lat="42.3026380" lon="-8.2645480">
        <ele>1133.2</ele>
        <time>2022-08-27T16:33:42Z</time>
      </trkpt>
      <trkpt lat="42.3026320" lon="-8.2645410">
        <ele>1133.3</ele>
        <time>2022-08-27T16:33:43Z</time>
      </trkpt>
      <trkpt lat="42.3026200" lon="-8.2645280">
        <ele>1133.5</ele>
        <time>2022-08-27T16:33:44Z</time>
      </trkpt>
      <trkpt lat="42.3026100" lon="-8.2645180">
        <ele>1133.7</ele>
        <time>2022-08-27T16:33:45Z</time>
      </trkpt>
      <trkpt lat="42.3026050" lon="-8.2645090">
        <ele>1133.8</ele>
        <time>2022-08-27T16:33:46Z</time>
      </trkpt>
      <trkpt lat="42.3025990" lon="-8.2644970">
        <ele>1133.9</ele>
        <time>2022-08-27T16:33:47Z</time>
      </trkpt>
      <trkpt lat="42.3025950" lon="-8.2644860">
        <ele>1134.1</ele>
        <time>2022-08-27T16:33:48Z</time>
      </trkpt>
      <trkpt lat="42.3025900" lon="-8.2644750">
        <ele>1134.2</ele>
        <time>2022-08-27T16:33:49Z</time>
      </trkpt>
      <trkpt lat="42.3025870" lon="-8.2644600">
        <ele>1134.3</ele>
        <time>2022-08-27T16:33:50Z</time>
      </trkpt>
      <trkpt lat="42.3025820" lon="-8.2644450">
        <ele>1134.5</ele>
        <time>2022-08-27T16:33:51Z</time>
      </trkpt>
      <trkpt lat="42.3025790" lon="-8.2644350">
        <ele>1134.6</ele>
        <time>2022-08-27T16:33:52Z</time>
      </trkpt>
      <trkpt lat="42.3025740" lon="-8.2644210">
        <ele>1134.8</ele>
        <time>2022-08-27T16:33:53Z</time>
      </trkpt>
      <trkpt lat="42.3025690" lon="-8.2644100">
        <ele>1134.9</ele>
        <time>2022-08-27T16:33:54Z</time>
      </trkpt>
      <trkpt lat="42.3025640" lon="-8.2643980">
        <ele>1135.1</ele>
        <time>2022-08-27T16:33:55Z</time>
      </trkpt>
      <trkpt lat="42.3025580" lon="-8.2643870">
        <ele>1135.2</ele>
        <time>2022-08-27T16:33:56Z</time>
      </trkpt>
      <trkpt lat="42.3025530" lon="-8.2643780">
        <ele>1135.3</ele>
        <time>2022-08-27T16:33:57Z</time>
      </trkpt>
      <trkpt lat="42.3025470" lon="-8.2643690">
        <ele>1135.4</ele>
        <time>2022-08-27T16:33:58Z</time>
      </trkpt>
      <trkpt lat="42.3025430" lon="-8.2643610">
        <ele>1135.5</ele>
        <time>2022-08-27T16:33:59Z</time>
      </trkpt>
      <trkpt lat="42.3025350" lon="-8.2643470">
        <ele>1135.7</ele>
        <time>2022-08-27T16:34:00Z</time>
      </trkpt>
      <trkpt lat="42.3025320" lon="-8.2643380">
        <ele>1135.8</ele>
        <time>2022-08-27T16:34:01Z</time>
      </trkpt>
      <trkpt lat="42.3025290" lon="-8.2643260">
        <ele>1136.0</ele>
        <time>2022-08-27T16:34:02Z</time>
      </trkpt>
      <trkpt lat="42.3025250" lon="-8.2643100">
        <ele>1136.1</ele>
        <time>2022-08-27T16:34:03Z</time>
      </trkpt>
      <trkpt lat="42.3025180" lon="-8.2642870">
        <ele>1136.4</ele>
        <time>2022-08-27T16:34:04Z</time>
      </trkpt>
      <trkpt lat="42.3025150" lon="-8.2642810">
        <ele>1136.5</ele>
        <time>2022-08-27T16:34:05Z</time>
      </trkpt>
      <trkpt lat="42.3025130" lon="-8.2642730">
        <ele>1136.6</ele>
        <time>2022-08-27T16:34:06Z</time>
      </trkpt>
      <trkpt lat="42.3025100" lon="-8.2642610">
        <ele>1136.7</ele>
        <time>2022-08-27T16:34:07Z</time>
      </trkpt>
      <trkpt lat="42.3025090" lon="-8.2642530">
        <ele>1136.8</ele>
        <time>2022-08-27T16:34:08Z</time>
      </trkpt>
      <trkpt lat="42.3025070" lon="-8.2642440">
        <ele>1136.9</ele>
        <time>2022-08-27T16:34:09Z</time>
      </trkpt>
      <trkpt lat="42.3025040" lon="-8.2642290">
        <ele>1137.0</ele>
        <time>2022-08-27T16:34:10Z</time>
      </trkpt>
      <trkpt lat="42.3024940" lon="-8.2642040">
        <ele>1137.3</ele>
        <time>2022-08-27T16:34:11Z</time>
      </trkpt>
      <trkpt lat="42.3024900" lon="-8.2641940">
        <ele>1137.4</ele>
        <time>2022-08-27T16:34:12Z</time>
      </trkpt>
      <trkpt lat="42.3024850" lon="-8.2641840">
        <ele>1137.5</ele>
        <time>2022-08-27T16:34:13Z</time>
      </trkpt>
      <trkpt lat="42.3024790" lon="-8.2641700">
        <ele>1137.7</ele>
        <time>2022-08-27T16:34:14Z</time>
      </trkpt>
      <trkpt lat="42.3024760" lon="-8.2641580">
        <ele>1137.8</ele>
        <time>2022-08-27T16:34:15Z</time>
      </trkpt>
      <trkpt lat="42.3024720" lon="-8.2641430">
        <ele>1138.0</ele>
        <time>2022-08-27T16:34:16Z</time>
      </trkpt>
      <trkpt lat="42.3024650" lon="-8.2641280">
        <ele>1138.1</ele>
        <time>2022-08-27T16:34:17Z</time>
      </trkpt>
      <trkpt lat="42.3024620" lon="-8.2641190">
        <ele>1138.2</ele>
        <time>2022-08-27T16:34:18Z</time>
      </trkpt>
      <trkpt lat="42.3024590" lon="-8.2641080">
        <ele>1138.3</ele>
        <time>2022-08-27T16:34:19Z</time>
      </trkpt>
      <trkpt lat="42.3024540" lon="-8.2640950">
        <ele>1138.5</ele>
        <time>2022-08-27T16:34:20Z</time>
      </trkpt>
      <trkpt lat="42.3024530" lon="-8.2640840">
        <ele>1138.6</ele>
        <time>2022-08-27T16:34:21Z</time>
      </trkpt>
      <trkpt lat="42.3024520" lon="-8.2640760">
        <ele>1138.7</ele>
        <time>2022-08-27T16:34:22Z</time>
      </trkpt>
      <trkpt lat="42.3024500" lon="-8.2640620">
        <ele>1138.8</ele>
        <time>2022-08-27T16:34:23Z</time>
      </trkpt>
      <trkpt lat="42.3024500" lon="-8.2640510">
        <ele>1138.9</ele>
        <time>2022-08-27T16:34:24Z</time>
      </trkpt>
      <trkpt lat="42.3024480" lon="-8.2640400">
        <ele>1139.0</ele>
        <time>2022-08-27T16:34:25Z</time>
      </trkpt>
      <trkpt lat="42.3024480" lon="-8.2640290">
        <ele>1139.1</ele>
        <time>2022-08-27T16:34:26Z</time>
      </trkpt>
      <trkpt lat="42.3024510" lon="-8.2640200">
        <ele>1139.2</ele>
        <time>2022-08-27T16:34:27Z</time>
      </trkpt>
      <trkpt lat="42.3024540" lon="-8.2640140">
        <ele>1139.3</ele>
        <time>2022-08-27T16:34:28Z</time>
      </trkpt>
      <trkpt lat="42.3024570" lon="-8.2640110">
        <ele>1139.3</ele>
        <time>2022-08-27T16:34:29Z</time>
      </trkpt>
      <trkpt lat="42.3024620" lon="-8.2639990">
        <ele>1139.4</ele>
        <time>2022-08-27T16:34:30Z</time>
      </trkpt>
      <trkpt lat="42.3024650" lon="-8.2639840">
        <ele>1139.6</ele>
        <time>2022-08-27T16:34:31Z</time>
      </trkpt>
      <trkpt lat="42.3024690" lon="-8.2639740">
        <ele>1139.7</ele>
        <time>2022-08-27T16:34:32Z</time>
      </trkpt>
      <trkpt lat="42.3024720" lon="-8.2639620">
        <ele>1139.8</ele>
        <time>2022-08-27T16:34:33Z</time>
      </trkpt>
      <trkpt lat="42.3024750" lon="-8.2639500">
        <ele>1139.9</ele>
        <time>2022-08-27T16:34:34Z</time>
      </trkpt>
      <trkpt lat="42.3024780" lon="-8.2639370">
        <ele>1140.1</ele>
        <time>2022-08-27T16:34:35Z</time>
      </trkpt>
      <trkpt lat="42.3024800" lon="-8.2639210">
        <ele>1140.2</ele>
        <time>2022-08-27T16:34:36Z</time>
      </trkpt>
      <trkpt lat="42.3024800" lon="-8.2639110">
        <ele>1140.3</ele>
        <time>2022-08-27T16:34:37Z</time>
      </trkpt>
      <trkpt lat="42.3024780" lon="-8.2639010">
        <ele>1140.4</ele>
        <time>2022-08-27T16:34:38Z</time>
      </trkpt>
      <trkpt lat="42.3024730" lon="-8.2638890">
        <ele>1140.5</ele>
        <time>2022-08-27T16:34:39Z</time>
      </trkpt>
      <trkpt lat="42.3024700" lon="-8.2638730">
        <ele>1140.7</ele>
        <time>2022-08-27T16:34:40Z</time>
      </trkpt>
      <trkpt lat="42.3024680" lon="-8.2638620">
        <ele>1140.8</ele>
        <time>2022-08-27T16:34:41Z</time>
      </trkpt>
      <trkpt lat="42.3024670" lon="-8.2638480">
        <ele>1140.9</ele>
        <time>2022-08-27T16:34:42Z</time>
      </trkpt>
      <trkpt lat="42.3024680" lon="-8.2638360">
        <ele>1141.0</ele>
        <time>2022-08-27T16:34:43Z</time>
      </trkpt>
      <trkpt lat="42.3024710" lon="-8.2638190">
        <ele>1141.2</ele>
        <time>2022-08-27T16:34:44Z</time>
      </trkpt>
      <trkpt lat="42.3024720" lon="-8.2638050">
        <ele>1141.3</ele>
        <time>2022-08-27T16:34:45Z</time>
      </trkpt>
      <trkpt lat="42.3024720" lon="-8.2637910">
        <ele>1141.4</ele>
        <time>2022-08-27T16:34:46Z</time>
      </trkpt>
      <trkpt lat="42.3024720" lon="-8.2637780">
        <ele>1141.5</ele>
        <time>2022-08-27T16:34:47Z</time>
      </trkpt>
      <trkpt lat="42.3024740" lon="-8.2637620">
        <ele>1141.6</ele>
        <time>2022-08-27T16:34:48Z</time>
      </trkpt>
      <trkpt lat="42.3024760" lon="-8.2637470">
        <ele>1141.8</ele>
        <time>2022-08-27T16:34:49Z</time>
      </trkpt>
      <trkpt lat="42.3024780" lon="-8.2637290">
        <ele>1141.9</ele>
        <time>2022-08-27T16:34:50Z</time>
      </trkpt>
      <trkpt lat="42.3024800" lon="-8.2637150">
        <ele>1142.0</ele>
        <time>2022-08-27T16:34:51Z</time>
      </trkpt>
      <trkpt lat="42.3024820" lon="-8.2637020">
        <ele>1142.1</ele>
        <time>2022-08-27T16:34:52Z</time>
      </trkpt>
      <trkpt lat="42.3024860" lon="-8.2636740">
        <ele>1142.2</ele>
        <time>2022-08-27T16:34:53Z</time>
      </trkpt>
      <trkpt lat="42.3024870" lon="-8.2636640">
        <ele>1142.3</ele>
        <time>2022-08-27T16:34:54Z</time>
      </trkpt>
      <trkpt lat="42.3024880" lon="-8.2636540">
        <ele>1142.3</ele>
        <time>2022-08-27T16:34:55Z</time>
      </trkpt>
      <trkpt lat="42.3024880" lon="-8.2636390">
        <ele>1142.4</ele>
        <time>2022-08-27T16:34:56Z</time>
      </trkpt>
      <trkpt lat="42.3024890" lon="-8.2636260">
        <ele>1142.4</ele>
        <time>2022-08-27T16:34:57Z</time>
      </trkpt>
      <trkpt lat="42.3024890" lon="-8.2636130">
        <ele>1142.4</ele>
        <time>2022-08-27T16:34:58Z</time>
      </trkpt>
      <trkpt lat="42.3024890" lon="-8.2635860">
        <ele>1142.5</ele>
        <time>2022-08-27T16:34:59Z</time>
      </trkpt>
      <trkpt lat="42.3024880" lon="-8.2635740">
        <ele>1142.5</ele>
        <time>2022-08-27T16:35:00Z</time>
      </trkpt>
      <trkpt lat="42.3024870" lon="-8.2635620">
        <ele>1142.5</ele>
        <time>2022-08-27T16:35:01Z</time>
      </trkpt>
      <trkpt lat="42.3024830" lon="-8.2635410">
        <ele>1142.5</ele>
        <time>2022-08-27T16:35:02Z</time>
      </trkpt>
      <trkpt lat="42.3024810" lon="-8.2635220">
        <ele>1142.5</ele>
        <time>2022-08-27T16:35:03Z</time>
      </trkpt>
      <trkpt lat="42.3024820" lon="-8.2635030">
        <ele>1142.5</ele>
        <time>2022-08-27T16:35:04Z</time>
      </trkpt>
      <trkpt lat="42.3024860" lon="-8.2634830">
        <ele>1142.5</ele>
        <time>2022-08-27T16:35:05Z</time>
      </trkpt>
      <trkpt lat="42.3024910" lon="-8.2634630">
        <ele>1142.5</ele>
        <time>2022-08-27T16:35:06Z</time>
      </trkpt>
      <trkpt lat="42.3024930" lon="-8.2634370">
        <ele>1142.4</ele>
        <time>2022-08-27T16:35:07Z</time>
      </trkpt>
      <trkpt lat="42.3024940" lon="-8.2633910">
        <ele>1142.3</ele>
        <time>2022-08-27T16:35:08Z</time>
      </trkpt>
      <trkpt lat="42.3024940" lon="-8.2633730">
        <ele>1142.2</ele>
        <time>2022-08-27T16:35:09Z</time>
      </trkpt>
      <trkpt lat="42.3024900" lon="-8.2633250">
        <ele>1142.0</ele>
        <time>2022-08-27T16:35:10Z</time>
      </trkpt>
      <trkpt lat="42.3024860" lon="-8.2632780">
        <ele>1141.8</ele>
        <time>2022-08-27T16:35:11Z</time>
      </trkpt>
      <trkpt lat="42.3024810" lon="-8.2632270">
        <ele>1141.6</ele>
        <time>2022-08-27T16:35:12Z</time>
      </trkpt>
      <trkpt lat="42.3024770" lon="-8.2631670">
        <ele>1141.2</ele>
        <time>2022-08-27T16:35:13Z</time>
      </trkpt>
      <trkpt lat="42.3024720" lon="-8.2631140">
        <ele>1140.8</ele>
        <time>2022-08-27T16:35:14Z</time>
      </trkpt>
      <trkpt lat="42.3024680" lon="-8.2630740">
        <ele>1140.5</ele>
        <time>2022-08-27T16:35:15Z</time>
      </trkpt>
      <trkpt lat="42.3024640" lon="-8.2630200">
        <ele>1140.1</ele>
        <time>2022-08-27T16:35:16Z</time>
      </trkpt>
      <trkpt lat="42.3024610" lon="-8.2629650">
        <ele>1139.6</ele>
        <time>2022-08-27T16:35:17Z</time>
      </trkpt>
      <trkpt lat="42.3024670" lon="-8.2629100">
        <ele>1139.1</ele>
        <time>2022-08-27T16:35:18Z</time>
      </trkpt>
      <trkpt lat="42.3024900" lon="-8.2628490">
        <ele>1138.5</ele>
        <time>2022-08-27T16:35:19Z</time>
      </trkpt>
      <trkpt lat="42.3025100" lon="-8.2628080">
        <ele>1138.1</ele>
        <time>2022-08-27T16:35:20Z</time>
      </trkpt>
      <trkpt lat="42.3025520" lon="-8.2627570">
        <ele>1137.3</ele>
        <time>2022-08-27T16:35:21Z</time>
      </trkpt>
      <trkpt lat="42.3025990" lon="-8.2627160">
        <ele>1136.6</ele>
        <time>2022-08-27T16:35:22Z</time>
      </trkpt>
      <trkpt lat="42.3026510" lon="-8.2626690">
        <ele>1135.8</ele>
        <time>2022-08-27T16:35:23Z</time>
      </trkpt>
      <trkpt lat="42.3027050" lon="-8.2626200">
        <ele>1134.9</ele>
        <time>2022-08-27T16:35:24Z</time>
      </trkpt>
      <trkpt lat="42.3027690" lon="-8.2625650">
        <ele>1133.8</ele>
        <time>2022-08-27T16:35:25Z</time>
      </trkpt>
      <trkpt lat="42.3028340" lon="-8.2625090">
        <ele>1132.7</ele>
        <time>2022-08-27T16:35:26Z</time>
      </trkpt>
      <trkpt lat="42.3029030" lon="-8.2624570">
        <ele>1131.7</ele>
        <time>2022-08-27T16:35:27Z</time>
      </trkpt>
      <trkpt lat="42.3029780" lon="-8.2624070">
        <ele>1130.9</ele>
        <time>2022-08-27T16:35:28Z</time>
      </trkpt>
      <trkpt lat="42.3030520" lon="-8.2623650">
        <ele>1130.2</ele>
        <time>2022-08-27T16:35:29Z</time>
      </trkpt>
      <trkpt lat="42.3031270" lon="-8.2623220">
        <ele>1129.5</ele>
        <time>2022-08-27T16:35:30Z</time>
      </trkpt>
      <trkpt lat="42.3032010" lon="-8.2622800">
        <ele>1128.9</ele>
        <time>2022-08-27T16:35:31Z</time>
      </trkpt>
      <trkpt lat="42.3032720" lon="-8.2622420">
        <ele>1128.4</ele>
        <time>2022-08-27T16:35:32Z</time>
      </trkpt>
      <trkpt lat="42.3033380" lon="-8.2622030">
        <ele>1128.0</ele>
        <time>2022-08-27T16:35:33Z</time>
      </trkpt>
      <trkpt lat="42.3034030" lon="-8.2621610">
        <ele>1127.6</ele>
        <time>2022-08-27T16:35:34Z</time>
      </trkpt>
      <trkpt lat="42.3034660" lon="-8.2621220">
        <ele>1127.3</ele>
        <time>2022-08-27T16:35:35Z</time>
      </trkpt>
      <trkpt lat="42.3035340" lon="-8.2620860">
        <ele>1126.9</ele>
        <time>2022-08-27T16:35:36Z</time>
      </trkpt>
      <trkpt lat="42.3036010" lon="-8.2620440">
        <ele>1126.5</ele>
        <time>2022-08-27T16:35:37Z</time>
      </trkpt>
      <trkpt lat="42.3036560" lon="-8.2620020">
        <ele>1126.2</ele>
        <time>2022-08-27T16:35:38Z</time>
      </trkpt>
      <trkpt lat="42.3037160" lon="-8.2619580">
        <ele>1125.8</ele>
        <time>2022-08-27T16:35:39Z</time>
      </trkpt>
      <trkpt lat="42.3037760" lon="-8.2619180">
        <ele>1125.4</ele>
        <time>2022-08-27T16:35:40Z</time>
      </trkpt>
      <trkpt lat="42.3038360" lon="-8.2618790">
        <ele>1125.0</ele>
        <time>2022-08-27T16:35:41Z</time>
      </trkpt>
      <trkpt lat="42.3038900" lon="-8.2618280">
        <ele>1124.6</ele>
        <time>2022-08-27T16:35:42Z</time>
      </trkpt>
      <trkpt lat="42.3039400" lon="-8.2617790">
        <ele>1124.3</ele>
        <time>2022-08-27T16:35:43Z</time>
      </trkpt>
      <trkpt lat="42.3039960" lon="-8.2617220">
        <ele>1123.9</ele>
        <time>2022-08-27T16:35:44Z</time>
      </trkpt>
      <trkpt lat="42.3040490" lon="-8.2616520">
        <ele>1123.5</ele>
        <time>2022-08-27T16:35:45Z</time>
      </trkpt>
      <trkpt lat="42.3041000" lon="-8.2615620">
        <ele>1123.1</ele>
        <time>2022-08-27T16:35:46Z</time>
      </trkpt>
      <trkpt lat="42.3041450" lon="-8.2614620">
        <ele>1122.7</ele>
        <time>2022-08-27T16:35:47Z</time>
      </trkpt>
      <trkpt lat="42.3041840" lon="-8.2613500">
        <ele>1122.4</ele>
        <time>2022-08-27T16:35:48Z</time>
      </trkpt>
      <trkpt lat="42.3042230" lon="-8.2612420">
        <ele>1122.1</ele>
        <time>2022-08-27T16:35:49Z</time>
      </trkpt>
      <trkpt lat="42.3042560" lon="-8.2611430">
        <ele>1122.0</ele>
        <time>2022-08-27T16:35:50Z</time>
      </trkpt>
      <trkpt lat="42.3042840" lon="-8.2610440">
        <ele>1122.0</ele>
        <time>2022-08-27T16:35:51Z</time>
      </trkpt>
      <trkpt lat="42.3043080" lon="-8.2609530">
        <ele>1122.0</ele>
        <time>2022-08-27T16:35:52Z</time>
      </trkpt>
      <trkpt lat="42.3043330" lon="-8.2608660">
        <ele>1122.1</ele>
        <time>2022-08-27T16:35:53Z</time>
      </trkpt>
      <trkpt lat="42.3043610" lon="-8.2607920">
        <ele>1122.1</ele>
        <time>2022-08-27T16:35:54Z</time>
      </trkpt>
      <trkpt lat="42.3043890" lon="-8.2607180">
        <ele>1122.2</ele>
        <time>2022-08-27T16:35:55Z</time>
      </trkpt>
      <trkpt lat="42.3044130" lon="-8.2606460">
        <ele>1122.2</ele>
        <time>2022-08-27T16:35:56Z</time>
      </trkpt>
      <trkpt lat="42.3044420" lon="-8.2605780">
        <ele>1122.3</ele>
        <time>2022-08-27T16:35:57Z</time>
      </trkpt>
      <trkpt lat="42.3044760" lon="-8.2605150">
        <ele>1122.4</ele>
        <time>2022-08-27T16:35:58Z</time>
      </trkpt>
      <trkpt lat="42.3045110" lon="-8.2604570">
        <ele>1122.5</ele>
        <time>2022-08-27T16:35:59Z</time>
      </trkpt>
      <trkpt lat="42.3045430" lon="-8.2604010">
        <ele>1122.6</ele>
        <time>2022-08-27T16:36:00Z</time>
      </trkpt>
      <trkpt lat="42.3045720" lon="-8.2603540">
        <ele>1122.9</ele>
        <time>2022-08-27T16:36:01Z</time>
      </trkpt>
      <trkpt lat="42.3046060" lon="-8.2603160">
        <ele>1123.2</ele>
        <time>2022-08-27T16:36:02Z</time>
      </trkpt>
      <trkpt lat="42.3046300" lon="-8.2602990">
        <ele>1123.4</ele>
        <time>2022-08-27T16:36:03Z</time>
      </trkpt>
      <trkpt lat="42.3046610" lon="-8.2602830">
        <ele>1123.6</ele>
        <time>2022-08-27T16:36:04Z</time>
      </trkpt>
      <trkpt lat="42.3046920" lon="-8.2602730">
        <ele>1123.8</ele>
        <time>2022-08-27T16:36:05Z</time>
      </trkpt>
      <trkpt lat="42.3047030" lon="-8.2602730">
        <ele>1124.1</ele>
        <time>2022-08-27T16:36:06Z</time>
      </trkpt>
      <trkpt lat="42.3047340" lon="-8.2602710">
        <ele>1124.1</ele>
        <time>2022-08-27T16:36:07Z</time>
      </trkpt>
      <trkpt lat="42.3047660" lon="-8.2602760">
        <ele>1124.1</ele>
        <time>2022-08-27T16:36:08Z</time>
      </trkpt>
      <trkpt lat="42.3047980" lon="-8.2602820">
        <ele>1124.1</ele>
        <time>2022-08-27T16:36:09Z</time>
      </trkpt>
      <trkpt lat="42.3048370" lon="-8.2602910">
        <ele>1124.0</ele>
        <time>2022-08-27T16:36:10Z</time>
      </trkpt>
      <trkpt lat="42.3048810" lon="-8.2603060">
        <ele>1123.9</ele>
        <time>2022-08-27T16:36:11Z</time>
      </trkpt>
      <trkpt lat="42.3049260" lon="-8.2603220">
        <ele>1123.8</ele>
        <time>2022-08-27T16:36:12Z</time>
      </trkpt>
      <trkpt lat="42.3049680" lon="-8.2603460">
        <ele>1123.6</ele>
        <time>2022-08-27T16:36:13Z</time>
      </trkpt>
      <trkpt lat="42.3049980" lon="-8.2603610">
        <ele>1123.5</ele>
        <time>2022-08-27T16:36:14Z</time>
      </trkpt>
      <trkpt lat="42.3050400" lon="-8.2603840">
        <ele>1123.4</ele>
        <time>2022-08-27T16:36:15Z</time>
      </trkpt>
      <trkpt lat="42.3050710" lon="-8.2603990">
        <ele>1123.3</ele>
        <time>2022-08-27T16:36:16Z</time>
      </trkpt>
      <trkpt lat="42.3051220" lon="-8.2604290">
        <ele>1123.1</ele>
        <time>2022-08-27T16:36:17Z</time>
      </trkpt>
      <trkpt lat="42.3051690" lon="-8.2604520">
        <ele>1122.9</ele>
        <time>2022-08-27T16:36:18Z</time>
      </trkpt>
      <trkpt lat="42.3052120" lon="-8.2604720">
        <ele>1122.8</ele>
        <time>2022-08-27T16:36:19Z</time>
      </trkpt>
      <trkpt lat="42.3052610" lon="-8.2604900">
        <ele>1122.6</ele>
        <time>2022-08-27T16:36:20Z</time>
      </trkpt>
      <trkpt lat="42.3053200" lon="-8.2605100">
        <ele>1122.3</ele>
        <time>2022-08-27T16:36:21Z</time>
      </trkpt>
      <trkpt lat="42.3053820" lon="-8.2605230">
        <ele>1122.0</ele>
        <time>2022-08-27T16:36:22Z</time>
      </trkpt>
      <trkpt lat="42.3054520" lon="-8.2605220">
        <ele>1121.7</ele>
        <time>2022-08-27T16:36:23Z</time>
      </trkpt>
      <trkpt lat="42.3055130" lon="-8.2605310">
        <ele>1121.4</ele>
        <time>2022-08-27T16:36:24Z</time>
      </trkpt>
      <trkpt lat="42.3055760" lon="-8.2605330">
        <ele>1121.1</ele>
        <time>2022-08-27T16:36:25Z</time>
      </trkpt>
      <trkpt lat="42.3056370" lon="-8.2605340">
        <ele>1120.8</ele>
        <time>2022-08-27T16:36:26Z</time>
      </trkpt>
      <trkpt lat="42.3057030" lon="-8.2605260">
        <ele>1120.4</ele>
        <time>2022-08-27T16:36:27Z</time>
      </trkpt>
      <trkpt lat="42.3057760" lon="-8.2605200">
        <ele>1120.0</ele>
        <time>2022-08-27T16:36:28Z</time>
      </trkpt>
      <trkpt lat="42.3058430" lon="-8.2605080">
        <ele>1119.6</ele>
        <time>2022-08-27T16:36:29Z</time>
      </trkpt>
      <trkpt lat="42.3059120" lon="-8.2605050">
        <ele>1119.2</ele>
        <time>2022-08-27T16:36:30Z</time>
      </trkpt>
      <trkpt lat="42.3059820" lon="-8.2605020">
        <ele>1118.8</ele>
        <time>2022-08-27T16:36:31Z</time>
      </trkpt>
      <trkpt lat="42.3060550" lon="-8.2604920">
        <ele>1118.3</ele>
        <time>2022-08-27T16:36:32Z</time>
      </trkpt>
      <trkpt lat="42.3061290" lon="-8.2604860">
        <ele>1117.9</ele>
        <time>2022-08-27T16:36:33Z</time>
      </trkpt>
      <trkpt lat="42.3062020" lon="-8.2604810">
        <ele>1117.4</ele>
        <time>2022-08-27T16:36:34Z</time>
      </trkpt>
      <trkpt lat="42.3062760" lon="-8.2604720">
        <ele>1116.9</ele>
        <time>2022-08-27T16:36:35Z</time>
      </trkpt>
      <trkpt lat="42.3063490" lon="-8.2604610">
        <ele>1116.3</ele>
        <time>2022-08-27T16:36:36Z</time>
      </trkpt>
      <trkpt lat="42.3064270" lon="-8.2604480">
        <ele>1115.8</ele>
        <time>2022-08-27T16:36:37Z</time>
      </trkpt>
      <trkpt lat="42.3065110" lon="-8.2604350">
        <ele>1115.3</ele>
        <time>2022-08-27T16:36:38Z</time>
      </trkpt>
      <trkpt lat="42.3065890" lon="-8.2604230">
        <ele>1114.9</ele>
        <time>2022-08-27T16:36:39Z</time>
      </trkpt>
      <trkpt lat="42.3066600" lon="-8.2604050">
        <ele>1114.4</ele>
        <time>2022-08-27T16:36:40Z</time>
      </trkpt>
      <trkpt lat="42.3067220" lon="-8.2603900">
        <ele>1114.0</ele>
        <time>2022-08-27T16:36:41Z</time>
      </trkpt>
      <trkpt lat="42.3067870" lon="-8.2603730">
        <ele>1113.6</ele>
        <time>2022-08-27T16:36:42Z</time>
      </trkpt>
      <trkpt lat="42.3068570" lon="-8.2603490">
        <ele>1113.2</ele>
        <time>2022-08-27T16:36:43Z</time>
      </trkpt>
      <trkpt lat="42.3069300" lon="-8.2603250">
        <ele>1112.7</ele>
        <time>2022-08-27T16:36:44Z</time>
      </trkpt>
      <trkpt lat="42.3070010" lon="-8.2602960">
        <ele>1112.3</ele>
        <time>2022-08-27T16:36:45Z</time>
      </trkpt>
      <trkpt lat="42.3070690" lon="-8.2602690">
        <ele>1111.8</ele>
        <time>2022-08-27T16:36:46Z</time>
      </trkpt>
      <trkpt lat="42.3071390" lon="-8.2602410">
        <ele>1111.4</ele>
        <time>2022-08-27T16:36:47Z</time>
      </trkpt>
      <trkpt lat="42.3072150" lon="-8.2602160">
        <ele>1110.7</ele>
        <time>2022-08-27T16:36:48Z</time>
      </trkpt>
      <trkpt lat="42.3072970" lon="-8.2601910">
        <ele>1109.9</ele>
        <time>2022-08-27T16:36:49Z</time>
      </trkpt>
      <trkpt lat="42.3073820" lon="-8.2601670">
        <ele>1109.0</ele>
        <time>2022-08-27T16:36:50Z</time>
      </trkpt>
      <trkpt lat="42.3074680" lon="-8.2601440">
        <ele>1108.3</ele>
        <time>2022-08-27T16:36:51Z</time>
      </trkpt>
      <trkpt lat="42.3075520" lon="-8.2601370">
        <ele>1107.8</ele>
        <time>2022-08-27T16:36:52Z</time>
      </trkpt>
      <trkpt lat="42.3076340" lon="-8.2601410">
        <ele>1107.4</ele>
        <time>2022-08-27T16:36:53Z</time>
      </trkpt>
      <trkpt lat="42.3077120" lon="-8.2601600">
        <ele>1107.0</ele>
        <time>2022-08-27T16:36:54Z</time>
      </trkpt>
      <trkpt lat="42.3077900" lon="-8.2601940">
        <ele>1106.6</ele>
        <time>2022-08-27T16:36:55Z</time>
      </trkpt>
      <trkpt lat="42.3078590" lon="-8.2602390">
        <ele>1106.2</ele>
        <time>2022-08-27T16:36:56Z</time>
      </trkpt>
      <trkpt lat="42.3079280" lon="-8.2602970">
        <ele>1105.8</ele>
        <time>2022-08-27T16:36:57Z</time>
      </trkpt>
      <trkpt lat="42.3079990" lon="-8.2603480">
        <ele>1105.5</ele>
        <time>2022-08-27T16:36:58Z</time>
      </trkpt>
      <trkpt lat="42.3080640" lon="-8.2603900">
        <ele>1105.3</ele>
        <time>2022-08-27T16:36:59Z</time>
      </trkpt>
      <trkpt lat="42.3081320" lon="-8.2604270">
        <ele>1105.0</ele>
        <time>2022-08-27T16:37:00Z</time>
      </trkpt>
      <trkpt lat="42.3081930" lon="-8.2604630">
        <ele>1104.8</ele>
        <time>2022-08-27T16:37:01Z</time>
      </trkpt>
      <trkpt lat="42.3082530" lon="-8.2605040">
        <ele>1104.6</ele>
        <time>2022-08-27T16:37:02Z</time>
      </trkpt>
      <trkpt lat="42.3083190" lon="-8.2605340">
        <ele>1104.4</ele>
        <time>2022-08-27T16:37:03Z</time>
      </trkpt>
      <trkpt lat="42.3083860" lon="-8.2605690">
        <ele>1104.1</ele>
        <time>2022-08-27T16:37:04Z</time>
      </trkpt>
      <trkpt lat="42.3084500" lon="-8.2606100">
        <ele>1103.8</ele>
        <time>2022-08-27T16:37:05Z</time>
      </trkpt>
      <trkpt lat="42.3085160" lon="-8.2606410">
        <ele>1103.4</ele>
        <time>2022-08-27T16:37:06Z</time>
      </trkpt>
      <trkpt lat="42.3085870" lon="-8.2606720">
        <ele>1103.0</ele>
        <time>2022-08-27T16:37:07Z</time>
      </trkpt>
      <trkpt lat="42.3086560" lon="-8.2607160">
        <ele>1102.5</ele>
        <time>2022-08-27T16:37:08Z</time>
      </trkpt>
      <trkpt lat="42.3087230" lon="-8.2607670">
        <ele>1102.1</ele>
        <time>2022-08-27T16:37:09Z</time>
      </trkpt>
      <trkpt lat="42.3087920" lon="-8.2608240">
        <ele>1101.6</ele>
        <time>2022-08-27T16:37:10Z</time>
      </trkpt>
      <trkpt lat="42.3088600" lon="-8.2608750">
        <ele>1101.1</ele>
        <time>2022-08-27T16:37:11Z</time>
      </trkpt>
      <trkpt lat="42.3089300" lon="-8.2609180">
        <ele>1100.7</ele>
        <time>2022-08-27T16:37:12Z</time>
      </trkpt>
      <trkpt lat="42.3090020" lon="-8.2609610">
        <ele>1100.2</ele>
        <time>2022-08-27T16:37:13Z</time>
      </trkpt>
      <trkpt lat="42.3090690" lon="-8.2610040">
        <ele>1099.8</ele>
        <time>2022-08-27T16:37:14Z</time>
      </trkpt>
      <trkpt lat="42.3091300" lon="-8.2610470">
        <ele>1099.4</ele>
        <time>2022-08-27T16:37:15Z</time>
      </trkpt>
      <trkpt lat="42.3091900" lon="-8.2610900">
        <ele>1099.0</ele>
        <time>2022-08-27T16:37:16Z</time>
      </trkpt>
      <trkpt lat="42.3092490" lon="-8.2611370">
        <ele>1098.7</ele>
        <time>2022-08-27T16:37:17Z</time>
      </trkpt>
      <trkpt lat="42.3093060" lon="-8.2611810">
        <ele>1098.4</ele>
        <time>2022-08-27T16:37:18Z</time>
      </trkpt>
      <trkpt lat="42.3093680" lon="-8.2612280">
        <ele>1098.1</ele>
        <time>2022-08-27T16:37:19Z</time>
      </trkpt>
      <trkpt lat="42.3094250" lon="-8.2612720">
        <ele>1097.9</ele>
        <time>2022-08-27T16:37:20Z</time>
      </trkpt>
      <trkpt lat="42.3094770" lon="-8.2613260">
        <ele>1097.7</ele>
        <time>2022-08-27T16:37:21Z</time>
      </trkpt>
      <trkpt lat="42.3095280" lon="-8.2613780">
        <ele>1097.6</ele>
        <time>2022-08-27T16:37:22Z</time>
      </trkpt>
      <trkpt lat="42.3095740" lon="-8.2614250">
        <ele>1097.4</ele>
        <time>2022-08-27T16:37:23Z</time>
      </trkpt>
      <trkpt lat="42.3096170" lon="-8.2614690">
        <ele>1097.2</ele>
        <time>2022-08-27T16:37:24Z</time>
      </trkpt>
      <trkpt lat="42.3096570" lon="-8.2615080">
        <ele>1096.9</ele>
        <time>2022-08-27T16:37:25Z</time>
      </trkpt>
      <trkpt lat="42.3096950" lon="-8.2615420">
        <ele>1096.5</ele>
        <time>2022-08-27T16:37:26Z</time>
      </trkpt>
      <trkpt lat="42.3097250" lon="-8.2615650">
        <ele>1096.2</ele>
        <time>2022-08-27T16:37:27Z</time>
      </trkpt>
      <trkpt lat="42.3097690" lon="-8.2616070">
        <ele>1095.7</ele>
        <time>2022-08-27T16:37:28Z</time>
      </trkpt>
      <trkpt lat="42.3098240" lon="-8.2616560">
        <ele>1095.1</ele>
        <time>2022-08-27T16:37:29Z</time>
      </trkpt>
      <trkpt lat="42.3098800" lon="-8.2617050">
        <ele>1094.4</ele>
        <time>2022-08-27T16:37:30Z</time>
      </trkpt>
      <trkpt lat="42.3099470" lon="-8.2617580">
        <ele>1093.6</ele>
        <time>2022-08-27T16:37:31Z</time>
      </trkpt>
      <trkpt lat="42.3100230" lon="-8.2618070">
        <ele>1092.4</ele>
        <time>2022-08-27T16:37:32Z</time>
      </trkpt>
      <trkpt lat="42.3101060" lon="-8.2618500">
        <ele>1091.1</ele>
        <time>2022-08-27T16:37:33Z</time>
      </trkpt>
      <trkpt lat="42.3101920" lon="-8.2618840">
        <ele>1089.8</ele>
        <time>2022-08-27T16:37:34Z</time>
      </trkpt>
      <trkpt lat="42.3102810" lon="-8.2619140">
        <ele>1088.6</ele>
        <time>2022-08-27T16:37:35Z</time>
      </trkpt>
      <trkpt lat="42.3103790" lon="-8.2619280">
        <ele>1087.3</ele>
        <time>2022-08-27T16:37:36Z</time>
      </trkpt>
      <trkpt lat="42.3104780" lon="-8.2619310">
        <ele>1086.1</ele>
        <time>2022-08-27T16:37:37Z</time>
      </trkpt>
      <trkpt lat="42.3105740" lon="-8.2619300">
        <ele>1085.1</ele>
        <time>2022-08-27T16:37:38Z</time>
      </trkpt>
      <trkpt lat="42.3106600" lon="-8.2619270">
        <ele>1084.3</ele>
        <time>2022-08-27T16:37:39Z</time>
      </trkpt>
      <trkpt lat="42.3107550" lon="-8.2619180">
        <ele>1083.5</ele>
        <time>2022-08-27T16:37:40Z</time>
      </trkpt>
      <trkpt lat="42.3108440" lon="-8.2618980">
        <ele>1082.8</ele>
        <time>2022-08-27T16:37:41Z</time>
      </trkpt>
      <trkpt lat="42.3109340" lon="-8.2618720">
        <ele>1082.0</ele>
        <time>2022-08-27T16:37:42Z</time>
      </trkpt>
      <trkpt lat="42.3110260" lon="-8.2618580">
        <ele>1081.4</ele>
        <time>2022-08-27T16:37:43Z</time>
      </trkpt>
      <trkpt lat="42.3111170" lon="-8.2618470">
        <ele>1080.8</ele>
        <time>2022-08-27T16:37:44Z</time>
      </trkpt>
      <trkpt lat="42.3112070" lon="-8.2618380">
        <ele>1080.3</ele>
        <time>2022-08-27T16:37:45Z</time>
      </trkpt>
      <trkpt lat="42.3112980" lon="-8.2618340">
        <ele>1080.0</ele>
        <time>2022-08-27T16:37:46Z</time>
      </trkpt>
      <trkpt lat="42.3113910" lon="-8.2618340">
        <ele>1079.7</ele>
        <time>2022-08-27T16:37:47Z</time>
      </trkpt>
      <trkpt lat="42.3114820" lon="-8.2618280">
        <ele>1079.5</ele>
        <time>2022-08-27T16:37:48Z</time>
      </trkpt>
      <trkpt lat="42.3115670" lon="-8.2618290">
        <ele>1079.3</ele>
        <time>2022-08-27T16:37:49Z</time>
      </trkpt>
      <trkpt lat="42.3116430" lon="-8.2618340">
        <ele>1079.1</ele>
        <time>2022-08-27T16:37:50Z</time>
      </trkpt>
      <trkpt lat="42.3117120" lon="-8.2618260">
        <ele>1078.8</ele>
        <time>2022-08-27T16:37:51Z</time>
      </trkpt>
      <trkpt lat="42.3117850" lon="-8.2618090">
        <ele>1078.6</ele>
        <time>2022-08-27T16:37:52Z</time>
      </trkpt>
      <trkpt lat="42.3118540" lon="-8.2618090">
        <ele>1078.4</ele>
        <time>2022-08-27T16:37:53Z</time>
      </trkpt>
      <trkpt lat="42.3119190" lon="-8.2618230">
        <ele>1078.3</ele>
        <time>2022-08-27T16:37:54Z</time>
      </trkpt>
      <trkpt lat="42.3119640" lon="-8.2618330">
        <ele>1078.1</ele>
        <time>2022-08-27T16:37:55Z</time>
      </trkpt>
      <trkpt lat="42.3119740" lon="-8.2618290">
        <ele>1078.1</ele>
        <time>2022-08-27T16:37:56Z</time>
      </trkpt>
      <trkpt lat="42.3119830" lon="-8.2618260">
        <ele>1078.1</ele>
        <time>2022-08-27T16:37:57Z</time>
      </trkpt>
      <trkpt lat="42.3119970" lon="-8.2618240">
        <ele>1078.0</ele>
        <time>2022-08-27T16:37:58Z</time>
      </trkpt>
      <trkpt lat="42.3120110" lon="-8.2618220">
        <ele>1078.0</ele>
        <time>2022-08-27T16:37:59Z</time>
      </trkpt>
      <trkpt lat="42.3120290" lon="-8.2618170">
        <ele>1077.9</ele>
        <time>2022-08-27T16:38:00Z</time>
      </trkpt>
      <trkpt lat="42.3120560" lon="-8.2618140">
        <ele>1077.8</ele>
        <time>2022-08-27T16:38:01Z</time>
      </trkpt>
      <trkpt lat="42.3120670" lon="-8.2618120">
        <ele>1077.8</ele>
        <time>2022-08-27T16:38:02Z</time>
      </trkpt>
      <trkpt lat="42.3120950" lon="-8.2618050">
        <ele>1077.7</ele>
        <time>2022-08-27T16:38:03Z</time>
      </trkpt>
      <trkpt lat="42.3121120" lon="-8.2618030">
        <ele>1077.6</ele>
        <time>2022-08-27T16:38:04Z</time>
      </trkpt>
      <trkpt lat="42.3121250" lon="-8.2617980">
        <ele>1077.5</ele>
        <time>2022-08-27T16:38:05Z</time>
      </trkpt>
      <trkpt lat="42.3121310" lon="-8.2617960">
        <ele>1077.5</ele>
        <time>2022-08-27T16:38:06Z</time>
      </trkpt>
      <trkpt lat="42.3121360" lon="-8.2617950">
        <ele>1077.4</ele>
        <time>2022-08-27T16:38:07Z</time>
      </trkpt>
      <trkpt lat="42.3121350" lon="-8.2617950">
        <ele>1077.4</ele>
        <time>2022-08-27T16:38:08Z</time>
      </trkpt>
      <trkpt lat="42.3121340" lon="-8.2617960">
        <ele>1077.4</ele>
        <time>2022-08-27T16:38:09Z</time>
      </trkpt>
      <trkpt lat="42.3121330" lon="-8.2617960">
        <ele>1077.4</ele>
        <time>2022-08-27T16:38:10Z</time>
      </trkpt>
      <trkpt lat="42.3121330" lon="-8.2617950">
        <ele>1077.4</ele>
        <time>2022-08-27T16:38:11Z</time>
      </trkpt>
      <trkpt lat="42.3121320" lon="-8.2617950">
        <ele>1077.4</ele>
        <time>2022-08-27T16:38:12Z</time>
      </trkpt>
      <trkpt lat="42.3121320" lon="-8.2617960">
        <ele>1077.4</ele>
        <time>2022-08-27T16:38:13Z</time>
      </trkpt>
      <trkpt lat="42.3121320" lon="-8.2617960">
        <ele>1077.4</ele>
        <time>2022-08-27T16:38:14Z</time>
      </trkpt>
      <trkpt lat="42.3121320" lon="-8.2617960">
        <ele>1077.4</ele>
        <time>2022-08-27T16:38:15Z</time>
      </trkpt>
      <trkpt lat="42.3121320" lon="-8.2617960">
        <ele>1077.4</ele>
        <time>2022-08-27T16:38:16Z</time>
      </trkpt>
      <trkpt lat="42.3121320" lon="-8.2617960">
        <ele>1077.4</ele>
        <time>2022-08-27T16:38:17Z</time>
      </trkpt>
      <trkpt lat="42.3121700" lon="-8.2617970">
        <ele>1077.2</ele>
        <time>2022-08-27T16:38:22Z</time>
      </trkpt>
      <trkpt lat="42.3121980" lon="-8.2617970">
        <ele>1077.0</ele>
        <time>2022-08-27T16:38:23Z</time>
      </trkpt>
      <trkpt lat="42.3122250" lon="-8.2617960">
        <ele>1076.8</ele>
        <time>2022-08-27T16:38:24Z</time>
      </trkpt>
      <trkpt lat="42.3122530" lon="-8.2617930">
        <ele>1076.6</ele>
        <time>2022-08-27T16:38:25Z</time>
      </trkpt>
      <trkpt lat="42.3122970" lon="-8.2617840">
        <ele>1076.3</ele>
        <time>2022-08-27T16:38:26Z</time>
      </trkpt>
      <trkpt lat="42.3123380" lon="-8.2617740">
        <ele>1076.0</ele>
        <time>2022-08-27T16:38:27Z</time>
      </trkpt>
      <trkpt lat="42.3123820" lon="-8.2617670">
        <ele>1075.7</ele>
        <time>2022-08-27T16:38:28Z</time>
      </trkpt>
      <trkpt lat="42.3124340" lon="-8.2617600">
        <ele>1075.3</ele>
        <time>2022-08-27T16:38:29Z</time>
      </trkpt>
      <trkpt lat="42.3124720" lon="-8.2617500">
        <ele>1074.9</ele>
        <time>2022-08-27T16:38:30Z</time>
      </trkpt>
      <trkpt lat="42.3125240" lon="-8.2617360">
        <ele>1074.5</ele>
        <time>2022-08-27T16:38:31Z</time>
      </trkpt>
      <trkpt lat="42.3125820" lon="-8.2617170">
        <ele>1073.9</ele>
        <time>2022-08-27T16:38:32Z</time>
      </trkpt>
      <trkpt lat="42.3126410" lon="-8.2616950">
        <ele>1073.4</ele>
        <time>2022-08-27T16:38:33Z</time>
      </trkpt>
      <trkpt lat="42.3126970" lon="-8.2616770">
        <ele>1072.7</ele>
        <time>2022-08-27T16:38:34Z</time>
      </trkpt>
      <trkpt lat="42.3127420" lon="-8.2616590">
        <ele>1072.2</ele>
        <time>2022-08-27T16:38:35Z</time>
      </trkpt>
      <trkpt lat="42.3127790" lon="-8.2616480">
        <ele>1071.7</ele>
        <time>2022-08-27T16:38:36Z</time>
      </trkpt>
      <trkpt lat="42.3128220" lon="-8.2616360">
        <ele>1071.2</ele>
        <time>2022-08-27T16:38:37Z</time>
      </trkpt>
      <trkpt lat="42.3128500" lon="-8.2616330">
        <ele>1070.8</ele>
        <time>2022-08-27T16:38:38Z</time>
      </trkpt>
      <trkpt lat="42.3128920" lon="-8.2616440">
        <ele>1070.2</ele>
        <time>2022-08-27T16:38:39Z</time>
      </trkpt>
      <trkpt lat="42.3129110" lon="-8.2616500">
        <ele>1069.9</ele>
        <time>2022-08-27T16:38:40Z</time>
      </trkpt>
      <trkpt lat="42.3129480" lon="-8.2616680">
        <ele>1069.3</ele>
        <time>2022-08-27T16:38:41Z</time>
      </trkpt>
      <trkpt lat="42.3129950" lon="-8.2616890">
        <ele>1068.4</ele>
        <time>2022-08-27T16:38:42Z</time>
      </trkpt>
      <trkpt lat="42.3130450" lon="-8.2617090">
        <ele>1067.5</ele>
        <time>2022-08-27T16:38:43Z</time>
      </trkpt>
      <trkpt lat="42.3130870" lon="-8.2617320">
        <ele>1066.7</ele>
        <time>2022-08-27T16:38:44Z</time>
      </trkpt>
      <trkpt lat="42.3131260" lon="-8.2617590">
        <ele>1065.9</ele>
        <time>2022-08-27T16:38:45Z</time>
      </trkpt>
      <trkpt lat="42.3131440" lon="-8.2617720">
        <ele>1065.6</ele>
        <time>2022-08-27T16:38:46Z</time>
      </trkpt>
      <trkpt lat="42.3131940" lon="-8.2618100">
        <ele>1064.6</ele>
        <time>2022-08-27T16:38:47Z</time>
      </trkpt>
      <trkpt lat="42.3132490" lon="-8.2618480">
        <ele>1063.6</ele>
        <time>2022-08-27T16:38:48Z</time>
      </trkpt>
      <trkpt lat="42.3133060" lon="-8.2618880">
        <ele>1062.5</ele>
        <time>2022-08-27T16:38:49Z</time>
      </trkpt>
      <trkpt lat="42.3133530" lon="-8.2619310">
        <ele>1061.6</ele>
        <time>2022-08-27T16:38:50Z</time>
      </trkpt>
      <trkpt lat="42.3133960" lon="-8.2619750">
        <ele>1060.8</ele>
        <time>2022-08-27T16:38:51Z</time>
      </trkpt>
      <trkpt lat="42.3134300" lon="-8.2620150">
        <ele>1060.1</ele>
        <time>2022-08-27T16:38:52Z</time>
      </trkpt>
      <trkpt lat="42.3134550" lon="-8.2620490">
        <ele>1059.7</ele>
        <time>2022-08-27T16:38:53Z</time>
      </trkpt>
      <trkpt lat="42.3134650" lon="-8.2620620">
        <ele>1059.5</ele>
        <time>2022-08-27T16:38:54Z</time>
      </trkpt>
      <trkpt lat="42.3134880" lon="-8.2620830">
        <ele>1059.1</ele>
        <time>2022-08-27T16:38:55Z</time>
      </trkpt>
      <trkpt lat="42.3135260" lon="-8.2621060">
        <ele>1058.5</ele>
        <time>2022-08-27T16:38:56Z</time>
      </trkpt>
      <trkpt lat="42.3135610" lon="-8.2621350">
        <ele>1057.9</ele>
        <time>2022-08-27T16:38:57Z</time>
      </trkpt>
      <trkpt lat="42.3136090" lon="-8.2621800">
        <ele>1057.1</ele>
        <time>2022-08-27T16:38:58Z</time>
      </trkpt>
      <trkpt lat="42.3136670" lon="-8.2622300">
        <ele>1056.1</ele>
        <time>2022-08-27T16:38:59Z</time>
      </trkpt>
      <trkpt lat="42.3137200" lon="-8.2622730">
        <ele>1055.3</ele>
        <time>2022-08-27T16:39:00Z</time>
      </trkpt>
      <trkpt lat="42.3137650" lon="-8.2623110">
        <ele>1054.5</ele>
        <time>2022-08-27T16:39:01Z</time>
      </trkpt>
      <trkpt lat="42.3138180" lon="-8.2623540">
        <ele>1053.6</ele>
        <time>2022-08-27T16:39:02Z</time>
      </trkpt>
      <trkpt lat="42.3138760" lon="-8.2623880">
        <ele>1052.7</ele>
        <time>2022-08-27T16:39:03Z</time>
      </trkpt>
      <trkpt lat="42.3139360" lon="-8.2624170">
        <ele>1051.8</ele>
        <time>2022-08-27T16:39:04Z</time>
      </trkpt>
      <trkpt lat="42.3139950" lon="-8.2624360">
        <ele>1051.0</ele>
        <time>2022-08-27T16:39:05Z</time>
      </trkpt>
      <trkpt lat="42.3140560" lon="-8.2624430">
        <ele>1050.2</ele>
        <time>2022-08-27T16:39:06Z</time>
      </trkpt>
      <trkpt lat="42.3141250" lon="-8.2624400">
        <ele>1049.3</ele>
        <time>2022-08-27T16:39:07Z</time>
      </trkpt>
      <trkpt lat="42.3141950" lon="-8.2624140">
        <ele>1048.4</ele>
        <time>2022-08-27T16:39:08Z</time>
      </trkpt>
      <trkpt lat="42.3142580" lon="-8.2623730">
        <ele>1047.5</ele>
        <time>2022-08-27T16:39:09Z</time>
      </trkpt>
      <trkpt lat="42.3143220" lon="-8.2623250">
        <ele>1046.5</ele>
        <time>2022-08-27T16:39:10Z</time>
      </trkpt>
      <trkpt lat="42.3143940" lon="-8.2622730">
        <ele>1045.4</ele>
        <time>2022-08-27T16:39:11Z</time>
      </trkpt>
      <trkpt lat="42.3144640" lon="-8.2622220">
        <ele>1044.3</ele>
        <time>2022-08-27T16:39:12Z</time>
      </trkpt>
      <trkpt lat="42.3145380" lon="-8.2621730">
        <ele>1043.3</ele>
        <time>2022-08-27T16:39:13Z</time>
      </trkpt>
      <trkpt lat="42.3146050" lon="-8.2621270">
        <ele>1042.4</ele>
        <time>2022-08-27T16:39:14Z</time>
      </trkpt>
      <trkpt lat="42.3146730" lon="-8.2620890">
        <ele>1041.6</ele>
        <time>2022-08-27T16:39:15Z</time>
      </trkpt>
      <trkpt lat="42.3147430" lon="-8.2620600">
        <ele>1040.9</ele>
        <time>2022-08-27T16:39:16Z</time>
      </trkpt>
      <trkpt lat="42.3148070" lon="-8.2620430">
        <ele>1040.3</ele>
        <time>2022-08-27T16:39:17Z</time>
      </trkpt>
      <trkpt lat="42.3148690" lon="-8.2620260">
        <ele>1039.7</ele>
        <time>2022-08-27T16:39:18Z</time>
      </trkpt>
      <trkpt lat="42.3149310" lon="-8.2620110">
        <ele>1039.2</ele>
        <time>2022-08-27T16:39:19Z</time>
      </trkpt>
      <trkpt lat="42.3149860" lon="-8.2619990">
        <ele>1038.7</ele>
        <time>2022-08-27T16:39:20Z</time>
      </trkpt>
      <trkpt lat="42.3150350" lon="-8.2619890">
        <ele>1038.3</ele>
        <time>2022-08-27T16:39:21Z</time>
      </trkpt>
      <trkpt lat="42.3150660" lon="-8.2619870">
        <ele>1038.0</ele>
        <time>2022-08-27T16:39:22Z</time>
      </trkpt>
      <trkpt lat="42.3150990" lon="-8.2619820">
        <ele>1037.8</ele>
        <time>2022-08-27T16:39:23Z</time>
      </trkpt>
      <trkpt lat="42.3151290" lon="-8.2619960">
        <ele>1037.5</ele>
        <time>2022-08-27T16:39:24Z</time>
      </trkpt>
      <trkpt lat="42.3151370" lon="-8.2620020">
        <ele>1037.4</ele>
        <time>2022-08-27T16:39:25Z</time>
      </trkpt>
      <trkpt lat="42.3151640" lon="-8.2620260">
        <ele>1037.2</ele>
        <time>2022-08-27T16:39:26Z</time>
      </trkpt>
      <trkpt lat="42.3151780" lon="-8.2620370">
        <ele>1037.0</ele>
        <time>2022-08-27T16:39:27Z</time>
      </trkpt>
      <trkpt lat="42.3152140" lon="-8.2620670">
        <ele>1036.9</ele>
        <time>2022-08-27T16:39:28Z</time>
      </trkpt>
      <trkpt lat="42.3152460" lon="-8.2621100">
        <ele>1036.9</ele>
        <time>2022-08-27T16:39:29Z</time>
      </trkpt>
      <trkpt lat="42.3152570" lon="-8.2621300">
        <ele>1036.9</ele>
        <time>2022-08-27T16:39:30Z</time>
      </trkpt>
      <trkpt lat="42.3152720" lon="-8.2621800">
        <ele>1036.8</ele>
        <time>2022-08-27T16:39:31Z</time>
      </trkpt>
      <trkpt lat="42.3152510" lon="-8.2624860">
        <ele>1036.5</ele>
        <time>2022-08-27T16:39:36Z</time>
      </trkpt>
      <trkpt lat="42.3152460" lon="-8.2625150">
        <ele>1036.5</ele>
        <time>2022-08-27T16:39:37Z</time>
      </trkpt>
      <trkpt lat="42.3152400" lon="-8.2625450">
        <ele>1036.5</ele>
        <time>2022-08-27T16:39:38Z</time>
      </trkpt>
      <trkpt lat="42.3152340" lon="-8.2625910">
        <ele>1036.4</ele>
        <time>2022-08-27T16:39:39Z</time>
      </trkpt>
      <trkpt lat="42.3152270" lon="-8.2626380">
        <ele>1036.4</ele>
        <time>2022-08-27T16:39:40Z</time>
      </trkpt>
      <trkpt lat="42.3152150" lon="-8.2626960">
        <ele>1036.3</ele>
        <time>2022-08-27T16:39:41Z</time>
      </trkpt>
      <trkpt lat="42.3152020" lon="-8.2627510">
        <ele>1036.2</ele>
        <time>2022-08-27T16:39:42Z</time>
      </trkpt>
      <trkpt lat="42.3151870" lon="-8.2627990">
        <ele>1036.2</ele>
        <time>2022-08-27T16:39:43Z</time>
      </trkpt>
      <trkpt lat="42.3151750" lon="-8.2628470">
        <ele>1036.1</ele>
        <time>2022-08-27T16:39:44Z</time>
      </trkpt>
      <trkpt lat="42.3151670" lon="-8.2629010">
        <ele>1036.0</ele>
        <time>2022-08-27T16:39:45Z</time>
      </trkpt>
      <trkpt lat="42.3151570" lon="-8.2629610">
        <ele>1035.8</ele>
        <time>2022-08-27T16:39:46Z</time>
      </trkpt>
      <trkpt lat="42.3151430" lon="-8.2630130">
        <ele>1035.7</ele>
        <time>2022-08-27T16:39:47Z</time>
      </trkpt>
      <trkpt lat="42.3151330" lon="-8.2630600">
        <ele>1035.6</ele>
        <time>2022-08-27T16:39:48Z</time>
      </trkpt>
      <trkpt lat="42.3151210" lon="-8.2631130">
        <ele>1035.5</ele>
        <time>2022-08-27T16:39:49Z</time>
      </trkpt>
      <trkpt lat="42.3151070" lon="-8.2631670">
        <ele>1035.4</ele>
        <time>2022-08-27T16:39:50Z</time>
      </trkpt>
      <trkpt lat="42.3150870" lon="-8.2632330">
        <ele>1035.1</ele>
        <time>2022-08-27T16:39:51Z</time>
      </trkpt>
      <trkpt lat="42.3150690" lon="-8.2632850">
        <ele>1035.0</ele>
        <time>2022-08-27T16:39:52Z</time>
      </trkpt>
      <trkpt lat="42.3150500" lon="-8.2633530">
        <ele>1034.7</ele>
        <time>2022-08-27T16:39:53Z</time>
      </trkpt>
      <trkpt lat="42.3150320" lon="-8.2634160">
        <ele>1034.3</ele>
        <time>2022-08-27T16:39:54Z</time>
      </trkpt>
      <trkpt lat="42.3150170" lon="-8.2634850">
        <ele>1033.9</ele>
        <time>2022-08-27T16:39:55Z</time>
      </trkpt>
      <trkpt lat="42.3150010" lon="-8.2635530">
        <ele>1033.4</ele>
        <time>2022-08-27T16:39:56Z</time>
      </trkpt>
      <trkpt lat="42.3149790" lon="-8.2636290">
        <ele>1032.8</ele>
        <time>2022-08-27T16:39:57Z</time>
      </trkpt>
      <trkpt lat="42.3149550" lon="-8.2637120">
        <ele>1032.1</ele>
        <time>2022-08-27T16:39:58Z</time>
      </trkpt>
      <trkpt lat="42.3149330" lon="-8.2637980">
        <ele>1031.4</ele>
        <time>2022-08-27T16:39:59Z</time>
      </trkpt>
      <trkpt lat="42.3149160" lon="-8.2638890">
        <ele>1030.8</ele>
        <time>2022-08-27T16:40:00Z</time>
      </trkpt>
      <trkpt lat="42.3148950" lon="-8.2639920">
        <ele>1030.1</ele>
        <time>2022-08-27T16:40:01Z</time>
      </trkpt>
      <trkpt lat="42.3148740" lon="-8.2641010">
        <ele>1029.3</ele>
        <time>2022-08-27T16:40:02Z</time>
      </trkpt>
      <trkpt lat="42.3148540" lon="-8.2642150">
        <ele>1028.6</ele>
        <time>2022-08-27T16:40:03Z</time>
      </trkpt>
      <trkpt lat="42.3148360" lon="-8.2643260">
        <ele>1028.1</ele>
        <time>2022-08-27T16:40:04Z</time>
      </trkpt>
      <trkpt lat="42.3148150" lon="-8.2644340">
        <ele>1027.5</ele>
        <time>2022-08-27T16:40:05Z</time>
      </trkpt>
      <trkpt lat="42.3147930" lon="-8.2645380">
        <ele>1027.0</ele>
        <time>2022-08-27T16:40:06Z</time>
      </trkpt>
      <trkpt lat="42.3147700" lon="-8.2646370">
        <ele>1026.4</ele>
        <time>2022-08-27T16:40:07Z</time>
      </trkpt>
      <trkpt lat="42.3147510" lon="-8.2647320">
        <ele>1026.0</ele>
        <time>2022-08-27T16:40:08Z</time>
      </trkpt>
      <trkpt lat="42.3147340" lon="-8.2648230">
        <ele>1025.5</ele>
        <time>2022-08-27T16:40:09Z</time>
      </trkpt>
      <trkpt lat="42.3147160" lon="-8.2649180">
        <ele>1025.1</ele>
        <time>2022-08-27T16:40:10Z</time>
      </trkpt>
      <trkpt lat="42.3146990" lon="-8.2650140">
        <ele>1024.7</ele>
        <time>2022-08-27T16:40:11Z</time>
      </trkpt>
      <trkpt lat="42.3146910" lon="-8.2651040">
        <ele>1024.4</ele>
        <time>2022-08-27T16:40:12Z</time>
      </trkpt>
      <trkpt lat="42.3146920" lon="-8.2651920">
        <ele>1024.2</ele>
        <time>2022-08-27T16:40:13Z</time>
      </trkpt>
      <trkpt lat="42.3146990" lon="-8.2652770">
        <ele>1024.0</ele>
        <time>2022-08-27T16:40:14Z</time>
      </trkpt>
      <trkpt lat="42.3147110" lon="-8.2653590">
        <ele>1023.8</ele>
        <time>2022-08-27T16:40:15Z</time>
      </trkpt>
      <trkpt lat="42.3147210" lon="-8.2654440">
        <ele>1023.6</ele>
        <time>2022-08-27T16:40:16Z</time>
      </trkpt>
      <trkpt lat="42.3147340" lon="-8.2655280">
        <ele>1023.3</ele>
        <time>2022-08-27T16:40:17Z</time>
      </trkpt>
      <trkpt lat="42.3147460" lon="-8.2656130">
        <ele>1023.1</ele>
        <time>2022-08-27T16:40:18Z</time>
      </trkpt>
      <trkpt lat="42.3147620" lon="-8.2657020">
        <ele>1022.9</ele>
        <time>2022-08-27T16:40:19Z</time>
      </trkpt>
      <trkpt lat="42.3147810" lon="-8.2657860">
        <ele>1022.7</ele>
        <time>2022-08-27T16:40:20Z</time>
      </trkpt>
      <trkpt lat="42.3148070" lon="-8.2658720">
        <ele>1022.5</ele>
        <time>2022-08-27T16:40:21Z</time>
      </trkpt>
      <trkpt lat="42.3148310" lon="-8.2659560">
        <ele>1022.3</ele>
        <time>2022-08-27T16:40:22Z</time>
      </trkpt>
      <trkpt lat="42.3148510" lon="-8.2660390">
        <ele>1022.1</ele>
        <time>2022-08-27T16:40:23Z</time>
      </trkpt>
      <trkpt lat="42.3148740" lon="-8.2661270">
        <ele>1022.0</ele>
        <time>2022-08-27T16:40:24Z</time>
      </trkpt>
      <trkpt lat="42.3148900" lon="-8.2662120">
        <ele>1021.9</ele>
        <time>2022-08-27T16:40:25Z</time>
      </trkpt>
      <trkpt lat="42.3149050" lon="-8.2663010">
        <ele>1021.7</ele>
        <time>2022-08-27T16:40:26Z</time>
      </trkpt>
      <trkpt lat="42.3149180" lon="-8.2663910">
        <ele>1021.5</ele>
        <time>2022-08-27T16:40:27Z</time>
      </trkpt>
      <trkpt lat="42.3149300" lon="-8.2664780">
        <ele>1021.2</ele>
        <time>2022-08-27T16:40:28Z</time>
      </trkpt>
      <trkpt lat="42.3149410" lon="-8.2665650">
        <ele>1020.8</ele>
        <time>2022-08-27T16:40:29Z</time>
      </trkpt>
      <trkpt lat="42.3149540" lon="-8.2666540">
        <ele>1020.4</ele>
        <time>2022-08-27T16:40:30Z</time>
      </trkpt>
      <trkpt lat="42.3149670" lon="-8.2667460">
        <ele>1020.0</ele>
        <time>2022-08-27T16:40:31Z</time>
      </trkpt>
      <trkpt lat="42.3149860" lon="-8.2668300">
        <ele>1019.7</ele>
        <time>2022-08-27T16:40:32Z</time>
      </trkpt>
      <trkpt lat="42.3150080" lon="-8.2669100">
        <ele>1019.3</ele>
        <time>2022-08-27T16:40:33Z</time>
      </trkpt>
      <trkpt lat="42.3150410" lon="-8.2669850">
        <ele>1018.9</ele>
        <time>2022-08-27T16:40:34Z</time>
      </trkpt>
      <trkpt lat="42.3150860" lon="-8.2670540">
        <ele>1018.4</ele>
        <time>2022-08-27T16:40:35Z</time>
      </trkpt>
      <trkpt lat="42.3151320" lon="-8.2671240">
        <ele>1018.0</ele>
        <time>2022-08-27T16:40:36Z</time>
      </trkpt>
      <trkpt lat="42.3151700" lon="-8.2671950">
        <ele>1017.7</ele>
        <time>2022-08-27T16:40:37Z</time>
      </trkpt>
      <trkpt lat="42.3151970" lon="-8.2672600">
        <ele>1017.4</ele>
        <time>2022-08-27T16:40:38Z</time>
      </trkpt>
      <trkpt lat="42.3152170" lon="-8.2673330">
        <ele>1017.1</ele>
        <time>2022-08-27T16:40:39Z</time>
      </trkpt>
      <trkpt lat="42.3152260" lon="-8.2674060">
        <ele>1016.7</ele>
        <time>2022-08-27T16:40:40Z</time>
      </trkpt>
      <trkpt lat="42.3152150" lon="-8.2674760">
        <ele>1016.3</ele>
        <time>2022-08-27T16:40:41Z</time>
      </trkpt>
      <trkpt lat="42.3151840" lon="-8.2675460">
        <ele>1015.7</ele>
        <time>2022-08-27T16:40:42Z</time>
      </trkpt>
      <trkpt lat="42.3151380" lon="-8.2676120">
        <ele>1014.9</ele>
        <time>2022-08-27T16:40:43Z</time>
      </trkpt>
      <trkpt lat="42.3150880" lon="-8.2676740">
        <ele>1014.1</ele>
        <time>2022-08-27T16:40:44Z</time>
      </trkpt>
      <trkpt lat="42.3150390" lon="-8.2677560">
        <ele>1013.1</ele>
        <time>2022-08-27T16:40:45Z</time>
      </trkpt>
      <trkpt lat="42.3149950" lon="-8.2678490">
        <ele>1012.0</ele>
        <time>2022-08-27T16:40:46Z</time>
      </trkpt>
      <trkpt lat="42.3149460" lon="-8.2679450">
        <ele>1010.9</ele>
        <time>2022-08-27T16:40:47Z</time>
      </trkpt>
      <trkpt lat="42.3148970" lon="-8.2680420">
        <ele>1010.0</ele>
        <time>2022-08-27T16:40:48Z</time>
      </trkpt>
      <trkpt lat="42.3148500" lon="-8.2681520">
        <ele>1008.9</ele>
        <time>2022-08-27T16:40:49Z</time>
      </trkpt>
      <trkpt lat="42.3148050" lon="-8.2682650">
        <ele>1007.7</ele>
        <time>2022-08-27T16:40:50Z</time>
      </trkpt>
      <trkpt lat="42.3147540" lon="-8.2683750">
        <ele>1006.4</ele>
        <time>2022-08-27T16:40:51Z</time>
      </trkpt>
      <trkpt lat="42.3147040" lon="-8.2684740">
        <ele>1005.2</ele>
        <time>2022-08-27T16:40:52Z</time>
      </trkpt>
      <trkpt lat="42.3146540" lon="-8.2685800">
        <ele>1004.2</ele>
        <time>2022-08-27T16:40:53Z</time>
      </trkpt>
      <trkpt lat="42.3146060" lon="-8.2686910">
        <ele>1003.3</ele>
        <time>2022-08-27T16:40:54Z</time>
      </trkpt>
      <trkpt lat="42.3145560" lon="-8.2688030">
        <ele>1002.5</ele>
        <time>2022-08-27T16:40:55Z</time>
      </trkpt>
      <trkpt lat="42.3145070" lon="-8.2689130">
        <ele>1001.7</ele>
        <time>2022-08-27T16:40:56Z</time>
      </trkpt>
      <trkpt lat="42.3144540" lon="-8.2690240">
        <ele>1001.0</ele>
        <time>2022-08-27T16:40:57Z</time>
      </trkpt>
      <trkpt lat="42.3144020" lon="-8.2691330">
        <ele>1000.4</ele>
        <time>2022-08-27T16:40:58Z</time>
      </trkpt>
      <trkpt lat="42.3143500" lon="-8.2692350">
        <ele>999.7</ele>
        <time>2022-08-27T16:40:59Z</time>
      </trkpt>
      <trkpt lat="42.3142940" lon="-8.2693400">
        <ele>999.0</ele>
        <time>2022-08-27T16:41:00Z</time>
      </trkpt>
      <trkpt lat="42.3142420" lon="-8.2694410">
        <ele>998.1</ele>
        <time>2022-08-27T16:41:01Z</time>
      </trkpt>
      <trkpt lat="42.3141870" lon="-8.2695520">
        <ele>997.2</ele>
        <time>2022-08-27T16:41:02Z</time>
      </trkpt>
      <trkpt lat="42.3141300" lon="-8.2696510">
        <ele>996.6</ele>
        <time>2022-08-27T16:41:03Z</time>
      </trkpt>
      <trkpt lat="42.3140730" lon="-8.2697450">
        <ele>996.0</ele>
        <time>2022-08-27T16:41:04Z</time>
      </trkpt>
      <trkpt lat="42.3140110" lon="-8.2698420">
        <ele>995.5</ele>
        <time>2022-08-27T16:41:05Z</time>
      </trkpt>
      <trkpt lat="42.3139470" lon="-8.2699380">
        <ele>995.0</ele>
        <time>2022-08-27T16:41:06Z</time>
      </trkpt>
      <trkpt lat="42.3138790" lon="-8.2700260">
        <ele>994.7</ele>
        <time>2022-08-27T16:41:07Z</time>
      </trkpt>
      <trkpt lat="42.3138150" lon="-8.2700970">
        <ele>994.5</ele>
        <time>2022-08-27T16:41:08Z</time>
      </trkpt>
      <trkpt lat="42.3137630" lon="-8.2701550">
        <ele>994.3</ele>
        <time>2022-08-27T16:41:09Z</time>
      </trkpt>
      <trkpt lat="42.3137130" lon="-8.2702090">
        <ele>994.2</ele>
        <time>2022-08-27T16:41:10Z</time>
      </trkpt>
      <trkpt lat="42.3136590" lon="-8.2702650">
        <ele>994.0</ele>
        <time>2022-08-27T16:41:11Z</time>
      </trkpt>
      <trkpt lat="42.3136070" lon="-8.2703210">
        <ele>993.6</ele>
        <time>2022-08-27T16:41:12Z</time>
      </trkpt>
      <trkpt lat="42.3135480" lon="-8.2703720">
        <ele>993.1</ele>
        <time>2022-08-27T16:41:13Z</time>
      </trkpt>
      <trkpt lat="42.3134860" lon="-8.2704200">
        <ele>992.6</ele>
        <time>2022-08-27T16:41:14Z</time>
      </trkpt>
      <trkpt lat="42.3134260" lon="-8.2704670">
        <ele>992.0</ele>
        <time>2022-08-27T16:41:15Z</time>
      </trkpt>
      <trkpt lat="42.3133640" lon="-8.2705090">
        <ele>991.5</ele>
        <time>2022-08-27T16:41:16Z</time>
      </trkpt>
      <trkpt lat="42.3133020" lon="-8.2705360">
        <ele>991.1</ele>
        <time>2022-08-27T16:41:17Z</time>
      </trkpt>
      <trkpt lat="42.3132500" lon="-8.2705630">
        <ele>990.8</ele>
        <time>2022-08-27T16:41:18Z</time>
      </trkpt>
      <trkpt lat="42.3132010" lon="-8.2705960">
        <ele>990.4</ele>
        <time>2022-08-27T16:41:19Z</time>
      </trkpt>
      <trkpt lat="42.3131580" lon="-8.2706440">
        <ele>990.0</ele>
        <time>2022-08-27T16:41:20Z</time>
      </trkpt>
      <trkpt lat="42.3131230" lon="-8.2707070">
        <ele>989.6</ele>
        <time>2022-08-27T16:41:21Z</time>
      </trkpt>
      <trkpt lat="42.3131010" lon="-8.2707800">
        <ele>989.3</ele>
        <time>2022-08-27T16:41:22Z</time>
      </trkpt>
      <trkpt lat="42.3130940" lon="-8.2708560">
        <ele>989.0</ele>
        <time>2022-08-27T16:41:23Z</time>
      </trkpt>
      <trkpt lat="42.3130970" lon="-8.2709300">
        <ele>988.8</ele>
        <time>2022-08-27T16:41:24Z</time>
      </trkpt>
      <trkpt lat="42.3130940" lon="-8.2710040">
        <ele>988.6</ele>
        <time>2022-08-27T16:41:25Z</time>
      </trkpt>
      <trkpt lat="42.3130860" lon="-8.2710710">
        <ele>988.5</ele>
        <time>2022-08-27T16:41:26Z</time>
      </trkpt>
      <trkpt lat="42.3130800" lon="-8.2711370">
        <ele>988.4</ele>
        <time>2022-08-27T16:41:27Z</time>
      </trkpt>
      <trkpt lat="42.3130700" lon="-8.2712080">
        <ele>988.4</ele>
        <time>2022-08-27T16:41:28Z</time>
      </trkpt>
      <trkpt lat="42.3130560" lon="-8.2712700">
        <ele>988.4</ele>
        <time>2022-08-27T16:41:29Z</time>
      </trkpt>
      <trkpt lat="42.3130440" lon="-8.2713330">
        <ele>988.3</ele>
        <time>2022-08-27T16:41:30Z</time>
      </trkpt>
      <trkpt lat="42.3130190" lon="-8.2713930">
        <ele>988.3</ele>
        <time>2022-08-27T16:41:31Z</time>
      </trkpt>
      <trkpt lat="42.3129960" lon="-8.2714490">
        <ele>988.3</ele>
        <time>2022-08-27T16:41:32Z</time>
      </trkpt>
      <trkpt lat="42.3129830" lon="-8.2714890">
        <ele>988.3</ele>
        <time>2022-08-27T16:41:33Z</time>
      </trkpt>
      <trkpt lat="42.3129670" lon="-8.2715440">
        <ele>988.4</ele>
        <time>2022-08-27T16:41:34Z</time>
      </trkpt>
      <trkpt lat="42.3129410" lon="-8.2716040">
        <ele>988.4</ele>
        <time>2022-08-27T16:41:35Z</time>
      </trkpt>
      <trkpt lat="42.3129160" lon="-8.2716470">
        <ele>988.5</ele>
        <time>2022-08-27T16:41:36Z</time>
      </trkpt>
      <trkpt lat="42.3128920" lon="-8.2716990">
        <ele>988.6</ele>
        <time>2022-08-27T16:41:37Z</time>
      </trkpt>
      <trkpt lat="42.3128770" lon="-8.2717470">
        <ele>988.7</ele>
        <time>2022-08-27T16:41:38Z</time>
      </trkpt>
      <trkpt lat="42.3128600" lon="-8.2717990">
        <ele>988.8</ele>
        <time>2022-08-27T16:41:39Z</time>
      </trkpt>
      <trkpt lat="42.3128370" lon="-8.2718510">
        <ele>988.9</ele>
        <time>2022-08-27T16:41:40Z</time>
      </trkpt>
      <trkpt lat="42.3128250" lon="-8.2718720">
        <ele>989.0</ele>
        <time>2022-08-27T16:41:41Z</time>
      </trkpt>
      <trkpt lat="42.3128100" lon="-8.2719090">
        <ele>989.0</ele>
        <time>2022-08-27T16:41:42Z</time>
      </trkpt>
      <trkpt lat="42.3127890" lon="-8.2719470">
        <ele>989.0</ele>
        <time>2022-08-27T16:41:43Z</time>
      </trkpt>
      <trkpt lat="42.3127750" lon="-8.2719780">
        <ele>989.1</ele>
        <time>2022-08-27T16:41:44Z</time>
      </trkpt>
      <trkpt lat="42.3127570" lon="-8.2720220">
        <ele>989.1</ele>
        <time>2022-08-27T16:41:45Z</time>
      </trkpt>
      <trkpt lat="42.3127380" lon="-8.2720740">
        <ele>989.0</ele>
        <time>2022-08-27T16:41:46Z</time>
      </trkpt>
      <trkpt lat="42.3127200" lon="-8.2721250">
        <ele>989.0</ele>
        <time>2022-08-27T16:41:47Z</time>
      </trkpt>
      <trkpt lat="42.3126960" lon="-8.2721810">
        <ele>988.9</ele>
        <time>2022-08-27T16:41:48Z</time>
      </trkpt>
      <trkpt lat="42.3126730" lon="-8.2722260">
        <ele>988.8</ele>
        <time>2022-08-27T16:41:49Z</time>
      </trkpt>
      <trkpt lat="42.3126470" lon="-8.2722860">
        <ele>988.7</ele>
        <time>2022-08-27T16:41:50Z</time>
      </trkpt>
      <trkpt lat="42.3126190" lon="-8.2723460">
        <ele>988.6</ele>
        <time>2022-08-27T16:41:51Z</time>
      </trkpt>
      <trkpt lat="42.3125900" lon="-8.2724020">
        <ele>988.5</ele>
        <time>2022-08-27T16:41:52Z</time>
      </trkpt>
      <trkpt lat="42.3125720" lon="-8.2724450">
        <ele>988.4</ele>
        <time>2022-08-27T16:41:53Z</time>
      </trkpt>
      <trkpt lat="42.3125410" lon="-8.2725050">
        <ele>988.3</ele>
        <time>2022-08-27T16:41:54Z</time>
      </trkpt>
      <trkpt lat="42.3125180" lon="-8.2725510">
        <ele>988.2</ele>
        <time>2022-08-27T16:41:55Z</time>
      </trkpt>
      <trkpt lat="42.3124890" lon="-8.2725990">
        <ele>988.0</ele>
        <time>2022-08-27T16:41:56Z</time>
      </trkpt>
      <trkpt lat="42.3124670" lon="-8.2726460">
        <ele>987.9</ele>
        <time>2022-08-27T16:41:57Z</time>
      </trkpt>
      <trkpt lat="42.3124430" lon="-8.2727090">
        <ele>987.8</ele>
        <time>2022-08-27T16:41:58Z</time>
      </trkpt>
      <trkpt lat="42.3124270" lon="-8.2727520">
        <ele>987.8</ele>
        <time>2022-08-27T16:41:59Z</time>
      </trkpt>
      <trkpt lat="42.3124000" lon="-8.2728170">
        <ele>987.7</ele>
        <time>2022-08-27T16:42:00Z</time>
      </trkpt>
      <trkpt lat="42.3123710" lon="-8.2728790">
        <ele>987.6</ele>
        <time>2022-08-27T16:42:01Z</time>
      </trkpt>
      <trkpt lat="42.3123390" lon="-8.2729410">
        <ele>987.5</ele>
        <time>2022-08-27T16:42:02Z</time>
      </trkpt>
      <trkpt lat="42.3123080" lon="-8.2730010">
        <ele>987.4</ele>
        <time>2022-08-27T16:42:03Z</time>
      </trkpt>
      <trkpt lat="42.3122740" lon="-8.2730590">
        <ele>987.4</ele>
        <time>2022-08-27T16:42:04Z</time>
      </trkpt>
      <trkpt lat="42.3122340" lon="-8.2731110">
        <ele>987.3</ele>
        <time>2022-08-27T16:42:05Z</time>
      </trkpt>
      <trkpt lat="42.3122000" lon="-8.2731680">
        <ele>987.1</ele>
        <time>2022-08-27T16:42:06Z</time>
      </trkpt>
      <trkpt lat="42.3121730" lon="-8.2732190">
        <ele>987.0</ele>
        <time>2022-08-27T16:42:07Z</time>
      </trkpt>
      <trkpt lat="42.3121380" lon="-8.2732720">
        <ele>986.9</ele>
        <time>2022-08-27T16:42:08Z</time>
      </trkpt>
      <trkpt lat="42.3120990" lon="-8.2733160">
        <ele>986.8</ele>
        <time>2022-08-27T16:42:09Z</time>
      </trkpt>
      <trkpt lat="42.3120590" lon="-8.2733620">
        <ele>986.7</ele>
        <time>2022-08-27T16:42:10Z</time>
      </trkpt>
      <trkpt lat="42.3120210" lon="-8.2734180">
        <ele>986.5</ele>
        <time>2022-08-27T16:42:11Z</time>
      </trkpt>
      <trkpt lat="42.3119830" lon="-8.2734630">
        <ele>986.4</ele>
        <time>2022-08-27T16:42:12Z</time>
      </trkpt>
      <trkpt lat="42.3119410" lon="-8.2735060">
        <ele>986.3</ele>
        <time>2022-08-27T16:42:13Z</time>
      </trkpt>
      <trkpt lat="42.3118970" lon="-8.2735550">
        <ele>986.3</ele>
        <time>2022-08-27T16:42:14Z</time>
      </trkpt>
      <trkpt lat="42.3118540" lon="-8.2736090">
        <ele>986.2</ele>
        <time>2022-08-27T16:42:15Z</time>
      </trkpt>
      <trkpt lat="42.3118110" lon="-8.2736580">
        <ele>986.1</ele>
        <time>2022-08-27T16:42:16Z</time>
      </trkpt>
      <trkpt lat="42.3117680" lon="-8.2737060">
        <ele>986.1</ele>
        <time>2022-08-27T16:42:17Z</time>
      </trkpt>
      <trkpt lat="42.3117320" lon="-8.2737520">
        <ele>986.0</ele>
        <time>2022-08-27T16:42:18Z</time>
      </trkpt>
      <trkpt lat="42.3117000" lon="-8.2737930">
        <ele>986.0</ele>
        <time>2022-08-27T16:42:19Z</time>
      </trkpt>
      <trkpt lat="42.3116660" lon="-8.2738370">
        <ele>985.9</ele>
        <time>2022-08-27T16:42:20Z</time>
      </trkpt>
      <trkpt lat="42.3116330" lon="-8.2738830">
        <ele>985.9</ele>
        <time>2022-08-27T16:42:21Z</time>
      </trkpt>
      <trkpt lat="42.3116020" lon="-8.2739230">
        <ele>985.9</ele>
        <time>2022-08-27T16:42:22Z</time>
      </trkpt>
      <trkpt lat="42.3115680" lon="-8.2739700">
        <ele>985.9</ele>
        <time>2022-08-27T16:42:23Z</time>
      </trkpt>
      <trkpt lat="42.3115330" lon="-8.2740230">
        <ele>985.8</ele>
        <time>2022-08-27T16:42:24Z</time>
      </trkpt>
      <trkpt lat="42.3115030" lon="-8.2740730">
        <ele>985.8</ele>
        <time>2022-08-27T16:42:25Z</time>
      </trkpt>
      <trkpt lat="42.3114650" lon="-8.2741240">
        <ele>985.8</ele>
        <time>2022-08-27T16:42:26Z</time>
      </trkpt>
      <trkpt lat="42.3114260" lon="-8.2741760">
        <ele>985.7</ele>
        <time>2022-08-27T16:42:27Z</time>
      </trkpt>
      <trkpt lat="42.3113890" lon="-8.2742300">
        <ele>985.7</ele>
        <time>2022-08-27T16:42:28Z</time>
      </trkpt>
      <trkpt lat="42.3113480" lon="-8.2742820">
        <ele>985.6</ele>
        <time>2022-08-27T16:42:29Z</time>
      </trkpt>
      <trkpt lat="42.3113130" lon="-8.2743380">
        <ele>985.6</ele>
        <time>2022-08-27T16:42:30Z</time>
      </trkpt>
      <trkpt lat="42.3112860" lon="-8.2743780">
        <ele>985.5</ele>
        <time>2022-08-27T16:42:31Z</time>
      </trkpt>
      <trkpt lat="42.3112600" lon="-8.2744180">
        <ele>985.4</ele>
        <time>2022-08-27T16:42:32Z</time>
      </trkpt>
      <trkpt lat="42.3112310" lon="-8.2744550">
        <ele>985.4</ele>
        <time>2022-08-27T16:42:33Z</time>
      </trkpt>
      <trkpt lat="42.3112200" lon="-8.2744730">
        <ele>985.3</ele>
        <time>2022-08-27T16:42:34Z</time>
      </trkpt>
      <trkpt lat="42.3111970" lon="-8.2745050">
        <ele>985.3</ele>
        <time>2022-08-27T16:42:35Z</time>
      </trkpt>
      <trkpt lat="42.3111700" lon="-8.2745400">
        <ele>985.2</ele>
        <time>2022-08-27T16:42:36Z</time>
      </trkpt>
      <trkpt lat="42.3111370" lon="-8.2745860">
        <ele>985.1</ele>
        <time>2022-08-27T16:42:37Z</time>
      </trkpt>
      <trkpt lat="42.3110980" lon="-8.2746340">
        <ele>985.0</ele>
        <time>2022-08-27T16:42:38Z</time>
      </trkpt>
      <trkpt lat="42.3110560" lon="-8.2746800">
        <ele>984.8</ele>
        <time>2022-08-27T16:42:39Z</time>
      </trkpt>
      <trkpt lat="42.3110090" lon="-8.2747240">
        <ele>984.4</ele>
        <time>2022-08-27T16:42:40Z</time>
      </trkpt>
      <trkpt lat="42.3109610" lon="-8.2747640">
        <ele>984.1</ele>
        <time>2022-08-27T16:42:41Z</time>
      </trkpt>
      <trkpt lat="42.3109110" lon="-8.2748060">
        <ele>983.8</ele>
        <time>2022-08-27T16:42:42Z</time>
      </trkpt>
      <trkpt lat="42.3108640" lon="-8.2748540">
        <ele>983.5</ele>
        <time>2022-08-27T16:42:43Z</time>
      </trkpt>
      <trkpt lat="42.3108150" lon="-8.2748960">
        <ele>983.2</ele>
        <time>2022-08-27T16:42:44Z</time>
      </trkpt>
      <trkpt lat="42.3107630" lon="-8.2749300">
        <ele>983.0</ele>
        <time>2022-08-27T16:42:45Z</time>
      </trkpt>
      <trkpt lat="42.3107120" lon="-8.2749560">
        <ele>982.6</ele>
        <time>2022-08-27T16:42:46Z</time>
      </trkpt>
      <trkpt lat="42.3106560" lon="-8.2749710">
        <ele>982.3</ele>
        <time>2022-08-27T16:42:47Z</time>
      </trkpt>
      <trkpt lat="42.3106020" lon="-8.2750010">
        <ele>981.9</ele>
        <time>2022-08-27T16:42:48Z</time>
      </trkpt>
      <trkpt lat="42.3105460" lon="-8.2750410">
        <ele>981.4</ele>
        <time>2022-08-27T16:42:49Z</time>
      </trkpt>
      <trkpt lat="42.3104940" lon="-8.2750810">
        <ele>981.0</ele>
        <time>2022-08-27T16:42:50Z</time>
      </trkpt>
      <trkpt lat="42.3104390" lon="-8.2751190">
        <ele>980.5</ele>
        <time>2022-08-27T16:42:51Z</time>
      </trkpt>
      <trkpt lat="42.3103820" lon="-8.2751590">
        <ele>980.0</ele>
        <time>2022-08-27T16:42:52Z</time>
      </trkpt>
      <trkpt lat="42.3103240" lon="-8.2752010">
        <ele>979.5</ele>
        <time>2022-08-27T16:42:53Z</time>
      </trkpt>
      <trkpt lat="42.3102670" lon="-8.2752480">
        <ele>979.0</ele>
        <time>2022-08-27T16:42:54Z</time>
      </trkpt>
      <trkpt lat="42.3102100" lon="-8.2752990">
        <ele>978.6</ele>
        <time>2022-08-27T16:42:55Z</time>
      </trkpt>
      <trkpt lat="42.3101550" lon="-8.2753530">
        <ele>978.4</ele>
        <time>2022-08-27T16:42:56Z</time>
      </trkpt>
      <trkpt lat="42.3101040" lon="-8.2754060">
        <ele>978.2</ele>
        <time>2022-08-27T16:42:57Z</time>
      </trkpt>
      <trkpt lat="42.3100540" lon="-8.2754600">
        <ele>978.0</ele>
        <time>2022-08-27T16:42:58Z</time>
      </trkpt>
      <trkpt lat="42.3100070" lon="-8.2755120">
        <ele>977.8</ele>
        <time>2022-08-27T16:42:59Z</time>
      </trkpt>
      <trkpt lat="42.3099550" lon="-8.2755560">
        <ele>977.5</ele>
        <time>2022-08-27T16:43:00Z</time>
      </trkpt>
      <trkpt lat="42.3099040" lon="-8.2755900">
        <ele>977.2</ele>
        <time>2022-08-27T16:43:01Z</time>
      </trkpt>
      <trkpt lat="42.3098570" lon="-8.2756230">
        <ele>977.0</ele>
        <time>2022-08-27T16:43:02Z</time>
      </trkpt>
      <trkpt lat="42.3098170" lon="-8.2756580">
        <ele>976.9</ele>
        <time>2022-08-27T16:43:03Z</time>
      </trkpt>
      <trkpt lat="42.3097790" lon="-8.2757010">
        <ele>976.7</ele>
        <time>2022-08-27T16:43:04Z</time>
      </trkpt>
      <trkpt lat="42.3097390" lon="-8.2757470">
        <ele>976.6</ele>
        <time>2022-08-27T16:43:05Z</time>
      </trkpt>
      <trkpt lat="42.3096990" lon="-8.2757890">
        <ele>976.5</ele>
        <time>2022-08-27T16:43:06Z</time>
      </trkpt>
      <trkpt lat="42.3096610" lon="-8.2758380">
        <ele>976.4</ele>
        <time>2022-08-27T16:43:07Z</time>
      </trkpt>
      <trkpt lat="42.3096250" lon="-8.2758850">
        <ele>976.3</ele>
        <time>2022-08-27T16:43:08Z</time>
      </trkpt>
      <trkpt lat="42.3095910" lon="-8.2759290">
        <ele>976.1</ele>
        <time>2022-08-27T16:43:09Z</time>
      </trkpt>
      <trkpt lat="42.3095560" lon="-8.2759770">
        <ele>976.0</ele>
        <time>2022-08-27T16:43:10Z</time>
      </trkpt>
      <trkpt lat="42.3095190" lon="-8.2760180">
        <ele>975.9</ele>
        <time>2022-08-27T16:43:11Z</time>
      </trkpt>
      <trkpt lat="42.3094840" lon="-8.2760590">
        <ele>975.8</ele>
        <time>2022-08-27T16:43:12Z</time>
      </trkpt>
      <trkpt lat="42.3094490" lon="-8.2761100">
        <ele>975.7</ele>
        <time>2022-08-27T16:43:13Z</time>
      </trkpt>
      <trkpt lat="42.3094140" lon="-8.2761550">
        <ele>975.6</ele>
        <time>2022-08-27T16:43:14Z</time>
      </trkpt>
      <trkpt lat="42.3093790" lon="-8.2761960">
        <ele>975.6</ele>
        <time>2022-08-27T16:43:15Z</time>
      </trkpt>
      <trkpt lat="42.3093470" lon="-8.2762360">
        <ele>975.5</ele>
        <time>2022-08-27T16:43:16Z</time>
      </trkpt>
      <trkpt lat="42.3093220" lon="-8.2762710">
        <ele>975.5</ele>
        <time>2022-08-27T16:43:17Z</time>
      </trkpt>
      <trkpt lat="42.3092930" lon="-8.2763060">
        <ele>975.5</ele>
        <time>2022-08-27T16:43:18Z</time>
      </trkpt>
      <trkpt lat="42.3092640" lon="-8.2763450">
        <ele>975.4</ele>
        <time>2022-08-27T16:43:19Z</time>
      </trkpt>
      <trkpt lat="42.3092350" lon="-8.2763830">
        <ele>975.3</ele>
        <time>2022-08-27T16:43:20Z</time>
      </trkpt>
      <trkpt lat="42.3092030" lon="-8.2764170">
        <ele>975.3</ele>
        <time>2022-08-27T16:43:21Z</time>
      </trkpt>
      <trkpt lat="42.3091740" lon="-8.2764450">
        <ele>975.2</ele>
        <time>2022-08-27T16:43:22Z</time>
      </trkpt>
      <trkpt lat="42.3091090" lon="-8.2765040">
        <ele>975.1</ele>
        <time>2022-08-27T16:43:23Z</time>
      </trkpt>
      <trkpt lat="42.3090760" lon="-8.2765320">
        <ele>975.0</ele>
        <time>2022-08-27T16:43:24Z</time>
      </trkpt>
      <trkpt lat="42.3090450" lon="-8.2765650">
        <ele>974.9</ele>
        <time>2022-08-27T16:43:25Z</time>
      </trkpt>
      <trkpt lat="42.3090120" lon="-8.2766050">
        <ele>974.8</ele>
        <time>2022-08-27T16:43:26Z</time>
      </trkpt>
      <trkpt lat="42.3089780" lon="-8.2766420">
        <ele>974.6</ele>
        <time>2022-08-27T16:43:27Z</time>
      </trkpt>
      <trkpt lat="42.3089350" lon="-8.2766750">
        <ele>974.5</ele>
        <time>2022-08-27T16:43:28Z</time>
      </trkpt>
      <trkpt lat="42.3088950" lon="-8.2767140">
        <ele>974.3</ele>
        <time>2022-08-27T16:43:29Z</time>
      </trkpt>
      <trkpt lat="42.3088580" lon="-8.2767560">
        <ele>974.0</ele>
        <time>2022-08-27T16:43:30Z</time>
      </trkpt>
      <trkpt lat="42.3088210" lon="-8.2768000">
        <ele>973.7</ele>
        <time>2022-08-27T16:43:31Z</time>
      </trkpt>
      <trkpt lat="42.3087830" lon="-8.2768480">
        <ele>973.3</ele>
        <time>2022-08-27T16:43:32Z</time>
      </trkpt>
      <trkpt lat="42.3087430" lon="-8.2769040">
        <ele>972.9</ele>
        <time>2022-08-27T16:43:33Z</time>
      </trkpt>
      <trkpt lat="42.3087010" lon="-8.2769690">
        <ele>972.3</ele>
        <time>2022-08-27T16:43:34Z</time>
      </trkpt>
      <trkpt lat="42.3086560" lon="-8.2770430">
        <ele>971.7</ele>
        <time>2022-08-27T16:43:35Z</time>
      </trkpt>
      <trkpt lat="42.3086090" lon="-8.2771210">
        <ele>971.1</ele>
        <time>2022-08-27T16:43:36Z</time>
      </trkpt>
      <trkpt lat="42.3085600" lon="-8.2772040">
        <ele>970.5</ele>
        <time>2022-08-27T16:43:37Z</time>
      </trkpt>
      <trkpt lat="42.3085160" lon="-8.2772930">
        <ele>969.9</ele>
        <time>2022-08-27T16:43:38Z</time>
      </trkpt>
      <trkpt lat="42.3084730" lon="-8.2773860">
        <ele>969.3</ele>
        <time>2022-08-27T16:43:39Z</time>
      </trkpt>
      <trkpt lat="42.3084200" lon="-8.2774760">
        <ele>968.7</ele>
        <time>2022-08-27T16:43:40Z</time>
      </trkpt>
      <trkpt lat="42.3083610" lon="-8.2775590">
        <ele>968.2</ele>
        <time>2022-08-27T16:43:41Z</time>
      </trkpt>
      <trkpt lat="42.3083020" lon="-8.2776350">
        <ele>967.7</ele>
        <time>2022-08-27T16:43:42Z</time>
      </trkpt>
      <trkpt lat="42.3082420" lon="-8.2777030">
        <ele>967.3</ele>
        <time>2022-08-27T16:43:43Z</time>
      </trkpt>
      <trkpt lat="42.3081800" lon="-8.2777660">
        <ele>966.9</ele>
        <time>2022-08-27T16:43:44Z</time>
      </trkpt>
      <trkpt lat="42.3081220" lon="-8.2778200">
        <ele>966.5</ele>
        <time>2022-08-27T16:43:45Z</time>
      </trkpt>
      <trkpt lat="42.3080650" lon="-8.2778790">
        <ele>966.0</ele>
        <time>2022-08-27T16:43:46Z</time>
      </trkpt>
      <trkpt lat="42.3080090" lon="-8.2779300">
        <ele>965.6</ele>
        <time>2022-08-27T16:43:47Z</time>
      </trkpt>
      <trkpt lat="42.3079540" lon="-8.2779820">
        <ele>965.2</ele>
        <time>2022-08-27T16:43:48Z</time>
      </trkpt>
      <trkpt lat="42.3079020" lon="-8.2780330">
        <ele>964.8</ele>
        <time>2022-08-27T16:43:49Z</time>
      </trkpt>
      <trkpt lat="42.3078480" lon="-8.2780850">
        <ele>964.3</ele>
        <time>2022-08-27T16:43:50Z</time>
      </trkpt>
      <trkpt lat="42.3077930" lon="-8.2781390">
        <ele>963.9</ele>
        <time>2022-08-27T16:43:51Z</time>
      </trkpt>
      <trkpt lat="42.3077380" lon="-8.2781970">
        <ele>963.5</ele>
        <time>2022-08-27T16:43:52Z</time>
      </trkpt>
      <trkpt lat="42.3076820" lon="-8.2782540">
        <ele>963.1</ele>
        <time>2022-08-27T16:43:53Z</time>
      </trkpt>
      <trkpt lat="42.3076310" lon="-8.2783080">
        <ele>962.8</ele>
        <time>2022-08-27T16:43:54Z</time>
      </trkpt>
      <trkpt lat="42.3075770" lon="-8.2783610">
        <ele>962.5</ele>
        <time>2022-08-27T16:43:55Z</time>
      </trkpt>
      <trkpt lat="42.3075180" lon="-8.2784100">
        <ele>962.1</ele>
        <time>2022-08-27T16:43:56Z</time>
      </trkpt>
      <trkpt lat="42.3074580" lon="-8.2784560">
        <ele>961.6</ele>
        <time>2022-08-27T16:43:57Z</time>
      </trkpt>
      <trkpt lat="42.3073990" lon="-8.2785030">
        <ele>961.1</ele>
        <time>2022-08-27T16:43:58Z</time>
      </trkpt>
      <trkpt lat="42.3073380" lon="-8.2785510">
        <ele>960.6</ele>
        <time>2022-08-27T16:43:59Z</time>
      </trkpt>
      <trkpt lat="42.3072710" lon="-8.2786060">
        <ele>959.9</ele>
        <time>2022-08-27T16:44:00Z</time>
      </trkpt>
      <trkpt lat="42.3072040" lon="-8.2786700">
        <ele>959.2</ele>
        <time>2022-08-27T16:44:01Z</time>
      </trkpt>
      <trkpt lat="42.3071360" lon="-8.2787380">
        <ele>958.4</ele>
        <time>2022-08-27T16:44:02Z</time>
      </trkpt>
      <trkpt lat="42.3070700" lon="-8.2788120">
        <ele>957.6</ele>
        <time>2022-08-27T16:44:03Z</time>
      </trkpt>
      <trkpt lat="42.3070040" lon="-8.2788980">
        <ele>956.7</ele>
        <time>2022-08-27T16:44:04Z</time>
      </trkpt>
      <trkpt lat="42.3069340" lon="-8.2789800">
        <ele>955.7</ele>
        <time>2022-08-27T16:44:05Z</time>
      </trkpt>
      <trkpt lat="42.3068720" lon="-8.2790730">
        <ele>954.7</ele>
        <time>2022-08-27T16:44:06Z</time>
      </trkpt>
      <trkpt lat="42.3068060" lon="-8.2791680">
        <ele>953.8</ele>
        <time>2022-08-27T16:44:07Z</time>
      </trkpt>
      <trkpt lat="42.3067360" lon="-8.2792610">
        <ele>952.9</ele>
        <time>2022-08-27T16:44:08Z</time>
      </trkpt>
      <trkpt lat="42.3066650" lon="-8.2793500">
        <ele>952.1</ele>
        <time>2022-08-27T16:44:09Z</time>
      </trkpt>
      <trkpt lat="42.3065890" lon="-8.2794320">
        <ele>951.3</ele>
        <time>2022-08-27T16:44:10Z</time>
      </trkpt>
      <trkpt lat="42.3065150" lon="-8.2795110">
        <ele>950.6</ele>
        <time>2022-08-27T16:44:11Z</time>
      </trkpt>
      <trkpt lat="42.3064360" lon="-8.2795910">
        <ele>949.9</ele>
        <time>2022-08-27T16:44:12Z</time>
      </trkpt>
      <trkpt lat="42.3063550" lon="-8.2796680">
        <ele>949.1</ele>
        <time>2022-08-27T16:44:13Z</time>
      </trkpt>
      <trkpt lat="42.3062770" lon="-8.2797470">
        <ele>948.3</ele>
        <time>2022-08-27T16:44:14Z</time>
      </trkpt>
      <trkpt lat="42.3062010" lon="-8.2798210">
        <ele>947.4</ele>
        <time>2022-08-27T16:44:15Z</time>
      </trkpt>
      <trkpt lat="42.3061240" lon="-8.2798970">
        <ele>946.5</ele>
        <time>2022-08-27T16:44:16Z</time>
      </trkpt>
      <trkpt lat="42.3060500" lon="-8.2799630">
        <ele>945.6</ele>
        <time>2022-08-27T16:44:17Z</time>
      </trkpt>
      <trkpt lat="42.3059770" lon="-8.2800150">
        <ele>945.0</ele>
        <time>2022-08-27T16:44:18Z</time>
      </trkpt>
      <trkpt lat="42.3059000" lon="-8.2800590">
        <ele>944.3</ele>
        <time>2022-08-27T16:44:19Z</time>
      </trkpt>
      <trkpt lat="42.3058150" lon="-8.2801050">
        <ele>943.5</ele>
        <time>2022-08-27T16:44:20Z</time>
      </trkpt>
      <trkpt lat="42.3057250" lon="-8.2801400">
        <ele>942.4</ele>
        <time>2022-08-27T16:44:21Z</time>
      </trkpt>
      <trkpt lat="42.3056380" lon="-8.2801740">
        <ele>941.4</ele>
        <time>2022-08-27T16:44:22Z</time>
      </trkpt>
      <trkpt lat="42.3055480" lon="-8.2802090">
        <ele>940.3</ele>
        <time>2022-08-27T16:44:23Z</time>
      </trkpt>
      <trkpt lat="42.3054600" lon="-8.2802410">
        <ele>939.2</ele>
        <time>2022-08-27T16:44:24Z</time>
      </trkpt>
      <trkpt lat="42.3053730" lon="-8.2802740">
        <ele>938.1</ele>
        <time>2022-08-27T16:44:25Z</time>
      </trkpt>
      <trkpt lat="42.3052840" lon="-8.2803030">
        <ele>936.8</ele>
        <time>2022-08-27T16:44:26Z</time>
      </trkpt>
      <trkpt lat="42.3051820" lon="-8.2803240">
        <ele>935.2</ele>
        <time>2022-08-27T16:44:27Z</time>
      </trkpt>
      <trkpt lat="42.3050740" lon="-8.2803270">
        <ele>933.5</ele>
        <time>2022-08-27T16:44:28Z</time>
      </trkpt>
      <trkpt lat="42.3049670" lon="-8.2803210">
        <ele>932.1</ele>
        <time>2022-08-27T16:44:29Z</time>
      </trkpt>
      <trkpt lat="42.3048630" lon="-8.2803230">
        <ele>930.6</ele>
        <time>2022-08-27T16:44:30Z</time>
      </trkpt>
      <trkpt lat="42.3047600" lon="-8.2803330">
        <ele>929.0</ele>
        <time>2022-08-27T16:44:31Z</time>
      </trkpt>
      <trkpt lat="42.3046610" lon="-8.2803580">
        <ele>927.4</ele>
        <time>2022-08-27T16:44:32Z</time>
      </trkpt>
      <trkpt lat="42.3045600" lon="-8.2803950">
        <ele>925.6</ele>
        <time>2022-08-27T16:44:33Z</time>
      </trkpt>
      <trkpt lat="42.3044610" lon="-8.2804330">
        <ele>923.9</ele>
        <time>2022-08-27T16:44:34Z</time>
      </trkpt>
      <trkpt lat="42.3043580" lon="-8.2804700">
        <ele>922.2</ele>
        <time>2022-08-27T16:44:35Z</time>
      </trkpt>
      <trkpt lat="42.3042520" lon="-8.2805060">
        <ele>920.8</ele>
        <time>2022-08-27T16:44:36Z</time>
      </trkpt>
      <trkpt lat="42.3041470" lon="-8.2805450">
        <ele>919.4</ele>
        <time>2022-08-27T16:44:37Z</time>
      </trkpt>
      <trkpt lat="42.3040390" lon="-8.2805930">
        <ele>917.9</ele>
        <time>2022-08-27T16:44:38Z</time>
      </trkpt>
      <trkpt lat="42.3039370" lon="-8.2806410">
        <ele>916.5</ele>
        <time>2022-08-27T16:44:39Z</time>
      </trkpt>
      <trkpt lat="42.3038360" lon="-8.2806920">
        <ele>915.0</ele>
        <time>2022-08-27T16:44:40Z</time>
      </trkpt>
      <trkpt lat="42.3037330" lon="-8.2807480">
        <ele>913.6</ele>
        <time>2022-08-27T16:44:41Z</time>
      </trkpt>
      <trkpt lat="42.3036370" lon="-8.2808030">
        <ele>912.4</ele>
        <time>2022-08-27T16:44:42Z</time>
      </trkpt>
      <trkpt lat="42.3035430" lon="-8.2808710">
        <ele>911.1</ele>
        <time>2022-08-27T16:44:43Z</time>
      </trkpt>
      <trkpt lat="42.3034540" lon="-8.2809600">
        <ele>909.5</ele>
        <time>2022-08-27T16:44:44Z</time>
      </trkpt>
      <trkpt lat="42.3033740" lon="-8.2810660">
        <ele>908.1</ele>
        <time>2022-08-27T16:44:45Z</time>
      </trkpt>
      <trkpt lat="42.3033040" lon="-8.2811850">
        <ele>907.3</ele>
        <time>2022-08-27T16:44:46Z</time>
      </trkpt>
      <trkpt lat="42.3032440" lon="-8.2813080">
        <ele>906.6</ele>
        <time>2022-08-27T16:44:47Z</time>
      </trkpt>
      <trkpt lat="42.3031860" lon="-8.2814110">
        <ele>905.6</ele>
        <time>2022-08-27T16:44:48Z</time>
      </trkpt>
      <trkpt lat="42.3031170" lon="-8.2814940">
        <ele>904.7</ele>
        <time>2022-08-27T16:44:49Z</time>
      </trkpt>
      <trkpt lat="42.3030430" lon="-8.2815610">
        <ele>904.2</ele>
        <time>2022-08-27T16:44:50Z</time>
      </trkpt>
      <trkpt lat="42.3029590" lon="-8.2816150">
        <ele>903.5</ele>
        <time>2022-08-27T16:44:51Z</time>
      </trkpt>
      <trkpt lat="42.3028690" lon="-8.2816440">
        <ele>902.6</ele>
        <time>2022-08-27T16:44:52Z</time>
      </trkpt>
      <trkpt lat="42.3027750" lon="-8.2816440">
        <ele>901.5</ele>
        <time>2022-08-27T16:44:53Z</time>
      </trkpt>
      <trkpt lat="42.3026820" lon="-8.2816330">
        <ele>900.6</ele>
        <time>2022-08-27T16:44:54Z</time>
      </trkpt>
      <trkpt lat="42.3025920" lon="-8.2816260">
        <ele>900.0</ele>
        <time>2022-08-27T16:44:55Z</time>
      </trkpt>
      <trkpt lat="42.3025120" lon="-8.2816300">
        <ele>899.4</ele>
        <time>2022-08-27T16:44:56Z</time>
      </trkpt>
      <trkpt lat="42.3024320" lon="-8.2816440">
        <ele>898.7</ele>
        <time>2022-08-27T16:44:57Z</time>
      </trkpt>
      <trkpt lat="42.3023580" lon="-8.2816720">
        <ele>898.0</ele>
        <time>2022-08-27T16:44:58Z</time>
      </trkpt>
      <trkpt lat="42.3022830" lon="-8.2817340">
        <ele>897.2</ele>
        <time>2022-08-27T16:44:59Z</time>
      </trkpt>
      <trkpt lat="42.3022220" lon="-8.2818320">
        <ele>896.3</ele>
        <time>2022-08-27T16:45:00Z</time>
      </trkpt>
      <trkpt lat="42.3021820" lon="-8.2819350">
        <ele>895.0</ele>
        <time>2022-08-27T16:45:01Z</time>
      </trkpt>
      <trkpt lat="42.3021660" lon="-8.2820350">
        <ele>893.8</ele>
        <time>2022-08-27T16:45:02Z</time>
      </trkpt>
      <trkpt lat="42.3021820" lon="-8.2821380">
        <ele>892.6</ele>
        <time>2022-08-27T16:45:03Z</time>
      </trkpt>
      <trkpt lat="42.3022340" lon="-8.2822330">
        <ele>891.4</ele>
        <time>2022-08-27T16:45:04Z</time>
      </trkpt>
      <trkpt lat="42.3023060" lon="-8.2823030">
        <ele>890.0</ele>
        <time>2022-08-27T16:45:05Z</time>
      </trkpt>
      <trkpt lat="42.3023880" lon="-8.2823610">
        <ele>888.5</ele>
        <time>2022-08-27T16:45:06Z</time>
      </trkpt>
      <trkpt lat="42.3024700" lon="-8.2824300">
        <ele>887.2</ele>
        <time>2022-08-27T16:45:07Z</time>
      </trkpt>
      <trkpt lat="42.3025520" lon="-8.2825030">
        <ele>885.9</ele>
        <time>2022-08-27T16:45:08Z</time>
      </trkpt>
      <trkpt lat="42.3026350" lon="-8.2825800">
        <ele>884.7</ele>
        <time>2022-08-27T16:45:09Z</time>
      </trkpt>
      <trkpt lat="42.3027150" lon="-8.2826540">
        <ele>883.6</ele>
        <time>2022-08-27T16:45:10Z</time>
      </trkpt>
      <trkpt lat="42.3027960" lon="-8.2827160">
        <ele>882.8</ele>
        <time>2022-08-27T16:45:11Z</time>
      </trkpt>
      <trkpt lat="42.3028870" lon="-8.2827570">
        <ele>882.1</ele>
        <time>2022-08-27T16:45:12Z</time>
      </trkpt>
      <trkpt lat="42.3029800" lon="-8.2827770">
        <ele>881.5</ele>
        <time>2022-08-27T16:45:13Z</time>
      </trkpt>
      <trkpt lat="42.3030730" lon="-8.2828010">
        <ele>881.0</ele>
        <time>2022-08-27T16:45:14Z</time>
      </trkpt>
      <trkpt lat="42.3031650" lon="-8.2828240">
        <ele>880.6</ele>
        <time>2022-08-27T16:45:15Z</time>
      </trkpt>
      <trkpt lat="42.3032610" lon="-8.2828490">
        <ele>880.1</ele>
        <time>2022-08-27T16:45:16Z</time>
      </trkpt>
      <trkpt lat="42.3033640" lon="-8.2828670">
        <ele>879.4</ele>
        <time>2022-08-27T16:45:17Z</time>
      </trkpt>
      <trkpt lat="42.3034670" lon="-8.2828840">
        <ele>878.5</ele>
        <time>2022-08-27T16:45:18Z</time>
      </trkpt>
      <trkpt lat="42.3035500" lon="-8.2829060">
        <ele>878.0</ele>
        <time>2022-08-27T16:45:19Z</time>
      </trkpt>
      <trkpt lat="42.3036330" lon="-8.2829350">
        <ele>877.4</ele>
        <time>2022-08-27T16:45:20Z</time>
      </trkpt>
      <trkpt lat="42.3037080" lon="-8.2829830">
        <ele>876.8</ele>
        <time>2022-08-27T16:45:21Z</time>
      </trkpt>
      <trkpt lat="42.3037750" lon="-8.2830680">
        <ele>875.7</ele>
        <time>2022-08-27T16:45:22Z</time>
      </trkpt>
      <trkpt lat="42.3038270" lon="-8.2831770">
        <ele>874.5</ele>
        <time>2022-08-27T16:45:23Z</time>
      </trkpt>
      <trkpt lat="42.3038640" lon="-8.2832940">
        <ele>873.7</ele>
        <time>2022-08-27T16:45:24Z</time>
      </trkpt>
      <trkpt lat="42.3039010" lon="-8.2834080">
        <ele>873.0</ele>
        <time>2022-08-27T16:45:25Z</time>
      </trkpt>
      <trkpt lat="42.3039470" lon="-8.2835210">
        <ele>872.2</ele>
        <time>2022-08-27T16:45:26Z</time>
      </trkpt>
      <trkpt lat="42.3040030" lon="-8.2836310">
        <ele>871.4</ele>
        <time>2022-08-27T16:45:27Z</time>
      </trkpt>
      <trkpt lat="42.3040710" lon="-8.2837300">
        <ele>870.7</ele>
        <time>2022-08-27T16:45:28Z</time>
      </trkpt>
      <trkpt lat="42.3041490" lon="-8.2838190">
        <ele>870.0</ele>
        <time>2022-08-27T16:45:29Z</time>
      </trkpt>
      <trkpt lat="42.3042270" lon="-8.2839040">
        <ele>869.2</ele>
        <time>2022-08-27T16:45:30Z</time>
      </trkpt>
      <trkpt lat="42.3043060" lon="-8.2839900">
        <ele>868.2</ele>
        <time>2022-08-27T16:45:31Z</time>
      </trkpt>
      <trkpt lat="42.3043850" lon="-8.2840740">
        <ele>867.5</ele>
        <time>2022-08-27T16:45:32Z</time>
      </trkpt>
      <trkpt lat="42.3044580" lon="-8.2841550">
        <ele>866.8</ele>
        <time>2022-08-27T16:45:33Z</time>
      </trkpt>
      <trkpt lat="42.3045390" lon="-8.2842320">
        <ele>866.1</ele>
        <time>2022-08-27T16:45:34Z</time>
      </trkpt>
      <trkpt lat="42.3046240" lon="-8.2843010">
        <ele>865.4</ele>
        <time>2022-08-27T16:45:35Z</time>
      </trkpt>
      <trkpt lat="42.3047130" lon="-8.2843680">
        <ele>864.6</ele>
        <time>2022-08-27T16:45:36Z</time>
      </trkpt>
      <trkpt lat="42.3048090" lon="-8.2844250">
        <ele>863.8</ele>
        <time>2022-08-27T16:45:37Z</time>
      </trkpt>
      <trkpt lat="42.3049120" lon="-8.2844750">
        <ele>862.7</ele>
        <time>2022-08-27T16:45:38Z</time>
      </trkpt>
      <trkpt lat="42.3050170" lon="-8.2845240">
        <ele>861.5</ele>
        <time>2022-08-27T16:45:39Z</time>
      </trkpt>
      <trkpt lat="42.3051210" lon="-8.2845760">
        <ele>860.4</ele>
        <time>2022-08-27T16:45:40Z</time>
      </trkpt>
      <trkpt lat="42.3052210" lon="-8.2846250">
        <ele>859.7</ele>
        <time>2022-08-27T16:45:41Z</time>
      </trkpt>
      <trkpt lat="42.3053260" lon="-8.2846680">
        <ele>859.1</ele>
        <time>2022-08-27T16:45:42Z</time>
      </trkpt>
      <trkpt lat="42.3054270" lon="-8.2847080">
        <ele>858.6</ele>
        <time>2022-08-27T16:45:43Z</time>
      </trkpt>
      <trkpt lat="42.3055290" lon="-8.2847370">
        <ele>858.1</ele>
        <time>2022-08-27T16:45:44Z</time>
      </trkpt>
      <trkpt lat="42.3056290" lon="-8.2847710">
        <ele>857.9</ele>
        <time>2022-08-27T16:45:45Z</time>
      </trkpt>
      <trkpt lat="42.3057220" lon="-8.2848160">
        <ele>858.1</ele>
        <time>2022-08-27T16:45:46Z</time>
      </trkpt>
      <trkpt lat="42.3058140" lon="-8.2848620">
        <ele>858.5</ele>
        <time>2022-08-27T16:45:47Z</time>
      </trkpt>
      <trkpt lat="42.3059080" lon="-8.2849080">
        <ele>858.9</ele>
        <time>2022-08-27T16:45:48Z</time>
      </trkpt>
      <trkpt lat="42.3059990" lon="-8.2849550">
        <ele>859.1</ele>
        <time>2022-08-27T16:45:49Z</time>
      </trkpt>
      <trkpt lat="42.3060870" lon="-8.2850080">
        <ele>859.2</ele>
        <time>2022-08-27T16:45:50Z</time>
      </trkpt>
      <trkpt lat="42.3061750" lon="-8.2850600">
        <ele>859.0</ele>
        <time>2022-08-27T16:45:51Z</time>
      </trkpt>
      <trkpt lat="42.3062590" lon="-8.2851010">
        <ele>858.7</ele>
        <time>2022-08-27T16:45:52Z</time>
      </trkpt>
      <trkpt lat="42.3063420" lon="-8.2851310">
        <ele>858.3</ele>
        <time>2022-08-27T16:45:53Z</time>
      </trkpt>
      <trkpt lat="42.3064300" lon="-8.2851460">
        <ele>857.8</ele>
        <time>2022-08-27T16:45:54Z</time>
      </trkpt>
      <trkpt lat="42.3065140" lon="-8.2851400">
        <ele>857.4</ele>
        <time>2022-08-27T16:45:55Z</time>
      </trkpt>
      <trkpt lat="42.3066010" lon="-8.2851260">
        <ele>857.2</ele>
        <time>2022-08-27T16:45:56Z</time>
      </trkpt>
      <trkpt lat="42.3066850" lon="-8.2851010">
        <ele>857.0</ele>
        <time>2022-08-27T16:45:57Z</time>
      </trkpt>
      <trkpt lat="42.3067620" lon="-8.2850550">
        <ele>856.9</ele>
        <time>2022-08-27T16:45:58Z</time>
      </trkpt>
      <trkpt lat="42.3068270" lon="-8.2849990">
        <ele>856.9</ele>
        <time>2022-08-27T16:45:59Z</time>
      </trkpt>
      <trkpt lat="42.3068790" lon="-8.2849220">
        <ele>856.8</ele>
        <time>2022-08-27T16:46:00Z</time>
      </trkpt>
      <trkpt lat="42.3069190" lon="-8.2848370">
        <ele>856.8</ele>
        <time>2022-08-27T16:46:01Z</time>
      </trkpt>
      <trkpt lat="42.3069640" lon="-8.2847590">
        <ele>856.7</ele>
        <time>2022-08-27T16:46:02Z</time>
      </trkpt>
      <trkpt lat="42.3070130" lon="-8.2846870">
        <ele>856.7</ele>
        <time>2022-08-27T16:46:03Z</time>
      </trkpt>
      <trkpt lat="42.3070680" lon="-8.2846240">
        <ele>856.8</ele>
        <time>2022-08-27T16:46:04Z</time>
      </trkpt>
      <trkpt lat="42.3071240" lon="-8.2845680">
        <ele>856.9</ele>
        <time>2022-08-27T16:46:05Z</time>
      </trkpt>
      <trkpt lat="42.3071810" lon="-8.2845290">
        <ele>857.0</ele>
        <time>2022-08-27T16:46:06Z</time>
      </trkpt>
      <trkpt lat="42.3072420" lon="-8.2845210">
        <ele>856.9</ele>
        <time>2022-08-27T16:46:07Z</time>
      </trkpt>
      <trkpt lat="42.3073000" lon="-8.2845400">
        <ele>856.8</ele>
        <time>2022-08-27T16:46:08Z</time>
      </trkpt>
      <trkpt lat="42.3073550" lon="-8.2845650">
        <ele>856.6</ele>
        <time>2022-08-27T16:46:09Z</time>
      </trkpt>
      <trkpt lat="42.3074150" lon="-8.2845950">
        <ele>856.2</ele>
        <time>2022-08-27T16:46:10Z</time>
      </trkpt>
      <trkpt lat="42.3074800" lon="-8.2846220">
        <ele>855.7</ele>
        <time>2022-08-27T16:46:11Z</time>
      </trkpt>
      <trkpt lat="42.3075540" lon="-8.2846520">
        <ele>855.1</ele>
        <time>2022-08-27T16:46:12Z</time>
      </trkpt>
      <trkpt lat="42.3076320" lon="-8.2846860">
        <ele>854.5</ele>
        <time>2022-08-27T16:46:13Z</time>
      </trkpt>
      <trkpt lat="42.3077200" lon="-8.2847130">
        <ele>854.2</ele>
        <time>2022-08-27T16:46:14Z</time>
      </trkpt>
      <trkpt lat="42.3078090" lon="-8.2847270">
        <ele>853.9</ele>
        <time>2022-08-27T16:46:15Z</time>
      </trkpt>
      <trkpt lat="42.3078980" lon="-8.2847250">
        <ele>853.6</ele>
        <time>2022-08-27T16:46:16Z</time>
      </trkpt>
      <trkpt lat="42.3079850" lon="-8.2847130">
        <ele>853.3</ele>
        <time>2022-08-27T16:46:17Z</time>
      </trkpt>
      <trkpt lat="42.3080640" lon="-8.2847040">
        <ele>852.9</ele>
        <time>2022-08-27T16:46:18Z</time>
      </trkpt>
      <trkpt lat="42.3081320" lon="-8.2847010">
        <ele>852.5</ele>
        <time>2022-08-27T16:46:19Z</time>
      </trkpt>
      <trkpt lat="42.3081980" lon="-8.2847010">
        <ele>852.0</ele>
        <time>2022-08-27T16:46:20Z</time>
      </trkpt>
      <trkpt lat="42.3082650" lon="-8.2846960">
        <ele>851.5</ele>
        <time>2022-08-27T16:46:21Z</time>
      </trkpt>
      <trkpt lat="42.3083300" lon="-8.2846880">
        <ele>851.0</ele>
        <time>2022-08-27T16:46:22Z</time>
      </trkpt>
      <trkpt lat="42.3083780" lon="-8.2846940">
        <ele>850.6</ele>
        <time>2022-08-27T16:46:23Z</time>
      </trkpt>
      <trkpt lat="42.3084070" lon="-8.2847010">
        <ele>850.4</ele>
        <time>2022-08-27T16:46:24Z</time>
      </trkpt>
      <trkpt lat="42.3084530" lon="-8.2847070">
        <ele>850.0</ele>
        <time>2022-08-27T16:46:25Z</time>
      </trkpt>
      <trkpt lat="42.3084860" lon="-8.2847060">
        <ele>849.7</ele>
        <time>2022-08-27T16:46:26Z</time>
      </trkpt>
      <trkpt lat="42.3085050" lon="-8.2847140">
        <ele>849.5</ele>
        <time>2022-08-27T16:46:27Z</time>
      </trkpt>
      <trkpt lat="42.3085180" lon="-8.2847220">
        <ele>849.3</ele>
        <time>2022-08-27T16:46:28Z</time>
      </trkpt>
      <trkpt lat="42.3085490" lon="-8.2847440">
        <ele>849.0</ele>
        <time>2022-08-27T16:46:29Z</time>
      </trkpt>
      <trkpt lat="42.3085640" lon="-8.2847550">
        <ele>848.8</ele>
        <time>2022-08-27T16:46:30Z</time>
      </trkpt>
      <trkpt lat="42.3086040" lon="-8.2847690">
        <ele>848.3</ele>
        <time>2022-08-27T16:46:31Z</time>
      </trkpt>
      <trkpt lat="42.3086200" lon="-8.2847740">
        <ele>848.2</ele>
        <time>2022-08-27T16:46:32Z</time>
      </trkpt>
      <trkpt lat="42.3086610" lon="-8.2848060">
        <ele>847.6</ele>
        <time>2022-08-27T16:46:33Z</time>
      </trkpt>
      <trkpt lat="42.3086970" lon="-8.2848520">
        <ele>846.9</ele>
        <time>2022-08-27T16:46:34Z</time>
      </trkpt>
      <trkpt lat="42.3087180" lon="-8.2848940">
        <ele>846.4</ele>
        <time>2022-08-27T16:46:35Z</time>
      </trkpt>
      <trkpt lat="42.3087340" lon="-8.2849490">
        <ele>845.8</ele>
        <time>2022-08-27T16:46:36Z</time>
      </trkpt>
      <trkpt lat="42.3087410" lon="-8.2849720">
        <ele>845.5</ele>
        <time>2022-08-27T16:46:37Z</time>
      </trkpt>
      <trkpt lat="42.3087640" lon="-8.2850180">
        <ele>845.0</ele>
        <time>2022-08-27T16:46:38Z</time>
      </trkpt>
      <trkpt lat="42.3088050" lon="-8.2850690">
        <ele>844.3</ele>
        <time>2022-08-27T16:46:39Z</time>
      </trkpt>
      <trkpt lat="42.3088490" lon="-8.2851120">
        <ele>843.7</ele>
        <time>2022-08-27T16:46:40Z</time>
      </trkpt>
      <trkpt lat="42.3088950" lon="-8.2851520">
        <ele>843.1</ele>
        <time>2022-08-27T16:46:41Z</time>
      </trkpt>
      <trkpt lat="42.3089450" lon="-8.2851960">
        <ele>842.5</ele>
        <time>2022-08-27T16:46:42Z</time>
      </trkpt>
      <trkpt lat="42.3089970" lon="-8.2852380">
        <ele>842.0</ele>
        <time>2022-08-27T16:46:43Z</time>
      </trkpt>
      <trkpt lat="42.3090410" lon="-8.2852850">
        <ele>841.5</ele>
        <time>2022-08-27T16:46:44Z</time>
      </trkpt>
      <trkpt lat="42.3090760" lon="-8.2853470">
        <ele>841.0</ele>
        <time>2022-08-27T16:46:45Z</time>
      </trkpt>
      <trkpt lat="42.3090910" lon="-8.2854280">
        <ele>840.4</ele>
        <time>2022-08-27T16:46:46Z</time>
      </trkpt>
      <trkpt lat="42.3090840" lon="-8.2855120">
        <ele>839.7</ele>
        <time>2022-08-27T16:46:47Z</time>
      </trkpt>
      <trkpt lat="42.3090650" lon="-8.2855950">
        <ele>839.1</ele>
        <time>2022-08-27T16:46:48Z</time>
      </trkpt>
      <trkpt lat="42.3090390" lon="-8.2856740">
        <ele>838.4</ele>
        <time>2022-08-27T16:46:49Z</time>
      </trkpt>
      <trkpt lat="42.3090080" lon="-8.2857500">
        <ele>837.7</ele>
        <time>2022-08-27T16:46:50Z</time>
      </trkpt>
      <trkpt lat="42.3089680" lon="-8.2858250">
        <ele>836.9</ele>
        <time>2022-08-27T16:46:51Z</time>
      </trkpt>
      <trkpt lat="42.3089130" lon="-8.2858820">
        <ele>836.1</ele>
        <time>2022-08-27T16:46:52Z</time>
      </trkpt>
      <trkpt lat="42.3088520" lon="-8.2859370">
        <ele>835.2</ele>
        <time>2022-08-27T16:46:53Z</time>
      </trkpt>
      <trkpt lat="42.3087870" lon="-8.2859880">
        <ele>834.3</ele>
        <time>2022-08-27T16:46:54Z</time>
      </trkpt>
      <trkpt lat="42.3087270" lon="-8.2860400">
        <ele>833.4</ele>
        <time>2022-08-27T16:46:55Z</time>
      </trkpt>
      <trkpt lat="42.3086700" lon="-8.2860900">
        <ele>832.6</ele>
        <time>2022-08-27T16:46:56Z</time>
      </trkpt>
      <trkpt lat="42.3086270" lon="-8.2861610">
        <ele>831.7</ele>
        <time>2022-08-27T16:46:57Z</time>
      </trkpt>
      <trkpt lat="42.3086010" lon="-8.2862540">
        <ele>830.7</ele>
        <time>2022-08-27T16:46:58Z</time>
      </trkpt>
      <trkpt lat="42.3085970" lon="-8.2863630">
        <ele>829.6</ele>
        <time>2022-08-27T16:46:59Z</time>
      </trkpt>
      <trkpt lat="42.3086010" lon="-8.2864750">
        <ele>828.5</ele>
        <time>2022-08-27T16:47:00Z</time>
      </trkpt>
      <trkpt lat="42.3085990" lon="-8.2865960">
        <ele>827.3</ele>
        <time>2022-08-27T16:47:01Z</time>
      </trkpt>
      <trkpt lat="42.3085810" lon="-8.2867120">
        <ele>826.2</ele>
        <time>2022-08-27T16:47:02Z</time>
      </trkpt>
      <trkpt lat="42.3085460" lon="-8.2868270">
        <ele>825.1</ele>
        <time>2022-08-27T16:47:03Z</time>
      </trkpt>
      <trkpt lat="42.3085020" lon="-8.2869310">
        <ele>824.1</ele>
        <time>2022-08-27T16:47:04Z</time>
      </trkpt>
      <trkpt lat="42.3084530" lon="-8.2870380">
        <ele>823.1</ele>
        <time>2022-08-27T16:47:05Z</time>
      </trkpt>
      <trkpt lat="42.3084080" lon="-8.2871530">
        <ele>822.0</ele>
        <time>2022-08-27T16:47:06Z</time>
      </trkpt>
      <trkpt lat="42.3083750" lon="-8.2872580">
        <ele>821.1</ele>
        <time>2022-08-27T16:47:07Z</time>
      </trkpt>
      <trkpt lat="42.3083580" lon="-8.2873720">
        <ele>820.1</ele>
        <time>2022-08-27T16:47:08Z</time>
      </trkpt>
      <trkpt lat="42.3083660" lon="-8.2874910">
        <ele>819.0</ele>
        <time>2022-08-27T16:47:09Z</time>
      </trkpt>
      <trkpt lat="42.3083920" lon="-8.2876140">
        <ele>817.9</ele>
        <time>2022-08-27T16:47:10Z</time>
      </trkpt>
      <trkpt lat="42.3084210" lon="-8.2877450">
        <ele>816.7</ele>
        <time>2022-08-27T16:47:11Z</time>
      </trkpt>
      <trkpt lat="42.3084380" lon="-8.2878840">
        <ele>815.4</ele>
        <time>2022-08-27T16:47:12Z</time>
      </trkpt>
      <trkpt lat="42.3084440" lon="-8.2880300">
        <ele>814.0</ele>
        <time>2022-08-27T16:47:13Z</time>
      </trkpt>
      <trkpt lat="42.3084450" lon="-8.2881840">
        <ele>812.6</ele>
        <time>2022-08-27T16:47:14Z</time>
      </trkpt>
      <trkpt lat="42.3084520" lon="-8.2883380">
        <ele>811.3</ele>
        <time>2022-08-27T16:47:15Z</time>
      </trkpt>
      <trkpt lat="42.3084720" lon="-8.2884910">
        <ele>810.0</ele>
        <time>2022-08-27T16:47:16Z</time>
      </trkpt>
      <trkpt lat="42.3084970" lon="-8.2886430">
        <ele>808.7</ele>
        <time>2022-08-27T16:47:17Z</time>
      </trkpt>
      <trkpt lat="42.3085300" lon="-8.2887930">
        <ele>807.7</ele>
        <time>2022-08-27T16:47:18Z</time>
      </trkpt>
      <trkpt lat="42.3085600" lon="-8.2889350">
        <ele>806.9</ele>
        <time>2022-08-27T16:47:19Z</time>
      </trkpt>
      <trkpt lat="42.3085850" lon="-8.2890610">
        <ele>806.3</ele>
        <time>2022-08-27T16:47:20Z</time>
      </trkpt>
      <trkpt lat="42.3086030" lon="-8.2891750">
        <ele>805.7</ele>
        <time>2022-08-27T16:47:21Z</time>
      </trkpt>
      <trkpt lat="42.3086170" lon="-8.2892870">
        <ele>805.2</ele>
        <time>2022-08-27T16:47:22Z</time>
      </trkpt>
      <trkpt lat="42.3086220" lon="-8.2893930">
        <ele>804.5</ele>
        <time>2022-08-27T16:47:23Z</time>
      </trkpt>
      <trkpt lat="42.3086110" lon="-8.2894960">
        <ele>803.7</ele>
        <time>2022-08-27T16:47:24Z</time>
      </trkpt>
      <trkpt lat="42.3085800" lon="-8.2895870">
        <ele>802.9</ele>
        <time>2022-08-27T16:47:25Z</time>
      </trkpt>
      <trkpt lat="42.3085280" lon="-8.2896730">
        <ele>802.0</ele>
        <time>2022-08-27T16:47:26Z</time>
      </trkpt>
      <trkpt lat="42.3084610" lon="-8.2897560">
        <ele>801.0</ele>
        <time>2022-08-27T16:47:27Z</time>
      </trkpt>
      <trkpt lat="42.3084010" lon="-8.2898340">
        <ele>800.1</ele>
        <time>2022-08-27T16:47:28Z</time>
      </trkpt>
      <trkpt lat="42.3083550" lon="-8.2899180">
        <ele>799.3</ele>
        <time>2022-08-27T16:47:29Z</time>
      </trkpt>
      <trkpt lat="42.3083220" lon="-8.2900130">
        <ele>798.5</ele>
        <time>2022-08-27T16:47:30Z</time>
      </trkpt>
      <trkpt lat="42.3083070" lon="-8.2901220">
        <ele>797.7</ele>
        <time>2022-08-27T16:47:31Z</time>
      </trkpt>
      <trkpt lat="42.3083130" lon="-8.2902400">
        <ele>797.0</ele>
        <time>2022-08-27T16:47:32Z</time>
      </trkpt>
      <trkpt lat="42.3083330" lon="-8.2903600">
        <ele>796.3</ele>
        <time>2022-08-27T16:47:33Z</time>
      </trkpt>
      <trkpt lat="42.3083500" lon="-8.2904750">
        <ele>795.8</ele>
        <time>2022-08-27T16:47:34Z</time>
      </trkpt>
      <trkpt lat="42.3083540" lon="-8.2905610">
        <ele>795.5</ele>
        <time>2022-08-27T16:47:35Z</time>
      </trkpt>
      <trkpt lat="42.3083430" lon="-8.2906360">
        <ele>795.1</ele>
        <time>2022-08-27T16:47:36Z</time>
      </trkpt>
      <trkpt lat="42.3083180" lon="-8.2907130">
        <ele>794.7</ele>
        <time>2022-08-27T16:47:37Z</time>
      </trkpt>
      <trkpt lat="42.3082800" lon="-8.2907720">
        <ele>794.1</ele>
        <time>2022-08-27T16:47:38Z</time>
      </trkpt>
      <trkpt lat="42.3082270" lon="-8.2908110">
        <ele>793.5</ele>
        <time>2022-08-27T16:47:39Z</time>
      </trkpt>
      <trkpt lat="42.3081590" lon="-8.2908200">
        <ele>792.7</ele>
        <time>2022-08-27T16:47:40Z</time>
      </trkpt>
      <trkpt lat="42.3080760" lon="-8.2908030">
        <ele>791.7</ele>
        <time>2022-08-27T16:47:41Z</time>
      </trkpt>
      <trkpt lat="42.3079970" lon="-8.2907620">
        <ele>790.7</ele>
        <time>2022-08-27T16:47:42Z</time>
      </trkpt>
      <trkpt lat="42.3079280" lon="-8.2907150">
        <ele>790.0</ele>
        <time>2022-08-27T16:47:43Z</time>
      </trkpt>
      <trkpt lat="42.3078660" lon="-8.2906580">
        <ele>789.3</ele>
        <time>2022-08-27T16:47:44Z</time>
      </trkpt>
      <trkpt lat="42.3078220" lon="-8.2905900">
        <ele>788.8</ele>
        <time>2022-08-27T16:47:45Z</time>
      </trkpt>
      <trkpt lat="42.3077830" lon="-8.2905200">
        <ele>788.3</ele>
        <time>2022-08-27T16:47:46Z</time>
      </trkpt>
      <trkpt lat="42.3077520" lon="-8.2904650">
        <ele>788.0</ele>
        <time>2022-08-27T16:47:47Z</time>
      </trkpt>
      <trkpt lat="42.3077140" lon="-8.2904170">
        <ele>787.6</ele>
        <time>2022-08-27T16:47:48Z</time>
      </trkpt>
      <trkpt lat="42.3076720" lon="-8.2903910">
        <ele>787.2</ele>
        <time>2022-08-27T16:47:49Z</time>
      </trkpt>
      <trkpt lat="42.3076280" lon="-8.2903970">
        <ele>786.7</ele>
        <time>2022-08-27T16:47:50Z</time>
      </trkpt>
      <trkpt lat="42.3075830" lon="-8.2904270">
        <ele>786.1</ele>
        <time>2022-08-27T16:47:51Z</time>
      </trkpt>
      <trkpt lat="42.3075520" lon="-8.2904770">
        <ele>785.4</ele>
        <time>2022-08-27T16:47:52Z</time>
      </trkpt>
      <trkpt lat="42.3075360" lon="-8.2905580">
        <ele>784.3</ele>
        <time>2022-08-27T16:47:53Z</time>
      </trkpt>
      <trkpt lat="42.3075350" lon="-8.2906690">
        <ele>782.8</ele>
        <time>2022-08-27T16:47:54Z</time>
      </trkpt>
      <trkpt lat="42.3075420" lon="-8.2907840">
        <ele>781.3</ele>
        <time>2022-08-27T16:47:55Z</time>
      </trkpt>
      <trkpt lat="42.3075570" lon="-8.2909060">
        <ele>779.7</ele>
        <time>2022-08-27T16:47:56Z</time>
      </trkpt>
      <trkpt lat="42.3075840" lon="-8.2910340">
        <ele>778.3</ele>
        <time>2022-08-27T16:47:57Z</time>
      </trkpt>
      <trkpt lat="42.3076230" lon="-8.2911520">
        <ele>777.1</ele>
        <time>2022-08-27T16:47:58Z</time>
      </trkpt>
      <trkpt lat="42.3076660" lon="-8.2912590">
        <ele>775.9</ele>
        <time>2022-08-27T16:47:59Z</time>
      </trkpt>
      <trkpt lat="42.3077030" lon="-8.2913590">
        <ele>774.9</ele>
        <time>2022-08-27T16:48:00Z</time>
      </trkpt>
      <trkpt lat="42.3077240" lon="-8.2914720">
        <ele>773.8</ele>
        <time>2022-08-27T16:48:01Z</time>
      </trkpt>
      <trkpt lat="42.3077270" lon="-8.2915810">
        <ele>772.8</ele>
        <time>2022-08-27T16:48:02Z</time>
      </trkpt>
      <trkpt lat="42.3077210" lon="-8.2916950">
        <ele>771.7</ele>
        <time>2022-08-27T16:48:03Z</time>
      </trkpt>
      <trkpt lat="42.3077230" lon="-8.2918180">
        <ele>770.6</ele>
        <time>2022-08-27T16:48:04Z</time>
      </trkpt>
      <trkpt lat="42.3077440" lon="-8.2919500">
        <ele>769.4</ele>
        <time>2022-08-27T16:48:05Z</time>
      </trkpt>
      <trkpt lat="42.3077860" lon="-8.2920740">
        <ele>768.3</ele>
        <time>2022-08-27T16:48:06Z</time>
      </trkpt>
      <trkpt lat="42.3078240" lon="-8.2921870">
        <ele>767.3</ele>
        <time>2022-08-27T16:48:07Z</time>
      </trkpt>
      <trkpt lat="42.3078570" lon="-8.2922890">
        <ele>766.5</ele>
        <time>2022-08-27T16:48:08Z</time>
      </trkpt>
      <trkpt lat="42.3079030" lon="-8.2923740">
        <ele>765.6</ele>
        <time>2022-08-27T16:48:09Z</time>
      </trkpt>
      <trkpt lat="42.3079730" lon="-8.2924490">
        <ele>764.7</ele>
        <time>2022-08-27T16:48:10Z</time>
      </trkpt>
      <trkpt lat="42.3080580" lon="-8.2924940">
        <ele>763.8</ele>
        <time>2022-08-27T16:48:11Z</time>
      </trkpt>
      <trkpt lat="42.3081490" lon="-8.2925050">
        <ele>763.0</ele>
        <time>2022-08-27T16:48:12Z</time>
      </trkpt>
      <trkpt lat="42.3082510" lon="-8.2925190">
        <ele>762.2</ele>
        <time>2022-08-27T16:48:13Z</time>
      </trkpt>
      <trkpt lat="42.3083390" lon="-8.2925530">
        <ele>761.7</ele>
        <time>2022-08-27T16:48:14Z</time>
      </trkpt>
      <trkpt lat="42.3084030" lon="-8.2926060">
        <ele>761.3</ele>
        <time>2022-08-27T16:48:15Z</time>
      </trkpt>
      <trkpt lat="42.3084470" lon="-8.2926810">
        <ele>760.8</ele>
        <time>2022-08-27T16:48:16Z</time>
      </trkpt>
      <trkpt lat="42.3084660" lon="-8.2927780">
        <ele>760.3</ele>
        <time>2022-08-27T16:48:17Z</time>
      </trkpt>
      <trkpt lat="42.3084540" lon="-8.2928720">
        <ele>759.7</ele>
        <time>2022-08-27T16:48:18Z</time>
      </trkpt>
      <trkpt lat="42.3084220" lon="-8.2929460">
        <ele>759.1</ele>
        <time>2022-08-27T16:48:19Z</time>
      </trkpt>
      <trkpt lat="42.3083870" lon="-8.2930230">
        <ele>758.4</ele>
        <time>2022-08-27T16:48:20Z</time>
      </trkpt>
      <trkpt lat="42.3083530" lon="-8.2931070">
        <ele>757.7</ele>
        <time>2022-08-27T16:48:21Z</time>
      </trkpt>
      <trkpt lat="42.3083250" lon="-8.2932000">
        <ele>756.9</ele>
        <time>2022-08-27T16:48:22Z</time>
      </trkpt>
      <trkpt lat="42.3083080" lon="-8.2932940">
        <ele>756.1</ele>
        <time>2022-08-27T16:48:23Z</time>
      </trkpt>
      <trkpt lat="42.3082920" lon="-8.2933930">
        <ele>755.4</ele>
        <time>2022-08-27T16:48:24Z</time>
      </trkpt>
      <trkpt lat="42.3082700" lon="-8.2934950">
        <ele>754.6</ele>
        <time>2022-08-27T16:48:25Z</time>
      </trkpt>
      <trkpt lat="42.3082440" lon="-8.2935960">
        <ele>753.9</ele>
        <time>2022-08-27T16:48:26Z</time>
      </trkpt>
      <trkpt lat="42.3082120" lon="-8.2936900">
        <ele>753.2</ele>
        <time>2022-08-27T16:48:27Z</time>
      </trkpt>
      <trkpt lat="42.3081710" lon="-8.2937790">
        <ele>752.5</ele>
        <time>2022-08-27T16:48:28Z</time>
      </trkpt>
      <trkpt lat="42.3081280" lon="-8.2938610">
        <ele>751.9</ele>
        <time>2022-08-27T16:48:29Z</time>
      </trkpt>
      <trkpt lat="42.3080750" lon="-8.2939310">
        <ele>751.3</ele>
        <time>2022-08-27T16:48:30Z</time>
      </trkpt>
      <trkpt lat="42.3080200" lon="-8.2939820">
        <ele>751.0</ele>
        <time>2022-08-27T16:48:31Z</time>
      </trkpt>
      <trkpt lat="42.3079720" lon="-8.2940440">
        <ele>750.8</ele>
        <time>2022-08-27T16:48:32Z</time>
      </trkpt>
      <trkpt lat="42.3079360" lon="-8.2941110">
        <ele>750.6</ele>
        <time>2022-08-27T16:48:33Z</time>
      </trkpt>
      <trkpt lat="42.3079080" lon="-8.2941760">
        <ele>750.5</ele>
        <time>2022-08-27T16:48:34Z</time>
      </trkpt>
      <trkpt lat="42.3078800" lon="-8.2942560">
        <ele>750.5</ele>
        <time>2022-08-27T16:48:35Z</time>
      </trkpt>
      <trkpt lat="42.3078530" lon="-8.2943320">
        <ele>750.4</ele>
        <time>2022-08-27T16:48:36Z</time>
      </trkpt>
      <trkpt lat="42.3078310" lon="-8.2944100">
        <ele>750.4</ele>
        <time>2022-08-27T16:48:37Z</time>
      </trkpt>
      <trkpt lat="42.3078230" lon="-8.2944840">
        <ele>750.4</ele>
        <time>2022-08-27T16:48:38Z</time>
      </trkpt>
      <trkpt lat="42.3078140" lon="-8.2945540">
        <ele>750.4</ele>
        <time>2022-08-27T16:48:39Z</time>
      </trkpt>
      <trkpt lat="42.3078070" lon="-8.2946240">
        <ele>750.4</ele>
        <time>2022-08-27T16:48:40Z</time>
      </trkpt>
      <trkpt lat="42.3078070" lon="-8.2946920">
        <ele>750.3</ele>
        <time>2022-08-27T16:48:41Z</time>
      </trkpt>
      <trkpt lat="42.3078180" lon="-8.2947550">
        <ele>750.2</ele>
        <time>2022-08-27T16:48:42Z</time>
      </trkpt>
      <trkpt lat="42.3078260" lon="-8.2948040">
        <ele>750.1</ele>
        <time>2022-08-27T16:48:43Z</time>
      </trkpt>
      <trkpt lat="42.3078390" lon="-8.2948550">
        <ele>749.9</ele>
        <time>2022-08-27T16:48:44Z</time>
      </trkpt>
      <trkpt lat="42.3078450" lon="-8.2948730">
        <ele>749.8</ele>
        <time>2022-08-27T16:48:45Z</time>
      </trkpt>
      <trkpt lat="42.3078600" lon="-8.2949060">
        <ele>749.6</ele>
        <time>2022-08-27T16:48:46Z</time>
      </trkpt>
      <trkpt lat="42.3078720" lon="-8.2949640">
        <ele>749.3</ele>
        <time>2022-08-27T16:48:47Z</time>
      </trkpt>
      <trkpt lat="42.3078870" lon="-8.2950340">
        <ele>748.8</ele>
        <time>2022-08-27T16:48:48Z</time>
      </trkpt>
      <trkpt lat="42.3079030" lon="-8.2951170">
        <ele>748.0</ele>
        <time>2022-08-27T16:48:49Z</time>
      </trkpt>
      <trkpt lat="42.3079230" lon="-8.2952100">
        <ele>747.2</ele>
        <time>2022-08-27T16:48:50Z</time>
      </trkpt>
      <trkpt lat="42.3079570" lon="-8.2953130">
        <ele>746.3</ele>
        <time>2022-08-27T16:48:51Z</time>
      </trkpt>
      <trkpt lat="42.3080000" lon="-8.2954160">
        <ele>745.3</ele>
        <time>2022-08-27T16:48:52Z</time>
      </trkpt>
      <trkpt lat="42.3080480" lon="-8.2955180">
        <ele>744.4</ele>
        <time>2022-08-27T16:48:53Z</time>
      </trkpt>
      <trkpt lat="42.3080850" lon="-8.2956080">
        <ele>743.5</ele>
        <time>2022-08-27T16:48:54Z</time>
      </trkpt>
      <trkpt lat="42.3081080" lon="-8.2956990">
        <ele>742.7</ele>
        <time>2022-08-27T16:48:55Z</time>
      </trkpt>
      <trkpt lat="42.3081020" lon="-8.2958070">
        <ele>741.7</ele>
        <time>2022-08-27T16:48:56Z</time>
      </trkpt>
      <trkpt lat="42.3080750" lon="-8.2959200">
        <ele>740.5</ele>
        <time>2022-08-27T16:48:57Z</time>
      </trkpt>
      <trkpt lat="42.3080400" lon="-8.2960300">
        <ele>739.4</ele>
        <time>2022-08-27T16:48:58Z</time>
      </trkpt>
      <trkpt lat="42.3080020" lon="-8.2961390">
        <ele>738.1</ele>
        <time>2022-08-27T16:48:59Z</time>
      </trkpt>
      <trkpt lat="42.3079770" lon="-8.2962490">
        <ele>736.9</ele>
        <time>2022-08-27T16:49:00Z</time>
      </trkpt>
      <trkpt lat="42.3079600" lon="-8.2963520">
        <ele>735.9</ele>
        <time>2022-08-27T16:49:01Z</time>
      </trkpt>
      <trkpt lat="42.3079430" lon="-8.2964630">
        <ele>734.9</ele>
        <time>2022-08-27T16:49:02Z</time>
      </trkpt>
      <trkpt lat="42.3079370" lon="-8.2965690">
        <ele>734.1</ele>
        <time>2022-08-27T16:49:03Z</time>
      </trkpt>
      <trkpt lat="42.3079420" lon="-8.2966750">
        <ele>733.3</ele>
        <time>2022-08-27T16:49:04Z</time>
      </trkpt>
      <trkpt lat="42.3079440" lon="-8.2967830">
        <ele>732.5</ele>
        <time>2022-08-27T16:49:05Z</time>
      </trkpt>
      <trkpt lat="42.3079530" lon="-8.2968860">
        <ele>731.7</ele>
        <time>2022-08-27T16:49:06Z</time>
      </trkpt>
      <trkpt lat="42.3079790" lon="-8.2969760">
        <ele>730.8</ele>
        <time>2022-08-27T16:49:07Z</time>
      </trkpt>
      <trkpt lat="42.3080140" lon="-8.2970520">
        <ele>730.0</ele>
        <time>2022-08-27T16:49:08Z</time>
      </trkpt>
      <trkpt lat="42.3080630" lon="-8.2971030">
        <ele>729.1</ele>
        <time>2022-08-27T16:49:09Z</time>
      </trkpt>
      <trkpt lat="42.3081180" lon="-8.2971320">
        <ele>728.4</ele>
        <time>2022-08-27T16:49:10Z</time>
      </trkpt>
      <trkpt lat="42.3081730" lon="-8.2971590">
        <ele>727.6</ele>
        <time>2022-08-27T16:49:11Z</time>
      </trkpt>
      <trkpt lat="42.3082350" lon="-8.2971850">
        <ele>726.9</ele>
        <time>2022-08-27T16:49:12Z</time>
      </trkpt>
      <trkpt lat="42.3082950" lon="-8.2972020">
        <ele>726.3</ele>
        <time>2022-08-27T16:49:13Z</time>
      </trkpt>
      <trkpt lat="42.3083440" lon="-8.2972190">
        <ele>725.8</ele>
        <time>2022-08-27T16:49:14Z</time>
      </trkpt>
      <trkpt lat="42.3083780" lon="-8.2972470">
        <ele>725.4</ele>
        <time>2022-08-27T16:49:15Z</time>
      </trkpt>
      <trkpt lat="42.3083890" lon="-8.2972570">
        <ele>725.2</ele>
        <time>2022-08-27T16:49:16Z</time>
      </trkpt>
      <trkpt lat="42.3084090" lon="-8.2972830">
        <ele>724.9</ele>
        <time>2022-08-27T16:49:17Z</time>
      </trkpt>
      <trkpt lat="42.3084160" lon="-8.2972920">
        <ele>724.3</ele>
        <time>2022-08-27T16:49:18Z</time>
      </trkpt>
      <trkpt lat="42.3084300" lon="-8.2973140">
        <ele>724.3</ele>
        <time>2022-08-27T16:49:19Z</time>
      </trkpt>
      <trkpt lat="42.3084340" lon="-8.2973230">
        <ele>724.3</ele>
        <time>2022-08-27T16:49:20Z</time>
      </trkpt>
      <trkpt lat="42.3084380" lon="-8.2973390">
        <ele>724.3</ele>
        <time>2022-08-27T16:49:21Z</time>
      </trkpt>
      <trkpt lat="42.3084390" lon="-8.2973350">
        <ele>724.3</ele>
        <time>2022-08-27T16:49:22Z</time>
      </trkpt>
      <trkpt lat="42.3084390" lon="-8.2973300">
        <ele>724.3</ele>
        <time>2022-08-27T16:49:23Z</time>
      </trkpt>
      <trkpt lat="42.3084390" lon="-8.2973270">
        <ele>724.3</ele>
        <time>2022-08-27T16:49:24Z</time>
      </trkpt>
      <trkpt lat="42.3084400" lon="-8.2973270">
        <ele>724.3</ele>
        <time>2022-08-27T16:49:25Z</time>
      </trkpt>
      <trkpt lat="42.3084390" lon="-8.2973270">
        <ele>724.3</ele>
        <time>2022-08-27T16:49:26Z</time>
      </trkpt>
      <trkpt lat="42.3084390" lon="-8.2973280">
        <ele>724.3</ele>
        <time>2022-08-27T16:49:27Z</time>
      </trkpt>
      <trkpt lat="42.3084390" lon="-8.2973290">
        <ele>724.3</ele>
        <time>2022-08-27T16:49:28Z</time>
      </trkpt>
      <trkpt lat="42.3084390" lon="-8.2973300">
        <ele>724.3</ele>
        <time>2022-08-27T16:49:29Z</time>
      </trkpt>
      <trkpt lat="42.3084380" lon="-8.2973310">
        <ele>724.3</ele>
        <time>2022-08-27T16:49:30Z</time>
      </trkpt>
      <trkpt lat="42.3084380" lon="-8.2973310">
        <ele>724.3</ele>
        <time>2022-08-27T16:49:31Z</time>
      </trkpt>
      <trkpt lat="42.3084330" lon="-8.2973300">
        <ele>724.3</ele>
        <time>2022-08-27T16:49:32Z</time>
      </trkpt>
      <trkpt lat="42.3083740" lon="-8.2973370">
        <ele>724.2</ele>
        <time>2022-08-27T16:51:50Z</time>
      </trkpt>
      <trkpt lat="42.3083630" lon="-8.2973450">
        <ele>724.2</ele>
        <time>2022-08-27T16:51:51Z</time>
      </trkpt>
      <trkpt lat="42.3083590" lon="-8.2973460">
        <ele>724.2</ele>
        <time>2022-08-27T16:51:52Z</time>
      </trkpt>
      <trkpt lat="42.3083550" lon="-8.2973490">
        <ele>724.2</ele>
        <time>2022-08-27T16:51:53Z</time>
      </trkpt>
      <trkpt lat="42.3083540" lon="-8.2973510">
        <ele>724.2</ele>
        <time>2022-08-27T16:51:54Z</time>
      </trkpt>
      <trkpt lat="42.3083560" lon="-8.2973530">
        <ele>724.2</ele>
        <time>2022-08-27T16:51:55Z</time>
      </trkpt>
      <trkpt lat="42.3083580" lon="-8.2973540">
        <ele>724.2</ele>
        <time>2022-08-27T16:51:56Z</time>
      </trkpt>
      <trkpt lat="42.3083590" lon="-8.2973550">
        <ele>724.2</ele>
        <time>2022-08-27T16:51:57Z</time>
      </trkpt>
      <trkpt lat="42.3083580" lon="-8.2973550">
        <ele>724.2</ele>
        <time>2022-08-27T16:51:58Z</time>
      </trkpt>
      <trkpt lat="42.3083560" lon="-8.2973560">
        <ele>724.2</ele>
        <time>2022-08-27T16:51:59Z</time>
      </trkpt>
      <trkpt lat="42.3083550" lon="-8.2973570">
        <ele>724.2</ele>
        <time>2022-08-27T16:52:00Z</time>
      </trkpt>
      <trkpt lat="42.3083520" lon="-8.2973580">
        <ele>724.2</ele>
        <time>2022-08-27T16:52:01Z</time>
      </trkpt>
      <trkpt lat="42.3083480" lon="-8.2973600">
        <ele>724.2</ele>
        <time>2022-08-27T16:52:02Z</time>
      </trkpt>
      <trkpt lat="42.3083470" lon="-8.2973610">
        <ele>724.2</ele>
        <time>2022-08-27T16:52:03Z</time>
      </trkpt>
      <trkpt lat="42.3083460" lon="-8.2973610">
        <ele>724.2</ele>
        <time>2022-08-27T16:52:04Z</time>
      </trkpt>
      <trkpt lat="42.3083780" lon="-8.2974360">
        <ele>724.2</ele>
        <time>2022-08-27T16:53:25Z</time>
      </trkpt>
      <trkpt lat="42.3083670" lon="-8.2974540">
        <ele>724.2</ele>
        <time>2022-08-27T16:53:26Z</time>
      </trkpt>
      <trkpt lat="42.3083540" lon="-8.2974720">
        <ele>724.2</ele>
        <time>2022-08-27T16:53:27Z</time>
      </trkpt>
      <trkpt lat="42.3083350" lon="-8.2975030">
        <ele>724.2</ele>
        <time>2022-08-27T16:53:28Z</time>
      </trkpt>
      <trkpt lat="42.3083290" lon="-8.2975130">
        <ele>724.2</ele>
        <time>2022-08-27T16:53:29Z</time>
      </trkpt>
      <trkpt lat="42.3083010" lon="-8.2975480">
        <ele>724.1</ele>
        <time>2022-08-27T16:53:30Z</time>
      </trkpt>
      <trkpt lat="42.3082920" lon="-8.2975580">
        <ele>724.0</ele>
        <time>2022-08-27T16:53:31Z</time>
      </trkpt>
      <trkpt lat="42.3082620" lon="-8.2975890">
        <ele>723.7</ele>
        <time>2022-08-27T16:53:32Z</time>
      </trkpt>
      <trkpt lat="42.3082520" lon="-8.2975990">
        <ele>723.6</ele>
        <time>2022-08-27T16:53:33Z</time>
      </trkpt>
      <trkpt lat="42.3082200" lon="-8.2976300">
        <ele>723.3</ele>
        <time>2022-08-27T16:53:34Z</time>
      </trkpt>
      <trkpt lat="42.3082100" lon="-8.2976390">
        <ele>723.2</ele>
        <time>2022-08-27T16:53:35Z</time>
      </trkpt>
      <trkpt lat="42.3081800" lon="-8.2976650">
        <ele>722.9</ele>
        <time>2022-08-27T16:53:36Z</time>
      </trkpt>
      <trkpt lat="42.3081490" lon="-8.2976890">
        <ele>722.6</ele>
        <time>2022-08-27T16:53:37Z</time>
      </trkpt>
      <trkpt lat="42.3081060" lon="-8.2977180">
        <ele>722.1</ele>
        <time>2022-08-27T16:53:38Z</time>
      </trkpt>
      <trkpt lat="42.3080610" lon="-8.2977520">
        <ele>721.6</ele>
        <time>2022-08-27T16:53:39Z</time>
      </trkpt>
      <trkpt lat="42.3080140" lon="-8.2977860">
        <ele>721.1</ele>
        <time>2022-08-27T16:53:40Z</time>
      </trkpt>
      <trkpt lat="42.3079570" lon="-8.2978280">
        <ele>720.5</ele>
        <time>2022-08-27T16:53:41Z</time>
      </trkpt>
      <trkpt lat="42.3078940" lon="-8.2978650">
        <ele>719.8</ele>
        <time>2022-08-27T16:53:42Z</time>
      </trkpt>
      <trkpt lat="42.3078350" lon="-8.2979050">
        <ele>719.2</ele>
        <time>2022-08-27T16:53:43Z</time>
      </trkpt>
      <trkpt lat="42.3077720" lon="-8.2979400">
        <ele>718.6</ele>
        <time>2022-08-27T16:53:44Z</time>
      </trkpt>
      <trkpt lat="42.3077110" lon="-8.2979730">
        <ele>718.0</ele>
        <time>2022-08-27T16:53:45Z</time>
      </trkpt>
      <trkpt lat="42.3076450" lon="-8.2980180">
        <ele>717.4</ele>
        <time>2022-08-27T16:53:46Z</time>
      </trkpt>
      <trkpt lat="42.3075740" lon="-8.2980730">
        <ele>716.7</ele>
        <time>2022-08-27T16:53:47Z</time>
      </trkpt>
      <trkpt lat="42.3075040" lon="-8.2981350">
        <ele>716.1</ele>
        <time>2022-08-27T16:53:48Z</time>
      </trkpt>
      <trkpt lat="42.3074320" lon="-8.2981970">
        <ele>715.6</ele>
        <time>2022-08-27T16:53:49Z</time>
      </trkpt>
      <trkpt lat="42.3073640" lon="-8.2982670">
        <ele>715.1</ele>
        <time>2022-08-27T16:53:50Z</time>
      </trkpt>
      <trkpt lat="42.3073030" lon="-8.2983470">
        <ele>714.6</ele>
        <time>2022-08-27T16:53:51Z</time>
      </trkpt>
      <trkpt lat="42.3072420" lon="-8.2984280">
        <ele>714.1</ele>
        <time>2022-08-27T16:53:52Z</time>
      </trkpt>
      <trkpt lat="42.3071930" lon="-8.2985230">
        <ele>713.6</ele>
        <time>2022-08-27T16:53:53Z</time>
      </trkpt>
      <trkpt lat="42.3071580" lon="-8.2986300">
        <ele>713.1</ele>
        <time>2022-08-27T16:53:54Z</time>
      </trkpt>
      <trkpt lat="42.3071350" lon="-8.2987420">
        <ele>712.8</ele>
        <time>2022-08-27T16:53:55Z</time>
      </trkpt>
      <trkpt lat="42.3071230" lon="-8.2988550">
        <ele>712.4</ele>
        <time>2022-08-27T16:53:56Z</time>
      </trkpt>
      <trkpt lat="42.3071160" lon="-8.2989680">
        <ele>712.0</ele>
        <time>2022-08-27T16:53:57Z</time>
      </trkpt>
      <trkpt lat="42.3071120" lon="-8.2990810">
        <ele>711.6</ele>
        <time>2022-08-27T16:53:58Z</time>
      </trkpt>
      <trkpt lat="42.3071080" lon="-8.2991940">
        <ele>711.1</ele>
        <time>2022-08-27T16:53:59Z</time>
      </trkpt>
      <trkpt lat="42.3071030" lon="-8.2993060">
        <ele>710.6</ele>
        <time>2022-08-27T16:54:00Z</time>
      </trkpt>
      <trkpt lat="42.3070950" lon="-8.2994180">
        <ele>710.0</ele>
        <time>2022-08-27T16:54:01Z</time>
      </trkpt>
      <trkpt lat="42.3070750" lon="-8.2995300">
        <ele>709.4</ele>
        <time>2022-08-27T16:54:02Z</time>
      </trkpt>
      <trkpt lat="42.3070500" lon="-8.2996470">
        <ele>708.7</ele>
        <time>2022-08-27T16:54:03Z</time>
      </trkpt>
      <trkpt lat="42.3070140" lon="-8.2997610">
        <ele>708.0</ele>
        <time>2022-08-27T16:54:04Z</time>
      </trkpt>
      <trkpt lat="42.3069620" lon="-8.2998690">
        <ele>707.2</ele>
        <time>2022-08-27T16:54:05Z</time>
      </trkpt>
      <trkpt lat="42.3069010" lon="-8.2999690">
        <ele>706.4</ele>
        <time>2022-08-27T16:54:06Z</time>
      </trkpt>
      <trkpt lat="42.3068300" lon="-8.3000510">
        <ele>705.7</ele>
        <time>2022-08-27T16:54:07Z</time>
      </trkpt>
      <trkpt lat="42.3067500" lon="-8.3001310">
        <ele>705.0</ele>
        <time>2022-08-27T16:54:08Z</time>
      </trkpt>
      <trkpt lat="42.3066660" lon="-8.3002070">
        <ele>704.5</ele>
        <time>2022-08-27T16:54:09Z</time>
      </trkpt>
      <trkpt lat="42.3065810" lon="-8.3002820">
        <ele>704.0</ele>
        <time>2022-08-27T16:54:10Z</time>
      </trkpt>
      <trkpt lat="42.3064980" lon="-8.3003540">
        <ele>703.6</ele>
        <time>2022-08-27T16:54:11Z</time>
      </trkpt>
      <trkpt lat="42.3064170" lon="-8.3004240">
        <ele>703.3</ele>
        <time>2022-08-27T16:54:12Z</time>
      </trkpt>
      <trkpt lat="42.3063390" lon="-8.3004930">
        <ele>703.1</ele>
        <time>2022-08-27T16:54:13Z</time>
      </trkpt>
      <trkpt lat="42.3062620" lon="-8.3005580">
        <ele>702.8</ele>
        <time>2022-08-27T16:54:14Z</time>
      </trkpt>
      <trkpt lat="42.3061860" lon="-8.3006200">
        <ele>702.6</ele>
        <time>2022-08-27T16:54:15Z</time>
      </trkpt>
      <trkpt lat="42.3061080" lon="-8.3006810">
        <ele>702.4</ele>
        <time>2022-08-27T16:54:16Z</time>
      </trkpt>
      <trkpt lat="42.3060300" lon="-8.3007320">
        <ele>702.0</ele>
        <time>2022-08-27T16:54:17Z</time>
      </trkpt>
      <trkpt lat="42.3059530" lon="-8.3007700">
        <ele>701.7</ele>
        <time>2022-08-27T16:54:18Z</time>
      </trkpt>
      <trkpt lat="42.3058710" lon="-8.3008050">
        <ele>701.2</ele>
        <time>2022-08-27T16:54:19Z</time>
      </trkpt>
      <trkpt lat="42.3057890" lon="-8.3008360">
        <ele>700.8</ele>
        <time>2022-08-27T16:54:20Z</time>
      </trkpt>
      <trkpt lat="42.3057040" lon="-8.3008670">
        <ele>700.3</ele>
        <time>2022-08-27T16:54:21Z</time>
      </trkpt>
      <trkpt lat="42.3056140" lon="-8.3008940">
        <ele>699.7</ele>
        <time>2022-08-27T16:54:22Z</time>
      </trkpt>
      <trkpt lat="42.3055210" lon="-8.3009220">
        <ele>699.3</ele>
        <time>2022-08-27T16:54:23Z</time>
      </trkpt>
      <trkpt lat="42.3054300" lon="-8.3009510">
        <ele>698.8</ele>
        <time>2022-08-27T16:54:24Z</time>
      </trkpt>
      <trkpt lat="42.3053380" lon="-8.3009790">
        <ele>698.4</ele>
        <time>2022-08-27T16:54:25Z</time>
      </trkpt>
      <trkpt lat="42.3052450" lon="-8.3010070">
        <ele>698.1</ele>
        <time>2022-08-27T16:54:26Z</time>
      </trkpt>
      <trkpt lat="42.3051500" lon="-8.3010320">
        <ele>697.8</ele>
        <time>2022-08-27T16:54:27Z</time>
      </trkpt>
      <trkpt lat="42.3050610" lon="-8.3010580">
        <ele>697.6</ele>
        <time>2022-08-27T16:54:28Z</time>
      </trkpt>
      <trkpt lat="42.3049700" lon="-8.3010880">
        <ele>697.3</ele>
        <time>2022-08-27T16:54:29Z</time>
      </trkpt>
      <trkpt lat="42.3048820" lon="-8.3011160">
        <ele>697.0</ele>
        <time>2022-08-27T16:54:30Z</time>
      </trkpt>
      <trkpt lat="42.3047980" lon="-8.3011410">
        <ele>696.7</ele>
        <time>2022-08-27T16:54:31Z</time>
      </trkpt>
      <trkpt lat="42.3047130" lon="-8.3011670">
        <ele>696.5</ele>
        <time>2022-08-27T16:54:32Z</time>
      </trkpt>
      <trkpt lat="42.3046300" lon="-8.3011900">
        <ele>696.2</ele>
        <time>2022-08-27T16:54:33Z</time>
      </trkpt>
      <trkpt lat="42.3045470" lon="-8.3012140">
        <ele>695.9</ele>
        <time>2022-08-27T16:54:34Z</time>
      </trkpt>
      <trkpt lat="42.3044670" lon="-8.3012400">
        <ele>695.5</ele>
        <time>2022-08-27T16:54:35Z</time>
      </trkpt>
      <trkpt lat="42.3043840" lon="-8.3012620">
        <ele>695.2</ele>
        <time>2022-08-27T16:54:36Z</time>
      </trkpt>
      <trkpt lat="42.3043000" lon="-8.3012860">
        <ele>694.8</ele>
        <time>2022-08-27T16:54:37Z</time>
      </trkpt>
      <trkpt lat="42.3042150" lon="-8.3013060">
        <ele>694.5</ele>
        <time>2022-08-27T16:54:38Z</time>
      </trkpt>
      <trkpt lat="42.3041280" lon="-8.3013250">
        <ele>694.1</ele>
        <time>2022-08-27T16:54:39Z</time>
      </trkpt>
      <trkpt lat="42.3040410" lon="-8.3013390">
        <ele>693.7</ele>
        <time>2022-08-27T16:54:40Z</time>
      </trkpt>
      <trkpt lat="42.3039560" lon="-8.3013510">
        <ele>693.3</ele>
        <time>2022-08-27T16:54:41Z</time>
      </trkpt>
      <trkpt lat="42.3038670" lon="-8.3013670">
        <ele>692.9</ele>
        <time>2022-08-27T16:54:42Z</time>
      </trkpt>
      <trkpt lat="42.3037790" lon="-8.3013840">
        <ele>692.5</ele>
        <time>2022-08-27T16:54:43Z</time>
      </trkpt>
      <trkpt lat="42.3036880" lon="-8.3014020">
        <ele>692.0</ele>
        <time>2022-08-27T16:54:44Z</time>
      </trkpt>
      <trkpt lat="42.3036000" lon="-8.3014220">
        <ele>691.6</ele>
        <time>2022-08-27T16:54:45Z</time>
      </trkpt>
      <trkpt lat="42.3035100" lon="-8.3014380">
        <ele>691.1</ele>
        <time>2022-08-27T16:54:46Z</time>
      </trkpt>
      <trkpt lat="42.3034210" lon="-8.3014530">
        <ele>690.7</ele>
        <time>2022-08-27T16:54:47Z</time>
      </trkpt>
      <trkpt lat="42.3033290" lon="-8.3014670">
        <ele>690.2</ele>
        <time>2022-08-27T16:54:48Z</time>
      </trkpt>
      <trkpt lat="42.3032350" lon="-8.3014850">
        <ele>689.7</ele>
        <time>2022-08-27T16:54:49Z</time>
      </trkpt>
      <trkpt lat="42.3031420" lon="-8.3015060">
        <ele>689.2</ele>
        <time>2022-08-27T16:54:50Z</time>
      </trkpt>
      <trkpt lat="42.3030470" lon="-8.3015230">
        <ele>688.6</ele>
        <time>2022-08-27T16:54:51Z</time>
      </trkpt>
      <trkpt lat="42.3029520" lon="-8.3015380">
        <ele>688.1</ele>
        <time>2022-08-27T16:54:52Z</time>
      </trkpt>
      <trkpt lat="42.3028560" lon="-8.3015520">
        <ele>687.5</ele>
        <time>2022-08-27T16:54:53Z</time>
      </trkpt>
      <trkpt lat="42.3027540" lon="-8.3015660">
        <ele>687.0</ele>
        <time>2022-08-27T16:54:54Z</time>
      </trkpt>
      <trkpt lat="42.3026580" lon="-8.3015820">
        <ele>686.4</ele>
        <time>2022-08-27T16:54:55Z</time>
      </trkpt>
      <trkpt lat="42.3025570" lon="-8.3015990">
        <ele>685.8</ele>
        <time>2022-08-27T16:54:56Z</time>
      </trkpt>
      <trkpt lat="42.3024600" lon="-8.3016150">
        <ele>685.2</ele>
        <time>2022-08-27T16:54:57Z</time>
      </trkpt>
      <trkpt lat="42.3023670" lon="-8.3016300">
        <ele>684.6</ele>
        <time>2022-08-27T16:54:58Z</time>
      </trkpt>
      <trkpt lat="42.3022810" lon="-8.3016440">
        <ele>684.1</ele>
        <time>2022-08-27T16:54:59Z</time>
      </trkpt>
      <trkpt lat="42.3022040" lon="-8.3016580">
        <ele>683.6</ele>
        <time>2022-08-27T16:55:00Z</time>
      </trkpt>
      <trkpt lat="42.3021240" lon="-8.3016680">
        <ele>683.1</ele>
        <time>2022-08-27T16:55:01Z</time>
      </trkpt>
      <trkpt lat="42.3020470" lon="-8.3016770">
        <ele>682.6</ele>
        <time>2022-08-27T16:55:02Z</time>
      </trkpt>
      <trkpt lat="42.3019650" lon="-8.3016880">
        <ele>682.2</ele>
        <time>2022-08-27T16:55:03Z</time>
      </trkpt>
      <trkpt lat="42.3018780" lon="-8.3016950">
        <ele>681.8</ele>
        <time>2022-08-27T16:55:04Z</time>
      </trkpt>
      <trkpt lat="42.3017940" lon="-8.3017060">
        <ele>681.4</ele>
        <time>2022-08-27T16:55:05Z</time>
      </trkpt>
      <trkpt lat="42.3017090" lon="-8.3017140">
        <ele>681.1</ele>
        <time>2022-08-27T16:55:06Z</time>
      </trkpt>
      <trkpt lat="42.3016250" lon="-8.3017200">
        <ele>680.7</ele>
        <time>2022-08-27T16:55:07Z</time>
      </trkpt>
      <trkpt lat="42.3015430" lon="-8.3017280">
        <ele>680.5</ele>
        <time>2022-08-27T16:55:08Z</time>
      </trkpt>
      <trkpt lat="42.3014590" lon="-8.3017390">
        <ele>680.5</ele>
        <time>2022-08-27T16:55:09Z</time>
      </trkpt>
      <trkpt lat="42.3013770" lon="-8.3017560">
        <ele>680.4</ele>
        <time>2022-08-27T16:55:10Z</time>
      </trkpt>
      <trkpt lat="42.3012970" lon="-8.3017710">
        <ele>680.3</ele>
        <time>2022-08-27T16:55:11Z</time>
      </trkpt>
      <trkpt lat="42.3012150" lon="-8.3017860">
        <ele>680.3</ele>
        <time>2022-08-27T16:55:12Z</time>
      </trkpt>
      <trkpt lat="42.3011380" lon="-8.3017990">
        <ele>680.3</ele>
        <time>2022-08-27T16:55:13Z</time>
      </trkpt>
      <trkpt lat="42.3010610" lon="-8.3018110">
        <ele>680.2</ele>
        <time>2022-08-27T16:55:14Z</time>
      </trkpt>
      <trkpt lat="42.3009840" lon="-8.3018270">
        <ele>680.0</ele>
        <time>2022-08-27T16:55:15Z</time>
      </trkpt>
      <trkpt lat="42.3009100" lon="-8.3018400">
        <ele>679.9</ele>
        <time>2022-08-27T16:55:16Z</time>
      </trkpt>
      <trkpt lat="42.3008430" lon="-8.3018490">
        <ele>679.8</ele>
        <time>2022-08-27T16:55:17Z</time>
      </trkpt>
      <trkpt lat="42.3007780" lon="-8.3018600">
        <ele>679.8</ele>
        <time>2022-08-27T16:55:18Z</time>
      </trkpt>
      <trkpt lat="42.3007100" lon="-8.3018730">
        <ele>679.7</ele>
        <time>2022-08-27T16:55:19Z</time>
      </trkpt>
      <trkpt lat="42.3006430" lon="-8.3018850">
        <ele>679.6</ele>
        <time>2022-08-27T16:55:20Z</time>
      </trkpt>
      <trkpt lat="42.3005780" lon="-8.3018940">
        <ele>679.5</ele>
        <time>2022-08-27T16:55:21Z</time>
      </trkpt>
      <trkpt lat="42.3005160" lon="-8.3019040">
        <ele>679.4</ele>
        <time>2022-08-27T16:55:22Z</time>
      </trkpt>
      <trkpt lat="42.3004540" lon="-8.3019140">
        <ele>679.1</ele>
        <time>2022-08-27T16:55:23Z</time>
      </trkpt>
      <trkpt lat="42.3003960" lon="-8.3019250">
        <ele>678.8</ele>
        <time>2022-08-27T16:55:24Z</time>
      </trkpt>
      <trkpt lat="42.3003390" lon="-8.3019390">
        <ele>678.4</ele>
        <time>2022-08-27T16:55:25Z</time>
      </trkpt>
      <trkpt lat="42.3002690" lon="-8.3019510">
        <ele>677.8</ele>
        <time>2022-08-27T16:55:26Z</time>
      </trkpt>
      <trkpt lat="42.3001980" lon="-8.3019590">
        <ele>677.2</ele>
        <time>2022-08-27T16:55:27Z</time>
      </trkpt>
      <trkpt lat="42.3001210" lon="-8.3019710">
        <ele>676.4</ele>
        <time>2022-08-27T16:55:28Z</time>
      </trkpt>
      <trkpt lat="42.3000410" lon="-8.3019860">
        <ele>675.6</ele>
        <time>2022-08-27T16:55:29Z</time>
      </trkpt>
      <trkpt lat="42.2999620" lon="-8.3020190">
        <ele>674.7</ele>
        <time>2022-08-27T16:55:30Z</time>
      </trkpt>
      <trkpt lat="42.2998820" lon="-8.3020620">
        <ele>673.8</ele>
        <time>2022-08-27T16:55:31Z</time>
      </trkpt>
      <trkpt lat="42.2997950" lon="-8.3021080">
        <ele>672.9</ele>
        <time>2022-08-27T16:55:32Z</time>
      </trkpt>
      <trkpt lat="42.2997010" lon="-8.3021560">
        <ele>672.0</ele>
        <time>2022-08-27T16:55:33Z</time>
      </trkpt>
      <trkpt lat="42.2996060" lon="-8.3022040">
        <ele>671.1</ele>
        <time>2022-08-27T16:55:34Z</time>
      </trkpt>
      <trkpt lat="42.2995210" lon="-8.3022510">
        <ele>670.3</ele>
        <time>2022-08-27T16:55:35Z</time>
      </trkpt>
      <trkpt lat="42.2994300" lon="-8.3022990">
        <ele>669.4</ele>
        <time>2022-08-27T16:55:36Z</time>
      </trkpt>
      <trkpt lat="42.2993410" lon="-8.3023430">
        <ele>668.7</ele>
        <time>2022-08-27T16:55:37Z</time>
      </trkpt>
      <trkpt lat="42.2992490" lon="-8.3023870">
        <ele>667.8</ele>
        <time>2022-08-27T16:55:38Z</time>
      </trkpt>
      <trkpt lat="42.2991550" lon="-8.3024430">
        <ele>667.0</ele>
        <time>2022-08-27T16:55:39Z</time>
      </trkpt>
      <trkpt lat="42.2990620" lon="-8.3024960">
        <ele>666.0</ele>
        <time>2022-08-27T16:55:40Z</time>
      </trkpt>
      <trkpt lat="42.2989640" lon="-8.3025480">
        <ele>665.0</ele>
        <time>2022-08-27T16:55:41Z</time>
      </trkpt>
      <trkpt lat="42.2988660" lon="-8.3026000">
        <ele>664.0</ele>
        <time>2022-08-27T16:55:42Z</time>
      </trkpt>
      <trkpt lat="42.2987640" lon="-8.3026530">
        <ele>662.8</ele>
        <time>2022-08-27T16:55:43Z</time>
      </trkpt>
      <trkpt lat="42.2986650" lon="-8.3027150">
        <ele>661.7</ele>
        <time>2022-08-27T16:55:44Z</time>
      </trkpt>
      <trkpt lat="42.2985680" lon="-8.3027800">
        <ele>660.4</ele>
        <time>2022-08-27T16:55:45Z</time>
      </trkpt>
      <trkpt lat="42.2984710" lon="-8.3028430">
        <ele>659.0</ele>
        <time>2022-08-27T16:55:46Z</time>
      </trkpt>
      <trkpt lat="42.2983850" lon="-8.3029040">
        <ele>657.5</ele>
        <time>2022-08-27T16:55:47Z</time>
      </trkpt>
      <trkpt lat="42.2983030" lon="-8.3029710">
        <ele>656.1</ele>
        <time>2022-08-27T16:55:48Z</time>
      </trkpt>
      <trkpt lat="42.2982210" lon="-8.3030380">
        <ele>654.7</ele>
        <time>2022-08-27T16:55:49Z</time>
      </trkpt>
      <trkpt lat="42.2981440" lon="-8.3031160">
        <ele>653.3</ele>
        <time>2022-08-27T16:55:50Z</time>
      </trkpt>
      <trkpt lat="42.2980520" lon="-8.3032000">
        <ele>651.7</ele>
        <time>2022-08-27T16:55:51Z</time>
      </trkpt>
      <trkpt lat="42.2979590" lon="-8.3032910">
        <ele>650.1</ele>
        <time>2022-08-27T16:55:52Z</time>
      </trkpt>
      <trkpt lat="42.2978610" lon="-8.3033800">
        <ele>648.5</ele>
        <time>2022-08-27T16:55:53Z</time>
      </trkpt>
      <trkpt lat="42.2977630" lon="-8.3034730">
        <ele>647.8</ele>
        <time>2022-08-27T16:55:54Z</time>
      </trkpt>
      <trkpt lat="42.2976630" lon="-8.3035590">
        <ele>647.3</ele>
        <time>2022-08-27T16:55:55Z</time>
      </trkpt>
      <trkpt lat="42.2975600" lon="-8.3036430">
        <ele>646.8</ele>
        <time>2022-08-27T16:55:56Z</time>
      </trkpt>
      <trkpt lat="42.2974590" lon="-8.3037270">
        <ele>646.4</ele>
        <time>2022-08-27T16:55:57Z</time>
      </trkpt>
      <trkpt lat="42.2973580" lon="-8.3038110">
        <ele>646.1</ele>
        <time>2022-08-27T16:55:58Z</time>
      </trkpt>
      <trkpt lat="42.2972580" lon="-8.3038940">
        <ele>645.9</ele>
        <time>2022-08-27T16:55:59Z</time>
      </trkpt>
      <trkpt lat="42.2971580" lon="-8.3039730">
        <ele>645.8</ele>
        <time>2022-08-27T16:56:00Z</time>
      </trkpt>
      <trkpt lat="42.2970680" lon="-8.3040470">
        <ele>645.8</ele>
        <time>2022-08-27T16:56:01Z</time>
      </trkpt>
      <trkpt lat="42.2969880" lon="-8.3041110">
        <ele>645.8</ele>
        <time>2022-08-27T16:56:02Z</time>
      </trkpt>
      <trkpt lat="42.2969060" lon="-8.3041810">
        <ele>645.8</ele>
        <time>2022-08-27T16:56:03Z</time>
      </trkpt>
      <trkpt lat="42.2968240" lon="-8.3042450">
        <ele>645.7</ele>
        <time>2022-08-27T16:56:04Z</time>
      </trkpt>
      <trkpt lat="42.2967430" lon="-8.3043130">
        <ele>645.7</ele>
        <time>2022-08-27T16:56:05Z</time>
      </trkpt>
      <trkpt lat="42.2966640" lon="-8.3043880">
        <ele>645.7</ele>
        <time>2022-08-27T16:56:06Z</time>
      </trkpt>
      <trkpt lat="42.2965820" lon="-8.3044560">
        <ele>645.7</ele>
        <time>2022-08-27T16:56:07Z</time>
      </trkpt>
      <trkpt lat="42.2964970" lon="-8.3045230">
        <ele>645.8</ele>
        <time>2022-08-27T16:56:08Z</time>
      </trkpt>
      <trkpt lat="42.2964260" lon="-8.3045820">
        <ele>645.8</ele>
        <time>2022-08-27T16:56:09Z</time>
      </trkpt>
      <trkpt lat="42.2963620" lon="-8.3046260">
        <ele>645.7</ele>
        <time>2022-08-27T16:56:10Z</time>
      </trkpt>
      <trkpt lat="42.2963020" lon="-8.3046540">
        <ele>645.6</ele>
        <time>2022-08-27T16:56:11Z</time>
      </trkpt>
      <trkpt lat="42.2962470" lon="-8.3046710">
        <ele>645.6</ele>
        <time>2022-08-27T16:56:12Z</time>
      </trkpt>
      <trkpt lat="42.2962040" lon="-8.3046820">
        <ele>645.6</ele>
        <time>2022-08-27T16:56:13Z</time>
      </trkpt>
      <trkpt lat="42.2961950" lon="-8.3046750">
        <ele>645.6</ele>
        <time>2022-08-27T16:56:14Z</time>
      </trkpt>
      <trkpt lat="42.2961730" lon="-8.3046760">
        <ele>645.6</ele>
        <time>2022-08-27T16:56:15Z</time>
      </trkpt>
      <trkpt lat="42.2961420" lon="-8.3046790">
        <ele>645.6</ele>
        <time>2022-08-27T16:56:16Z</time>
      </trkpt>
      <trkpt lat="42.2961330" lon="-8.3046790">
        <ele>645.6</ele>
        <time>2022-08-27T16:56:17Z</time>
      </trkpt>
      <trkpt lat="42.2961210" lon="-8.3046740">
        <ele>645.6</ele>
        <time>2022-08-27T16:56:18Z</time>
      </trkpt>
      <trkpt lat="42.2961090" lon="-8.3046720">
        <ele>645.6</ele>
        <time>2022-08-27T16:56:19Z</time>
      </trkpt>
      <trkpt lat="42.2961020" lon="-8.3046640">
        <ele>645.7</ele>
        <time>2022-08-27T16:56:20Z</time>
      </trkpt>
      <trkpt lat="42.2960950" lon="-8.3046580">
        <ele>645.7</ele>
        <time>2022-08-27T16:56:21Z</time>
      </trkpt>
      <trkpt lat="42.2960950" lon="-8.3046410">
        <ele>645.7</ele>
        <time>2022-08-27T16:56:22Z</time>
      </trkpt>
      <trkpt lat="42.2961040" lon="-8.3046260">
        <ele>645.7</ele>
        <time>2022-08-27T16:56:23Z</time>
      </trkpt>
      <trkpt lat="42.2961170" lon="-8.3046220">
        <ele>645.7</ele>
        <time>2022-08-27T16:56:24Z</time>
      </trkpt>
      <trkpt lat="42.2961310" lon="-8.3046230">
        <ele>645.7</ele>
        <time>2022-08-27T16:56:25Z</time>
      </trkpt>
      <trkpt lat="42.2961390" lon="-8.3046250">
        <ele>645.7</ele>
        <time>2022-08-27T16:56:26Z</time>
      </trkpt>
      <trkpt lat="42.2961430" lon="-8.3046280">
        <ele>645.7</ele>
        <time>2022-08-27T16:56:27Z</time>
      </trkpt>
      <trkpt lat="42.2961500" lon="-8.3046340">
        <ele>645.7</ele>
        <time>2022-08-27T16:56:28Z</time>
      </trkpt>
      <trkpt lat="42.2961590" lon="-8.3046420">
        <ele>645.7</ele>
        <time>2022-08-27T16:56:29Z</time>
      </trkpt>
      <trkpt lat="42.2961600" lon="-8.3046530">
        <ele>645.8</ele>
        <time>2022-08-27T16:56:30Z</time>
      </trkpt>
      <trkpt lat="42.2961600" lon="-8.3046600">
        <ele>645.8</ele>
        <time>2022-08-27T16:56:31Z</time>
      </trkpt>
      <trkpt lat="42.2961590" lon="-8.3046700">
        <ele>645.8</ele>
        <time>2022-08-27T16:56:32Z</time>
      </trkpt>
      <trkpt lat="42.2961530" lon="-8.3046750">
        <ele>645.8</ele>
        <time>2022-08-27T16:56:33Z</time>
      </trkpt>
      <trkpt lat="42.2961440" lon="-8.3046830">
        <ele>645.8</ele>
        <time>2022-08-27T16:56:34Z</time>
      </trkpt>
      <trkpt lat="42.2961160" lon="-8.3046740">
        <ele>645.8</ele>
        <time>2022-08-27T16:56:35Z</time>
      </trkpt>
      <trkpt lat="42.2960830" lon="-8.3046670">
        <ele>645.9</ele>
        <time>2022-08-27T16:56:36Z</time>
      </trkpt>
      <trkpt lat="42.2960520" lon="-8.3046550">
        <ele>645.9</ele>
        <time>2022-08-27T16:56:37Z</time>
      </trkpt>
      <trkpt lat="42.2960460" lon="-8.3046510">
        <ele>645.9</ele>
        <time>2022-08-27T16:56:38Z</time>
      </trkpt>
      <trkpt lat="42.2960380" lon="-8.3046360">
        <ele>645.9</ele>
        <time>2022-08-27T16:56:39Z</time>
      </trkpt>
      <trkpt lat="42.2960450" lon="-8.3046200">
        <ele>645.8</ele>
        <time>2022-08-27T16:56:40Z</time>
      </trkpt>
      <trkpt lat="42.2960590" lon="-8.3046150">
        <ele>645.8</ele>
        <time>2022-08-27T16:56:41Z</time>
      </trkpt>
      <trkpt lat="42.2960780" lon="-8.3046160">
        <ele>645.8</ele>
        <time>2022-08-27T16:56:42Z</time>
      </trkpt>
      <trkpt lat="42.2960940" lon="-8.3046240">
        <ele>645.7</ele>
        <time>2022-08-27T16:56:43Z</time>
      </trkpt>
      <trkpt lat="42.2961230" lon="-8.3046370">
        <ele>645.7</ele>
        <time>2022-08-27T16:56:44Z</time>
      </trkpt>
      <trkpt lat="42.2961320" lon="-8.3046400">
        <ele>645.7</ele>
        <time>2022-08-27T16:56:45Z</time>
      </trkpt>
      <trkpt lat="42.2961470" lon="-8.3046440">
        <ele>645.6</ele>
        <time>2022-08-27T16:56:46Z</time>
      </trkpt>
      <trkpt lat="42.2961660" lon="-8.3046480">
        <ele>645.6</ele>
        <time>2022-08-27T16:56:47Z</time>
      </trkpt>
      <trkpt lat="42.2961950" lon="-8.3046480">
        <ele>645.6</ele>
        <time>2022-08-27T16:56:48Z</time>
      </trkpt>
      <trkpt lat="42.2962050" lon="-8.3046460">
        <ele>645.6</ele>
        <time>2022-08-27T16:56:49Z</time>
      </trkpt>
      <trkpt lat="42.2962240" lon="-8.3046430">
        <ele>645.6</ele>
        <time>2022-08-27T16:56:50Z</time>
      </trkpt>
      <trkpt lat="42.2962400" lon="-8.3046390">
        <ele>645.6</ele>
        <time>2022-08-27T16:56:51Z</time>
      </trkpt>
      <trkpt lat="42.2962580" lon="-8.3046430">
        <ele>645.6</ele>
        <time>2022-08-27T16:56:52Z</time>
      </trkpt>
      <trkpt lat="42.2962710" lon="-8.3046460">
        <ele>645.5</ele>
        <time>2022-08-27T16:56:53Z</time>
      </trkpt>
      <trkpt lat="42.2962920" lon="-8.3046710">
        <ele>645.1</ele>
        <time>2022-08-27T16:56:54Z</time>
      </trkpt>
      <trkpt lat="42.2962980" lon="-8.3046820">
        <ele>645.0</ele>
        <time>2022-08-27T16:56:55Z</time>
      </trkpt>
      <trkpt lat="42.2963030" lon="-8.3047230">
        <ele>644.5</ele>
        <time>2022-08-27T16:56:56Z</time>
      </trkpt>
      <trkpt lat="42.2963030" lon="-8.3047400">
        <ele>644.4</ele>
        <time>2022-08-27T16:56:57Z</time>
      </trkpt>
      <trkpt lat="42.2962940" lon="-8.3047790">
        <ele>644.0</ele>
        <time>2022-08-27T16:56:58Z</time>
      </trkpt>
      <trkpt lat="42.2962890" lon="-8.3047950">
        <ele>643.8</ele>
        <time>2022-08-27T16:56:59Z</time>
      </trkpt>
      <trkpt lat="42.2962720" lon="-8.3048360">
        <ele>643.4</ele>
        <time>2022-08-27T16:57:00Z</time>
      </trkpt>
      <trkpt lat="42.2962480" lon="-8.3048750">
        <ele>643.1</ele>
        <time>2022-08-27T16:57:01Z</time>
      </trkpt>
      <trkpt lat="42.2962220" lon="-8.3049070">
        <ele>642.9</ele>
        <time>2022-08-27T16:57:02Z</time>
      </trkpt>
      <trkpt lat="42.2961870" lon="-8.3049380">
        <ele>642.7</ele>
        <time>2022-08-27T16:57:03Z</time>
      </trkpt>
      <trkpt lat="42.2961440" lon="-8.3049640">
        <ele>642.3</ele>
        <time>2022-08-27T16:57:04Z</time>
      </trkpt>
      <trkpt lat="42.2960990" lon="-8.3049840">
        <ele>642.0</ele>
        <time>2022-08-27T16:57:05Z</time>
      </trkpt>
      <trkpt lat="42.2960510" lon="-8.3050170">
        <ele>641.6</ele>
        <time>2022-08-27T16:57:06Z</time>
      </trkpt>
      <trkpt lat="42.2960040" lon="-8.3050490">
        <ele>641.2</ele>
        <time>2022-08-27T16:57:07Z</time>
      </trkpt>
      <trkpt lat="42.2959530" lon="-8.3050690">
        <ele>640.8</ele>
        <time>2022-08-27T16:57:08Z</time>
      </trkpt>
      <trkpt lat="42.2959000" lon="-8.3050870">
        <ele>640.5</ele>
        <time>2022-08-27T16:57:09Z</time>
      </trkpt>
      <trkpt lat="42.2958470" lon="-8.3051090">
        <ele>640.1</ele>
        <time>2022-08-27T16:57:10Z</time>
      </trkpt>
      <trkpt lat="42.2957940" lon="-8.3051370">
        <ele>639.8</ele>
        <time>2022-08-27T16:57:11Z</time>
      </trkpt>
      <trkpt lat="42.2957470" lon="-8.3051890">
        <ele>639.5</ele>
        <time>2022-08-27T16:57:12Z</time>
      </trkpt>
      <trkpt lat="42.2956960" lon="-8.3052410">
        <ele>639.2</ele>
        <time>2022-08-27T16:57:13Z</time>
      </trkpt>
      <trkpt lat="42.2956430" lon="-8.3052800">
        <ele>639.0</ele>
        <time>2022-08-27T16:57:14Z</time>
      </trkpt>
      <trkpt lat="42.2955960" lon="-8.3053180">
        <ele>638.8</ele>
        <time>2022-08-27T16:57:15Z</time>
      </trkpt>
      <trkpt lat="42.2955530" lon="-8.3053600">
        <ele>638.6</ele>
        <time>2022-08-27T16:57:16Z</time>
      </trkpt>
      <trkpt lat="42.2955070" lon="-8.3054010">
        <ele>638.2</ele>
        <time>2022-08-27T16:57:17Z</time>
      </trkpt>
      <trkpt lat="42.2954570" lon="-8.3054380">
        <ele>637.7</ele>
        <time>2022-08-27T16:57:18Z</time>
      </trkpt>
      <trkpt lat="42.2954010" lon="-8.3054720">
        <ele>637.2</ele>
        <time>2022-08-27T16:57:19Z</time>
      </trkpt>
      <trkpt lat="42.2953460" lon="-8.3055110">
        <ele>636.6</ele>
        <time>2022-08-27T16:57:20Z</time>
      </trkpt>
      <trkpt lat="42.2952970" lon="-8.3055570">
        <ele>635.9</ele>
        <time>2022-08-27T16:57:21Z</time>
      </trkpt>
      <trkpt lat="42.2952480" lon="-8.3056060">
        <ele>635.3</ele>
        <time>2022-08-27T16:57:22Z</time>
      </trkpt>
      <trkpt lat="42.2951960" lon="-8.3056610">
        <ele>634.6</ele>
        <time>2022-08-27T16:57:23Z</time>
      </trkpt>
      <trkpt lat="42.2951420" lon="-8.3057130">
        <ele>633.9</ele>
        <time>2022-08-27T16:57:24Z</time>
      </trkpt>
      <trkpt lat="42.2950890" lon="-8.3057590">
        <ele>633.2</ele>
        <time>2022-08-27T16:57:25Z</time>
      </trkpt>
      <trkpt lat="42.2950360" lon="-8.3058080">
        <ele>632.6</ele>
        <time>2022-08-27T16:57:26Z</time>
      </trkpt>
      <trkpt lat="42.2949910" lon="-8.3058600">
        <ele>632.0</ele>
        <time>2022-08-27T16:57:27Z</time>
      </trkpt>
      <trkpt lat="42.2949480" lon="-8.3059170">
        <ele>631.4</ele>
        <time>2022-08-27T16:57:28Z</time>
      </trkpt>
      <trkpt lat="42.2949010" lon="-8.3059680">
        <ele>630.7</ele>
        <time>2022-08-27T16:57:29Z</time>
      </trkpt>
      <trkpt lat="42.2948560" lon="-8.3060210">
        <ele>630.0</ele>
        <time>2022-08-27T16:57:30Z</time>
      </trkpt>
      <trkpt lat="42.2948110" lon="-8.3060690">
        <ele>629.2</ele>
        <time>2022-08-27T16:57:31Z</time>
      </trkpt>
      <trkpt lat="42.2947650" lon="-8.3061130">
        <ele>628.4</ele>
        <time>2022-08-27T16:57:32Z</time>
      </trkpt>
      <trkpt lat="42.2947190" lon="-8.3061570">
        <ele>627.6</ele>
        <time>2022-08-27T16:57:33Z</time>
      </trkpt>
      <trkpt lat="42.2946730" lon="-8.3061990">
        <ele>626.8</ele>
        <time>2022-08-27T16:57:34Z</time>
      </trkpt>
      <trkpt lat="42.2946300" lon="-8.3062410">
        <ele>626.1</ele>
        <time>2022-08-27T16:57:35Z</time>
      </trkpt>
      <trkpt lat="42.2945870" lon="-8.3062970">
        <ele>625.0</ele>
        <time>2022-08-27T16:57:36Z</time>
      </trkpt>
      <trkpt lat="42.2945550" lon="-8.3063760">
        <ele>624.1</ele>
        <time>2022-08-27T16:57:37Z</time>
      </trkpt>
      <trkpt lat="42.2945340" lon="-8.3064710">
        <ele>623.2</ele>
        <time>2022-08-27T16:57:38Z</time>
      </trkpt>
      <trkpt lat="42.2945200" lon="-8.3065520">
        <ele>622.5</ele>
        <time>2022-08-27T16:57:39Z</time>
      </trkpt>
      <trkpt lat="42.2945070" lon="-8.3066130">
        <ele>622.0</ele>
        <time>2022-08-27T16:57:40Z</time>
      </trkpt>
      <trkpt lat="42.2944950" lon="-8.3066550">
        <ele>621.7</ele>
        <time>2022-08-27T16:57:41Z</time>
      </trkpt>
      <trkpt lat="42.2944800" lon="-8.3066910">
        <ele>621.4</ele>
        <time>2022-08-27T16:57:42Z</time>
      </trkpt>
      <trkpt lat="42.2944650" lon="-8.3067330">
        <ele>621.1</ele>
        <time>2022-08-27T16:57:43Z</time>
      </trkpt>
      <trkpt lat="42.2944590" lon="-8.3067450">
        <ele>621.0</ele>
        <time>2022-08-27T16:57:44Z</time>
      </trkpt>
      <trkpt lat="42.2944330" lon="-8.3067820">
        <ele>620.6</ele>
        <time>2022-08-27T16:57:45Z</time>
      </trkpt>
      <trkpt lat="42.2944230" lon="-8.3067970">
        <ele>620.5</ele>
        <time>2022-08-27T16:57:46Z</time>
      </trkpt>
      <trkpt lat="42.2944080" lon="-8.3068310">
        <ele>620.3</ele>
        <time>2022-08-27T16:57:47Z</time>
      </trkpt>
      <trkpt lat="42.2943970" lon="-8.3068700">
        <ele>620.0</ele>
        <time>2022-08-27T16:57:48Z</time>
      </trkpt>
      <trkpt lat="42.2943930" lon="-8.3068800">
        <ele>619.9</ele>
        <time>2022-08-27T16:57:49Z</time>
      </trkpt>
      <trkpt lat="42.2943790" lon="-8.3069210">
        <ele>619.6</ele>
        <time>2022-08-27T16:57:50Z</time>
      </trkpt>
      <trkpt lat="42.2943680" lon="-8.3069570">
        <ele>619.3</ele>
        <time>2022-08-27T16:57:51Z</time>
      </trkpt>
      <trkpt lat="42.2943570" lon="-8.3069910">
        <ele>619.0</ele>
        <time>2022-08-27T16:57:52Z</time>
      </trkpt>
      <trkpt lat="42.2943530" lon="-8.3070440">
        <ele>618.5</ele>
        <time>2022-08-27T16:57:53Z</time>
      </trkpt>
      <trkpt lat="42.2943540" lon="-8.3070650">
        <ele>617.9</ele>
        <time>2022-08-27T16:57:54Z</time>
      </trkpt>
      <trkpt lat="42.2943730" lon="-8.3071030">
        <ele>618.0</ele>
        <time>2022-08-27T16:57:55Z</time>
      </trkpt>
      <trkpt lat="42.2943820" lon="-8.3071150">
        <ele>618.0</ele>
        <time>2022-08-27T16:57:56Z</time>
      </trkpt>
      <trkpt lat="42.2944070" lon="-8.3071400">
        <ele>618.1</ele>
        <time>2022-08-27T16:57:57Z</time>
      </trkpt>
      <trkpt lat="42.2944160" lon="-8.3071470">
        <ele>618.2</ele>
        <time>2022-08-27T16:57:58Z</time>
      </trkpt>
      <trkpt lat="42.2944440" lon="-8.3071640">
        <ele>618.3</ele>
        <time>2022-08-27T16:57:59Z</time>
      </trkpt>
      <trkpt lat="42.2944540" lon="-8.3071700">
        <ele>618.3</ele>
        <time>2022-08-27T16:58:00Z</time>
      </trkpt>
      <trkpt lat="42.2944860" lon="-8.3071810">
        <ele>618.4</ele>
        <time>2022-08-27T16:58:01Z</time>
      </trkpt>
      <trkpt lat="42.2944970" lon="-8.3071820">
        <ele>618.4</ele>
        <time>2022-08-27T16:58:02Z</time>
      </trkpt>
      <trkpt lat="42.2945280" lon="-8.3071830">
        <ele>618.5</ele>
        <time>2022-08-27T16:58:03Z</time>
      </trkpt>
      <trkpt lat="42.2945380" lon="-8.3071830">
        <ele>618.5</ele>
        <time>2022-08-27T16:58:04Z</time>
      </trkpt>
      <trkpt lat="42.2945750" lon="-8.3071820">
        <ele>618.6</ele>
        <time>2022-08-27T16:58:05Z</time>
      </trkpt>
      <trkpt lat="42.2945870" lon="-8.3071820">
        <ele>618.6</ele>
        <time>2022-08-27T16:58:06Z</time>
      </trkpt>
      <trkpt lat="42.2946230" lon="-8.3071740">
        <ele>618.7</ele>
        <time>2022-08-27T16:58:07Z</time>
      </trkpt>
      <trkpt lat="42.2946360" lon="-8.3071710">
        <ele>618.7</ele>
        <time>2022-08-27T16:58:08Z</time>
      </trkpt>
      <trkpt lat="42.2946670" lon="-8.3071520">
        <ele>618.8</ele>
        <time>2022-08-27T16:58:09Z</time>
      </trkpt>
      <trkpt lat="42.2946760" lon="-8.3071440">
        <ele>618.8</ele>
        <time>2022-08-27T16:58:10Z</time>
      </trkpt>
      <trkpt lat="42.2946990" lon="-8.3071140">
        <ele>618.7</ele>
        <time>2022-08-27T16:58:11Z</time>
      </trkpt>
      <trkpt lat="42.2947160" lon="-8.3070770">
        <ele>618.7</ele>
        <time>2022-08-27T16:58:12Z</time>
      </trkpt>
      <trkpt lat="42.2947200" lon="-8.3070670">
        <ele>618.7</ele>
        <time>2022-08-27T16:58:13Z</time>
      </trkpt>
      <trkpt lat="42.2947250" lon="-8.3070530">
        <ele>618.7</ele>
        <time>2022-08-27T16:58:14Z</time>
      </trkpt>
      <trkpt lat="42.2947340" lon="-8.3070420">
        <ele>618.7</ele>
        <time>2022-08-27T16:58:15Z</time>
      </trkpt>
      <trkpt lat="42.2947370" lon="-8.3070360">
        <ele>618.7</ele>
        <time>2022-08-27T16:58:16Z</time>
      </trkpt>
      <trkpt lat="42.2947350" lon="-8.3070360">
        <ele>618.7</ele>
        <time>2022-08-27T16:58:17Z</time>
      </trkpt>
      <trkpt lat="42.2947290" lon="-8.3070400">
        <ele>618.7</ele>
        <time>2022-08-27T16:58:18Z</time>
      </trkpt>
      <trkpt lat="42.2947240" lon="-8.3070440">
        <ele>618.6</ele>
        <time>2022-08-27T16:58:19Z</time>
      </trkpt>
      <trkpt lat="42.2947190" lon="-8.3070490">
        <ele>618.6</ele>
        <time>2022-08-27T16:58:20Z</time>
      </trkpt>
      <trkpt lat="42.2947130" lon="-8.3070530">
        <ele>618.6</ele>
        <time>2022-08-27T16:58:21Z</time>
      </trkpt>
      <trkpt lat="42.2947080" lon="-8.3070580">
        <ele>618.6</ele>
        <time>2022-08-27T16:58:22Z</time>
      </trkpt>
      <trkpt lat="42.2947030" lon="-8.3070620">
        <ele>618.6</ele>
        <time>2022-08-27T16:58:23Z</time>
      </trkpt>
      <trkpt lat="42.2946970" lon="-8.3070670">
        <ele>618.6</ele>
        <time>2022-08-27T16:58:24Z</time>
      </trkpt>
      <trkpt lat="42.2946920" lon="-8.3070710">
        <ele>618.6</ele>
        <time>2022-08-27T16:58:25Z</time>
      </trkpt>
      <trkpt lat="42.2946870" lon="-8.3070760">
        <ele>618.6</ele>
        <time>2022-08-27T16:58:26Z</time>
      </trkpt>
      <trkpt lat="42.2946810" lon="-8.3070800">
        <ele>618.6</ele>
        <time>2022-08-27T16:58:27Z</time>
      </trkpt>
      <trkpt lat="42.2946760" lon="-8.3070840">
        <ele>618.6</ele>
        <time>2022-08-27T16:58:28Z</time>
      </trkpt>
      <trkpt lat="42.2946710" lon="-8.3070890">
        <ele>618.6</ele>
        <time>2022-08-27T16:58:43Z</time>
      </trkpt>
      <trkpt lat="42.2946650" lon="-8.3070930">
        <ele>618.6</ele>
        <time>2022-08-27T16:58:44Z</time>
      </trkpt>
      <trkpt lat="42.2946260" lon="-8.3071390">
        <ele>618.5</ele>
        <time>2022-08-27T16:58:46Z</time>
      </trkpt>
      <trkpt lat="42.2945830" lon="-8.3071560">
        <ele>618.5</ele>
        <time>2022-08-27T16:58:47Z</time>
      </trkpt>
      <trkpt lat="42.2945330" lon="-8.3071660">
        <ele>618.4</ele>
        <time>2022-08-27T16:58:48Z</time>
      </trkpt>
      <trkpt lat="42.2944910" lon="-8.3071610">
        <ele>618.3</ele>
        <time>2022-08-27T16:58:49Z</time>
      </trkpt>
      <trkpt lat="42.2944560" lon="-8.3071540">
        <ele>618.2</ele>
        <time>2022-08-27T16:58:51Z</time>
      </trkpt>
      <trkpt lat="42.2944240" lon="-8.3071450">
        <ele>618.2</ele>
        <time>2022-08-27T16:58:52Z</time>
      </trkpt>
      <trkpt lat="42.2943900" lon="-8.3071340">
        <ele>618.1</ele>
        <time>2022-08-27T16:58:53Z</time>
      </trkpt>
      <trkpt lat="42.2943470" lon="-8.3071190">
        <ele>618.0</ele>
        <time>2022-08-27T16:58:54Z</time>
      </trkpt>
      <trkpt lat="42.2943310" lon="-8.3071130">
        <ele>618.0</ele>
        <time>2022-08-27T16:58:55Z</time>
      </trkpt>
      <trkpt lat="42.2942990" lon="-8.3070970">
        <ele>617.9</ele>
        <time>2022-08-27T16:58:56Z</time>
      </trkpt>
      <trkpt lat="42.2942860" lon="-8.3070900">
        <ele>617.9</ele>
        <time>2022-08-27T16:58:57Z</time>
      </trkpt>
      <trkpt lat="42.2942880" lon="-8.3070820">
        <ele>617.9</ele>
        <time>2022-08-27T16:58:58Z</time>
      </trkpt>
      <trkpt lat="42.2942870" lon="-8.3070760">
        <ele>617.8</ele>
        <time>2022-08-27T16:58:59Z</time>
      </trkpt>
      <trkpt lat="42.2942880" lon="-8.3070720">
        <ele>617.8</ele>
        <time>2022-08-27T16:59:00Z</time>
      </trkpt>
      <trkpt lat="42.2942880" lon="-8.3070690">
        <ele>617.8</ele>
        <time>2022-08-27T16:59:01Z</time>
      </trkpt>
      <trkpt lat="42.2942880" lon="-8.3070670">
        <ele>617.8</ele>
        <time>2022-08-27T16:59:02Z</time>
      </trkpt>
      <trkpt lat="42.2942900" lon="-8.3070650">
        <ele>617.8</ele>
        <time>2022-08-27T16:59:03Z</time>
      </trkpt>
      <trkpt lat="42.2942920" lon="-8.3070650">
        <ele>617.8</ele>
        <time>2022-08-27T16:59:04Z</time>
      </trkpt>
      <trkpt lat="42.2942940" lon="-8.3070640">
        <ele>617.8</ele>
        <time>2022-08-27T16:59:05Z</time>
      </trkpt>
      <trkpt lat="42.2942950" lon="-8.3070640">
        <ele>617.8</ele>
        <time>2022-08-27T16:59:06Z</time>
      </trkpt>
      <trkpt lat="42.2942960" lon="-8.3070640">
        <ele>617.8</ele>
        <time>2022-08-27T16:59:07Z</time>
      </trkpt>
      <trkpt lat="42.2942980" lon="-8.3070650">
        <ele>617.8</ele>
        <time>2022-08-27T16:59:08Z</time>
      </trkpt>
      <trkpt lat="42.2943260" lon="-8.3070860">
        <ele>617.7</ele>
        <time>2022-08-27T16:59:19Z</time>
      </trkpt>
      <trkpt lat="42.2943260" lon="-8.3070860">
        <ele>617.7</ele>
        <time>2022-08-27T16:59:20Z</time>
      </trkpt>
      <trkpt lat="42.2943260" lon="-8.3070860">
        <ele>617.7</ele>
        <time>2022-08-27T16:59:21Z</time>
      </trkpt>
      <trkpt lat="42.2943260" lon="-8.3070860">
        <ele>617.7</ele>
        <time>2022-08-27T16:59:22Z</time>
      </trkpt>
      <trkpt lat="42.2943260" lon="-8.3070860">
        <ele>617.7</ele>
        <time>2022-08-27T16:59:23Z</time>
      </trkpt>
      <trkpt lat="42.2943260" lon="-8.3070860">
        <ele>617.7</ele>
        <time>2022-08-27T16:59:24Z</time>
      </trkpt>
      <trkpt lat="42.2943250" lon="-8.3070860">
        <ele>617.7</ele>
        <time>2022-08-27T16:59:25Z</time>
      </trkpt>
      <trkpt lat="42.2943250" lon="-8.3070860">
        <ele>617.7</ele>
        <time>2022-08-27T16:59:26Z</time>
      </trkpt>
      <trkpt lat="42.2943250" lon="-8.3070860">
        <ele>617.7</ele>
        <time>2022-08-27T16:59:27Z</time>
      </trkpt>
      <trkpt lat="42.2943250" lon="-8.3070860">
        <ele>617.7</ele>
        <time>2022-08-27T16:59:28Z</time>
      </trkpt>
      <trkpt lat="42.2943250" lon="-8.3070860">
        <ele>617.7</ele>
        <time>2022-08-27T16:59:29Z</time>
      </trkpt>
      <trkpt lat="42.2943250" lon="-8.3070860">
        <ele>617.7</ele>
        <time>2022-08-27T16:59:30Z</time>
      </trkpt>
      <trkpt lat="42.2943250" lon="-8.3070860">
        <ele>617.7</ele>
        <time>2022-08-27T16:59:31Z</time>
      </trkpt>
      <trkpt lat="42.2943250" lon="-8.3070860">
        <ele>617.7</ele>
        <time>2022-08-27T16:59:32Z</time>
      </trkpt>
      <trkpt lat="42.2943250" lon="-8.3070860">
        <ele>617.7</ele>
        <time>2022-08-27T16:59:33Z</time>
      </trkpt>
      <trkpt lat="42.2943250" lon="-8.3070860">
        <ele>617.7</ele>
        <time>2022-08-27T16:59:34Z</time>
      </trkpt>
      <trkpt lat="42.2943250" lon="-8.3070860">
        <ele>617.7</ele>
        <time>2022-08-27T16:59:35Z</time>
      </trkpt>
      <trkpt lat="42.2943250" lon="-8.3070860">
        <ele>617.7</ele>
        <time>2022-08-27T16:59:36Z</time>
      </trkpt>
      <trkpt lat="42.2943250" lon="-8.3070860">
        <ele>617.7</ele>
        <time>2022-08-27T16:59:37Z</time>
      </trkpt>
      <trkpt lat="42.2943250" lon="-8.3070860">
        <ele>617.7</ele>
        <time>2022-08-27T16:59:38Z</time>
      </trkpt>
      <trkpt lat="42.2943250" lon="-8.3070860">
        <ele>617.7</ele>
        <time>2022-08-27T16:59:39Z</time>
      </trkpt>
      <trkpt lat="42.2943250" lon="-8.3070860">
        <ele>617.7</ele>
        <time>2022-08-27T16:59:40Z</time>
      </trkpt>
      <trkpt lat="42.2943250" lon="-8.3070860">
        <ele>617.7</ele>
        <time>2022-08-27T16:59:41Z</time>
      </trkpt>
      <trkpt lat="42.2943250" lon="-8.3070860">
        <ele>617.7</ele>
        <time>2022-08-27T16:59:42Z</time>
      </trkpt>
      <trkpt lat="42.2943250" lon="-8.3070860">
        <ele>617.7</ele>
        <time>2022-08-27T16:59:43Z</time>
      </trkpt>
      <trkpt lat="42.2943250" lon="-8.3070860">
        <ele>617.7</ele>
        <time>2022-08-27T16:59:44Z</time>
      </trkpt>
      <trkpt lat="42.2943250" lon="-8.3070860">
        <ele>617.7</ele>
        <time>2022-08-27T16:59:45Z</time>
      </trkpt>
      <trkpt lat="42.2943250" lon="-8.3070860">
        <ele>617.7</ele>
        <time>2022-08-27T16:59:46Z</time>
      </trkpt>
      <trkpt lat="42.2943250" lon="-8.3070860">
        <ele>617.7</ele>
        <time>2022-08-27T16:59:47Z</time>
      </trkpt>
      <trkpt lat="42.2943250" lon="-8.3070860">
        <ele>617.7</ele>
        <time>2022-08-27T16:59:48Z</time>
      </trkpt>
      <trkpt lat="42.2943250" lon="-8.3070860">
        <ele>617.7</ele>
        <time>2022-08-27T16:59:49Z</time>
      </trkpt>
      <trkpt lat="42.2943250" lon="-8.3070860">
        <ele>617.7</ele>
        <time>2022-08-27T16:59:50Z</time>
      </trkpt>
      <trkpt lat="42.2943250" lon="-8.3070860">
        <ele>617.7</ele>
        <time>2022-08-27T16:59:51Z</time>
      </trkpt>
      <trkpt lat="42.2943250" lon="-8.3070860">
        <ele>617.7</ele>
        <time>2022-08-27T16:59:52Z</time>
      </trkpt>
      <trkpt lat="42.2943250" lon="-8.3070860">
        <ele>617.7</ele>
        <time>2022-08-27T16:59:53Z</time>
      </trkpt>
      <trkpt lat="42.2943250" lon="-8.3070860">
        <ele>617.7</ele>
        <time>2022-08-27T16:59:54Z</time>
      </trkpt>
      <trkpt lat="42.2943250" lon="-8.3070860">
        <ele>617.7</ele>
        <time>2022-08-27T16:59:55Z</time>
      </trkpt>
      <trkpt lat="42.2943250" lon="-8.3070860">
        <ele>617.7</ele>
        <time>2022-08-27T16:59:56Z</time>
      </trkpt>
      <trkpt lat="42.2943250" lon="-8.3070860">
        <ele>617.7</ele>
        <time>2022-08-27T16:59:57Z</time>
      </trkpt>
      <trkpt lat="42.2943250" lon="-8.3070860">
        <ele>617.7</ele>
        <time>2022-08-27T16:59:58Z</time>
      </trkpt>
      <trkpt lat="42.2943250" lon="-8.3070860">
        <ele>617.7</ele>
        <time>2022-08-27T16:59:59Z</time>
      </trkpt>
      <trkpt lat="42.2943250" lon="-8.3070860">
        <ele>617.7</ele>
        <time>2022-08-27T17:00:00Z</time>
      </trkpt>
      <trkpt lat="42.2943250" lon="-8.3070860">
        <ele>617.7</ele>
        <time>2022-08-27T17:00:01Z</time>
      </trkpt>
      <trkpt lat="42.2943250" lon="-8.3070860">
        <ele>617.7</ele>
        <time>2022-08-27T17:00:02Z</time>
      </trkpt>
      <trkpt lat="42.2943250" lon="-8.3070860">
        <ele>617.7</ele>
        <time>2022-08-27T17:00:03Z</time>
      </trkpt>
      <trkpt lat="42.2943250" lon="-8.3070860">
        <ele>617.7</ele>
        <time>2022-08-27T17:00:04Z</time>
      </trkpt>
      <trkpt lat="42.2943250" lon="-8.3070860">
        <ele>617.7</ele>
        <time>2022-08-27T17:00:05Z</time>
      </trkpt>
      <trkpt lat="42.2943230" lon="-8.3070850">
        <ele>617.7</ele>
        <time>2022-08-27T17:00:06Z</time>
      </trkpt>
      <trkpt lat="42.2943220" lon="-8.3070850">
        <ele>617.7</ele>
        <time>2022-08-27T17:00:07Z</time>
      </trkpt>
      <trkpt lat="42.2943210" lon="-8.3070850">
        <ele>617.7</ele>
        <time>2022-08-27T17:00:08Z</time>
      </trkpt>
      <trkpt lat="42.2943200" lon="-8.3070840">
        <ele>617.7</ele>
        <time>2022-08-27T17:00:09Z</time>
      </trkpt>
      <trkpt lat="42.2943190" lon="-8.3070830">
        <ele>617.7</ele>
        <time>2022-08-27T17:00:10Z</time>
      </trkpt>
      <trkpt lat="42.2943180" lon="-8.3070840">
        <ele>617.7</ele>
        <time>2022-08-27T17:00:11Z</time>
      </trkpt>
      <trkpt lat="42.2943180" lon="-8.3070840">
        <ele>617.7</ele>
        <time>2022-08-27T17:00:12Z</time>
      </trkpt>
      <trkpt lat="42.2943170" lon="-8.3070830">
        <ele>617.7</ele>
        <time>2022-08-27T17:00:13Z</time>
      </trkpt>
      <trkpt lat="42.2943160" lon="-8.3070830">
        <ele>617.7</ele>
        <time>2022-08-27T17:00:14Z</time>
      </trkpt>
      <trkpt lat="42.2943150" lon="-8.3070840">
        <ele>617.7</ele>
        <time>2022-08-27T17:00:15Z</time>
      </trkpt>
      <trkpt lat="42.2943150" lon="-8.3070840">
        <ele>617.7</ele>
        <time>2022-08-27T17:00:16Z</time>
      </trkpt>
      <trkpt lat="42.2943140" lon="-8.3070840">
        <ele>617.7</ele>
        <time>2022-08-27T17:00:17Z</time>
      </trkpt>
      <trkpt lat="42.2943140" lon="-8.3070840">
        <ele>617.7</ele>
        <time>2022-08-27T17:00:18Z</time>
      </trkpt>
      <trkpt lat="42.2943140" lon="-8.3070840">
        <ele>617.7</ele>
        <time>2022-08-27T17:00:19Z</time>
      </trkpt>
      <trkpt lat="42.2943140" lon="-8.3070830">
        <ele>617.7</ele>
        <time>2022-08-27T17:00:20Z</time>
      </trkpt>
      <trkpt lat="42.2943140" lon="-8.3070830">
        <ele>617.7</ele>
        <time>2022-08-27T17:00:21Z</time>
      </trkpt>
      <trkpt lat="42.2943140" lon="-8.3070830">
        <ele>617.7</ele>
        <time>2022-08-27T17:00:22Z</time>
      </trkpt>
      <trkpt lat="42.2943150" lon="-8.3070840">
        <ele>617.7</ele>
        <time>2022-08-27T17:00:23Z</time>
      </trkpt>
      <trkpt lat="42.2943150" lon="-8.3070850">
        <ele>617.7</ele>
        <time>2022-08-27T17:00:24Z</time>
      </trkpt>
      <trkpt lat="42.2943070" lon="-8.3070830">
        <ele>617.7</ele>
        <time>2022-08-27T17:00:25Z</time>
      </trkpt>
      <trkpt lat="42.2942940" lon="-8.3070820">
        <ele>617.7</ele>
        <time>2022-08-27T17:00:26Z</time>
      </trkpt>
      <trkpt lat="42.2942810" lon="-8.3070830">
        <ele>617.6</ele>
        <time>2022-08-27T17:00:27Z</time>
      </trkpt>
      <trkpt lat="42.2942650" lon="-8.3070830">
        <ele>617.6</ele>
        <time>2022-08-27T17:00:28Z</time>
      </trkpt>
      <trkpt lat="42.2942310" lon="-8.3070870">
        <ele>617.5</ele>
        <time>2022-08-27T17:00:29Z</time>
      </trkpt>
      <trkpt lat="42.2942190" lon="-8.3070880">
        <ele>617.5</ele>
        <time>2022-08-27T17:00:30Z</time>
      </trkpt>
      <trkpt lat="42.2942030" lon="-8.3070870">
        <ele>617.5</ele>
        <time>2022-08-27T17:00:31Z</time>
      </trkpt>
      <trkpt lat="42.2941860" lon="-8.3070870">
        <ele>617.5</ele>
        <time>2022-08-27T17:00:32Z</time>
      </trkpt>
      <trkpt lat="42.2941830" lon="-8.3070800">
        <ele>617.4</ele>
        <time>2022-08-27T17:00:33Z</time>
      </trkpt>
      <trkpt lat="42.2941780" lon="-8.3070980">
        <ele>617.4</ele>
        <time>2022-08-27T17:00:34Z</time>
      </trkpt>
      <trkpt lat="42.2941340" lon="-8.3071090">
        <ele>617.4</ele>
        <time>2022-08-27T17:00:36Z</time>
      </trkpt>
      <trkpt lat="42.2940970" lon="-8.3071250">
        <ele>617.3</ele>
        <time>2022-08-27T17:00:37Z</time>
      </trkpt>
      <trkpt lat="42.2940630" lon="-8.3071390">
        <ele>617.2</ele>
        <time>2022-08-27T17:00:38Z</time>
      </trkpt>
      <trkpt lat="42.2940070" lon="-8.3071620">
        <ele>617.1</ele>
        <time>2022-08-27T17:00:39Z</time>
      </trkpt>
      <trkpt lat="42.2939590" lon="-8.3071790">
        <ele>617.0</ele>
        <time>2022-08-27T17:00:41Z</time>
      </trkpt>
      <trkpt lat="42.2939130" lon="-8.3071940">
        <ele>616.8</ele>
        <time>2022-08-27T17:00:42Z</time>
      </trkpt>
      <trkpt lat="42.2938260" lon="-8.3072060">
        <ele>616.5</ele>
        <time>2022-08-27T17:00:43Z</time>
      </trkpt>
      <trkpt lat="42.2937730" lon="-8.3072250">
        <ele>616.3</ele>
        <time>2022-08-27T17:00:44Z</time>
      </trkpt>
      <trkpt lat="42.2937170" lon="-8.3072450">
        <ele>615.9</ele>
        <time>2022-08-27T17:00:45Z</time>
      </trkpt>
      <trkpt lat="42.2936590" lon="-8.3072730">
        <ele>615.6</ele>
        <time>2022-08-27T17:00:46Z</time>
      </trkpt>
      <trkpt lat="42.2935960" lon="-8.3073000">
        <ele>615.1</ele>
        <time>2022-08-27T17:00:47Z</time>
      </trkpt>
      <trkpt lat="42.2935330" lon="-8.3073240">
        <ele>614.6</ele>
        <time>2022-08-27T17:00:48Z</time>
      </trkpt>
      <trkpt lat="42.2934700" lon="-8.3073540">
        <ele>614.2</ele>
        <time>2022-08-27T17:00:49Z</time>
      </trkpt>
      <trkpt lat="42.2934120" lon="-8.3073870">
        <ele>613.8</ele>
        <time>2022-08-27T17:00:50Z</time>
      </trkpt>
      <trkpt lat="42.2933480" lon="-8.3074190">
        <ele>613.4</ele>
        <time>2022-08-27T17:00:51Z</time>
      </trkpt>
      <trkpt lat="42.2932800" lon="-8.3074460">
        <ele>613.0</ele>
        <time>2022-08-27T17:00:52Z</time>
      </trkpt>
      <trkpt lat="42.2932100" lon="-8.3074760">
        <ele>612.7</ele>
        <time>2022-08-27T17:00:53Z</time>
      </trkpt>
      <trkpt lat="42.2931490" lon="-8.3075030">
        <ele>612.4</ele>
        <time>2022-08-27T17:00:54Z</time>
      </trkpt>
      <trkpt lat="42.2930910" lon="-8.3075260">
        <ele>612.2</ele>
        <time>2022-08-27T17:00:55Z</time>
      </trkpt>
      <trkpt lat="42.2930350" lon="-8.3075490">
        <ele>612.0</ele>
        <time>2022-08-27T17:00:56Z</time>
      </trkpt>
      <trkpt lat="42.2929800" lon="-8.3075720">
        <ele>611.7</ele>
        <time>2022-08-27T17:00:57Z</time>
      </trkpt>
      <trkpt lat="42.2929370" lon="-8.3075910">
        <ele>611.4</ele>
        <time>2022-08-27T17:00:58Z</time>
      </trkpt>
      <trkpt lat="42.2928920" lon="-8.3076110">
        <ele>611.1</ele>
        <time>2022-08-27T17:00:59Z</time>
      </trkpt>
      <trkpt lat="42.2928560" lon="-8.3076200">
        <ele>610.9</ele>
        <time>2022-08-27T17:01:00Z</time>
      </trkpt>
      <trkpt lat="42.2928230" lon="-8.3076330">
        <ele>610.6</ele>
        <time>2022-08-27T17:01:01Z</time>
      </trkpt>
      <trkpt lat="42.2927890" lon="-8.3076460">
        <ele>610.3</ele>
        <time>2022-08-27T17:01:02Z</time>
      </trkpt>
      <trkpt lat="42.2927500" lon="-8.3076540">
        <ele>609.9</ele>
        <time>2022-08-27T17:01:03Z</time>
      </trkpt>
      <trkpt lat="42.2927060" lon="-8.3076500">
        <ele>609.4</ele>
        <time>2022-08-27T17:01:04Z</time>
      </trkpt>
      <trkpt lat="42.2926670" lon="-8.3076380">
        <ele>609.0</ele>
        <time>2022-08-27T17:01:05Z</time>
      </trkpt>
      <trkpt lat="42.2926200" lon="-8.3075680">
        <ele>608.3</ele>
        <time>2022-08-27T17:01:06Z</time>
      </trkpt>
      <trkpt lat="42.2925630" lon="-8.3075570">
        <ele>607.8</ele>
        <time>2022-08-27T17:01:08Z</time>
      </trkpt>
      <trkpt lat="42.2925230" lon="-8.3075520">
        <ele>607.1</ele>
        <time>2022-08-27T17:01:09Z</time>
      </trkpt>
      <trkpt lat="42.2924900" lon="-8.3075590">
        <ele>606.9</ele>
        <time>2022-08-27T17:01:10Z</time>
      </trkpt>
      <trkpt lat="42.2924540" lon="-8.3075890">
        <ele>606.7</ele>
        <time>2022-08-27T17:01:11Z</time>
      </trkpt>
      <trkpt lat="42.2924190" lon="-8.3076300">
        <ele>606.4</ele>
        <time>2022-08-27T17:01:12Z</time>
      </trkpt>
      <trkpt lat="42.2924020" lon="-8.3076700">
        <ele>606.3</ele>
        <time>2022-08-27T17:01:14Z</time>
      </trkpt>
      <trkpt lat="42.2923970" lon="-8.3076950">
        <ele>606.2</ele>
        <time>2022-08-27T17:01:15Z</time>
      </trkpt>
      <trkpt lat="42.2923970" lon="-8.3077120">
        <ele>606.1</ele>
        <time>2022-08-27T17:01:16Z</time>
      </trkpt>
      <trkpt lat="42.2924010" lon="-8.3077550">
        <ele>605.9</ele>
        <time>2022-08-27T17:01:17Z</time>
      </trkpt>
      <trkpt lat="42.2924030" lon="-8.3077750">
        <ele>605.8</ele>
        <time>2022-08-27T17:01:18Z</time>
      </trkpt>
      <trkpt lat="42.2924080" lon="-8.3078200">
        <ele>605.6</ele>
        <time>2022-08-27T17:01:19Z</time>
      </trkpt>
      <trkpt lat="42.2924170" lon="-8.3078860">
        <ele>605.4</ele>
        <time>2022-08-27T17:01:20Z</time>
      </trkpt>
      <trkpt lat="42.2924270" lon="-8.3079380">
        <ele>605.1</ele>
        <time>2022-08-27T17:01:21Z</time>
      </trkpt>
      <trkpt lat="42.2924390" lon="-8.3079800">
        <ele>604.9</ele>
        <time>2022-08-27T17:01:22Z</time>
      </trkpt>
      <trkpt lat="42.2924430" lon="-8.3080220">
        <ele>604.6</ele>
        <time>2022-08-27T17:01:23Z</time>
      </trkpt>
      <trkpt lat="42.2924200" lon="-8.3080630">
        <ele>604.2</ele>
        <time>2022-08-27T17:01:24Z</time>
      </trkpt>
      <trkpt lat="42.2924080" lon="-8.3080730">
        <ele>604.0</ele>
        <time>2022-08-27T17:01:25Z</time>
      </trkpt>
      <trkpt lat="42.2923790" lon="-8.3080790">
        <ele>603.7</ele>
        <time>2022-08-27T17:01:26Z</time>
      </trkpt>
      <trkpt lat="42.2923110" lon="-8.3080300">
        <ele>602.8</ele>
        <time>2022-08-27T17:01:27Z</time>
      </trkpt>
      <trkpt lat="42.2922810" lon="-8.3080320">
        <ele>602.5</ele>
        <time>2022-08-27T17:01:28Z</time>
      </trkpt>
      <trkpt lat="42.2921960" lon="-8.3079970">
        <ele>601.5</ele>
        <time>2022-08-27T17:01:29Z</time>
      </trkpt>
      <trkpt lat="42.2921300" lon="-8.3079670">
        <ele>600.7</ele>
        <time>2022-08-27T17:01:30Z</time>
      </trkpt>
      <trkpt lat="42.2920660" lon="-8.3079480">
        <ele>600.0</ele>
        <time>2022-08-27T17:01:31Z</time>
      </trkpt>
      <trkpt lat="42.2920100" lon="-8.3079430">
        <ele>599.4</ele>
        <time>2022-08-27T17:01:32Z</time>
      </trkpt>
      <trkpt lat="42.2919490" lon="-8.3079330">
        <ele>598.7</ele>
        <time>2022-08-27T17:01:33Z</time>
      </trkpt>
      <trkpt lat="42.2918850" lon="-8.3079130">
        <ele>597.9</ele>
        <time>2022-08-27T17:01:34Z</time>
      </trkpt>
      <trkpt lat="42.2918190" lon="-8.3078950">
        <ele>597.2</ele>
        <time>2022-08-27T17:01:35Z</time>
      </trkpt>
      <trkpt lat="42.2917540" lon="-8.3078760">
        <ele>596.4</ele>
        <time>2022-08-27T17:01:36Z</time>
      </trkpt>
      <trkpt lat="42.2916950" lon="-8.3078610">
        <ele>595.8</ele>
        <time>2022-08-27T17:01:37Z</time>
      </trkpt>
      <trkpt lat="42.2916400" lon="-8.3078510">
        <ele>595.1</ele>
        <time>2022-08-27T17:01:38Z</time>
      </trkpt>
      <trkpt lat="42.2915870" lon="-8.3078330">
        <ele>594.5</ele>
        <time>2022-08-27T17:01:39Z</time>
      </trkpt>
      <trkpt lat="42.2915370" lon="-8.3078200">
        <ele>593.9</ele>
        <time>2022-08-27T17:01:40Z</time>
      </trkpt>
      <trkpt lat="42.2914900" lon="-8.3078020">
        <ele>593.4</ele>
        <time>2022-08-27T17:01:41Z</time>
      </trkpt>
      <trkpt lat="42.2914550" lon="-8.3077840">
        <ele>593.0</ele>
        <time>2022-08-27T17:01:42Z</time>
      </trkpt>
      <trkpt lat="42.2914130" lon="-8.3077580">
        <ele>592.5</ele>
        <time>2022-08-27T17:01:43Z</time>
      </trkpt>
      <trkpt lat="42.2913830" lon="-8.3077370">
        <ele>592.1</ele>
        <time>2022-08-27T17:01:44Z</time>
      </trkpt>
      <trkpt lat="42.2913470" lon="-8.3077140">
        <ele>591.6</ele>
        <time>2022-08-27T17:01:45Z</time>
      </trkpt>
      <trkpt lat="42.2912970" lon="-8.3076800">
        <ele>591.0</ele>
        <time>2022-08-27T17:01:46Z</time>
      </trkpt>
      <trkpt lat="42.2912490" lon="-8.3076450">
        <ele>590.4</ele>
        <time>2022-08-27T17:01:47Z</time>
      </trkpt>
      <trkpt lat="42.2912020" lon="-8.3076110">
        <ele>589.8</ele>
        <time>2022-08-27T17:01:48Z</time>
      </trkpt>
      <trkpt lat="42.2911620" lon="-8.3075800">
        <ele>589.3</ele>
        <time>2022-08-27T17:01:49Z</time>
      </trkpt>
      <trkpt lat="42.2911330" lon="-8.3075540">
        <ele>588.9</ele>
        <time>2022-08-27T17:01:50Z</time>
      </trkpt>
      <trkpt lat="42.2911050" lon="-8.3075310">
        <ele>588.5</ele>
        <time>2022-08-27T17:01:51Z</time>
      </trkpt>
      <trkpt lat="42.2910780" lon="-8.3075080">
        <ele>588.2</ele>
        <time>2022-08-27T17:01:52Z</time>
      </trkpt>
      <trkpt lat="42.2910530" lon="-8.3074880">
        <ele>587.8</ele>
        <time>2022-08-27T17:01:53Z</time>
      </trkpt>
      <trkpt lat="42.2910210" lon="-8.3074790">
        <ele>587.5</ele>
        <time>2022-08-27T17:01:54Z</time>
      </trkpt>
      <trkpt lat="42.2909890" lon="-8.3074780">
        <ele>587.0</ele>
        <time>2022-08-27T17:01:55Z</time>
      </trkpt>
      <trkpt lat="42.2909600" lon="-8.3074780">
        <ele>587.0</ele>
        <time>2022-08-27T17:01:56Z</time>
      </trkpt>
      <trkpt lat="42.2909520" lon="-8.3074780">
        <ele>587.0</ele>
        <time>2022-08-27T17:01:57Z</time>
      </trkpt>
      <trkpt lat="42.2909150" lon="-8.3074990">
        <ele>586.7</ele>
        <time>2022-08-27T17:01:58Z</time>
      </trkpt>
      <trkpt lat="42.2908990" lon="-8.3075060">
        <ele>586.4</ele>
        <time>2022-08-27T17:01:59Z</time>
      </trkpt>
      <trkpt lat="42.2908560" lon="-8.3075130">
        <ele>585.8</ele>
        <time>2022-08-27T17:02:00Z</time>
      </trkpt>
      <trkpt lat="42.2908150" lon="-8.3075120">
        <ele>585.3</ele>
        <time>2022-08-27T17:02:01Z</time>
      </trkpt>
      <trkpt lat="42.2907760" lon="-8.3075100">
        <ele>584.8</ele>
        <time>2022-08-27T17:02:02Z</time>
      </trkpt>
      <trkpt lat="42.2907310" lon="-8.3075030">
        <ele>584.1</ele>
        <time>2022-08-27T17:02:03Z</time>
      </trkpt>
      <trkpt lat="42.2906780" lon="-8.3074680">
        <ele>583.3</ele>
        <time>2022-08-27T17:02:04Z</time>
      </trkpt>
      <trkpt lat="42.2906430" lon="-8.3074520">
        <ele>582.8</ele>
        <time>2022-08-27T17:02:05Z</time>
      </trkpt>
      <trkpt lat="42.2906070" lon="-8.3074070">
        <ele>582.2</ele>
        <time>2022-08-27T17:02:06Z</time>
      </trkpt>
      <trkpt lat="42.2905510" lon="-8.3073690">
        <ele>581.3</ele>
        <time>2022-08-27T17:02:08Z</time>
      </trkpt>
      <trkpt lat="42.2905080" lon="-8.3073420">
        <ele>580.7</ele>
        <time>2022-08-27T17:02:09Z</time>
      </trkpt>
      <trkpt lat="42.2904780" lon="-8.3073210">
        <ele>580.2</ele>
        <time>2022-08-27T17:02:10Z</time>
      </trkpt>
      <trkpt lat="42.2904630" lon="-8.3072900">
        <ele>579.8</ele>
        <time>2022-08-27T17:02:11Z</time>
      </trkpt>
      <trkpt lat="42.2904840" lon="-8.3072330">
        <ele>579.2</ele>
        <time>2022-08-27T17:02:12Z</time>
      </trkpt>
      <trkpt lat="42.2904950" lon="-8.3071750">
        <ele>578.6</ele>
        <time>2022-08-27T17:02:13Z</time>
      </trkpt>
      <trkpt lat="42.2905080" lon="-8.3071350">
        <ele>578.2</ele>
        <time>2022-08-27T17:02:14Z</time>
      </trkpt>
      <trkpt lat="42.2905240" lon="-8.3070800">
        <ele>578.2</ele>
        <time>2022-08-27T17:02:15Z</time>
      </trkpt>
      <trkpt lat="42.2905300" lon="-8.3070160">
        <ele>579.0</ele>
        <time>2022-08-27T17:02:17Z</time>
      </trkpt>
      <trkpt lat="42.2905230" lon="-8.3069670">
        <ele>579.4</ele>
        <time>2022-08-27T17:02:18Z</time>
      </trkpt>
      <trkpt lat="42.2905120" lon="-8.3069210">
        <ele>579.8</ele>
        <time>2022-08-27T17:02:19Z</time>
      </trkpt>
      <trkpt lat="42.2904980" lon="-8.3068780">
        <ele>580.3</ele>
        <time>2022-08-27T17:02:21Z</time>
      </trkpt>
      <trkpt lat="42.2904930" lon="-8.3068660">
        <ele>580.4</ele>
        <time>2022-08-27T17:02:22Z</time>
      </trkpt>
      <trkpt lat="42.2904840" lon="-8.3068290">
        <ele>580.8</ele>
        <time>2022-08-27T17:02:23Z</time>
      </trkpt>
      <trkpt lat="42.2904700" lon="-8.3067860">
        <ele>581.2</ele>
        <time>2022-08-27T17:02:24Z</time>
      </trkpt>
      <trkpt lat="42.2904580" lon="-8.3067320">
        <ele>581.8</ele>
        <time>2022-08-27T17:02:25Z</time>
      </trkpt>
      <trkpt lat="42.2904440" lon="-8.3066720">
        <ele>582.4</ele>
        <time>2022-08-27T17:02:26Z</time>
      </trkpt>
      <trkpt lat="42.2904200" lon="-8.3066180">
        <ele>582.6</ele>
        <time>2022-08-27T17:02:27Z</time>
      </trkpt>
      <trkpt lat="42.2904020" lon="-8.3065950">
        <ele>582.6</ele>
        <time>2022-08-27T17:02:29Z</time>
      </trkpt>
      <trkpt lat="42.2904040" lon="-8.3066160">
        <ele>582.7</ele>
        <time>2022-08-27T17:02:30Z</time>
      </trkpt>
      <trkpt lat="42.2904040" lon="-8.3066220">
        <ele>582.7</ele>
        <time>2022-08-27T17:02:31Z</time>
      </trkpt>
      <trkpt lat="42.2904020" lon="-8.3066240">
        <ele>582.7</ele>
        <time>2022-08-27T17:02:32Z</time>
      </trkpt>
      <trkpt lat="42.2903990" lon="-8.3066180">
        <ele>582.7</ele>
        <time>2022-08-27T17:02:33Z</time>
      </trkpt>
      <trkpt lat="42.2903940" lon="-8.3065930">
        <ele>582.7</ele>
        <time>2022-08-27T17:02:34Z</time>
      </trkpt>
      <trkpt lat="42.2903950" lon="-8.3065740">
        <ele>582.7</ele>
        <time>2022-08-27T17:02:35Z</time>
      </trkpt>
      <trkpt lat="42.2904000" lon="-8.3065500">
        <ele>582.7</ele>
        <time>2022-08-27T17:02:36Z</time>
      </trkpt>
      <trkpt lat="42.2904180" lon="-8.3065010">
        <ele>582.7</ele>
        <time>2022-08-27T17:02:37Z</time>
      </trkpt>
      <trkpt lat="42.2904240" lon="-8.3064850">
        <ele>582.7</ele>
        <time>2022-08-27T17:02:38Z</time>
      </trkpt>
      <trkpt lat="42.2904380" lon="-8.3064470">
        <ele>582.7</ele>
        <time>2022-08-27T17:02:39Z</time>
      </trkpt>
      <trkpt lat="42.2904530" lon="-8.3064080">
        <ele>582.7</ele>
        <time>2022-08-27T17:02:40Z</time>
      </trkpt>
      <trkpt lat="42.2904710" lon="-8.3063680">
        <ele>583.1</ele>
        <time>2022-08-27T17:02:41Z</time>
      </trkpt>
      <trkpt lat="42.2904880" lon="-8.3063330">
        <ele>583.5</ele>
        <time>2022-08-27T17:02:42Z</time>
      </trkpt>
      <trkpt lat="42.2905070" lon="-8.3062890">
        <ele>584.1</ele>
        <time>2022-08-27T17:02:43Z</time>
      </trkpt>
      <trkpt lat="42.2905270" lon="-8.3062470">
        <ele>584.6</ele>
        <time>2022-08-27T17:02:44Z</time>
      </trkpt>
      <trkpt lat="42.2905470" lon="-8.3062130">
        <ele>585.2</ele>
        <time>2022-08-27T17:02:45Z</time>
      </trkpt>
      <trkpt lat="42.2905730" lon="-8.3061750">
        <ele>585.1</ele>
        <time>2022-08-27T17:02:46Z</time>
      </trkpt>
      <trkpt lat="42.2905820" lon="-8.3061630">
        <ele>585.1</ele>
        <time>2022-08-27T17:02:47Z</time>
      </trkpt>
      <trkpt lat="42.2906020" lon="-8.3061320">
        <ele>585.0</ele>
        <time>2022-08-27T17:02:48Z</time>
      </trkpt>
      <trkpt lat="42.2906080" lon="-8.3061220">
        <ele>584.9</ele>
        <time>2022-08-27T17:02:49Z</time>
      </trkpt>
      <trkpt lat="42.2906220" lon="-8.3061030">
        <ele>584.9</ele>
        <time>2022-08-27T17:02:50Z</time>
      </trkpt>
      <trkpt lat="42.2906290" lon="-8.3060950">
        <ele>584.8</ele>
        <time>2022-08-27T17:02:51Z</time>
      </trkpt>
      <trkpt lat="42.2906350" lon="-8.3060870">
        <ele>584.8</ele>
        <time>2022-08-27T17:02:52Z</time>
      </trkpt>
      <trkpt lat="42.2906440" lon="-8.3060750">
        <ele>584.8</ele>
        <time>2022-08-27T17:02:53Z</time>
      </trkpt>
      <trkpt lat="42.2906530" lon="-8.3060670">
        <ele>584.7</ele>
        <time>2022-08-27T17:02:54Z</time>
      </trkpt>
      <trkpt lat="42.2906630" lon="-8.3060690">
        <ele>584.7</ele>
        <time>2022-08-27T17:02:55Z</time>
      </trkpt>
      <trkpt lat="42.2906710" lon="-8.3060730">
        <ele>584.7</ele>
        <time>2022-08-27T17:02:56Z</time>
      </trkpt>
      <trkpt lat="42.2906750" lon="-8.3060790">
        <ele>584.6</ele>
        <time>2022-08-27T17:02:57Z</time>
      </trkpt>
      <trkpt lat="42.2906760" lon="-8.3060900">
        <ele>584.6</ele>
        <time>2022-08-27T17:02:58Z</time>
      </trkpt>
      <trkpt lat="42.2906620" lon="-8.3061160">
        <ele>584.5</ele>
        <time>2022-08-27T17:02:59Z</time>
      </trkpt>
      <trkpt lat="42.2906370" lon="-8.3061380">
        <ele>584.5</ele>
        <time>2022-08-27T17:03:00Z</time>
      </trkpt>
      <trkpt lat="42.2906250" lon="-8.3061480">
        <ele>584.4</ele>
        <time>2022-08-27T17:03:01Z</time>
      </trkpt>
      <trkpt lat="42.2905980" lon="-8.3061720">
        <ele>584.3</ele>
        <time>2022-08-27T17:03:02Z</time>
      </trkpt>
      <trkpt lat="42.2905740" lon="-8.3062040">
        <ele>584.2</ele>
        <time>2022-08-27T17:03:03Z</time>
      </trkpt>
      <trkpt lat="42.2905490" lon="-8.3062480">
        <ele>584.1</ele>
        <time>2022-08-27T17:03:04Z</time>
      </trkpt>
      <trkpt lat="42.2905330" lon="-8.3062900">
        <ele>584.0</ele>
        <time>2022-08-27T17:03:05Z</time>
      </trkpt>
      <trkpt lat="42.2905170" lon="-8.3063350">
        <ele>583.8</ele>
        <time>2022-08-27T17:03:06Z</time>
      </trkpt>
      <trkpt lat="42.2905070" lon="-8.3063620">
        <ele>582.7</ele>
        <time>2022-08-27T17:03:07Z</time>
      </trkpt>
      <trkpt lat="42.2905010" lon="-8.3063760">
        <ele>582.2</ele>
        <time>2022-08-27T17:03:08Z</time>
      </trkpt>
      <trkpt lat="42.2905000" lon="-8.3063750">
        <ele>582.1</ele>
        <time>2022-08-27T17:03:09Z</time>
      </trkpt>
      <trkpt lat="42.2905000" lon="-8.3063720">
        <ele>582.0</ele>
        <time>2022-08-27T17:03:10Z</time>
      </trkpt>
      <trkpt lat="42.2904970" lon="-8.3063730">
        <ele>581.9</ele>
        <time>2022-08-27T17:03:11Z</time>
      </trkpt>
      <trkpt lat="42.2904920" lon="-8.3063770">
        <ele>581.7</ele>
        <time>2022-08-27T17:03:12Z</time>
      </trkpt>
      <trkpt lat="42.2904890" lon="-8.3063780">
        <ele>581.5</ele>
        <time>2022-08-27T17:03:13Z</time>
      </trkpt>
      <trkpt lat="42.2904870" lon="-8.3063830">
        <ele>581.4</ele>
        <time>2022-08-27T17:03:14Z</time>
      </trkpt>
      <trkpt lat="42.2904850" lon="-8.3063830">
        <ele>581.3</ele>
        <time>2022-08-27T17:03:15Z</time>
      </trkpt>
      <trkpt lat="42.2904810" lon="-8.3063790">
        <ele>581.1</ele>
        <time>2022-08-27T17:03:16Z</time>
      </trkpt>
      <trkpt lat="42.2904780" lon="-8.3063770">
        <ele>580.9</ele>
        <time>2022-08-27T17:03:17Z</time>
      </trkpt>
      <trkpt lat="42.2904760" lon="-8.3063750">
        <ele>580.8</ele>
        <time>2022-08-27T17:03:18Z</time>
      </trkpt>
      <trkpt lat="42.2904720" lon="-8.3063740">
        <ele>580.6</ele>
        <time>2022-08-27T17:03:19Z</time>
      </trkpt>
      <trkpt lat="42.2904720" lon="-8.3063750">
        <ele>580.6</ele>
        <time>2022-08-27T17:03:20Z</time>
      </trkpt>
      <trkpt lat="42.2904740" lon="-8.3063760">
        <ele>580.5</ele>
        <time>2022-08-27T17:03:21Z</time>
      </trkpt>
      <trkpt lat="42.2904750" lon="-8.3063760">
        <ele>580.5</ele>
        <time>2022-08-27T17:03:22Z</time>
      </trkpt>
      <trkpt lat="42.2904740" lon="-8.3063760">
        <ele>580.4</ele>
        <time>2022-08-27T17:03:23Z</time>
      </trkpt>
      <trkpt lat="42.2904730" lon="-8.3063760">
        <ele>580.4</ele>
        <time>2022-08-27T17:03:24Z</time>
      </trkpt>
      <trkpt lat="42.2904720" lon="-8.3063760">
        <ele>580.4</ele>
        <time>2022-08-27T17:03:25Z</time>
      </trkpt>
      <trkpt lat="42.2904690" lon="-8.3063730">
        <ele>580.2</ele>
        <time>2022-08-27T17:03:26Z</time>
      </trkpt>
      <trkpt lat="42.2904640" lon="-8.3063700">
        <ele>580.0</ele>
        <time>2022-08-27T17:03:27Z</time>
      </trkpt>
      <trkpt lat="42.2904580" lon="-8.3063640">
        <ele>579.7</ele>
        <time>2022-08-27T17:03:28Z</time>
      </trkpt>
      <trkpt lat="42.2904530" lon="-8.3063600">
        <ele>579.4</ele>
        <time>2022-08-27T17:03:29Z</time>
      </trkpt>
      <trkpt lat="42.2904480" lon="-8.3063560">
        <ele>579.2</ele>
        <time>2022-08-27T17:03:30Z</time>
      </trkpt>
      <trkpt lat="42.2904280" lon="-8.3063420">
        <ele>578.2</ele>
        <time>2022-08-27T17:03:31Z</time>
      </trkpt>
      <trkpt lat="42.2904210" lon="-8.3063370">
        <ele>577.9</ele>
        <time>2022-08-27T17:03:32Z</time>
      </trkpt>
      <trkpt lat="42.2904140" lon="-8.3063320">
        <ele>577.6</ele>
        <time>2022-08-27T17:03:33Z</time>
      </trkpt>
      <trkpt lat="42.2904060" lon="-8.3063240">
        <ele>577.1</ele>
        <time>2022-08-27T17:03:34Z</time>
      </trkpt>
      <trkpt lat="42.2903970" lon="-8.3063160">
        <ele>576.7</ele>
        <time>2022-08-27T17:03:35Z</time>
      </trkpt>
      <trkpt lat="42.2903850" lon="-8.3063050">
        <ele>576.1</ele>
        <time>2022-08-27T17:03:36Z</time>
      </trkpt>
      <trkpt lat="42.2903800" lon="-8.3063000">
        <ele>575.8</ele>
        <time>2022-08-27T17:03:37Z</time>
      </trkpt>
      <trkpt lat="42.2903690" lon="-8.3062910">
        <ele>575.3</ele>
        <time>2022-08-27T17:03:38Z</time>
      </trkpt>
      <trkpt lat="42.2903590" lon="-8.3062810">
        <ele>574.8</ele>
        <time>2022-08-27T17:03:39Z</time>
      </trkpt>
      <trkpt lat="42.2903500" lon="-8.3062720">
        <ele>574.3</ele>
        <time>2022-08-27T17:03:40Z</time>
      </trkpt>
      <trkpt lat="42.2903410" lon="-8.3062640">
        <ele>573.8</ele>
        <time>2022-08-27T17:03:41Z</time>
      </trkpt>
      <trkpt lat="42.2903360" lon="-8.3062560">
        <ele>573.5</ele>
        <time>2022-08-27T17:03:42Z</time>
      </trkpt>
      <trkpt lat="42.2903290" lon="-8.3062480">
        <ele>573.1</ele>
        <time>2022-08-27T17:03:43Z</time>
      </trkpt>
      <trkpt lat="42.2903220" lon="-8.3062450">
        <ele>572.8</ele>
        <time>2022-08-27T17:03:44Z</time>
      </trkpt>
      <trkpt lat="42.2903170" lon="-8.3062420">
        <ele>572.6</ele>
        <time>2022-08-27T17:03:45Z</time>
      </trkpt>
      <trkpt lat="42.2903100" lon="-8.3062400">
        <ele>572.3</ele>
        <time>2022-08-27T17:03:46Z</time>
      </trkpt>
      <trkpt lat="42.2903070" lon="-8.3062400">
        <ele>572.2</ele>
        <time>2022-08-27T17:03:47Z</time>
      </trkpt>
      <trkpt lat="42.2903050" lon="-8.3062410">
        <ele>572.1</ele>
        <time>2022-08-27T17:03:48Z</time>
      </trkpt>
      <trkpt lat="42.2903050" lon="-8.3062420">
        <ele>572.0</ele>
        <time>2022-08-27T17:03:49Z</time>
      </trkpt>
      <trkpt lat="42.2903060" lon="-8.3062420">
        <ele>572.0</ele>
        <time>2022-08-27T17:03:50Z</time>
      </trkpt>
      <trkpt lat="42.2903060" lon="-8.3062420">
        <ele>572.0</ele>
        <time>2022-08-27T17:03:51Z</time>
      </trkpt>
      <trkpt lat="42.2903060" lon="-8.3062410">
        <ele>572.0</ele>
        <time>2022-08-27T17:03:52Z</time>
      </trkpt>
      <trkpt lat="42.2903070" lon="-8.3062380">
        <ele>571.9</ele>
        <time>2022-08-27T17:03:53Z</time>
      </trkpt>
      <trkpt lat="42.2903070" lon="-8.3062360">
        <ele>571.8</ele>
        <time>2022-08-27T17:03:54Z</time>
      </trkpt>
      <trkpt lat="42.2903060" lon="-8.3062350">
        <ele>571.7</ele>
        <time>2022-08-27T17:03:55Z</time>
      </trkpt>
      <trkpt lat="42.2903050" lon="-8.3062360">
        <ele>571.7</ele>
        <time>2022-08-27T17:03:56Z</time>
      </trkpt>
      <trkpt lat="42.2903050" lon="-8.3062360">
        <ele>571.7</ele>
        <time>2022-08-27T17:03:57Z</time>
      </trkpt>
      <trkpt lat="42.2902800" lon="-8.3062160">
        <ele>570.5</ele>
        <time>2022-08-27T17:04:35Z</time>
      </trkpt>
      <trkpt lat="42.2902630" lon="-8.3062090">
        <ele>569.7</ele>
        <time>2022-08-27T17:04:36Z</time>
      </trkpt>
      <trkpt lat="42.2902560" lon="-8.3062070">
        <ele>569.4</ele>
        <time>2022-08-27T17:04:37Z</time>
      </trkpt>
      <trkpt lat="42.2902560" lon="-8.3062060">
        <ele>569.4</ele>
        <time>2022-08-27T17:04:38Z</time>
      </trkpt>
      <trkpt lat="42.2902590" lon="-8.3062070">
        <ele>569.3</ele>
        <time>2022-08-27T17:04:39Z</time>
      </trkpt>
      <trkpt lat="42.2902650" lon="-8.3062080">
        <ele>569.0</ele>
        <time>2022-08-27T17:04:40Z</time>
      </trkpt>
      <trkpt lat="42.2902650" lon="-8.3062080">
        <ele>569.0</ele>
        <time>2022-08-27T17:04:41Z</time>
      </trkpt>
      <trkpt lat="42.2902630" lon="-8.3062100">
        <ele>568.9</ele>
        <time>2022-08-27T17:04:42Z</time>
      </trkpt>
      <trkpt lat="42.2902470" lon="-8.3062280">
        <ele>566.8</ele>
        <time>2022-08-27T17:04:43Z</time>
      </trkpt>
      <trkpt lat="42.2902280" lon="-8.3062560">
        <ele>566.6</ele>
        <time>2022-08-27T17:04:44Z</time>
      </trkpt>
      <trkpt lat="42.2901830" lon="-8.3063190">
        <ele>566.0</ele>
        <time>2022-08-27T17:04:46Z</time>
      </trkpt>
      <trkpt lat="42.2901340" lon="-8.3063850">
        <ele>565.5</ele>
        <time>2022-08-27T17:04:47Z</time>
      </trkpt>
      <trkpt lat="42.2900970" lon="-8.3064360">
        <ele>565.1</ele>
        <time>2022-08-27T17:04:48Z</time>
      </trkpt>
      <trkpt lat="42.2900570" lon="-8.3064910">
        <ele>564.6</ele>
        <time>2022-08-27T17:04:49Z</time>
      </trkpt>
      <trkpt lat="42.2900190" lon="-8.3065500">
        <ele>564.1</ele>
        <time>2022-08-27T17:04:50Z</time>
      </trkpt>
      <trkpt lat="42.2899780" lon="-8.3066130">
        <ele>563.6</ele>
        <time>2022-08-27T17:04:51Z</time>
      </trkpt>
      <trkpt lat="42.2899330" lon="-8.3066780">
        <ele>563.1</ele>
        <time>2022-08-27T17:04:52Z</time>
      </trkpt>
      <trkpt lat="42.2898860" lon="-8.3067450">
        <ele>562.6</ele>
        <time>2022-08-27T17:04:53Z</time>
      </trkpt>
      <trkpt lat="42.2898400" lon="-8.3068160">
        <ele>562.0</ele>
        <time>2022-08-27T17:04:54Z</time>
      </trkpt>
      <trkpt lat="42.2897920" lon="-8.3068890">
        <ele>561.4</ele>
        <time>2022-08-27T17:04:55Z</time>
      </trkpt>
      <trkpt lat="42.2897390" lon="-8.3069690">
        <ele>560.7</ele>
        <time>2022-08-27T17:04:56Z</time>
      </trkpt>
      <trkpt lat="42.2896840" lon="-8.3070480">
        <ele>559.9</ele>
        <time>2022-08-27T17:04:57Z</time>
      </trkpt>
      <trkpt lat="42.2896290" lon="-8.3071200">
        <ele>559.2</ele>
        <time>2022-08-27T17:04:58Z</time>
      </trkpt>
      <trkpt lat="42.2895800" lon="-8.3071870">
        <ele>558.6</ele>
        <time>2022-08-27T17:04:59Z</time>
      </trkpt>
      <trkpt lat="42.2895320" lon="-8.3072590">
        <ele>557.9</ele>
        <time>2022-08-27T17:05:00Z</time>
      </trkpt>
      <trkpt lat="42.2894860" lon="-8.3073330">
        <ele>557.2</ele>
        <time>2022-08-27T17:05:01Z</time>
      </trkpt>
      <trkpt lat="42.2894400" lon="-8.3074030">
        <ele>556.6</ele>
        <time>2022-08-27T17:05:02Z</time>
      </trkpt>
      <trkpt lat="42.2893920" lon="-8.3074630">
        <ele>555.9</ele>
        <time>2022-08-27T17:05:03Z</time>
      </trkpt>
      <trkpt lat="42.2893360" lon="-8.3075150">
        <ele>555.3</ele>
        <time>2022-08-27T17:05:04Z</time>
      </trkpt>
      <trkpt lat="42.2892670" lon="-8.3075530">
        <ele>554.7</ele>
        <time>2022-08-27T17:05:05Z</time>
      </trkpt>
      <trkpt lat="42.2891950" lon="-8.3075720">
        <ele>554.1</ele>
        <time>2022-08-27T17:05:06Z</time>
      </trkpt>
      <trkpt lat="42.2891260" lon="-8.3075730">
        <ele>553.6</ele>
        <time>2022-08-27T17:05:07Z</time>
      </trkpt>
      <trkpt lat="42.2890600" lon="-8.3075540">
        <ele>553.0</ele>
        <time>2022-08-27T17:05:08Z</time>
      </trkpt>
      <trkpt lat="42.2890050" lon="-8.3075180">
        <ele>552.6</ele>
        <time>2022-08-27T17:05:09Z</time>
      </trkpt>
      <trkpt lat="42.2889540" lon="-8.3074640">
        <ele>552.1</ele>
        <time>2022-08-27T17:05:10Z</time>
      </trkpt>
      <trkpt lat="42.2889170" lon="-8.3073940">
        <ele>551.7</ele>
        <time>2022-08-27T17:05:11Z</time>
      </trkpt>
      <trkpt lat="42.2888870" lon="-8.3073050">
        <ele>551.3</ele>
        <time>2022-08-27T17:05:12Z</time>
      </trkpt>
      <trkpt lat="42.2888700" lon="-8.3072040">
        <ele>550.9</ele>
        <time>2022-08-27T17:05:13Z</time>
      </trkpt>
      <trkpt lat="42.2888570" lon="-8.3071020">
        <ele>550.6</ele>
        <time>2022-08-27T17:05:14Z</time>
      </trkpt>
      <trkpt lat="42.2888480" lon="-8.3070000">
        <ele>550.4</ele>
        <time>2022-08-27T17:05:15Z</time>
      </trkpt>
      <trkpt lat="42.2888390" lon="-8.3069000">
        <ele>550.2</ele>
        <time>2022-08-27T17:05:16Z</time>
      </trkpt>
      <trkpt lat="42.2888350" lon="-8.3067980">
        <ele>550.1</ele>
        <time>2022-08-27T17:05:17Z</time>
      </trkpt>
      <trkpt lat="42.2888330" lon="-8.3066930">
        <ele>550.0</ele>
        <time>2022-08-27T17:05:18Z</time>
      </trkpt>
      <trkpt lat="42.2888260" lon="-8.3065880">
        <ele>549.9</ele>
        <time>2022-08-27T17:05:19Z</time>
      </trkpt>
      <trkpt lat="42.2888150" lon="-8.3064920">
        <ele>549.8</ele>
        <time>2022-08-27T17:05:20Z</time>
      </trkpt>
      <trkpt lat="42.2887920" lon="-8.3064000">
        <ele>549.8</ele>
        <time>2022-08-27T17:05:21Z</time>
      </trkpt>
      <trkpt lat="42.2887590" lon="-8.3063120">
        <ele>549.8</ele>
        <time>2022-08-27T17:05:22Z</time>
      </trkpt>
      <trkpt lat="42.2887160" lon="-8.3062350">
        <ele>549.8</ele>
        <time>2022-08-27T17:05:23Z</time>
      </trkpt>
      <trkpt lat="42.2886650" lon="-8.3061780">
        <ele>549.7</ele>
        <time>2022-08-27T17:05:24Z</time>
      </trkpt>
      <trkpt lat="42.2886070" lon="-8.3061380">
        <ele>549.7</ele>
        <time>2022-08-27T17:05:25Z</time>
      </trkpt>
      <trkpt lat="42.2885450" lon="-8.3061070">
        <ele>549.6</ele>
        <time>2022-08-27T17:05:26Z</time>
      </trkpt>
      <trkpt lat="42.2884840" lon="-8.3060930">
        <ele>549.5</ele>
        <time>2022-08-27T17:05:27Z</time>
      </trkpt>
      <trkpt lat="42.2884180" lon="-8.3060980">
        <ele>549.3</ele>
        <time>2022-08-27T17:05:28Z</time>
      </trkpt>
      <trkpt lat="42.2883520" lon="-8.3061110">
        <ele>549.1</ele>
        <time>2022-08-27T17:05:29Z</time>
      </trkpt>
      <trkpt lat="42.2882910" lon="-8.3061420">
        <ele>548.8</ele>
        <time>2022-08-27T17:05:30Z</time>
      </trkpt>
      <trkpt lat="42.2882360" lon="-8.3061960">
        <ele>548.5</ele>
        <time>2022-08-27T17:05:31Z</time>
      </trkpt>
      <trkpt lat="42.2881880" lon="-8.3062630">
        <ele>548.1</ele>
        <time>2022-08-27T17:05:32Z</time>
      </trkpt>
      <trkpt lat="42.2881470" lon="-8.3063390">
        <ele>547.7</ele>
        <time>2022-08-27T17:05:33Z</time>
      </trkpt>
      <trkpt lat="42.2881140" lon="-8.3064270">
        <ele>547.3</ele>
        <time>2022-08-27T17:05:34Z</time>
      </trkpt>
      <trkpt lat="42.2880840" lon="-8.3065190">
        <ele>546.8</ele>
        <time>2022-08-27T17:05:35Z</time>
      </trkpt>
      <trkpt lat="42.2880560" lon="-8.3066140">
        <ele>546.7</ele>
        <time>2022-08-27T17:05:36Z</time>
      </trkpt>
      <trkpt lat="42.2880250" lon="-8.3067140">
        <ele>546.1</ele>
        <time>2022-08-27T17:05:37Z</time>
      </trkpt>
      <trkpt lat="42.2879880" lon="-8.3068160">
        <ele>545.5</ele>
        <time>2022-08-27T17:05:38Z</time>
      </trkpt>
      <trkpt lat="42.2879550" lon="-8.3069230">
        <ele>544.9</ele>
        <time>2022-08-27T17:05:39Z</time>
      </trkpt>
      <trkpt lat="42.2879240" lon="-8.3070350">
        <ele>544.5</ele>
        <time>2022-08-27T17:05:40Z</time>
      </trkpt>
      <trkpt lat="42.2878960" lon="-8.3071440">
        <ele>544.1</ele>
        <time>2022-08-27T17:05:41Z</time>
      </trkpt>
      <trkpt lat="42.2878660" lon="-8.3072500">
        <ele>543.8</ele>
        <time>2022-08-27T17:05:42Z</time>
      </trkpt>
      <trkpt lat="42.2878400" lon="-8.3073540">
        <ele>543.5</ele>
        <time>2022-08-27T17:05:43Z</time>
      </trkpt>
      <trkpt lat="42.2878120" lon="-8.3074490">
        <ele>543.3</ele>
        <time>2022-08-27T17:05:44Z</time>
      </trkpt>
      <trkpt lat="42.2877840" lon="-8.3075410">
        <ele>543.0</ele>
        <time>2022-08-27T17:05:45Z</time>
      </trkpt>
      <trkpt lat="42.2877590" lon="-8.3076370">
        <ele>542.6</ele>
        <time>2022-08-27T17:05:46Z</time>
      </trkpt>
      <trkpt lat="42.2877300" lon="-8.3077310">
        <ele>542.2</ele>
        <time>2022-08-27T17:05:47Z</time>
      </trkpt>
      <trkpt lat="42.2876980" lon="-8.3078210">
        <ele>541.6</ele>
        <time>2022-08-27T17:05:48Z</time>
      </trkpt>
      <trkpt lat="42.2876770" lon="-8.3079210">
        <ele>540.9</ele>
        <time>2022-08-27T17:05:49Z</time>
      </trkpt>
      <trkpt lat="42.2876700" lon="-8.3080380">
        <ele>540.0</ele>
        <time>2022-08-27T17:05:50Z</time>
      </trkpt>
      <trkpt lat="42.2876680" lon="-8.3081580">
        <ele>539.1</ele>
        <time>2022-08-27T17:05:51Z</time>
      </trkpt>
      <trkpt lat="42.2876680" lon="-8.3082730">
        <ele>538.1</ele>
        <time>2022-08-27T17:05:52Z</time>
      </trkpt>
      <trkpt lat="42.2876700" lon="-8.3083810">
        <ele>537.3</ele>
        <time>2022-08-27T17:05:53Z</time>
      </trkpt>
      <trkpt lat="42.2876720" lon="-8.3084860">
        <ele>536.4</ele>
        <time>2022-08-27T17:05:54Z</time>
      </trkpt>
      <trkpt lat="42.2876690" lon="-8.3085790">
        <ele>535.6</ele>
        <time>2022-08-27T17:05:55Z</time>
      </trkpt>
      <trkpt lat="42.2876760" lon="-8.3086680">
        <ele>534.8</ele>
        <time>2022-08-27T17:05:56Z</time>
      </trkpt>
      <trkpt lat="42.2877110" lon="-8.3087450">
        <ele>533.8</ele>
        <time>2022-08-27T17:05:57Z</time>
      </trkpt>
      <trkpt lat="42.2877750" lon="-8.3088130">
        <ele>532.6</ele>
        <time>2022-08-27T17:05:58Z</time>
      </trkpt>
      <trkpt lat="42.2878570" lon="-8.3088540">
        <ele>531.3</ele>
        <time>2022-08-27T17:05:59Z</time>
      </trkpt>
      <trkpt lat="42.2879470" lon="-8.3088930">
        <ele>529.8</ele>
        <time>2022-08-27T17:06:00Z</time>
      </trkpt>
      <trkpt lat="42.2880410" lon="-8.3089300">
        <ele>528.4</ele>
        <time>2022-08-27T17:06:01Z</time>
      </trkpt>
      <trkpt lat="42.2881340" lon="-8.3089700">
        <ele>527.0</ele>
        <time>2022-08-27T17:06:02Z</time>
      </trkpt>
      <trkpt lat="42.2882250" lon="-8.3090100">
        <ele>525.7</ele>
        <time>2022-08-27T17:06:03Z</time>
      </trkpt>
      <trkpt lat="42.2883220" lon="-8.3090590">
        <ele>524.2</ele>
        <time>2022-08-27T17:06:04Z</time>
      </trkpt>
      <trkpt lat="42.2884110" lon="-8.3091170">
        <ele>522.8</ele>
        <time>2022-08-27T17:06:05Z</time>
      </trkpt>
      <trkpt lat="42.2884850" lon="-8.3091720">
        <ele>521.5</ele>
        <time>2022-08-27T17:06:06Z</time>
      </trkpt>
      <trkpt lat="42.2885450" lon="-8.3092440">
        <ele>520.3</ele>
        <time>2022-08-27T17:06:07Z</time>
      </trkpt>
      <trkpt lat="42.2885830" lon="-8.3093510">
        <ele>519.1</ele>
        <time>2022-08-27T17:06:08Z</time>
      </trkpt>
      <trkpt lat="42.2885930" lon="-8.3094810">
        <ele>517.9</ele>
        <time>2022-08-27T17:06:09Z</time>
      </trkpt>
      <trkpt lat="42.2885780" lon="-8.3096050">
        <ele>517.1</ele>
        <time>2022-08-27T17:06:10Z</time>
      </trkpt>
      <trkpt lat="42.2885490" lon="-8.3097290">
        <ele>516.6</ele>
        <time>2022-08-27T17:06:11Z</time>
      </trkpt>
      <trkpt lat="42.2885250" lon="-8.3098470">
        <ele>516.3</ele>
        <time>2022-08-27T17:06:12Z</time>
      </trkpt>
      <trkpt lat="42.2884980" lon="-8.3099550">
        <ele>516.2</ele>
        <time>2022-08-27T17:06:13Z</time>
      </trkpt>
      <trkpt lat="42.2884670" lon="-8.3100540">
        <ele>516.1</ele>
        <time>2022-08-27T17:06:14Z</time>
      </trkpt>
      <trkpt lat="42.2884390" lon="-8.3101500">
        <ele>516.1</ele>
        <time>2022-08-27T17:06:15Z</time>
      </trkpt>
      <trkpt lat="42.2884070" lon="-8.3102460">
        <ele>516.1</ele>
        <time>2022-08-27T17:06:16Z</time>
      </trkpt>
      <trkpt lat="42.2883760" lon="-8.3103320">
        <ele>516.2</ele>
        <time>2022-08-27T17:06:17Z</time>
      </trkpt>
      <trkpt lat="42.2883500" lon="-8.3104090">
        <ele>516.2</ele>
        <time>2022-08-27T17:06:18Z</time>
      </trkpt>
      <trkpt lat="42.2883200" lon="-8.3104880">
        <ele>516.2</ele>
        <time>2022-08-27T17:06:19Z</time>
      </trkpt>
      <trkpt lat="42.2882850" lon="-8.3105620">
        <ele>516.2</ele>
        <time>2022-08-27T17:06:20Z</time>
      </trkpt>
      <trkpt lat="42.2882510" lon="-8.3106240">
        <ele>516.2</ele>
        <time>2022-08-27T17:06:21Z</time>
      </trkpt>
      <trkpt lat="42.2882180" lon="-8.3106820">
        <ele>516.2</ele>
        <time>2022-08-27T17:06:22Z</time>
      </trkpt>
      <trkpt lat="42.2881890" lon="-8.3107450">
        <ele>516.2</ele>
        <time>2022-08-27T17:06:23Z</time>
      </trkpt>
      <trkpt lat="42.2881540" lon="-8.3108140">
        <ele>516.1</ele>
        <time>2022-08-27T17:06:24Z</time>
      </trkpt>
      <trkpt lat="42.2881170" lon="-8.3108760">
        <ele>516.1</ele>
        <time>2022-08-27T17:06:25Z</time>
      </trkpt>
      <trkpt lat="42.2880780" lon="-8.3109410">
        <ele>516.1</ele>
        <time>2022-08-27T17:06:26Z</time>
      </trkpt>
      <trkpt lat="42.2880410" lon="-8.3110100">
        <ele>516.0</ele>
        <time>2022-08-27T17:06:27Z</time>
      </trkpt>
      <trkpt lat="42.2880020" lon="-8.3110750">
        <ele>516.0</ele>
        <time>2022-08-27T17:06:28Z</time>
      </trkpt>
      <trkpt lat="42.2879620" lon="-8.3111390">
        <ele>516.1</ele>
        <time>2022-08-27T17:06:29Z</time>
      </trkpt>
      <trkpt lat="42.2879250" lon="-8.3112030">
        <ele>516.1</ele>
        <time>2022-08-27T17:06:30Z</time>
      </trkpt>
      <trkpt lat="42.2878880" lon="-8.3112630">
        <ele>516.2</ele>
        <time>2022-08-27T17:06:31Z</time>
      </trkpt>
      <trkpt lat="42.2878550" lon="-8.3113230">
        <ele>516.3</ele>
        <time>2022-08-27T17:06:32Z</time>
      </trkpt>
      <trkpt lat="42.2878240" lon="-8.3113800">
        <ele>516.4</ele>
        <time>2022-08-27T17:06:33Z</time>
      </trkpt>
      <trkpt lat="42.2877970" lon="-8.3114350">
        <ele>516.6</ele>
        <time>2022-08-27T17:06:34Z</time>
      </trkpt>
      <trkpt lat="42.2877690" lon="-8.3114930">
        <ele>516.7</ele>
        <time>2022-08-27T17:06:35Z</time>
      </trkpt>
      <trkpt lat="42.2877410" lon="-8.3115460">
        <ele>516.9</ele>
        <time>2022-08-27T17:06:36Z</time>
      </trkpt>
      <trkpt lat="42.2877100" lon="-8.3116120">
        <ele>517.2</ele>
        <time>2022-08-27T17:06:37Z</time>
      </trkpt>
      <trkpt lat="42.2876900" lon="-8.3116680">
        <ele>517.4</ele>
        <time>2022-08-27T17:06:38Z</time>
      </trkpt>
      <trkpt lat="42.2876810" lon="-8.3117240">
        <ele>517.7</ele>
        <time>2022-08-27T17:06:39Z</time>
      </trkpt>
      <trkpt lat="42.2876760" lon="-8.3117610">
        <ele>517.8</ele>
        <time>2022-08-27T17:06:40Z</time>
      </trkpt>
      <trkpt lat="42.2876640" lon="-8.3118220">
        <ele>518.1</ele>
        <time>2022-08-27T17:06:41Z</time>
      </trkpt>
      <trkpt lat="42.2876570" lon="-8.3118750">
        <ele>518.4</ele>
        <time>2022-08-27T17:06:42Z</time>
      </trkpt>
      <trkpt lat="42.2876570" lon="-8.3119220">
        <ele>518.6</ele>
        <time>2022-08-27T17:06:43Z</time>
      </trkpt>
      <trkpt lat="42.2876570" lon="-8.3119610">
        <ele>518.8</ele>
        <time>2022-08-27T17:06:44Z</time>
      </trkpt>
      <trkpt lat="42.2876630" lon="-8.3120180">
        <ele>519.0</ele>
        <time>2022-08-27T17:06:45Z</time>
      </trkpt>
      <trkpt lat="42.2876780" lon="-8.3120760">
        <ele>519.3</ele>
        <time>2022-08-27T17:06:46Z</time>
      </trkpt>
      <trkpt lat="42.2876900" lon="-8.3121180">
        <ele>519.5</ele>
        <time>2022-08-27T17:06:47Z</time>
      </trkpt>
      <trkpt lat="42.2876930" lon="-8.3121390">
        <ele>519.6</ele>
        <time>2022-08-27T17:06:48Z</time>
      </trkpt>
      <trkpt lat="42.2877070" lon="-8.3121840">
        <ele>519.8</ele>
        <time>2022-08-27T17:06:49Z</time>
      </trkpt>
      <trkpt lat="42.2877140" lon="-8.3121960">
        <ele>519.9</ele>
        <time>2022-08-27T17:06:50Z</time>
      </trkpt>
      <trkpt lat="42.2877350" lon="-8.3122320">
        <ele>520.1</ele>
        <time>2022-08-27T17:06:51Z</time>
      </trkpt>
      <trkpt lat="42.2877620" lon="-8.3122740">
        <ele>520.3</ele>
        <time>2022-08-27T17:06:52Z</time>
      </trkpt>
      <trkpt lat="42.2877840" lon="-8.3123120">
        <ele>520.6</ele>
        <time>2022-08-27T17:06:53Z</time>
      </trkpt>
      <trkpt lat="42.2877990" lon="-8.3123450">
        <ele>520.7</ele>
        <time>2022-08-27T17:06:54Z</time>
      </trkpt>
      <trkpt lat="42.2878200" lon="-8.3123970">
        <ele>521.0</ele>
        <time>2022-08-27T17:06:55Z</time>
      </trkpt>
      <trkpt lat="42.2878280" lon="-8.3124160">
        <ele>521.1</ele>
        <time>2022-08-27T17:06:56Z</time>
      </trkpt>
      <trkpt lat="42.2878490" lon="-8.3124600">
        <ele>521.4</ele>
        <time>2022-08-27T17:06:57Z</time>
      </trkpt>
      <trkpt lat="42.2878560" lon="-8.3124740">
        <ele>521.5</ele>
        <time>2022-08-27T17:06:58Z</time>
      </trkpt>
      <trkpt lat="42.2878680" lon="-8.3125110">
        <ele>521.7</ele>
        <time>2022-08-27T17:06:59Z</time>
      </trkpt>
      <trkpt lat="42.2878840" lon="-8.3125670">
        <ele>522.0</ele>
        <time>2022-08-27T17:07:00Z</time>
      </trkpt>
      <trkpt lat="42.2878890" lon="-8.3125910">
        <ele>522.1</ele>
        <time>2022-08-27T17:07:01Z</time>
      </trkpt>
      <trkpt lat="42.2878990" lon="-8.3126270">
        <ele>522.3</ele>
        <time>2022-08-27T17:07:02Z</time>
      </trkpt>
      <trkpt lat="42.2879080" lon="-8.3126660">
        <ele>522.5</ele>
        <time>2022-08-27T17:07:03Z</time>
      </trkpt>
      <trkpt lat="42.2879200" lon="-8.3127130">
        <ele>522.7</ele>
        <time>2022-08-27T17:07:04Z</time>
      </trkpt>
      <trkpt lat="42.2879230" lon="-8.3127270">
        <ele>522.8</ele>
        <time>2022-08-27T17:07:05Z</time>
      </trkpt>
      <trkpt lat="42.2879340" lon="-8.3127640">
        <ele>523.0</ele>
        <time>2022-08-27T17:07:06Z</time>
      </trkpt>
      <trkpt lat="42.2879450" lon="-8.3127990">
        <ele>523.1</ele>
        <time>2022-08-27T17:07:07Z</time>
      </trkpt>
      <trkpt lat="42.2879560" lon="-8.3128380">
        <ele>523.3</ele>
        <time>2022-08-27T17:07:08Z</time>
      </trkpt>
      <trkpt lat="42.2879690" lon="-8.3128820">
        <ele>523.5</ele>
        <time>2022-08-27T17:07:09Z</time>
      </trkpt>
      <trkpt lat="42.2879800" lon="-8.3129200">
        <ele>523.7</ele>
        <time>2022-08-27T17:07:10Z</time>
      </trkpt>
      <trkpt lat="42.2879890" lon="-8.3129580">
        <ele>523.8</ele>
        <time>2022-08-27T17:07:11Z</time>
      </trkpt>
      <trkpt lat="42.2879950" lon="-8.3129980">
        <ele>523.7</ele>
        <time>2022-08-27T17:07:12Z</time>
      </trkpt>
      <trkpt lat="42.2879970" lon="-8.3130390">
        <ele>523.7</ele>
        <time>2022-08-27T17:07:13Z</time>
      </trkpt>
      <trkpt lat="42.2880000" lon="-8.3130780">
        <ele>523.6</ele>
        <time>2022-08-27T17:07:14Z</time>
      </trkpt>
      <trkpt lat="42.2880160" lon="-8.3131310">
        <ele>523.6</ele>
        <time>2022-08-27T17:07:15Z</time>
      </trkpt>
      <trkpt lat="42.2880220" lon="-8.3131520">
        <ele>523.5</ele>
        <time>2022-08-27T17:07:16Z</time>
      </trkpt>
      <trkpt lat="42.2880350" lon="-8.3131990">
        <ele>523.4</ele>
        <time>2022-08-27T17:07:17Z</time>
      </trkpt>
      <trkpt lat="42.2880420" lon="-8.3132460">
        <ele>523.3</ele>
        <time>2022-08-27T17:07:18Z</time>
      </trkpt>
      <trkpt lat="42.2880480" lon="-8.3132940">
        <ele>523.2</ele>
        <time>2022-08-27T17:07:19Z</time>
      </trkpt>
      <trkpt lat="42.2880530" lon="-8.3133780">
        <ele>522.9</ele>
        <time>2022-08-27T17:07:20Z</time>
      </trkpt>
      <trkpt lat="42.2880710" lon="-8.3134550">
        <ele>522.6</ele>
        <time>2022-08-27T17:07:21Z</time>
      </trkpt>
      <trkpt lat="42.2880850" lon="-8.3135330">
        <ele>522.3</ele>
        <time>2022-08-27T17:07:22Z</time>
      </trkpt>
      <trkpt lat="42.2881020" lon="-8.3136080">
        <ele>521.9</ele>
        <time>2022-08-27T17:07:23Z</time>
      </trkpt>
      <trkpt lat="42.2881250" lon="-8.3136840">
        <ele>521.6</ele>
        <time>2022-08-27T17:07:24Z</time>
      </trkpt>
      <trkpt lat="42.2881470" lon="-8.3137620">
        <ele>521.2</ele>
        <time>2022-08-27T17:07:25Z</time>
      </trkpt>
      <trkpt lat="42.2881600" lon="-8.3138510">
        <ele>520.7</ele>
        <time>2022-08-27T17:07:26Z</time>
      </trkpt>
      <trkpt lat="42.2881690" lon="-8.3139420">
        <ele>520.3</ele>
        <time>2022-08-27T17:07:27Z</time>
      </trkpt>
      <trkpt lat="42.2881720" lon="-8.3140450">
        <ele>519.8</ele>
        <time>2022-08-27T17:07:28Z</time>
      </trkpt>
      <trkpt lat="42.2881670" lon="-8.3141450">
        <ele>519.2</ele>
        <time>2022-08-27T17:07:29Z</time>
      </trkpt>
      <trkpt lat="42.2881360" lon="-8.3142390">
        <ele>518.7</ele>
        <time>2022-08-27T17:07:30Z</time>
      </trkpt>
      <trkpt lat="42.2880760" lon="-8.3143230">
        <ele>518.0</ele>
        <time>2022-08-27T17:07:31Z</time>
      </trkpt>
      <trkpt lat="42.2879930" lon="-8.3143740">
        <ele>517.3</ele>
        <time>2022-08-27T17:07:32Z</time>
      </trkpt>
      <trkpt lat="42.2879090" lon="-8.3144160">
        <ele>516.6</ele>
        <time>2022-08-27T17:07:33Z</time>
      </trkpt>
      <trkpt lat="42.2878230" lon="-8.3144480">
        <ele>515.9</ele>
        <time>2022-08-27T17:07:34Z</time>
      </trkpt>
      <trkpt lat="42.2877350" lon="-8.3144660">
        <ele>515.3</ele>
        <time>2022-08-27T17:07:35Z</time>
      </trkpt>
      <trkpt lat="42.2876490" lon="-8.3144800">
        <ele>514.6</ele>
        <time>2022-08-27T17:07:36Z</time>
      </trkpt>
      <trkpt lat="42.2875560" lon="-8.3144900">
        <ele>514.0</ele>
        <time>2022-08-27T17:07:37Z</time>
      </trkpt>
      <trkpt lat="42.2874540" lon="-8.3144960">
        <ele>513.3</ele>
        <time>2022-08-27T17:07:38Z</time>
      </trkpt>
      <trkpt lat="42.2873510" lon="-8.3145080">
        <ele>512.6</ele>
        <time>2022-08-27T17:07:39Z</time>
      </trkpt>
      <trkpt lat="42.2872460" lon="-8.3145170">
        <ele>511.8</ele>
        <time>2022-08-27T17:07:40Z</time>
      </trkpt>
      <trkpt lat="42.2871400" lon="-8.3145340">
        <ele>511.1</ele>
        <time>2022-08-27T17:07:41Z</time>
      </trkpt>
      <trkpt lat="42.2870370" lon="-8.3145580">
        <ele>510.3</ele>
        <time>2022-08-27T17:07:42Z</time>
      </trkpt>
      <trkpt lat="42.2869350" lon="-8.3145800">
        <ele>509.5</ele>
        <time>2022-08-27T17:07:43Z</time>
      </trkpt>
      <trkpt lat="42.2868270" lon="-8.3145940">
        <ele>508.7</ele>
        <time>2022-08-27T17:07:44Z</time>
      </trkpt>
      <trkpt lat="42.2867230" lon="-8.3146260">
        <ele>508.1</ele>
        <time>2022-08-27T17:07:45Z</time>
      </trkpt>
      <trkpt lat="42.2866250" lon="-8.3146700">
        <ele>507.6</ele>
        <time>2022-08-27T17:07:46Z</time>
      </trkpt>
      <trkpt lat="42.2865210" lon="-8.3147100">
        <ele>507.1</ele>
        <time>2022-08-27T17:07:47Z</time>
      </trkpt>
      <trkpt lat="42.2864150" lon="-8.3147510">
        <ele>506.6</ele>
        <time>2022-08-27T17:07:48Z</time>
      </trkpt>
      <trkpt lat="42.2863060" lon="-8.3147830">
        <ele>506.0</ele>
        <time>2022-08-27T17:07:49Z</time>
      </trkpt>
      <trkpt lat="42.2862100" lon="-8.3148050">
        <ele>505.6</ele>
        <time>2022-08-27T17:07:50Z</time>
      </trkpt>
      <trkpt lat="42.2861140" lon="-8.3148470">
        <ele>505.1</ele>
        <time>2022-08-27T17:07:51Z</time>
      </trkpt>
      <trkpt lat="42.2860220" lon="-8.3149160">
        <ele>504.6</ele>
        <time>2022-08-27T17:07:52Z</time>
      </trkpt>
      <trkpt lat="42.2859420" lon="-8.3149880">
        <ele>504.2</ele>
        <time>2022-08-27T17:07:53Z</time>
      </trkpt>
      <trkpt lat="42.2858650" lon="-8.3150540">
        <ele>503.7</ele>
        <time>2022-08-27T17:07:54Z</time>
      </trkpt>
      <trkpt lat="42.2857780" lon="-8.3151420">
        <ele>503.3</ele>
        <time>2022-08-27T17:07:55Z</time>
      </trkpt>
      <trkpt lat="42.2857030" lon="-8.3152280">
        <ele>502.9</ele>
        <time>2022-08-27T17:07:56Z</time>
      </trkpt>
      <trkpt lat="42.2856330" lon="-8.3153030">
        <ele>502.6</ele>
        <time>2022-08-27T17:07:57Z</time>
      </trkpt>
      <trkpt lat="42.2855540" lon="-8.3153510">
        <ele>502.4</ele>
        <time>2022-08-27T17:07:58Z</time>
      </trkpt>
      <trkpt lat="42.2854620" lon="-8.3153760">
        <ele>502.2</ele>
        <time>2022-08-27T17:07:59Z</time>
      </trkpt>
      <trkpt lat="42.2853630" lon="-8.3153900">
        <ele>502.0</ele>
        <time>2022-08-27T17:08:00Z</time>
      </trkpt>
      <trkpt lat="42.2852640" lon="-8.3154040">
        <ele>501.9</ele>
        <time>2022-08-27T17:08:01Z</time>
      </trkpt>
      <trkpt lat="42.2851750" lon="-8.3154080">
        <ele>501.8</ele>
        <time>2022-08-27T17:08:02Z</time>
      </trkpt>
      <trkpt lat="42.2850880" lon="-8.3154230">
        <ele>501.9</ele>
        <time>2022-08-27T17:08:03Z</time>
      </trkpt>
      <trkpt lat="42.2850080" lon="-8.3154370">
        <ele>501.9</ele>
        <time>2022-08-27T17:08:04Z</time>
      </trkpt>
      <trkpt lat="42.2849340" lon="-8.3154460">
        <ele>501.9</ele>
        <time>2022-08-27T17:08:05Z</time>
      </trkpt>
      <trkpt lat="42.2848680" lon="-8.3154550">
        <ele>501.9</ele>
        <time>2022-08-27T17:08:06Z</time>
      </trkpt>
      <trkpt lat="42.2848060" lon="-8.3154620">
        <ele>501.9</ele>
        <time>2022-08-27T17:08:07Z</time>
      </trkpt>
      <trkpt lat="42.2847460" lon="-8.3154690">
        <ele>501.9</ele>
        <time>2022-08-27T17:08:08Z</time>
      </trkpt>
      <trkpt lat="42.2846860" lon="-8.3154720">
        <ele>501.8</ele>
        <time>2022-08-27T17:08:09Z</time>
      </trkpt>
      <trkpt lat="42.2846280" lon="-8.3154690">
        <ele>501.7</ele>
        <time>2022-08-27T17:08:10Z</time>
      </trkpt>
      <trkpt lat="42.2845640" lon="-8.3154620">
        <ele>501.5</ele>
        <time>2022-08-27T17:08:11Z</time>
      </trkpt>
      <trkpt lat="42.2845060" lon="-8.3154480">
        <ele>501.2</ele>
        <time>2022-08-27T17:08:12Z</time>
      </trkpt>
      <trkpt lat="42.2844440" lon="-8.3154260">
        <ele>500.9</ele>
        <time>2022-08-27T17:08:13Z</time>
      </trkpt>
      <trkpt lat="42.2843750" lon="-8.3154020">
        <ele>500.5</ele>
        <time>2022-08-27T17:08:14Z</time>
      </trkpt>
      <trkpt lat="42.2843000" lon="-8.3153530">
        <ele>500.1</ele>
        <time>2022-08-27T17:08:15Z</time>
      </trkpt>
      <trkpt lat="42.2842210" lon="-8.3153160">
        <ele>499.6</ele>
        <time>2022-08-27T17:08:16Z</time>
      </trkpt>
      <trkpt lat="42.2841450" lon="-8.3152940">
        <ele>499.1</ele>
        <time>2022-08-27T17:08:17Z</time>
      </trkpt>
      <trkpt lat="42.2840640" lon="-8.3152970">
        <ele>498.6</ele>
        <time>2022-08-27T17:08:18Z</time>
      </trkpt>
      <trkpt lat="42.2839720" lon="-8.3153180">
        <ele>498.1</ele>
        <time>2022-08-27T17:08:19Z</time>
      </trkpt>
      <trkpt lat="42.2838860" lon="-8.3153360">
        <ele>497.6</ele>
        <time>2022-08-27T17:08:20Z</time>
      </trkpt>
      <trkpt lat="42.2838070" lon="-8.3153620">
        <ele>497.1</ele>
        <time>2022-08-27T17:08:21Z</time>
      </trkpt>
      <trkpt lat="42.2837380" lon="-8.3153850">
        <ele>496.7</ele>
        <time>2022-08-27T17:08:22Z</time>
      </trkpt>
      <trkpt lat="42.2836700" lon="-8.3154090">
        <ele>496.2</ele>
        <time>2022-08-27T17:08:23Z</time>
      </trkpt>
      <trkpt lat="42.2836020" lon="-8.3154500">
        <ele>495.7</ele>
        <time>2022-08-27T17:08:24Z</time>
      </trkpt>
      <trkpt lat="42.2835330" lon="-8.3155040">
        <ele>495.1</ele>
        <time>2022-08-27T17:08:25Z</time>
      </trkpt>
      <trkpt lat="42.2834640" lon="-8.3155840">
        <ele>494.4</ele>
        <time>2022-08-27T17:08:26Z</time>
      </trkpt>
      <trkpt lat="42.2834030" lon="-8.3156880">
        <ele>493.6</ele>
        <time>2022-08-27T17:08:27Z</time>
      </trkpt>
      <trkpt lat="42.2833750" lon="-8.3158310">
        <ele>492.6</ele>
        <time>2022-08-27T17:08:28Z</time>
      </trkpt>
      <trkpt lat="42.2833540" lon="-8.3159790">
        <ele>491.7</ele>
        <time>2022-08-27T17:08:29Z</time>
      </trkpt>
      <trkpt lat="42.2833260" lon="-8.3161080">
        <ele>490.8</ele>
        <time>2022-08-27T17:08:30Z</time>
      </trkpt>
      <trkpt lat="42.2832910" lon="-8.3162340">
        <ele>489.8</ele>
        <time>2022-08-27T17:08:31Z</time>
      </trkpt>
      <trkpt lat="42.2832300" lon="-8.3163510">
        <ele>488.8</ele>
        <time>2022-08-27T17:08:32Z</time>
      </trkpt>
      <trkpt lat="42.2831630" lon="-8.3164710">
        <ele>487.7</ele>
        <time>2022-08-27T17:08:33Z</time>
      </trkpt>
      <trkpt lat="42.2830790" lon="-8.3165790">
        <ele>486.5</ele>
        <time>2022-08-27T17:08:34Z</time>
      </trkpt>
      <trkpt lat="42.2829960" lon="-8.3166740">
        <ele>485.5</ele>
        <time>2022-08-27T17:08:35Z</time>
      </trkpt>
      <trkpt lat="42.2829210" lon="-8.3167500">
        <ele>484.6</ele>
        <time>2022-08-27T17:08:36Z</time>
      </trkpt>
      <trkpt lat="42.2828560" lon="-8.3168290">
        <ele>483.7</ele>
        <time>2022-08-27T17:08:37Z</time>
      </trkpt>
      <trkpt lat="42.2827790" lon="-8.3168990">
        <ele>482.9</ele>
        <time>2022-08-27T17:08:38Z</time>
      </trkpt>
      <trkpt lat="42.2826950" lon="-8.3169630">
        <ele>482.0</ele>
        <time>2022-08-27T17:08:39Z</time>
      </trkpt>
      <trkpt lat="42.2826000" lon="-8.3170020">
        <ele>481.1</ele>
        <time>2022-08-27T17:08:40Z</time>
      </trkpt>
      <trkpt lat="42.2824960" lon="-8.3170330">
        <ele>480.1</ele>
        <time>2022-08-27T17:08:41Z</time>
      </trkpt>
      <trkpt lat="42.2823910" lon="-8.3170440">
        <ele>479.1</ele>
        <time>2022-08-27T17:08:42Z</time>
      </trkpt>
      <trkpt lat="42.2822780" lon="-8.3170320">
        <ele>478.0</ele>
        <time>2022-08-27T17:08:43Z</time>
      </trkpt>
      <trkpt lat="42.2821660" lon="-8.3170070">
        <ele>476.9</ele>
        <time>2022-08-27T17:08:44Z</time>
      </trkpt>
      <trkpt lat="42.2820610" lon="-8.3169890">
        <ele>475.9</ele>
        <time>2022-08-27T17:08:45Z</time>
      </trkpt>
      <trkpt lat="42.2819560" lon="-8.3169730">
        <ele>474.9</ele>
        <time>2022-08-27T17:08:46Z</time>
      </trkpt>
      <trkpt lat="42.2818580" lon="-8.3169670">
        <ele>474.0</ele>
        <time>2022-08-27T17:08:47Z</time>
      </trkpt>
      <trkpt lat="42.2817630" lon="-8.3169710">
        <ele>473.3</ele>
        <time>2022-08-27T17:08:48Z</time>
      </trkpt>
      <trkpt lat="42.2816760" lon="-8.3169880">
        <ele>472.6</ele>
        <time>2022-08-27T17:08:49Z</time>
      </trkpt>
      <trkpt lat="42.2815960" lon="-8.3170140">
        <ele>472.0</ele>
        <time>2022-08-27T17:08:50Z</time>
      </trkpt>
      <trkpt lat="42.2815200" lon="-8.3170420">
        <ele>471.4</ele>
        <time>2022-08-27T17:08:51Z</time>
      </trkpt>
      <trkpt lat="42.2814470" lon="-8.3170860">
        <ele>470.9</ele>
        <time>2022-08-27T17:08:52Z</time>
      </trkpt>
      <trkpt lat="42.2813890" lon="-8.3171560">
        <ele>470.3</ele>
        <time>2022-08-27T17:08:53Z</time>
      </trkpt>
      <trkpt lat="42.2813450" lon="-8.3172560">
        <ele>469.7</ele>
        <time>2022-08-27T17:08:54Z</time>
      </trkpt>
      <trkpt lat="42.2813240" lon="-8.3173680">
        <ele>469.3</ele>
        <time>2022-08-27T17:08:55Z</time>
      </trkpt>
      <trkpt lat="42.2813060" lon="-8.3174580">
        <ele>469.2</ele>
        <time>2022-08-27T17:08:56Z</time>
      </trkpt>
      <trkpt lat="42.2812920" lon="-8.3175380">
        <ele>469.2</ele>
        <time>2022-08-27T17:08:57Z</time>
      </trkpt>
      <trkpt lat="42.2812800" lon="-8.3176170">
        <ele>469.4</ele>
        <time>2022-08-27T17:08:58Z</time>
      </trkpt>
      <trkpt lat="42.2812800" lon="-8.3176880">
        <ele>469.6</ele>
        <time>2022-08-27T17:08:59Z</time>
      </trkpt>
      <trkpt lat="42.2812910" lon="-8.3177450">
        <ele>469.7</ele>
        <time>2022-08-27T17:09:00Z</time>
      </trkpt>
      <trkpt lat="42.2813080" lon="-8.3177850">
        <ele>469.9</ele>
        <time>2022-08-27T17:09:01Z</time>
      </trkpt>
      <trkpt lat="42.2813370" lon="-8.3178200">
        <ele>470.0</ele>
        <time>2022-08-27T17:09:02Z</time>
      </trkpt>
      <trkpt lat="42.2813720" lon="-8.3178400">
        <ele>470.2</ele>
        <time>2022-08-27T17:09:03Z</time>
      </trkpt>
      <trkpt lat="42.2813970" lon="-8.3178550">
        <ele>470.3</ele>
        <time>2022-08-27T17:09:04Z</time>
      </trkpt>
      <trkpt lat="42.2813990" lon="-8.3178680">
        <ele>470.3</ele>
        <time>2022-08-27T17:09:05Z</time>
      </trkpt>
      <trkpt lat="42.2813980" lon="-8.3178730">
        <ele>470.3</ele>
        <time>2022-08-27T17:09:06Z</time>
      </trkpt>
      <trkpt lat="42.2813950" lon="-8.3178760">
        <ele>470.3</ele>
        <time>2022-08-27T17:09:07Z</time>
      </trkpt>
      <trkpt lat="42.2813900" lon="-8.3178730">
        <ele>470.3</ele>
        <time>2022-08-27T17:09:08Z</time>
      </trkpt>
      <trkpt lat="42.2813770" lon="-8.3178660">
        <ele>470.4</ele>
        <time>2022-08-27T17:09:09Z</time>
      </trkpt>
      <trkpt lat="42.2813770" lon="-8.3178610">
        <ele>470.4</ele>
        <time>2022-08-27T17:09:10Z</time>
      </trkpt>
      <trkpt lat="42.2813790" lon="-8.3178530">
        <ele>470.4</ele>
        <time>2022-08-27T17:09:11Z</time>
      </trkpt>
      <trkpt lat="42.2813860" lon="-8.3178430">
        <ele>470.5</ele>
        <time>2022-08-27T17:09:12Z</time>
      </trkpt>
      <trkpt lat="42.2813900" lon="-8.3178410">
        <ele>470.5</ele>
        <time>2022-08-27T17:09:13Z</time>
      </trkpt>
      <trkpt lat="42.2813930" lon="-8.3178390">
        <ele>470.5</ele>
        <time>2022-08-27T17:09:14Z</time>
      </trkpt>
      <trkpt lat="42.2813960" lon="-8.3178360">
        <ele>470.5</ele>
        <time>2022-08-27T17:09:15Z</time>
      </trkpt>
      <trkpt lat="42.2813980" lon="-8.3178370">
        <ele>470.5</ele>
        <time>2022-08-27T17:09:16Z</time>
      </trkpt>
      <trkpt lat="42.2813950" lon="-8.3178400">
        <ele>470.5</ele>
        <time>2022-08-27T17:09:17Z</time>
      </trkpt>
      <trkpt lat="42.2813910" lon="-8.3178430">
        <ele>470.5</ele>
        <time>2022-08-27T17:09:18Z</time>
      </trkpt>
      <trkpt lat="42.2813880" lon="-8.3178430">
        <ele>470.5</ele>
        <time>2022-08-27T17:09:19Z</time>
      </trkpt>
      <trkpt lat="42.2813850" lon="-8.3178440">
        <ele>470.6</ele>
        <time>2022-08-27T17:09:20Z</time>
      </trkpt>
      <trkpt lat="42.2813850" lon="-8.3178440">
        <ele>470.6</ele>
        <time>2022-08-27T17:09:21Z</time>
      </trkpt>
      <trkpt lat="42.2813850" lon="-8.3178440">
        <ele>470.6</ele>
        <time>2022-08-27T17:09:22Z</time>
      </trkpt>
      <trkpt lat="42.2813850" lon="-8.3178440">
        <ele>470.6</ele>
        <time>2022-08-27T17:09:23Z</time>
      </trkpt>
      <trkpt lat="42.2813850" lon="-8.3178450">
        <ele>470.6</ele>
        <time>2022-08-27T17:09:24Z</time>
      </trkpt>
      <trkpt lat="42.2813840" lon="-8.3178470">
        <ele>470.6</ele>
        <time>2022-08-27T17:09:25Z</time>
      </trkpt>
      <trkpt lat="42.2814230" lon="-8.3178970">
        <ele>470.7</ele>
        <time>2022-08-27T17:11:12Z</time>
      </trkpt>
      <trkpt lat="42.2814410" lon="-8.3179020">
        <ele>470.8</ele>
        <time>2022-08-27T17:11:13Z</time>
      </trkpt>
      <trkpt lat="42.2814570" lon="-8.3179080">
        <ele>470.9</ele>
        <time>2022-08-27T17:11:14Z</time>
      </trkpt>
      <trkpt lat="42.2814740" lon="-8.3179160">
        <ele>470.9</ele>
        <time>2022-08-27T17:11:15Z</time>
      </trkpt>
      <trkpt lat="42.2814890" lon="-8.3179270">
        <ele>471.0</ele>
        <time>2022-08-27T17:11:16Z</time>
      </trkpt>
      <trkpt lat="42.2815020" lon="-8.3179380">
        <ele>471.1</ele>
        <time>2022-08-27T17:11:17Z</time>
      </trkpt>
      <trkpt lat="42.2815080" lon="-8.3179410">
        <ele>471.1</ele>
        <time>2022-08-27T17:11:18Z</time>
      </trkpt>
      <trkpt lat="42.2815210" lon="-8.3179470">
        <ele>471.1</ele>
        <time>2022-08-27T17:11:19Z</time>
      </trkpt>
      <trkpt lat="42.2815490" lon="-8.3179550">
        <ele>471.2</ele>
        <time>2022-08-27T17:11:20Z</time>
      </trkpt>
      <trkpt lat="42.2815880" lon="-8.3179570">
        <ele>471.4</ele>
        <time>2022-08-27T17:11:21Z</time>
      </trkpt>
      <trkpt lat="42.2816010" lon="-8.3179580">
        <ele>471.5</ele>
        <time>2022-08-27T17:11:22Z</time>
      </trkpt>
      <trkpt lat="42.2816330" lon="-8.3179660">
        <ele>471.6</ele>
        <time>2022-08-27T17:11:23Z</time>
      </trkpt>
      <trkpt lat="42.2816420" lon="-8.3179700">
        <ele>471.6</ele>
        <time>2022-08-27T17:11:24Z</time>
      </trkpt>
      <trkpt lat="42.2816750" lon="-8.3179860">
        <ele>471.8</ele>
        <time>2022-08-27T17:11:25Z</time>
      </trkpt>
      <trkpt lat="42.2816860" lon="-8.3179890">
        <ele>471.8</ele>
        <time>2022-08-27T17:11:26Z</time>
      </trkpt>
      <trkpt lat="42.2817130" lon="-8.3179960">
        <ele>472.0</ele>
        <time>2022-08-27T17:11:27Z</time>
      </trkpt>
      <trkpt lat="42.2817220" lon="-8.3179970">
        <ele>472.0</ele>
        <time>2022-08-27T17:11:28Z</time>
      </trkpt>
      <trkpt lat="42.2817440" lon="-8.3180040">
        <ele>472.1</ele>
        <time>2022-08-27T17:11:29Z</time>
      </trkpt>
      <trkpt lat="42.2817520" lon="-8.3180080">
        <ele>472.2</ele>
        <time>2022-08-27T17:11:30Z</time>
      </trkpt>
      <trkpt lat="42.2817590" lon="-8.3180110">
        <ele>472.2</ele>
        <time>2022-08-27T17:11:31Z</time>
      </trkpt>
      <trkpt lat="42.2817730" lon="-8.3180140">
        <ele>472.3</ele>
        <time>2022-08-27T17:11:32Z</time>
      </trkpt>
      <trkpt lat="42.2817910" lon="-8.3180160">
        <ele>472.4</ele>
        <time>2022-08-27T17:11:33Z</time>
      </trkpt>
      <trkpt lat="42.2818040" lon="-8.3180190">
        <ele>472.5</ele>
        <time>2022-08-27T17:11:34Z</time>
      </trkpt>
      <trkpt lat="42.2818180" lon="-8.3180240">
        <ele>472.6</ele>
        <time>2022-08-27T17:11:35Z</time>
      </trkpt>
      <trkpt lat="42.2818320" lon="-8.3180310">
        <ele>472.6</ele>
        <time>2022-08-27T17:11:36Z</time>
      </trkpt>
      <trkpt lat="42.2818490" lon="-8.3180420">
        <ele>472.8</ele>
        <time>2022-08-27T17:11:37Z</time>
      </trkpt>
      <trkpt lat="42.2818690" lon="-8.3180570">
        <ele>472.9</ele>
        <time>2022-08-27T17:11:38Z</time>
      </trkpt>
      <trkpt lat="42.2818770" lon="-8.3180640">
        <ele>473.0</ele>
        <time>2022-08-27T17:11:39Z</time>
      </trkpt>
      <trkpt lat="42.2818970" lon="-8.3180750">
        <ele>473.1</ele>
        <time>2022-08-27T17:11:40Z</time>
      </trkpt>
      <trkpt lat="42.2819090" lon="-8.3180810">
        <ele>473.2</ele>
        <time>2022-08-27T17:11:41Z</time>
      </trkpt>
      <trkpt lat="42.2819200" lon="-8.3180860">
        <ele>473.3</ele>
        <time>2022-08-27T17:11:42Z</time>
      </trkpt>
      <trkpt lat="42.2819390" lon="-8.3180940">
        <ele>473.5</ele>
        <time>2022-08-27T17:11:43Z</time>
      </trkpt>
      <trkpt lat="42.2819520" lon="-8.3180990">
        <ele>473.6</ele>
        <time>2022-08-27T17:11:44Z</time>
      </trkpt>
      <trkpt lat="42.2819650" lon="-8.3181080">
        <ele>473.7</ele>
        <time>2022-08-27T17:11:45Z</time>
      </trkpt>
      <trkpt lat="42.2819800" lon="-8.3181150">
        <ele>473.8</ele>
        <time>2022-08-27T17:11:46Z</time>
      </trkpt>
      <trkpt lat="42.2819910" lon="-8.3181250">
        <ele>474.0</ele>
        <time>2022-08-27T17:11:47Z</time>
      </trkpt>
      <trkpt lat="42.2820040" lon="-8.3181350">
        <ele>474.1</ele>
        <time>2022-08-27T17:11:48Z</time>
      </trkpt>
      <trkpt lat="42.2820190" lon="-8.3181430">
        <ele>474.2</ele>
        <time>2022-08-27T17:11:49Z</time>
      </trkpt>
      <trkpt lat="42.2820310" lon="-8.3181510">
        <ele>474.4</ele>
        <time>2022-08-27T17:11:50Z</time>
      </trkpt>
      <trkpt lat="42.2820450" lon="-8.3181590">
        <ele>474.5</ele>
        <time>2022-08-27T17:11:51Z</time>
      </trkpt>
      <trkpt lat="42.2820580" lon="-8.3181640">
        <ele>474.6</ele>
        <time>2022-08-27T17:11:52Z</time>
      </trkpt>
      <trkpt lat="42.2820700" lon="-8.3181680">
        <ele>474.7</ele>
        <time>2022-08-27T17:11:53Z</time>
      </trkpt>
      <trkpt lat="42.2820820" lon="-8.3181720">
        <ele>474.8</ele>
        <time>2022-08-27T17:11:54Z</time>
      </trkpt>
      <trkpt lat="42.2820930" lon="-8.3181730">
        <ele>474.9</ele>
        <time>2022-08-27T17:11:55Z</time>
      </trkpt>
      <trkpt lat="42.2821050" lon="-8.3181720">
        <ele>475.1</ele>
        <time>2022-08-27T17:11:56Z</time>
      </trkpt>
      <trkpt lat="42.2821210" lon="-8.3181730">
        <ele>475.2</ele>
        <time>2022-08-27T17:11:57Z</time>
      </trkpt>
      <trkpt lat="42.2821380" lon="-8.3181740">
        <ele>475.4</ele>
        <time>2022-08-27T17:11:58Z</time>
      </trkpt>
      <trkpt lat="42.2821560" lon="-8.3181760">
        <ele>475.6</ele>
        <time>2022-08-27T17:11:59Z</time>
      </trkpt>
      <trkpt lat="42.2821850" lon="-8.3181830">
        <ele>475.8</ele>
        <time>2022-08-27T17:12:00Z</time>
      </trkpt>
      <trkpt lat="42.2821940" lon="-8.3181870">
        <ele>475.9</ele>
        <time>2022-08-27T17:12:01Z</time>
      </trkpt>
      <trkpt lat="42.2822070" lon="-8.3181950">
        <ele>476.1</ele>
        <time>2022-08-27T17:12:02Z</time>
      </trkpt>
      <trkpt lat="42.2822140" lon="-8.3182010">
        <ele>476.2</ele>
        <time>2022-08-27T17:12:03Z</time>
      </trkpt>
      <trkpt lat="42.2822240" lon="-8.3182060">
        <ele>476.3</ele>
        <time>2022-08-27T17:12:04Z</time>
      </trkpt>
      <trkpt lat="42.2822400" lon="-8.3182140">
        <ele>476.4</ele>
        <time>2022-08-27T17:12:05Z</time>
      </trkpt>
      <trkpt lat="42.2822540" lon="-8.3182160">
        <ele>476.6</ele>
        <time>2022-08-27T17:12:06Z</time>
      </trkpt>
      <trkpt lat="42.2822640" lon="-8.3182170">
        <ele>476.7</ele>
        <time>2022-08-27T17:12:07Z</time>
      </trkpt>
      <trkpt lat="42.2822730" lon="-8.3182180">
        <ele>476.8</ele>
        <time>2022-08-27T17:12:08Z</time>
      </trkpt>
      <trkpt lat="42.2822840" lon="-8.3182180">
        <ele>476.9</ele>
        <time>2022-08-27T17:12:09Z</time>
      </trkpt>
      <trkpt lat="42.2822990" lon="-8.3182270">
        <ele>477.0</ele>
        <time>2022-08-27T17:12:10Z</time>
      </trkpt>
      <trkpt lat="42.2823070" lon="-8.3182340">
        <ele>477.1</ele>
        <time>2022-08-27T17:12:11Z</time>
      </trkpt>
      <trkpt lat="42.2823160" lon="-8.3182420">
        <ele>477.2</ele>
        <time>2022-08-27T17:12:12Z</time>
      </trkpt>
      <trkpt lat="42.2823280" lon="-8.3182490">
        <ele>477.4</ele>
        <time>2022-08-27T17:12:13Z</time>
      </trkpt>
      <trkpt lat="42.2823460" lon="-8.3182540">
        <ele>477.6</ele>
        <time>2022-08-27T17:12:14Z</time>
      </trkpt>
      <trkpt lat="42.2823620" lon="-8.3182540">
        <ele>477.7</ele>
        <time>2022-08-27T17:12:15Z</time>
      </trkpt>
      <trkpt lat="42.2823790" lon="-8.3182500">
        <ele>477.9</ele>
        <time>2022-08-27T17:12:16Z</time>
      </trkpt>
      <trkpt lat="42.2823910" lon="-8.3182440">
        <ele>478.0</ele>
        <time>2022-08-27T17:12:17Z</time>
      </trkpt>
      <trkpt lat="42.2824090" lon="-8.3182340">
        <ele>478.2</ele>
        <time>2022-08-27T17:12:18Z</time>
      </trkpt>
      <trkpt lat="42.2824230" lon="-8.3182250">
        <ele>478.3</ele>
        <time>2022-08-27T17:12:19Z</time>
      </trkpt>
      <trkpt lat="42.2824340" lon="-8.3182170">
        <ele>478.4</ele>
        <time>2022-08-27T17:12:20Z</time>
      </trkpt>
      <trkpt lat="42.2824490" lon="-8.3182080">
        <ele>478.6</ele>
        <time>2022-08-27T17:12:21Z</time>
      </trkpt>
      <trkpt lat="42.2824600" lon="-8.3182030">
        <ele>478.7</ele>
        <time>2022-08-27T17:12:22Z</time>
      </trkpt>
      <trkpt lat="42.2824900" lon="-8.3181990">
        <ele>478.9</ele>
        <time>2022-08-27T17:12:23Z</time>
      </trkpt>
      <trkpt lat="42.2825000" lon="-8.3181970">
        <ele>479.0</ele>
        <time>2022-08-27T17:12:24Z</time>
      </trkpt>
      <trkpt lat="42.2825280" lon="-8.3181890">
        <ele>479.3</ele>
        <time>2022-08-27T17:12:25Z</time>
      </trkpt>
      <trkpt lat="42.2825370" lon="-8.3181850">
        <ele>479.3</ele>
        <time>2022-08-27T17:12:26Z</time>
      </trkpt>
      <trkpt lat="42.2825630" lon="-8.3181710">
        <ele>479.6</ele>
        <time>2022-08-27T17:12:27Z</time>
      </trkpt>
      <trkpt lat="42.2825720" lon="-8.3181680">
        <ele>479.6</ele>
        <time>2022-08-27T17:12:28Z</time>
      </trkpt>
      <trkpt lat="42.2826010" lon="-8.3181560">
        <ele>479.9</ele>
        <time>2022-08-27T17:12:29Z</time>
      </trkpt>
      <trkpt lat="42.2826110" lon="-8.3181540">
        <ele>480.0</ele>
        <time>2022-08-27T17:12:30Z</time>
      </trkpt>
      <trkpt lat="42.2826280" lon="-8.3181510">
        <ele>480.1</ele>
        <time>2022-08-27T17:12:31Z</time>
      </trkpt>
      <trkpt lat="42.2826440" lon="-8.3181510">
        <ele>480.2</ele>
        <time>2022-08-27T17:12:32Z</time>
      </trkpt>
      <trkpt lat="42.2826740" lon="-8.3181570">
        <ele>480.5</ele>
        <time>2022-08-27T17:12:33Z</time>
      </trkpt>
      <trkpt lat="42.2826830" lon="-8.3181590">
        <ele>480.5</ele>
        <time>2022-08-27T17:12:34Z</time>
      </trkpt>
      <trkpt lat="42.2826980" lon="-8.3181640">
        <ele>480.7</ele>
        <time>2022-08-27T17:12:35Z</time>
      </trkpt>
      <trkpt lat="42.2827120" lon="-8.3181710">
        <ele>480.8</ele>
        <time>2022-08-27T17:12:36Z</time>
      </trkpt>
      <trkpt lat="42.2827300" lon="-8.3181750">
        <ele>480.9</ele>
        <time>2022-08-27T17:12:37Z</time>
      </trkpt>
      <trkpt lat="42.2827470" lon="-8.3181710">
        <ele>481.1</ele>
        <time>2022-08-27T17:12:38Z</time>
      </trkpt>
      <trkpt lat="42.2827630" lon="-8.3181660">
        <ele>481.2</ele>
        <time>2022-08-27T17:12:39Z</time>
      </trkpt>
      <trkpt lat="42.2827770" lon="-8.3181610">
        <ele>481.3</ele>
        <time>2022-08-27T17:12:40Z</time>
      </trkpt>
      <trkpt lat="42.2827910" lon="-8.3181580">
        <ele>481.4</ele>
        <time>2022-08-27T17:12:41Z</time>
      </trkpt>
      <trkpt lat="42.2828080" lon="-8.3181550">
        <ele>481.6</ele>
        <time>2022-08-27T17:12:42Z</time>
      </trkpt>
      <trkpt lat="42.2828360" lon="-8.3181470">
        <ele>481.8</ele>
        <time>2022-08-27T17:12:43Z</time>
      </trkpt>
      <trkpt lat="42.2828450" lon="-8.3181450">
        <ele>481.9</ele>
        <time>2022-08-27T17:12:44Z</time>
      </trkpt>
      <trkpt lat="42.2828750" lon="-8.3181400">
        <ele>482.1</ele>
        <time>2022-08-27T17:12:45Z</time>
      </trkpt>
      <trkpt lat="42.2828850" lon="-8.3181370">
        <ele>482.2</ele>
        <time>2022-08-27T17:12:46Z</time>
      </trkpt>
      <trkpt lat="42.2829020" lon="-8.3181310">
        <ele>482.3</ele>
        <time>2022-08-27T17:12:47Z</time>
      </trkpt>
      <trkpt lat="42.2829200" lon="-8.3181270">
        <ele>482.5</ele>
        <time>2022-08-27T17:12:48Z</time>
      </trkpt>
      <trkpt lat="42.2829380" lon="-8.3181240">
        <ele>482.6</ele>
        <time>2022-08-27T17:12:49Z</time>
      </trkpt>
      <trkpt lat="42.2829510" lon="-8.3181200">
        <ele>482.7</ele>
        <time>2022-08-27T17:12:50Z</time>
      </trkpt>
      <trkpt lat="42.2829690" lon="-8.3181080">
        <ele>482.9</ele>
        <time>2022-08-27T17:12:51Z</time>
      </trkpt>
      <trkpt lat="42.2829790" lon="-8.3181040">
        <ele>483.0</ele>
        <time>2022-08-27T17:12:52Z</time>
      </trkpt>
      <trkpt lat="42.2830050" lon="-8.3180990">
        <ele>483.2</ele>
        <time>2022-08-27T17:12:53Z</time>
      </trkpt>
      <trkpt lat="42.2830120" lon="-8.3180990">
        <ele>483.2</ele>
        <time>2022-08-27T17:12:54Z</time>
      </trkpt>
      <trkpt lat="42.2830180" lon="-8.3180990">
        <ele>483.3</ele>
        <time>2022-08-27T17:12:55Z</time>
      </trkpt>
      <trkpt lat="42.2830310" lon="-8.3181030">
        <ele>483.4</ele>
        <time>2022-08-27T17:12:56Z</time>
      </trkpt>
      <trkpt lat="42.2830480" lon="-8.3180960">
        <ele>483.5</ele>
        <time>2022-08-27T17:12:57Z</time>
      </trkpt>
      <trkpt lat="42.2830670" lon="-8.3180810">
        <ele>483.7</ele>
        <time>2022-08-27T17:12:58Z</time>
      </trkpt>
      <trkpt lat="42.2830750" lon="-8.3180770">
        <ele>483.8</ele>
        <time>2022-08-27T17:12:59Z</time>
      </trkpt>
      <trkpt lat="42.2830940" lon="-8.3180740">
        <ele>483.9</ele>
        <time>2022-08-27T17:13:00Z</time>
      </trkpt>
      <trkpt lat="42.2831050" lon="-8.3180750">
        <ele>484.0</ele>
        <time>2022-08-27T17:13:01Z</time>
      </trkpt>
      <trkpt lat="42.2831170" lon="-8.3180750">
        <ele>484.1</ele>
        <time>2022-08-27T17:13:02Z</time>
      </trkpt>
      <trkpt lat="42.2831480" lon="-8.3180770">
        <ele>484.4</ele>
        <time>2022-08-27T17:13:03Z</time>
      </trkpt>
      <trkpt lat="42.2831540" lon="-8.3180790">
        <ele>484.5</ele>
        <time>2022-08-27T17:13:04Z</time>
      </trkpt>
      <trkpt lat="42.2831750" lon="-8.3180850">
        <ele>484.7</ele>
        <time>2022-08-27T17:13:05Z</time>
      </trkpt>
      <trkpt lat="42.2831850" lon="-8.3180880">
        <ele>484.8</ele>
        <time>2022-08-27T17:13:06Z</time>
      </trkpt>
      <trkpt lat="42.2831950" lon="-8.3180910">
        <ele>484.9</ele>
        <time>2022-08-27T17:13:07Z</time>
      </trkpt>
      <trkpt lat="42.2832220" lon="-8.3180820">
        <ele>485.2</ele>
        <time>2022-08-27T17:13:08Z</time>
      </trkpt>
      <trkpt lat="42.2832310" lon="-8.3180810">
        <ele>485.2</ele>
        <time>2022-08-27T17:13:09Z</time>
      </trkpt>
      <trkpt lat="42.2832500" lon="-8.3180790">
        <ele>485.4</ele>
        <time>2022-08-27T17:13:10Z</time>
      </trkpt>
      <trkpt lat="42.2832640" lon="-8.3180840">
        <ele>485.6</ele>
        <time>2022-08-27T17:13:11Z</time>
      </trkpt>
      <trkpt lat="42.2832750" lon="-8.3180930">
        <ele>485.7</ele>
        <time>2022-08-27T17:13:12Z</time>
      </trkpt>
      <trkpt lat="42.2832900" lon="-8.3181050">
        <ele>485.9</ele>
        <time>2022-08-27T17:13:13Z</time>
      </trkpt>
      <trkpt lat="42.2833160" lon="-8.3181190">
        <ele>486.2</ele>
        <time>2022-08-27T17:13:14Z</time>
      </trkpt>
      <trkpt lat="42.2833250" lon="-8.3181230">
        <ele>486.3</ele>
        <time>2022-08-27T17:13:15Z</time>
      </trkpt>
      <trkpt lat="42.2833530" lon="-8.3181270">
        <ele>486.6</ele>
        <time>2022-08-27T17:13:16Z</time>
      </trkpt>
      <trkpt lat="42.2833630" lon="-8.3181270">
        <ele>486.7</ele>
        <time>2022-08-27T17:13:17Z</time>
      </trkpt>
      <trkpt lat="42.2833940" lon="-8.3181280">
        <ele>487.0</ele>
        <time>2022-08-27T17:13:18Z</time>
      </trkpt>
      <trkpt lat="42.2834030" lon="-8.3181280">
        <ele>487.1</ele>
        <time>2022-08-27T17:13:19Z</time>
      </trkpt>
      <trkpt lat="42.2834330" lon="-8.3181240">
        <ele>487.4</ele>
        <time>2022-08-27T17:13:20Z</time>
      </trkpt>
      <trkpt lat="42.2834420" lon="-8.3181220">
        <ele>487.5</ele>
        <time>2022-08-27T17:13:21Z</time>
      </trkpt>
      <trkpt lat="42.2834550" lon="-8.3181190">
        <ele>487.7</ele>
        <time>2022-08-27T17:13:22Z</time>
      </trkpt>
      <trkpt lat="42.2834720" lon="-8.3181170">
        <ele>487.9</ele>
        <time>2022-08-27T17:13:23Z</time>
      </trkpt>
      <trkpt lat="42.2834990" lon="-8.3181150">
        <ele>488.2</ele>
        <time>2022-08-27T17:13:24Z</time>
      </trkpt>
      <trkpt lat="42.2835090" lon="-8.3181140">
        <ele>488.3</ele>
        <time>2022-08-27T17:13:25Z</time>
      </trkpt>
      <trkpt lat="42.2835370" lon="-8.3181090">
        <ele>488.6</ele>
        <time>2022-08-27T17:13:26Z</time>
      </trkpt>
      <trkpt lat="42.2835460" lon="-8.3181080">
        <ele>488.7</ele>
        <time>2022-08-27T17:13:27Z</time>
      </trkpt>
      <trkpt lat="42.2835730" lon="-8.3181020">
        <ele>489.0</ele>
        <time>2022-08-27T17:13:28Z</time>
      </trkpt>
      <trkpt lat="42.2835820" lon="-8.3181010">
        <ele>489.1</ele>
        <time>2022-08-27T17:13:29Z</time>
      </trkpt>
      <trkpt lat="42.2835980" lon="-8.3180990">
        <ele>489.3</ele>
        <time>2022-08-27T17:13:30Z</time>
      </trkpt>
      <trkpt lat="42.2836170" lon="-8.3181060">
        <ele>489.5</ele>
        <time>2022-08-27T17:13:31Z</time>
      </trkpt>
      <trkpt lat="42.2836480" lon="-8.3181130">
        <ele>489.9</ele>
        <time>2022-08-27T17:13:32Z</time>
      </trkpt>
      <trkpt lat="42.2836570" lon="-8.3181160">
        <ele>490.0</ele>
        <time>2022-08-27T17:13:33Z</time>
      </trkpt>
      <trkpt lat="42.2836880" lon="-8.3181270">
        <ele>490.3</ele>
        <time>2022-08-27T17:13:34Z</time>
      </trkpt>
      <trkpt lat="42.2836970" lon="-8.3181310">
        <ele>490.5</ele>
        <time>2022-08-27T17:13:35Z</time>
      </trkpt>
      <trkpt lat="42.2837260" lon="-8.3181500">
        <ele>490.8</ele>
        <time>2022-08-27T17:13:36Z</time>
      </trkpt>
      <trkpt lat="42.2837350" lon="-8.3181560">
        <ele>490.9</ele>
        <time>2022-08-27T17:13:37Z</time>
      </trkpt>
      <trkpt lat="42.2837540" lon="-8.3181680">
        <ele>491.1</ele>
        <time>2022-08-27T17:13:38Z</time>
      </trkpt>
      <trkpt lat="42.2837660" lon="-8.3181790">
        <ele>491.3</ele>
        <time>2022-08-27T17:13:39Z</time>
      </trkpt>
      <trkpt lat="42.2837800" lon="-8.3181960">
        <ele>491.4</ele>
        <time>2022-08-27T17:13:40Z</time>
      </trkpt>
      <trkpt lat="42.2837880" lon="-8.3182130">
        <ele>491.6</ele>
        <time>2022-08-27T17:13:41Z</time>
      </trkpt>
      <trkpt lat="42.2837990" lon="-8.3182360">
        <ele>491.8</ele>
        <time>2022-08-27T17:13:42Z</time>
      </trkpt>
      <trkpt lat="42.2838070" lon="-8.3182540">
        <ele>491.9</ele>
        <time>2022-08-27T17:13:43Z</time>
      </trkpt>
      <trkpt lat="42.2838220" lon="-8.3182910">
        <ele>492.2</ele>
        <time>2022-08-27T17:13:44Z</time>
      </trkpt>
      <trkpt lat="42.2838260" lon="-8.3183040">
        <ele>492.2</ele>
        <time>2022-08-27T17:13:45Z</time>
      </trkpt>
      <trkpt lat="42.2838320" lon="-8.3183400">
        <ele>492.4</ele>
        <time>2022-08-27T17:13:46Z</time>
      </trkpt>
      <trkpt lat="42.2838350" lon="-8.3183530">
        <ele>492.5</ele>
        <time>2022-08-27T17:13:47Z</time>
      </trkpt>
      <trkpt lat="42.2838400" lon="-8.3183950">
        <ele>492.7</ele>
        <time>2022-08-27T17:13:48Z</time>
      </trkpt>
      <trkpt lat="42.2838410" lon="-8.3184080">
        <ele>492.8</ele>
        <time>2022-08-27T17:13:49Z</time>
      </trkpt>
      <trkpt lat="42.2838430" lon="-8.3184510">
        <ele>493.0</ele>
        <time>2022-08-27T17:13:50Z</time>
      </trkpt>
      <trkpt lat="42.2838440" lon="-8.3184640">
        <ele>493.1</ele>
        <time>2022-08-27T17:13:51Z</time>
      </trkpt>
      <trkpt lat="42.2838400" lon="-8.3185030">
        <ele>493.2</ele>
        <time>2022-08-27T17:13:52Z</time>
      </trkpt>
      <trkpt lat="42.2838380" lon="-8.3185150">
        <ele>493.3</ele>
        <time>2022-08-27T17:13:53Z</time>
      </trkpt>
      <trkpt lat="42.2838270" lon="-8.3185510">
        <ele>493.5</ele>
        <time>2022-08-27T17:13:54Z</time>
      </trkpt>
      <trkpt lat="42.2838230" lon="-8.3185650">
        <ele>493.5</ele>
        <time>2022-08-27T17:13:55Z</time>
      </trkpt>
      <trkpt lat="42.2838230" lon="-8.3186030">
        <ele>493.7</ele>
        <time>2022-08-27T17:13:56Z</time>
      </trkpt>
      <trkpt lat="42.2838230" lon="-8.3186150">
        <ele>493.7</ele>
        <time>2022-08-27T17:13:57Z</time>
      </trkpt>
      <trkpt lat="42.2838150" lon="-8.3186500">
        <ele>493.9</ele>
        <time>2022-08-27T17:13:58Z</time>
      </trkpt>
      <trkpt lat="42.2838110" lon="-8.3186620">
        <ele>493.9</ele>
        <time>2022-08-27T17:13:59Z</time>
      </trkpt>
      <trkpt lat="42.2838020" lon="-8.3186810">
        <ele>494.0</ele>
        <time>2022-08-27T17:14:00Z</time>
      </trkpt>
      <trkpt lat="42.2837930" lon="-8.3187000">
        <ele>494.1</ele>
        <time>2022-08-27T17:14:01Z</time>
      </trkpt>
      <trkpt lat="42.2837870" lon="-8.3187160">
        <ele>494.2</ele>
        <time>2022-08-27T17:14:02Z</time>
      </trkpt>
      <trkpt lat="42.2837810" lon="-8.3187410">
        <ele>494.3</ele>
        <time>2022-08-27T17:14:03Z</time>
      </trkpt>
      <trkpt lat="42.2837730" lon="-8.3187620">
        <ele>494.4</ele>
        <time>2022-08-27T17:14:04Z</time>
      </trkpt>
      <trkpt lat="42.2837560" lon="-8.3187750">
        <ele>494.5</ele>
        <time>2022-08-27T17:14:05Z</time>
      </trkpt>
      <trkpt lat="42.2837440" lon="-8.3187900">
        <ele>494.6</ele>
        <time>2022-08-27T17:14:06Z</time>
      </trkpt>
      <trkpt lat="42.2837370" lon="-8.3188120">
        <ele>494.7</ele>
        <time>2022-08-27T17:14:07Z</time>
      </trkpt>
      <trkpt lat="42.2837310" lon="-8.3188230">
        <ele>494.7</ele>
        <time>2022-08-27T17:14:08Z</time>
      </trkpt>
      <trkpt lat="42.2837270" lon="-8.3188380">
        <ele>494.8</ele>
        <time>2022-08-27T17:14:09Z</time>
      </trkpt>
      <trkpt lat="42.2837180" lon="-8.3188530">
        <ele>494.9</ele>
        <time>2022-08-27T17:14:10Z</time>
      </trkpt>
      <trkpt lat="42.2837070" lon="-8.3188640">
        <ele>494.9</ele>
        <time>2022-08-27T17:14:11Z</time>
      </trkpt>
      <trkpt lat="42.2836960" lon="-8.3188800">
        <ele>495.0</ele>
        <time>2022-08-27T17:14:12Z</time>
      </trkpt>
      <trkpt lat="42.2836870" lon="-8.3189000">
        <ele>495.2</ele>
        <time>2022-08-27T17:14:13Z</time>
      </trkpt>
      <trkpt lat="42.2836780" lon="-8.3189220">
        <ele>495.4</ele>
        <time>2022-08-27T17:14:14Z</time>
      </trkpt>
      <trkpt lat="42.2836690" lon="-8.3189490">
        <ele>495.6</ele>
        <time>2022-08-27T17:14:15Z</time>
      </trkpt>
      <trkpt lat="42.2836640" lon="-8.3189610">
        <ele>495.7</ele>
        <time>2022-08-27T17:14:16Z</time>
      </trkpt>
      <trkpt lat="42.2836590" lon="-8.3189730">
        <ele>495.8</ele>
        <time>2022-08-27T17:14:17Z</time>
      </trkpt>
      <trkpt lat="42.2836470" lon="-8.3190050">
        <ele>496.0</ele>
        <time>2022-08-27T17:14:18Z</time>
      </trkpt>
      <trkpt lat="42.2836420" lon="-8.3190170">
        <ele>496.1</ele>
        <time>2022-08-27T17:14:19Z</time>
      </trkpt>
      <trkpt lat="42.2836390" lon="-8.3190330">
        <ele>496.2</ele>
        <time>2022-08-27T17:14:20Z</time>
      </trkpt>
      <trkpt lat="42.2836330" lon="-8.3190570">
        <ele>496.4</ele>
        <time>2022-08-27T17:14:21Z</time>
      </trkpt>
      <trkpt lat="42.2836200" lon="-8.3190960">
        <ele>496.7</ele>
        <time>2022-08-27T17:14:22Z</time>
      </trkpt>
      <trkpt lat="42.2836160" lon="-8.3191080">
        <ele>496.8</ele>
        <time>2022-08-27T17:14:23Z</time>
      </trkpt>
      <trkpt lat="42.2836030" lon="-8.3191490">
        <ele>497.1</ele>
        <time>2022-08-27T17:14:24Z</time>
      </trkpt>
      <trkpt lat="42.2835990" lon="-8.3191610">
        <ele>497.2</ele>
        <time>2022-08-27T17:14:25Z</time>
      </trkpt>
      <trkpt lat="42.2835840" lon="-8.3192030">
        <ele>497.5</ele>
        <time>2022-08-27T17:14:26Z</time>
      </trkpt>
      <trkpt lat="42.2835800" lon="-8.3192170">
        <ele>497.5</ele>
        <time>2022-08-27T17:14:27Z</time>
      </trkpt>
      <trkpt lat="42.2835720" lon="-8.3192550">
        <ele>497.8</ele>
        <time>2022-08-27T17:14:28Z</time>
      </trkpt>
      <trkpt lat="42.2835700" lon="-8.3192670">
        <ele>497.9</ele>
        <time>2022-08-27T17:14:29Z</time>
      </trkpt>
      <trkpt lat="42.2835630" lon="-8.3193050">
        <ele>498.1</ele>
        <time>2022-08-27T17:14:30Z</time>
      </trkpt>
      <trkpt lat="42.2835600" lon="-8.3193180">
        <ele>498.2</ele>
        <time>2022-08-27T17:14:31Z</time>
      </trkpt>
      <trkpt lat="42.2835530" lon="-8.3193580">
        <ele>498.5</ele>
        <time>2022-08-27T17:14:32Z</time>
      </trkpt>
      <trkpt lat="42.2835510" lon="-8.3193710">
        <ele>498.5</ele>
        <time>2022-08-27T17:14:33Z</time>
      </trkpt>
      <trkpt lat="42.2835470" lon="-8.3193950">
        <ele>498.7</ele>
        <time>2022-08-27T17:14:34Z</time>
      </trkpt>
      <trkpt lat="42.2835420" lon="-8.3194180">
        <ele>498.9</ele>
        <time>2022-08-27T17:14:35Z</time>
      </trkpt>
      <trkpt lat="42.2835300" lon="-8.3194550">
        <ele>499.1</ele>
        <time>2022-08-27T17:14:36Z</time>
      </trkpt>
      <trkpt lat="42.2835250" lon="-8.3194670">
        <ele>499.2</ele>
        <time>2022-08-27T17:14:37Z</time>
      </trkpt>
      <trkpt lat="42.2835170" lon="-8.3194820">
        <ele>499.3</ele>
        <time>2022-08-27T17:14:38Z</time>
      </trkpt>
      <trkpt lat="42.2835070" lon="-8.3195050">
        <ele>499.5</ele>
        <time>2022-08-27T17:14:39Z</time>
      </trkpt>
      <trkpt lat="42.2834910" lon="-8.3195430">
        <ele>499.8</ele>
        <time>2022-08-27T17:14:40Z</time>
      </trkpt>
      <trkpt lat="42.2834860" lon="-8.3195560">
        <ele>499.9</ele>
        <time>2022-08-27T17:14:41Z</time>
      </trkpt>
      <trkpt lat="42.2834800" lon="-8.3195790">
        <ele>500.0</ele>
        <time>2022-08-27T17:14:42Z</time>
      </trkpt>
      <trkpt lat="42.2834740" lon="-8.3195990">
        <ele>500.2</ele>
        <time>2022-08-27T17:14:43Z</time>
      </trkpt>
      <trkpt lat="42.2834670" lon="-8.3196410">
        <ele>500.5</ele>
        <time>2022-08-27T17:14:44Z</time>
      </trkpt>
      <trkpt lat="42.2834640" lon="-8.3196530">
        <ele>500.5</ele>
        <time>2022-08-27T17:14:45Z</time>
      </trkpt>
      <trkpt lat="42.2834580" lon="-8.3196930">
        <ele>500.8</ele>
        <time>2022-08-27T17:14:46Z</time>
      </trkpt>
      <trkpt lat="42.2834550" lon="-8.3197060">
        <ele>500.9</ele>
        <time>2022-08-27T17:14:47Z</time>
      </trkpt>
      <trkpt lat="42.2834440" lon="-8.3197400">
        <ele>501.2</ele>
        <time>2022-08-27T17:14:48Z</time>
      </trkpt>
      <trkpt lat="42.2834390" lon="-8.3197520">
        <ele>501.3</ele>
        <time>2022-08-27T17:14:49Z</time>
      </trkpt>
      <trkpt lat="42.2834290" lon="-8.3197750">
        <ele>501.4</ele>
        <time>2022-08-27T17:14:50Z</time>
      </trkpt>
      <trkpt lat="42.2834220" lon="-8.3197920">
        <ele>501.6</ele>
        <time>2022-08-27T17:14:51Z</time>
      </trkpt>
      <trkpt lat="42.2834120" lon="-8.3198070">
        <ele>501.7</ele>
        <time>2022-08-27T17:14:52Z</time>
      </trkpt>
      <trkpt lat="42.2833960" lon="-8.3198230">
        <ele>501.9</ele>
        <time>2022-08-27T17:14:53Z</time>
      </trkpt>
      <trkpt lat="42.2833840" lon="-8.3198350">
        <ele>502.1</ele>
        <time>2022-08-27T17:14:54Z</time>
      </trkpt>
      <trkpt lat="42.2833720" lon="-8.3198540">
        <ele>502.2</ele>
        <time>2022-08-27T17:14:55Z</time>
      </trkpt>
      <trkpt lat="42.2833660" lon="-8.3198710">
        <ele>502.4</ele>
        <time>2022-08-27T17:14:56Z</time>
      </trkpt>
      <trkpt lat="42.2833590" lon="-8.3198960">
        <ele>502.6</ele>
        <time>2022-08-27T17:14:57Z</time>
      </trkpt>
      <trkpt lat="42.2833490" lon="-8.3199200">
        <ele>502.8</ele>
        <time>2022-08-27T17:14:58Z</time>
      </trkpt>
      <trkpt lat="42.2833460" lon="-8.3199310">
        <ele>502.8</ele>
        <time>2022-08-27T17:14:59Z</time>
      </trkpt>
      <trkpt lat="42.2833430" lon="-8.3199410">
        <ele>502.9</ele>
        <time>2022-08-27T17:15:00Z</time>
      </trkpt>
      <trkpt lat="42.2833400" lon="-8.3199610">
        <ele>503.1</ele>
        <time>2022-08-27T17:15:01Z</time>
      </trkpt>
      <trkpt lat="42.2833390" lon="-8.3199790">
        <ele>503.2</ele>
        <time>2022-08-27T17:15:02Z</time>
      </trkpt>
      <trkpt lat="42.2833380" lon="-8.3199980">
        <ele>503.3</ele>
        <time>2022-08-27T17:15:03Z</time>
      </trkpt>
      <trkpt lat="42.2833380" lon="-8.3200190">
        <ele>503.5</ele>
        <time>2022-08-27T17:15:04Z</time>
      </trkpt>
      <trkpt lat="42.2833380" lon="-8.3200390">
        <ele>503.6</ele>
        <time>2022-08-27T17:15:05Z</time>
      </trkpt>
      <trkpt lat="42.2833360" lon="-8.3200580">
        <ele>503.8</ele>
        <time>2022-08-27T17:15:06Z</time>
      </trkpt>
      <trkpt lat="42.2833350" lon="-8.3200770">
        <ele>503.9</ele>
        <time>2022-08-27T17:15:07Z</time>
      </trkpt>
      <trkpt lat="42.2833320" lon="-8.3200950">
        <ele>504.0</ele>
        <time>2022-08-27T17:15:08Z</time>
      </trkpt>
      <trkpt lat="42.2833260" lon="-8.3201190">
        <ele>504.2</ele>
        <time>2022-08-27T17:15:09Z</time>
      </trkpt>
      <trkpt lat="42.2833220" lon="-8.3201310">
        <ele>504.3</ele>
        <time>2022-08-27T17:15:10Z</time>
      </trkpt>
      <trkpt lat="42.2833170" lon="-8.3201430">
        <ele>504.4</ele>
        <time>2022-08-27T17:15:11Z</time>
      </trkpt>
      <trkpt lat="42.2833000" lon="-8.3201770">
        <ele>504.7</ele>
        <time>2022-08-27T17:15:12Z</time>
      </trkpt>
      <trkpt lat="42.2832930" lon="-8.3201900">
        <ele>504.8</ele>
        <time>2022-08-27T17:15:13Z</time>
      </trkpt>
      <trkpt lat="42.2832800" lon="-8.3202240">
        <ele>505.1</ele>
        <time>2022-08-27T17:15:14Z</time>
      </trkpt>
      <trkpt lat="42.2832750" lon="-8.3202370">
        <ele>505.1</ele>
        <time>2022-08-27T17:15:15Z</time>
      </trkpt>
      <trkpt lat="42.2832650" lon="-8.3202780">
        <ele>505.4</ele>
        <time>2022-08-27T17:15:16Z</time>
      </trkpt>
      <trkpt lat="42.2832630" lon="-8.3202910">
        <ele>505.5</ele>
        <time>2022-08-27T17:15:17Z</time>
      </trkpt>
      <trkpt lat="42.2832590" lon="-8.3203180">
        <ele>505.7</ele>
        <time>2022-08-27T17:15:18Z</time>
      </trkpt>
      <trkpt lat="42.2832560" lon="-8.3203380">
        <ele>505.8</ele>
        <time>2022-08-27T17:15:19Z</time>
      </trkpt>
      <trkpt lat="42.2832450" lon="-8.3203830">
        <ele>506.1</ele>
        <time>2022-08-27T17:15:20Z</time>
      </trkpt>
      <trkpt lat="42.2832420" lon="-8.3203950">
        <ele>506.1</ele>
        <time>2022-08-27T17:15:21Z</time>
      </trkpt>
      <trkpt lat="42.2832330" lon="-8.3204350">
        <ele>506.4</ele>
        <time>2022-08-27T17:15:22Z</time>
      </trkpt>
      <trkpt lat="42.2832300" lon="-8.3204490">
        <ele>506.5</ele>
        <time>2022-08-27T17:15:23Z</time>
      </trkpt>
      <trkpt lat="42.2832240" lon="-8.3204940">
        <ele>506.8</ele>
        <time>2022-08-27T17:15:24Z</time>
      </trkpt>
      <trkpt lat="42.2832220" lon="-8.3205100">
        <ele>506.8</ele>
        <time>2022-08-27T17:15:25Z</time>
      </trkpt>
      <trkpt lat="42.2832130" lon="-8.3205530">
        <ele>507.1</ele>
        <time>2022-08-27T17:15:26Z</time>
      </trkpt>
      <trkpt lat="42.2832080" lon="-8.3205690">
        <ele>507.2</ele>
        <time>2022-08-27T17:15:27Z</time>
      </trkpt>
      <trkpt lat="42.2831970" lon="-8.3205920">
        <ele>507.4</ele>
        <time>2022-08-27T17:15:28Z</time>
      </trkpt>
      <trkpt lat="42.2831890" lon="-8.3206080">
        <ele>507.5</ele>
        <time>2022-08-27T17:15:29Z</time>
      </trkpt>
      <trkpt lat="42.2831840" lon="-8.3206300">
        <ele>507.6</ele>
        <time>2022-08-27T17:15:30Z</time>
      </trkpt>
      <trkpt lat="42.2831810" lon="-8.3206500">
        <ele>507.7</ele>
        <time>2022-08-27T17:15:31Z</time>
      </trkpt>
      <trkpt lat="42.2831790" lon="-8.3206700">
        <ele>507.8</ele>
        <time>2022-08-27T17:15:32Z</time>
      </trkpt>
      <trkpt lat="42.2831760" lon="-8.3206960">
        <ele>508.0</ele>
        <time>2022-08-27T17:15:33Z</time>
      </trkpt>
      <trkpt lat="42.2831730" lon="-8.3207350">
        <ele>508.2</ele>
        <time>2022-08-27T17:15:34Z</time>
      </trkpt>
      <trkpt lat="42.2831730" lon="-8.3207470">
        <ele>508.3</ele>
        <time>2022-08-27T17:15:35Z</time>
      </trkpt>
      <trkpt lat="42.2831700" lon="-8.3207830">
        <ele>508.5</ele>
        <time>2022-08-27T17:15:36Z</time>
      </trkpt>
      <trkpt lat="42.2831700" lon="-8.3207960">
        <ele>508.5</ele>
        <time>2022-08-27T17:15:37Z</time>
      </trkpt>
      <trkpt lat="42.2831660" lon="-8.3208350">
        <ele>508.7</ele>
        <time>2022-08-27T17:15:38Z</time>
      </trkpt>
      <trkpt lat="42.2831650" lon="-8.3208480">
        <ele>508.8</ele>
        <time>2022-08-27T17:15:39Z</time>
      </trkpt>
      <trkpt lat="42.2831630" lon="-8.3208710">
        <ele>508.9</ele>
        <time>2022-08-27T17:15:40Z</time>
      </trkpt>
      <trkpt lat="42.2831630" lon="-8.3208930">
        <ele>509.0</ele>
        <time>2022-08-27T17:15:41Z</time>
      </trkpt>
      <trkpt lat="42.2831610" lon="-8.3209040">
        <ele>509.0</ele>
        <time>2022-08-27T17:15:42Z</time>
      </trkpt>
      <trkpt lat="42.2831550" lon="-8.3209350">
        <ele>509.1</ele>
        <time>2022-08-27T17:15:43Z</time>
      </trkpt>
      <trkpt lat="42.2831460" lon="-8.3209750">
        <ele>509.3</ele>
        <time>2022-08-27T17:15:44Z</time>
      </trkpt>
      <trkpt lat="42.2831420" lon="-8.3209860">
        <ele>509.3</ele>
        <time>2022-08-27T17:15:45Z</time>
      </trkpt>
      <trkpt lat="42.2831330" lon="-8.3210250">
        <ele>509.5</ele>
        <time>2022-08-27T17:15:46Z</time>
      </trkpt>
      <trkpt lat="42.2831300" lon="-8.3210390">
        <ele>509.5</ele>
        <time>2022-08-27T17:15:47Z</time>
      </trkpt>
      <trkpt lat="42.2831140" lon="-8.3210720">
        <ele>509.6</ele>
        <time>2022-08-27T17:15:48Z</time>
      </trkpt>
      <trkpt lat="42.2831060" lon="-8.3210860">
        <ele>509.7</ele>
        <time>2022-08-27T17:15:49Z</time>
      </trkpt>
      <trkpt lat="42.2830830" lon="-8.3211120">
        <ele>509.8</ele>
        <time>2022-08-27T17:15:50Z</time>
      </trkpt>
      <trkpt lat="42.2830590" lon="-8.3211400">
        <ele>509.9</ele>
        <time>2022-08-27T17:15:51Z</time>
      </trkpt>
      <trkpt lat="42.2830390" lon="-8.3211770">
        <ele>510.0</ele>
        <time>2022-08-27T17:15:52Z</time>
      </trkpt>
      <trkpt lat="42.2830330" lon="-8.3211930">
        <ele>510.0</ele>
        <time>2022-08-27T17:15:53Z</time>
      </trkpt>
      <trkpt lat="42.2830110" lon="-8.3212400">
        <ele>510.1</ele>
        <time>2022-08-27T17:15:54Z</time>
      </trkpt>
      <trkpt lat="42.2830020" lon="-8.3212570">
        <ele>510.1</ele>
        <time>2022-08-27T17:15:55Z</time>
      </trkpt>
      <trkpt lat="42.2829790" lon="-8.3212860">
        <ele>510.2</ele>
        <time>2022-08-27T17:15:56Z</time>
      </trkpt>
      <trkpt lat="42.2829540" lon="-8.3213140">
        <ele>510.2</ele>
        <time>2022-08-27T17:15:57Z</time>
      </trkpt>
      <trkpt lat="42.2829290" lon="-8.3213450">
        <ele>510.1</ele>
        <time>2022-08-27T17:15:58Z</time>
      </trkpt>
      <trkpt lat="42.2828990" lon="-8.3213780">
        <ele>510.1</ele>
        <time>2022-08-27T17:15:59Z</time>
      </trkpt>
      <trkpt lat="42.2828720" lon="-8.3214030">
        <ele>510.1</ele>
        <time>2022-08-27T17:16:00Z</time>
      </trkpt>
      <trkpt lat="42.2828370" lon="-8.3214360">
        <ele>510.1</ele>
        <time>2022-08-27T17:16:01Z</time>
      </trkpt>
      <trkpt lat="42.2828020" lon="-8.3214700">
        <ele>510.1</ele>
        <time>2022-08-27T17:16:02Z</time>
      </trkpt>
      <trkpt lat="42.2827720" lon="-8.3215020">
        <ele>510.1</ele>
        <time>2022-08-27T17:16:03Z</time>
      </trkpt>
      <trkpt lat="42.2827470" lon="-8.3215380">
        <ele>510.1</ele>
        <time>2022-08-27T17:16:04Z</time>
      </trkpt>
      <trkpt lat="42.2827300" lon="-8.3215720">
        <ele>510.0</ele>
        <time>2022-08-27T17:16:05Z</time>
      </trkpt>
      <trkpt lat="42.2826930" lon="-8.3216130">
        <ele>510.0</ele>
        <time>2022-08-27T17:16:06Z</time>
      </trkpt>
      <trkpt lat="42.2826590" lon="-8.3216550">
        <ele>510.0</ele>
        <time>2022-08-27T17:16:07Z</time>
      </trkpt>
      <trkpt lat="42.2826410" lon="-8.3216950">
        <ele>509.9</ele>
        <time>2022-08-27T17:16:08Z</time>
      </trkpt>
      <trkpt lat="42.2826130" lon="-8.3217270">
        <ele>509.9</ele>
        <time>2022-08-27T17:16:09Z</time>
      </trkpt>
      <trkpt lat="42.2825900" lon="-8.3217510">
        <ele>509.9</ele>
        <time>2022-08-27T17:16:10Z</time>
      </trkpt>
      <trkpt lat="42.2825620" lon="-8.3217840">
        <ele>509.9</ele>
        <time>2022-08-27T17:16:11Z</time>
      </trkpt>
      <trkpt lat="42.2825360" lon="-8.3218170">
        <ele>509.8</ele>
        <time>2022-08-27T17:16:12Z</time>
      </trkpt>
      <trkpt lat="42.2825130" lon="-8.3218540">
        <ele>509.8</ele>
        <time>2022-08-27T17:16:13Z</time>
      </trkpt>
      <trkpt lat="42.2824890" lon="-8.3218930">
        <ele>509.8</ele>
        <time>2022-08-27T17:16:14Z</time>
      </trkpt>
      <trkpt lat="42.2824580" lon="-8.3219380">
        <ele>509.8</ele>
        <time>2022-08-27T17:16:15Z</time>
      </trkpt>
      <trkpt lat="42.2824320" lon="-8.3219770">
        <ele>509.8</ele>
        <time>2022-08-27T17:16:16Z</time>
      </trkpt>
      <trkpt lat="42.2824060" lon="-8.3220160">
        <ele>509.9</ele>
        <time>2022-08-27T17:16:17Z</time>
      </trkpt>
      <trkpt lat="42.2823790" lon="-8.3220510">
        <ele>509.9</ele>
        <time>2022-08-27T17:16:18Z</time>
      </trkpt>
      <trkpt lat="42.2823480" lon="-8.3220910">
        <ele>510.0</ele>
        <time>2022-08-27T17:16:19Z</time>
      </trkpt>
      <trkpt lat="42.2823260" lon="-8.3221230">
        <ele>510.0</ele>
        <time>2022-08-27T17:16:20Z</time>
      </trkpt>
      <trkpt lat="42.2823000" lon="-8.3221630">
        <ele>510.1</ele>
        <time>2022-08-27T17:16:21Z</time>
      </trkpt>
      <trkpt lat="42.2822830" lon="-8.3221960">
        <ele>510.2</ele>
        <time>2022-08-27T17:16:22Z</time>
      </trkpt>
      <trkpt lat="42.2822590" lon="-8.3222390">
        <ele>510.3</ele>
        <time>2022-08-27T17:16:23Z</time>
      </trkpt>
      <trkpt lat="42.2822420" lon="-8.3222720">
        <ele>510.5</ele>
        <time>2022-08-27T17:16:24Z</time>
      </trkpt>
      <trkpt lat="42.2822230" lon="-8.3223060">
        <ele>510.6</ele>
        <time>2022-08-27T17:16:25Z</time>
      </trkpt>
      <trkpt lat="42.2822070" lon="-8.3223370">
        <ele>510.7</ele>
        <time>2022-08-27T17:16:26Z</time>
      </trkpt>
      <trkpt lat="42.2821900" lon="-8.3223700">
        <ele>510.9</ele>
        <time>2022-08-27T17:16:27Z</time>
      </trkpt>
      <trkpt lat="42.2821740" lon="-8.3224010">
        <ele>511.1</ele>
        <time>2022-08-27T17:16:28Z</time>
      </trkpt>
      <trkpt lat="42.2821540" lon="-8.3224370">
        <ele>511.3</ele>
        <time>2022-08-27T17:16:29Z</time>
      </trkpt>
      <trkpt lat="42.2821480" lon="-8.3224480">
        <ele>511.3</ele>
        <time>2022-08-27T17:16:30Z</time>
      </trkpt>
      <trkpt lat="42.2821380" lon="-8.3224680">
        <ele>511.5</ele>
        <time>2022-08-27T17:16:31Z</time>
      </trkpt>
      <trkpt lat="42.2821270" lon="-8.3224860">
        <ele>511.6</ele>
        <time>2022-08-27T17:16:32Z</time>
      </trkpt>
      <trkpt lat="42.2821100" lon="-8.3225170">
        <ele>511.8</ele>
        <time>2022-08-27T17:16:33Z</time>
      </trkpt>
      <trkpt lat="42.2821030" lon="-8.3225270">
        <ele>511.9</ele>
        <time>2022-08-27T17:16:34Z</time>
      </trkpt>
      <trkpt lat="42.2820840" lon="-8.3225650">
        <ele>512.1</ele>
        <time>2022-08-27T17:16:35Z</time>
      </trkpt>
      <trkpt lat="42.2820780" lon="-8.3225780">
        <ele>512.2</ele>
        <time>2022-08-27T17:16:36Z</time>
      </trkpt>
      <trkpt lat="42.2820520" lon="-8.3226130">
        <ele>512.5</ele>
        <time>2022-08-27T17:16:37Z</time>
      </trkpt>
      <trkpt lat="42.2820430" lon="-8.3226230">
        <ele>512.6</ele>
        <time>2022-08-27T17:16:38Z</time>
      </trkpt>
      <trkpt lat="42.2820110" lon="-8.3226600">
        <ele>512.9</ele>
        <time>2022-08-27T17:16:39Z</time>
      </trkpt>
      <trkpt lat="42.2819990" lon="-8.3226750">
        <ele>513.1</ele>
        <time>2022-08-27T17:16:40Z</time>
      </trkpt>
      <trkpt lat="42.2819770" lon="-8.3227130">
        <ele>513.3</ele>
        <time>2022-08-27T17:16:41Z</time>
      </trkpt>
      <trkpt lat="42.2819700" lon="-8.3227270">
        <ele>513.4</ele>
        <time>2022-08-27T17:16:42Z</time>
      </trkpt>
      <trkpt lat="42.2819490" lon="-8.3227630">
        <ele>513.7</ele>
        <time>2022-08-27T17:16:43Z</time>
      </trkpt>
      <trkpt lat="42.2819440" lon="-8.3227720">
        <ele>513.8</ele>
        <time>2022-08-27T17:16:44Z</time>
      </trkpt>
      <trkpt lat="42.2819230" lon="-8.3228090">
        <ele>514.1</ele>
        <time>2022-08-27T17:16:45Z</time>
      </trkpt>
      <trkpt lat="42.2819170" lon="-8.3228190">
        <ele>514.1</ele>
        <time>2022-08-27T17:16:46Z</time>
      </trkpt>
      <trkpt lat="42.2818950" lon="-8.3228510">
        <ele>514.4</ele>
        <time>2022-08-27T17:16:47Z</time>
      </trkpt>
      <trkpt lat="42.2818870" lon="-8.3228630">
        <ele>514.5</ele>
        <time>2022-08-27T17:16:48Z</time>
      </trkpt>
      <trkpt lat="42.2818690" lon="-8.3228930">
        <ele>514.7</ele>
        <time>2022-08-27T17:16:49Z</time>
      </trkpt>
      <trkpt lat="42.2818640" lon="-8.3229020">
        <ele>514.7</ele>
        <time>2022-08-27T17:16:50Z</time>
      </trkpt>
      <trkpt lat="42.2818550" lon="-8.3229220">
        <ele>514.9</ele>
        <time>2022-08-27T17:16:51Z</time>
      </trkpt>
      <trkpt lat="42.2818460" lon="-8.3229430">
        <ele>515.0</ele>
        <time>2022-08-27T17:16:52Z</time>
      </trkpt>
      <trkpt lat="42.2818250" lon="-8.3229810">
        <ele>515.2</ele>
        <time>2022-08-27T17:16:53Z</time>
      </trkpt>
      <trkpt lat="42.2818180" lon="-8.3229930">
        <ele>515.2</ele>
        <time>2022-08-27T17:16:54Z</time>
      </trkpt>
      <trkpt lat="42.2817940" lon="-8.3230250">
        <ele>515.4</ele>
        <time>2022-08-27T17:16:55Z</time>
      </trkpt>
      <trkpt lat="42.2817850" lon="-8.3230360">
        <ele>515.5</ele>
        <time>2022-08-27T17:16:56Z</time>
      </trkpt>
      <trkpt lat="42.2817570" lon="-8.3230710">
        <ele>515.6</ele>
        <time>2022-08-27T17:16:57Z</time>
      </trkpt>
      <trkpt lat="42.2817470" lon="-8.3230820">
        <ele>515.6</ele>
        <time>2022-08-27T17:16:58Z</time>
      </trkpt>
      <trkpt lat="42.2817240" lon="-8.3231080">
        <ele>515.7</ele>
        <time>2022-08-27T17:16:59Z</time>
      </trkpt>
      <trkpt lat="42.2816980" lon="-8.3231320">
        <ele>515.8</ele>
        <time>2022-08-27T17:17:00Z</time>
      </trkpt>
      <trkpt lat="42.2816640" lon="-8.3231560">
        <ele>515.9</ele>
        <time>2022-08-27T17:17:01Z</time>
      </trkpt>
      <trkpt lat="42.2816350" lon="-8.3231770">
        <ele>515.9</ele>
        <time>2022-08-27T17:17:02Z</time>
      </trkpt>
      <trkpt lat="42.2816020" lon="-8.3232000">
        <ele>516.0</ele>
        <time>2022-08-27T17:17:03Z</time>
      </trkpt>
      <trkpt lat="42.2815700" lon="-8.3232240">
        <ele>516.0</ele>
        <time>2022-08-27T17:17:04Z</time>
      </trkpt>
      <trkpt lat="42.2815390" lon="-8.3232450">
        <ele>516.0</ele>
        <time>2022-08-27T17:17:05Z</time>
      </trkpt>
      <trkpt lat="42.2815080" lon="-8.3232680">
        <ele>516.0</ele>
        <time>2022-08-27T17:17:06Z</time>
      </trkpt>
      <trkpt lat="42.2814590" lon="-8.3233150">
        <ele>516.1</ele>
        <time>2022-08-27T17:17:08Z</time>
      </trkpt>
      <trkpt lat="42.2814300" lon="-8.3233410">
        <ele>516.1</ele>
        <time>2022-08-27T17:17:09Z</time>
      </trkpt>
      <trkpt lat="42.2814050" lon="-8.3233630">
        <ele>516.1</ele>
        <time>2022-08-27T17:17:10Z</time>
      </trkpt>
      <trkpt lat="42.2813720" lon="-8.3233830">
        <ele>516.1</ele>
        <time>2022-08-27T17:17:11Z</time>
      </trkpt>
      <trkpt lat="42.2813090" lon="-8.3234310">
        <ele>516.1</ele>
        <time>2022-08-27T17:17:13Z</time>
      </trkpt>
      <trkpt lat="42.2812770" lon="-8.3234610">
        <ele>516.0</ele>
        <time>2022-08-27T17:17:14Z</time>
      </trkpt>
      <trkpt lat="42.2812180" lon="-8.3235220">
        <ele>516.0</ele>
        <time>2022-08-27T17:17:16Z</time>
      </trkpt>
      <trkpt lat="42.2811900" lon="-8.3235540">
        <ele>515.9</ele>
        <time>2022-08-27T17:17:17Z</time>
      </trkpt>
      <trkpt lat="42.2811610" lon="-8.3235940">
        <ele>515.9</ele>
        <time>2022-08-27T17:17:18Z</time>
      </trkpt>
      <trkpt lat="42.2811270" lon="-8.3236320">
        <ele>515.8</ele>
        <time>2022-08-27T17:17:19Z</time>
      </trkpt>
      <trkpt lat="42.2811030" lon="-8.3236550">
        <ele>515.8</ele>
        <time>2022-08-27T17:17:20Z</time>
      </trkpt>
      <trkpt lat="42.2810730" lon="-8.3236860">
        <ele>515.7</ele>
        <time>2022-08-27T17:17:21Z</time>
      </trkpt>
      <trkpt lat="42.2810470" lon="-8.3237120">
        <ele>515.6</ele>
        <time>2022-08-27T17:17:22Z</time>
      </trkpt>
      <trkpt lat="42.2810140" lon="-8.3237440">
        <ele>515.4</ele>
        <time>2022-08-27T17:17:23Z</time>
      </trkpt>
      <trkpt lat="42.2809860" lon="-8.3237690">
        <ele>515.2</ele>
        <time>2022-08-27T17:17:24Z</time>
      </trkpt>
      <trkpt lat="42.2809560" lon="-8.3237950">
        <ele>515.0</ele>
        <time>2022-08-27T17:17:25Z</time>
      </trkpt>
      <trkpt lat="42.2809190" lon="-8.3238220">
        <ele>514.8</ele>
        <time>2022-08-27T17:17:26Z</time>
      </trkpt>
      <trkpt lat="42.2808660" lon="-8.3238550">
        <ele>514.3</ele>
        <time>2022-08-27T17:17:27Z</time>
      </trkpt>
      <trkpt lat="42.2808100" lon="-8.3238830">
        <ele>513.8</ele>
        <time>2022-08-27T17:17:28Z</time>
      </trkpt>
      <trkpt lat="42.2807520" lon="-8.3239080">
        <ele>513.3</ele>
        <time>2022-08-27T17:17:29Z</time>
      </trkpt>
      <trkpt lat="42.2806910" lon="-8.3239250">
        <ele>512.7</ele>
        <time>2022-08-27T17:17:30Z</time>
      </trkpt>
      <trkpt lat="42.2806330" lon="-8.3239440">
        <ele>512.1</ele>
        <time>2022-08-27T17:17:31Z</time>
      </trkpt>
      <trkpt lat="42.2805730" lon="-8.3239590">
        <ele>511.4</ele>
        <time>2022-08-27T17:17:32Z</time>
      </trkpt>
      <trkpt lat="42.2804960" lon="-8.3239690">
        <ele>510.5</ele>
        <time>2022-08-27T17:17:33Z</time>
      </trkpt>
      <trkpt lat="42.2804170" lon="-8.3239830">
        <ele>509.5</ele>
        <time>2022-08-27T17:17:34Z</time>
      </trkpt>
      <trkpt lat="42.2803290" lon="-8.3240010">
        <ele>508.4</ele>
        <time>2022-08-27T17:17:35Z</time>
      </trkpt>
      <trkpt lat="42.2802350" lon="-8.3240270">
        <ele>507.3</ele>
        <time>2022-08-27T17:17:36Z</time>
      </trkpt>
      <trkpt lat="42.2801430" lon="-8.3240630">
        <ele>506.2</ele>
        <time>2022-08-27T17:17:37Z</time>
      </trkpt>
      <trkpt lat="42.2800470" lon="-8.3241110">
        <ele>505.0</ele>
        <time>2022-08-27T17:17:38Z</time>
      </trkpt>
      <trkpt lat="42.2799560" lon="-8.3241890">
        <ele>503.9</ele>
        <time>2022-08-27T17:17:39Z</time>
      </trkpt>
      <trkpt lat="42.2798810" lon="-8.3242920">
        <ele>502.8</ele>
        <time>2022-08-27T17:17:40Z</time>
      </trkpt>
      <trkpt lat="42.2798320" lon="-8.3244050">
        <ele>502.3</ele>
        <time>2022-08-27T17:17:41Z</time>
      </trkpt>
      <trkpt lat="42.2798110" lon="-8.3245290">
        <ele>501.7</ele>
        <time>2022-08-27T17:17:42Z</time>
      </trkpt>
      <trkpt lat="42.2798240" lon="-8.3246620">
        <ele>501.2</ele>
        <time>2022-08-27T17:17:43Z</time>
      </trkpt>
      <trkpt lat="42.2798370" lon="-8.3247910">
        <ele>500.7</ele>
        <time>2022-08-27T17:17:44Z</time>
      </trkpt>
      <trkpt lat="42.2798530" lon="-8.3249120">
        <ele>500.3</ele>
        <time>2022-08-27T17:17:45Z</time>
      </trkpt>
      <trkpt lat="42.2798690" lon="-8.3250330">
        <ele>500.0</ele>
        <time>2022-08-27T17:17:46Z</time>
      </trkpt>
      <trkpt lat="42.2798860" lon="-8.3251570">
        <ele>499.6</ele>
        <time>2022-08-27T17:17:47Z</time>
      </trkpt>
      <trkpt lat="42.2799020" lon="-8.3252710">
        <ele>499.3</ele>
        <time>2022-08-27T17:17:48Z</time>
      </trkpt>
      <trkpt lat="42.2799120" lon="-8.3253860">
        <ele>499.2</ele>
        <time>2022-08-27T17:17:49Z</time>
      </trkpt>
      <trkpt lat="42.2799140" lon="-8.3255040">
        <ele>499.1</ele>
        <time>2022-08-27T17:17:50Z</time>
      </trkpt>
      <trkpt lat="42.2799010" lon="-8.3256190">
        <ele>499.1</ele>
        <time>2022-08-27T17:17:51Z</time>
      </trkpt>
      <trkpt lat="42.2798750" lon="-8.3257220">
        <ele>499.1</ele>
        <time>2022-08-27T17:17:52Z</time>
      </trkpt>
      <trkpt lat="42.2798390" lon="-8.3258150">
        <ele>499.1</ele>
        <time>2022-08-27T17:17:53Z</time>
      </trkpt>
      <trkpt lat="42.2798040" lon="-8.3258940">
        <ele>499.0</ele>
        <time>2022-08-27T17:17:54Z</time>
      </trkpt>
      <trkpt lat="42.2797630" lon="-8.3259670">
        <ele>499.0</ele>
        <time>2022-08-27T17:17:55Z</time>
      </trkpt>
      <trkpt lat="42.2797100" lon="-8.3260320">
        <ele>499.0</ele>
        <time>2022-08-27T17:17:56Z</time>
      </trkpt>
      <trkpt lat="42.2796490" lon="-8.3260850">
        <ele>499.1</ele>
        <time>2022-08-27T17:17:57Z</time>
      </trkpt>
      <trkpt lat="42.2795890" lon="-8.3261360">
        <ele>499.1</ele>
        <time>2022-08-27T17:17:58Z</time>
      </trkpt>
      <trkpt lat="42.2795290" lon="-8.3261840">
        <ele>499.1</ele>
        <time>2022-08-27T17:17:59Z</time>
      </trkpt>
      <trkpt lat="42.2794710" lon="-8.3262320">
        <ele>499.1</ele>
        <time>2022-08-27T17:18:00Z</time>
      </trkpt>
      <trkpt lat="42.2794210" lon="-8.3262880">
        <ele>499.2</ele>
        <time>2022-08-27T17:18:01Z</time>
      </trkpt>
      <trkpt lat="42.2793660" lon="-8.3263510">
        <ele>499.2</ele>
        <time>2022-08-27T17:18:02Z</time>
      </trkpt>
      <trkpt lat="42.2793140" lon="-8.3264170">
        <ele>499.3</ele>
        <time>2022-08-27T17:18:03Z</time>
      </trkpt>
      <trkpt lat="42.2792840" lon="-8.3264920">
        <ele>499.4</ele>
        <time>2022-08-27T17:18:04Z</time>
      </trkpt>
      <trkpt lat="42.2792480" lon="-8.3265710">
        <ele>499.6</ele>
        <time>2022-08-27T17:18:05Z</time>
      </trkpt>
      <trkpt lat="42.2792160" lon="-8.3266460">
        <ele>499.8</ele>
        <time>2022-08-27T17:18:06Z</time>
      </trkpt>
      <trkpt lat="42.2791880" lon="-8.3267200">
        <ele>500.0</ele>
        <time>2022-08-27T17:18:07Z</time>
      </trkpt>
      <trkpt lat="42.2791840" lon="-8.3267970">
        <ele>500.2</ele>
        <time>2022-08-27T17:18:08Z</time>
      </trkpt>
      <trkpt lat="42.2791800" lon="-8.3268640">
        <ele>500.4</ele>
        <time>2022-08-27T17:18:09Z</time>
      </trkpt>
      <trkpt lat="42.2791680" lon="-8.3269260">
        <ele>500.7</ele>
        <time>2022-08-27T17:18:10Z</time>
      </trkpt>
      <trkpt lat="42.2791620" lon="-8.3269910">
        <ele>501.0</ele>
        <time>2022-08-27T17:18:11Z</time>
      </trkpt>
      <trkpt lat="42.2791510" lon="-8.3270390">
        <ele>501.2</ele>
        <time>2022-08-27T17:18:12Z</time>
      </trkpt>
      <trkpt lat="42.2791430" lon="-8.3270820">
        <ele>501.4</ele>
        <time>2022-08-27T17:18:13Z</time>
      </trkpt>
      <trkpt lat="42.2791340" lon="-8.3271330">
        <ele>501.6</ele>
        <time>2022-08-27T17:18:14Z</time>
      </trkpt>
      <trkpt lat="42.2791220" lon="-8.3271760">
        <ele>501.8</ele>
        <time>2022-08-27T17:18:15Z</time>
      </trkpt>
      <trkpt lat="42.2791140" lon="-8.3272110">
        <ele>502.0</ele>
        <time>2022-08-27T17:18:16Z</time>
      </trkpt>
      <trkpt lat="42.2791030" lon="-8.3272700">
        <ele>502.2</ele>
        <time>2022-08-27T17:18:17Z</time>
      </trkpt>
      <trkpt lat="42.2790960" lon="-8.3273010">
        <ele>502.4</ele>
        <time>2022-08-27T17:18:18Z</time>
      </trkpt>
      <trkpt lat="42.2790950" lon="-8.3273480">
        <ele>502.5</ele>
        <time>2022-08-27T17:18:19Z</time>
      </trkpt>
      <trkpt lat="42.2790930" lon="-8.3273650">
        <ele>502.5</ele>
        <time>2022-08-27T17:18:20Z</time>
      </trkpt>
      <trkpt lat="42.2790850" lon="-8.3274090">
        <ele>502.5</ele>
        <time>2022-08-27T17:18:21Z</time>
      </trkpt>
      <trkpt lat="42.2790760" lon="-8.3274510">
        <ele>502.6</ele>
        <time>2022-08-27T17:18:22Z</time>
      </trkpt>
      <trkpt lat="42.2790670" lon="-8.3275000">
        <ele>502.6</ele>
        <time>2022-08-27T17:18:23Z</time>
      </trkpt>
      <trkpt lat="42.2790540" lon="-8.3275520">
        <ele>502.6</ele>
        <time>2022-08-27T17:18:24Z</time>
      </trkpt>
      <trkpt lat="42.2790420" lon="-8.3276000">
        <ele>502.7</ele>
        <time>2022-08-27T17:18:25Z</time>
      </trkpt>
      <trkpt lat="42.2790250" lon="-8.3276640">
        <ele>502.7</ele>
        <time>2022-08-27T17:18:26Z</time>
      </trkpt>
      <trkpt lat="42.2790050" lon="-8.3277370">
        <ele>502.9</ele>
        <time>2022-08-27T17:18:28Z</time>
      </trkpt>
      <trkpt lat="42.2789900" lon="-8.3277880">
        <ele>503.0</ele>
        <time>2022-08-27T17:18:29Z</time>
      </trkpt>
      <trkpt lat="42.2789710" lon="-8.3278380">
        <ele>503.1</ele>
        <time>2022-08-27T17:18:30Z</time>
      </trkpt>
      <trkpt lat="42.2789310" lon="-8.3279220">
        <ele>503.3</ele>
        <time>2022-08-27T17:18:32Z</time>
      </trkpt>
      <trkpt lat="42.2789160" lon="-8.3279580">
        <ele>503.5</ele>
        <time>2022-08-27T17:18:33Z</time>
      </trkpt>
      <trkpt lat="42.2788980" lon="-8.3279940">
        <ele>503.6</ele>
        <time>2022-08-27T17:18:34Z</time>
      </trkpt>
      <trkpt lat="42.2788820" lon="-8.3280290">
        <ele>503.8</ele>
        <time>2022-08-27T17:18:35Z</time>
      </trkpt>
      <trkpt lat="42.2788510" lon="-8.3280990">
        <ele>504.1</ele>
        <time>2022-08-27T17:18:37Z</time>
      </trkpt>
      <trkpt lat="42.2788330" lon="-8.3281270">
        <ele>504.2</ele>
        <time>2022-08-27T17:18:38Z</time>
      </trkpt>
      <trkpt lat="42.2788000" lon="-8.3281790">
        <ele>504.5</ele>
        <time>2022-08-27T17:18:40Z</time>
      </trkpt>
      <trkpt lat="42.2787720" lon="-8.3282350">
        <ele>504.8</ele>
        <time>2022-08-27T17:18:42Z</time>
      </trkpt>
      <trkpt lat="42.2787620" lon="-8.3282500">
        <ele>504.9</ele>
        <time>2022-08-27T17:18:43Z</time>
      </trkpt>
      <trkpt lat="42.2787530" lon="-8.3282650">
        <ele>505.0</ele>
        <time>2022-08-27T17:18:44Z</time>
      </trkpt>
      <trkpt lat="42.2787340" lon="-8.3283020">
        <ele>505.2</ele>
        <time>2022-08-27T17:18:45Z</time>
      </trkpt>
      <trkpt lat="42.2787280" lon="-8.3283130">
        <ele>505.2</ele>
        <time>2022-08-27T17:18:46Z</time>
      </trkpt>
      <trkpt lat="42.2787050" lon="-8.3283520">
        <ele>505.4</ele>
        <time>2022-08-27T17:18:47Z</time>
      </trkpt>
      <trkpt lat="42.2786970" lon="-8.3283640">
        <ele>505.5</ele>
        <time>2022-08-27T17:18:48Z</time>
      </trkpt>
      <trkpt lat="42.2786780" lon="-8.3283940">
        <ele>505.7</ele>
        <time>2022-08-27T17:18:49Z</time>
      </trkpt>
      <trkpt lat="42.2786520" lon="-8.3284310">
        <ele>505.8</ele>
        <time>2022-08-27T17:18:50Z</time>
      </trkpt>
      <trkpt lat="42.2786440" lon="-8.3284420">
        <ele>505.9</ele>
        <time>2022-08-27T17:18:51Z</time>
      </trkpt>
      <trkpt lat="42.2786190" lon="-8.3284760">
        <ele>506.1</ele>
        <time>2022-08-27T17:18:52Z</time>
      </trkpt>
      <trkpt lat="42.2786090" lon="-8.3284890">
        <ele>506.1</ele>
        <time>2022-08-27T17:18:53Z</time>
      </trkpt>
      <trkpt lat="42.2785850" lon="-8.3285160">
        <ele>506.3</ele>
        <time>2022-08-27T17:18:54Z</time>
      </trkpt>
      <trkpt lat="42.2785640" lon="-8.3285450">
        <ele>506.4</ele>
        <time>2022-08-27T17:18:55Z</time>
      </trkpt>
      <trkpt lat="42.2785450" lon="-8.3285760">
        <ele>506.5</ele>
        <time>2022-08-27T17:18:56Z</time>
      </trkpt>
      <trkpt lat="42.2785260" lon="-8.3286080">
        <ele>506.6</ele>
        <time>2022-08-27T17:18:57Z</time>
      </trkpt>
      <trkpt lat="42.2785070" lon="-8.3286370">
        <ele>506.8</ele>
        <time>2022-08-27T17:18:58Z</time>
      </trkpt>
      <trkpt lat="42.2784880" lon="-8.3286720">
        <ele>506.9</ele>
        <time>2022-08-27T17:18:59Z</time>
      </trkpt>
      <trkpt lat="42.2784690" lon="-8.3287110">
        <ele>507.0</ele>
        <time>2022-08-27T17:19:00Z</time>
      </trkpt>
      <trkpt lat="42.2784530" lon="-8.3287460">
        <ele>507.1</ele>
        <time>2022-08-27T17:19:01Z</time>
      </trkpt>
      <trkpt lat="42.2784350" lon="-8.3287810">
        <ele>507.3</ele>
        <time>2022-08-27T17:19:02Z</time>
      </trkpt>
      <trkpt lat="42.2784120" lon="-8.3288200">
        <ele>507.4</ele>
        <time>2022-08-27T17:19:03Z</time>
      </trkpt>
      <trkpt lat="42.2783930" lon="-8.3288510">
        <ele>507.5</ele>
        <time>2022-08-27T17:19:04Z</time>
      </trkpt>
      <trkpt lat="42.2783750" lon="-8.3288850">
        <ele>507.7</ele>
        <time>2022-08-27T17:19:05Z</time>
      </trkpt>
      <trkpt lat="42.2783590" lon="-8.3289200">
        <ele>507.8</ele>
        <time>2022-08-27T17:19:06Z</time>
      </trkpt>
      <trkpt lat="42.2783430" lon="-8.3289610">
        <ele>508.0</ele>
        <time>2022-08-27T17:19:07Z</time>
      </trkpt>
      <trkpt lat="42.2783220" lon="-8.3290080">
        <ele>508.1</ele>
        <time>2022-08-27T17:19:08Z</time>
      </trkpt>
      <trkpt lat="42.2783150" lon="-8.3290260">
        <ele>508.2</ele>
        <time>2022-08-27T17:19:09Z</time>
      </trkpt>
      <trkpt lat="42.2783000" lon="-8.3290690">
        <ele>508.4</ele>
        <time>2022-08-27T17:19:10Z</time>
      </trkpt>
      <trkpt lat="42.2782810" lon="-8.3291130">
        <ele>508.6</ele>
        <time>2022-08-27T17:19:11Z</time>
      </trkpt>
      <trkpt lat="42.2782740" lon="-8.3291270">
        <ele>508.7</ele>
        <time>2022-08-27T17:19:12Z</time>
      </trkpt>
      <trkpt lat="42.2782370" lon="-8.3291920">
        <ele>509.0</ele>
        <time>2022-08-27T17:19:14Z</time>
      </trkpt>
      <trkpt lat="42.2782120" lon="-8.3292310">
        <ele>509.3</ele>
        <time>2022-08-27T17:19:15Z</time>
      </trkpt>
      <trkpt lat="42.2782040" lon="-8.3292440">
        <ele>509.3</ele>
        <time>2022-08-27T17:19:16Z</time>
      </trkpt>
      <trkpt lat="42.2781840" lon="-8.3292820">
        <ele>509.6</ele>
        <time>2022-08-27T17:19:17Z</time>
      </trkpt>
      <trkpt lat="42.2781770" lon="-8.3292940">
        <ele>509.6</ele>
        <time>2022-08-27T17:19:18Z</time>
      </trkpt>
      <trkpt lat="42.2781590" lon="-8.3293210">
        <ele>509.8</ele>
        <time>2022-08-27T17:19:19Z</time>
      </trkpt>
      <trkpt lat="42.2781520" lon="-8.3293300">
        <ele>509.9</ele>
        <time>2022-08-27T17:19:20Z</time>
      </trkpt>
      <trkpt lat="42.2781320" lon="-8.3293580">
        <ele>510.1</ele>
        <time>2022-08-27T17:19:21Z</time>
      </trkpt>
      <trkpt lat="42.2781270" lon="-8.3293680">
        <ele>510.2</ele>
        <time>2022-08-27T17:19:22Z</time>
      </trkpt>
      <trkpt lat="42.2781070" lon="-8.3294060">
        <ele>510.4</ele>
        <time>2022-08-27T17:19:23Z</time>
      </trkpt>
      <trkpt lat="42.2781020" lon="-8.3294180">
        <ele>510.5</ele>
        <time>2022-08-27T17:19:24Z</time>
      </trkpt>
      <trkpt lat="42.2780940" lon="-8.3294330">
        <ele>510.6</ele>
        <time>2022-08-27T17:19:25Z</time>
      </trkpt>
      <trkpt lat="42.2780810" lon="-8.3294520">
        <ele>510.7</ele>
        <time>2022-08-27T17:19:26Z</time>
      </trkpt>
      <trkpt lat="42.2780630" lon="-8.3294840">
        <ele>510.9</ele>
        <time>2022-08-27T17:19:27Z</time>
      </trkpt>
      <trkpt lat="42.2780570" lon="-8.3294940">
        <ele>511.0</ele>
        <time>2022-08-27T17:19:28Z</time>
      </trkpt>
      <trkpt lat="42.2780500" lon="-8.3295110">
        <ele>511.1</ele>
        <time>2022-08-27T17:19:29Z</time>
      </trkpt>
      <trkpt lat="42.2780380" lon="-8.3295320">
        <ele>511.3</ele>
        <time>2022-08-27T17:19:30Z</time>
      </trkpt>
      <trkpt lat="42.2780200" lon="-8.3295650">
        <ele>511.5</ele>
        <time>2022-08-27T17:19:31Z</time>
      </trkpt>
      <trkpt lat="42.2780150" lon="-8.3295730">
        <ele>511.5</ele>
        <time>2022-08-27T17:19:32Z</time>
      </trkpt>
      <trkpt lat="42.2779970" lon="-8.3296100">
        <ele>511.8</ele>
        <time>2022-08-27T17:19:33Z</time>
      </trkpt>
      <trkpt lat="42.2779910" lon="-8.3296240">
        <ele>511.9</ele>
        <time>2022-08-27T17:19:34Z</time>
      </trkpt>
      <trkpt lat="42.2779770" lon="-8.3296450">
        <ele>512.0</ele>
        <time>2022-08-27T17:19:35Z</time>
      </trkpt>
      <trkpt lat="42.2779680" lon="-8.3296600">
        <ele>512.1</ele>
        <time>2022-08-27T17:19:36Z</time>
      </trkpt>
      <trkpt lat="42.2779480" lon="-8.3296940">
        <ele>512.3</ele>
        <time>2022-08-27T17:19:37Z</time>
      </trkpt>
      <trkpt lat="42.2779410" lon="-8.3297050">
        <ele>512.4</ele>
        <time>2022-08-27T17:19:38Z</time>
      </trkpt>
      <trkpt lat="42.2779210" lon="-8.3297370">
        <ele>512.6</ele>
        <time>2022-08-27T17:19:39Z</time>
      </trkpt>
      <trkpt lat="42.2779140" lon="-8.3297490">
        <ele>512.7</ele>
        <time>2022-08-27T17:19:40Z</time>
      </trkpt>
      <trkpt lat="42.2779030" lon="-8.3297840">
        <ele>512.9</ele>
        <time>2022-08-27T17:19:41Z</time>
      </trkpt>
      <trkpt lat="42.2778960" lon="-8.3297990">
        <ele>513.0</ele>
        <time>2022-08-27T17:19:42Z</time>
      </trkpt>
      <trkpt lat="42.2778800" lon="-8.3298280">
        <ele>513.1</ele>
        <time>2022-08-27T17:19:43Z</time>
      </trkpt>
      <trkpt lat="42.2778580" lon="-8.3298630">
        <ele>513.3</ele>
        <time>2022-08-27T17:19:44Z</time>
      </trkpt>
      <trkpt lat="42.2778500" lon="-8.3298780">
        <ele>513.4</ele>
        <time>2022-08-27T17:19:45Z</time>
      </trkpt>
      <trkpt lat="42.2778300" lon="-8.3299100">
        <ele>513.5</ele>
        <time>2022-08-27T17:19:46Z</time>
      </trkpt>
      <trkpt lat="42.2778040" lon="-8.3299460">
        <ele>513.7</ele>
        <time>2022-08-27T17:19:47Z</time>
      </trkpt>
      <trkpt lat="42.2777840" lon="-8.3299750">
        <ele>513.9</ele>
        <time>2022-08-27T17:19:48Z</time>
      </trkpt>
      <trkpt lat="42.2777600" lon="-8.3300170">
        <ele>514.0</ele>
        <time>2022-08-27T17:19:49Z</time>
      </trkpt>
      <trkpt lat="42.2777520" lon="-8.3300330">
        <ele>514.1</ele>
        <time>2022-08-27T17:19:50Z</time>
      </trkpt>
      <trkpt lat="42.2777350" lon="-8.3300700">
        <ele>514.3</ele>
        <time>2022-08-27T17:19:51Z</time>
      </trkpt>
      <trkpt lat="42.2777160" lon="-8.3301000">
        <ele>514.4</ele>
        <time>2022-08-27T17:19:52Z</time>
      </trkpt>
      <trkpt lat="42.2776960" lon="-8.3301330">
        <ele>514.6</ele>
        <time>2022-08-27T17:19:53Z</time>
      </trkpt>
      <trkpt lat="42.2776610" lon="-8.3301950">
        <ele>514.8</ele>
        <time>2022-08-27T17:19:55Z</time>
      </trkpt>
      <trkpt lat="42.2776450" lon="-8.3302290">
        <ele>515.0</ele>
        <time>2022-08-27T17:19:56Z</time>
      </trkpt>
      <trkpt lat="42.2776260" lon="-8.3302610">
        <ele>515.2</ele>
        <time>2022-08-27T17:19:57Z</time>
      </trkpt>
      <trkpt lat="42.2776020" lon="-8.3303050">
        <ele>515.4</ele>
        <time>2022-08-27T17:19:58Z</time>
      </trkpt>
      <trkpt lat="42.2775940" lon="-8.3303220">
        <ele>515.5</ele>
        <time>2022-08-27T17:19:59Z</time>
      </trkpt>
      <trkpt lat="42.2775780" lon="-8.3303590">
        <ele>515.7</ele>
        <time>2022-08-27T17:20:00Z</time>
      </trkpt>
      <trkpt lat="42.2775720" lon="-8.3303710">
        <ele>515.8</ele>
        <time>2022-08-27T17:20:01Z</time>
      </trkpt>
      <trkpt lat="42.2775480" lon="-8.3304110">
        <ele>516.0</ele>
        <time>2022-08-27T17:20:02Z</time>
      </trkpt>
      <trkpt lat="42.2775390" lon="-8.3304250">
        <ele>516.1</ele>
        <time>2022-08-27T17:20:03Z</time>
      </trkpt>
      <trkpt lat="42.2775170" lon="-8.3304590">
        <ele>516.3</ele>
        <time>2022-08-27T17:20:04Z</time>
      </trkpt>
      <trkpt lat="42.2775100" lon="-8.3304700">
        <ele>516.4</ele>
        <time>2022-08-27T17:20:05Z</time>
      </trkpt>
      <trkpt lat="42.2774870" lon="-8.3305030">
        <ele>516.6</ele>
        <time>2022-08-27T17:20:06Z</time>
      </trkpt>
      <trkpt lat="42.2774790" lon="-8.3305140">
        <ele>516.7</ele>
        <time>2022-08-27T17:20:07Z</time>
      </trkpt>
      <trkpt lat="42.2774570" lon="-8.3305520">
        <ele>516.9</ele>
        <time>2022-08-27T17:20:08Z</time>
      </trkpt>
      <trkpt lat="42.2774510" lon="-8.3305650">
        <ele>517.0</ele>
        <time>2022-08-27T17:20:09Z</time>
      </trkpt>
      <trkpt lat="42.2774410" lon="-8.3306030">
        <ele>517.2</ele>
        <time>2022-08-27T17:20:10Z</time>
      </trkpt>
      <trkpt lat="42.2774380" lon="-8.3306170">
        <ele>517.2</ele>
        <time>2022-08-27T17:20:11Z</time>
      </trkpt>
      <trkpt lat="42.2774290" lon="-8.3306560">
        <ele>517.4</ele>
        <time>2022-08-27T17:20:13Z</time>
      </trkpt>
      <trkpt lat="42.2774260" lon="-8.3306930">
        <ele>517.6</ele>
        <time>2022-08-27T17:20:14Z</time>
      </trkpt>
      <trkpt lat="42.2774120" lon="-8.3307270">
        <ele>517.8</ele>
        <time>2022-08-27T17:20:15Z</time>
      </trkpt>
      <trkpt lat="42.2774050" lon="-8.3307380">
        <ele>517.8</ele>
        <time>2022-08-27T17:20:16Z</time>
      </trkpt>
      <trkpt lat="42.2773850" lon="-8.3307720">
        <ele>518.0</ele>
        <time>2022-08-27T17:20:17Z</time>
      </trkpt>
      <trkpt lat="42.2773770" lon="-8.3307860">
        <ele>518.1</ele>
        <time>2022-08-27T17:20:18Z</time>
      </trkpt>
      <trkpt lat="42.2773580" lon="-8.3308150">
        <ele>518.3</ele>
        <time>2022-08-27T17:20:19Z</time>
      </trkpt>
      <trkpt lat="42.2773370" lon="-8.3308460">
        <ele>518.4</ele>
        <time>2022-08-27T17:20:20Z</time>
      </trkpt>
      <trkpt lat="42.2773140" lon="-8.3308680">
        <ele>518.6</ele>
        <time>2022-08-27T17:20:21Z</time>
      </trkpt>
      <trkpt lat="42.2772850" lon="-8.3309030">
        <ele>518.8</ele>
        <time>2022-08-27T17:20:22Z</time>
      </trkpt>
      <trkpt lat="42.2772770" lon="-8.3309170">
        <ele>518.8</ele>
        <time>2022-08-27T17:20:23Z</time>
      </trkpt>
      <trkpt lat="42.2772630" lon="-8.3309520">
        <ele>519.0</ele>
        <time>2022-08-27T17:20:24Z</time>
      </trkpt>
      <trkpt lat="42.2772350" lon="-8.3310110">
        <ele>519.2</ele>
        <time>2022-08-27T17:20:26Z</time>
      </trkpt>
      <trkpt lat="42.2772210" lon="-8.3310460">
        <ele>519.4</ele>
        <time>2022-08-27T17:20:27Z</time>
      </trkpt>
      <trkpt lat="42.2772070" lon="-8.3310910">
        <ele>519.6</ele>
        <time>2022-08-27T17:20:28Z</time>
      </trkpt>
      <trkpt lat="42.2772040" lon="-8.3311060">
        <ele>519.6</ele>
        <time>2022-08-27T17:20:29Z</time>
      </trkpt>
      <trkpt lat="42.2771910" lon="-8.3311420">
        <ele>519.7</ele>
        <time>2022-08-27T17:20:30Z</time>
      </trkpt>
      <trkpt lat="42.2771840" lon="-8.3311550">
        <ele>519.8</ele>
        <time>2022-08-27T17:20:31Z</time>
      </trkpt>
      <trkpt lat="42.2771610" lon="-8.3311960">
        <ele>519.9</ele>
        <time>2022-08-27T17:20:32Z</time>
      </trkpt>
      <trkpt lat="42.2771530" lon="-8.3312100">
        <ele>519.9</ele>
        <time>2022-08-27T17:20:33Z</time>
      </trkpt>
      <trkpt lat="42.2771300" lon="-8.3312450">
        <ele>520.0</ele>
        <time>2022-08-27T17:20:34Z</time>
      </trkpt>
      <trkpt lat="42.2771210" lon="-8.3312560">
        <ele>520.1</ele>
        <time>2022-08-27T17:20:35Z</time>
      </trkpt>
      <trkpt lat="42.2770810" lon="-8.3313140">
        <ele>520.2</ele>
        <time>2022-08-27T17:20:37Z</time>
      </trkpt>
      <trkpt lat="42.2770500" lon="-8.3313680">
        <ele>520.2</ele>
        <time>2022-08-27T17:20:38Z</time>
      </trkpt>
      <trkpt lat="42.2770280" lon="-8.3314040">
        <ele>520.2</ele>
        <time>2022-08-27T17:20:40Z</time>
      </trkpt>
      <trkpt lat="42.2770010" lon="-8.3314480">
        <ele>520.2</ele>
        <time>2022-08-27T17:20:41Z</time>
      </trkpt>
      <trkpt lat="42.2769710" lon="-8.3315010">
        <ele>520.0</ele>
        <time>2022-08-27T17:20:42Z</time>
      </trkpt>
      <trkpt lat="42.2769330" lon="-8.3315660">
        <ele>519.7</ele>
        <time>2022-08-27T17:20:43Z</time>
      </trkpt>
      <trkpt lat="42.2769040" lon="-8.3316140">
        <ele>519.5</ele>
        <time>2022-08-27T17:20:44Z</time>
      </trkpt>
      <trkpt lat="42.2768710" lon="-8.3316620">
        <ele>519.3</ele>
        <time>2022-08-27T17:20:45Z</time>
      </trkpt>
      <trkpt lat="42.2768330" lon="-8.3317120">
        <ele>519.0</ele>
        <time>2022-08-27T17:20:46Z</time>
      </trkpt>
      <trkpt lat="42.2767970" lon="-8.3317680">
        <ele>518.8</ele>
        <time>2022-08-27T17:20:47Z</time>
      </trkpt>
      <trkpt lat="42.2767650" lon="-8.3318290">
        <ele>518.5</ele>
        <time>2022-08-27T17:20:48Z</time>
      </trkpt>
      <trkpt lat="42.2767240" lon="-8.3318940">
        <ele>518.2</ele>
        <time>2022-08-27T17:20:49Z</time>
      </trkpt>
      <trkpt lat="42.2766820" lon="-8.3319590">
        <ele>518.0</ele>
        <time>2022-08-27T17:20:50Z</time>
      </trkpt>
      <trkpt lat="42.2766440" lon="-8.3320210">
        <ele>517.8</ele>
        <time>2022-08-27T17:20:51Z</time>
      </trkpt>
      <trkpt lat="42.2766080" lon="-8.3320820">
        <ele>517.6</ele>
        <time>2022-08-27T17:20:52Z</time>
      </trkpt>
      <trkpt lat="42.2765660" lon="-8.3321470">
        <ele>517.4</ele>
        <time>2022-08-27T17:20:53Z</time>
      </trkpt>
      <trkpt lat="42.2765210" lon="-8.3322050">
        <ele>517.2</ele>
        <time>2022-08-27T17:20:54Z</time>
      </trkpt>
      <trkpt lat="42.2764770" lon="-8.3322630">
        <ele>517.0</ele>
        <time>2022-08-27T17:20:55Z</time>
      </trkpt>
      <trkpt lat="42.2764310" lon="-8.3323180">
        <ele>516.9</ele>
        <time>2022-08-27T17:20:56Z</time>
      </trkpt>
      <trkpt lat="42.2763890" lon="-8.3323780">
        <ele>516.8</ele>
        <time>2022-08-27T17:20:57Z</time>
      </trkpt>
      <trkpt lat="42.2763440" lon="-8.3324290">
        <ele>516.7</ele>
        <time>2022-08-27T17:20:58Z</time>
      </trkpt>
      <trkpt lat="42.2762970" lon="-8.3324820">
        <ele>516.7</ele>
        <time>2022-08-27T17:20:59Z</time>
      </trkpt>
      <trkpt lat="42.2762540" lon="-8.3325380">
        <ele>516.6</ele>
        <time>2022-08-27T17:21:00Z</time>
      </trkpt>
      <trkpt lat="42.2762100" lon="-8.3325900">
        <ele>516.5</ele>
        <time>2022-08-27T17:21:01Z</time>
      </trkpt>
      <trkpt lat="42.2761620" lon="-8.3326330">
        <ele>516.5</ele>
        <time>2022-08-27T17:21:02Z</time>
      </trkpt>
      <trkpt lat="42.2761120" lon="-8.3326810">
        <ele>516.4</ele>
        <time>2022-08-27T17:21:03Z</time>
      </trkpt>
      <trkpt lat="42.2760690" lon="-8.3327100">
        <ele>516.4</ele>
        <time>2022-08-27T17:21:04Z</time>
      </trkpt>
      <trkpt lat="42.2760270" lon="-8.3327410">
        <ele>516.3</ele>
        <time>2022-08-27T17:21:05Z</time>
      </trkpt>
      <trkpt lat="42.2759790" lon="-8.3327690">
        <ele>516.2</ele>
        <time>2022-08-27T17:21:06Z</time>
      </trkpt>
      <trkpt lat="42.2759270" lon="-8.3327850">
        <ele>516.1</ele>
        <time>2022-08-27T17:21:07Z</time>
      </trkpt>
      <trkpt lat="42.2758730" lon="-8.3327980">
        <ele>516.0</ele>
        <time>2022-08-27T17:21:08Z</time>
      </trkpt>
      <trkpt lat="42.2758150" lon="-8.3328060">
        <ele>515.9</ele>
        <time>2022-08-27T17:21:09Z</time>
      </trkpt>
      <trkpt lat="42.2757530" lon="-8.3328060">
        <ele>515.8</ele>
        <time>2022-08-27T17:21:10Z</time>
      </trkpt>
      <trkpt lat="42.2756980" lon="-8.3328110">
        <ele>515.6</ele>
        <time>2022-08-27T17:21:11Z</time>
      </trkpt>
      <trkpt lat="42.2756420" lon="-8.3328090">
        <ele>515.5</ele>
        <time>2022-08-27T17:21:12Z</time>
      </trkpt>
      <trkpt lat="42.2755840" lon="-8.3328070">
        <ele>515.3</ele>
        <time>2022-08-27T17:21:13Z</time>
      </trkpt>
      <trkpt lat="42.2755310" lon="-8.3327970">
        <ele>515.0</ele>
        <time>2022-08-27T17:21:14Z</time>
      </trkpt>
      <trkpt lat="42.2754770" lon="-8.3327690">
        <ele>514.8</ele>
        <time>2022-08-27T17:21:15Z</time>
      </trkpt>
      <trkpt lat="42.2754180" lon="-8.3327500">
        <ele>514.4</ele>
        <time>2022-08-27T17:21:16Z</time>
      </trkpt>
      <trkpt lat="42.2753540" lon="-8.3327350">
        <ele>514.1</ele>
        <time>2022-08-27T17:21:17Z</time>
      </trkpt>
      <trkpt lat="42.2752860" lon="-8.3327110">
        <ele>513.6</ele>
        <time>2022-08-27T17:21:18Z</time>
      </trkpt>
      <trkpt lat="42.2752230" lon="-8.3326740">
        <ele>513.1</ele>
        <time>2022-08-27T17:21:19Z</time>
      </trkpt>
      <trkpt lat="42.2751540" lon="-8.3326550">
        <ele>512.6</ele>
        <time>2022-08-27T17:21:20Z</time>
      </trkpt>
      <trkpt lat="42.2750790" lon="-8.3326430">
        <ele>512.0</ele>
        <time>2022-08-27T17:21:21Z</time>
      </trkpt>
      <trkpt lat="42.2749970" lon="-8.3326310">
        <ele>511.3</ele>
        <time>2022-08-27T17:21:22Z</time>
      </trkpt>
      <trkpt lat="42.2749080" lon="-8.3326080">
        <ele>510.5</ele>
        <time>2022-08-27T17:21:23Z</time>
      </trkpt>
      <trkpt lat="42.2748220" lon="-8.3325800">
        <ele>509.7</ele>
        <time>2022-08-27T17:21:24Z</time>
      </trkpt>
      <trkpt lat="42.2747460" lon="-8.3325280">
        <ele>508.9</ele>
        <time>2022-08-27T17:21:25Z</time>
      </trkpt>
      <trkpt lat="42.2746640" lon="-8.3324920">
        <ele>508.3</ele>
        <time>2022-08-27T17:21:26Z</time>
      </trkpt>
      <trkpt lat="42.2745770" lon="-8.3324640">
        <ele>507.6</ele>
        <time>2022-08-27T17:21:27Z</time>
      </trkpt>
      <trkpt lat="42.2744920" lon="-8.3324420">
        <ele>507.1</ele>
        <time>2022-08-27T17:21:28Z</time>
      </trkpt>
      <trkpt lat="42.2744020" lon="-8.3324240">
        <ele>506.5</ele>
        <time>2022-08-27T17:21:29Z</time>
      </trkpt>
      <trkpt lat="42.2742980" lon="-8.3324190">
        <ele>505.9</ele>
        <time>2022-08-27T17:21:30Z</time>
      </trkpt>
      <trkpt lat="42.2741900" lon="-8.3324290">
        <ele>505.4</ele>
        <time>2022-08-27T17:21:31Z</time>
      </trkpt>
      <trkpt lat="42.2740880" lon="-8.3324610">
        <ele>505.2</ele>
        <time>2022-08-27T17:21:32Z</time>
      </trkpt>
      <trkpt lat="42.2739910" lon="-8.3325330">
        <ele>505.3</ele>
        <time>2022-08-27T17:21:33Z</time>
      </trkpt>
      <trkpt lat="42.2739240" lon="-8.3326570">
        <ele>505.5</ele>
        <time>2022-08-27T17:21:34Z</time>
      </trkpt>
      <trkpt lat="42.2738720" lon="-8.3327770">
        <ele>506.0</ele>
        <time>2022-08-27T17:21:35Z</time>
      </trkpt>
      <trkpt lat="42.2738230" lon="-8.3328770">
        <ele>506.4</ele>
        <time>2022-08-27T17:21:36Z</time>
      </trkpt>
      <trkpt lat="42.2737830" lon="-8.3329660">
        <ele>506.8</ele>
        <time>2022-08-27T17:21:37Z</time>
      </trkpt>
      <trkpt lat="42.2737710" lon="-8.3330380">
        <ele>507.1</ele>
        <time>2022-08-27T17:21:38Z</time>
      </trkpt>
      <trkpt lat="42.2737540" lon="-8.3330990">
        <ele>507.3</ele>
        <time>2022-08-27T17:21:39Z</time>
      </trkpt>
      <trkpt lat="42.2737310" lon="-8.3331470">
        <ele>507.5</ele>
        <time>2022-08-27T17:21:40Z</time>
      </trkpt>
      <trkpt lat="42.2737020" lon="-8.3331950">
        <ele>507.7</ele>
        <time>2022-08-27T17:21:41Z</time>
      </trkpt>
      <trkpt lat="42.2736740" lon="-8.3332290">
        <ele>507.8</ele>
        <time>2022-08-27T17:21:42Z</time>
      </trkpt>
      <trkpt lat="42.2736360" lon="-8.3332790">
        <ele>508.0</ele>
        <time>2022-08-27T17:21:43Z</time>
      </trkpt>
      <trkpt lat="42.2735930" lon="-8.3333340">
        <ele>508.0</ele>
        <time>2022-08-27T17:21:44Z</time>
      </trkpt>
      <trkpt lat="42.2735470" lon="-8.3333840">
        <ele>508.0</ele>
        <time>2022-08-27T17:21:45Z</time>
      </trkpt>
      <trkpt lat="42.2734920" lon="-8.3334260">
        <ele>507.9</ele>
        <time>2022-08-27T17:21:46Z</time>
      </trkpt>
      <trkpt lat="42.2734440" lon="-8.3334680">
        <ele>507.7</ele>
        <time>2022-08-27T17:21:47Z</time>
      </trkpt>
      <trkpt lat="42.2733990" lon="-8.3335080">
        <ele>507.6</ele>
        <time>2022-08-27T17:21:48Z</time>
      </trkpt>
      <trkpt lat="42.2733520" lon="-8.3335450">
        <ele>507.4</ele>
        <time>2022-08-27T17:21:49Z</time>
      </trkpt>
      <trkpt lat="42.2732960" lon="-8.3335940">
        <ele>507.1</ele>
        <time>2022-08-27T17:21:50Z</time>
      </trkpt>
      <trkpt lat="42.2732390" lon="-8.3336290">
        <ele>506.9</ele>
        <time>2022-08-27T17:21:51Z</time>
      </trkpt>
      <trkpt lat="42.2731730" lon="-8.3336630">
        <ele>506.7</ele>
        <time>2022-08-27T17:21:52Z</time>
      </trkpt>
      <trkpt lat="42.2731090" lon="-8.3337100">
        <ele>506.4</ele>
        <time>2022-08-27T17:21:53Z</time>
      </trkpt>
      <trkpt lat="42.2730440" lon="-8.3337650">
        <ele>506.2</ele>
        <time>2022-08-27T17:21:54Z</time>
      </trkpt>
      <trkpt lat="42.2729890" lon="-8.3338330">
        <ele>506.0</ele>
        <time>2022-08-27T17:21:55Z</time>
      </trkpt>
      <trkpt lat="42.2729430" lon="-8.3339180">
        <ele>505.8</ele>
        <time>2022-08-27T17:21:56Z</time>
      </trkpt>
      <trkpt lat="42.2729010" lon="-8.3340040">
        <ele>505.7</ele>
        <time>2022-08-27T17:21:57Z</time>
      </trkpt>
      <trkpt lat="42.2728690" lon="-8.3340950">
        <ele>505.6</ele>
        <time>2022-08-27T17:21:58Z</time>
      </trkpt>
      <trkpt lat="42.2728350" lon="-8.3341850">
        <ele>505.4</ele>
        <time>2022-08-27T17:21:59Z</time>
      </trkpt>
      <trkpt lat="42.2728110" lon="-8.3342780">
        <ele>505.3</ele>
        <time>2022-08-27T17:22:00Z</time>
      </trkpt>
      <trkpt lat="42.2727900" lon="-8.3343720">
        <ele>505.2</ele>
        <time>2022-08-27T17:22:01Z</time>
      </trkpt>
      <trkpt lat="42.2727660" lon="-8.3344620">
        <ele>505.1</ele>
        <time>2022-08-27T17:22:02Z</time>
      </trkpt>
      <trkpt lat="42.2727400" lon="-8.3345510">
        <ele>505.0</ele>
        <time>2022-08-27T17:22:03Z</time>
      </trkpt>
      <trkpt lat="42.2727140" lon="-8.3346420">
        <ele>504.9</ele>
        <time>2022-08-27T17:22:04Z</time>
      </trkpt>
      <trkpt lat="42.2726900" lon="-8.3347330">
        <ele>504.8</ele>
        <time>2022-08-27T17:22:05Z</time>
      </trkpt>
      <trkpt lat="42.2726660" lon="-8.3348120">
        <ele>504.7</ele>
        <time>2022-08-27T17:22:06Z</time>
      </trkpt>
      <trkpt lat="42.2726650" lon="-8.3349000">
        <ele>504.6</ele>
        <time>2022-08-27T17:22:07Z</time>
      </trkpt>
      <trkpt lat="42.2727110" lon="-8.3349990">
        <ele>504.5</ele>
        <time>2022-08-27T17:22:08Z</time>
      </trkpt>
      <trkpt lat="42.2727780" lon="-8.3350740">
        <ele>504.3</ele>
        <time>2022-08-27T17:22:09Z</time>
      </trkpt>
      <trkpt lat="42.2728410" lon="-8.3351180">
        <ele>504.2</ele>
        <time>2022-08-27T17:22:10Z</time>
      </trkpt>
      <trkpt lat="42.2729010" lon="-8.3351410">
        <ele>504.0</ele>
        <time>2022-08-27T17:22:11Z</time>
      </trkpt>
      <trkpt lat="42.2729610" lon="-8.3351800">
        <ele>503.8</ele>
        <time>2022-08-27T17:22:12Z</time>
      </trkpt>
      <trkpt lat="42.2730220" lon="-8.3352240">
        <ele>503.4</ele>
        <time>2022-08-27T17:22:13Z</time>
      </trkpt>
      <trkpt lat="42.2730870" lon="-8.3352600">
        <ele>503.1</ele>
        <time>2022-08-27T17:22:14Z</time>
      </trkpt>
      <trkpt lat="42.2731450" lon="-8.3353100">
        <ele>502.6</ele>
        <time>2022-08-27T17:22:15Z</time>
      </trkpt>
      <trkpt lat="42.2732080" lon="-8.3353830">
        <ele>502.0</ele>
        <time>2022-08-27T17:22:16Z</time>
      </trkpt>
      <trkpt lat="42.2732670" lon="-8.3354670">
        <ele>501.3</ele>
        <time>2022-08-27T17:22:17Z</time>
      </trkpt>
      <trkpt lat="42.2733230" lon="-8.3355650">
        <ele>500.3</ele>
        <time>2022-08-27T17:22:18Z</time>
      </trkpt>
      <trkpt lat="42.2733740" lon="-8.3356740">
        <ele>499.3</ele>
        <time>2022-08-27T17:22:19Z</time>
      </trkpt>
      <trkpt lat="42.2734110" lon="-8.3357990">
        <ele>498.2</ele>
        <time>2022-08-27T17:22:20Z</time>
      </trkpt>
      <trkpt lat="42.2734400" lon="-8.3359310">
        <ele>497.1</ele>
        <time>2022-08-27T17:22:21Z</time>
      </trkpt>
      <trkpt lat="42.2734550" lon="-8.3360730">
        <ele>495.9</ele>
        <time>2022-08-27T17:22:22Z</time>
      </trkpt>
      <trkpt lat="42.2734540" lon="-8.3362250">
        <ele>494.6</ele>
        <time>2022-08-27T17:22:23Z</time>
      </trkpt>
      <trkpt lat="42.2734370" lon="-8.3363740">
        <ele>493.6</ele>
        <time>2022-08-27T17:22:24Z</time>
      </trkpt>
      <trkpt lat="42.2734060" lon="-8.3365170">
        <ele>492.7</ele>
        <time>2022-08-27T17:22:25Z</time>
      </trkpt>
      <trkpt lat="42.2733570" lon="-8.3366480">
        <ele>491.7</ele>
        <time>2022-08-27T17:22:26Z</time>
      </trkpt>
      <trkpt lat="42.2732870" lon="-8.3367610">
        <ele>490.8</ele>
        <time>2022-08-27T17:22:27Z</time>
      </trkpt>
      <trkpt lat="42.2732030" lon="-8.3368620">
        <ele>489.9</ele>
        <time>2022-08-27T17:22:28Z</time>
      </trkpt>
      <trkpt lat="42.2731070" lon="-8.3369420">
        <ele>488.9</ele>
        <time>2022-08-27T17:22:29Z</time>
      </trkpt>
      <trkpt lat="42.2730020" lon="-8.3369950">
        <ele>487.9</ele>
        <time>2022-08-27T17:22:30Z</time>
      </trkpt>
      <trkpt lat="42.2728910" lon="-8.3370380">
        <ele>486.8</ele>
        <time>2022-08-27T17:22:31Z</time>
      </trkpt>
      <trkpt lat="42.2727760" lon="-8.3370710">
        <ele>485.8</ele>
        <time>2022-08-27T17:22:32Z</time>
      </trkpt>
      <trkpt lat="42.2726610" lon="-8.3370980">
        <ele>484.9</ele>
        <time>2022-08-27T17:22:33Z</time>
      </trkpt>
      <trkpt lat="42.2725510" lon="-8.3371360">
        <ele>484.2</ele>
        <time>2022-08-27T17:22:34Z</time>
      </trkpt>
      <trkpt lat="42.2724400" lon="-8.3371680">
        <ele>483.5</ele>
        <time>2022-08-27T17:22:35Z</time>
      </trkpt>
      <trkpt lat="42.2723210" lon="-8.3372090">
        <ele>482.8</ele>
        <time>2022-08-27T17:22:36Z</time>
      </trkpt>
      <trkpt lat="42.2722030" lon="-8.3372590">
        <ele>482.1</ele>
        <time>2022-08-27T17:22:37Z</time>
      </trkpt>
      <trkpt lat="42.2720970" lon="-8.3373090">
        <ele>481.5</ele>
        <time>2022-08-27T17:22:38Z</time>
      </trkpt>
      <trkpt lat="42.2720050" lon="-8.3373560">
        <ele>480.8</ele>
        <time>2022-08-27T17:22:39Z</time>
      </trkpt>
      <trkpt lat="42.2719310" lon="-8.3374250">
        <ele>480.2</ele>
        <time>2022-08-27T17:22:40Z</time>
      </trkpt>
      <trkpt lat="42.2718550" lon="-8.3374940">
        <ele>479.5</ele>
        <time>2022-08-27T17:22:41Z</time>
      </trkpt>
      <trkpt lat="42.2717930" lon="-8.3375970">
        <ele>478.7</ele>
        <time>2022-08-27T17:22:42Z</time>
      </trkpt>
      <trkpt lat="42.2717300" lon="-8.3377110">
        <ele>477.9</ele>
        <time>2022-08-27T17:22:43Z</time>
      </trkpt>
      <trkpt lat="42.2716690" lon="-8.3378260">
        <ele>477.3</ele>
        <time>2022-08-27T17:22:44Z</time>
      </trkpt>
      <trkpt lat="42.2716290" lon="-8.3379270">
        <ele>476.8</ele>
        <time>2022-08-27T17:22:45Z</time>
      </trkpt>
      <trkpt lat="42.2715980" lon="-8.3380440">
        <ele>476.6</ele>
        <time>2022-08-27T17:22:46Z</time>
      </trkpt>
      <trkpt lat="42.2715970" lon="-8.3381790">
        <ele>476.5</ele>
        <time>2022-08-27T17:22:47Z</time>
      </trkpt>
      <trkpt lat="42.2716090" lon="-8.3383130">
        <ele>476.6</ele>
        <time>2022-08-27T17:22:48Z</time>
      </trkpt>
      <trkpt lat="42.2716190" lon="-8.3384390">
        <ele>476.8</ele>
        <time>2022-08-27T17:22:49Z</time>
      </trkpt>
      <trkpt lat="42.2716360" lon="-8.3385470">
        <ele>477.1</ele>
        <time>2022-08-27T17:22:50Z</time>
      </trkpt>
      <trkpt lat="42.2716560" lon="-8.3386390">
        <ele>477.4</ele>
        <time>2022-08-27T17:22:51Z</time>
      </trkpt>
      <trkpt lat="42.2716700" lon="-8.3387220">
        <ele>477.6</ele>
        <time>2022-08-27T17:22:52Z</time>
      </trkpt>
      <trkpt lat="42.2716790" lon="-8.3388010">
        <ele>477.8</ele>
        <time>2022-08-27T17:22:53Z</time>
      </trkpt>
      <trkpt lat="42.2716770" lon="-8.3388880">
        <ele>478.0</ele>
        <time>2022-08-27T17:22:54Z</time>
      </trkpt>
      <trkpt lat="42.2716690" lon="-8.3389720">
        <ele>478.2</ele>
        <time>2022-08-27T17:22:55Z</time>
      </trkpt>
      <trkpt lat="42.2716660" lon="-8.3390590">
        <ele>478.3</ele>
        <time>2022-08-27T17:22:56Z</time>
      </trkpt>
      <trkpt lat="42.2716540" lon="-8.3391390">
        <ele>478.3</ele>
        <time>2022-08-27T17:22:57Z</time>
      </trkpt>
      <trkpt lat="42.2716420" lon="-8.3392200">
        <ele>478.4</ele>
        <time>2022-08-27T17:22:58Z</time>
      </trkpt>
      <trkpt lat="42.2716250" lon="-8.3393000">
        <ele>478.4</ele>
        <time>2022-08-27T17:22:59Z</time>
      </trkpt>
      <trkpt lat="42.2716060" lon="-8.3393840">
        <ele>478.5</ele>
        <time>2022-08-27T17:23:00Z</time>
      </trkpt>
      <trkpt lat="42.2715820" lon="-8.3394610">
        <ele>478.5</ele>
        <time>2022-08-27T17:23:01Z</time>
      </trkpt>
      <trkpt lat="42.2715500" lon="-8.3395240">
        <ele>478.5</ele>
        <time>2022-08-27T17:23:02Z</time>
      </trkpt>
      <trkpt lat="42.2715120" lon="-8.3395830">
        <ele>478.4</ele>
        <time>2022-08-27T17:23:03Z</time>
      </trkpt>
      <trkpt lat="42.2714690" lon="-8.3396410">
        <ele>478.4</ele>
        <time>2022-08-27T17:23:04Z</time>
      </trkpt>
      <trkpt lat="42.2714180" lon="-8.3396930">
        <ele>478.3</ele>
        <time>2022-08-27T17:23:05Z</time>
      </trkpt>
      <trkpt lat="42.2713580" lon="-8.3397330">
        <ele>478.1</ele>
        <time>2022-08-27T17:23:06Z</time>
      </trkpt>
      <trkpt lat="42.2712950" lon="-8.3397630">
        <ele>477.9</ele>
        <time>2022-08-27T17:23:07Z</time>
      </trkpt>
      <trkpt lat="42.2712280" lon="-8.3397800">
        <ele>477.7</ele>
        <time>2022-08-27T17:23:08Z</time>
      </trkpt>
      <trkpt lat="42.2711590" lon="-8.3397940">
        <ele>477.4</ele>
        <time>2022-08-27T17:23:09Z</time>
      </trkpt>
      <trkpt lat="42.2710880" lon="-8.3398160">
        <ele>477.1</ele>
        <time>2022-08-27T17:23:10Z</time>
      </trkpt>
      <trkpt lat="42.2710240" lon="-8.3398380">
        <ele>476.9</ele>
        <time>2022-08-27T17:23:11Z</time>
      </trkpt>
      <trkpt lat="42.2709600" lon="-8.3398600">
        <ele>476.6</ele>
        <time>2022-08-27T17:23:12Z</time>
      </trkpt>
      <trkpt lat="42.2708950" lon="-8.3398790">
        <ele>476.4</ele>
        <time>2022-08-27T17:23:13Z</time>
      </trkpt>
      <trkpt lat="42.2708270" lon="-8.3399020">
        <ele>476.1</ele>
        <time>2022-08-27T17:23:14Z</time>
      </trkpt>
      <trkpt lat="42.2707580" lon="-8.3399240">
        <ele>475.9</ele>
        <time>2022-08-27T17:23:15Z</time>
      </trkpt>
      <trkpt lat="42.2706930" lon="-8.3399460">
        <ele>475.6</ele>
        <time>2022-08-27T17:23:16Z</time>
      </trkpt>
      <trkpt lat="42.2706330" lon="-8.3399730">
        <ele>475.4</ele>
        <time>2022-08-27T17:23:17Z</time>
      </trkpt>
      <trkpt lat="42.2705650" lon="-8.3399920">
        <ele>475.2</ele>
        <time>2022-08-27T17:23:18Z</time>
      </trkpt>
      <trkpt lat="42.2704940" lon="-8.3400070">
        <ele>474.9</ele>
        <time>2022-08-27T17:23:19Z</time>
      </trkpt>
      <trkpt lat="42.2704360" lon="-8.3400280">
        <ele>474.6</ele>
        <time>2022-08-27T17:23:20Z</time>
      </trkpt>
      <trkpt lat="42.2703770" lon="-8.3400500">
        <ele>474.4</ele>
        <time>2022-08-27T17:23:21Z</time>
      </trkpt>
      <trkpt lat="42.2703200" lon="-8.3400780">
        <ele>474.1</ele>
        <time>2022-08-27T17:23:22Z</time>
      </trkpt>
      <trkpt lat="42.2702470" lon="-8.3401040">
        <ele>473.7</ele>
        <time>2022-08-27T17:23:23Z</time>
      </trkpt>
      <trkpt lat="42.2701730" lon="-8.3401270">
        <ele>473.4</ele>
        <time>2022-08-27T17:23:24Z</time>
      </trkpt>
      <trkpt lat="42.2700960" lon="-8.3401500">
        <ele>473.1</ele>
        <time>2022-08-27T17:23:25Z</time>
      </trkpt>
      <trkpt lat="42.2700220" lon="-8.3401700">
        <ele>472.9</ele>
        <time>2022-08-27T17:23:26Z</time>
      </trkpt>
      <trkpt lat="42.2699440" lon="-8.3401850">
        <ele>472.7</ele>
        <time>2022-08-27T17:23:27Z</time>
      </trkpt>
      <trkpt lat="42.2698730" lon="-8.3402020">
        <ele>472.5</ele>
        <time>2022-08-27T17:23:28Z</time>
      </trkpt>
      <trkpt lat="42.2698010" lon="-8.3402190">
        <ele>472.3</ele>
        <time>2022-08-27T17:23:29Z</time>
      </trkpt>
      <trkpt lat="42.2697290" lon="-8.3402370">
        <ele>472.1</ele>
        <time>2022-08-27T17:23:30Z</time>
      </trkpt>
      <trkpt lat="42.2696620" lon="-8.3402560">
        <ele>471.9</ele>
        <time>2022-08-27T17:23:31Z</time>
      </trkpt>
      <trkpt lat="42.2695920" lon="-8.3402720">
        <ele>471.8</ele>
        <time>2022-08-27T17:23:32Z</time>
      </trkpt>
      <trkpt lat="42.2695210" lon="-8.3402870">
        <ele>471.6</ele>
        <time>2022-08-27T17:23:33Z</time>
      </trkpt>
      <trkpt lat="42.2694500" lon="-8.3403080">
        <ele>471.4</ele>
        <time>2022-08-27T17:23:34Z</time>
      </trkpt>
      <trkpt lat="42.2693750" lon="-8.3403250">
        <ele>471.2</ele>
        <time>2022-08-27T17:23:35Z</time>
      </trkpt>
      <trkpt lat="42.2693020" lon="-8.3403450">
        <ele>471.0</ele>
        <time>2022-08-27T17:23:36Z</time>
      </trkpt>
      <trkpt lat="42.2692300" lon="-8.3403650">
        <ele>470.8</ele>
        <time>2022-08-27T17:23:37Z</time>
      </trkpt>
      <trkpt lat="42.2691580" lon="-8.3403860">
        <ele>470.7</ele>
        <time>2022-08-27T17:23:38Z</time>
      </trkpt>
      <trkpt lat="42.2690850" lon="-8.3404080">
        <ele>470.5</ele>
        <time>2022-08-27T17:23:39Z</time>
      </trkpt>
      <trkpt lat="42.2690160" lon="-8.3404300">
        <ele>470.4</ele>
        <time>2022-08-27T17:23:40Z</time>
      </trkpt>
      <trkpt lat="42.2689460" lon="-8.3404480">
        <ele>470.3</ele>
        <time>2022-08-27T17:23:41Z</time>
      </trkpt>
      <trkpt lat="42.2688780" lon="-8.3404650">
        <ele>470.1</ele>
        <time>2022-08-27T17:23:42Z</time>
      </trkpt>
      <trkpt lat="42.2688130" lon="-8.3404890">
        <ele>470.0</ele>
        <time>2022-08-27T17:23:43Z</time>
      </trkpt>
      <trkpt lat="42.2687400" lon="-8.3405090">
        <ele>469.8</ele>
        <time>2022-08-27T17:23:44Z</time>
      </trkpt>
      <trkpt lat="42.2686680" lon="-8.3405200">
        <ele>469.7</ele>
        <time>2022-08-27T17:23:45Z</time>
      </trkpt>
      <trkpt lat="42.2685870" lon="-8.3405280">
        <ele>469.5</ele>
        <time>2022-08-27T17:23:46Z</time>
      </trkpt>
      <trkpt lat="42.2685080" lon="-8.3405400">
        <ele>469.3</ele>
        <time>2022-08-27T17:23:47Z</time>
      </trkpt>
      <trkpt lat="42.2684420" lon="-8.3405570">
        <ele>469.1</ele>
        <time>2022-08-27T17:23:48Z</time>
      </trkpt>
      <trkpt lat="42.2683830" lon="-8.3405850">
        <ele>468.8</ele>
        <time>2022-08-27T17:23:49Z</time>
      </trkpt>
      <trkpt lat="42.2683140" lon="-8.3406100">
        <ele>468.5</ele>
        <time>2022-08-27T17:23:50Z</time>
      </trkpt>
      <trkpt lat="42.2682350" lon="-8.3406260">
        <ele>468.1</ele>
        <time>2022-08-27T17:23:51Z</time>
      </trkpt>
      <trkpt lat="42.2681740" lon="-8.3406340">
        <ele>467.7</ele>
        <time>2022-08-27T17:23:52Z</time>
      </trkpt>
      <trkpt lat="42.2681140" lon="-8.3406370">
        <ele>467.4</ele>
        <time>2022-08-27T17:23:53Z</time>
      </trkpt>
      <trkpt lat="42.2680490" lon="-8.3406490">
        <ele>467.0</ele>
        <time>2022-08-27T17:23:54Z</time>
      </trkpt>
      <trkpt lat="42.2679770" lon="-8.3406680">
        <ele>466.5</ele>
        <time>2022-08-27T17:23:55Z</time>
      </trkpt>
      <trkpt lat="42.2678940" lon="-8.3406910">
        <ele>466.0</ele>
        <time>2022-08-27T17:23:56Z</time>
      </trkpt>
      <trkpt lat="42.2678130" lon="-8.3407110">
        <ele>465.4</ele>
        <time>2022-08-27T17:23:57Z</time>
      </trkpt>
      <trkpt lat="42.2677240" lon="-8.3407360">
        <ele>464.8</ele>
        <time>2022-08-27T17:23:58Z</time>
      </trkpt>
      <trkpt lat="42.2676380" lon="-8.3407640">
        <ele>464.1</ele>
        <time>2022-08-27T17:23:59Z</time>
      </trkpt>
      <trkpt lat="42.2675500" lon="-8.3407880">
        <ele>463.5</ele>
        <time>2022-08-27T17:24:00Z</time>
      </trkpt>
      <trkpt lat="42.2674530" lon="-8.3408120">
        <ele>462.8</ele>
        <time>2022-08-27T17:24:01Z</time>
      </trkpt>
      <trkpt lat="42.2673600" lon="-8.3408340">
        <ele>462.1</ele>
        <time>2022-08-27T17:24:02Z</time>
      </trkpt>
      <trkpt lat="42.2672760" lon="-8.3408610">
        <ele>461.6</ele>
        <time>2022-08-27T17:24:03Z</time>
      </trkpt>
      <trkpt lat="42.2672030" lon="-8.3408950">
        <ele>461.2</ele>
        <time>2022-08-27T17:24:04Z</time>
      </trkpt>
      <trkpt lat="42.2671320" lon="-8.3409160">
        <ele>460.8</ele>
        <time>2022-08-27T17:24:05Z</time>
      </trkpt>
      <trkpt lat="42.2670660" lon="-8.3409660">
        <ele>460.5</ele>
        <time>2022-08-27T17:24:06Z</time>
      </trkpt>
      <trkpt lat="42.2670120" lon="-8.3410450">
        <ele>460.1</ele>
        <time>2022-08-27T17:24:07Z</time>
      </trkpt>
      <trkpt lat="42.2669830" lon="-8.3411290">
        <ele>459.8</ele>
        <time>2022-08-27T17:24:08Z</time>
      </trkpt>
      <trkpt lat="42.2669700" lon="-8.3412270">
        <ele>459.4</ele>
        <time>2022-08-27T17:24:09Z</time>
      </trkpt>
      <trkpt lat="42.2669570" lon="-8.3413280">
        <ele>459.0</ele>
        <time>2022-08-27T17:24:10Z</time>
      </trkpt>
      <trkpt lat="42.2669320" lon="-8.3414260">
        <ele>458.6</ele>
        <time>2022-08-27T17:24:11Z</time>
      </trkpt>
      <trkpt lat="42.2669070" lon="-8.3415270">
        <ele>458.2</ele>
        <time>2022-08-27T17:24:12Z</time>
      </trkpt>
      <trkpt lat="42.2668880" lon="-8.3416260">
        <ele>457.8</ele>
        <time>2022-08-27T17:24:13Z</time>
      </trkpt>
      <trkpt lat="42.2668790" lon="-8.3417230">
        <ele>457.4</ele>
        <time>2022-08-27T17:24:14Z</time>
      </trkpt>
      <trkpt lat="42.2668690" lon="-8.3418180">
        <ele>457.1</ele>
        <time>2022-08-27T17:24:15Z</time>
      </trkpt>
      <trkpt lat="42.2668550" lon="-8.3419120">
        <ele>456.7</ele>
        <time>2022-08-27T17:24:16Z</time>
      </trkpt>
      <trkpt lat="42.2668370" lon="-8.3419960">
        <ele>456.3</ele>
        <time>2022-08-27T17:24:17Z</time>
      </trkpt>
      <trkpt lat="42.2668170" lon="-8.3420810">
        <ele>455.9</ele>
        <time>2022-08-27T17:24:18Z</time>
      </trkpt>
      <trkpt lat="42.2667810" lon="-8.3421610">
        <ele>455.5</ele>
        <time>2022-08-27T17:24:19Z</time>
      </trkpt>
      <trkpt lat="42.2667140" lon="-8.3422220">
        <ele>455.1</ele>
        <time>2022-08-27T17:24:20Z</time>
      </trkpt>
      <trkpt lat="42.2666430" lon="-8.3422690">
        <ele>454.7</ele>
        <time>2022-08-27T17:24:21Z</time>
      </trkpt>
      <trkpt lat="42.2665680" lon="-8.3423120">
        <ele>454.2</ele>
        <time>2022-08-27T17:24:22Z</time>
      </trkpt>
      <trkpt lat="42.2664870" lon="-8.3423390">
        <ele>453.9</ele>
        <time>2022-08-27T17:24:23Z</time>
      </trkpt>
      <trkpt lat="42.2664070" lon="-8.3423730">
        <ele>453.6</ele>
        <time>2022-08-27T17:24:24Z</time>
      </trkpt>
      <trkpt lat="42.2663300" lon="-8.3424110">
        <ele>453.3</ele>
        <time>2022-08-27T17:24:25Z</time>
      </trkpt>
      <trkpt lat="42.2662540" lon="-8.3424550">
        <ele>453.1</ele>
        <time>2022-08-27T17:24:26Z</time>
      </trkpt>
      <trkpt lat="42.2661970" lon="-8.3424920">
        <ele>453.0</ele>
        <time>2022-08-27T17:24:27Z</time>
      </trkpt>
      <trkpt lat="42.2661660" lon="-8.3425130">
        <ele>452.9</ele>
        <time>2022-08-27T17:24:28Z</time>
      </trkpt>
      <trkpt lat="42.2661300" lon="-8.3425610">
        <ele>452.9</ele>
        <time>2022-08-27T17:24:29Z</time>
      </trkpt>
      <trkpt lat="42.2661030" lon="-8.3426220">
        <ele>452.8</ele>
        <time>2022-08-27T17:24:30Z</time>
      </trkpt>
      <trkpt lat="42.2660950" lon="-8.3427000">
        <ele>452.7</ele>
        <time>2022-08-27T17:24:31Z</time>
      </trkpt>
      <trkpt lat="42.2661220" lon="-8.3427630">
        <ele>452.7</ele>
        <time>2022-08-27T17:24:32Z</time>
      </trkpt>
      <trkpt lat="42.2661400" lon="-8.3428110">
        <ele>452.6</ele>
        <time>2022-08-27T17:24:33Z</time>
      </trkpt>
      <trkpt lat="42.2661480" lon="-8.3428660">
        <ele>452.6</ele>
        <time>2022-08-27T17:24:34Z</time>
      </trkpt>
      <trkpt lat="42.2661400" lon="-8.3428920">
        <ele>452.6</ele>
        <time>2022-08-27T17:24:35Z</time>
      </trkpt>
      <trkpt lat="42.2661360" lon="-8.3429010">
        <ele>452.6</ele>
        <time>2022-08-27T17:24:36Z</time>
      </trkpt>
      <trkpt lat="42.2661320" lon="-8.3429100">
        <ele>452.6</ele>
        <time>2022-08-27T17:24:37Z</time>
      </trkpt>
      <trkpt lat="42.2660990" lon="-8.3428870">
        <ele>452.6</ele>
        <time>2022-08-27T17:24:38Z</time>
      </trkpt>
      <trkpt lat="42.2660810" lon="-8.3428700">
        <ele>452.6</ele>
        <time>2022-08-27T17:24:39Z</time>
      </trkpt>
      <trkpt lat="42.2660770" lon="-8.3428220">
        <ele>452.6</ele>
        <time>2022-08-27T17:24:40Z</time>
      </trkpt>
      <trkpt lat="42.2660800" lon="-8.3427980">
        <ele>452.6</ele>
        <time>2022-08-27T17:24:41Z</time>
      </trkpt>
      <trkpt lat="42.2660900" lon="-8.3427510">
        <ele>452.7</ele>
        <time>2022-08-27T17:24:42Z</time>
      </trkpt>
      <trkpt lat="42.2660970" lon="-8.3427080">
        <ele>452.7</ele>
        <time>2022-08-27T17:24:43Z</time>
      </trkpt>
      <trkpt lat="42.2661010" lon="-8.3426660">
        <ele>452.8</ele>
        <time>2022-08-27T17:24:44Z</time>
      </trkpt>
      <trkpt lat="42.2661080" lon="-8.3426070">
        <ele>452.8</ele>
        <time>2022-08-27T17:24:45Z</time>
      </trkpt>
      <trkpt lat="42.2661150" lon="-8.3425730">
        <ele>452.9</ele>
        <time>2022-08-27T17:24:46Z</time>
      </trkpt>
      <trkpt lat="42.2661410" lon="-8.3425390">
        <ele>452.8</ele>
        <time>2022-08-27T17:24:48Z</time>
      </trkpt>
      <trkpt lat="42.2661710" lon="-8.3425320">
        <ele>452.7</ele>
        <time>2022-08-27T17:24:49Z</time>
      </trkpt>
      <trkpt lat="42.2661780" lon="-8.3425320">
        <ele>452.7</ele>
        <time>2022-08-27T17:24:50Z</time>
      </trkpt>
      <trkpt lat="42.2661900" lon="-8.3425330">
        <ele>452.7</ele>
        <time>2022-08-27T17:24:51Z</time>
      </trkpt>
      <trkpt lat="42.2662000" lon="-8.3425330">
        <ele>452.6</ele>
        <time>2022-08-27T17:24:52Z</time>
      </trkpt>
      <trkpt lat="42.2662090" lon="-8.3425370">
        <ele>452.6</ele>
        <time>2022-08-27T17:24:53Z</time>
      </trkpt>
      <trkpt lat="42.2662160" lon="-8.3425440">
        <ele>452.6</ele>
        <time>2022-08-27T17:24:54Z</time>
      </trkpt>
      <trkpt lat="42.2662190" lon="-8.3425490">
        <ele>452.6</ele>
        <time>2022-08-27T17:24:55Z</time>
      </trkpt>
      <trkpt lat="42.2662190" lon="-8.3425510">
        <ele>452.6</ele>
        <time>2022-08-27T17:24:56Z</time>
      </trkpt>
      <trkpt lat="42.2662200" lon="-8.3425520">
        <ele>452.6</ele>
        <time>2022-08-27T17:24:57Z</time>
      </trkpt>
      <trkpt lat="42.2662170" lon="-8.3425520">
        <ele>452.6</ele>
        <time>2022-08-27T17:24:58Z</time>
      </trkpt>
      <trkpt lat="42.2662150" lon="-8.3425510">
        <ele>452.6</ele>
        <time>2022-08-27T17:24:59Z</time>
      </trkpt>
      <trkpt lat="42.2662150" lon="-8.3425490">
        <ele>452.6</ele>
        <time>2022-08-27T17:25:00Z</time>
      </trkpt>
      <trkpt lat="42.2662160" lon="-8.3425480">
        <ele>452.6</ele>
        <time>2022-08-27T17:25:01Z</time>
      </trkpt>
      <trkpt lat="42.2662160" lon="-8.3425480">
        <ele>452.6</ele>
        <time>2022-08-27T17:25:02Z</time>
      </trkpt>
      <trkpt lat="42.2662160" lon="-8.3425490">
        <ele>452.6</ele>
        <time>2022-08-27T17:25:03Z</time>
      </trkpt>
      <trkpt lat="42.2662140" lon="-8.3425480">
        <ele>452.6</ele>
        <time>2022-08-27T17:25:04Z</time>
      </trkpt>
      <trkpt lat="42.2662120" lon="-8.3425480">
        <ele>452.6</ele>
        <time>2022-08-27T17:25:05Z</time>
      </trkpt>
      <trkpt lat="42.2662120" lon="-8.3425460">
        <ele>452.5</ele>
        <time>2022-08-27T17:25:06Z</time>
      </trkpt>
      <trkpt lat="42.2662380" lon="-8.3425580">
        <ele>452.5</ele>
        <time>2022-08-27T17:25:59Z</time>
      </trkpt>
      <trkpt lat="42.2662540" lon="-8.3425550">
        <ele>452.4</ele>
        <time>2022-08-27T17:26:00Z</time>
      </trkpt>
      <trkpt lat="42.2662670" lon="-8.3425500">
        <ele>452.4</ele>
        <time>2022-08-27T17:26:01Z</time>
      </trkpt>
      <trkpt lat="42.2662760" lon="-8.3425490">
        <ele>452.4</ele>
        <time>2022-08-27T17:26:02Z</time>
      </trkpt>
      <trkpt lat="42.2662960" lon="-8.3425480">
        <ele>452.3</ele>
        <time>2022-08-27T17:26:03Z</time>
      </trkpt>
      <trkpt lat="42.2663400" lon="-8.3425590">
        <ele>452.2</ele>
        <time>2022-08-27T17:26:04Z</time>
      </trkpt>
      <trkpt lat="42.2663580" lon="-8.3425630">
        <ele>452.2</ele>
        <time>2022-08-27T17:26:05Z</time>
      </trkpt>
      <trkpt lat="42.2663960" lon="-8.3425700">
        <ele>452.1</ele>
        <time>2022-08-27T17:26:06Z</time>
      </trkpt>
      <trkpt lat="42.2664440" lon="-8.3425790">
        <ele>451.9</ele>
        <time>2022-08-27T17:26:07Z</time>
      </trkpt>
      <trkpt lat="42.2664810" lon="-8.3425890">
        <ele>451.9</ele>
        <time>2022-08-27T17:26:08Z</time>
      </trkpt>
      <trkpt lat="42.2665140" lon="-8.3425990">
        <ele>451.8</ele>
        <time>2022-08-27T17:26:09Z</time>
      </trkpt>
      <trkpt lat="42.2665510" lon="-8.3426110">
        <ele>451.7</ele>
        <time>2022-08-27T17:26:10Z</time>
      </trkpt>
      <trkpt lat="42.2665880" lon="-8.3426220">
        <ele>451.6</ele>
        <time>2022-08-27T17:26:11Z</time>
      </trkpt>
      <trkpt lat="42.2666310" lon="-8.3426320">
        <ele>451.5</ele>
        <time>2022-08-27T17:26:12Z</time>
      </trkpt>
      <trkpt lat="42.2666680" lon="-8.3426320">
        <ele>451.4</ele>
        <time>2022-08-27T17:26:13Z</time>
      </trkpt>
      <trkpt lat="42.2666980" lon="-8.3426210">
        <ele>451.3</ele>
        <time>2022-08-27T17:26:14Z</time>
      </trkpt>
      <trkpt lat="42.2667290" lon="-8.3425990">
        <ele>451.2</ele>
        <time>2022-08-27T17:26:15Z</time>
      </trkpt>
      <trkpt lat="42.2667410" lon="-8.3425920">
        <ele>451.2</ele>
        <time>2022-08-27T17:26:16Z</time>
      </trkpt>
      <trkpt lat="42.2667570" lon="-8.3425820">
        <ele>451.1</ele>
        <time>2022-08-27T17:26:17Z</time>
      </trkpt>
      <trkpt lat="42.2667730" lon="-8.3425720">
        <ele>451.1</ele>
        <time>2022-08-27T17:26:18Z</time>
      </trkpt>
      <trkpt lat="42.2667860" lon="-8.3425650">
        <ele>451.0</ele>
        <time>2022-08-27T17:26:19Z</time>
      </trkpt>
      <trkpt lat="42.2667960" lon="-8.3425590">
        <ele>451.0</ele>
        <time>2022-08-27T17:26:20Z</time>
      </trkpt>
      <trkpt lat="42.2668030" lon="-8.3425560">
        <ele>451.0</ele>
        <time>2022-08-27T17:26:21Z</time>
      </trkpt>
      <trkpt lat="42.2668090" lon="-8.3425520">
        <ele>451.0</ele>
        <time>2022-08-27T17:26:22Z</time>
      </trkpt>
      <trkpt lat="42.2668160" lon="-8.3425460">
        <ele>451.0</ele>
        <time>2022-08-27T17:26:23Z</time>
      </trkpt>
      <trkpt lat="42.2668220" lon="-8.3425400">
        <ele>450.9</ele>
        <time>2022-08-27T17:26:24Z</time>
      </trkpt>
      <trkpt lat="42.2668260" lon="-8.3425340">
        <ele>450.9</ele>
        <time>2022-08-27T17:26:25Z</time>
      </trkpt>
      <trkpt lat="42.2668290" lon="-8.3425290">
        <ele>450.9</ele>
        <time>2022-08-27T17:26:27Z</time>
      </trkpt>
      <trkpt lat="42.2668320" lon="-8.3425300">
        <ele>450.9</ele>
        <time>2022-08-27T17:26:28Z</time>
      </trkpt>
      <trkpt lat="42.2668350" lon="-8.3425310">
        <ele>450.9</ele>
        <time>2022-08-27T17:26:29Z</time>
      </trkpt>
      <trkpt lat="42.2668370" lon="-8.3425330">
        <ele>450.9</ele>
        <time>2022-08-27T17:26:30Z</time>
      </trkpt>
      <trkpt lat="42.2668400" lon="-8.3425340">
        <ele>450.9</ele>
        <time>2022-08-27T17:26:31Z</time>
      </trkpt>
      <trkpt lat="42.2668420" lon="-8.3425350">
        <ele>450.9</ele>
        <time>2022-08-27T17:26:32Z</time>
      </trkpt>
      <trkpt lat="42.2668450" lon="-8.3425370">
        <ele>450.9</ele>
        <time>2022-08-27T17:26:48Z</time>
      </trkpt>
      <trkpt lat="42.2668470" lon="-8.3425380">
        <ele>450.9</ele>
        <time>2022-08-27T17:26:49Z</time>
      </trkpt>
      <trkpt lat="42.2668500" lon="-8.3425390">
        <ele>450.9</ele>
        <time>2022-08-27T17:26:50Z</time>
      </trkpt>
      <trkpt lat="42.2668520" lon="-8.3425410">
        <ele>450.8</ele>
        <time>2022-08-27T17:26:51Z</time>
      </trkpt>
      <trkpt lat="42.2668550" lon="-8.3425420">
        <ele>450.8</ele>
        <time>2022-08-27T17:26:52Z</time>
      </trkpt>
      <trkpt lat="42.2668570" lon="-8.3425430">
        <ele>450.8</ele>
        <time>2022-08-27T17:26:53Z</time>
      </trkpt>
      <trkpt lat="42.2668600" lon="-8.3425450">
        <ele>450.8</ele>
        <time>2022-08-27T17:26:54Z</time>
      </trkpt>
      <trkpt lat="42.2668620" lon="-8.3425460">
        <ele>450.8</ele>
        <time>2022-08-27T17:26:55Z</time>
      </trkpt>
      <trkpt lat="42.2668650" lon="-8.3425470">
        <ele>450.8</ele>
        <time>2022-08-27T17:26:56Z</time>
      </trkpt>
      <trkpt lat="42.2668670" lon="-8.3425490">
        <ele>450.8</ele>
        <time>2022-08-27T17:26:57Z</time>
      </trkpt>
      <trkpt lat="42.2668700" lon="-8.3425500">
        <ele>450.8</ele>
        <time>2022-08-27T17:26:58Z</time>
      </trkpt>
      <trkpt lat="42.2668730" lon="-8.3425510">
        <ele>450.8</ele>
        <time>2022-08-27T17:26:59Z</time>
      </trkpt>
      <trkpt lat="42.2668750" lon="-8.3425530">
        <ele>450.8</ele>
        <time>2022-08-27T17:27:00Z</time>
      </trkpt>
      <trkpt lat="42.2668780" lon="-8.3425540">
        <ele>450.8</ele>
        <time>2022-08-27T17:27:01Z</time>
      </trkpt>
      <trkpt lat="42.2668800" lon="-8.3425550">
        <ele>450.8</ele>
        <time>2022-08-27T17:27:02Z</time>
      </trkpt>
      <trkpt lat="42.2668830" lon="-8.3425570">
        <ele>450.8</ele>
        <time>2022-08-27T17:27:03Z</time>
      </trkpt>
      <trkpt lat="42.2668850" lon="-8.3425580">
        <ele>450.8</ele>
        <time>2022-08-27T17:27:04Z</time>
      </trkpt>
      <trkpt lat="42.2668880" lon="-8.3425590">
        <ele>450.8</ele>
        <time>2022-08-27T17:27:05Z</time>
      </trkpt>
      <trkpt lat="42.2668900" lon="-8.3425610">
        <ele>450.7</ele>
        <time>2022-08-27T17:27:06Z</time>
      </trkpt>
      <trkpt lat="42.2668930" lon="-8.3425620">
        <ele>450.7</ele>
        <time>2022-08-27T17:27:07Z</time>
      </trkpt>
      <trkpt lat="42.2668950" lon="-8.3425630">
        <ele>450.7</ele>
        <time>2022-08-27T17:27:08Z</time>
      </trkpt>
      <trkpt lat="42.2668980" lon="-8.3425650">
        <ele>450.7</ele>
        <time>2022-08-27T17:27:09Z</time>
      </trkpt>
      <trkpt lat="42.2669000" lon="-8.3425660">
        <ele>450.7</ele>
        <time>2022-08-27T17:27:10Z</time>
      </trkpt>
      <trkpt lat="42.2669030" lon="-8.3425670">
        <ele>450.7</ele>
        <time>2022-08-27T17:27:11Z</time>
      </trkpt>
      <trkpt lat="42.2669390" lon="-8.3425820">
        <ele>450.6</ele>
        <time>2022-08-27T17:27:12Z</time>
      </trkpt>
      <trkpt lat="42.2669530" lon="-8.3425880">
        <ele>450.6</ele>
        <time>2022-08-27T17:27:13Z</time>
      </trkpt>
      <trkpt lat="42.2669810" lon="-8.3425950">
        <ele>450.5</ele>
        <time>2022-08-27T17:27:14Z</time>
      </trkpt>
      <trkpt lat="42.2670070" lon="-8.3425970">
        <ele>450.4</ele>
        <time>2022-08-27T17:27:15Z</time>
      </trkpt>
      <trkpt lat="42.2670180" lon="-8.3425990">
        <ele>450.4</ele>
        <time>2022-08-27T17:27:16Z</time>
      </trkpt>
      <trkpt lat="42.2670490" lon="-8.3426100">
        <ele>450.3</ele>
        <time>2022-08-27T17:27:17Z</time>
      </trkpt>
      <trkpt lat="42.2670560" lon="-8.3426120">
        <ele>450.3</ele>
        <time>2022-08-27T17:27:18Z</time>
      </trkpt>
      <trkpt lat="42.2670630" lon="-8.3426140">
        <ele>450.3</ele>
        <time>2022-08-27T17:27:19Z</time>
      </trkpt>
      <trkpt lat="42.2670690" lon="-8.3426160">
        <ele>450.3</ele>
        <time>2022-08-27T17:27:20Z</time>
      </trkpt>
      <trkpt lat="42.2670720" lon="-8.3426180">
        <ele>450.3</ele>
        <time>2022-08-27T17:27:21Z</time>
      </trkpt>
      <trkpt lat="42.2670780" lon="-8.3426170">
        <ele>450.3</ele>
        <time>2022-08-27T17:27:22Z</time>
      </trkpt>
      <trkpt lat="42.2670830" lon="-8.3426170">
        <ele>450.2</ele>
        <time>2022-08-27T17:27:23Z</time>
      </trkpt>
      <trkpt lat="42.2670940" lon="-8.3426160">
        <ele>450.2</ele>
        <time>2022-08-27T17:27:24Z</time>
      </trkpt>
      <trkpt lat="42.2671020" lon="-8.3426160">
        <ele>450.2</ele>
        <time>2022-08-27T17:27:25Z</time>
      </trkpt>
      <trkpt lat="42.2671110" lon="-8.3426150">
        <ele>450.2</ele>
        <time>2022-08-27T17:27:26Z</time>
      </trkpt>
      <trkpt lat="42.2671200" lon="-8.3426130">
        <ele>450.1</ele>
        <time>2022-08-27T17:27:27Z</time>
      </trkpt>
      <trkpt lat="42.2671260" lon="-8.3426110">
        <ele>450.1</ele>
        <time>2022-08-27T17:27:28Z</time>
      </trkpt>
      <trkpt lat="42.2671320" lon="-8.3426110">
        <ele>450.1</ele>
        <time>2022-08-27T17:27:29Z</time>
      </trkpt>
      <trkpt lat="42.2671380" lon="-8.3426060">
        <ele>450.1</ele>
        <time>2022-08-27T17:27:30Z</time>
      </trkpt>
      <trkpt lat="42.2671430" lon="-8.3425990">
        <ele>450.1</ele>
        <time>2022-08-27T17:27:31Z</time>
      </trkpt>
      <trkpt lat="42.2671520" lon="-8.3425830">
        <ele>450.0</ele>
        <time>2022-08-27T17:27:32Z</time>
      </trkpt>
      <trkpt lat="42.2671560" lon="-8.3425770">
        <ele>450.0</ele>
        <time>2022-08-27T17:27:33Z</time>
      </trkpt>
      <trkpt lat="42.2671610" lon="-8.3425710">
        <ele>450.0</ele>
        <time>2022-08-27T17:27:34Z</time>
      </trkpt>
      <trkpt lat="42.2671600" lon="-8.3425740">
        <ele>450.0</ele>
        <time>2022-08-27T17:27:35Z</time>
      </trkpt>
      <trkpt lat="42.2671590" lon="-8.3425750">
        <ele>450.0</ele>
        <time>2022-08-27T17:27:36Z</time>
      </trkpt>
      <trkpt lat="42.2671610" lon="-8.3425710">
        <ele>450.0</ele>
        <time>2022-08-27T17:27:37Z</time>
      </trkpt>
      <trkpt lat="42.2671650" lon="-8.3425630">
        <ele>450.0</ele>
        <time>2022-08-27T17:27:38Z</time>
      </trkpt>
      <trkpt lat="42.2671670" lon="-8.3425590">
        <ele>450.0</ele>
        <time>2022-08-27T17:27:39Z</time>
      </trkpt>
      <trkpt lat="42.2671690" lon="-8.3425550">
        <ele>450.0</ele>
        <time>2022-08-27T17:27:40Z</time>
      </trkpt>
      <trkpt lat="42.2671720" lon="-8.3425500">
        <ele>449.9</ele>
        <time>2022-08-27T17:27:41Z</time>
      </trkpt>
      <trkpt lat="42.2671750" lon="-8.3425480">
        <ele>449.9</ele>
        <time>2022-08-27T17:27:42Z</time>
      </trkpt>
      <trkpt lat="42.2671780" lon="-8.3425470">
        <ele>449.9</ele>
        <time>2022-08-27T17:27:43Z</time>
      </trkpt>
      <trkpt lat="42.2671810" lon="-8.3425460">
        <ele>449.9</ele>
        <time>2022-08-27T17:27:44Z</time>
      </trkpt>
      <trkpt lat="42.2671870" lon="-8.3425470">
        <ele>449.9</ele>
        <time>2022-08-27T17:27:46Z</time>
      </trkpt>
      <trkpt lat="42.2671930" lon="-8.3425500">
        <ele>449.9</ele>
        <time>2022-08-27T17:27:47Z</time>
      </trkpt>
      <trkpt lat="42.2672330" lon="-8.3426470">
        <ele>449.7</ele>
        <time>2022-08-27T17:28:41Z</time>
      </trkpt>
      <trkpt lat="42.2672340" lon="-8.3426550">
        <ele>449.7</ele>
        <time>2022-08-27T17:28:42Z</time>
      </trkpt>
      <trkpt lat="42.2672360" lon="-8.3426580">
        <ele>449.7</ele>
        <time>2022-08-27T17:28:43Z</time>
      </trkpt>
      <trkpt lat="42.2672280" lon="-8.3426600">
        <ele>449.6</ele>
        <time>2022-08-27T17:28:44Z</time>
      </trkpt>
      <trkpt lat="42.2672160" lon="-8.3426600">
        <ele>449.6</ele>
        <time>2022-08-27T17:28:45Z</time>
      </trkpt>
      <trkpt lat="42.2672020" lon="-8.3426580">
        <ele>449.6</ele>
        <time>2022-08-27T17:28:46Z</time>
      </trkpt>
      <trkpt lat="42.2671880" lon="-8.3426580">
        <ele>449.5</ele>
        <time>2022-08-27T17:28:47Z</time>
      </trkpt>
      <trkpt lat="42.2671790" lon="-8.3426580">
        <ele>449.5</ele>
        <time>2022-08-27T17:28:48Z</time>
      </trkpt>
      <trkpt lat="42.2671740" lon="-8.3426590">
        <ele>449.5</ele>
        <time>2022-08-27T17:28:49Z</time>
      </trkpt>
      <trkpt lat="42.2671670" lon="-8.3426610">
        <ele>449.5</ele>
        <time>2022-08-27T17:28:50Z</time>
      </trkpt>
      <trkpt lat="42.2671620" lon="-8.3426620">
        <ele>449.5</ele>
        <time>2022-08-27T17:28:51Z</time>
      </trkpt>
      <trkpt lat="42.2671560" lon="-8.3426630">
        <ele>449.5</ele>
        <time>2022-08-27T17:28:52Z</time>
      </trkpt>
      <trkpt lat="42.2671510" lon="-8.3426640">
        <ele>449.4</ele>
        <time>2022-08-27T17:28:53Z</time>
      </trkpt>
      <trkpt lat="42.2671460" lon="-8.3426660">
        <ele>449.4</ele>
        <time>2022-08-27T17:28:54Z</time>
      </trkpt>
      <trkpt lat="42.2671410" lon="-8.3426670">
        <ele>449.4</ele>
        <time>2022-08-27T17:28:55Z</time>
      </trkpt>
      <trkpt lat="42.2671350" lon="-8.3426680">
        <ele>449.4</ele>
        <time>2022-08-27T17:28:56Z</time>
      </trkpt>
      <trkpt lat="42.2671300" lon="-8.3426690">
        <ele>449.4</ele>
        <time>2022-08-27T17:28:57Z</time>
      </trkpt>
      <trkpt lat="42.2670970" lon="-8.3426630">
        <ele>449.3</ele>
        <time>2022-08-27T17:28:59Z</time>
      </trkpt>
      <trkpt lat="42.2670870" lon="-8.3426600">
        <ele>449.3</ele>
        <time>2022-08-27T17:29:00Z</time>
      </trkpt>
      <trkpt lat="42.2670580" lon="-8.3426550">
        <ele>449.2</ele>
        <time>2022-08-27T17:29:01Z</time>
      </trkpt>
      <trkpt lat="42.2670500" lon="-8.3426550">
        <ele>449.2</ele>
        <time>2022-08-27T17:29:02Z</time>
      </trkpt>
      <trkpt lat="42.2670140" lon="-8.3426580">
        <ele>449.1</ele>
        <time>2022-08-27T17:29:03Z</time>
      </trkpt>
      <trkpt lat="42.2670000" lon="-8.3426580">
        <ele>449.1</ele>
        <time>2022-08-27T17:29:04Z</time>
      </trkpt>
      <trkpt lat="42.2669770" lon="-8.3426530">
        <ele>449.0</ele>
        <time>2022-08-27T17:29:06Z</time>
      </trkpt>
      <trkpt lat="42.2669680" lon="-8.3426500">
        <ele>449.0</ele>
        <time>2022-08-27T17:29:07Z</time>
      </trkpt>
      <trkpt lat="42.2669360" lon="-8.3426420">
        <ele>448.9</ele>
        <time>2022-08-27T17:29:09Z</time>
      </trkpt>
      <trkpt lat="42.2669220" lon="-8.3426400">
        <ele>448.9</ele>
        <time>2022-08-27T17:29:10Z</time>
      </trkpt>
      <trkpt lat="42.2668860" lon="-8.3426400">
        <ele>449.1</ele>
        <time>2022-08-27T17:29:12Z</time>
      </trkpt>
      <trkpt lat="42.2668760" lon="-8.3426390">
        <ele>449.1</ele>
        <time>2022-08-27T17:29:13Z</time>
      </trkpt>
      <trkpt lat="42.2668660" lon="-8.3426370">
        <ele>449.2</ele>
        <time>2022-08-27T17:29:14Z</time>
      </trkpt>
      <trkpt lat="42.2668640" lon="-8.3426300">
        <ele>449.2</ele>
        <time>2022-08-27T17:29:15Z</time>
      </trkpt>
      <trkpt lat="42.2668560" lon="-8.3426270">
        <ele>449.2</ele>
        <time>2022-08-27T17:29:16Z</time>
      </trkpt>
      <trkpt lat="42.2668440" lon="-8.3426260">
        <ele>449.3</ele>
        <time>2022-08-27T17:29:17Z</time>
      </trkpt>
      <trkpt lat="42.2668320" lon="-8.3426270">
        <ele>449.3</ele>
        <time>2022-08-27T17:29:18Z</time>
      </trkpt>
      <trkpt lat="42.2668190" lon="-8.3426290">
        <ele>449.4</ele>
        <time>2022-08-27T17:29:19Z</time>
      </trkpt>
      <trkpt lat="42.2668110" lon="-8.3426300">
        <ele>449.4</ele>
        <time>2022-08-27T17:29:20Z</time>
      </trkpt>
      <trkpt lat="42.2667910" lon="-8.3426350">
        <ele>449.5</ele>
        <time>2022-08-27T17:29:21Z</time>
      </trkpt>
      <trkpt lat="42.2667720" lon="-8.3426400">
        <ele>449.6</ele>
        <time>2022-08-27T17:29:23Z</time>
      </trkpt>
      <trkpt lat="42.2667510" lon="-8.3426450">
        <ele>449.7</ele>
        <time>2022-08-27T17:29:24Z</time>
      </trkpt>
      <trkpt lat="42.2667430" lon="-8.3426460">
        <ele>449.8</ele>
        <time>2022-08-27T17:29:25Z</time>
      </trkpt>
      <trkpt lat="42.2667350" lon="-8.3426470">
        <ele>449.8</ele>
        <time>2022-08-27T17:29:26Z</time>
      </trkpt>
      <trkpt lat="42.2667240" lon="-8.3426480">
        <ele>449.9</ele>
        <time>2022-08-27T17:29:27Z</time>
      </trkpt>
      <trkpt lat="42.2667120" lon="-8.3426500">
        <ele>449.9</ele>
        <time>2022-08-27T17:29:28Z</time>
      </trkpt>
      <trkpt lat="42.2667010" lon="-8.3426500">
        <ele>450.0</ele>
        <time>2022-08-27T17:29:29Z</time>
      </trkpt>
      <trkpt lat="42.2666940" lon="-8.3426500">
        <ele>450.0</ele>
        <time>2022-08-27T17:29:30Z</time>
      </trkpt>
      <trkpt lat="42.2666680" lon="-8.3426530">
        <ele>450.1</ele>
        <time>2022-08-27T17:29:31Z</time>
      </trkpt>
      <trkpt lat="42.2666580" lon="-8.3426530">
        <ele>450.2</ele>
        <time>2022-08-27T17:29:32Z</time>
      </trkpt>
      <trkpt lat="42.2666400" lon="-8.3426490">
        <ele>450.3</ele>
        <time>2022-08-27T17:29:33Z</time>
      </trkpt>
      <trkpt lat="42.2666280" lon="-8.3426410">
        <ele>450.3</ele>
        <time>2022-08-27T17:29:35Z</time>
      </trkpt>
      <trkpt lat="42.2666180" lon="-8.3426190">
        <ele>450.4</ele>
        <time>2022-08-27T17:29:36Z</time>
      </trkpt>
      <trkpt lat="42.2666060" lon="-8.3426060">
        <ele>450.5</ele>
        <time>2022-08-27T17:29:37Z</time>
      </trkpt>
      <trkpt lat="42.2665950" lon="-8.3426030">
        <ele>450.6</ele>
        <time>2022-08-27T17:29:39Z</time>
      </trkpt>
      <trkpt lat="42.2665890" lon="-8.3426040">
        <ele>450.6</ele>
        <time>2022-08-27T17:29:40Z</time>
      </trkpt>
      <trkpt lat="42.2665780" lon="-8.3426060">
        <ele>450.6</ele>
        <time>2022-08-27T17:29:41Z</time>
      </trkpt>
      <trkpt lat="42.2665690" lon="-8.3426100">
        <ele>450.7</ele>
        <time>2022-08-27T17:29:42Z</time>
      </trkpt>
      <trkpt lat="42.2665630" lon="-8.3426130">
        <ele>450.7</ele>
        <time>2022-08-27T17:29:43Z</time>
      </trkpt>
      <trkpt lat="42.2665570" lon="-8.3426160">
        <ele>450.7</ele>
        <time>2022-08-27T17:29:45Z</time>
      </trkpt>
      <trkpt lat="42.2665460" lon="-8.3426200">
        <ele>450.8</ele>
        <time>2022-08-27T17:29:46Z</time>
      </trkpt>
      <trkpt lat="42.2665370" lon="-8.3426260">
        <ele>450.8</ele>
        <time>2022-08-27T17:29:47Z</time>
      </trkpt>
      <trkpt lat="42.2665310" lon="-8.3426290">
        <ele>450.9</ele>
        <time>2022-08-27T17:29:48Z</time>
      </trkpt>
      <trkpt lat="42.2665160" lon="-8.3426350">
        <ele>451.0</ele>
        <time>2022-08-27T17:29:49Z</time>
      </trkpt>
      <trkpt lat="42.2665080" lon="-8.3426370">
        <ele>451.0</ele>
        <time>2022-08-27T17:29:50Z</time>
      </trkpt>
      <trkpt lat="42.2665010" lon="-8.3426390">
        <ele>451.0</ele>
        <time>2022-08-27T17:29:51Z</time>
      </trkpt>
      <trkpt lat="42.2664930" lon="-8.3426410">
        <ele>451.1</ele>
        <time>2022-08-27T17:29:52Z</time>
      </trkpt>
      <trkpt lat="42.2664840" lon="-8.3426410">
        <ele>451.1</ele>
        <time>2022-08-27T17:29:53Z</time>
      </trkpt>
      <trkpt lat="42.2664700" lon="-8.3426420">
        <ele>451.2</ele>
        <time>2022-08-27T17:29:55Z</time>
      </trkpt>
      <trkpt lat="42.2664570" lon="-8.3426430">
        <ele>451.2</ele>
        <time>2022-08-27T17:29:56Z</time>
      </trkpt>
      <trkpt lat="42.2664470" lon="-8.3426410">
        <ele>451.3</ele>
        <time>2022-08-27T17:29:57Z</time>
      </trkpt>
      <trkpt lat="42.2664400" lon="-8.3426410">
        <ele>451.3</ele>
        <time>2022-08-27T17:29:58Z</time>
      </trkpt>
      <trkpt lat="42.2664270" lon="-8.3426380">
        <ele>451.4</ele>
        <time>2022-08-27T17:29:59Z</time>
      </trkpt>
      <trkpt lat="42.2664150" lon="-8.3426360">
        <ele>451.4</ele>
        <time>2022-08-27T17:30:01Z</time>
      </trkpt>
      <trkpt lat="42.2663920" lon="-8.3426390">
        <ele>451.6</ele>
        <time>2022-08-27T17:30:02Z</time>
      </trkpt>
      <trkpt lat="42.2663610" lon="-8.3426410">
        <ele>451.7</ele>
        <time>2022-08-27T17:30:03Z</time>
      </trkpt>
      <trkpt lat="42.2663200" lon="-8.3426360">
        <ele>451.9</ele>
        <time>2022-08-27T17:30:05Z</time>
      </trkpt>
      <trkpt lat="42.2663040" lon="-8.3426310">
        <ele>452.0</ele>
        <time>2022-08-27T17:30:06Z</time>
      </trkpt>
      <trkpt lat="42.2662680" lon="-8.3426270">
        <ele>452.1</ele>
        <time>2022-08-27T17:30:07Z</time>
      </trkpt>
      <trkpt lat="42.2662540" lon="-8.3426240">
        <ele>452.2</ele>
        <time>2022-08-27T17:30:08Z</time>
      </trkpt>
      <trkpt lat="42.2662440" lon="-8.3426210">
        <ele>452.3</ele>
        <time>2022-08-27T17:30:09Z</time>
      </trkpt>
      <trkpt lat="42.2662340" lon="-8.3426190">
        <ele>452.3</ele>
        <time>2022-08-27T17:30:10Z</time>
      </trkpt>
      <trkpt lat="42.2662010" lon="-8.3426210">
        <ele>452.5</ele>
        <time>2022-08-27T17:30:12Z</time>
      </trkpt>
      <trkpt lat="42.2661900" lon="-8.3426230">
        <ele>452.5</ele>
        <time>2022-08-27T17:30:13Z</time>
      </trkpt>
      <trkpt lat="42.2661660" lon="-8.3426500">
        <ele>452.9</ele>
        <time>2022-08-27T17:30:14Z</time>
      </trkpt>
      <trkpt lat="42.2661590" lon="-8.3426590">
        <ele>452.8</ele>
        <time>2022-08-27T17:30:15Z</time>
      </trkpt>
      <trkpt lat="42.2661370" lon="-8.3427030">
        <ele>452.8</ele>
        <time>2022-08-27T17:30:16Z</time>
      </trkpt>
      <trkpt lat="42.2661290" lon="-8.3427200">
        <ele>452.7</ele>
        <time>2022-08-27T17:30:17Z</time>
      </trkpt>
      <trkpt lat="42.2661140" lon="-8.3427610">
        <ele>452.7</ele>
        <time>2022-08-27T17:30:18Z</time>
      </trkpt>
      <trkpt lat="42.2661040" lon="-8.3428050">
        <ele>452.6</ele>
        <time>2022-08-27T17:30:19Z</time>
      </trkpt>
      <trkpt lat="42.2661010" lon="-8.3428520">
        <ele>452.6</ele>
        <time>2022-08-27T17:30:20Z</time>
      </trkpt>
      <trkpt lat="42.2661120" lon="-8.3429410">
        <ele>452.6</ele>
        <time>2022-08-27T17:30:21Z</time>
      </trkpt>
      <trkpt lat="42.2661240" lon="-8.3429900">
        <ele>452.6</ele>
        <time>2022-08-27T17:30:22Z</time>
      </trkpt>
      <trkpt lat="42.2661360" lon="-8.3430320">
        <ele>452.6</ele>
        <time>2022-08-27T17:30:23Z</time>
      </trkpt>
      <trkpt lat="42.2661540" lon="-8.3430820">
        <ele>452.7</ele>
        <time>2022-08-27T17:30:24Z</time>
      </trkpt>
      <trkpt lat="42.2661600" lon="-8.3431000">
        <ele>452.7</ele>
        <time>2022-08-27T17:30:25Z</time>
      </trkpt>
      <trkpt lat="42.2661770" lon="-8.3431380">
        <ele>452.7</ele>
        <time>2022-08-27T17:30:26Z</time>
      </trkpt>
      <trkpt lat="42.2661960" lon="-8.3431690">
        <ele>452.8</ele>
        <time>2022-08-27T17:30:27Z</time>
      </trkpt>
      <trkpt lat="42.2662150" lon="-8.3432020">
        <ele>452.8</ele>
        <time>2022-08-27T17:30:28Z</time>
      </trkpt>
      <trkpt lat="42.2662240" lon="-8.3432150">
        <ele>452.9</ele>
        <time>2022-08-27T17:30:29Z</time>
      </trkpt>
      <trkpt lat="42.2662420" lon="-8.3432450">
        <ele>452.9</ele>
        <time>2022-08-27T17:30:30Z</time>
      </trkpt>
      <trkpt lat="42.2662690" lon="-8.3432810">
        <ele>453.0</ele>
        <time>2022-08-27T17:30:31Z</time>
      </trkpt>
      <trkpt lat="42.2662790" lon="-8.3432930">
        <ele>453.0</ele>
        <time>2022-08-27T17:30:32Z</time>
      </trkpt>
      <trkpt lat="42.2663020" lon="-8.3433160">
        <ele>453.1</ele>
        <time>2022-08-27T17:30:33Z</time>
      </trkpt>
      <trkpt lat="42.2663290" lon="-8.3433410">
        <ele>453.1</ele>
        <time>2022-08-27T17:30:34Z</time>
      </trkpt>
      <trkpt lat="42.2663560" lon="-8.3433670">
        <ele>453.1</ele>
        <time>2022-08-27T17:30:35Z</time>
      </trkpt>
      <trkpt lat="42.2663820" lon="-8.3433980">
        <ele>453.2</ele>
        <time>2022-08-27T17:30:36Z</time>
      </trkpt>
      <trkpt lat="42.2664150" lon="-8.3434400">
        <ele>453.2</ele>
        <time>2022-08-27T17:30:37Z</time>
      </trkpt>
      <trkpt lat="42.2664290" lon="-8.3434580">
        <ele>453.2</ele>
        <time>2022-08-27T17:30:38Z</time>
      </trkpt>
      <trkpt lat="42.2664530" lon="-8.3434850">
        <ele>453.2</ele>
        <time>2022-08-27T17:30:39Z</time>
      </trkpt>
      <trkpt lat="42.2664760" lon="-8.3435130">
        <ele>453.2</ele>
        <time>2022-08-27T17:30:40Z</time>
      </trkpt>
      <trkpt lat="42.2665010" lon="-8.3435450">
        <ele>453.2</ele>
        <time>2022-08-27T17:30:41Z</time>
      </trkpt>
      <trkpt lat="42.2665280" lon="-8.3435790">
        <ele>453.2</ele>
        <time>2022-08-27T17:30:42Z</time>
      </trkpt>
      <trkpt lat="42.2665540" lon="-8.3436130">
        <ele>453.2</ele>
        <time>2022-08-27T17:30:43Z</time>
      </trkpt>
      <trkpt lat="42.2665810" lon="-8.3436500">
        <ele>453.2</ele>
        <time>2022-08-27T17:30:44Z</time>
      </trkpt>
      <trkpt lat="42.2666080" lon="-8.3436870">
        <ele>453.2</ele>
        <time>2022-08-27T17:30:45Z</time>
      </trkpt>
      <trkpt lat="42.2666350" lon="-8.3437230">
        <ele>453.1</ele>
        <time>2022-08-27T17:30:46Z</time>
      </trkpt>
      <trkpt lat="42.2666630" lon="-8.3437610">
        <ele>453.1</ele>
        <time>2022-08-27T17:30:47Z</time>
      </trkpt>
      <trkpt lat="42.2666880" lon="-8.3437980">
        <ele>453.1</ele>
        <time>2022-08-27T17:30:48Z</time>
      </trkpt>
      <trkpt lat="42.2667150" lon="-8.3438420">
        <ele>453.1</ele>
        <time>2022-08-27T17:30:49Z</time>
      </trkpt>
      <trkpt lat="42.2667360" lon="-8.3438750">
        <ele>453.1</ele>
        <time>2022-08-27T17:30:50Z</time>
      </trkpt>
      <trkpt lat="42.2667670" lon="-8.3439170">
        <ele>453.1</ele>
        <time>2022-08-27T17:30:51Z</time>
      </trkpt>
      <trkpt lat="42.2668000" lon="-8.3439560">
        <ele>453.1</ele>
        <time>2022-08-27T17:30:52Z</time>
      </trkpt>
      <trkpt lat="42.2668270" lon="-8.3439900">
        <ele>453.0</ele>
        <time>2022-08-27T17:30:53Z</time>
      </trkpt>
      <trkpt lat="42.2668560" lon="-8.3440250">
        <ele>453.0</ele>
        <time>2022-08-27T17:30:54Z</time>
      </trkpt>
      <trkpt lat="42.2669060" lon="-8.3440890">
        <ele>452.9</ele>
        <time>2022-08-27T17:30:56Z</time>
      </trkpt>
      <trkpt lat="42.2669340" lon="-8.3441280">
        <ele>452.9</ele>
        <time>2022-08-27T17:30:57Z</time>
      </trkpt>
      <trkpt lat="42.2669590" lon="-8.3441670">
        <ele>452.8</ele>
        <time>2022-08-27T17:30:58Z</time>
      </trkpt>
      <trkpt lat="42.2669860" lon="-8.3442060">
        <ele>452.7</ele>
        <time>2022-08-27T17:30:59Z</time>
      </trkpt>
      <trkpt lat="42.2670200" lon="-8.3442690">
        <ele>452.6</ele>
        <time>2022-08-27T17:31:01Z</time>
      </trkpt>
      <trkpt lat="42.2670440" lon="-8.3443290">
        <ele>452.5</ele>
        <time>2022-08-27T17:31:02Z</time>
      </trkpt>
      <trkpt lat="42.2670600" lon="-8.3443720">
        <ele>452.4</ele>
        <time>2022-08-27T17:31:03Z</time>
      </trkpt>
      <trkpt lat="42.2670730" lon="-8.3444150">
        <ele>452.3</ele>
        <time>2022-08-27T17:31:04Z</time>
      </trkpt>
      <trkpt lat="42.2670840" lon="-8.3444600">
        <ele>452.1</ele>
        <time>2022-08-27T17:31:05Z</time>
      </trkpt>
      <trkpt lat="42.2670960" lon="-8.3445060">
        <ele>451.9</ele>
        <time>2022-08-27T17:31:06Z</time>
      </trkpt>
      <trkpt lat="42.2671070" lon="-8.3445580">
        <ele>451.3</ele>
        <time>2022-08-27T17:31:07Z</time>
      </trkpt>
      <trkpt lat="42.2671160" lon="-8.3446130">
        <ele>451.1</ele>
        <time>2022-08-27T17:31:08Z</time>
      </trkpt>
      <trkpt lat="42.2671230" lon="-8.3446690">
        <ele>450.8</ele>
        <time>2022-08-27T17:31:09Z</time>
      </trkpt>
      <trkpt lat="42.2671270" lon="-8.3447300">
        <ele>450.6</ele>
        <time>2022-08-27T17:31:10Z</time>
      </trkpt>
      <trkpt lat="42.2671300" lon="-8.3447920">
        <ele>450.3</ele>
        <time>2022-08-27T17:31:11Z</time>
      </trkpt>
      <trkpt lat="42.2670910" lon="-8.3448660">
        <ele>449.9</ele>
        <time>2022-08-27T17:31:12Z</time>
      </trkpt>
      <trkpt lat="42.2670530" lon="-8.3449430">
        <ele>449.5</ele>
        <time>2022-08-27T17:31:13Z</time>
      </trkpt>
      <trkpt lat="42.2670080" lon="-8.3450150">
        <ele>449.0</ele>
        <time>2022-08-27T17:31:14Z</time>
      </trkpt>
      <trkpt lat="42.2669610" lon="-8.3450870">
        <ele>448.6</ele>
        <time>2022-08-27T17:31:15Z</time>
      </trkpt>
      <trkpt lat="42.2669170" lon="-8.3451670">
        <ele>448.2</ele>
        <time>2022-08-27T17:31:16Z</time>
      </trkpt>
      <trkpt lat="42.2668740" lon="-8.3452530">
        <ele>447.8</ele>
        <time>2022-08-27T17:31:17Z</time>
      </trkpt>
      <trkpt lat="42.2668310" lon="-8.3453450">
        <ele>447.3</ele>
        <time>2022-08-27T17:31:18Z</time>
      </trkpt>
      <trkpt lat="42.2667950" lon="-8.3454470">
        <ele>446.9</ele>
        <time>2022-08-27T17:31:19Z</time>
      </trkpt>
      <trkpt lat="42.2667670" lon="-8.3455550">
        <ele>446.5</ele>
        <time>2022-08-27T17:31:20Z</time>
      </trkpt>
      <trkpt lat="42.2667430" lon="-8.3456610">
        <ele>446.1</ele>
        <time>2022-08-27T17:31:21Z</time>
      </trkpt>
      <trkpt lat="42.2667190" lon="-8.3457660">
        <ele>445.8</ele>
        <time>2022-08-27T17:31:22Z</time>
      </trkpt>
      <trkpt lat="42.2667030" lon="-8.3458680">
        <ele>445.5</ele>
        <time>2022-08-27T17:31:23Z</time>
      </trkpt>
      <trkpt lat="42.2666840" lon="-8.3459550">
        <ele>445.3</ele>
        <time>2022-08-27T17:31:24Z</time>
      </trkpt>
      <trkpt lat="42.2666630" lon="-8.3460230">
        <ele>445.1</ele>
        <time>2022-08-27T17:31:25Z</time>
      </trkpt>
      <trkpt lat="42.2666540" lon="-8.3460700">
        <ele>444.9</ele>
        <time>2022-08-27T17:31:26Z</time>
      </trkpt>
      <trkpt lat="42.2666550" lon="-8.3460930">
        <ele>444.9</ele>
        <time>2022-08-27T17:31:27Z</time>
      </trkpt>
      <trkpt lat="42.2666530" lon="-8.3460980">
        <ele>444.9</ele>
        <time>2022-08-27T17:31:28Z</time>
      </trkpt>
      <trkpt lat="42.2666530" lon="-8.3461070">
        <ele>444.8</ele>
        <time>2022-08-27T17:31:29Z</time>
      </trkpt>
      <trkpt lat="42.2666510" lon="-8.3461040">
        <ele>444.8</ele>
        <time>2022-08-27T17:31:30Z</time>
      </trkpt>
      <trkpt lat="42.2666530" lon="-8.3461000">
        <ele>444.8</ele>
        <time>2022-08-27T17:31:31Z</time>
      </trkpt>
      <trkpt lat="42.2666560" lon="-8.3460930">
        <ele>444.8</ele>
        <time>2022-08-27T17:31:32Z</time>
      </trkpt>
      <trkpt lat="42.2666550" lon="-8.3460890">
        <ele>444.8</ele>
        <time>2022-08-27T17:31:33Z</time>
      </trkpt>
      <trkpt lat="42.2666530" lon="-8.3460860">
        <ele>444.8</ele>
        <time>2022-08-27T17:31:34Z</time>
      </trkpt>
      <trkpt lat="42.2666540" lon="-8.3460840">
        <ele>444.8</ele>
        <time>2022-08-27T17:31:35Z</time>
      </trkpt>
      <trkpt lat="42.2666590" lon="-8.3460800">
        <ele>444.8</ele>
        <time>2022-08-27T17:31:36Z</time>
      </trkpt>
      <trkpt lat="42.2666630" lon="-8.3460720">
        <ele>444.7</ele>
        <time>2022-08-27T17:31:37Z</time>
      </trkpt>
      <trkpt lat="42.2666650" lon="-8.3460650">
        <ele>444.7</ele>
        <time>2022-08-27T17:31:38Z</time>
      </trkpt>
      <trkpt lat="42.2666690" lon="-8.3460580">
        <ele>444.7</ele>
        <time>2022-08-27T17:31:39Z</time>
      </trkpt>
      <trkpt lat="42.2666760" lon="-8.3460460">
        <ele>444.7</ele>
        <time>2022-08-27T17:31:40Z</time>
      </trkpt>
      <trkpt lat="42.2666840" lon="-8.3460380">
        <ele>444.6</ele>
        <time>2022-08-27T17:31:41Z</time>
      </trkpt>
      <trkpt lat="42.2666900" lon="-8.3460320">
        <ele>444.6</ele>
        <time>2022-08-27T17:31:42Z</time>
      </trkpt>
      <trkpt lat="42.2666930" lon="-8.3460320">
        <ele>444.6</ele>
        <time>2022-08-27T17:31:43Z</time>
      </trkpt>
      <trkpt lat="42.2666990" lon="-8.3460290">
        <ele>444.6</ele>
        <time>2022-08-27T17:31:44Z</time>
      </trkpt>
      <trkpt lat="42.2667010" lon="-8.3460290">
        <ele>444.6</ele>
        <time>2022-08-27T17:31:45Z</time>
      </trkpt>
      <trkpt lat="42.2667010" lon="-8.3460290">
        <ele>444.6</ele>
        <time>2022-08-27T17:31:46Z</time>
      </trkpt>
      <trkpt lat="42.2666990" lon="-8.3460300">
        <ele>444.6</ele>
        <time>2022-08-27T17:31:47Z</time>
      </trkpt>
      <trkpt lat="42.2666970" lon="-8.3460310">
        <ele>444.6</ele>
        <time>2022-08-27T17:31:48Z</time>
      </trkpt>
      <trkpt lat="42.2666950" lon="-8.3460320">
        <ele>444.5</ele>
        <time>2022-08-27T17:31:49Z</time>
      </trkpt>
      <trkpt lat="42.2666930" lon="-8.3460340">
        <ele>444.5</ele>
        <time>2022-08-27T17:31:50Z</time>
      </trkpt>
      <trkpt lat="42.2666910" lon="-8.3460350">
        <ele>444.5</ele>
        <time>2022-08-27T17:31:51Z</time>
      </trkpt>
      <trkpt lat="42.2666890" lon="-8.3460360">
        <ele>444.5</ele>
        <time>2022-08-27T17:31:52Z</time>
      </trkpt>
      <trkpt lat="42.2666870" lon="-8.3460370">
        <ele>444.5</ele>
        <time>2022-08-27T17:31:53Z</time>
      </trkpt>
      <trkpt lat="42.2666850" lon="-8.3460390">
        <ele>444.5</ele>
        <time>2022-08-27T17:32:09Z</time>
      </trkpt>
      <trkpt lat="42.2666830" lon="-8.3460400">
        <ele>444.5</ele>
        <time>2022-08-27T17:32:10Z</time>
      </trkpt>
      <trkpt lat="42.2666810" lon="-8.3460410">
        <ele>444.5</ele>
        <time>2022-08-27T17:32:11Z</time>
      </trkpt>
      <trkpt lat="42.2666790" lon="-8.3460420">
        <ele>444.5</ele>
        <time>2022-08-27T17:32:12Z</time>
      </trkpt>
      <trkpt lat="42.2666770" lon="-8.3460440">
        <ele>444.5</ele>
        <time>2022-08-27T17:32:13Z</time>
      </trkpt>
      <trkpt lat="42.2666750" lon="-8.3460450">
        <ele>444.5</ele>
        <time>2022-08-27T17:32:14Z</time>
      </trkpt>
      <trkpt lat="42.2666730" lon="-8.3460460">
        <ele>444.5</ele>
        <time>2022-08-27T17:32:15Z</time>
      </trkpt>
      <trkpt lat="42.2666710" lon="-8.3460470">
        <ele>444.5</ele>
        <time>2022-08-27T17:32:16Z</time>
      </trkpt>
      <trkpt lat="42.2666690" lon="-8.3460490">
        <ele>444.5</ele>
        <time>2022-08-27T17:32:17Z</time>
      </trkpt>
      <trkpt lat="42.2666670" lon="-8.3460500">
        <ele>444.4</ele>
        <time>2022-08-27T17:32:18Z</time>
      </trkpt>
      <trkpt lat="42.2666650" lon="-8.3460510">
        <ele>444.4</ele>
        <time>2022-08-27T17:32:19Z</time>
      </trkpt>
      <trkpt lat="42.2666630" lon="-8.3460520">
        <ele>444.4</ele>
        <time>2022-08-27T17:32:20Z</time>
      </trkpt>
      <trkpt lat="42.2666610" lon="-8.3460540">
        <ele>444.4</ele>
        <time>2022-08-27T17:32:21Z</time>
      </trkpt>
      <trkpt lat="42.2666590" lon="-8.3460550">
        <ele>444.4</ele>
        <time>2022-08-27T17:32:22Z</time>
      </trkpt>
      <trkpt lat="42.2666570" lon="-8.3460560">
        <ele>444.4</ele>
        <time>2022-08-27T17:32:23Z</time>
      </trkpt>
      <trkpt lat="42.2666550" lon="-8.3460570">
        <ele>444.4</ele>
        <time>2022-08-27T17:32:24Z</time>
      </trkpt>
      <trkpt lat="42.2666530" lon="-8.3460590">
        <ele>444.4</ele>
        <time>2022-08-27T17:32:25Z</time>
      </trkpt>
      <trkpt lat="42.2666510" lon="-8.3460600">
        <ele>444.4</ele>
        <time>2022-08-27T17:32:26Z</time>
      </trkpt>
      <trkpt lat="42.2666490" lon="-8.3460610">
        <ele>444.4</ele>
        <time>2022-08-27T17:32:27Z</time>
      </trkpt>
      <trkpt lat="42.2666470" lon="-8.3460620">
        <ele>444.4</ele>
        <time>2022-08-27T17:32:42Z</time>
      </trkpt>
      <trkpt lat="42.2666450" lon="-8.3460640">
        <ele>444.4</ele>
        <time>2022-08-27T17:32:43Z</time>
      </trkpt>
      <trkpt lat="42.2666430" lon="-8.3460650">
        <ele>444.4</ele>
        <time>2022-08-27T17:32:44Z</time>
      </trkpt>
      <trkpt lat="42.2666250" lon="-8.3461090">
        <ele>444.2</ele>
        <time>2022-08-27T17:32:45Z</time>
      </trkpt>
      <trkpt lat="42.2666200" lon="-8.3461260">
        <ele>444.2</ele>
        <time>2022-08-27T17:32:46Z</time>
      </trkpt>
      <trkpt lat="42.2666020" lon="-8.3461760">
        <ele>444.1</ele>
        <time>2022-08-27T17:32:47Z</time>
      </trkpt>
      <trkpt lat="42.2665950" lon="-8.3461950">
        <ele>444.0</ele>
        <time>2022-08-27T17:32:48Z</time>
      </trkpt>
      <trkpt lat="42.2665740" lon="-8.3462330">
        <ele>444.0</ele>
        <time>2022-08-27T17:32:49Z</time>
      </trkpt>
      <trkpt lat="42.2665540" lon="-8.3462630">
        <ele>443.9</ele>
        <time>2022-08-27T17:32:50Z</time>
      </trkpt>
      <trkpt lat="42.2665300" lon="-8.3462960">
        <ele>443.8</ele>
        <time>2022-08-27T17:32:51Z</time>
      </trkpt>
      <trkpt lat="42.2665060" lon="-8.3463250">
        <ele>443.7</ele>
        <time>2022-08-27T17:32:52Z</time>
      </trkpt>
      <trkpt lat="42.2664780" lon="-8.3463500">
        <ele>443.6</ele>
        <time>2022-08-27T17:32:53Z</time>
      </trkpt>
      <trkpt lat="42.2664490" lon="-8.3463710">
        <ele>443.5</ele>
        <time>2022-08-27T17:32:54Z</time>
      </trkpt>
      <trkpt lat="42.2664050" lon="-8.3464010">
        <ele>443.4</ele>
        <time>2022-08-27T17:32:55Z</time>
      </trkpt>
      <trkpt lat="42.2663560" lon="-8.3464190">
        <ele>443.2</ele>
        <time>2022-08-27T17:32:56Z</time>
      </trkpt>
      <trkpt lat="42.2663120" lon="-8.3464390">
        <ele>443.1</ele>
        <time>2022-08-27T17:32:57Z</time>
      </trkpt>
      <trkpt lat="42.2662670" lon="-8.3464580">
        <ele>442.9</ele>
        <time>2022-08-27T17:32:58Z</time>
      </trkpt>
      <trkpt lat="42.2662150" lon="-8.3464750">
        <ele>442.7</ele>
        <time>2022-08-27T17:32:59Z</time>
      </trkpt>
      <trkpt lat="42.2661670" lon="-8.3464920">
        <ele>442.5</ele>
        <time>2022-08-27T17:33:00Z</time>
      </trkpt>
      <trkpt lat="42.2661220" lon="-8.3465140">
        <ele>442.4</ele>
        <time>2022-08-27T17:33:01Z</time>
      </trkpt>
      <trkpt lat="42.2660710" lon="-8.3465400">
        <ele>442.2</ele>
        <time>2022-08-27T17:33:02Z</time>
      </trkpt>
      <trkpt lat="42.2660220" lon="-8.3465630">
        <ele>442.1</ele>
        <time>2022-08-27T17:33:03Z</time>
      </trkpt>
      <trkpt lat="42.2659650" lon="-8.3465840">
        <ele>442.0</ele>
        <time>2022-08-27T17:33:04Z</time>
      </trkpt>
      <trkpt lat="42.2659070" lon="-8.3466070">
        <ele>441.8</ele>
        <time>2022-08-27T17:33:05Z</time>
      </trkpt>
      <trkpt lat="42.2658600" lon="-8.3466380">
        <ele>441.8</ele>
        <time>2022-08-27T17:33:06Z</time>
      </trkpt>
      <trkpt lat="42.2658100" lon="-8.3466700">
        <ele>441.7</ele>
        <time>2022-08-27T17:33:07Z</time>
      </trkpt>
      <trkpt lat="42.2657520" lon="-8.3466990">
        <ele>441.7</ele>
        <time>2022-08-27T17:33:08Z</time>
      </trkpt>
      <trkpt lat="42.2656940" lon="-8.3467170">
        <ele>441.6</ele>
        <time>2022-08-27T17:33:09Z</time>
      </trkpt>
      <trkpt lat="42.2656430" lon="-8.3467380">
        <ele>441.6</ele>
        <time>2022-08-27T17:33:10Z</time>
      </trkpt>
      <trkpt lat="42.2655920" lon="-8.3467580">
        <ele>441.6</ele>
        <time>2022-08-27T17:33:11Z</time>
      </trkpt>
      <trkpt lat="42.2655400" lon="-8.3467750">
        <ele>441.6</ele>
        <time>2022-08-27T17:33:12Z</time>
      </trkpt>
      <trkpt lat="42.2654810" lon="-8.3467800">
        <ele>441.5</ele>
        <time>2022-08-27T17:33:13Z</time>
      </trkpt>
      <trkpt lat="42.2654190" lon="-8.3467830">
        <ele>441.5</ele>
        <time>2022-08-27T17:33:14Z</time>
      </trkpt>
      <trkpt lat="42.2653590" lon="-8.3467930">
        <ele>441.5</ele>
        <time>2022-08-27T17:33:15Z</time>
      </trkpt>
      <trkpt lat="42.2652970" lon="-8.3467970">
        <ele>441.5</ele>
        <time>2022-08-27T17:33:16Z</time>
      </trkpt>
      <trkpt lat="42.2652380" lon="-8.3468250">
        <ele>441.5</ele>
        <time>2022-08-27T17:33:17Z</time>
      </trkpt>
      <trkpt lat="42.2651880" lon="-8.3468470">
        <ele>441.5</ele>
        <time>2022-08-27T17:33:18Z</time>
      </trkpt>
      <trkpt lat="42.2651380" lon="-8.3468720">
        <ele>441.5</ele>
        <time>2022-08-27T17:33:19Z</time>
      </trkpt>
      <trkpt lat="42.2650890" lon="-8.3468910">
        <ele>441.5</ele>
        <time>2022-08-27T17:33:20Z</time>
      </trkpt>
      <trkpt lat="42.2650400" lon="-8.3469160">
        <ele>441.5</ele>
        <time>2022-08-27T17:33:21Z</time>
      </trkpt>
      <trkpt lat="42.2649890" lon="-8.3469400">
        <ele>441.5</ele>
        <time>2022-08-27T17:33:22Z</time>
      </trkpt>
      <trkpt lat="42.2649470" lon="-8.3469630">
        <ele>441.5</ele>
        <time>2022-08-27T17:33:23Z</time>
      </trkpt>
      <trkpt lat="42.2648950" lon="-8.3469850">
        <ele>441.4</ele>
        <time>2022-08-27T17:33:24Z</time>
      </trkpt>
      <trkpt lat="42.2648410" lon="-8.3470030">
        <ele>441.4</ele>
        <time>2022-08-27T17:33:25Z</time>
      </trkpt>
      <trkpt lat="42.2647920" lon="-8.3470240">
        <ele>441.3</ele>
        <time>2022-08-27T17:33:26Z</time>
      </trkpt>
      <trkpt lat="42.2647430" lon="-8.3470510">
        <ele>441.2</ele>
        <time>2022-08-27T17:33:27Z</time>
      </trkpt>
      <trkpt lat="42.2647000" lon="-8.3470870">
        <ele>441.0</ele>
        <time>2022-08-27T17:33:28Z</time>
      </trkpt>
      <trkpt lat="42.2646600" lon="-8.3471270">
        <ele>440.8</ele>
        <time>2022-08-27T17:33:29Z</time>
      </trkpt>
      <trkpt lat="42.2646210" lon="-8.3471760">
        <ele>440.5</ele>
        <time>2022-08-27T17:33:30Z</time>
      </trkpt>
      <trkpt lat="42.2645850" lon="-8.3472280">
        <ele>440.2</ele>
        <time>2022-08-27T17:33:31Z</time>
      </trkpt>
      <trkpt lat="42.2645550" lon="-8.3473000">
        <ele>439.8</ele>
        <time>2022-08-27T17:33:32Z</time>
      </trkpt>
      <trkpt lat="42.2645250" lon="-8.3473740">
        <ele>439.4</ele>
        <time>2022-08-27T17:33:33Z</time>
      </trkpt>
      <trkpt lat="42.2644910" lon="-8.3474450">
        <ele>439.0</ele>
        <time>2022-08-27T17:33:34Z</time>
      </trkpt>
      <trkpt lat="42.2644540" lon="-8.3475150">
        <ele>438.6</ele>
        <time>2022-08-27T17:33:35Z</time>
      </trkpt>
      <trkpt lat="42.2644320" lon="-8.3475740">
        <ele>438.3</ele>
        <time>2022-08-27T17:33:36Z</time>
      </trkpt>
      <trkpt lat="42.2644310" lon="-8.3476240">
        <ele>438.1</ele>
        <time>2022-08-27T17:33:37Z</time>
      </trkpt>
      <trkpt lat="42.2644320" lon="-8.3476430">
        <ele>438.0</ele>
        <time>2022-08-27T17:33:38Z</time>
      </trkpt>
      <trkpt lat="42.2644420" lon="-8.3476750">
        <ele>437.9</ele>
        <time>2022-08-27T17:33:39Z</time>
      </trkpt>
      <trkpt lat="42.2644520" lon="-8.3476830">
        <ele>437.8</ele>
        <time>2022-08-27T17:33:40Z</time>
      </trkpt>
      <trkpt lat="42.2644580" lon="-8.3476900">
        <ele>436.8</ele>
        <time>2022-08-27T17:33:41Z</time>
      </trkpt>
      <trkpt lat="42.2644610" lon="-8.3476950">
        <ele>436.7</ele>
        <time>2022-08-27T17:33:42Z</time>
      </trkpt>
      <trkpt lat="42.2644670" lon="-8.3477060">
        <ele>436.6</ele>
        <time>2022-08-27T17:33:43Z</time>
      </trkpt>
      <trkpt lat="42.2644700" lon="-8.3477220">
        <ele>436.5</ele>
        <time>2022-08-27T17:33:44Z</time>
      </trkpt>
      <trkpt lat="42.2644710" lon="-8.3477410">
        <ele>436.4</ele>
        <time>2022-08-27T17:33:45Z</time>
      </trkpt>
      <trkpt lat="42.2644690" lon="-8.3477680">
        <ele>436.2</ele>
        <time>2022-08-27T17:33:46Z</time>
      </trkpt>
      <trkpt lat="42.2644760" lon="-8.3478090">
        <ele>435.9</ele>
        <time>2022-08-27T17:33:47Z</time>
      </trkpt>
      <trkpt lat="42.2644790" lon="-8.3478640">
        <ele>435.5</ele>
        <time>2022-08-27T17:33:48Z</time>
      </trkpt>
      <trkpt lat="42.2644980" lon="-8.3479450">
        <ele>435.0</ele>
        <time>2022-08-27T17:33:49Z</time>
      </trkpt>
      <trkpt lat="42.2645150" lon="-8.3480170">
        <ele>434.5</ele>
        <time>2022-08-27T17:33:50Z</time>
      </trkpt>
      <trkpt lat="42.2645270" lon="-8.3480860">
        <ele>434.0</ele>
        <time>2022-08-27T17:33:51Z</time>
      </trkpt>
      <trkpt lat="42.2645380" lon="-8.3481650">
        <ele>433.5</ele>
        <time>2022-08-27T17:33:52Z</time>
      </trkpt>
      <trkpt lat="42.2645580" lon="-8.3482520">
        <ele>432.9</ele>
        <time>2022-08-27T17:33:53Z</time>
      </trkpt>
      <trkpt lat="42.2645780" lon="-8.3483440">
        <ele>432.3</ele>
        <time>2022-08-27T17:33:54Z</time>
      </trkpt>
      <trkpt lat="42.2645980" lon="-8.3484310">
        <ele>431.7</ele>
        <time>2022-08-27T17:33:55Z</time>
      </trkpt>
      <trkpt lat="42.2646170" lon="-8.3485200">
        <ele>431.2</ele>
        <time>2022-08-27T17:33:56Z</time>
      </trkpt>
      <trkpt lat="42.2646450" lon="-8.3486130">
        <ele>430.5</ele>
        <time>2022-08-27T17:33:57Z</time>
      </trkpt>
      <trkpt lat="42.2646670" lon="-8.3487110">
        <ele>429.9</ele>
        <time>2022-08-27T17:33:58Z</time>
      </trkpt>
      <trkpt lat="42.2646880" lon="-8.3488170">
        <ele>429.3</ele>
        <time>2022-08-27T17:33:59Z</time>
      </trkpt>
      <trkpt lat="42.2647090" lon="-8.3489240">
        <ele>428.8</ele>
        <time>2022-08-27T17:34:00Z</time>
      </trkpt>
      <trkpt lat="42.2647320" lon="-8.3490380">
        <ele>428.2</ele>
        <time>2022-08-27T17:34:01Z</time>
      </trkpt>
      <trkpt lat="42.2647610" lon="-8.3491510">
        <ele>427.7</ele>
        <time>2022-08-27T17:34:02Z</time>
      </trkpt>
      <trkpt lat="42.2647940" lon="-8.3492670">
        <ele>427.2</ele>
        <time>2022-08-27T17:34:03Z</time>
      </trkpt>
      <trkpt lat="42.2648290" lon="-8.3493800">
        <ele>426.7</ele>
        <time>2022-08-27T17:34:04Z</time>
      </trkpt>
      <trkpt lat="42.2648700" lon="-8.3494870">
        <ele>426.3</ele>
        <time>2022-08-27T17:34:05Z</time>
      </trkpt>
      <trkpt lat="42.2649100" lon="-8.3495750">
        <ele>426.0</ele>
        <time>2022-08-27T17:34:06Z</time>
      </trkpt>
      <trkpt lat="42.2649520" lon="-8.3496520">
        <ele>425.6</ele>
        <time>2022-08-27T17:34:07Z</time>
      </trkpt>
      <trkpt lat="42.2649950" lon="-8.3497120">
        <ele>425.5</ele>
        <time>2022-08-27T17:34:08Z</time>
      </trkpt>
      <trkpt lat="42.2650320" lon="-8.3497820">
        <ele>425.3</ele>
        <time>2022-08-27T17:34:09Z</time>
      </trkpt>
      <trkpt lat="42.2650670" lon="-8.3498620">
        <ele>425.1</ele>
        <time>2022-08-27T17:34:10Z</time>
      </trkpt>
      <trkpt lat="42.2651030" lon="-8.3499360">
        <ele>424.9</ele>
        <time>2022-08-27T17:34:11Z</time>
      </trkpt>
      <trkpt lat="42.2651460" lon="-8.3500020">
        <ele>424.8</ele>
        <time>2022-08-27T17:34:12Z</time>
      </trkpt>
      <trkpt lat="42.2651950" lon="-8.3500710">
        <ele>424.6</ele>
        <time>2022-08-27T17:34:13Z</time>
      </trkpt>
      <trkpt lat="42.2652380" lon="-8.3501480">
        <ele>424.4</ele>
        <time>2022-08-27T17:34:14Z</time>
      </trkpt>
      <trkpt lat="42.2652830" lon="-8.3502210">
        <ele>424.1</ele>
        <time>2022-08-27T17:34:15Z</time>
      </trkpt>
      <trkpt lat="42.2653260" lon="-8.3502990">
        <ele>423.8</ele>
        <time>2022-08-27T17:34:16Z</time>
      </trkpt>
      <trkpt lat="42.2653650" lon="-8.3503800">
        <ele>423.5</ele>
        <time>2022-08-27T17:34:17Z</time>
      </trkpt>
      <trkpt lat="42.2654020" lon="-8.3504530">
        <ele>423.2</ele>
        <time>2022-08-27T17:34:18Z</time>
      </trkpt>
      <trkpt lat="42.2654420" lon="-8.3505250">
        <ele>422.8</ele>
        <time>2022-08-27T17:34:19Z</time>
      </trkpt>
      <trkpt lat="42.2654800" lon="-8.3506010">
        <ele>422.3</ele>
        <time>2022-08-27T17:34:20Z</time>
      </trkpt>
      <trkpt lat="42.2655130" lon="-8.3506820">
        <ele>421.9</ele>
        <time>2022-08-27T17:34:21Z</time>
      </trkpt>
      <trkpt lat="42.2655350" lon="-8.3507700">
        <ele>421.4</ele>
        <time>2022-08-27T17:34:22Z</time>
      </trkpt>
      <trkpt lat="42.2655350" lon="-8.3508580">
        <ele>420.9</ele>
        <time>2022-08-27T17:34:23Z</time>
      </trkpt>
      <trkpt lat="42.2655020" lon="-8.3509460">
        <ele>420.4</ele>
        <time>2022-08-27T17:34:24Z</time>
      </trkpt>
      <trkpt lat="42.2654480" lon="-8.3510100">
        <ele>419.9</ele>
        <time>2022-08-27T17:34:25Z</time>
      </trkpt>
      <trkpt lat="42.2653780" lon="-8.3510570">
        <ele>419.4</ele>
        <time>2022-08-27T17:34:26Z</time>
      </trkpt>
      <trkpt lat="42.2652990" lon="-8.3510830">
        <ele>418.9</ele>
        <time>2022-08-27T17:34:27Z</time>
      </trkpt>
      <trkpt lat="42.2652180" lon="-8.3510800">
        <ele>418.4</ele>
        <time>2022-08-27T17:34:28Z</time>
      </trkpt>
      <trkpt lat="42.2651540" lon="-8.3510690">
        <ele>418.0</ele>
        <time>2022-08-27T17:34:29Z</time>
      </trkpt>
      <trkpt lat="42.2650810" lon="-8.3510600">
        <ele>417.6</ele>
        <time>2022-08-27T17:34:30Z</time>
      </trkpt>
      <trkpt lat="42.2650100" lon="-8.3510400">
        <ele>417.2</ele>
        <time>2022-08-27T17:34:31Z</time>
      </trkpt>
      <trkpt lat="42.2649380" lon="-8.3510240">
        <ele>416.8</ele>
        <time>2022-08-27T17:34:32Z</time>
      </trkpt>
      <trkpt lat="42.2648600" lon="-8.3510310">
        <ele>416.4</ele>
        <time>2022-08-27T17:34:33Z</time>
      </trkpt>
      <trkpt lat="42.2647820" lon="-8.3510390">
        <ele>416.0</ele>
        <time>2022-08-27T17:34:34Z</time>
      </trkpt>
      <trkpt lat="42.2647090" lon="-8.3510480">
        <ele>415.7</ele>
        <time>2022-08-27T17:34:35Z</time>
      </trkpt>
      <trkpt lat="42.2646500" lon="-8.3510470">
        <ele>415.5</ele>
        <time>2022-08-27T17:34:36Z</time>
      </trkpt>
      <trkpt lat="42.2646010" lon="-8.3510360">
        <ele>415.3</ele>
        <time>2022-08-27T17:34:37Z</time>
      </trkpt>
      <trkpt lat="42.2645460" lon="-8.3510100">
        <ele>415.0</ele>
        <time>2022-08-27T17:34:38Z</time>
      </trkpt>
      <trkpt lat="42.2645090" lon="-8.3509840">
        <ele>414.8</ele>
        <time>2022-08-27T17:34:39Z</time>
      </trkpt>
      <trkpt lat="42.2644750" lon="-8.3509550">
        <ele>414.6</ele>
        <time>2022-08-27T17:34:40Z</time>
      </trkpt>
      <trkpt lat="42.2644590" lon="-8.3509420">
        <ele>414.5</ele>
        <time>2022-08-27T17:34:41Z</time>
      </trkpt>
      <trkpt lat="42.2644390" lon="-8.3509290">
        <ele>414.4</ele>
        <time>2022-08-27T17:34:42Z</time>
      </trkpt>
      <trkpt lat="42.2644260" lon="-8.3509240">
        <ele>414.3</ele>
        <time>2022-08-27T17:34:43Z</time>
      </trkpt>
      <trkpt lat="42.2644190" lon="-8.3509150">
        <ele>414.2</ele>
        <time>2022-08-27T17:34:44Z</time>
      </trkpt>
      <trkpt lat="42.2644200" lon="-8.3509120">
        <ele>414.2</ele>
        <time>2022-08-27T17:34:45Z</time>
      </trkpt>
      <trkpt lat="42.2644220" lon="-8.3509090">
        <ele>414.2</ele>
        <time>2022-08-27T17:34:46Z</time>
      </trkpt>
      <trkpt lat="42.2644230" lon="-8.3509050">
        <ele>414.2</ele>
        <time>2022-08-27T17:34:47Z</time>
      </trkpt>
      <trkpt lat="42.2644240" lon="-8.3509020">
        <ele>414.1</ele>
        <time>2022-08-27T17:34:48Z</time>
      </trkpt>
      <trkpt lat="42.2644250" lon="-8.3508980">
        <ele>414.1</ele>
        <time>2022-08-27T17:34:49Z</time>
      </trkpt>
      <trkpt lat="42.2644260" lon="-8.3508950">
        <ele>414.1</ele>
        <time>2022-08-27T17:34:50Z</time>
      </trkpt>
      <trkpt lat="42.2644270" lon="-8.3508920">
        <ele>414.1</ele>
        <time>2022-08-27T17:34:51Z</time>
      </trkpt>
      <trkpt lat="42.2644280" lon="-8.3508880">
        <ele>414.1</ele>
        <time>2022-08-27T17:34:52Z</time>
      </trkpt>
      <trkpt lat="42.2644300" lon="-8.3508850">
        <ele>414.1</ele>
        <time>2022-08-27T17:34:53Z</time>
      </trkpt>
      <trkpt lat="42.2644310" lon="-8.3508810">
        <ele>414.0</ele>
        <time>2022-08-27T17:34:54Z</time>
      </trkpt>
      <trkpt lat="42.2644320" lon="-8.3508780">
        <ele>414.0</ele>
        <time>2022-08-27T17:34:55Z</time>
      </trkpt>
      <trkpt lat="42.2644330" lon="-8.3508750">
        <ele>414.0</ele>
        <time>2022-08-27T17:34:56Z</time>
      </trkpt>
      <trkpt lat="42.2644240" lon="-8.3508720">
        <ele>414.0</ele>
        <time>2022-08-27T17:34:57Z</time>
      </trkpt>
      <trkpt lat="42.2644170" lon="-8.3508650">
        <ele>413.9</ele>
        <time>2022-08-27T17:34:58Z</time>
      </trkpt>
      <trkpt lat="42.2644100" lon="-8.3508630">
        <ele>413.9</ele>
        <time>2022-08-27T17:34:59Z</time>
      </trkpt>
      <trkpt lat="42.2644050" lon="-8.3508620">
        <ele>413.8</ele>
        <time>2022-08-27T17:35:00Z</time>
      </trkpt>
      <trkpt lat="42.2644030" lon="-8.3508610">
        <ele>413.8</ele>
        <time>2022-08-27T17:35:01Z</time>
      </trkpt>
      <trkpt lat="42.2644010" lon="-8.3508570">
        <ele>413.8</ele>
        <time>2022-08-27T17:35:02Z</time>
      </trkpt>
      <trkpt lat="42.2643980" lon="-8.3508550">
        <ele>413.8</ele>
        <time>2022-08-27T17:35:03Z</time>
      </trkpt>
      <trkpt lat="42.2643940" lon="-8.3508530">
        <ele>413.7</ele>
        <time>2022-08-27T17:35:04Z</time>
      </trkpt>
      <trkpt lat="42.2643890" lon="-8.3508500">
        <ele>413.7</ele>
        <time>2022-08-27T17:35:05Z</time>
      </trkpt>
      <trkpt lat="42.2643830" lon="-8.3508470">
        <ele>413.7</ele>
        <time>2022-08-27T17:35:06Z</time>
      </trkpt>
      <trkpt lat="42.2643750" lon="-8.3508440">
        <ele>413.6</ele>
        <time>2022-08-27T17:35:07Z</time>
      </trkpt>
      <trkpt lat="42.2643760" lon="-8.3508400">
        <ele>413.6</ele>
        <time>2022-08-27T17:35:08Z</time>
      </trkpt>
      <trkpt lat="42.2643770" lon="-8.3508360">
        <ele>413.6</ele>
        <time>2022-08-27T17:35:09Z</time>
      </trkpt>
      <trkpt lat="42.2643770" lon="-8.3508320">
        <ele>413.6</ele>
        <time>2022-08-27T17:35:10Z</time>
      </trkpt>
      <trkpt lat="42.2643790" lon="-8.3508310">
        <ele>413.5</ele>
        <time>2022-08-27T17:35:11Z</time>
      </trkpt>
      <trkpt lat="42.2643850" lon="-8.3508290">
        <ele>413.5</ele>
        <time>2022-08-27T17:35:12Z</time>
      </trkpt>
      <trkpt lat="42.2643910" lon="-8.3508260">
        <ele>413.5</ele>
        <time>2022-08-27T17:35:13Z</time>
      </trkpt>
      <trkpt lat="42.2643990" lon="-8.3508220">
        <ele>413.4</ele>
        <time>2022-08-27T17:35:14Z</time>
      </trkpt>
      <trkpt lat="42.2644030" lon="-8.3508190">
        <ele>413.4</ele>
        <time>2022-08-27T17:35:15Z</time>
      </trkpt>
      <trkpt lat="42.2644070" lon="-8.3508140">
        <ele>413.3</ele>
        <time>2022-08-27T17:35:16Z</time>
      </trkpt>
      <trkpt lat="42.2644110" lon="-8.3508100">
        <ele>413.3</ele>
        <time>2022-08-27T17:35:17Z</time>
      </trkpt>
      <trkpt lat="42.2644140" lon="-8.3508080">
        <ele>413.3</ele>
        <time>2022-08-27T17:35:18Z</time>
      </trkpt>
      <trkpt lat="42.2644160" lon="-8.3508070">
        <ele>413.3</ele>
        <time>2022-08-27T17:35:19Z</time>
      </trkpt>
      <trkpt lat="42.2644170" lon="-8.3508060">
        <ele>413.3</ele>
        <time>2022-08-27T17:35:20Z</time>
      </trkpt>
      <trkpt lat="42.2644210" lon="-8.3508080">
        <ele>413.2</ele>
        <time>2022-08-27T17:35:21Z</time>
      </trkpt>
      <trkpt lat="42.2644260" lon="-8.3508120">
        <ele>413.2</ele>
        <time>2022-08-27T17:35:22Z</time>
      </trkpt>
      <trkpt lat="42.2644230" lon="-8.3508070">
        <ele>413.2</ele>
        <time>2022-08-27T17:35:23Z</time>
      </trkpt>
      <trkpt lat="42.2644190" lon="-8.3508000">
        <ele>413.1</ele>
        <time>2022-08-27T17:35:24Z</time>
      </trkpt>
      <trkpt lat="42.2644160" lon="-8.3507930">
        <ele>413.1</ele>
        <time>2022-08-27T17:35:25Z</time>
      </trkpt>
      <trkpt lat="42.2644120" lon="-8.3507860">
        <ele>413.0</ele>
        <time>2022-08-27T17:35:26Z</time>
      </trkpt>
      <trkpt lat="42.2644080" lon="-8.3507800">
        <ele>413.0</ele>
        <time>2022-08-27T17:35:27Z</time>
      </trkpt>
      <trkpt lat="42.2644040" lon="-8.3507730">
        <ele>413.0</ele>
        <time>2022-08-27T17:35:28Z</time>
      </trkpt>
      <trkpt lat="42.2644000" lon="-8.3507660">
        <ele>412.9</ele>
        <time>2022-08-27T17:35:29Z</time>
      </trkpt>
      <trkpt lat="42.2643960" lon="-8.3507600">
        <ele>412.9</ele>
        <time>2022-08-27T17:35:30Z</time>
      </trkpt>
      <trkpt lat="42.2643930" lon="-8.3507530">
        <ele>412.8</ele>
        <time>2022-08-27T17:35:31Z</time>
      </trkpt>
      <trkpt lat="42.2643890" lon="-8.3507460">
        <ele>412.8</ele>
        <time>2022-08-27T17:35:32Z</time>
      </trkpt>
      <trkpt lat="42.2643850" lon="-8.3507400">
        <ele>412.7</ele>
        <time>2022-08-27T17:35:42Z</time>
      </trkpt>
      <trkpt lat="42.2643810" lon="-8.3507330">
        <ele>412.7</ele>
        <time>2022-08-27T17:35:43Z</time>
      </trkpt>
      <trkpt lat="42.2643770" lon="-8.3507260">
        <ele>412.7</ele>
        <time>2022-08-27T17:35:44Z</time>
      </trkpt>
      <trkpt lat="42.2643650" lon="-8.3506870">
        <ele>412.4</ele>
        <time>2022-08-27T17:35:45Z</time>
      </trkpt>
      <trkpt lat="42.2643470" lon="-8.3506400">
        <ele>412.1</ele>
        <time>2022-08-27T17:35:46Z</time>
      </trkpt>
      <trkpt lat="42.2643210" lon="-8.3505840">
        <ele>411.8</ele>
        <time>2022-08-27T17:35:47Z</time>
      </trkpt>
      <trkpt lat="42.2642820" lon="-8.3505350">
        <ele>411.4</ele>
        <time>2022-08-27T17:35:48Z</time>
      </trkpt>
      <trkpt lat="42.2642260" lon="-8.3505370">
        <ele>410.9</ele>
        <time>2022-08-27T17:35:49Z</time>
      </trkpt>
      <trkpt lat="42.2641730" lon="-8.3505750">
        <ele>410.4</ele>
        <time>2022-08-27T17:35:50Z</time>
      </trkpt>
      <trkpt lat="42.2641330" lon="-8.3506450">
        <ele>409.9</ele>
        <time>2022-08-27T17:35:51Z</time>
      </trkpt>
      <trkpt lat="42.2641200" lon="-8.3507250">
        <ele>409.4</ele>
        <time>2022-08-27T17:35:52Z</time>
      </trkpt>
      <trkpt lat="42.2641410" lon="-8.3508240">
        <ele>408.8</ele>
        <time>2022-08-27T17:35:53Z</time>
      </trkpt>
      <trkpt lat="42.2641690" lon="-8.3509180">
        <ele>408.2</ele>
        <time>2022-08-27T17:35:54Z</time>
      </trkpt>
      <trkpt lat="42.2641970" lon="-8.3510070">
        <ele>407.6</ele>
        <time>2022-08-27T17:35:55Z</time>
      </trkpt>
      <trkpt lat="42.2642350" lon="-8.3511020">
        <ele>407.0</ele>
        <time>2022-08-27T17:35:56Z</time>
      </trkpt>
      <trkpt lat="42.2642770" lon="-8.3511880">
        <ele>406.4</ele>
        <time>2022-08-27T17:35:57Z</time>
      </trkpt>
      <trkpt lat="42.2643340" lon="-8.3512720">
        <ele>405.6</ele>
        <time>2022-08-27T17:35:58Z</time>
      </trkpt>
      <trkpt lat="42.2644010" lon="-8.3513490">
        <ele>404.8</ele>
        <time>2022-08-27T17:35:59Z</time>
      </trkpt>
      <trkpt lat="42.2644770" lon="-8.3514220">
        <ele>404.1</ele>
        <time>2022-08-27T17:36:00Z</time>
      </trkpt>
      <trkpt lat="42.2645420" lon="-8.3514870">
        <ele>403.5</ele>
        <time>2022-08-27T17:36:01Z</time>
      </trkpt>
      <trkpt lat="42.2645950" lon="-8.3515730">
        <ele>403.0</ele>
        <time>2022-08-27T17:36:02Z</time>
      </trkpt>
      <trkpt lat="42.2646270" lon="-8.3517020">
        <ele>402.3</ele>
        <time>2022-08-27T17:36:03Z</time>
      </trkpt>
      <trkpt lat="42.2646230" lon="-8.3518260">
        <ele>401.8</ele>
        <time>2022-08-27T17:36:04Z</time>
      </trkpt>
      <trkpt lat="42.2646110" lon="-8.3519490">
        <ele>401.2</ele>
        <time>2022-08-27T17:36:05Z</time>
      </trkpt>
      <trkpt lat="42.2645900" lon="-8.3520590">
        <ele>400.6</ele>
        <time>2022-08-27T17:36:06Z</time>
      </trkpt>
      <trkpt lat="42.2645720" lon="-8.3521600">
        <ele>400.0</ele>
        <time>2022-08-27T17:36:07Z</time>
      </trkpt>
      <trkpt lat="42.2645640" lon="-8.3522550">
        <ele>399.4</ele>
        <time>2022-08-27T17:36:08Z</time>
      </trkpt>
      <trkpt lat="42.2645770" lon="-8.3523550">
        <ele>398.8</ele>
        <time>2022-08-27T17:36:09Z</time>
      </trkpt>
      <trkpt lat="42.2645900" lon="-8.3524500">
        <ele>398.2</ele>
        <time>2022-08-27T17:36:10Z</time>
      </trkpt>
      <trkpt lat="42.2646280" lon="-8.3525330">
        <ele>397.7</ele>
        <time>2022-08-27T17:36:11Z</time>
      </trkpt>
      <trkpt lat="42.2646990" lon="-8.3526070">
        <ele>397.0</ele>
        <time>2022-08-27T17:36:12Z</time>
      </trkpt>
      <trkpt lat="42.2647770" lon="-8.3526580">
        <ele>396.3</ele>
        <time>2022-08-27T17:36:13Z</time>
      </trkpt>
      <trkpt lat="42.2648520" lon="-8.3527220">
        <ele>395.7</ele>
        <time>2022-08-27T17:36:14Z</time>
      </trkpt>
      <trkpt lat="42.2649350" lon="-8.3527920">
        <ele>395.1</ele>
        <time>2022-08-27T17:36:15Z</time>
      </trkpt>
      <trkpt lat="42.2650110" lon="-8.3528610">
        <ele>394.5</ele>
        <time>2022-08-27T17:36:16Z</time>
      </trkpt>
      <trkpt lat="42.2650870" lon="-8.3529300">
        <ele>393.9</ele>
        <time>2022-08-27T17:36:17Z</time>
      </trkpt>
      <trkpt lat="42.2651570" lon="-8.3529910">
        <ele>393.4</ele>
        <time>2022-08-27T17:36:18Z</time>
      </trkpt>
      <trkpt lat="42.2652400" lon="-8.3530350">
        <ele>392.7</ele>
        <time>2022-08-27T17:36:19Z</time>
      </trkpt>
      <trkpt lat="42.2653330" lon="-8.3530540">
        <ele>392.0</ele>
        <time>2022-08-27T17:36:20Z</time>
      </trkpt>
      <trkpt lat="42.2654200" lon="-8.3530720">
        <ele>391.4</ele>
        <time>2022-08-27T17:36:21Z</time>
      </trkpt>
      <trkpt lat="42.2655110" lon="-8.3530920">
        <ele>390.8</ele>
        <time>2022-08-27T17:36:22Z</time>
      </trkpt>
      <trkpt lat="42.2656040" lon="-8.3531060">
        <ele>390.1</ele>
        <time>2022-08-27T17:36:23Z</time>
      </trkpt>
      <trkpt lat="42.2657020" lon="-8.3531260">
        <ele>389.4</ele>
        <time>2022-08-27T17:36:24Z</time>
      </trkpt>
      <trkpt lat="42.2657950" lon="-8.3531450">
        <ele>388.7</ele>
        <time>2022-08-27T17:36:25Z</time>
      </trkpt>
      <trkpt lat="42.2658890" lon="-8.3531650">
        <ele>387.9</ele>
        <time>2022-08-27T17:36:26Z</time>
      </trkpt>
      <trkpt lat="42.2659960" lon="-8.3531910">
        <ele>387.0</ele>
        <time>2022-08-27T17:36:27Z</time>
      </trkpt>
      <trkpt lat="42.2661070" lon="-8.3532250">
        <ele>386.2</ele>
        <time>2022-08-27T17:36:28Z</time>
      </trkpt>
      <trkpt lat="42.2662130" lon="-8.3532550">
        <ele>385.4</ele>
        <time>2022-08-27T17:36:29Z</time>
      </trkpt>
      <trkpt lat="42.2663120" lon="-8.3532690">
        <ele>384.7</ele>
        <time>2022-08-27T17:36:30Z</time>
      </trkpt>
      <trkpt lat="42.2664150" lon="-8.3532800">
        <ele>383.9</ele>
        <time>2022-08-27T17:36:31Z</time>
      </trkpt>
      <trkpt lat="42.2665280" lon="-8.3532780">
        <ele>383.0</ele>
        <time>2022-08-27T17:36:32Z</time>
      </trkpt>
      <trkpt lat="42.2666410" lon="-8.3532790">
        <ele>382.2</ele>
        <time>2022-08-27T17:36:33Z</time>
      </trkpt>
      <trkpt lat="42.2667520" lon="-8.3532780">
        <ele>381.4</ele>
        <time>2022-08-27T17:36:34Z</time>
      </trkpt>
      <trkpt lat="42.2668650" lon="-8.3532870">
        <ele>380.5</ele>
        <time>2022-08-27T17:36:35Z</time>
      </trkpt>
      <trkpt lat="42.2669780" lon="-8.3532790">
        <ele>379.6</ele>
        <time>2022-08-27T17:36:36Z</time>
      </trkpt>
      <trkpt lat="42.2670980" lon="-8.3532790">
        <ele>378.7</ele>
        <time>2022-08-27T17:36:37Z</time>
      </trkpt>
      <trkpt lat="42.2672150" lon="-8.3532700">
        <ele>377.8</ele>
        <time>2022-08-27T17:36:38Z</time>
      </trkpt>
      <trkpt lat="42.2673320" lon="-8.3532580">
        <ele>377.0</ele>
        <time>2022-08-27T17:36:39Z</time>
      </trkpt>
      <trkpt lat="42.2674490" lon="-8.3532230">
        <ele>376.0</ele>
        <time>2022-08-27T17:36:40Z</time>
      </trkpt>
      <trkpt lat="42.2675650" lon="-8.3531750">
        <ele>375.1</ele>
        <time>2022-08-27T17:36:41Z</time>
      </trkpt>
      <trkpt lat="42.2676850" lon="-8.3531260">
        <ele>374.1</ele>
        <time>2022-08-27T17:36:42Z</time>
      </trkpt>
      <trkpt lat="42.2678020" lon="-8.3530850">
        <ele>373.2</ele>
        <time>2022-08-27T17:36:43Z</time>
      </trkpt>
      <trkpt lat="42.2679200" lon="-8.3530600">
        <ele>372.3</ele>
        <time>2022-08-27T17:36:44Z</time>
      </trkpt>
      <trkpt lat="42.2680370" lon="-8.3530620">
        <ele>371.5</ele>
        <time>2022-08-27T17:36:45Z</time>
      </trkpt>
      <trkpt lat="42.2681570" lon="-8.3530740">
        <ele>370.6</ele>
        <time>2022-08-27T17:36:46Z</time>
      </trkpt>
      <trkpt lat="42.2682800" lon="-8.3530640">
        <ele>369.8</ele>
        <time>2022-08-27T17:36:47Z</time>
      </trkpt>
      <trkpt lat="42.2684020" lon="-8.3530290">
        <ele>368.9</ele>
        <time>2022-08-27T17:36:48Z</time>
      </trkpt>
      <trkpt lat="42.2685360" lon="-8.3529700">
        <ele>367.9</ele>
        <time>2022-08-27T17:36:49Z</time>
      </trkpt>
      <trkpt lat="42.2686600" lon="-8.3529250">
        <ele>366.9</ele>
        <time>2022-08-27T17:36:50Z</time>
      </trkpt>
      <trkpt lat="42.2687810" lon="-8.3528790">
        <ele>366.0</ele>
        <time>2022-08-27T17:36:51Z</time>
      </trkpt>
      <trkpt lat="42.2689100" lon="-8.3528230">
        <ele>365.0</ele>
        <time>2022-08-27T17:36:52Z</time>
      </trkpt>
      <trkpt lat="42.2690300" lon="-8.3527610">
        <ele>364.1</ele>
        <time>2022-08-27T17:36:53Z</time>
      </trkpt>
      <trkpt lat="42.2691460" lon="-8.3527000">
        <ele>363.1</ele>
        <time>2022-08-27T17:36:54Z</time>
      </trkpt>
      <trkpt lat="42.2692660" lon="-8.3526420">
        <ele>362.1</ele>
        <time>2022-08-27T17:36:55Z</time>
      </trkpt>
      <trkpt lat="42.2693830" lon="-8.3525920">
        <ele>361.2</ele>
        <time>2022-08-27T17:36:56Z</time>
      </trkpt>
      <trkpt lat="42.2694980" lon="-8.3525370">
        <ele>360.3</ele>
        <time>2022-08-27T17:36:57Z</time>
      </trkpt>
      <trkpt lat="42.2696230" lon="-8.3524880">
        <ele>359.3</ele>
        <time>2022-08-27T17:36:58Z</time>
      </trkpt>
      <trkpt lat="42.2697460" lon="-8.3524390">
        <ele>358.4</ele>
        <time>2022-08-27T17:36:59Z</time>
      </trkpt>
      <trkpt lat="42.2698710" lon="-8.3524130">
        <ele>357.5</ele>
        <time>2022-08-27T17:37:00Z</time>
      </trkpt>
      <trkpt lat="42.2699910" lon="-8.3523990">
        <ele>356.6</ele>
        <time>2022-08-27T17:37:01Z</time>
      </trkpt>
      <trkpt lat="42.2700920" lon="-8.3523880">
        <ele>355.8</ele>
        <time>2022-08-27T17:37:02Z</time>
      </trkpt>
      <trkpt lat="42.2701820" lon="-8.3523610">
        <ele>355.0</ele>
        <time>2022-08-27T17:37:03Z</time>
      </trkpt>
      <trkpt lat="42.2702800" lon="-8.3523300">
        <ele>354.2</ele>
        <time>2022-08-27T17:37:04Z</time>
      </trkpt>
      <trkpt lat="42.2703860" lon="-8.3522910">
        <ele>353.3</ele>
        <time>2022-08-27T17:37:05Z</time>
      </trkpt>
      <trkpt lat="42.2704970" lon="-8.3522430">
        <ele>352.3</ele>
        <time>2022-08-27T17:37:06Z</time>
      </trkpt>
      <trkpt lat="42.2705870" lon="-8.3521630">
        <ele>351.4</ele>
        <time>2022-08-27T17:37:07Z</time>
      </trkpt>
      <trkpt lat="42.2706690" lon="-8.3521030">
        <ele>350.6</ele>
        <time>2022-08-27T17:37:08Z</time>
      </trkpt>
      <trkpt lat="42.2707490" lon="-8.3520550">
        <ele>349.9</ele>
        <time>2022-08-27T17:37:09Z</time>
      </trkpt>
      <trkpt lat="42.2708120" lon="-8.3520300">
        <ele>349.4</ele>
        <time>2022-08-27T17:37:10Z</time>
      </trkpt>
      <trkpt lat="42.2708760" lon="-8.3520040">
        <ele>349.1</ele>
        <time>2022-08-27T17:37:11Z</time>
      </trkpt>
      <trkpt lat="42.2709490" lon="-8.3519680">
        <ele>348.6</ele>
        <time>2022-08-27T17:37:12Z</time>
      </trkpt>
      <trkpt lat="42.2710080" lon="-8.3519350">
        <ele>348.3</ele>
        <time>2022-08-27T17:37:13Z</time>
      </trkpt>
      <trkpt lat="42.2710630" lon="-8.3518900">
        <ele>348.1</ele>
        <time>2022-08-27T17:37:14Z</time>
      </trkpt>
      <trkpt lat="42.2711090" lon="-8.3518580">
        <ele>347.9</ele>
        <time>2022-08-27T17:37:15Z</time>
      </trkpt>
      <trkpt lat="42.2711390" lon="-8.3518390">
        <ele>347.8</ele>
        <time>2022-08-27T17:37:16Z</time>
      </trkpt>
      <trkpt lat="42.2711780" lon="-8.3518280">
        <ele>347.7</ele>
        <time>2022-08-27T17:37:17Z</time>
      </trkpt>
      <trkpt lat="42.2712190" lon="-8.3518300">
        <ele>347.5</ele>
        <time>2022-08-27T17:37:18Z</time>
      </trkpt>
      <trkpt lat="42.2712620" lon="-8.3518440">
        <ele>347.4</ele>
        <time>2022-08-27T17:37:19Z</time>
      </trkpt>
      <trkpt lat="42.2713230" lon="-8.3518400">
        <ele>347.3</ele>
        <time>2022-08-27T17:37:20Z</time>
      </trkpt>
      <trkpt lat="42.2713800" lon="-8.3518340">
        <ele>347.2</ele>
        <time>2022-08-27T17:37:21Z</time>
      </trkpt>
      <trkpt lat="42.2714340" lon="-8.3518230">
        <ele>347.1</ele>
        <time>2022-08-27T17:37:22Z</time>
      </trkpt>
      <trkpt lat="42.2714810" lon="-8.3517900">
        <ele>347.1</ele>
        <time>2022-08-27T17:37:23Z</time>
      </trkpt>
      <trkpt lat="42.2715350" lon="-8.3517380">
        <ele>347.0</ele>
        <time>2022-08-27T17:37:24Z</time>
      </trkpt>
      <trkpt lat="42.2715900" lon="-8.3516910">
        <ele>346.9</ele>
        <time>2022-08-27T17:37:25Z</time>
      </trkpt>
      <trkpt lat="42.2716350" lon="-8.3516520">
        <ele>346.8</ele>
        <time>2022-08-27T17:37:26Z</time>
      </trkpt>
      <trkpt lat="42.2716760" lon="-8.3516110">
        <ele>346.7</ele>
        <time>2022-08-27T17:37:27Z</time>
      </trkpt>
      <trkpt lat="42.2717200" lon="-8.3515720">
        <ele>346.7</ele>
        <time>2022-08-27T17:37:28Z</time>
      </trkpt>
      <trkpt lat="42.2717720" lon="-8.3515290">
        <ele>346.6</ele>
        <time>2022-08-27T17:37:29Z</time>
      </trkpt>
      <trkpt lat="42.2718130" lon="-8.3515040">
        <ele>346.6</ele>
        <time>2022-08-27T17:37:30Z</time>
      </trkpt>
      <trkpt lat="42.2718590" lon="-8.3515040">
        <ele>346.5</ele>
        <time>2022-08-27T17:37:31Z</time>
      </trkpt>
      <trkpt lat="42.2719040" lon="-8.3515080">
        <ele>346.4</ele>
        <time>2022-08-27T17:37:32Z</time>
      </trkpt>
      <trkpt lat="42.2719350" lon="-8.3515120">
        <ele>346.4</ele>
        <time>2022-08-27T17:37:33Z</time>
      </trkpt>
      <trkpt lat="42.2719760" lon="-8.3515120">
        <ele>346.3</ele>
        <time>2022-08-27T17:37:34Z</time>
      </trkpt>
      <trkpt lat="42.2720300" lon="-8.3515170">
        <ele>346.2</ele>
        <time>2022-08-27T17:37:35Z</time>
      </trkpt>
      <trkpt lat="42.2720750" lon="-8.3515330">
        <ele>346.1</ele>
        <time>2022-08-27T17:37:36Z</time>
      </trkpt>
      <trkpt lat="42.2721280" lon="-8.3515480">
        <ele>346.0</ele>
        <time>2022-08-27T17:37:37Z</time>
      </trkpt>
      <trkpt lat="42.2721710" lon="-8.3515470">
        <ele>345.9</ele>
        <time>2022-08-27T17:37:38Z</time>
      </trkpt>
      <trkpt lat="42.2722650" lon="-8.3515530">
        <ele>345.8</ele>
        <time>2022-08-27T17:37:39Z</time>
      </trkpt>
      <trkpt lat="42.2723130" lon="-8.3515760">
        <ele>345.8</ele>
        <time>2022-08-27T17:37:40Z</time>
      </trkpt>
      <trkpt lat="42.2723550" lon="-8.3515980">
        <ele>345.8</ele>
        <time>2022-08-27T17:37:41Z</time>
      </trkpt>
      <trkpt lat="42.2724040" lon="-8.3516560">
        <ele>345.8</ele>
        <time>2022-08-27T17:37:42Z</time>
      </trkpt>
      <trkpt lat="42.2724470" lon="-8.3517300">
        <ele>345.8</ele>
        <time>2022-08-27T17:37:43Z</time>
      </trkpt>
      <trkpt lat="42.2724740" lon="-8.3518150">
        <ele>345.8</ele>
        <time>2022-08-27T17:37:44Z</time>
      </trkpt>
      <trkpt lat="42.2724980" lon="-8.3518860">
        <ele>345.8</ele>
        <time>2022-08-27T17:37:45Z</time>
      </trkpt>
      <trkpt lat="42.2725020" lon="-8.3519280">
        <ele>345.8</ele>
        <time>2022-08-27T17:37:46Z</time>
      </trkpt>
      <trkpt lat="42.2725040" lon="-8.3519660">
        <ele>345.8</ele>
        <time>2022-08-27T17:37:47Z</time>
      </trkpt>
      <trkpt lat="42.2725110" lon="-8.3520080">
        <ele>345.6</ele>
        <time>2022-08-27T17:37:48Z</time>
      </trkpt>
      <trkpt lat="42.2725160" lon="-8.3520450">
        <ele>345.7</ele>
        <time>2022-08-27T17:37:49Z</time>
      </trkpt>
      <trkpt lat="42.2725100" lon="-8.3520920">
        <ele>345.9</ele>
        <time>2022-08-27T17:37:50Z</time>
      </trkpt>
      <trkpt lat="42.2725090" lon="-8.3521100">
        <ele>345.9</ele>
        <time>2022-08-27T17:37:51Z</time>
      </trkpt>
      <trkpt lat="42.2724990" lon="-8.3521530">
        <ele>346.1</ele>
        <time>2022-08-27T17:37:52Z</time>
      </trkpt>
      <trkpt lat="42.2724940" lon="-8.3521660">
        <ele>346.1</ele>
        <time>2022-08-27T17:37:53Z</time>
      </trkpt>
      <trkpt lat="42.2724700" lon="-8.3522050">
        <ele>346.2</ele>
        <time>2022-08-27T17:37:54Z</time>
      </trkpt>
      <trkpt lat="42.2724630" lon="-8.3522190">
        <ele>346.3</ele>
        <time>2022-08-27T17:37:55Z</time>
      </trkpt>
      <trkpt lat="42.2724430" lon="-8.3522710">
        <ele>346.5</ele>
        <time>2022-08-27T17:37:56Z</time>
      </trkpt>
      <trkpt lat="42.2724350" lon="-8.3522910">
        <ele>346.5</ele>
        <time>2022-08-27T17:37:57Z</time>
      </trkpt>
      <trkpt lat="42.2724090" lon="-8.3523270">
        <ele>346.7</ele>
        <time>2022-08-27T17:37:58Z</time>
      </trkpt>
      <trkpt lat="42.2723980" lon="-8.3523380">
        <ele>346.7</ele>
        <time>2022-08-27T17:37:59Z</time>
      </trkpt>
      <trkpt lat="42.2723660" lon="-8.3523570">
        <ele>346.9</ele>
        <time>2022-08-27T17:38:00Z</time>
      </trkpt>
      <trkpt lat="42.2723550" lon="-8.3523650">
        <ele>346.9</ele>
        <time>2022-08-27T17:38:01Z</time>
      </trkpt>
      <trkpt lat="42.2723310" lon="-8.3523930">
        <ele>347.0</ele>
        <time>2022-08-27T17:38:02Z</time>
      </trkpt>
      <trkpt lat="42.2723230" lon="-8.3524050">
        <ele>347.1</ele>
        <time>2022-08-27T17:38:03Z</time>
      </trkpt>
      <trkpt lat="42.2723070" lon="-8.3524380">
        <ele>347.2</ele>
        <time>2022-08-27T17:38:04Z</time>
      </trkpt>
      <trkpt lat="42.2722820" lon="-8.3524690">
        <ele>347.4</ele>
        <time>2022-08-27T17:38:05Z</time>
      </trkpt>
      <trkpt lat="42.2722720" lon="-8.3524800">
        <ele>347.4</ele>
        <time>2022-08-27T17:38:06Z</time>
      </trkpt>
      <trkpt lat="42.2722440" lon="-8.3525120">
        <ele>347.6</ele>
        <time>2022-08-27T17:38:07Z</time>
      </trkpt>
      <trkpt lat="42.2722370" lon="-8.3525250">
        <ele>347.6</ele>
        <time>2022-08-27T17:38:08Z</time>
      </trkpt>
      <trkpt lat="42.2722170" lon="-8.3525580">
        <ele>347.8</ele>
        <time>2022-08-27T17:38:09Z</time>
      </trkpt>
      <trkpt lat="42.2722080" lon="-8.3525710">
        <ele>347.9</ele>
        <time>2022-08-27T17:38:10Z</time>
      </trkpt>
      <trkpt lat="42.2721870" lon="-8.3526050">
        <ele>348.0</ele>
        <time>2022-08-27T17:38:11Z</time>
      </trkpt>
      <trkpt lat="42.2721800" lon="-8.3526180">
        <ele>348.1</ele>
        <time>2022-08-27T17:38:12Z</time>
      </trkpt>
      <trkpt lat="42.2721660" lon="-8.3526620">
        <ele>348.2</ele>
        <time>2022-08-27T17:38:13Z</time>
      </trkpt>
      <trkpt lat="42.2721600" lon="-8.3526780">
        <ele>348.3</ele>
        <time>2022-08-27T17:38:14Z</time>
      </trkpt>
      <trkpt lat="42.2721480" lon="-8.3527220">
        <ele>348.5</ele>
        <time>2022-08-27T17:38:15Z</time>
      </trkpt>
      <trkpt lat="42.2721450" lon="-8.3527360">
        <ele>348.5</ele>
        <time>2022-08-27T17:38:16Z</time>
      </trkpt>
      <trkpt lat="42.2721440" lon="-8.3527720">
        <ele>348.7</ele>
        <time>2022-08-27T17:38:17Z</time>
      </trkpt>
      <trkpt lat="42.2721430" lon="-8.3527870">
        <ele>348.7</ele>
        <time>2022-08-27T17:38:18Z</time>
      </trkpt>
      <trkpt lat="42.2721350" lon="-8.3528310">
        <ele>348.9</ele>
        <time>2022-08-27T17:38:19Z</time>
      </trkpt>
      <trkpt lat="42.2721320" lon="-8.3528450">
        <ele>349.0</ele>
        <time>2022-08-27T17:38:20Z</time>
      </trkpt>
      <trkpt lat="42.2721240" lon="-8.3528820">
        <ele>349.1</ele>
        <time>2022-08-27T17:38:21Z</time>
      </trkpt>
      <trkpt lat="42.2721210" lon="-8.3528950">
        <ele>349.2</ele>
        <time>2022-08-27T17:38:22Z</time>
      </trkpt>
      <trkpt lat="42.2721090" lon="-8.3529270">
        <ele>349.4</ele>
        <time>2022-08-27T17:38:23Z</time>
      </trkpt>
      <trkpt lat="42.2721040" lon="-8.3529390">
        <ele>349.4</ele>
        <time>2022-08-27T17:38:24Z</time>
      </trkpt>
      <trkpt lat="42.2720960" lon="-8.3529570">
        <ele>349.5</ele>
        <time>2022-08-27T17:38:25Z</time>
      </trkpt>
      <trkpt lat="42.2720900" lon="-8.3529730">
        <ele>349.6</ele>
        <time>2022-08-27T17:38:26Z</time>
      </trkpt>
      <trkpt lat="42.2720780" lon="-8.3530140">
        <ele>349.8</ele>
        <time>2022-08-27T17:38:27Z</time>
      </trkpt>
      <trkpt lat="42.2720740" lon="-8.3530270">
        <ele>349.9</ele>
        <time>2022-08-27T17:38:28Z</time>
      </trkpt>
      <trkpt lat="42.2720550" lon="-8.3530590">
        <ele>350.0</ele>
        <time>2022-08-27T17:38:29Z</time>
      </trkpt>
      <trkpt lat="42.2720480" lon="-8.3530690">
        <ele>350.1</ele>
        <time>2022-08-27T17:38:30Z</time>
      </trkpt>
      <trkpt lat="42.2720270" lon="-8.3530990">
        <ele>350.3</ele>
        <time>2022-08-27T17:38:31Z</time>
      </trkpt>
      <trkpt lat="42.2720200" lon="-8.3531100">
        <ele>350.4</ele>
        <time>2022-08-27T17:38:32Z</time>
      </trkpt>
      <trkpt lat="42.2720000" lon="-8.3531380">
        <ele>350.6</ele>
        <time>2022-08-27T17:38:33Z</time>
      </trkpt>
      <trkpt lat="42.2719940" lon="-8.3531480">
        <ele>350.6</ele>
        <time>2022-08-27T17:38:34Z</time>
      </trkpt>
      <trkpt lat="42.2719830" lon="-8.3531670">
        <ele>350.8</ele>
        <time>2022-08-27T17:38:35Z</time>
      </trkpt>
      <trkpt lat="42.2719730" lon="-8.3531860">
        <ele>350.9</ele>
        <time>2022-08-27T17:38:36Z</time>
      </trkpt>
      <trkpt lat="42.2719580" lon="-8.3532180">
        <ele>351.1</ele>
        <time>2022-08-27T17:38:37Z</time>
      </trkpt>
      <trkpt lat="42.2719520" lon="-8.3532290">
        <ele>351.2</ele>
        <time>2022-08-27T17:38:38Z</time>
      </trkpt>
      <trkpt lat="42.2719440" lon="-8.3532500">
        <ele>351.3</ele>
        <time>2022-08-27T17:38:39Z</time>
      </trkpt>
      <trkpt lat="42.2719380" lon="-8.3532700">
        <ele>351.4</ele>
        <time>2022-08-27T17:38:40Z</time>
      </trkpt>
      <trkpt lat="42.2719190" lon="-8.3533080">
        <ele>351.6</ele>
        <time>2022-08-27T17:38:41Z</time>
      </trkpt>
      <trkpt lat="42.2719010" lon="-8.3533380">
        <ele>351.9</ele>
        <time>2022-08-27T17:38:42Z</time>
      </trkpt>
      <trkpt lat="42.2718960" lon="-8.3533460">
        <ele>351.9</ele>
        <time>2022-08-27T17:38:43Z</time>
      </trkpt>
      <trkpt lat="42.2718790" lon="-8.3533790">
        <ele>352.1</ele>
        <time>2022-08-27T17:38:44Z</time>
      </trkpt>
      <trkpt lat="42.2718730" lon="-8.3533930">
        <ele>352.2</ele>
        <time>2022-08-27T17:38:45Z</time>
      </trkpt>
      <trkpt lat="42.2718510" lon="-8.3534290">
        <ele>352.5</ele>
        <time>2022-08-27T17:38:46Z</time>
      </trkpt>
      <trkpt lat="42.2718460" lon="-8.3534470">
        <ele>352.6</ele>
        <time>2022-08-27T17:38:47Z</time>
      </trkpt>
      <trkpt lat="42.2718400" lon="-8.3534670">
        <ele>352.7</ele>
        <time>2022-08-27T17:38:48Z</time>
      </trkpt>
      <trkpt lat="42.2718320" lon="-8.3535050">
        <ele>352.9</ele>
        <time>2022-08-27T17:38:49Z</time>
      </trkpt>
      <trkpt lat="42.2718300" lon="-8.3535170">
        <ele>352.9</ele>
        <time>2022-08-27T17:38:50Z</time>
      </trkpt>
      <trkpt lat="42.2718140" lon="-8.3535610">
        <ele>353.2</ele>
        <time>2022-08-27T17:38:51Z</time>
      </trkpt>
      <trkpt lat="42.2718090" lon="-8.3535710">
        <ele>353.3</ele>
        <time>2022-08-27T17:38:52Z</time>
      </trkpt>
      <trkpt lat="42.2717900" lon="-8.3536090">
        <ele>353.5</ele>
        <time>2022-08-27T17:38:53Z</time>
      </trkpt>
      <trkpt lat="42.2717830" lon="-8.3536220">
        <ele>353.6</ele>
        <time>2022-08-27T17:38:54Z</time>
      </trkpt>
      <trkpt lat="42.2717520" lon="-8.3536670">
        <ele>353.9</ele>
        <time>2022-08-27T17:38:55Z</time>
      </trkpt>
      <trkpt lat="42.2717400" lon="-8.3536860">
        <ele>354.1</ele>
        <time>2022-08-27T17:38:56Z</time>
      </trkpt>
      <trkpt lat="42.2717180" lon="-8.3537210">
        <ele>354.3</ele>
        <time>2022-08-27T17:38:57Z</time>
      </trkpt>
      <trkpt lat="42.2717100" lon="-8.3537360">
        <ele>354.5</ele>
        <time>2022-08-27T17:38:58Z</time>
      </trkpt>
      <trkpt lat="42.2716930" lon="-8.3537650">
        <ele>354.7</ele>
        <time>2022-08-27T17:38:59Z</time>
      </trkpt>
      <trkpt lat="42.2716870" lon="-8.3537770">
        <ele>354.8</ele>
        <time>2022-08-27T17:39:00Z</time>
      </trkpt>
      <trkpt lat="42.2716750" lon="-8.3538020">
        <ele>354.9</ele>
        <time>2022-08-27T17:39:01Z</time>
      </trkpt>
      <trkpt lat="42.2716690" lon="-8.3538060">
        <ele>355.0</ele>
        <time>2022-08-27T17:39:02Z</time>
      </trkpt>
      <trkpt lat="42.2716440" lon="-8.3538330">
        <ele>355.2</ele>
        <time>2022-08-27T17:39:03Z</time>
      </trkpt>
      <trkpt lat="42.2716350" lon="-8.3538420">
        <ele>355.3</ele>
        <time>2022-08-27T17:39:04Z</time>
      </trkpt>
      <trkpt lat="42.2716080" lon="-8.3538680">
        <ele>355.6</ele>
        <time>2022-08-27T17:39:05Z</time>
      </trkpt>
      <trkpt lat="42.2716000" lon="-8.3538770">
        <ele>355.7</ele>
        <time>2022-08-27T17:39:06Z</time>
      </trkpt>
      <trkpt lat="42.2715810" lon="-8.3538930">
        <ele>355.9</ele>
        <time>2022-08-27T17:39:07Z</time>
      </trkpt>
      <trkpt lat="42.2715720" lon="-8.3539000">
        <ele>356.0</ele>
        <time>2022-08-27T17:39:08Z</time>
      </trkpt>
      <trkpt lat="42.2715640" lon="-8.3539060">
        <ele>356.0</ele>
        <time>2022-08-27T17:39:09Z</time>
      </trkpt>
      <trkpt lat="42.2715480" lon="-8.3539160">
        <ele>356.2</ele>
        <time>2022-08-27T17:39:10Z</time>
      </trkpt>
      <trkpt lat="42.2715320" lon="-8.3539230">
        <ele>356.3</ele>
        <time>2022-08-27T17:39:11Z</time>
      </trkpt>
      <trkpt lat="42.2715070" lon="-8.3539300">
        <ele>356.7</ele>
        <time>2022-08-27T17:39:12Z</time>
      </trkpt>
      <trkpt lat="42.2714970" lon="-8.3539320">
        <ele>356.7</ele>
        <time>2022-08-27T17:39:13Z</time>
      </trkpt>
      <trkpt lat="42.2714830" lon="-8.3539330">
        <ele>356.7</ele>
        <time>2022-08-27T17:39:14Z</time>
      </trkpt>
      <trkpt lat="42.2714680" lon="-8.3539320">
        <ele>356.7</ele>
        <time>2022-08-27T17:39:15Z</time>
      </trkpt>
      <trkpt lat="42.2714370" lon="-8.3539250">
        <ele>356.8</ele>
        <time>2022-08-27T17:39:16Z</time>
      </trkpt>
      <trkpt lat="42.2714270" lon="-8.3539220">
        <ele>356.8</ele>
        <time>2022-08-27T17:39:17Z</time>
      </trkpt>
      <trkpt lat="42.2713950" lon="-8.3539080">
        <ele>356.8</ele>
        <time>2022-08-27T17:39:18Z</time>
      </trkpt>
      <trkpt lat="42.2713840" lon="-8.3539030">
        <ele>356.8</ele>
        <time>2022-08-27T17:39:19Z</time>
      </trkpt>
      <trkpt lat="42.2713660" lon="-8.3538920">
        <ele>356.8</ele>
        <time>2022-08-27T17:39:20Z</time>
      </trkpt>
      <trkpt lat="42.2713550" lon="-8.3538870">
        <ele>356.9</ele>
        <time>2022-08-27T17:39:21Z</time>
      </trkpt>
      <trkpt lat="42.2713350" lon="-8.3538770">
        <ele>356.9</ele>
        <time>2022-08-27T17:39:22Z</time>
      </trkpt>
      <trkpt lat="42.2713260" lon="-8.3538710">
        <ele>356.8</ele>
        <time>2022-08-27T17:39:23Z</time>
      </trkpt>
      <trkpt lat="42.2713180" lon="-8.3538640">
        <ele>356.8</ele>
        <time>2022-08-27T17:39:24Z</time>
      </trkpt>
      <trkpt lat="42.2713050" lon="-8.3538510">
        <ele>356.8</ele>
        <time>2022-08-27T17:39:25Z</time>
      </trkpt>
      <trkpt lat="42.2712940" lon="-8.3538420">
        <ele>356.8</ele>
        <time>2022-08-27T17:39:26Z</time>
      </trkpt>
      <trkpt lat="42.2712710" lon="-8.3538180">
        <ele>356.7</ele>
        <time>2022-08-27T17:39:27Z</time>
      </trkpt>
      <trkpt lat="42.2712630" lon="-8.3538100">
        <ele>356.7</ele>
        <time>2022-08-27T17:39:28Z</time>
      </trkpt>
      <trkpt lat="42.2712400" lon="-8.3537870">
        <ele>356.7</ele>
        <time>2022-08-27T17:39:29Z</time>
      </trkpt>
      <trkpt lat="42.2712100" lon="-8.3537660">
        <ele>356.6</ele>
        <time>2022-08-27T17:39:30Z</time>
      </trkpt>
      <trkpt lat="42.2711660" lon="-8.3537520">
        <ele>356.7</ele>
        <time>2022-08-27T17:39:31Z</time>
      </trkpt>
      <trkpt lat="42.2711150" lon="-8.3537500">
        <ele>356.8</ele>
        <time>2022-08-27T17:39:32Z</time>
      </trkpt>
      <trkpt lat="42.2710820" lon="-8.3537530">
        <ele>356.9</ele>
        <time>2022-08-27T17:39:33Z</time>
      </trkpt>
      <trkpt lat="42.2710420" lon="-8.3537560">
        <ele>357.0</ele>
        <time>2022-08-27T17:39:34Z</time>
      </trkpt>
      <trkpt lat="42.2710020" lon="-8.3537710">
        <ele>357.2</ele>
        <time>2022-08-27T17:39:35Z</time>
      </trkpt>
      <trkpt lat="42.2709880" lon="-8.3537730">
        <ele>357.3</ele>
        <time>2022-08-27T17:39:36Z</time>
      </trkpt>
      <trkpt lat="42.2709680" lon="-8.3537810">
        <ele>357.4</ele>
        <time>2022-08-27T17:39:37Z</time>
      </trkpt>
      <trkpt lat="42.2709610" lon="-8.3537970">
        <ele>357.4</ele>
        <time>2022-08-27T17:39:38Z</time>
      </trkpt>
      <trkpt lat="42.2709560" lon="-8.3538060">
        <ele>357.5</ele>
        <time>2022-08-27T17:39:39Z</time>
      </trkpt>
      <trkpt lat="42.2709440" lon="-8.3538100">
        <ele>357.5</ele>
        <time>2022-08-27T17:39:40Z</time>
      </trkpt>
      <trkpt lat="42.2709320" lon="-8.3538140">
        <ele>357.6</ele>
        <time>2022-08-27T17:39:41Z</time>
      </trkpt>
      <trkpt lat="42.2709150" lon="-8.3538250">
        <ele>357.7</ele>
        <time>2022-08-27T17:39:42Z</time>
      </trkpt>
      <trkpt lat="42.2708940" lon="-8.3538230">
        <ele>357.8</ele>
        <time>2022-08-27T17:39:44Z</time>
      </trkpt>
      <trkpt lat="42.2708870" lon="-8.3538250">
        <ele>357.8</ele>
        <time>2022-08-27T17:39:45Z</time>
      </trkpt>
      <trkpt lat="42.2708830" lon="-8.3538250">
        <ele>357.9</ele>
        <time>2022-08-27T17:39:46Z</time>
      </trkpt>
      <trkpt lat="42.2708830" lon="-8.3538260">
        <ele>357.9</ele>
        <time>2022-08-27T17:39:47Z</time>
      </trkpt>
      <trkpt lat="42.2708840" lon="-8.3538270">
        <ele>357.9</ele>
        <time>2022-08-27T17:39:48Z</time>
      </trkpt>
      <trkpt lat="42.2708850" lon="-8.3538280">
        <ele>357.9</ele>
        <time>2022-08-27T17:39:49Z</time>
      </trkpt>
      <trkpt lat="42.2708860" lon="-8.3538280">
        <ele>357.9</ele>
        <time>2022-08-27T17:39:50Z</time>
      </trkpt>
      <trkpt lat="42.2708860" lon="-8.3538290">
        <ele>357.9</ele>
        <time>2022-08-27T17:39:51Z</time>
      </trkpt>
      <trkpt lat="42.2708850" lon="-8.3538300">
        <ele>357.9</ele>
        <time>2022-08-27T17:39:52Z</time>
      </trkpt>
      <trkpt lat="42.2708830" lon="-8.3538300">
        <ele>357.9</ele>
        <time>2022-08-27T17:39:53Z</time>
      </trkpt>
      <trkpt lat="42.2708820" lon="-8.3538290">
        <ele>357.9</ele>
        <time>2022-08-27T17:39:54Z</time>
      </trkpt>
      <trkpt lat="42.2708790" lon="-8.3538280">
        <ele>357.9</ele>
        <time>2022-08-27T17:39:55Z</time>
      </trkpt>
      <trkpt lat="42.2701420" lon="-8.3537210">
        <ele>348.0</ele>
        <time>2022-08-28T08:08:45Z</time>
      </trkpt>
      <trkpt lat="42.2701420" lon="-8.3537210">
        <ele>348.0</ele>
        <time>2022-08-28T08:08:46Z</time>
      </trkpt>
      <trkpt lat="42.2700920" lon="-8.3536900">
        <ele>347.2</ele>
        <time>2022-08-28T08:09:32Z</time>
      </trkpt>
      <trkpt lat="42.2701420" lon="-8.3536340">
        <ele>347.2</ele>
        <time>2022-08-28T08:09:34Z</time>
      </trkpt>
      <trkpt lat="42.2703020" lon="-8.3534480">
        <ele>346.8</ele>
        <time>2022-08-28T08:09:38Z</time>
      </trkpt>
      <trkpt lat="42.2703850" lon="-8.3533720">
        <ele>346.8</ele>
        <time>2022-08-28T08:09:40Z</time>
      </trkpt>
      <trkpt lat="42.2704610" lon="-8.3533300">
        <ele>346.2</ele>
        <time>2022-08-28T08:09:42Z</time>
      </trkpt>
      <trkpt lat="42.2705920" lon="-8.3532780">
        <ele>345.2</ele>
        <time>2022-08-28T08:09:45Z</time>
      </trkpt>
      <trkpt lat="42.2706770" lon="-8.3532520">
        <ele>344.0</ele>
        <time>2022-08-28T08:09:47Z</time>
      </trkpt>
      <trkpt lat="42.2707200" lon="-8.3532420">
        <ele>343.4</ele>
        <time>2022-08-28T08:09:48Z</time>
      </trkpt>
      <trkpt lat="42.2707610" lon="-8.3532310">
        <ele>343.0</ele>
        <time>2022-08-28T08:09:49Z</time>
      </trkpt>
      <trkpt lat="42.2708860" lon="-8.3531920">
        <ele>341.6</ele>
        <time>2022-08-28T08:09:52Z</time>
      </trkpt>
      <trkpt lat="42.2709650" lon="-8.3531710">
        <ele>340.8</ele>
        <time>2022-08-28T08:09:54Z</time>
      </trkpt>
      <trkpt lat="42.2709960" lon="-8.3531620">
        <ele>340.4</ele>
        <time>2022-08-28T08:09:55Z</time>
      </trkpt>
      <trkpt lat="42.2710250" lon="-8.3531580">
        <ele>340.0</ele>
        <time>2022-08-28T08:09:57Z</time>
      </trkpt>
      <trkpt lat="42.2710340" lon="-8.3531560">
        <ele>340.0</ele>
        <time>2022-08-28T08:09:59Z</time>
      </trkpt>
      <trkpt lat="42.2711950" lon="-8.3531500">
        <ele>339.2</ele>
        <time>2022-08-28T08:13:30Z</time>
      </trkpt>
      <trkpt lat="42.2712500" lon="-8.3531240">
        <ele>339.2</ele>
        <time>2022-08-28T08:13:33Z</time>
      </trkpt>
      <trkpt lat="42.2713780" lon="-8.3530870">
        <ele>339.6</ele>
        <time>2022-08-28T08:13:40Z</time>
      </trkpt>
      <trkpt lat="42.2715220" lon="-8.3530220">
        <ele>340.0</ele>
        <time>2022-08-28T08:13:47Z</time>
      </trkpt>
      <trkpt lat="42.2715650" lon="-8.3529990">
        <ele>340.2</ele>
        <time>2022-08-28T08:13:49Z</time>
      </trkpt>
      <trkpt lat="42.2716770" lon="-8.3528910">
        <ele>340.6</ele>
        <time>2022-08-28T08:13:55Z</time>
      </trkpt>
      <trkpt lat="42.2717600" lon="-8.3527710">
        <ele>341.0</ele>
        <time>2022-08-28T08:14:00Z</time>
      </trkpt>
      <trkpt lat="42.2718060" lon="-8.3526960">
        <ele>341.2</ele>
        <time>2022-08-28T08:14:03Z</time>
      </trkpt>
      <trkpt lat="42.2719260" lon="-8.3525090">
        <ele>341.2</ele>
        <time>2022-08-28T08:14:10Z</time>
      </trkpt>
      <trkpt lat="42.2720280" lon="-8.3523270">
        <ele>341.2</ele>
        <time>2022-08-28T08:14:16Z</time>
      </trkpt>
      <trkpt lat="42.2721210" lon="-8.3522230">
        <ele>340.8</ele>
        <time>2022-08-28T08:14:21Z</time>
      </trkpt>
      <trkpt lat="42.2721500" lon="-8.3521890">
        <ele>340.8</ele>
        <time>2022-08-28T08:14:24Z</time>
      </trkpt>
      <trkpt lat="42.2721710" lon="-8.3521750">
        <ele>340.8</ele>
        <time>2022-08-28T08:14:26Z</time>
      </trkpt>
      <trkpt lat="42.2722300" lon="-8.3521740">
        <ele>341.2</ele>
        <time>2022-08-28T08:14:30Z</time>
      </trkpt>
      <trkpt lat="42.2722450" lon="-8.3521780">
        <ele>341.4</ele>
        <time>2022-08-28T08:14:31Z</time>
      </trkpt>
      <trkpt lat="42.2722600" lon="-8.3521870">
        <ele>341.6</ele>
        <time>2022-08-28T08:14:32Z</time>
      </trkpt>
      <trkpt lat="42.2722700" lon="-8.3521970">
        <ele>341.8</ele>
        <time>2022-08-28T08:14:33Z</time>
      </trkpt>
      <trkpt lat="42.2722920" lon="-8.3522120">
        <ele>342.2</ele>
        <time>2022-08-28T08:14:35Z</time>
      </trkpt>
      <trkpt lat="42.2723010" lon="-8.3522230">
        <ele>342.4</ele>
        <time>2022-08-28T08:14:36Z</time>
      </trkpt>
      <trkpt lat="42.2723180" lon="-8.3522490">
        <ele>342.8</ele>
        <time>2022-08-28T08:14:38Z</time>
      </trkpt>
      <trkpt lat="42.2723260" lon="-8.3522770">
        <ele>343.6</ele>
        <time>2022-08-28T08:14:40Z</time>
      </trkpt>
      <trkpt lat="42.2723270" lon="-8.3523360">
        <ele>344.0</ele>
        <time>2022-08-28T08:14:43Z</time>
      </trkpt>
      <trkpt lat="42.2723200" lon="-8.3523500">
        <ele>344.0</ele>
        <time>2022-08-28T08:14:44Z</time>
      </trkpt>
      <trkpt lat="42.2723080" lon="-8.3524020">
        <ele>344.4</ele>
        <time>2022-08-28T08:14:47Z</time>
      </trkpt>
      <trkpt lat="42.2722830" lon="-8.3524340">
        <ele>344.6</ele>
        <time>2022-08-28T08:14:49Z</time>
      </trkpt>
      <trkpt lat="42.2722060" lon="-8.3525530">
        <ele>345.2</ele>
        <time>2022-08-28T08:14:56Z</time>
      </trkpt>
      <trkpt lat="42.2721820" lon="-8.3525880">
        <ele>345.8</ele>
        <time>2022-08-28T08:14:58Z</time>
      </trkpt>
      <trkpt lat="42.2721130" lon="-8.3527760">
        <ele>346.6</ele>
        <time>2022-08-28T08:15:06Z</time>
      </trkpt>
      <trkpt lat="42.2720790" lon="-8.3529390">
        <ele>347.4</ele>
        <time>2022-08-28T08:15:13Z</time>
      </trkpt>
      <trkpt lat="42.2720690" lon="-8.3529840">
        <ele>347.8</ele>
        <time>2022-08-28T08:15:15Z</time>
      </trkpt>
      <trkpt lat="42.2720220" lon="-8.3531380">
        <ele>348.4</ele>
        <time>2022-08-28T08:15:22Z</time>
      </trkpt>
      <trkpt lat="42.2719880" lon="-8.3531990">
        <ele>349.2</ele>
        <time>2022-08-28T08:15:25Z</time>
      </trkpt>
      <trkpt lat="42.2719370" lon="-8.3532770">
        <ele>349.6</ele>
        <time>2022-08-28T08:15:29Z</time>
      </trkpt>
      <trkpt lat="42.2718510" lon="-8.3534170">
        <ele>350.2</ele>
        <time>2022-08-28T08:15:36Z</time>
      </trkpt>
      <trkpt lat="42.2718400" lon="-8.3534380">
        <ele>350.4</ele>
        <time>2022-08-28T08:15:37Z</time>
      </trkpt>
      <trkpt lat="42.2717820" lon="-8.3535510">
        <ele>351.0</ele>
        <time>2022-08-28T08:15:42Z</time>
      </trkpt>
      <trkpt lat="42.2716890" lon="-8.3537150">
        <ele>351.6</ele>
        <time>2022-08-28T08:15:49Z</time>
      </trkpt>
      <trkpt lat="42.2716570" lon="-8.3537830">
        <ele>352.0</ele>
        <time>2022-08-28T08:15:52Z</time>
      </trkpt>
      <trkpt lat="42.2715960" lon="-8.3538850">
        <ele>353.0</ele>
        <time>2022-08-28T08:15:57Z</time>
      </trkpt>
      <trkpt lat="42.2715340" lon="-8.3539500">
        <ele>353.4</ele>
        <time>2022-08-28T08:16:01Z</time>
      </trkpt>
      <trkpt lat="42.2714300" lon="-8.3539940">
        <ele>354.0</ele>
        <time>2022-08-28T08:16:07Z</time>
      </trkpt>
      <trkpt lat="42.2712870" lon="-8.3539430">
        <ele>354.6</ele>
        <time>2022-08-28T08:16:14Z</time>
      </trkpt>
      <trkpt lat="42.2712470" lon="-8.3539290">
        <ele>355.0</ele>
        <time>2022-08-28T08:16:16Z</time>
      </trkpt>
      <trkpt lat="42.2711240" lon="-8.3539380">
        <ele>355.8</ele>
        <time>2022-08-28T08:16:22Z</time>
      </trkpt>
      <trkpt lat="42.2710500" lon="-8.3539670">
        <ele>356.4</ele>
        <time>2022-08-28T08:16:26Z</time>
      </trkpt>
      <trkpt lat="42.2709420" lon="-8.3540310">
        <ele>357.2</ele>
        <time>2022-08-28T08:16:32Z</time>
      </trkpt>
      <trkpt lat="42.2709250" lon="-8.3540420">
        <ele>357.4</ele>
        <time>2022-08-28T08:16:33Z</time>
      </trkpt>
      <trkpt lat="42.2707840" lon="-8.3541710">
        <ele>358.6</ele>
        <time>2022-08-28T08:16:42Z</time>
      </trkpt>
      <trkpt lat="42.2707700" lon="-8.3541890">
        <ele>358.8</ele>
        <time>2022-08-28T08:16:43Z</time>
      </trkpt>
      <trkpt lat="42.2706400" lon="-8.3543500">
        <ele>359.8</ele>
        <time>2022-08-28T08:16:52Z</time>
      </trkpt>
      <trkpt lat="42.2706240" lon="-8.3543650">
        <ele>360.2</ele>
        <time>2022-08-28T08:16:53Z</time>
      </trkpt>
      <trkpt lat="42.2705070" lon="-8.3544540">
        <ele>361.0</ele>
        <time>2022-08-28T08:17:00Z</time>
      </trkpt>
      <trkpt lat="42.2704200" lon="-8.3545190">
        <ele>361.2</ele>
        <time>2022-08-28T08:17:05Z</time>
      </trkpt>
      <trkpt lat="42.2702810" lon="-8.3546300">
        <ele>362.2</ele>
        <time>2022-08-28T08:17:13Z</time>
      </trkpt>
      <trkpt lat="42.2702650" lon="-8.3546460">
        <ele>362.2</ele>
        <time>2022-08-28T08:17:14Z</time>
      </trkpt>
      <trkpt lat="42.2701660" lon="-8.3547380">
        <ele>363.4</ele>
        <time>2022-08-28T08:17:20Z</time>
      </trkpt>
      <trkpt lat="42.2701340" lon="-8.3547700">
        <ele>363.6</ele>
        <time>2022-08-28T08:17:22Z</time>
      </trkpt>
      <trkpt lat="42.2700690" lon="-8.3548320">
        <ele>364.4</ele>
        <time>2022-08-28T08:17:26Z</time>
      </trkpt>
      <trkpt lat="42.2699670" lon="-8.3549230">
        <ele>365.0</ele>
        <time>2022-08-28T08:17:32Z</time>
      </trkpt>
      <trkpt lat="42.2698600" lon="-8.3550320">
        <ele>365.8</ele>
        <time>2022-08-28T08:17:39Z</time>
      </trkpt>
      <trkpt lat="42.2698160" lon="-8.3550780">
        <ele>366.2</ele>
        <time>2022-08-28T08:17:42Z</time>
      </trkpt>
      <trkpt lat="42.2697240" lon="-8.3551710">
        <ele>366.8</ele>
        <time>2022-08-28T08:17:48Z</time>
      </trkpt>
      <trkpt lat="42.2696770" lon="-8.3552180">
        <ele>367.2</ele>
        <time>2022-08-28T08:17:51Z</time>
      </trkpt>
      <trkpt lat="42.2696300" lon="-8.3552660">
        <ele>368.0</ele>
        <time>2022-08-28T08:17:54Z</time>
      </trkpt>
      <trkpt lat="42.2695250" lon="-8.3554250">
        <ele>369.0</ele>
        <time>2022-08-28T08:18:02Z</time>
      </trkpt>
      <trkpt lat="42.2695160" lon="-8.3554490">
        <ele>369.0</ele>
        <time>2022-08-28T08:18:03Z</time>
      </trkpt>
      <trkpt lat="42.2694580" lon="-8.3556200">
        <ele>370.4</ele>
        <time>2022-08-28T08:18:10Z</time>
      </trkpt>
      <trkpt lat="42.2694280" lon="-8.3557170">
        <ele>371.0</ele>
        <time>2022-08-28T08:18:14Z</time>
      </trkpt>
      <trkpt lat="42.2693970" lon="-8.3558130">
        <ele>371.4</ele>
        <time>2022-08-28T08:18:18Z</time>
      </trkpt>
      <trkpt lat="42.2693570" lon="-8.3559250">
        <ele>372.4</ele>
        <time>2022-08-28T08:18:23Z</time>
      </trkpt>
      <trkpt lat="42.2693400" lon="-8.3559680">
        <ele>372.8</ele>
        <time>2022-08-28T08:18:25Z</time>
      </trkpt>
      <trkpt lat="42.2692940" lon="-8.3560720">
        <ele>374.0</ele>
        <time>2022-08-28T08:18:30Z</time>
      </trkpt>
      <trkpt lat="42.2692690" lon="-8.3561170">
        <ele>374.2</ele>
        <time>2022-08-28T08:18:32Z</time>
      </trkpt>
      <trkpt lat="42.2692030" lon="-8.3562320">
        <ele>375.0</ele>
        <time>2022-08-28T08:18:37Z</time>
      </trkpt>
      <trkpt lat="42.2691890" lon="-8.3562550">
        <ele>375.2</ele>
        <time>2022-08-28T08:18:38Z</time>
      </trkpt>
      <trkpt lat="42.2691460" lon="-8.3563570">
        <ele>375.4</ele>
        <time>2022-08-28T08:18:42Z</time>
      </trkpt>
      <trkpt lat="42.2690930" lon="-8.3564960">
        <ele>376.2</ele>
        <time>2022-08-28T08:18:47Z</time>
      </trkpt>
      <trkpt lat="42.2689970" lon="-8.3567530">
        <ele>377.4</ele>
        <time>2022-08-28T08:18:56Z</time>
      </trkpt>
      <trkpt lat="42.2689700" lon="-8.3568190">
        <ele>377.4</ele>
        <time>2022-08-28T08:18:58Z</time>
      </trkpt>
      <trkpt lat="42.2689380" lon="-8.3570070">
        <ele>377.8</ele>
        <time>2022-08-28T08:19:03Z</time>
      </trkpt>
      <trkpt lat="42.2689050" lon="-8.3572940">
        <ele>378.0</ele>
        <time>2022-08-28T08:19:10Z</time>
      </trkpt>
      <trkpt lat="42.2688010" lon="-8.3575420">
        <ele>378.6</ele>
        <time>2022-08-28T08:19:16Z</time>
      </trkpt>
      <trkpt lat="42.2687520" lon="-8.3576140">
        <ele>378.6</ele>
        <time>2022-08-28T08:19:18Z</time>
      </trkpt>
      <trkpt lat="42.2685980" lon="-8.3578250">
        <ele>379.0</ele>
        <time>2022-08-28T08:19:24Z</time>
      </trkpt>
      <trkpt lat="42.2683860" lon="-8.3581260">
        <ele>379.2</ele>
        <time>2022-08-28T08:19:33Z</time>
      </trkpt>
      <trkpt lat="42.2681850" lon="-8.3584130">
        <ele>379.8</ele>
        <time>2022-08-28T08:19:42Z</time>
      </trkpt>
      <trkpt lat="42.2681160" lon="-8.3585900">
        <ele>380.0</ele>
        <time>2022-08-28T08:19:46Z</time>
      </trkpt>
      <trkpt lat="42.2681040" lon="-8.3586420">
        <ele>380.0</ele>
        <time>2022-08-28T08:19:47Z</time>
      </trkpt>
      <trkpt lat="42.2681010" lon="-8.3588940">
        <ele>380.4</ele>
        <time>2022-08-28T08:19:52Z</time>
      </trkpt>
      <trkpt lat="42.2680730" lon="-8.3592500">
        <ele>380.8</ele>
        <time>2022-08-28T08:19:59Z</time>
      </trkpt>
      <trkpt lat="42.2679430" lon="-8.3595960">
        <ele>381.2</ele>
        <time>2022-08-28T08:20:07Z</time>
      </trkpt>
      <trkpt lat="42.2678510" lon="-8.3598310">
        <ele>382.0</ele>
        <time>2022-08-28T08:20:13Z</time>
      </trkpt>
      <trkpt lat="42.2678320" lon="-8.3599170">
        <ele>382.2</ele>
        <time>2022-08-28T08:20:15Z</time>
      </trkpt>
      <trkpt lat="42.2678360" lon="-8.3600860">
        <ele>382.8</ele>
        <time>2022-08-28T08:20:19Z</time>
      </trkpt>
      <trkpt lat="42.2679260" lon="-8.3602370">
        <ele>383.2</ele>
        <time>2022-08-28T08:20:23Z</time>
      </trkpt>
      <trkpt lat="42.2680960" lon="-8.3605220">
        <ele>383.4</ele>
        <time>2022-08-28T08:20:30Z</time>
      </trkpt>
      <trkpt lat="42.2681090" lon="-8.3606360">
        <ele>383.4</ele>
        <time>2022-08-28T08:20:32Z</time>
      </trkpt>
      <trkpt lat="42.2680940" lon="-8.3607930">
        <ele>383.6</ele>
        <time>2022-08-28T08:20:35Z</time>
      </trkpt>
      <trkpt lat="42.2680520" lon="-8.3609360">
        <ele>383.6</ele>
        <time>2022-08-28T08:20:39Z</time>
      </trkpt>
      <trkpt lat="42.2680340" lon="-8.3609940">
        <ele>383.6</ele>
        <time>2022-08-28T08:20:41Z</time>
      </trkpt>
      <trkpt lat="42.2679820" lon="-8.3611520">
        <ele>384.8</ele>
        <time>2022-08-28T08:20:47Z</time>
      </trkpt>
      <trkpt lat="42.2679720" lon="-8.3611790">
        <ele>385.0</ele>
        <time>2022-08-28T08:20:48Z</time>
      </trkpt>
      <trkpt lat="42.2679190" lon="-8.3613060">
        <ele>386.0</ele>
        <time>2022-08-28T08:20:53Z</time>
      </trkpt>
      <trkpt lat="42.2679110" lon="-8.3613310">
        <ele>386.2</ele>
        <time>2022-08-28T08:20:54Z</time>
      </trkpt>
      <trkpt lat="42.2678580" lon="-8.3614880">
        <ele>387.0</ele>
        <time>2022-08-28T08:21:00Z</time>
      </trkpt>
      <trkpt lat="42.2678080" lon="-8.3616480">
        <ele>388.0</ele>
        <time>2022-08-28T08:21:06Z</time>
      </trkpt>
      <trkpt lat="42.2678020" lon="-8.3616760">
        <ele>388.0</ele>
        <time>2022-08-28T08:21:07Z</time>
      </trkpt>
      <trkpt lat="42.2678070" lon="-8.3618630">
        <ele>389.2</ele>
        <time>2022-08-28T08:21:14Z</time>
      </trkpt>
      <trkpt lat="42.2678850" lon="-8.3620120">
        <ele>390.4</ele>
        <time>2022-08-28T08:21:20Z</time>
      </trkpt>
      <trkpt lat="42.2680320" lon="-8.3621110">
        <ele>391.4</ele>
        <time>2022-08-28T08:21:27Z</time>
      </trkpt>
      <trkpt lat="42.2681860" lon="-8.3621560">
        <ele>392.2</ele>
        <time>2022-08-28T08:21:34Z</time>
      </trkpt>
      <trkpt lat="42.2682480" lon="-8.3621640">
        <ele>392.8</ele>
        <time>2022-08-28T08:21:37Z</time>
      </trkpt>
      <trkpt lat="42.2683130" lon="-8.3621710">
        <ele>393.4</ele>
        <time>2022-08-28T08:21:41Z</time>
      </trkpt>
      <trkpt lat="42.2683520" lon="-8.3621700">
        <ele>393.8</ele>
        <time>2022-08-28T08:21:45Z</time>
      </trkpt>
      <trkpt lat="42.2683550" lon="-8.3621740">
        <ele>394.0</ele>
        <time>2022-08-28T08:21:46Z</time>
      </trkpt>
      <trkpt lat="42.2683960" lon="-8.3622560">
        <ele>395.0</ele>
        <time>2022-08-28T08:23:47Z</time>
      </trkpt>
      <trkpt lat="42.2684320" lon="-8.3622930">
        <ele>395.0</ele>
        <time>2022-08-28T08:23:49Z</time>
      </trkpt>
      <trkpt lat="42.2684640" lon="-8.3623330">
        <ele>395.0</ele>
        <time>2022-08-28T08:23:51Z</time>
      </trkpt>
      <trkpt lat="42.2685110" lon="-8.3624270">
        <ele>395.0</ele>
        <time>2022-08-28T08:23:55Z</time>
      </trkpt>
      <trkpt lat="42.2685560" lon="-8.3625840">
        <ele>395.2</ele>
        <time>2022-08-28T08:24:01Z</time>
      </trkpt>
      <trkpt lat="42.2685600" lon="-8.3627150">
        <ele>395.8</ele>
        <time>2022-08-28T08:24:06Z</time>
      </trkpt>
      <trkpt lat="42.2685590" lon="-8.3627670">
        <ele>396.4</ele>
        <time>2022-08-28T08:24:08Z</time>
      </trkpt>
      <trkpt lat="42.2686020" lon="-8.3629250">
        <ele>397.0</ele>
        <time>2022-08-28T08:24:14Z</time>
      </trkpt>
      <trkpt lat="42.2686160" lon="-8.3629470">
        <ele>397.4</ele>
        <time>2022-08-28T08:24:15Z</time>
      </trkpt>
      <trkpt lat="42.2686980" lon="-8.3630100">
        <ele>398.0</ele>
        <time>2022-08-28T08:24:20Z</time>
      </trkpt>
      <trkpt lat="42.2687860" lon="-8.3630220">
        <ele>398.4</ele>
        <time>2022-08-28T08:24:24Z</time>
      </trkpt>
      <trkpt lat="42.2688750" lon="-8.3630060">
        <ele>399.0</ele>
        <time>2022-08-28T08:24:28Z</time>
      </trkpt>
      <trkpt lat="42.2689530" lon="-8.3629850">
        <ele>399.4</ele>
        <time>2022-08-28T08:24:32Z</time>
      </trkpt>
      <trkpt lat="42.2690720" lon="-8.3629510">
        <ele>400.6</ele>
        <time>2022-08-28T08:24:38Z</time>
      </trkpt>
      <trkpt lat="42.2691070" lon="-8.3629450">
        <ele>400.8</ele>
        <time>2022-08-28T08:24:40Z</time>
      </trkpt>
      <trkpt lat="42.2692010" lon="-8.3629430">
        <ele>401.6</ele>
        <time>2022-08-28T08:24:45Z</time>
      </trkpt>
      <trkpt lat="42.2692430" lon="-8.3629540">
        <ele>401.8</ele>
        <time>2022-08-28T08:24:47Z</time>
      </trkpt>
      <trkpt lat="42.2693300" lon="-8.3630270">
        <ele>402.4</ele>
        <time>2022-08-28T08:24:52Z</time>
      </trkpt>
      <trkpt lat="42.2693890" lon="-8.3631340">
        <ele>402.8</ele>
        <time>2022-08-28T08:24:57Z</time>
      </trkpt>
      <trkpt lat="42.2694040" lon="-8.3631860">
        <ele>403.0</ele>
        <time>2022-08-28T08:24:59Z</time>
      </trkpt>
      <trkpt lat="42.2694110" lon="-8.3633520">
        <ele>404.2</ele>
        <time>2022-08-28T08:25:05Z</time>
      </trkpt>
      <trkpt lat="42.2693710" lon="-8.3635370">
        <ele>405.2</ele>
        <time>2022-08-28T08:25:12Z</time>
      </trkpt>
      <trkpt lat="42.2693630" lon="-8.3635620">
        <ele>405.4</ele>
        <time>2022-08-28T08:25:13Z</time>
      </trkpt>
      <trkpt lat="42.2693350" lon="-8.3636940">
        <ele>406.4</ele>
        <time>2022-08-28T08:25:18Z</time>
      </trkpt>
      <trkpt lat="42.2693240" lon="-8.3637500">
        <ele>406.8</ele>
        <time>2022-08-28T08:25:20Z</time>
      </trkpt>
      <trkpt lat="42.2693020" lon="-8.3638570">
        <ele>407.4</ele>
        <time>2022-08-28T08:25:24Z</time>
      </trkpt>
      <trkpt lat="42.2692820" lon="-8.3639670">
        <ele>407.8</ele>
        <time>2022-08-28T08:25:28Z</time>
      </trkpt>
      <trkpt lat="42.2692620" lon="-8.3640990">
        <ele>408.4</ele>
        <time>2022-08-28T08:25:33Z</time>
      </trkpt>
      <trkpt lat="42.2692610" lon="-8.3642080">
        <ele>409.2</ele>
        <time>2022-08-28T08:25:37Z</time>
      </trkpt>
      <trkpt lat="42.2692620" lon="-8.3642930">
        <ele>409.8</ele>
        <time>2022-08-28T08:25:40Z</time>
      </trkpt>
      <trkpt lat="42.2692630" lon="-8.3644580">
        <ele>410.8</ele>
        <time>2022-08-28T08:25:46Z</time>
      </trkpt>
      <trkpt lat="42.2692740" lon="-8.3646440">
        <ele>411.8</ele>
        <time>2022-08-28T08:25:53Z</time>
      </trkpt>
      <trkpt lat="42.2692900" lon="-8.3646950">
        <ele>411.8</ele>
        <time>2022-08-28T08:25:55Z</time>
      </trkpt>
      <trkpt lat="42.2693520" lon="-8.3647770">
        <ele>412.8</ele>
        <time>2022-08-28T08:25:59Z</time>
      </trkpt>
      <trkpt lat="42.2694120" lon="-8.3648100">
        <ele>413.2</ele>
        <time>2022-08-28T08:26:02Z</time>
      </trkpt>
      <trkpt lat="42.2694560" lon="-8.3648170">
        <ele>413.4</ele>
        <time>2022-08-28T08:26:04Z</time>
      </trkpt>
      <trkpt lat="42.2695890" lon="-8.3648310">
        <ele>414.2</ele>
        <time>2022-08-28T08:26:11Z</time>
      </trkpt>
      <trkpt lat="42.2696090" lon="-8.3648340">
        <ele>414.2</ele>
        <time>2022-08-28T08:26:12Z</time>
      </trkpt>
      <trkpt lat="42.2696910" lon="-8.3648540">
        <ele>415.2</ele>
        <time>2022-08-28T08:26:16Z</time>
      </trkpt>
      <trkpt lat="42.2697720" lon="-8.3648810">
        <ele>416.2</ele>
        <time>2022-08-28T08:26:20Z</time>
      </trkpt>
      <trkpt lat="42.2698330" lon="-8.3649140">
        <ele>416.6</ele>
        <time>2022-08-28T08:26:23Z</time>
      </trkpt>
      <trkpt lat="42.2699200" lon="-8.3649950">
        <ele>417.0</ele>
        <time>2022-08-28T08:26:28Z</time>
      </trkpt>
      <trkpt lat="42.2699980" lon="-8.3651240">
        <ele>417.6</ele>
        <time>2022-08-28T08:26:34Z</time>
      </trkpt>
      <trkpt lat="42.2700100" lon="-8.3651460">
        <ele>417.6</ele>
        <time>2022-08-28T08:26:35Z</time>
      </trkpt>
      <trkpt lat="42.2700910" lon="-8.3653150">
        <ele>418.8</ele>
        <time>2022-08-28T08:26:42Z</time>
      </trkpt>
      <trkpt lat="42.2701420" lon="-8.3654100">
        <ele>419.6</ele>
        <time>2022-08-28T08:26:46Z</time>
      </trkpt>
      <trkpt lat="42.2701790" lon="-8.3654820">
        <ele>420.0</ele>
        <time>2022-08-28T08:26:49Z</time>
      </trkpt>
      <trkpt lat="42.2702250" lon="-8.3655810">
        <ele>420.4</ele>
        <time>2022-08-28T08:26:53Z</time>
      </trkpt>
      <trkpt lat="42.2703060" lon="-8.3657170">
        <ele>421.2</ele>
        <time>2022-08-28T08:26:59Z</time>
      </trkpt>
      <trkpt lat="42.2703450" lon="-8.3657830">
        <ele>421.4</ele>
        <time>2022-08-28T08:27:02Z</time>
      </trkpt>
      <trkpt lat="42.2704300" lon="-8.3659000">
        <ele>422.2</ele>
        <time>2022-08-28T08:27:08Z</time>
      </trkpt>
      <trkpt lat="42.2704770" lon="-8.3659600">
        <ele>422.8</ele>
        <time>2022-08-28T08:27:11Z</time>
      </trkpt>
      <trkpt lat="42.2705390" lon="-8.3660410">
        <ele>423.4</ele>
        <time>2022-08-28T08:27:15Z</time>
      </trkpt>
      <trkpt lat="42.2706500" lon="-8.3661530">
        <ele>424.4</ele>
        <time>2022-08-28T08:27:21Z</time>
      </trkpt>
      <trkpt lat="42.2706870" lon="-8.3661810">
        <ele>424.6</ele>
        <time>2022-08-28T08:27:23Z</time>
      </trkpt>
      <trkpt lat="42.2708000" lon="-8.3662140">
        <ele>425.4</ele>
        <time>2022-08-28T08:27:28Z</time>
      </trkpt>
      <trkpt lat="42.2708470" lon="-8.3662180">
        <ele>425.8</ele>
        <time>2022-08-28T08:27:30Z</time>
      </trkpt>
      <trkpt lat="42.2710090" lon="-8.3661810">
        <ele>426.8</ele>
        <time>2022-08-28T08:27:37Z</time>
      </trkpt>
      <trkpt lat="42.2710770" lon="-8.3661550">
        <ele>427.0</ele>
        <time>2022-08-28T08:27:40Z</time>
      </trkpt>
      <trkpt lat="42.2712130" lon="-8.3661220">
        <ele>428.0</ele>
        <time>2022-08-28T08:27:46Z</time>
      </trkpt>
      <trkpt lat="42.2712380" lon="-8.3661190">
        <ele>428.0</ele>
        <time>2022-08-28T08:27:47Z</time>
      </trkpt>
      <trkpt lat="42.2713560" lon="-8.3661450">
        <ele>428.6</ele>
        <time>2022-08-28T08:27:52Z</time>
      </trkpt>
      <trkpt lat="42.2714930" lon="-8.3662250">
        <ele>429.0</ele>
        <time>2022-08-28T08:27:58Z</time>
      </trkpt>
      <trkpt lat="42.2715370" lon="-8.3662550">
        <ele>429.6</ele>
        <time>2022-08-28T08:28:00Z</time>
      </trkpt>
      <trkpt lat="42.2716460" lon="-8.3663330">
        <ele>430.4</ele>
        <time>2022-08-28T08:28:05Z</time>
      </trkpt>
      <trkpt lat="42.2716920" lon="-8.3663590">
        <ele>430.6</ele>
        <time>2022-08-28T08:28:07Z</time>
      </trkpt>
      <trkpt lat="42.2717620" lon="-8.3664080">
        <ele>431.6</ele>
        <time>2022-08-28T08:28:10Z</time>
      </trkpt>
      <trkpt lat="42.2718650" lon="-8.3665060">
        <ele>432.4</ele>
        <time>2022-08-28T08:28:15Z</time>
      </trkpt>
      <trkpt lat="42.2719060" lon="-8.3665410">
        <ele>432.8</ele>
        <time>2022-08-28T08:28:17Z</time>
      </trkpt>
      <trkpt lat="42.2720080" lon="-8.3666320">
        <ele>433.4</ele>
        <time>2022-08-28T08:28:22Z</time>
      </trkpt>
      <trkpt lat="42.2720520" lon="-8.3666600">
        <ele>433.8</ele>
        <time>2022-08-28T08:28:24Z</time>
      </trkpt>
      <trkpt lat="42.2721640" lon="-8.3666970">
        <ele>434.6</ele>
        <time>2022-08-28T08:28:29Z</time>
      </trkpt>
      <trkpt lat="42.2722320" lon="-8.3667030">
        <ele>435.0</ele>
        <time>2022-08-28T08:28:32Z</time>
      </trkpt>
      <trkpt lat="42.2723440" lon="-8.3667150">
        <ele>435.8</ele>
        <time>2022-08-28T08:28:37Z</time>
      </trkpt>
      <trkpt lat="42.2723890" lon="-8.3667180">
        <ele>436.2</ele>
        <time>2022-08-28T08:28:39Z</time>
      </trkpt>
      <trkpt lat="42.2725410" lon="-8.3667350">
        <ele>437.2</ele>
        <time>2022-08-28T08:28:46Z</time>
      </trkpt>
      <trkpt lat="42.2725640" lon="-8.3667360">
        <ele>437.4</ele>
        <time>2022-08-28T08:28:47Z</time>
      </trkpt>
      <trkpt lat="42.2726990" lon="-8.3667370">
        <ele>438.2</ele>
        <time>2022-08-28T08:28:53Z</time>
      </trkpt>
      <trkpt lat="42.2727450" lon="-8.3667310">
        <ele>438.6</ele>
        <time>2022-08-28T08:28:55Z</time>
      </trkpt>
      <trkpt lat="42.2729220" lon="-8.3666630">
        <ele>439.4</ele>
        <time>2022-08-28T08:29:03Z</time>
      </trkpt>
      <trkpt lat="42.2730680" lon="-8.3665900">
        <ele>440.6</ele>
        <time>2022-08-28T08:29:10Z</time>
      </trkpt>
      <trkpt lat="42.2730880" lon="-8.3665780">
        <ele>440.8</ele>
        <time>2022-08-28T08:29:11Z</time>
      </trkpt>
      <trkpt lat="42.2731910" lon="-8.3665340">
        <ele>441.8</ele>
        <time>2022-08-28T08:29:16Z</time>
      </trkpt>
      <trkpt lat="42.2732520" lon="-8.3665130">
        <ele>442.2</ele>
        <time>2022-08-28T08:29:19Z</time>
      </trkpt>
      <trkpt lat="42.2733610" lon="-8.3664930">
        <ele>442.8</ele>
        <time>2022-08-28T08:29:24Z</time>
      </trkpt>
      <trkpt lat="42.2734020" lon="-8.3664900">
        <ele>443.0</ele>
        <time>2022-08-28T08:29:26Z</time>
      </trkpt>
      <trkpt lat="42.2735040" lon="-8.3664910">
        <ele>443.8</ele>
        <time>2022-08-28T08:29:31Z</time>
      </trkpt>
      <trkpt lat="42.2735460" lon="-8.3664990">
        <ele>444.2</ele>
        <time>2022-08-28T08:29:33Z</time>
      </trkpt>
      <trkpt lat="42.2736320" lon="-8.3665050">
        <ele>444.8</ele>
        <time>2022-08-28T08:29:37Z</time>
      </trkpt>
      <trkpt lat="42.2736520" lon="-8.3665070">
        <ele>445.0</ele>
        <time>2022-08-28T08:29:38Z</time>
      </trkpt>
      <trkpt lat="42.2737360" lon="-8.3665040">
        <ele>446.2</ele>
        <time>2022-08-28T08:29:42Z</time>
      </trkpt>
      <trkpt lat="42.2737750" lon="-8.3665070">
        <ele>446.4</ele>
        <time>2022-08-28T08:29:44Z</time>
      </trkpt>
      <trkpt lat="42.2738990" lon="-8.3665070">
        <ele>447.2</ele>
        <time>2022-08-28T08:29:50Z</time>
      </trkpt>
      <trkpt lat="42.2739200" lon="-8.3665030">
        <ele>447.4</ele>
        <time>2022-08-28T08:29:51Z</time>
      </trkpt>
      <trkpt lat="42.2740530" lon="-8.3664890">
        <ele>448.2</ele>
        <time>2022-08-28T08:29:57Z</time>
      </trkpt>
      <trkpt lat="42.2740740" lon="-8.3664860">
        <ele>448.4</ele>
        <time>2022-08-28T08:29:58Z</time>
      </trkpt>
      <trkpt lat="42.2742210" lon="-8.3664740">
        <ele>449.2</ele>
        <time>2022-08-28T08:30:05Z</time>
      </trkpt>
      <trkpt lat="42.2742830" lon="-8.3664810">
        <ele>449.4</ele>
        <time>2022-08-28T08:30:08Z</time>
      </trkpt>
      <trkpt lat="42.2743410" lon="-8.3664930">
        <ele>450.0</ele>
        <time>2022-08-28T08:30:11Z</time>
      </trkpt>
      <trkpt lat="42.2743800" lon="-8.3665040">
        <ele>450.4</ele>
        <time>2022-08-28T08:30:13Z</time>
      </trkpt>
      <trkpt lat="42.2744860" lon="-8.3665760">
        <ele>451.2</ele>
        <time>2022-08-28T08:30:18Z</time>
      </trkpt>
      <trkpt lat="42.2745520" lon="-8.3666450">
        <ele>451.6</ele>
        <time>2022-08-28T08:30:21Z</time>
      </trkpt>
      <trkpt lat="42.2746380" lon="-8.3667760">
        <ele>452.0</ele>
        <time>2022-08-28T08:30:26Z</time>
      </trkpt>
      <trkpt lat="42.2746900" lon="-8.3669210">
        <ele>452.8</ele>
        <time>2022-08-28T08:30:31Z</time>
      </trkpt>
      <trkpt lat="42.2747090" lon="-8.3669760">
        <ele>453.2</ele>
        <time>2022-08-28T08:30:33Z</time>
      </trkpt>
      <trkpt lat="42.2747610" lon="-8.3671340">
        <ele>454.0</ele>
        <time>2022-08-28T08:30:38Z</time>
      </trkpt>
      <trkpt lat="42.2747870" lon="-8.3671940">
        <ele>454.2</ele>
        <time>2022-08-28T08:30:40Z</time>
      </trkpt>
      <trkpt lat="42.2748880" lon="-8.3673420">
        <ele>455.0</ele>
        <time>2022-08-28T08:30:46Z</time>
      </trkpt>
      <trkpt lat="42.2749320" lon="-8.3673800">
        <ele>455.2</ele>
        <time>2022-08-28T08:30:48Z</time>
      </trkpt>
      <trkpt lat="42.2750820" lon="-8.3675130">
        <ele>456.0</ele>
        <time>2022-08-28T08:30:55Z</time>
      </trkpt>
      <trkpt lat="42.2751050" lon="-8.3675300">
        <ele>456.2</ele>
        <time>2022-08-28T08:30:56Z</time>
      </trkpt>
      <trkpt lat="42.2752660" lon="-8.3676630">
        <ele>457.0</ele>
        <time>2022-08-28T08:31:03Z</time>
      </trkpt>
      <trkpt lat="42.2753110" lon="-8.3677020">
        <ele>457.0</ele>
        <time>2022-08-28T08:31:05Z</time>
      </trkpt>
      <trkpt lat="42.2754320" lon="-8.3678570">
        <ele>457.8</ele>
        <time>2022-08-28T08:31:11Z</time>
      </trkpt>
      <trkpt lat="42.2755050" lon="-8.3679710">
        <ele>458.2</ele>
        <time>2022-08-28T08:31:15Z</time>
      </trkpt>
      <trkpt lat="42.2755220" lon="-8.3680010">
        <ele>458.4</ele>
        <time>2022-08-28T08:31:16Z</time>
      </trkpt>
      <trkpt lat="42.2755960" lon="-8.3681930">
        <ele>459.0</ele>
        <time>2022-08-28T08:31:22Z</time>
      </trkpt>
      <trkpt lat="42.2756240" lon="-8.3682560">
        <ele>459.2</ele>
        <time>2022-08-28T08:31:24Z</time>
      </trkpt>
      <trkpt lat="42.2756950" lon="-8.3684160">
        <ele>460.2</ele>
        <time>2022-08-28T08:31:29Z</time>
      </trkpt>
      <trkpt lat="42.2757080" lon="-8.3684440">
        <ele>460.4</ele>
        <time>2022-08-28T08:31:30Z</time>
      </trkpt>
      <trkpt lat="42.2757980" lon="-8.3685540">
        <ele>460.6</ele>
        <time>2022-08-28T08:31:35Z</time>
      </trkpt>
      <trkpt lat="42.2758770" lon="-8.3686200">
        <ele>461.6</ele>
        <time>2022-08-28T08:31:39Z</time>
      </trkpt>
      <trkpt lat="42.2759200" lon="-8.3686470">
        <ele>461.8</ele>
        <time>2022-08-28T08:31:41Z</time>
      </trkpt>
      <trkpt lat="42.2760730" lon="-8.3687130">
        <ele>462.6</ele>
        <time>2022-08-28T08:31:47Z</time>
      </trkpt>
      <trkpt lat="42.2761920" lon="-8.3688000">
        <ele>463.2</ele>
        <time>2022-08-28T08:31:52Z</time>
      </trkpt>
      <trkpt lat="42.2763180" lon="-8.3689510">
        <ele>463.6</ele>
        <time>2022-08-28T08:31:58Z</time>
      </trkpt>
      <trkpt lat="42.2763370" lon="-8.3689780">
        <ele>463.6</ele>
        <time>2022-08-28T08:31:59Z</time>
      </trkpt>
      <trkpt lat="42.2764520" lon="-8.3691370">
        <ele>464.4</ele>
        <time>2022-08-28T08:32:05Z</time>
      </trkpt>
      <trkpt lat="42.2764880" lon="-8.3691880">
        <ele>464.8</ele>
        <time>2022-08-28T08:32:07Z</time>
      </trkpt>
      <trkpt lat="42.2765890" lon="-8.3693200">
        <ele>465.4</ele>
        <time>2022-08-28T08:32:12Z</time>
      </trkpt>
      <trkpt lat="42.2767000" lon="-8.3694530">
        <ele>466.0</ele>
        <time>2022-08-28T08:32:18Z</time>
      </trkpt>
      <trkpt lat="42.2768180" lon="-8.3695990">
        <ele>467.2</ele>
        <time>2022-08-28T08:32:24Z</time>
      </trkpt>
      <trkpt lat="42.2769430" lon="-8.3697850">
        <ele>468.0</ele>
        <time>2022-08-28T08:32:31Z</time>
      </trkpt>
      <trkpt lat="42.2770140" lon="-8.3698910">
        <ele>468.2</ele>
        <time>2022-08-28T08:32:35Z</time>
      </trkpt>
      <trkpt lat="42.2770310" lon="-8.3699190">
        <ele>468.6</ele>
        <time>2022-08-28T08:32:36Z</time>
      </trkpt>
      <trkpt lat="42.2771350" lon="-8.3700330">
        <ele>469.0</ele>
        <time>2022-08-28T08:32:41Z</time>
      </trkpt>
      <trkpt lat="42.2771570" lon="-8.3700490">
        <ele>469.2</ele>
        <time>2022-08-28T08:32:42Z</time>
      </trkpt>
      <trkpt lat="42.2772780" lon="-8.3701290">
        <ele>469.8</ele>
        <time>2022-08-28T08:32:47Z</time>
      </trkpt>
      <trkpt lat="42.2773290" lon="-8.3701620">
        <ele>470.2</ele>
        <time>2022-08-28T08:32:49Z</time>
      </trkpt>
      <trkpt lat="42.2774520" lon="-8.3702310">
        <ele>471.0</ele>
        <time>2022-08-28T08:32:54Z</time>
      </trkpt>
      <trkpt lat="42.2775280" lon="-8.3702630">
        <ele>471.2</ele>
        <time>2022-08-28T08:32:57Z</time>
      </trkpt>
      <trkpt lat="42.2776310" lon="-8.3703080">
        <ele>471.8</ele>
        <time>2022-08-28T08:33:01Z</time>
      </trkpt>
      <trkpt lat="42.2777330" lon="-8.3703450">
        <ele>472.4</ele>
        <time>2022-08-28T08:33:05Z</time>
      </trkpt>
      <trkpt lat="42.2778080" lon="-8.3703670">
        <ele>472.8</ele>
        <time>2022-08-28T08:33:08Z</time>
      </trkpt>
      <trkpt lat="42.2778890" lon="-8.3703900">
        <ele>473.4</ele>
        <time>2022-08-28T08:33:11Z</time>
      </trkpt>
      <trkpt lat="42.2780280" lon="-8.3704180">
        <ele>473.8</ele>
        <time>2022-08-28T08:33:16Z</time>
      </trkpt>
      <trkpt lat="42.2781880" lon="-8.3704140">
        <ele>474.4</ele>
        <time>2022-08-28T08:33:22Z</time>
      </trkpt>
      <trkpt lat="42.2782140" lon="-8.3704080">
        <ele>474.6</ele>
        <time>2022-08-28T08:33:23Z</time>
      </trkpt>
      <trkpt lat="42.2783580" lon="-8.3703720">
        <ele>475.6</ele>
        <time>2022-08-28T08:33:29Z</time>
      </trkpt>
      <trkpt lat="42.2783810" lon="-8.3703670">
        <ele>475.8</ele>
        <time>2022-08-28T08:33:30Z</time>
      </trkpt>
      <trkpt lat="42.2784980" lon="-8.3703430">
        <ele>476.8</ele>
        <time>2022-08-28T08:33:35Z</time>
      </trkpt>
      <trkpt lat="42.2785460" lon="-8.3703430">
        <ele>477.0</ele>
        <time>2022-08-28T08:33:37Z</time>
      </trkpt>
      <trkpt lat="42.2787170" lon="-8.3702940">
        <ele>477.6</ele>
        <time>2022-08-28T08:33:43Z</time>
      </trkpt>
      <trkpt lat="42.2787470" lon="-8.3702850">
        <ele>477.8</ele>
        <time>2022-08-28T08:33:44Z</time>
      </trkpt>
      <trkpt lat="42.2789250" lon="-8.3702160">
        <ele>478.2</ele>
        <time>2022-08-28T08:33:50Z</time>
      </trkpt>
      <trkpt lat="42.2791150" lon="-8.3702510">
        <ele>478.2</ele>
        <time>2022-08-28T08:33:55Z</time>
      </trkpt>
      <trkpt lat="42.2792320" lon="-8.3704290">
        <ele>478.2</ele>
        <time>2022-08-28T08:33:59Z</time>
      </trkpt>
      <trkpt lat="42.2792280" lon="-8.3707400">
        <ele>478.0</ele>
        <time>2022-08-28T08:34:04Z</time>
      </trkpt>
      <trkpt lat="42.2791340" lon="-8.3708860">
        <ele>477.8</ele>
        <time>2022-08-28T08:34:08Z</time>
      </trkpt>
      <trkpt lat="42.2791070" lon="-8.3709080">
        <ele>477.8</ele>
        <time>2022-08-28T08:34:09Z</time>
      </trkpt>
      <trkpt lat="42.2789730" lon="-8.3709690">
        <ele>478.0</ele>
        <time>2022-08-28T08:34:14Z</time>
      </trkpt>
      <trkpt lat="42.2788430" lon="-8.3709870">
        <ele>478.8</ele>
        <time>2022-08-28T08:34:19Z</time>
      </trkpt>
      <trkpt lat="42.2788190" lon="-8.3709920">
        <ele>479.0</ele>
        <time>2022-08-28T08:34:20Z</time>
      </trkpt>
      <trkpt lat="42.2786990" lon="-8.3710180">
        <ele>480.0</ele>
        <time>2022-08-28T08:34:25Z</time>
      </trkpt>
      <trkpt lat="42.2786280" lon="-8.3710490">
        <ele>480.6</ele>
        <time>2022-08-28T08:34:28Z</time>
      </trkpt>
      <trkpt lat="42.2785880" lon="-8.3710790">
        <ele>481.0</ele>
        <time>2022-08-28T08:34:30Z</time>
      </trkpt>
      <trkpt lat="42.2785060" lon="-8.3711850">
        <ele>482.0</ele>
        <time>2022-08-28T08:34:35Z</time>
      </trkpt>
      <trkpt lat="42.2784900" lon="-8.3712090">
        <ele>482.2</ele>
        <time>2022-08-28T08:34:36Z</time>
      </trkpt>
      <trkpt lat="42.2784080" lon="-8.3713280">
        <ele>483.4</ele>
        <time>2022-08-28T08:34:41Z</time>
      </trkpt>
      <trkpt lat="42.2783900" lon="-8.3713460">
        <ele>483.6</ele>
        <time>2022-08-28T08:34:42Z</time>
      </trkpt>
      <trkpt lat="42.2782860" lon="-8.3713970">
        <ele>484.2</ele>
        <time>2022-08-28T08:34:47Z</time>
      </trkpt>
      <trkpt lat="42.2782270" lon="-8.3714100">
        <ele>484.4</ele>
        <time>2022-08-28T08:34:49Z</time>
      </trkpt>
      <trkpt lat="42.2781140" lon="-8.3714360">
        <ele>485.2</ele>
        <time>2022-08-28T08:34:53Z</time>
      </trkpt>
      <trkpt lat="42.2780390" lon="-8.3714510">
        <ele>485.6</ele>
        <time>2022-08-28T08:34:56Z</time>
      </trkpt>
      <trkpt lat="42.2779630" lon="-8.3714800">
        <ele>486.0</ele>
        <time>2022-08-28T08:34:59Z</time>
      </trkpt>
      <trkpt lat="42.2778090" lon="-8.3715530">
        <ele>487.0</ele>
        <time>2022-08-28T08:35:05Z</time>
      </trkpt>
      <trkpt lat="42.2777850" lon="-8.3715660">
        <ele>487.2</ele>
        <time>2022-08-28T08:35:06Z</time>
      </trkpt>
      <trkpt lat="42.2776640" lon="-8.3716260">
        <ele>488.0</ele>
        <time>2022-08-28T08:35:11Z</time>
      </trkpt>
      <trkpt lat="42.2775920" lon="-8.3716590">
        <ele>488.8</ele>
        <time>2022-08-28T08:35:14Z</time>
      </trkpt>
      <trkpt lat="42.2775420" lon="-8.3716800">
        <ele>489.4</ele>
        <time>2022-08-28T08:35:16Z</time>
      </trkpt>
      <trkpt lat="42.2774260" lon="-8.3717290">
        <ele>490.0</ele>
        <time>2022-08-28T08:35:21Z</time>
      </trkpt>
      <trkpt lat="42.2773640" lon="-8.3717610">
        <ele>490.4</ele>
        <time>2022-08-28T08:35:24Z</time>
      </trkpt>
      <trkpt lat="42.2772730" lon="-8.3718010">
        <ele>491.0</ele>
        <time>2022-08-28T08:35:28Z</time>
      </trkpt>
      <trkpt lat="42.2772020" lon="-8.3718380">
        <ele>491.4</ele>
        <time>2022-08-28T08:35:31Z</time>
      </trkpt>
      <trkpt lat="42.2771040" lon="-8.3719130">
        <ele>492.2</ele>
        <time>2022-08-28T08:35:35Z</time>
      </trkpt>
      <trkpt lat="42.2770450" lon="-8.3719970">
        <ele>492.6</ele>
        <time>2022-08-28T08:35:38Z</time>
      </trkpt>
      <trkpt lat="42.2770050" lon="-8.3721080">
        <ele>492.8</ele>
        <time>2022-08-28T08:35:41Z</time>
      </trkpt>
      <trkpt lat="42.2770080" lon="-8.3723030">
        <ele>493.4</ele>
        <time>2022-08-28T08:35:46Z</time>
      </trkpt>
      <trkpt lat="42.2770720" lon="-8.3724970">
        <ele>493.4</ele>
        <time>2022-08-28T08:35:51Z</time>
      </trkpt>
      <trkpt lat="42.2771000" lon="-8.3725280">
        <ele>493.4</ele>
        <time>2022-08-28T08:35:52Z</time>
      </trkpt>
      <trkpt lat="42.2771670" lon="-8.3725840">
        <ele>493.4</ele>
        <time>2022-08-28T08:35:54Z</time>
      </trkpt>
      <trkpt lat="42.2772700" lon="-8.3726300">
        <ele>493.6</ele>
        <time>2022-08-28T08:35:57Z</time>
      </trkpt>
      <trkpt lat="42.2774770" lon="-8.3726940">
        <ele>493.2</ele>
        <time>2022-08-28T08:36:04Z</time>
      </trkpt>
      <trkpt lat="42.2775750" lon="-8.3727240">
        <ele>493.2</ele>
        <time>2022-08-28T08:36:09Z</time>
      </trkpt>
      <trkpt lat="42.2776650" lon="-8.3727320">
        <ele>493.8</ele>
        <time>2022-08-28T08:36:13Z</time>
      </trkpt>
      <trkpt lat="42.2777160" lon="-8.3727310">
        <ele>494.2</ele>
        <time>2022-08-28T08:36:16Z</time>
      </trkpt>
      <trkpt lat="42.2777650" lon="-8.3727260">
        <ele>494.8</ele>
        <time>2022-08-28T08:36:19Z</time>
      </trkpt>
      <trkpt lat="42.2778090" lon="-8.3727170">
        <ele>495.6</ele>
        <time>2022-08-28T08:36:22Z</time>
      </trkpt>
      <trkpt lat="42.2778220" lon="-8.3727170">
        <ele>496.0</ele>
        <time>2022-08-28T08:36:23Z</time>
      </trkpt>
      <trkpt lat="42.2779040" lon="-8.3727250">
        <ele>496.8</ele>
        <time>2022-08-28T08:36:28Z</time>
      </trkpt>
      <trkpt lat="42.2779520" lon="-8.3727180">
        <ele>497.2</ele>
        <time>2022-08-28T08:36:31Z</time>
      </trkpt>
      <trkpt lat="42.2780200" lon="-8.3727190">
        <ele>497.8</ele>
        <time>2022-08-28T08:36:35Z</time>
      </trkpt>
      <trkpt lat="42.2780620" lon="-8.3727210">
        <ele>498.2</ele>
        <time>2022-08-28T08:36:38Z</time>
      </trkpt>
      <trkpt lat="42.2780920" lon="-8.3727220">
        <ele>498.6</ele>
        <time>2022-08-28T08:36:40Z</time>
      </trkpt>
      <trkpt lat="42.2781840" lon="-8.3727370">
        <ele>499.4</ele>
        <time>2022-08-28T08:36:46Z</time>
      </trkpt>
      <trkpt lat="42.2782180" lon="-8.3727500">
        <ele>500.0</ele>
        <time>2022-08-28T08:36:48Z</time>
      </trkpt>
      <trkpt lat="42.2782760" lon="-8.3727730">
        <ele>500.6</ele>
        <time>2022-08-28T08:36:52Z</time>
      </trkpt>
      <trkpt lat="42.2783280" lon="-8.3727990">
        <ele>501.0</ele>
        <time>2022-08-28T08:36:56Z</time>
      </trkpt>
      <trkpt lat="42.2783970" lon="-8.3728230">
        <ele>501.8</ele>
        <time>2022-08-28T08:37:00Z</time>
      </trkpt>
      <trkpt lat="42.2784630" lon="-8.3728390">
        <ele>502.4</ele>
        <time>2022-08-28T08:37:04Z</time>
      </trkpt>
      <trkpt lat="42.2785270" lon="-8.3728510">
        <ele>502.8</ele>
        <time>2022-08-28T08:37:08Z</time>
      </trkpt>
      <trkpt lat="42.2785700" lon="-8.3728510">
        <ele>503.2</ele>
        <time>2022-08-28T08:37:11Z</time>
      </trkpt>
      <trkpt lat="42.2786520" lon="-8.3728560">
        <ele>503.8</ele>
        <time>2022-08-28T08:37:16Z</time>
      </trkpt>
      <trkpt lat="42.2786690" lon="-8.3728580">
        <ele>504.0</ele>
        <time>2022-08-28T08:37:17Z</time>
      </trkpt>
      <trkpt lat="42.2787840" lon="-8.3728660">
        <ele>504.8</ele>
        <time>2022-08-28T08:37:23Z</time>
      </trkpt>
      <trkpt lat="42.2788020" lon="-8.3728690">
        <ele>505.0</ele>
        <time>2022-08-28T08:37:24Z</time>
      </trkpt>
      <trkpt lat="42.2789090" lon="-8.3729020">
        <ele>505.6</ele>
        <time>2022-08-28T08:37:30Z</time>
      </trkpt>
      <trkpt lat="42.2789450" lon="-8.3729160">
        <ele>506.2</ele>
        <time>2022-08-28T08:37:32Z</time>
      </trkpt>
      <trkpt lat="42.2790390" lon="-8.3729710">
        <ele>507.0</ele>
        <time>2022-08-28T08:37:38Z</time>
      </trkpt>
      <trkpt lat="42.2790540" lon="-8.3729780">
        <ele>507.2</ele>
        <time>2022-08-28T08:37:39Z</time>
      </trkpt>
      <trkpt lat="42.2791320" lon="-8.3730140">
        <ele>508.2</ele>
        <time>2022-08-28T08:37:45Z</time>
      </trkpt>
      <trkpt lat="42.2791550" lon="-8.3730290">
        <ele>508.4</ele>
        <time>2022-08-28T08:37:47Z</time>
      </trkpt>
      <trkpt lat="42.2792170" lon="-8.3730850">
        <ele>509.6</ele>
        <time>2022-08-28T08:37:53Z</time>
      </trkpt>
      <trkpt lat="42.2792820" lon="-8.3731390">
        <ele>510.6</ele>
        <time>2022-08-28T08:37:59Z</time>
      </trkpt>
      <trkpt lat="42.2793310" lon="-8.3731670">
        <ele>511.4</ele>
        <time>2022-08-28T08:38:03Z</time>
      </trkpt>
      <trkpt lat="42.2793740" lon="-8.3731930">
        <ele>511.8</ele>
        <time>2022-08-28T08:38:06Z</time>
      </trkpt>
      <trkpt lat="42.2794450" lon="-8.3732200">
        <ele>512.4</ele>
        <time>2022-08-28T08:38:11Z</time>
      </trkpt>
      <trkpt lat="42.2794710" lon="-8.3732310">
        <ele>512.8</ele>
        <time>2022-08-28T08:38:13Z</time>
      </trkpt>
      <trkpt lat="42.2795420" lon="-8.3732730">
        <ele>513.4</ele>
        <time>2022-08-28T08:38:18Z</time>
      </trkpt>
      <trkpt lat="42.2795860" lon="-8.3732990">
        <ele>514.0</ele>
        <time>2022-08-28T08:38:22Z</time>
      </trkpt>
      <trkpt lat="42.2796210" lon="-8.3733130">
        <ele>514.4</ele>
        <time>2022-08-28T08:38:25Z</time>
      </trkpt>
      <trkpt lat="42.2796680" lon="-8.3733220">
        <ele>515.2</ele>
        <time>2022-08-28T08:38:29Z</time>
      </trkpt>
      <trkpt lat="42.2797000" lon="-8.3733230">
        <ele>515.8</ele>
        <time>2022-08-28T08:38:32Z</time>
      </trkpt>
      <trkpt lat="42.2797230" lon="-8.3733260">
        <ele>516.2</ele>
        <time>2022-08-28T08:38:34Z</time>
      </trkpt>
      <trkpt lat="42.2797750" lon="-8.3733230">
        <ele>517.2</ele>
        <time>2022-08-28T08:38:39Z</time>
      </trkpt>
      <trkpt lat="42.2798020" lon="-8.3733170">
        <ele>517.2</ele>
        <time>2022-08-28T08:38:41Z</time>
      </trkpt>
      <trkpt lat="42.2798460" lon="-8.3733080">
        <ele>518.0</ele>
        <time>2022-08-28T08:38:45Z</time>
      </trkpt>
      <trkpt lat="42.2798800" lon="-8.3732960">
        <ele>518.4</ele>
        <time>2022-08-28T08:38:48Z</time>
      </trkpt>
      <trkpt lat="42.2799140" lon="-8.3732810">
        <ele>518.8</ele>
        <time>2022-08-28T08:38:51Z</time>
      </trkpt>
      <trkpt lat="42.2799600" lon="-8.3732660">
        <ele>519.4</ele>
        <time>2022-08-28T08:38:55Z</time>
      </trkpt>
      <trkpt lat="42.2799960" lon="-8.3732590">
        <ele>519.8</ele>
        <time>2022-08-28T08:38:58Z</time>
      </trkpt>
      <trkpt lat="42.2800300" lon="-8.3732500">
        <ele>520.6</ele>
        <time>2022-08-28T08:39:01Z</time>
      </trkpt>
      <trkpt lat="42.2800800" lon="-8.3732350">
        <ele>522.0</ele>
        <time>2022-08-28T08:39:06Z</time>
      </trkpt>
      <trkpt lat="42.2800900" lon="-8.3732340">
        <ele>522.2</ele>
        <time>2022-08-28T08:39:07Z</time>
      </trkpt>
      <trkpt lat="42.2801530" lon="-8.3732370">
        <ele>523.0</ele>
        <time>2022-08-28T08:39:12Z</time>
      </trkpt>
      <trkpt lat="42.2802040" lon="-8.3732330">
        <ele>523.8</ele>
        <time>2022-08-28T08:39:16Z</time>
      </trkpt>
      <trkpt lat="42.2802160" lon="-8.3732310">
        <ele>524.0</ele>
        <time>2022-08-28T08:39:17Z</time>
      </trkpt>
      <trkpt lat="42.2802950" lon="-8.3732330">
        <ele>525.0</ele>
        <time>2022-08-28T08:39:24Z</time>
      </trkpt>
      <trkpt lat="42.2803070" lon="-8.3732350">
        <ele>525.2</ele>
        <time>2022-08-28T08:39:25Z</time>
      </trkpt>
      <trkpt lat="42.2803600" lon="-8.3732600">
        <ele>526.2</ele>
        <time>2022-08-28T08:39:30Z</time>
      </trkpt>
      <trkpt lat="42.2803840" lon="-8.3732680">
        <ele>526.4</ele>
        <time>2022-08-28T08:39:32Z</time>
      </trkpt>
      <trkpt lat="42.2804670" lon="-8.3732880">
        <ele>527.4</ele>
        <time>2022-08-28T08:39:39Z</time>
      </trkpt>
      <trkpt lat="42.2805450" lon="-8.3733040">
        <ele>528.4</ele>
        <time>2022-08-28T08:39:46Z</time>
      </trkpt>
      <trkpt lat="42.2805540" lon="-8.3733050">
        <ele>528.6</ele>
        <time>2022-08-28T08:39:47Z</time>
      </trkpt>
      <trkpt lat="42.2805710" lon="-8.3733120">
        <ele>528.8</ele>
        <time>2022-08-28T08:39:49Z</time>
      </trkpt>
      <trkpt lat="42.2806130" lon="-8.3733230">
        <ele>529.4</ele>
        <time>2022-08-28T08:39:53Z</time>
      </trkpt>
      <trkpt lat="42.2806800" lon="-8.3733280">
        <ele>530.6</ele>
        <time>2022-08-28T08:39:59Z</time>
      </trkpt>
      <trkpt lat="42.2807390" lon="-8.3733200">
        <ele>531.8</ele>
        <time>2022-08-28T08:40:04Z</time>
      </trkpt>
      <trkpt lat="42.2807600" lon="-8.3733190">
        <ele>532.2</ele>
        <time>2022-08-28T08:40:06Z</time>
      </trkpt>
      <trkpt lat="42.2808240" lon="-8.3733110">
        <ele>532.8</ele>
        <time>2022-08-28T08:40:11Z</time>
      </trkpt>
      <trkpt lat="42.2808600" lon="-8.3733150">
        <ele>533.4</ele>
        <time>2022-08-28T08:40:14Z</time>
      </trkpt>
      <trkpt lat="42.2808950" lon="-8.3733200">
        <ele>533.8</ele>
        <time>2022-08-28T08:40:17Z</time>
      </trkpt>
      <trkpt lat="42.2809520" lon="-8.3733290">
        <ele>534.8</ele>
        <time>2022-08-28T08:40:22Z</time>
      </trkpt>
      <trkpt lat="42.2809640" lon="-8.3733340">
        <ele>535.0</ele>
        <time>2022-08-28T08:40:23Z</time>
      </trkpt>
      <trkpt lat="42.2810420" lon="-8.3733650">
        <ele>536.2</ele>
        <time>2022-08-28T08:40:29Z</time>
      </trkpt>
      <trkpt lat="42.2810870" lon="-8.3733890">
        <ele>537.0</ele>
        <time>2022-08-28T08:40:33Z</time>
      </trkpt>
      <trkpt lat="42.2811000" lon="-8.3733960">
        <ele>537.2</ele>
        <time>2022-08-28T08:40:34Z</time>
      </trkpt>
      <trkpt lat="42.2811950" lon="-8.3734480">
        <ele>538.2</ele>
        <time>2022-08-28T08:40:40Z</time>
      </trkpt>
      <trkpt lat="42.2812280" lon="-8.3734650">
        <ele>538.6</ele>
        <time>2022-08-28T08:40:42Z</time>
      </trkpt>
      <trkpt lat="42.2812630" lon="-8.3735010">
        <ele>539.0</ele>
        <time>2022-08-28T08:40:45Z</time>
      </trkpt>
      <trkpt lat="42.2812940" lon="-8.3735210">
        <ele>539.2</ele>
        <time>2022-08-28T08:40:47Z</time>
      </trkpt>
      <trkpt lat="42.2813090" lon="-8.3735310">
        <ele>539.4</ele>
        <time>2022-08-28T08:40:48Z</time>
      </trkpt>
      <trkpt lat="42.2813920" lon="-8.3735910">
        <ele>540.2</ele>
        <time>2022-08-28T08:40:54Z</time>
      </trkpt>
      <trkpt lat="42.2814300" lon="-8.3736150">
        <ele>540.8</ele>
        <time>2022-08-28T08:40:57Z</time>
      </trkpt>
      <trkpt lat="42.2814890" lon="-8.3736390">
        <ele>541.4</ele>
        <time>2022-08-28T08:41:01Z</time>
      </trkpt>
      <trkpt lat="42.2815360" lon="-8.3736440">
        <ele>541.8</ele>
        <time>2022-08-28T08:41:04Z</time>
      </trkpt>
      <trkpt lat="42.2816160" lon="-8.3736410">
        <ele>542.2</ele>
        <time>2022-08-28T08:41:10Z</time>
      </trkpt>
      <trkpt lat="42.2816610" lon="-8.3736470">
        <ele>542.4</ele>
        <time>2022-08-28T08:41:13Z</time>
      </trkpt>
      <trkpt lat="42.2817240" lon="-8.3736620">
        <ele>543.4</ele>
        <time>2022-08-28T08:41:18Z</time>
      </trkpt>
      <trkpt lat="42.2818220" lon="-8.3736980">
        <ele>544.6</ele>
        <time>2022-08-28T08:41:25Z</time>
      </trkpt>
      <trkpt lat="42.2818360" lon="-8.3737060">
        <ele>545.0</ele>
        <time>2022-08-28T08:41:26Z</time>
      </trkpt>
      <trkpt lat="42.2819020" lon="-8.3737310">
        <ele>545.8</ele>
        <time>2022-08-28T08:41:31Z</time>
      </trkpt>
      <trkpt lat="42.2819550" lon="-8.3737690">
        <ele>546.6</ele>
        <time>2022-08-28T08:41:35Z</time>
      </trkpt>
      <trkpt lat="42.2819680" lon="-8.3737740">
        <ele>546.8</ele>
        <time>2022-08-28T08:41:36Z</time>
      </trkpt>
      <trkpt lat="42.2820330" lon="-8.3737960">
        <ele>547.8</ele>
        <time>2022-08-28T08:41:41Z</time>
      </trkpt>
      <trkpt lat="42.2820600" lon="-8.3738110">
        <ele>548.0</ele>
        <time>2022-08-28T08:41:43Z</time>
      </trkpt>
      <trkpt lat="42.2821290" lon="-8.3738390">
        <ele>549.0</ele>
        <time>2022-08-28T08:41:48Z</time>
      </trkpt>
      <trkpt lat="42.2822260" lon="-8.3738850">
        <ele>550.2</ele>
        <time>2022-08-28T08:41:55Z</time>
      </trkpt>
      <trkpt lat="42.2822580" lon="-8.3738890">
        <ele>550.8</ele>
        <time>2022-08-28T08:41:57Z</time>
      </trkpt>
      <trkpt lat="42.2823190" lon="-8.3739130">
        <ele>551.4</ele>
        <time>2022-08-28T08:42:01Z</time>
      </trkpt>
      <trkpt lat="42.2823490" lon="-8.3739360">
        <ele>551.6</ele>
        <time>2022-08-28T08:42:03Z</time>
      </trkpt>
      <trkpt lat="42.2823630" lon="-8.3739490">
        <ele>551.8</ele>
        <time>2022-08-28T08:42:04Z</time>
      </trkpt>
      <trkpt lat="42.2824170" lon="-8.3739810">
        <ele>552.4</ele>
        <time>2022-08-28T08:42:07Z</time>
      </trkpt>
      <trkpt lat="42.2825020" lon="-8.3740140">
        <ele>553.2</ele>
        <time>2022-08-28T08:42:11Z</time>
      </trkpt>
      <trkpt lat="42.2825510" lon="-8.3740250">
        <ele>553.4</ele>
        <time>2022-08-28T08:42:13Z</time>
      </trkpt>
      <trkpt lat="42.2827150" lon="-8.3740380">
        <ele>554.0</ele>
        <time>2022-08-28T08:42:20Z</time>
      </trkpt>
      <trkpt lat="42.2828710" lon="-8.3740320">
        <ele>554.2</ele>
        <time>2022-08-28T08:42:28Z</time>
      </trkpt>
      <trkpt lat="42.2830040" lon="-8.3740170">
        <ele>554.8</ele>
        <time>2022-08-28T08:42:36Z</time>
      </trkpt>
      <trkpt lat="42.2830190" lon="-8.3740160">
        <ele>555.0</ele>
        <time>2022-08-28T08:42:37Z</time>
      </trkpt>
      <trkpt lat="42.2830840" lon="-8.3740160">
        <ele>555.8</ele>
        <time>2022-08-28T08:42:41Z</time>
      </trkpt>
      <trkpt lat="42.2831540" lon="-8.3740110">
        <ele>556.4</ele>
        <time>2022-08-28T08:42:45Z</time>
      </trkpt>
      <trkpt lat="42.2831860" lon="-8.3740070">
        <ele>556.8</ele>
        <time>2022-08-28T08:42:47Z</time>
      </trkpt>
      <trkpt lat="42.2832680" lon="-8.3739920">
        <ele>557.6</ele>
        <time>2022-08-28T08:42:52Z</time>
      </trkpt>
      <trkpt lat="42.2833010" lon="-8.3739890">
        <ele>558.0</ele>
        <time>2022-08-28T08:42:54Z</time>
      </trkpt>
      <trkpt lat="42.2833640" lon="-8.3739790">
        <ele>558.6</ele>
        <time>2022-08-28T08:42:58Z</time>
      </trkpt>
      <trkpt lat="42.2834270" lon="-8.3739570">
        <ele>559.2</ele>
        <time>2022-08-28T08:43:02Z</time>
      </trkpt>
      <trkpt lat="42.2834870" lon="-8.3739330">
        <ele>559.8</ele>
        <time>2022-08-28T08:43:06Z</time>
      </trkpt>
      <trkpt lat="42.2835440" lon="-8.3739120">
        <ele>560.4</ele>
        <time>2022-08-28T08:43:10Z</time>
      </trkpt>
      <trkpt lat="42.2836030" lon="-8.3738880">
        <ele>561.0</ele>
        <time>2022-08-28T08:43:14Z</time>
      </trkpt>
      <trkpt lat="42.2836530" lon="-8.3738700">
        <ele>561.4</ele>
        <time>2022-08-28T08:43:17Z</time>
      </trkpt>
      <trkpt lat="42.2837380" lon="-8.3738400">
        <ele>561.8</ele>
        <time>2022-08-28T08:43:22Z</time>
      </trkpt>
      <trkpt lat="42.2837820" lon="-8.3738170">
        <ele>562.4</ele>
        <time>2022-08-28T08:43:25Z</time>
      </trkpt>
      <trkpt lat="42.2838740" lon="-8.3737660">
        <ele>562.8</ele>
        <time>2022-08-28T08:43:29Z</time>
      </trkpt>
      <trkpt lat="42.2839980" lon="-8.3736790">
        <ele>563.2</ele>
        <time>2022-08-28T08:43:34Z</time>
      </trkpt>
      <trkpt lat="42.2841850" lon="-8.3735870">
        <ele>563.4</ele>
        <time>2022-08-28T08:43:42Z</time>
      </trkpt>
      <trkpt lat="42.2843310" lon="-8.3735670">
        <ele>563.4</ele>
        <time>2022-08-28T08:43:49Z</time>
      </trkpt>
      <trkpt lat="42.2843470" lon="-8.3735660">
        <ele>563.4</ele>
        <time>2022-08-28T08:43:50Z</time>
      </trkpt>
      <trkpt lat="42.2844260" lon="-8.3735790">
        <ele>564.0</ele>
        <time>2022-08-28T08:43:55Z</time>
      </trkpt>
      <trkpt lat="42.2845090" lon="-8.3735890">
        <ele>564.6</ele>
        <time>2022-08-28T08:44:00Z</time>
      </trkpt>
      <trkpt lat="42.2845400" lon="-8.3735950">
        <ele>565.0</ele>
        <time>2022-08-28T08:44:02Z</time>
      </trkpt>
      <trkpt lat="42.2845970" lon="-8.3735970">
        <ele>565.6</ele>
        <time>2022-08-28T08:44:06Z</time>
      </trkpt>
      <trkpt lat="42.2846600" lon="-8.3736080">
        <ele>566.8</ele>
        <time>2022-08-28T08:44:11Z</time>
      </trkpt>
      <trkpt lat="42.2846720" lon="-8.3736090">
        <ele>567.0</ele>
        <time>2022-08-28T08:44:12Z</time>
      </trkpt>
      <trkpt lat="42.2846830" lon="-8.3736120">
        <ele>567.2</ele>
        <time>2022-08-28T08:44:13Z</time>
      </trkpt>
      <trkpt lat="42.2847190" lon="-8.3736210">
        <ele>567.8</ele>
        <time>2022-08-28T08:44:16Z</time>
      </trkpt>
      <trkpt lat="42.2847750" lon="-8.3736410">
        <ele>568.6</ele>
        <time>2022-08-28T08:44:21Z</time>
      </trkpt>
      <trkpt lat="42.2848000" lon="-8.3736500">
        <ele>569.0</ele>
        <time>2022-08-28T08:44:23Z</time>
      </trkpt>
      <trkpt lat="42.2848430" lon="-8.3736800">
        <ele>570.2</ele>
        <time>2022-08-28T08:44:27Z</time>
      </trkpt>
      <trkpt lat="42.2848560" lon="-8.3736820">
        <ele>570.4</ele>
        <time>2022-08-28T08:44:28Z</time>
      </trkpt>
      <trkpt lat="42.2849080" lon="-8.3736890">
        <ele>571.2</ele>
        <time>2022-08-28T08:44:32Z</time>
      </trkpt>
      <trkpt lat="42.2849560" lon="-8.3736910">
        <ele>572.2</ele>
        <time>2022-08-28T08:44:36Z</time>
      </trkpt>
      <trkpt lat="42.2849690" lon="-8.3736940">
        <ele>572.4</ele>
        <time>2022-08-28T08:44:37Z</time>
      </trkpt>
      <trkpt lat="42.2850310" lon="-8.3736900">
        <ele>573.4</ele>
        <time>2022-08-28T08:44:42Z</time>
      </trkpt>
      <trkpt lat="42.2850420" lon="-8.3736840">
        <ele>573.6</ele>
        <time>2022-08-28T08:44:43Z</time>
      </trkpt>
      <trkpt lat="42.2850600" lon="-8.3736670">
        <ele>574.0</ele>
        <time>2022-08-28T08:44:45Z</time>
      </trkpt>
      <trkpt lat="42.2850890" lon="-8.3736520">
        <ele>574.8</ele>
        <time>2022-08-28T08:44:48Z</time>
      </trkpt>
      <trkpt lat="42.2851260" lon="-8.3736470">
        <ele>575.8</ele>
        <time>2022-08-28T08:44:51Z</time>
      </trkpt>
      <trkpt lat="42.2851510" lon="-8.3736450">
        <ele>576.0</ele>
        <time>2022-08-28T08:44:53Z</time>
      </trkpt>
      <trkpt lat="42.2852440" lon="-8.3736390">
        <ele>577.2</ele>
        <time>2022-08-28T08:45:00Z</time>
      </trkpt>
      <trkpt lat="42.2852600" lon="-8.3736390">
        <ele>577.4</ele>
        <time>2022-08-28T08:45:01Z</time>
      </trkpt>
      <trkpt lat="42.2853430" lon="-8.3736370">
        <ele>578.2</ele>
        <time>2022-08-28T08:45:07Z</time>
      </trkpt>
      <trkpt lat="42.2853690" lon="-8.3736390">
        <ele>578.4</ele>
        <time>2022-08-28T08:45:09Z</time>
      </trkpt>
      <trkpt lat="42.2854620" lon="-8.3736600">
        <ele>579.4</ele>
        <time>2022-08-28T08:45:17Z</time>
      </trkpt>
      <trkpt lat="42.2854900" lon="-8.3736640">
        <ele>579.8</ele>
        <time>2022-08-28T08:45:19Z</time>
      </trkpt>
      <trkpt lat="42.2855280" lon="-8.3736740">
        <ele>580.6</ele>
        <time>2022-08-28T08:45:22Z</time>
      </trkpt>
      <trkpt lat="42.2855810" lon="-8.3736860">
        <ele>581.2</ele>
        <time>2022-08-28T08:45:26Z</time>
      </trkpt>
      <trkpt lat="42.2856220" lon="-8.3736810">
        <ele>581.6</ele>
        <time>2022-08-28T08:45:29Z</time>
      </trkpt>
      <trkpt lat="42.2856970" lon="-8.3736540">
        <ele>582.6</ele>
        <time>2022-08-28T08:45:35Z</time>
      </trkpt>
      <trkpt lat="42.2857090" lon="-8.3736520">
        <ele>582.8</ele>
        <time>2022-08-28T08:45:36Z</time>
      </trkpt>
      <trkpt lat="42.2857770" lon="-8.3736190">
        <ele>584.0</ele>
        <time>2022-08-28T08:45:42Z</time>
      </trkpt>
      <trkpt lat="42.2858510" lon="-8.3735760">
        <ele>585.0</ele>
        <time>2022-08-28T08:45:49Z</time>
      </trkpt>
      <trkpt lat="42.2858710" lon="-8.3735650">
        <ele>585.0</ele>
        <time>2022-08-28T08:45:51Z</time>
      </trkpt>
      <trkpt lat="42.2859190" lon="-8.3735380">
        <ele>586.2</ele>
        <time>2022-08-28T08:45:56Z</time>
      </trkpt>
      <trkpt lat="42.2859510" lon="-8.3735240">
        <ele>586.6</ele>
        <time>2022-08-28T08:45:59Z</time>
      </trkpt>
      <trkpt lat="42.2859800" lon="-8.3735130">
        <ele>587.2</ele>
        <time>2022-08-28T08:46:02Z</time>
      </trkpt>
      <trkpt lat="42.2860140" lon="-8.3735000">
        <ele>587.4</ele>
        <time>2022-08-28T08:46:05Z</time>
      </trkpt>
      <trkpt lat="42.2860700" lon="-8.3734830">
        <ele>588.2</ele>
        <time>2022-08-28T08:46:10Z</time>
      </trkpt>
      <trkpt lat="42.2861000" lon="-8.3734710">
        <ele>589.0</ele>
        <time>2022-08-28T08:46:13Z</time>
      </trkpt>
      <trkpt lat="42.2861110" lon="-8.3734650">
        <ele>589.2</ele>
        <time>2022-08-28T08:46:14Z</time>
      </trkpt>
      <trkpt lat="42.2861210" lon="-8.3734590">
        <ele>589.4</ele>
        <time>2022-08-28T08:46:15Z</time>
      </trkpt>
      <trkpt lat="42.2861720" lon="-8.3734310">
        <ele>590.4</ele>
        <time>2022-08-28T08:46:20Z</time>
      </trkpt>
      <trkpt lat="42.2861930" lon="-8.3734190">
        <ele>590.6</ele>
        <time>2022-08-28T08:46:22Z</time>
      </trkpt>
      <trkpt lat="42.2862460" lon="-8.3733930">
        <ele>591.6</ele>
        <time>2022-08-28T08:46:27Z</time>
      </trkpt>
      <trkpt lat="42.2862890" lon="-8.3733730">
        <ele>592.2</ele>
        <time>2022-08-28T08:46:31Z</time>
      </trkpt>
      <trkpt lat="42.2863200" lon="-8.3733600">
        <ele>592.6</ele>
        <time>2022-08-28T08:46:34Z</time>
      </trkpt>
      <trkpt lat="42.2863990" lon="-8.3733250">
        <ele>593.6</ele>
        <time>2022-08-28T08:46:41Z</time>
      </trkpt>
      <trkpt lat="42.2864090" lon="-8.3733200">
        <ele>593.8</ele>
        <time>2022-08-28T08:46:42Z</time>
      </trkpt>
      <trkpt lat="42.2864820" lon="-8.3732810">
        <ele>594.8</ele>
        <time>2022-08-28T08:46:48Z</time>
      </trkpt>
      <trkpt lat="42.2865050" lon="-8.3732660">
        <ele>595.0</ele>
        <time>2022-08-28T08:46:50Z</time>
      </trkpt>
      <trkpt lat="42.2865610" lon="-8.3732220">
        <ele>595.8</ele>
        <time>2022-08-28T08:46:56Z</time>
      </trkpt>
      <trkpt lat="42.2866110" lon="-8.3731830">
        <ele>596.8</ele>
        <time>2022-08-28T08:47:01Z</time>
      </trkpt>
      <trkpt lat="42.2866210" lon="-8.3731750">
        <ele>597.0</ele>
        <time>2022-08-28T08:47:02Z</time>
      </trkpt>
      <trkpt lat="42.2866860" lon="-8.3731290">
        <ele>598.0</ele>
        <time>2022-08-28T08:47:08Z</time>
      </trkpt>
      <trkpt lat="42.2866970" lon="-8.3731210">
        <ele>598.2</ele>
        <time>2022-08-28T08:47:09Z</time>
      </trkpt>
      <trkpt lat="42.2867600" lon="-8.3730810">
        <ele>599.2</ele>
        <time>2022-08-28T08:47:15Z</time>
      </trkpt>
      <trkpt lat="42.2867760" lon="-8.3730690">
        <ele>599.8</ele>
        <time>2022-08-28T08:47:17Z</time>
      </trkpt>
      <trkpt lat="42.2867960" lon="-8.3730540">
        <ele>600.2</ele>
        <time>2022-08-28T08:47:19Z</time>
      </trkpt>
      <trkpt lat="42.2868530" lon="-8.3729990">
        <ele>601.0</ele>
        <time>2022-08-28T08:47:25Z</time>
      </trkpt>
      <trkpt lat="42.2868610" lon="-8.3729890">
        <ele>601.2</ele>
        <time>2022-08-28T08:47:26Z</time>
      </trkpt>
      <trkpt lat="42.2869220" lon="-8.3729120">
        <ele>602.2</ele>
        <time>2022-08-28T08:47:34Z</time>
      </trkpt>
      <trkpt lat="42.2869310" lon="-8.3729010">
        <ele>602.4</ele>
        <time>2022-08-28T08:47:35Z</time>
      </trkpt>
      <trkpt lat="42.2869790" lon="-8.3728430">
        <ele>603.4</ele>
        <time>2022-08-28T08:47:41Z</time>
      </trkpt>
      <trkpt lat="42.2870380" lon="-8.3727870">
        <ele>604.6</ele>
        <time>2022-08-28T08:47:47Z</time>
      </trkpt>
      <trkpt lat="42.2870570" lon="-8.3727740">
        <ele>604.8</ele>
        <time>2022-08-28T08:47:49Z</time>
      </trkpt>
      <trkpt lat="42.2871010" lon="-8.3727440">
        <ele>605.6</ele>
        <time>2022-08-28T08:47:53Z</time>
      </trkpt>
      <trkpt lat="42.2871210" lon="-8.3727280">
        <ele>605.8</ele>
        <time>2022-08-28T08:47:55Z</time>
      </trkpt>
      <trkpt lat="42.2871710" lon="-8.3726750">
        <ele>607.0</ele>
        <time>2022-08-28T08:48:01Z</time>
      </trkpt>
      <trkpt lat="42.2871900" lon="-8.3726570">
        <ele>607.2</ele>
        <time>2022-08-28T08:48:03Z</time>
      </trkpt>
      <trkpt lat="42.2872350" lon="-8.3726190">
        <ele>608.0</ele>
        <time>2022-08-28T08:48:08Z</time>
      </trkpt>
      <trkpt lat="42.2872830" lon="-8.3725820">
        <ele>609.2</ele>
        <time>2022-08-28T08:48:13Z</time>
      </trkpt>
      <trkpt lat="42.2872940" lon="-8.3725730">
        <ele>609.4</ele>
        <time>2022-08-28T08:48:14Z</time>
      </trkpt>
      <trkpt lat="42.2873240" lon="-8.3725480">
        <ele>610.2</ele>
        <time>2022-08-28T08:48:17Z</time>
      </trkpt>
      <trkpt lat="42.2873800" lon="-8.3725000">
        <ele>611.4</ele>
        <time>2022-08-28T08:48:23Z</time>
      </trkpt>
      <trkpt lat="42.2874000" lon="-8.3724820">
        <ele>611.6</ele>
        <time>2022-08-28T08:48:25Z</time>
      </trkpt>
      <trkpt lat="42.2874380" lon="-8.3724460">
        <ele>612.6</ele>
        <time>2022-08-28T08:48:30Z</time>
      </trkpt>
      <trkpt lat="42.2874730" lon="-8.3723980">
        <ele>613.4</ele>
        <time>2022-08-28T08:48:35Z</time>
      </trkpt>
      <trkpt lat="42.2874890" lon="-8.3723800">
        <ele>613.8</ele>
        <time>2022-08-28T08:48:37Z</time>
      </trkpt>
      <trkpt lat="42.2875490" lon="-8.3723280">
        <ele>614.6</ele>
        <time>2022-08-28T08:48:43Z</time>
      </trkpt>
      <trkpt lat="42.2875570" lon="-8.3723200">
        <ele>614.8</ele>
        <time>2022-08-28T08:48:44Z</time>
      </trkpt>
      <trkpt lat="42.2876110" lon="-8.3722590">
        <ele>615.8</ele>
        <time>2022-08-28T08:48:51Z</time>
      </trkpt>
      <trkpt lat="42.2876200" lon="-8.3722500">
        <ele>616.0</ele>
        <time>2022-08-28T08:48:52Z</time>
      </trkpt>
      <trkpt lat="42.2876600" lon="-8.3721910">
        <ele>616.8</ele>
        <time>2022-08-28T08:48:58Z</time>
      </trkpt>
      <trkpt lat="42.2876680" lon="-8.3721820">
        <ele>617.0</ele>
        <time>2022-08-28T08:48:59Z</time>
      </trkpt>
      <trkpt lat="42.2877080" lon="-8.3721190">
        <ele>618.0</ele>
        <time>2022-08-28T08:49:05Z</time>
      </trkpt>
      <trkpt lat="42.2877480" lon="-8.3720570">
        <ele>619.0</ele>
        <time>2022-08-28T08:49:11Z</time>
      </trkpt>
      <trkpt lat="42.2877540" lon="-8.3720450">
        <ele>619.0</ele>
        <time>2022-08-28T08:49:12Z</time>
      </trkpt>
      <trkpt lat="42.2877900" lon="-8.3719600">
        <ele>620.2</ele>
        <time>2022-08-28T08:49:18Z</time>
      </trkpt>
      <trkpt lat="42.2877940" lon="-8.3719450">
        <ele>620.2</ele>
        <time>2022-08-28T08:49:19Z</time>
      </trkpt>
      <trkpt lat="42.2878180" lon="-8.3718820">
        <ele>621.2</ele>
        <time>2022-08-28T08:49:24Z</time>
      </trkpt>
      <trkpt lat="42.2878290" lon="-8.3718450">
        <ele>621.8</ele>
        <time>2022-08-28T08:49:27Z</time>
      </trkpt>
      <trkpt lat="42.2878310" lon="-8.3718320">
        <ele>622.2</ele>
        <time>2022-08-28T08:49:28Z</time>
      </trkpt>
      <trkpt lat="42.2878340" lon="-8.3718050">
        <ele>622.6</ele>
        <time>2022-08-28T08:49:30Z</time>
      </trkpt>
      <trkpt lat="42.2878340" lon="-8.3717480">
        <ele>623.2</ele>
        <time>2022-08-28T08:49:34Z</time>
      </trkpt>
      <trkpt lat="42.2878350" lon="-8.3717340">
        <ele>623.4</ele>
        <time>2022-08-28T08:49:35Z</time>
      </trkpt>
      <trkpt lat="42.2878410" lon="-8.3716730">
        <ele>624.2</ele>
        <time>2022-08-28T08:49:39Z</time>
      </trkpt>
      <trkpt lat="42.2878510" lon="-8.3716140">
        <ele>625.0</ele>
        <time>2022-08-28T08:49:43Z</time>
      </trkpt>
      <trkpt lat="42.2878560" lon="-8.3715840">
        <ele>625.4</ele>
        <time>2022-08-28T08:49:45Z</time>
      </trkpt>
      <trkpt lat="42.2878740" lon="-8.3715200">
        <ele>626.4</ele>
        <time>2022-08-28T08:49:50Z</time>
      </trkpt>
      <trkpt lat="42.2878790" lon="-8.3715060">
        <ele>626.6</ele>
        <time>2022-08-28T08:49:51Z</time>
      </trkpt>
      <trkpt lat="42.2878960" lon="-8.3714240">
        <ele>627.6</ele>
        <time>2022-08-28T08:49:56Z</time>
      </trkpt>
      <trkpt lat="42.2879080" lon="-8.3713590">
        <ele>628.0</ele>
        <time>2022-08-28T08:50:00Z</time>
      </trkpt>
      <trkpt lat="42.2879160" lon="-8.3712990">
        <ele>628.6</ele>
        <time>2022-08-28T08:50:04Z</time>
      </trkpt>
      <trkpt lat="42.2879420" lon="-8.3712150">
        <ele>629.6</ele>
        <time>2022-08-28T08:50:10Z</time>
      </trkpt>
      <trkpt lat="42.2879730" lon="-8.3711290">
        <ele>630.8</ele>
        <time>2022-08-28T08:50:16Z</time>
      </trkpt>
      <trkpt lat="42.2879910" lon="-8.3710870">
        <ele>631.0</ele>
        <time>2022-08-28T08:50:19Z</time>
      </trkpt>
      <trkpt lat="42.2880260" lon="-8.3710170">
        <ele>631.8</ele>
        <time>2022-08-28T08:50:24Z</time>
      </trkpt>
      <trkpt lat="42.2880590" lon="-8.3709560">
        <ele>632.6</ele>
        <time>2022-08-28T08:50:29Z</time>
      </trkpt>
      <trkpt lat="42.2880730" lon="-8.3709300">
        <ele>632.8</ele>
        <time>2022-08-28T08:50:31Z</time>
      </trkpt>
      <trkpt lat="42.2881210" lon="-8.3708440">
        <ele>634.0</ele>
        <time>2022-08-28T08:50:38Z</time>
      </trkpt>
      <trkpt lat="42.2881770" lon="-8.3707810">
        <ele>635.2</ele>
        <time>2022-08-28T08:50:44Z</time>
      </trkpt>
      <trkpt lat="42.2881980" lon="-8.3707680">
        <ele>635.6</ele>
        <time>2022-08-28T08:50:46Z</time>
      </trkpt>
      <trkpt lat="42.2882400" lon="-8.3707520">
        <ele>636.2</ele>
        <time>2022-08-28T08:50:50Z</time>
      </trkpt>
      <trkpt lat="42.2882880" lon="-8.3707520">
        <ele>636.6</ele>
        <time>2022-08-28T08:50:54Z</time>
      </trkpt>
      <trkpt lat="42.2884020" lon="-8.3707840">
        <ele>637.4</ele>
        <time>2022-08-28T08:51:03Z</time>
      </trkpt>
      <trkpt lat="42.2885110" lon="-8.3708280">
        <ele>638.2</ele>
        <time>2022-08-28T08:51:10Z</time>
      </trkpt>
      <trkpt lat="42.2885650" lon="-8.3708360">
        <ele>638.4</ele>
        <time>2022-08-28T08:51:14Z</time>
      </trkpt>
      <trkpt lat="42.2886280" lon="-8.3708470">
        <ele>639.2</ele>
        <time>2022-08-28T08:51:19Z</time>
      </trkpt>
      <trkpt lat="42.2886520" lon="-8.3708500">
        <ele>639.6</ele>
        <time>2022-08-28T08:51:21Z</time>
      </trkpt>
      <trkpt lat="42.2887230" lon="-8.3708570">
        <ele>640.6</ele>
        <time>2022-08-28T08:51:27Z</time>
      </trkpt>
      <trkpt lat="42.2887330" lon="-8.3708560">
        <ele>640.8</ele>
        <time>2022-08-28T08:51:28Z</time>
      </trkpt>
      <trkpt lat="42.2887780" lon="-8.3708430">
        <ele>641.8</ele>
        <time>2022-08-28T08:51:32Z</time>
      </trkpt>
      <trkpt lat="42.2888260" lon="-8.3707940">
        <ele>642.6</ele>
        <time>2022-08-28T08:51:37Z</time>
      </trkpt>
      <trkpt lat="42.2888330" lon="-8.3707820">
        <ele>643.2</ele>
        <time>2022-08-28T08:51:38Z</time>
      </trkpt>
      <trkpt lat="42.2888450" lon="-8.3707030">
        <ele>644.2</ele>
        <time>2022-08-28T08:51:43Z</time>
      </trkpt>
      <trkpt lat="42.2888440" lon="-8.3706860">
        <ele>644.4</ele>
        <time>2022-08-28T08:51:44Z</time>
      </trkpt>
      <trkpt lat="42.2888370" lon="-8.3705930">
        <ele>645.2</ele>
        <time>2022-08-28T08:51:50Z</time>
      </trkpt>
      <trkpt lat="42.2888320" lon="-8.3705640">
        <ele>645.6</ele>
        <time>2022-08-28T08:51:52Z</time>
      </trkpt>
      <trkpt lat="42.2888230" lon="-8.3704930">
        <ele>646.2</ele>
        <time>2022-08-28T08:51:57Z</time>
      </trkpt>
      <trkpt lat="42.2888190" lon="-8.3704640">
        <ele>646.4</ele>
        <time>2022-08-28T08:51:59Z</time>
      </trkpt>
      <trkpt lat="42.2888140" lon="-8.3704350">
        <ele>646.6</ele>
        <time>2022-08-28T08:52:01Z</time>
      </trkpt>
      <trkpt lat="42.2888050" lon="-8.3703880">
        <ele>647.2</ele>
        <time>2022-08-28T08:52:04Z</time>
      </trkpt>
      <trkpt lat="42.2887960" lon="-8.3703230">
        <ele>648.0</ele>
        <time>2022-08-28T08:52:09Z</time>
      </trkpt>
      <trkpt lat="42.2888030" lon="-8.3702810">
        <ele>648.4</ele>
        <time>2022-08-28T08:52:12Z</time>
      </trkpt>
      <trkpt lat="42.2888210" lon="-8.3702230">
        <ele>649.4</ele>
        <time>2022-08-28T08:52:17Z</time>
      </trkpt>
      <trkpt lat="42.2888610" lon="-8.3701630">
        <ele>650.4</ele>
        <time>2022-08-28T08:52:23Z</time>
      </trkpt>
      <trkpt lat="42.2888740" lon="-8.3701470">
        <ele>650.8</ele>
        <time>2022-08-28T08:52:25Z</time>
      </trkpt>
      <trkpt lat="42.2888980" lon="-8.3701030">
        <ele>651.4</ele>
        <time>2022-08-28T08:52:29Z</time>
      </trkpt>
      <trkpt lat="42.2889250" lon="-8.3700650">
        <ele>652.0</ele>
        <time>2022-08-28T08:52:33Z</time>
      </trkpt>
      <trkpt lat="42.2889460" lon="-8.3700260">
        <ele>652.6</ele>
        <time>2022-08-28T08:52:36Z</time>
      </trkpt>
      <trkpt lat="42.2889800" lon="-8.3699660">
        <ele>653.6</ele>
        <time>2022-08-28T08:52:41Z</time>
      </trkpt>
      <trkpt lat="42.2890340" lon="-8.3699130">
        <ele>654.6</ele>
        <time>2022-08-28T08:52:47Z</time>
      </trkpt>
      <trkpt lat="42.2890510" lon="-8.3698970">
        <ele>655.0</ele>
        <time>2022-08-28T08:52:49Z</time>
      </trkpt>
      <trkpt lat="42.2891080" lon="-8.3698430">
        <ele>655.6</ele>
        <time>2022-08-28T08:52:55Z</time>
      </trkpt>
      <trkpt lat="42.2891250" lon="-8.3698210">
        <ele>655.8</ele>
        <time>2022-08-28T08:52:57Z</time>
      </trkpt>
      <trkpt lat="42.2891740" lon="-8.3697700">
        <ele>656.6</ele>
        <time>2022-08-28T08:53:02Z</time>
      </trkpt>
      <trkpt lat="42.2892120" lon="-8.3697340">
        <ele>657.2</ele>
        <time>2022-08-28T08:53:06Z</time>
      </trkpt>
      <trkpt lat="42.2892480" lon="-8.3696960">
        <ele>657.8</ele>
        <time>2022-08-28T08:53:10Z</time>
      </trkpt>
      <trkpt lat="42.2892850" lon="-8.3696560">
        <ele>658.6</ele>
        <time>2022-08-28T08:53:14Z</time>
      </trkpt>
      <trkpt lat="42.2893040" lon="-8.3696020">
        <ele>659.0</ele>
        <time>2022-08-28T08:53:18Z</time>
      </trkpt>
      <trkpt lat="42.2893190" lon="-8.3695610">
        <ele>659.6</ele>
        <time>2022-08-28T08:53:21Z</time>
      </trkpt>
      <trkpt lat="42.2893330" lon="-8.3695170">
        <ele>660.2</ele>
        <time>2022-08-28T08:53:24Z</time>
      </trkpt>
      <trkpt lat="42.2893410" lon="-8.3694660">
        <ele>660.6</ele>
        <time>2022-08-28T08:53:27Z</time>
      </trkpt>
      <trkpt lat="42.2893400" lon="-8.3694510">
        <ele>660.8</ele>
        <time>2022-08-28T08:53:28Z</time>
      </trkpt>
      <trkpt lat="42.2893390" lon="-8.3694180">
        <ele>661.4</ele>
        <time>2022-08-28T08:53:30Z</time>
      </trkpt>
      <trkpt lat="42.2893280" lon="-8.3693140">
        <ele>662.4</ele>
        <time>2022-08-28T08:53:35Z</time>
      </trkpt>
      <trkpt lat="42.2893240" lon="-8.3692940">
        <ele>662.6</ele>
        <time>2022-08-28T08:53:36Z</time>
      </trkpt>
      <trkpt lat="42.2892800" lon="-8.3691520">
        <ele>663.4</ele>
        <time>2022-08-28T08:53:43Z</time>
      </trkpt>
      <trkpt lat="42.2892340" lon="-8.3690440">
        <ele>664.4</ele>
        <time>2022-08-28T08:53:49Z</time>
      </trkpt>
      <trkpt lat="42.2892200" lon="-8.3690020">
        <ele>664.8</ele>
        <time>2022-08-28T08:53:51Z</time>
      </trkpt>
      <trkpt lat="42.2892020" lon="-8.3689430">
        <ele>665.4</ele>
        <time>2022-08-28T08:53:54Z</time>
      </trkpt>
      <trkpt lat="42.2891830" lon="-8.3688030">
        <ele>666.2</ele>
        <time>2022-08-28T08:54:00Z</time>
      </trkpt>
      <trkpt lat="42.2892130" lon="-8.3686750">
        <ele>666.4</ele>
        <time>2022-08-28T08:54:05Z</time>
      </trkpt>
      <trkpt lat="42.2892230" lon="-8.3686520">
        <ele>666.6</ele>
        <time>2022-08-28T08:54:06Z</time>
      </trkpt>
      <trkpt lat="42.2893340" lon="-8.3684580">
        <ele>666.6</ele>
        <time>2022-08-28T08:54:15Z</time>
      </trkpt>
      <trkpt lat="42.2893860" lon="-8.3683610">
        <ele>666.8</ele>
        <time>2022-08-28T08:54:21Z</time>
      </trkpt>
      <trkpt lat="42.2894140" lon="-8.3682460">
        <ele>667.2</ele>
        <time>2022-08-28T08:54:29Z</time>
      </trkpt>
      <trkpt lat="42.2894260" lon="-8.3682090">
        <ele>667.6</ele>
        <time>2022-08-28T08:54:31Z</time>
      </trkpt>
      <trkpt lat="42.2894550" lon="-8.3681310">
        <ele>668.0</ele>
        <time>2022-08-28T08:54:36Z</time>
      </trkpt>
      <trkpt lat="42.2894710" lon="-8.3680860">
        <ele>668.4</ele>
        <time>2022-08-28T08:54:39Z</time>
      </trkpt>
      <trkpt lat="42.2894900" lon="-8.3680300">
        <ele>669.4</ele>
        <time>2022-08-28T08:54:43Z</time>
      </trkpt>
      <trkpt lat="42.2894960" lon="-8.3680150">
        <ele>669.6</ele>
        <time>2022-08-28T08:54:44Z</time>
      </trkpt>
      <trkpt lat="42.2895170" lon="-8.3679540">
        <ele>671.0</ele>
        <time>2022-08-28T08:54:48Z</time>
      </trkpt>
      <trkpt lat="42.2895450" lon="-8.3679050">
        <ele>672.2</ele>
        <time>2022-08-28T08:54:52Z</time>
      </trkpt>
      <trkpt lat="42.2895710" lon="-8.3678390">
        <ele>673.2</ele>
        <time>2022-08-28T08:54:56Z</time>
      </trkpt>
      <trkpt lat="42.2895890" lon="-8.3677810">
        <ele>673.8</ele>
        <time>2022-08-28T08:55:00Z</time>
      </trkpt>
      <trkpt lat="42.2896070" lon="-8.3677380">
        <ele>674.4</ele>
        <time>2022-08-28T08:55:03Z</time>
      </trkpt>
      <trkpt lat="42.2896230" lon="-8.3676900">
        <ele>675.4</ele>
        <time>2022-08-28T08:55:07Z</time>
      </trkpt>
      <trkpt lat="42.2896280" lon="-8.3676740">
        <ele>675.6</ele>
        <time>2022-08-28T08:55:08Z</time>
      </trkpt>
      <trkpt lat="42.2896500" lon="-8.3676050">
        <ele>676.4</ele>
        <time>2022-08-28T08:55:12Z</time>
      </trkpt>
      <trkpt lat="42.2896510" lon="-8.3675740">
        <ele>676.6</ele>
        <time>2022-08-28T08:55:14Z</time>
      </trkpt>
      <trkpt lat="42.2896470" lon="-8.3674990">
        <ele>677.2</ele>
        <time>2022-08-28T08:55:19Z</time>
      </trkpt>
      <trkpt lat="42.2896430" lon="-8.3674710">
        <ele>677.8</ele>
        <time>2022-08-28T08:55:21Z</time>
      </trkpt>
      <trkpt lat="42.2896360" lon="-8.3674410">
        <ele>678.4</ele>
        <time>2022-08-28T08:55:23Z</time>
      </trkpt>
      <trkpt lat="42.2896100" lon="-8.3673640">
        <ele>679.4</ele>
        <time>2022-08-28T08:55:28Z</time>
      </trkpt>
      <trkpt lat="42.2896050" lon="-8.3673470">
        <ele>679.4</ele>
        <time>2022-08-28T08:55:29Z</time>
      </trkpt>
      <trkpt lat="42.2895800" lon="-8.3672830">
        <ele>680.4</ele>
        <time>2022-08-28T08:55:33Z</time>
      </trkpt>
      <trkpt lat="42.2895670" lon="-8.3672720">
        <ele>680.6</ele>
        <time>2022-08-28T08:55:34Z</time>
      </trkpt>
      <trkpt lat="42.2895550" lon="-8.3672630">
        <ele>680.8</ele>
        <time>2022-08-28T08:55:35Z</time>
      </trkpt>
      <trkpt lat="42.2895030" lon="-8.3672210">
        <ele>681.8</ele>
        <time>2022-08-28T08:55:39Z</time>
      </trkpt>
      <trkpt lat="42.2894770" lon="-8.3671960">
        <ele>682.0</ele>
        <time>2022-08-28T08:55:41Z</time>
      </trkpt>
      <trkpt lat="42.2893960" lon="-8.3671270">
        <ele>682.6</ele>
        <time>2022-08-28T08:55:47Z</time>
      </trkpt>
      <trkpt lat="42.2893540" lon="-8.3670880">
        <ele>683.0</ele>
        <time>2022-08-28T08:55:50Z</time>
      </trkpt>
      <trkpt lat="42.2892530" lon="-8.3669920">
        <ele>683.8</ele>
        <time>2022-08-28T08:55:58Z</time>
      </trkpt>
      <trkpt lat="42.2891620" lon="-8.3668800">
        <ele>685.0</ele>
        <time>2022-08-28T08:56:05Z</time>
      </trkpt>
      <trkpt lat="42.2891230" lon="-8.3668250">
        <ele>685.2</ele>
        <time>2022-08-28T08:56:08Z</time>
      </trkpt>
      <trkpt lat="42.2890230" lon="-8.3666590">
        <ele>686.0</ele>
        <time>2022-08-28T08:56:16Z</time>
      </trkpt>
      <trkpt lat="42.2889570" lon="-8.3665350">
        <ele>687.2</ele>
        <time>2022-08-28T08:56:22Z</time>
      </trkpt>
      <trkpt lat="42.2889480" lon="-8.3665140">
        <ele>687.4</ele>
        <time>2022-08-28T08:56:23Z</time>
      </trkpt>
      <trkpt lat="42.2889010" lon="-8.3664080">
        <ele>688.2</ele>
        <time>2022-08-28T08:56:28Z</time>
      </trkpt>
      <trkpt lat="42.2888730" lon="-8.3663530">
        <ele>688.6</ele>
        <time>2022-08-28T08:56:31Z</time>
      </trkpt>
      <trkpt lat="42.2888390" lon="-8.3662710">
        <ele>689.2</ele>
        <time>2022-08-28T08:56:35Z</time>
      </trkpt>
      <trkpt lat="42.2888130" lon="-8.3661900">
        <ele>689.6</ele>
        <time>2022-08-28T08:56:38Z</time>
      </trkpt>
      <trkpt lat="42.2888180" lon="-8.3659920">
        <ele>689.6</ele>
        <time>2022-08-28T08:56:44Z</time>
      </trkpt>
      <trkpt lat="42.2888640" lon="-8.3657090">
        <ele>689.4</ele>
        <time>2022-08-28T08:56:51Z</time>
      </trkpt>
      <trkpt lat="42.2888080" lon="-8.3655270">
        <ele>689.4</ele>
        <time>2022-08-28T08:56:56Z</time>
      </trkpt>
      <trkpt lat="42.2887420" lon="-8.3653880">
        <ele>689.8</ele>
        <time>2022-08-28T08:57:02Z</time>
      </trkpt>
      <trkpt lat="42.2886960" lon="-8.3653470">
        <ele>690.2</ele>
        <time>2022-08-28T08:57:05Z</time>
      </trkpt>
      <trkpt lat="42.2886370" lon="-8.3653230">
        <ele>690.4</ele>
        <time>2022-08-28T08:57:08Z</time>
      </trkpt>
      <trkpt lat="42.2884710" lon="-8.3652710">
        <ele>690.6</ele>
        <time>2022-08-28T08:57:13Z</time>
      </trkpt>
      <trkpt lat="42.2883260" lon="-8.3652000">
        <ele>690.6</ele>
        <time>2022-08-28T08:57:17Z</time>
      </trkpt>
      <trkpt lat="42.2882820" lon="-8.3651840">
        <ele>690.6</ele>
        <time>2022-08-28T08:57:18Z</time>
      </trkpt>
      <trkpt lat="42.2880260" lon="-8.3650920">
        <ele>689.8</ele>
        <time>2022-08-28T08:57:23Z</time>
      </trkpt>
      <trkpt lat="42.2879440" lon="-8.3650540">
        <ele>689.6</ele>
        <time>2022-08-28T08:57:25Z</time>
      </trkpt>
      <trkpt lat="42.2878690" lon="-8.3650010">
        <ele>689.0</ele>
        <time>2022-08-28T08:57:27Z</time>
      </trkpt>
      <trkpt lat="42.2878380" lon="-8.3649720">
        <ele>689.0</ele>
        <time>2022-08-28T08:57:28Z</time>
      </trkpt>
      <trkpt lat="42.2877930" lon="-8.3648970">
        <ele>687.8</ele>
        <time>2022-08-28T08:57:30Z</time>
      </trkpt>
      <trkpt lat="42.2877640" lon="-8.3647980">
        <ele>687.2</ele>
        <time>2022-08-28T08:57:32Z</time>
      </trkpt>
      <trkpt lat="42.2877550" lon="-8.3647440">
        <ele>687.0</ele>
        <time>2022-08-28T08:57:33Z</time>
      </trkpt>
      <trkpt lat="42.2877190" lon="-8.3646470">
        <ele>686.6</ele>
        <time>2022-08-28T08:57:35Z</time>
      </trkpt>
      <trkpt lat="42.2876630" lon="-8.3645760">
        <ele>686.0</ele>
        <time>2022-08-28T08:57:37Z</time>
      </trkpt>
      <trkpt lat="42.2875620" lon="-8.3644860">
        <ele>685.4</ele>
        <time>2022-08-28T08:57:40Z</time>
      </trkpt>
      <trkpt lat="42.2875230" lon="-8.3644560">
        <ele>685.4</ele>
        <time>2022-08-28T08:57:41Z</time>
      </trkpt>
      <trkpt lat="42.2874810" lon="-8.3644310">
        <ele>685.2</ele>
        <time>2022-08-28T08:57:42Z</time>
      </trkpt>
      <trkpt lat="42.2871970" lon="-8.3643420">
        <ele>684.4</ele>
        <time>2022-08-28T08:57:48Z</time>
      </trkpt>
      <trkpt lat="42.2871220" lon="-8.3643460">
        <ele>683.2</ele>
        <time>2022-08-28T08:57:51Z</time>
      </trkpt>
      <trkpt lat="42.2870820" lon="-8.3643450">
        <ele>681.8</ele>
        <time>2022-08-28T08:57:54Z</time>
      </trkpt>
      <trkpt lat="42.2870410" lon="-8.3643400">
        <ele>680.6</ele>
        <time>2022-08-28T08:57:58Z</time>
      </trkpt>
      <trkpt lat="42.2870330" lon="-8.3643330">
        <ele>680.2</ele>
        <time>2022-08-28T08:57:59Z</time>
      </trkpt>
      <trkpt lat="42.2870170" lon="-8.3642870">
        <ele>679.8</ele>
        <time>2022-08-28T08:58:03Z</time>
      </trkpt>
      <trkpt lat="42.2870320" lon="-8.3642600">
        <ele>679.8</ele>
        <time>2022-08-28T08:58:05Z</time>
      </trkpt>
      <trkpt lat="42.2870800" lon="-8.3642440">
        <ele>679.8</ele>
        <time>2022-08-28T08:58:09Z</time>
      </trkpt>
      <trkpt lat="42.2871050" lon="-8.3642470">
        <ele>679.8</ele>
        <time>2022-08-28T08:58:11Z</time>
      </trkpt>
      <trkpt lat="42.2871150" lon="-8.3642530">
        <ele>680.0</ele>
        <time>2022-08-28T08:58:14Z</time>
      </trkpt>
      <trkpt lat="42.2871660" lon="-8.3642380">
        <ele>681.2</ele>
        <time>2022-08-28T08:59:10Z</time>
      </trkpt>
      <trkpt lat="42.2872670" lon="-8.3642240">
        <ele>681.6</ele>
        <time>2022-08-28T08:59:17Z</time>
      </trkpt>
      <trkpt lat="42.2873360" lon="-8.3642090">
        <ele>682.6</ele>
        <time>2022-08-28T08:59:23Z</time>
      </trkpt>
      <trkpt lat="42.2873690" lon="-8.3642050">
        <ele>683.4</ele>
        <time>2022-08-28T08:59:26Z</time>
      </trkpt>
      <trkpt lat="42.2873780" lon="-8.3642040">
        <ele>683.6</ele>
        <time>2022-08-28T08:59:27Z</time>
      </trkpt>
      <trkpt lat="42.2874330" lon="-8.3642110">
        <ele>684.6</ele>
        <time>2022-08-28T08:59:32Z</time>
      </trkpt>
      <trkpt lat="42.2874580" lon="-8.3642140">
        <ele>685.2</ele>
        <time>2022-08-28T08:59:34Z</time>
      </trkpt>
      <trkpt lat="42.2874880" lon="-8.3642200">
        <ele>685.8</ele>
        <time>2022-08-28T08:59:37Z</time>
      </trkpt>
      <trkpt lat="42.2875250" lon="-8.3642360">
        <ele>687.0</ele>
        <time>2022-08-28T08:59:42Z</time>
      </trkpt>
      <trkpt lat="42.2875600" lon="-8.3642580">
        <ele>688.0</ele>
        <time>2022-08-28T08:59:48Z</time>
      </trkpt>
      <trkpt lat="42.2876720" lon="-8.3642900">
        <ele>690.0</ele>
        <time>2022-08-28T09:00:19Z</time>
      </trkpt>
      <trkpt lat="42.2877370" lon="-8.3643180">
        <ele>690.8</ele>
        <time>2022-08-28T09:00:24Z</time>
      </trkpt>
      <trkpt lat="42.2877670" lon="-8.3643220">
        <ele>691.0</ele>
        <time>2022-08-28T09:00:26Z</time>
      </trkpt>
      <trkpt lat="42.2878320" lon="-8.3643230">
        <ele>692.0</ele>
        <time>2022-08-28T09:00:31Z</time>
      </trkpt>
      <trkpt lat="42.2879220" lon="-8.3643240">
        <ele>693.2</ele>
        <time>2022-08-28T09:00:38Z</time>
      </trkpt>
      <trkpt lat="42.2879330" lon="-8.3643260">
        <ele>693.4</ele>
        <time>2022-08-28T09:00:39Z</time>
      </trkpt>
      <trkpt lat="42.2879940" lon="-8.3643280">
        <ele>694.4</ele>
        <time>2022-08-28T09:00:44Z</time>
      </trkpt>
      <trkpt lat="42.2880150" lon="-8.3643340">
        <ele>694.8</ele>
        <time>2022-08-28T09:00:46Z</time>
      </trkpt>
      <trkpt lat="42.2880610" lon="-8.3643420">
        <ele>695.4</ele>
        <time>2022-08-28T09:00:50Z</time>
      </trkpt>
      <trkpt lat="42.2881190" lon="-8.3643420">
        <ele>696.4</ele>
        <time>2022-08-28T09:00:55Z</time>
      </trkpt>
      <trkpt lat="42.2881450" lon="-8.3643420">
        <ele>696.6</ele>
        <time>2022-08-28T09:00:57Z</time>
      </trkpt>
      <trkpt lat="42.2882270" lon="-8.3643450">
        <ele>697.8</ele>
        <time>2022-08-28T09:01:04Z</time>
      </trkpt>
      <trkpt lat="42.2883120" lon="-8.3643490">
        <ele>698.8</ele>
        <time>2022-08-28T09:01:11Z</time>
      </trkpt>
      <trkpt lat="42.2884090" lon="-8.3643620">
        <ele>699.8</ele>
        <time>2022-08-28T09:01:19Z</time>
      </trkpt>
      <trkpt lat="42.2884210" lon="-8.3643650">
        <ele>700.0</ele>
        <time>2022-08-28T09:01:20Z</time>
      </trkpt>
      <trkpt lat="42.2884670" lon="-8.3643750">
        <ele>700.8</ele>
        <time>2022-08-28T09:01:24Z</time>
      </trkpt>
      <trkpt lat="42.2885180" lon="-8.3643910">
        <ele>701.4</ele>
        <time>2022-08-28T09:01:28Z</time>
      </trkpt>
      <trkpt lat="42.2885510" lon="-8.3644020">
        <ele>702.0</ele>
        <time>2022-08-28T09:01:31Z</time>
      </trkpt>
      <trkpt lat="42.2886170" lon="-8.3644410">
        <ele>703.0</ele>
        <time>2022-08-28T09:01:37Z</time>
      </trkpt>
      <trkpt lat="42.2886270" lon="-8.3644490">
        <ele>703.2</ele>
        <time>2022-08-28T09:01:38Z</time>
      </trkpt>
      <trkpt lat="42.2887300" lon="-8.3645050">
        <ele>704.2</ele>
        <time>2022-08-28T09:01:47Z</time>
      </trkpt>
      <trkpt lat="42.2887870" lon="-8.3645400">
        <ele>705.2</ele>
        <time>2022-08-28T09:01:53Z</time>
      </trkpt>
      <trkpt lat="42.2887890" lon="-8.3645410">
        <ele>705.6</ele>
        <time>2022-08-28T09:01:54Z</time>
      </trkpt>
      <trkpt lat="42.2888180" lon="-8.3645400">
        <ele>707.0</ele>
        <time>2022-08-28T09:02:01Z</time>
      </trkpt>
      <trkpt lat="42.2888580" lon="-8.3645390">
        <ele>707.2</ele>
        <time>2022-08-28T09:02:04Z</time>
      </trkpt>
      <trkpt lat="42.2889330" lon="-8.3645260">
        <ele>707.6</ele>
        <time>2022-08-28T09:02:12Z</time>
      </trkpt>
      <trkpt lat="42.2889530" lon="-8.3645210">
        <ele>708.0</ele>
        <time>2022-08-28T09:02:15Z</time>
      </trkpt>
      <trkpt lat="42.2889730" lon="-8.3645280">
        <ele>708.8</ele>
        <time>2022-08-28T09:02:19Z</time>
      </trkpt>
      <trkpt lat="42.2889730" lon="-8.3645280">
        <ele>709.0</ele>
        <time>2022-08-28T09:02:20Z</time>
      </trkpt>
      <trkpt lat="42.2890910" lon="-8.3644690">
        <ele>709.8</ele>
        <time>2022-08-28T09:02:42Z</time>
      </trkpt>
      <trkpt lat="42.2891190" lon="-8.3644620">
        <ele>709.8</ele>
        <time>2022-08-28T09:02:44Z</time>
      </trkpt>
      <trkpt lat="42.2892000" lon="-8.3644290">
        <ele>710.6</ele>
        <time>2022-08-28T09:02:51Z</time>
      </trkpt>
      <trkpt lat="42.2892280" lon="-8.3644240">
        <ele>710.8</ele>
        <time>2022-08-28T09:02:53Z</time>
      </trkpt>
      <trkpt lat="42.2892780" lon="-8.3644230">
        <ele>711.8</ele>
        <time>2022-08-28T09:02:57Z</time>
      </trkpt>
      <trkpt lat="42.2892920" lon="-8.3644230">
        <ele>712.0</ele>
        <time>2022-08-28T09:02:58Z</time>
      </trkpt>
      <trkpt lat="42.2893650" lon="-8.3644330">
        <ele>713.0</ele>
        <time>2022-08-28T09:03:04Z</time>
      </trkpt>
      <trkpt lat="42.2893980" lon="-8.3644440">
        <ele>713.8</ele>
        <time>2022-08-28T09:03:07Z</time>
      </trkpt>
      <trkpt lat="42.2894210" lon="-8.3644560">
        <ele>714.2</ele>
        <time>2022-08-28T09:03:09Z</time>
      </trkpt>
      <trkpt lat="42.2894880" lon="-8.3644950">
        <ele>715.0</ele>
        <time>2022-08-28T09:03:15Z</time>
      </trkpt>
      <trkpt lat="42.2895110" lon="-8.3645070">
        <ele>715.4</ele>
        <time>2022-08-28T09:03:17Z</time>
      </trkpt>
      <trkpt lat="42.2895870" lon="-8.3645490">
        <ele>716.4</ele>
        <time>2022-08-28T09:03:24Z</time>
      </trkpt>
      <trkpt lat="42.2896000" lon="-8.3645560">
        <ele>716.6</ele>
        <time>2022-08-28T09:03:25Z</time>
      </trkpt>
      <trkpt lat="42.2896630" lon="-8.3645900">
        <ele>717.6</ele>
        <time>2022-08-28T09:03:30Z</time>
      </trkpt>
      <trkpt lat="42.2897270" lon="-8.3646240">
        <ele>718.2</ele>
        <time>2022-08-28T09:03:35Z</time>
      </trkpt>
      <trkpt lat="42.2897510" lon="-8.3646420">
        <ele>718.6</ele>
        <time>2022-08-28T09:03:37Z</time>
      </trkpt>
      <trkpt lat="42.2898250" lon="-8.3646740">
        <ele>719.4</ele>
        <time>2022-08-28T09:03:43Z</time>
      </trkpt>
      <trkpt lat="42.2898400" lon="-8.3646790">
        <ele>719.6</ele>
        <time>2022-08-28T09:03:44Z</time>
      </trkpt>
      <trkpt lat="42.2899270" lon="-8.3647160">
        <ele>720.6</ele>
        <time>2022-08-28T09:03:51Z</time>
      </trkpt>
      <trkpt lat="42.2899880" lon="-8.3647470">
        <ele>721.8</ele>
        <time>2022-08-28T09:03:56Z</time>
      </trkpt>
      <trkpt lat="42.2900620" lon="-8.3647920">
        <ele>722.6</ele>
        <time>2022-08-28T09:04:02Z</time>
      </trkpt>
      <trkpt lat="42.2900740" lon="-8.3648020">
        <ele>722.8</ele>
        <time>2022-08-28T09:04:03Z</time>
      </trkpt>
      <trkpt lat="42.2901440" lon="-8.3648980">
        <ele>724.0</ele>
        <time>2022-08-28T09:04:10Z</time>
      </trkpt>
      <trkpt lat="42.2901500" lon="-8.3649160">
        <ele>724.2</ele>
        <time>2022-08-28T09:04:11Z</time>
      </trkpt>
      <trkpt lat="42.2901940" lon="-8.3650190">
        <ele>725.0</ele>
        <time>2022-08-28T09:04:17Z</time>
      </trkpt>
      <trkpt lat="42.2902030" lon="-8.3650350">
        <ele>725.2</ele>
        <time>2022-08-28T09:04:18Z</time>
      </trkpt>
      <trkpt lat="42.2902710" lon="-8.3651490">
        <ele>726.2</ele>
        <time>2022-08-28T09:04:25Z</time>
      </trkpt>
      <trkpt lat="42.2902850" lon="-8.3651620">
        <ele>726.2</ele>
        <time>2022-08-28T09:04:26Z</time>
      </trkpt>
      <trkpt lat="42.2904100" lon="-8.3652510">
        <ele>727.2</ele>
        <time>2022-08-28T09:04:33Z</time>
      </trkpt>
      <trkpt lat="42.2905590" lon="-8.3653970">
        <ele>727.6</ele>
        <time>2022-08-28T09:04:42Z</time>
      </trkpt>
      <trkpt lat="42.2906280" lon="-8.3654910">
        <ele>728.0</ele>
        <time>2022-08-28T09:04:47Z</time>
      </trkpt>
      <trkpt lat="42.2906670" lon="-8.3655450">
        <ele>728.4</ele>
        <time>2022-08-28T09:04:50Z</time>
      </trkpt>
      <trkpt lat="42.2907530" lon="-8.3656690">
        <ele>729.2</ele>
        <time>2022-08-28T09:04:56Z</time>
      </trkpt>
      <trkpt lat="42.2907800" lon="-8.3657120">
        <ele>729.4</ele>
        <time>2022-08-28T09:04:58Z</time>
      </trkpt>
      <trkpt lat="42.2908640" lon="-8.3658680">
        <ele>730.2</ele>
        <time>2022-08-28T09:05:05Z</time>
      </trkpt>
      <trkpt lat="42.2908780" lon="-8.3658910">
        <ele>730.4</ele>
        <time>2022-08-28T09:05:06Z</time>
      </trkpt>
      <trkpt lat="42.2909560" lon="-8.3660380">
        <ele>731.2</ele>
        <time>2022-08-28T09:05:13Z</time>
      </trkpt>
      <trkpt lat="42.2910190" lon="-8.3661540">
        <ele>732.2</ele>
        <time>2022-08-28T09:05:19Z</time>
      </trkpt>
      <trkpt lat="42.2910570" lon="-8.3662140">
        <ele>732.6</ele>
        <time>2022-08-28T09:05:22Z</time>
      </trkpt>
      <trkpt lat="42.2911040" lon="-8.3662660">
        <ele>733.2</ele>
        <time>2022-08-28T09:05:25Z</time>
      </trkpt>
      <trkpt lat="42.2911750" lon="-8.3663310">
        <ele>733.8</ele>
        <time>2022-08-28T09:05:29Z</time>
      </trkpt>
      <trkpt lat="42.2912950" lon="-8.3664330">
        <ele>734.4</ele>
        <time>2022-08-28T09:05:36Z</time>
      </trkpt>
      <trkpt lat="42.2913100" lon="-8.3664510">
        <ele>734.6</ele>
        <time>2022-08-28T09:05:37Z</time>
      </trkpt>
      <trkpt lat="42.2913640" lon="-8.3666010">
        <ele>735.4</ele>
        <time>2022-08-28T09:05:43Z</time>
      </trkpt>
      <trkpt lat="42.2914230" lon="-8.3667380">
        <ele>736.2</ele>
        <time>2022-08-28T09:05:49Z</time>
      </trkpt>
      <trkpt lat="42.2914450" lon="-8.3667740">
        <ele>736.4</ele>
        <time>2022-08-28T09:05:51Z</time>
      </trkpt>
      <trkpt lat="42.2914990" lon="-8.3668590">
        <ele>737.4</ele>
        <time>2022-08-28T09:05:56Z</time>
      </trkpt>
      <trkpt lat="42.2915090" lon="-8.3668810">
        <ele>737.6</ele>
        <time>2022-08-28T09:05:57Z</time>
      </trkpt>
      <trkpt lat="42.2915710" lon="-8.3669680">
        <ele>738.2</ele>
        <time>2022-08-28T09:06:02Z</time>
      </trkpt>
      <trkpt lat="42.2915980" lon="-8.3670000">
        <ele>738.8</ele>
        <time>2022-08-28T09:06:04Z</time>
      </trkpt>
      <trkpt lat="42.2916760" lon="-8.3670630">
        <ele>739.4</ele>
        <time>2022-08-28T09:06:10Z</time>
      </trkpt>
      <trkpt lat="42.2917220" lon="-8.3670850">
        <ele>739.6</ele>
        <time>2022-08-28T09:06:13Z</time>
      </trkpt>
      <trkpt lat="42.2917720" lon="-8.3671050">
        <ele>740.4</ele>
        <time>2022-08-28T09:06:16Z</time>
      </trkpt>
      <trkpt lat="42.2918020" lon="-8.3671110">
        <ele>740.8</ele>
        <time>2022-08-28T09:06:18Z</time>
      </trkpt>
      <trkpt lat="42.2918840" lon="-8.3671140">
        <ele>741.4</ele>
        <time>2022-08-28T09:06:24Z</time>
      </trkpt>
      <trkpt lat="42.2919300" lon="-8.3671080">
        <ele>742.0</ele>
        <time>2022-08-28T09:06:27Z</time>
      </trkpt>
      <trkpt lat="42.2919820" lon="-8.3671150">
        <ele>742.4</ele>
        <time>2022-08-28T09:06:31Z</time>
      </trkpt>
      <trkpt lat="42.2920540" lon="-8.3671370">
        <ele>743.0</ele>
        <time>2022-08-28T09:06:36Z</time>
      </trkpt>
      <trkpt lat="42.2921060" lon="-8.3671450">
        <ele>743.4</ele>
        <time>2022-08-28T09:06:39Z</time>
      </trkpt>
      <trkpt lat="42.2921980" lon="-8.3671380">
        <ele>744.2</ele>
        <time>2022-08-28T09:06:44Z</time>
      </trkpt>
      <trkpt lat="42.2922680" lon="-8.3671200">
        <ele>744.8</ele>
        <time>2022-08-28T09:06:48Z</time>
      </trkpt>
      <trkpt lat="42.2923450" lon="-8.3670970">
        <ele>745.2</ele>
        <time>2022-08-28T09:06:52Z</time>
      </trkpt>
      <trkpt lat="42.2924080" lon="-8.3670900">
        <ele>745.6</ele>
        <time>2022-08-28T09:06:56Z</time>
      </trkpt>
      <trkpt lat="42.2925110" lon="-8.3671500">
        <ele>746.2</ele>
        <time>2022-08-28T09:07:03Z</time>
      </trkpt>
      <trkpt lat="42.2925230" lon="-8.3671680">
        <ele>746.2</ele>
        <time>2022-08-28T09:07:04Z</time>
      </trkpt>
      <trkpt lat="42.2925890" lon="-8.3672780">
        <ele>746.6</ele>
        <time>2022-08-28T09:07:11Z</time>
      </trkpt>
      <trkpt lat="42.2926240" lon="-8.3673240">
        <ele>747.4</ele>
        <time>2022-08-28T09:07:14Z</time>
      </trkpt>
      <trkpt lat="42.2926630" lon="-8.3673700">
        <ele>748.0</ele>
        <time>2022-08-28T09:07:17Z</time>
      </trkpt>
      <trkpt lat="42.2927290" lon="-8.3674270">
        <ele>748.4</ele>
        <time>2022-08-28T09:07:22Z</time>
      </trkpt>
      <trkpt lat="42.2927810" lon="-8.3674620">
        <ele>749.0</ele>
        <time>2022-08-28T09:07:26Z</time>
      </trkpt>
      <trkpt lat="42.2928270" lon="-8.3674940">
        <ele>749.4</ele>
        <time>2022-08-28T09:07:30Z</time>
      </trkpt>
      <trkpt lat="42.2928390" lon="-8.3675010">
        <ele>749.8</ele>
        <time>2022-08-28T09:07:33Z</time>
      </trkpt>
      <trkpt lat="42.2928890" lon="-8.3675400">
        <ele>750.4</ele>
        <time>2022-08-28T09:08:05Z</time>
      </trkpt>
      <trkpt lat="42.2930070" lon="-8.3676120">
        <ele>750.2</ele>
        <time>2022-08-28T09:08:10Z</time>
      </trkpt>
      <trkpt lat="42.2931490" lon="-8.3676900">
        <ele>749.6</ele>
        <time>2022-08-28T09:08:15Z</time>
      </trkpt>
      <trkpt lat="42.2932340" lon="-8.3677370">
        <ele>749.0</ele>
        <time>2022-08-28T09:08:17Z</time>
      </trkpt>
      <trkpt lat="42.2933600" lon="-8.3677710">
        <ele>748.4</ele>
        <time>2022-08-28T09:08:20Z</time>
      </trkpt>
      <trkpt lat="42.2934060" lon="-8.3677760">
        <ele>748.2</ele>
        <time>2022-08-28T09:08:21Z</time>
      </trkpt>
      <trkpt lat="42.2935340" lon="-8.3677990">
        <ele>747.2</ele>
        <time>2022-08-28T09:08:24Z</time>
      </trkpt>
      <trkpt lat="42.2935780" lon="-8.3678130">
        <ele>747.0</ele>
        <time>2022-08-28T09:08:25Z</time>
      </trkpt>
      <trkpt lat="42.2936220" lon="-8.3678270">
        <ele>746.8</ele>
        <time>2022-08-28T09:08:26Z</time>
      </trkpt>
      <trkpt lat="42.2937940" lon="-8.3678840">
        <ele>745.8</ele>
        <time>2022-08-28T09:08:31Z</time>
      </trkpt>
      <trkpt lat="42.2939020" lon="-8.3679660">
        <ele>745.8</ele>
        <time>2022-08-28T09:08:36Z</time>
      </trkpt>
      <trkpt lat="42.2940420" lon="-8.3681120">
        <ele>746.4</ele>
        <time>2022-08-28T09:08:42Z</time>
      </trkpt>
      <trkpt lat="42.2941390" lon="-8.3682070">
        <ele>746.8</ele>
        <time>2022-08-28T09:08:46Z</time>
      </trkpt>
      <trkpt lat="42.2941990" lon="-8.3682780">
        <ele>746.8</ele>
        <time>2022-08-28T09:08:49Z</time>
      </trkpt>
      <trkpt lat="42.2942660" lon="-8.3683760">
        <ele>746.6</ele>
        <time>2022-08-28T09:08:53Z</time>
      </trkpt>
      <trkpt lat="42.2943660" lon="-8.3685080">
        <ele>746.0</ele>
        <time>2022-08-28T09:08:59Z</time>
      </trkpt>
      <trkpt lat="42.2943890" lon="-8.3685330">
        <ele>745.6</ele>
        <time>2022-08-28T09:09:00Z</time>
      </trkpt>
      <trkpt lat="42.2944850" lon="-8.3686440">
        <ele>744.6</ele>
        <time>2022-08-28T09:09:05Z</time>
      </trkpt>
      <trkpt lat="42.2945600" lon="-8.3686890">
        <ele>743.2</ele>
        <time>2022-08-28T09:09:08Z</time>
      </trkpt>
      <trkpt lat="42.2946010" lon="-8.3687110">
        <ele>742.2</ele>
        <time>2022-08-28T09:09:10Z</time>
      </trkpt>
      <trkpt lat="42.2946180" lon="-8.3687090">
        <ele>741.8</ele>
        <time>2022-08-28T09:09:11Z</time>
      </trkpt>
      <trkpt lat="42.2946810" lon="-8.3686990">
        <ele>740.6</ele>
        <time>2022-08-28T09:09:14Z</time>
      </trkpt>
      <trkpt lat="42.2947530" lon="-8.3686850">
        <ele>739.4</ele>
        <time>2022-08-28T09:09:18Z</time>
      </trkpt>
      <trkpt lat="42.2947840" lon="-8.3686880">
        <ele>739.2</ele>
        <time>2022-08-28T09:09:19Z</time>
      </trkpt>
      <trkpt lat="42.2949090" lon="-8.3687080">
        <ele>738.4</ele>
        <time>2022-08-28T09:09:22Z</time>
      </trkpt>
      <trkpt lat="42.2950050" lon="-8.3687280">
        <ele>738.2</ele>
        <time>2022-08-28T09:09:24Z</time>
      </trkpt>
      <trkpt lat="42.2951370" lon="-8.3687620">
        <ele>737.2</ele>
        <time>2022-08-28T09:09:27Z</time>
      </trkpt>
      <trkpt lat="42.2952060" lon="-8.3687790">
        <ele>736.6</ele>
        <time>2022-08-28T09:09:29Z</time>
      </trkpt>
      <trkpt lat="42.2952330" lon="-8.3687820">
        <ele>736.2</ele>
        <time>2022-08-28T09:09:30Z</time>
      </trkpt>
      <trkpt lat="42.2953130" lon="-8.3688110">
        <ele>735.2</ele>
        <time>2022-08-28T09:09:34Z</time>
      </trkpt>
      <trkpt lat="42.2954380" lon="-8.3688870">
        <ele>734.8</ele>
        <time>2022-08-28T09:09:39Z</time>
      </trkpt>
      <trkpt lat="42.2955570" lon="-8.3689160">
        <ele>734.2</ele>
        <time>2022-08-28T09:09:44Z</time>
      </trkpt>
      <trkpt lat="42.2955850" lon="-8.3689270">
        <ele>733.8</ele>
        <time>2022-08-28T09:09:45Z</time>
      </trkpt>
      <trkpt lat="42.2956390" lon="-8.3689610">
        <ele>732.8</ele>
        <time>2022-08-28T09:09:47Z</time>
      </trkpt>
      <trkpt lat="42.2956970" lon="-8.3689840">
        <ele>731.8</ele>
        <time>2022-08-28T09:09:49Z</time>
      </trkpt>
      <trkpt lat="42.2957740" lon="-8.3690140">
        <ele>730.4</ele>
        <time>2022-08-28T09:09:52Z</time>
      </trkpt>
      <trkpt lat="42.2957890" lon="-8.3690220">
        <ele>729.6</ele>
        <time>2022-08-28T09:09:54Z</time>
      </trkpt>
      <trkpt lat="42.2957880" lon="-8.3690230">
        <ele>729.2</ele>
        <time>2022-08-28T09:09:55Z</time>
      </trkpt>
      <trkpt lat="42.2955360" lon="-8.3689010">
        <ele>728.0</ele>
        <time>2022-08-28T09:22:39Z</time>
      </trkpt>
      <trkpt lat="42.2955000" lon="-8.3688810">
        <ele>728.4</ele>
        <time>2022-08-28T09:22:42Z</time>
      </trkpt>
      <trkpt lat="42.2954350" lon="-8.3688850">
        <ele>729.0</ele>
        <time>2022-08-28T09:22:48Z</time>
      </trkpt>
      <trkpt lat="42.2954250" lon="-8.3688820">
        <ele>729.2</ele>
        <time>2022-08-28T09:22:49Z</time>
      </trkpt>
      <trkpt lat="42.2953870" lon="-8.3688650">
        <ele>730.0</ele>
        <time>2022-08-28T09:22:53Z</time>
      </trkpt>
      <trkpt lat="42.2953480" lon="-8.3688360">
        <ele>731.2</ele>
        <time>2022-08-28T09:22:58Z</time>
      </trkpt>
      <trkpt lat="42.2953020" lon="-8.3687900">
        <ele>732.2</ele>
        <time>2022-08-28T09:23:03Z</time>
      </trkpt>
      <trkpt lat="42.2952830" lon="-8.3687780">
        <ele>732.6</ele>
        <time>2022-08-28T09:23:05Z</time>
      </trkpt>
      <trkpt lat="42.2952470" lon="-8.3687770">
        <ele>733.2</ele>
        <time>2022-08-28T09:23:09Z</time>
      </trkpt>
      <trkpt lat="42.2952080" lon="-8.3687750">
        <ele>733.8</ele>
        <time>2022-08-28T09:23:12Z</time>
      </trkpt>
      <trkpt lat="42.2951610" lon="-8.3687670">
        <ele>734.4</ele>
        <time>2022-08-28T09:23:15Z</time>
      </trkpt>
      <trkpt lat="42.2950540" lon="-8.3687370">
        <ele>734.6</ele>
        <time>2022-08-28T09:23:21Z</time>
      </trkpt>
      <trkpt lat="42.2949290" lon="-8.3687040">
        <ele>734.6</ele>
        <time>2022-08-28T09:23:28Z</time>
      </trkpt>
      <trkpt lat="42.2948240" lon="-8.3686430">
        <ele>734.8</ele>
        <time>2022-08-28T09:23:35Z</time>
      </trkpt>
      <trkpt lat="42.2947330" lon="-8.3686420">
        <ele>735.4</ele>
        <time>2022-08-28T09:23:42Z</time>
      </trkpt>
      <trkpt lat="42.2947210" lon="-8.3686480">
        <ele>735.6</ele>
        <time>2022-08-28T09:23:43Z</time>
      </trkpt>
      <trkpt lat="42.2946760" lon="-8.3686880">
        <ele>736.6</ele>
        <time>2022-08-28T09:23:47Z</time>
      </trkpt>
      <trkpt lat="42.2946540" lon="-8.3686990">
        <ele>737.0</ele>
        <time>2022-08-28T09:23:49Z</time>
      </trkpt>
      <trkpt lat="42.2946140" lon="-8.3687010">
        <ele>737.6</ele>
        <time>2022-08-28T09:23:52Z</time>
      </trkpt>
      <trkpt lat="42.2945620" lon="-8.3686880">
        <ele>738.0</ele>
        <time>2022-08-28T09:23:56Z</time>
      </trkpt>
      <trkpt lat="42.2944850" lon="-8.3686410">
        <ele>738.8</ele>
        <time>2022-08-28T09:24:03Z</time>
      </trkpt>
      <trkpt lat="42.2944170" lon="-8.3685630">
        <ele>739.8</ele>
        <time>2022-08-28T09:24:10Z</time>
      </trkpt>
      <trkpt lat="42.2944000" lon="-8.3685360">
        <ele>740.0</ele>
        <time>2022-08-28T09:24:12Z</time>
      </trkpt>
      <trkpt lat="42.2943540" lon="-8.3684860">
        <ele>741.0</ele>
        <time>2022-08-28T09:24:17Z</time>
      </trkpt>
      <trkpt lat="42.2943270" lon="-8.3684570">
        <ele>741.4</ele>
        <time>2022-08-28T09:24:20Z</time>
      </trkpt>
      <trkpt lat="42.2943010" lon="-8.3684230">
        <ele>742.0</ele>
        <time>2022-08-28T09:24:23Z</time>
      </trkpt>
      <trkpt lat="42.2942720" lon="-8.3683750">
        <ele>742.8</ele>
        <time>2022-08-28T09:24:27Z</time>
      </trkpt>
      <trkpt lat="42.2942610" lon="-8.3683440">
        <ele>743.2</ele>
        <time>2022-08-28T09:24:29Z</time>
      </trkpt>
      <trkpt lat="42.2942100" lon="-8.3682900">
        <ele>744.0</ele>
        <time>2022-08-28T09:24:34Z</time>
      </trkpt>
      <trkpt lat="42.2941880" lon="-8.3682700">
        <ele>744.2</ele>
        <time>2022-08-28T09:24:36Z</time>
      </trkpt>
      <trkpt lat="42.2941180" lon="-8.3681990">
        <ele>745.2</ele>
        <time>2022-08-28T09:24:42Z</time>
      </trkpt>
      <trkpt lat="42.2939980" lon="-8.3680580">
        <ele>746.0</ele>
        <time>2022-08-28T09:24:49Z</time>
      </trkpt>
      <trkpt lat="42.2938400" lon="-8.3679230">
        <ele>746.0</ele>
        <time>2022-08-28T09:24:56Z</time>
      </trkpt>
      <trkpt lat="42.2936260" lon="-8.3678440">
        <ele>745.6</ele>
        <time>2022-08-28T09:25:02Z</time>
      </trkpt>
      <trkpt lat="42.2934500" lon="-8.3677870">
        <ele>745.0</ele>
        <time>2022-08-28T09:25:08Z</time>
      </trkpt>
      <trkpt lat="42.2932800" lon="-8.3677660">
        <ele>745.0</ele>
        <time>2022-08-28T09:25:15Z</time>
      </trkpt>
      <trkpt lat="42.2931260" lon="-8.3676860">
        <ele>746.0</ele>
        <time>2022-08-28T09:25:22Z</time>
      </trkpt>
      <trkpt lat="42.2930720" lon="-8.3676440">
        <ele>746.2</ele>
        <time>2022-08-28T09:25:25Z</time>
      </trkpt>
      <trkpt lat="42.2930010" lon="-8.3675990">
        <ele>747.0</ele>
        <time>2022-08-28T09:25:29Z</time>
      </trkpt>
      <trkpt lat="42.2929660" lon="-8.3675780">
        <ele>747.4</ele>
        <time>2022-08-28T09:25:31Z</time>
      </trkpt>
      <trkpt lat="42.2928990" lon="-8.3675440">
        <ele>747.8</ele>
        <time>2022-08-28T09:25:35Z</time>
      </trkpt>
      <trkpt lat="42.2928570" lon="-8.3675110">
        <ele>748.4</ele>
        <time>2022-08-28T09:25:38Z</time>
      </trkpt>
      <trkpt lat="42.2928520" lon="-8.3674740">
        <ele>748.8</ele>
        <time>2022-08-28T09:25:40Z</time>
      </trkpt>
      <trkpt lat="42.2928920" lon="-8.3674640">
        <ele>749.4</ele>
        <time>2022-08-28T09:25:44Z</time>
      </trkpt>
      <trkpt lat="42.2928980" lon="-8.3674690">
        <ele>749.8</ele>
        <time>2022-08-28T09:25:46Z</time>
      </trkpt>
      <trkpt lat="42.2929400" lon="-8.3674750">
        <ele>750.0</ele>
        <time>2022-08-28T09:26:30Z</time>
      </trkpt>
      <trkpt lat="42.2929580" lon="-8.3674740">
        <ele>750.0</ele>
        <time>2022-08-28T09:26:31Z</time>
      </trkpt>
      <trkpt lat="42.2930950" lon="-8.3674590">
        <ele>750.0</ele>
        <time>2022-08-28T09:26:38Z</time>
      </trkpt>
      <trkpt lat="42.2931820" lon="-8.3674240">
        <ele>750.4</ele>
        <time>2022-08-28T09:26:44Z</time>
      </trkpt>
      <trkpt lat="42.2931920" lon="-8.3674190">
        <ele>750.4</ele>
        <time>2022-08-28T09:26:45Z</time>
      </trkpt>
      <trkpt lat="42.2932050" lon="-8.3674140">
        <ele>751.0</ele>
        <time>2022-08-28T09:26:48Z</time>
      </trkpt>
      <trkpt lat="42.2933500" lon="-8.3673390">
        <ele>752.4</ele>
        <time>2022-08-28T09:31:54Z</time>
      </trkpt>
      <trkpt lat="42.2934050" lon="-8.3673110">
        <ele>753.0</ele>
        <time>2022-08-28T09:31:59Z</time>
      </trkpt>
      <trkpt lat="42.2934640" lon="-8.3672810">
        <ele>753.6</ele>
        <time>2022-08-28T09:32:04Z</time>
      </trkpt>
      <trkpt lat="42.2934890" lon="-8.3672630">
        <ele>753.8</ele>
        <time>2022-08-28T09:32:06Z</time>
      </trkpt>
      <trkpt lat="42.2935590" lon="-8.3672040">
        <ele>754.6</ele>
        <time>2022-08-28T09:32:12Z</time>
      </trkpt>
      <trkpt lat="42.2935720" lon="-8.3671890">
        <ele>754.8</ele>
        <time>2022-08-28T09:32:13Z</time>
      </trkpt>
      <trkpt lat="42.2936760" lon="-8.3671260">
        <ele>755.4</ele>
        <time>2022-08-28T09:32:20Z</time>
      </trkpt>
      <trkpt lat="42.2937700" lon="-8.3670720">
        <ele>755.4</ele>
        <time>2022-08-28T09:32:26Z</time>
      </trkpt>
      <trkpt lat="42.2938030" lon="-8.3670510">
        <ele>755.6</ele>
        <time>2022-08-28T09:32:28Z</time>
      </trkpt>
      <trkpt lat="42.2939470" lon="-8.3669940">
        <ele>756.2</ele>
        <time>2022-08-28T09:32:35Z</time>
      </trkpt>
      <trkpt lat="42.2940460" lon="-8.3669730">
        <ele>756.6</ele>
        <time>2022-08-28T09:32:40Z</time>
      </trkpt>
      <trkpt lat="42.2940700" lon="-8.3669670">
        <ele>756.6</ele>
        <time>2022-08-28T09:32:41Z</time>
      </trkpt>
      <trkpt lat="42.2942100" lon="-8.3669290">
        <ele>757.2</ele>
        <time>2022-08-28T09:32:49Z</time>
      </trkpt>
      <trkpt lat="42.2943550" lon="-8.3668850">
        <ele>757.6</ele>
        <time>2022-08-28T09:32:57Z</time>
      </trkpt>
      <trkpt lat="42.2944990" lon="-8.3668380">
        <ele>758.6</ele>
        <time>2022-08-28T09:33:05Z</time>
      </trkpt>
      <trkpt lat="42.2945370" lon="-8.3668360">
        <ele>758.8</ele>
        <time>2022-08-28T09:33:07Z</time>
      </trkpt>
      <trkpt lat="42.2946340" lon="-8.3668170">
        <ele>759.2</ele>
        <time>2022-08-28T09:33:12Z</time>
      </trkpt>
      <trkpt lat="42.2947430" lon="-8.3668260">
        <ele>759.8</ele>
        <time>2022-08-28T09:33:19Z</time>
      </trkpt>
      <trkpt lat="42.2948390" lon="-8.3668150">
        <ele>760.6</ele>
        <time>2022-08-28T09:33:25Z</time>
      </trkpt>
      <trkpt lat="42.2948940" lon="-8.3668140">
        <ele>760.8</ele>
        <time>2022-08-28T09:33:28Z</time>
      </trkpt>
      <trkpt lat="42.2949480" lon="-8.3668020">
        <ele>761.4</ele>
        <time>2022-08-28T09:33:31Z</time>
      </trkpt>
      <trkpt lat="42.2950650" lon="-8.3667680">
        <ele>761.8</ele>
        <time>2022-08-28T09:33:37Z</time>
      </trkpt>
      <trkpt lat="42.2950830" lon="-8.3667600">
        <ele>762.0</ele>
        <time>2022-08-28T09:33:38Z</time>
      </trkpt>
      <trkpt lat="42.2951820" lon="-8.3667230">
        <ele>762.4</ele>
        <time>2022-08-28T09:33:44Z</time>
      </trkpt>
      <trkpt lat="42.2952400" lon="-8.3666960">
        <ele>763.2</ele>
        <time>2022-08-28T09:33:48Z</time>
      </trkpt>
      <trkpt lat="42.2953020" lon="-8.3666460">
        <ele>764.0</ele>
        <time>2022-08-28T09:33:52Z</time>
      </trkpt>
      <trkpt lat="42.2953290" lon="-8.3666230">
        <ele>764.2</ele>
        <time>2022-08-28T09:33:54Z</time>
      </trkpt>
      <trkpt lat="42.2953770" lon="-8.3665740">
        <ele>764.8</ele>
        <time>2022-08-28T09:33:59Z</time>
      </trkpt>
      <trkpt lat="42.2954250" lon="-8.3665100">
        <ele>765.4</ele>
        <time>2022-08-28T09:34:03Z</time>
      </trkpt>
      <trkpt lat="42.2954640" lon="-8.3664740">
        <ele>765.8</ele>
        <time>2022-08-28T09:34:06Z</time>
      </trkpt>
      <trkpt lat="42.2955480" lon="-8.3663950">
        <ele>766.6</ele>
        <time>2022-08-28T09:34:12Z</time>
      </trkpt>
      <trkpt lat="42.2955610" lon="-8.3663800">
        <ele>766.8</ele>
        <time>2022-08-28T09:34:13Z</time>
      </trkpt>
      <trkpt lat="42.2956490" lon="-8.3662830">
        <ele>767.6</ele>
        <time>2022-08-28T09:34:20Z</time>
      </trkpt>
      <trkpt lat="42.2956610" lon="-8.3662680">
        <ele>767.6</ele>
        <time>2022-08-28T09:34:21Z</time>
      </trkpt>
      <trkpt lat="42.2957310" lon="-8.3661720">
        <ele>768.4</ele>
        <time>2022-08-28T09:34:27Z</time>
      </trkpt>
      <trkpt lat="42.2957810" lon="-8.3660900">
        <ele>768.6</ele>
        <time>2022-08-28T09:34:32Z</time>
      </trkpt>
      <trkpt lat="42.2957980" lon="-8.3660640">
        <ele>768.8</ele>
        <time>2022-08-28T09:34:34Z</time>
      </trkpt>
      <trkpt lat="42.2958350" lon="-8.3660030">
        <ele>769.4</ele>
        <time>2022-08-28T09:34:40Z</time>
      </trkpt>
      <trkpt lat="42.2958540" lon="-8.3659870">
        <ele>769.8</ele>
        <time>2022-08-28T09:34:42Z</time>
      </trkpt>
      <trkpt lat="42.2959090" lon="-8.3659360">
        <ele>770.4</ele>
        <time>2022-08-28T09:34:48Z</time>
      </trkpt>
      <trkpt lat="42.2959400" lon="-8.3658910">
        <ele>770.8</ele>
        <time>2022-08-28T09:34:52Z</time>
      </trkpt>
      <trkpt lat="42.2959680" lon="-8.3658630">
        <ele>771.0</ele>
        <time>2022-08-28T09:34:55Z</time>
      </trkpt>
      <trkpt lat="42.2959920" lon="-8.3658470">
        <ele>771.2</ele>
        <time>2022-08-28T09:34:59Z</time>
      </trkpt>
      <trkpt lat="42.2960190" lon="-8.3658030">
        <ele>771.6</ele>
        <time>2022-08-28T09:35:04Z</time>
      </trkpt>
      <trkpt lat="42.2960310" lon="-8.3657890">
        <ele>771.8</ele>
        <time>2022-08-28T09:35:05Z</time>
      </trkpt>
      <trkpt lat="42.2961170" lon="-8.3656790">
        <ele>772.0</ele>
        <time>2022-08-28T09:35:11Z</time>
      </trkpt>
      <trkpt lat="42.2962140" lon="-8.3655820">
        <ele>772.8</ele>
        <time>2022-08-28T09:35:17Z</time>
      </trkpt>
      <trkpt lat="42.2962460" lon="-8.3655460">
        <ele>773.0</ele>
        <time>2022-08-28T09:35:19Z</time>
      </trkpt>
      <trkpt lat="42.2963400" lon="-8.3654680">
        <ele>773.6</ele>
        <time>2022-08-28T09:35:26Z</time>
      </trkpt>
      <trkpt lat="42.2963490" lon="-8.3654570">
        <ele>773.8</ele>
        <time>2022-08-28T09:35:27Z</time>
      </trkpt>
      <trkpt lat="42.2964120" lon="-8.3653930">
        <ele>774.4</ele>
        <time>2022-08-28T09:35:33Z</time>
      </trkpt>
      <trkpt lat="42.2964400" lon="-8.3653600">
        <ele>775.0</ele>
        <time>2022-08-28T09:35:35Z</time>
      </trkpt>
      <trkpt lat="42.2965250" lon="-8.3652590">
        <ele>775.6</ele>
        <time>2022-08-28T09:35:40Z</time>
      </trkpt>
      <trkpt lat="42.2965870" lon="-8.3651650">
        <ele>776.0</ele>
        <time>2022-08-28T09:35:44Z</time>
      </trkpt>
      <trkpt lat="42.2966690" lon="-8.3650600">
        <ele>776.2</ele>
        <time>2022-08-28T09:35:49Z</time>
      </trkpt>
      <trkpt lat="42.2967840" lon="-8.3649660">
        <ele>776.6</ele>
        <time>2022-08-28T09:35:57Z</time>
      </trkpt>
      <trkpt lat="42.2968710" lon="-8.3649040">
        <ele>776.8</ele>
        <time>2022-08-28T09:36:04Z</time>
      </trkpt>
      <trkpt lat="42.2969150" lon="-8.3648750">
        <ele>776.8</ele>
        <time>2022-08-28T09:36:09Z</time>
      </trkpt>
      <trkpt lat="42.2969510" lon="-8.3648510">
        <ele>776.8</ele>
        <time>2022-08-28T09:36:19Z</time>
      </trkpt>
      <trkpt lat="42.2969830" lon="-8.3648240">
        <ele>776.8</ele>
        <time>2022-08-28T09:36:21Z</time>
      </trkpt>
      <trkpt lat="42.2971250" lon="-8.3647180">
        <ele>776.6</ele>
        <time>2022-08-28T09:36:28Z</time>
      </trkpt>
      <trkpt lat="42.2973000" lon="-8.3645500">
        <ele>776.4</ele>
        <time>2022-08-28T09:36:36Z</time>
      </trkpt>
      <trkpt lat="42.2973060" lon="-8.3645160">
        <ele>776.4</ele>
        <time>2022-08-28T09:36:37Z</time>
      </trkpt>
      <trkpt lat="42.2972820" lon="-8.3644400">
        <ele>776.2</ele>
        <time>2022-08-28T09:36:40Z</time>
      </trkpt>
      <trkpt lat="42.2971840" lon="-8.3644010">
        <ele>776.2</ele>
        <time>2022-08-28T09:36:45Z</time>
      </trkpt>
      <trkpt lat="42.2971630" lon="-8.3643980">
        <ele>776.2</ele>
        <time>2022-08-28T09:36:46Z</time>
      </trkpt>
      <trkpt lat="42.2969840" lon="-8.3643480">
        <ele>776.8</ele>
        <time>2022-08-28T09:36:54Z</time>
      </trkpt>
      <trkpt lat="42.2969390" lon="-8.3643330">
        <ele>777.0</ele>
        <time>2022-08-28T09:36:56Z</time>
      </trkpt>
      <trkpt lat="42.2968210" lon="-8.3643180">
        <ele>777.4</ele>
        <time>2022-08-28T09:37:02Z</time>
      </trkpt>
      <trkpt lat="42.2967050" lon="-8.3643150">
        <ele>777.8</ele>
        <time>2022-08-28T09:37:07Z</time>
      </trkpt>
      <trkpt lat="42.2966610" lon="-8.3643110">
        <ele>778.0</ele>
        <time>2022-08-28T09:37:09Z</time>
      </trkpt>
      <trkpt lat="42.2964600" lon="-8.3642620">
        <ele>778.2</ele>
        <time>2022-08-28T09:37:18Z</time>
      </trkpt>
      <trkpt lat="42.2964250" lon="-8.3642150">
        <ele>778.4</ele>
        <time>2022-08-28T09:37:21Z</time>
      </trkpt>
      <trkpt lat="42.2964200" lon="-8.3641690">
        <ele>778.6</ele>
        <time>2022-08-28T09:37:23Z</time>
      </trkpt>
      <trkpt lat="42.2964250" lon="-8.3641180">
        <ele>779.0</ele>
        <time>2022-08-28T09:37:26Z</time>
      </trkpt>
      <trkpt lat="42.2964280" lon="-8.3641080">
        <ele>779.0</ele>
        <time>2022-08-28T09:37:28Z</time>
      </trkpt>
      <trkpt lat="42.2964450" lon="-8.3640350">
        <ele>779.2</ele>
        <time>2022-08-28T09:37:35Z</time>
      </trkpt>
      <trkpt lat="42.2964850" lon="-8.3638940">
        <ele>779.2</ele>
        <time>2022-08-28T09:37:41Z</time>
      </trkpt>
      <trkpt lat="42.2965070" lon="-8.3637470">
        <ele>779.6</ele>
        <time>2022-08-28T09:37:48Z</time>
      </trkpt>
      <trkpt lat="42.2965060" lon="-8.3636670">
        <ele>780.0</ele>
        <time>2022-08-28T09:37:53Z</time>
      </trkpt>
      <trkpt lat="42.2965050" lon="-8.3636140">
        <ele>780.4</ele>
        <time>2022-08-28T09:37:56Z</time>
      </trkpt>
      <trkpt lat="42.2965040" lon="-8.3635600">
        <ele>781.2</ele>
        <time>2022-08-28T09:37:59Z</time>
      </trkpt>
      <trkpt lat="42.2964980" lon="-8.3634990">
        <ele>782.2</ele>
        <time>2022-08-28T09:38:03Z</time>
      </trkpt>
      <trkpt lat="42.2964960" lon="-8.3634830">
        <ele>782.4</ele>
        <time>2022-08-28T09:38:04Z</time>
      </trkpt>
      <trkpt lat="42.2964760" lon="-8.3634030">
        <ele>783.4</ele>
        <time>2022-08-28T09:38:09Z</time>
      </trkpt>
      <trkpt lat="42.2964720" lon="-8.3633860">
        <ele>783.6</ele>
        <time>2022-08-28T09:38:10Z</time>
      </trkpt>
      <trkpt lat="42.2964540" lon="-8.3633020">
        <ele>784.4</ele>
        <time>2022-08-28T09:38:16Z</time>
      </trkpt>
      <trkpt lat="42.2964510" lon="-8.3632880">
        <ele>784.8</ele>
        <time>2022-08-28T09:38:17Z</time>
      </trkpt>
      <trkpt lat="42.2964440" lon="-8.3632220">
        <ele>785.6</ele>
        <time>2022-08-28T09:38:21Z</time>
      </trkpt>
      <trkpt lat="42.2964390" lon="-8.3631140">
        <ele>786.4</ele>
        <time>2022-08-28T09:38:27Z</time>
      </trkpt>
      <trkpt lat="42.2964350" lon="-8.3630750">
        <ele>786.6</ele>
        <time>2022-08-28T09:38:29Z</time>
      </trkpt>
      <trkpt lat="42.2964480" lon="-8.3629130">
        <ele>787.2</ele>
        <time>2022-08-28T09:38:37Z</time>
      </trkpt>
      <trkpt lat="42.2964700" lon="-8.3628090">
        <ele>787.8</ele>
        <time>2022-08-28T09:38:42Z</time>
      </trkpt>
      <trkpt lat="42.2964820" lon="-8.3627320">
        <ele>788.0</ele>
        <time>2022-08-28T09:38:45Z</time>
      </trkpt>
      <trkpt lat="42.2965420" lon="-8.3626120">
        <ele>788.4</ele>
        <time>2022-08-28T09:38:51Z</time>
      </trkpt>
      <trkpt lat="42.2966500" lon="-8.3625050">
        <ele>788.8</ele>
        <time>2022-08-28T09:38:58Z</time>
      </trkpt>
      <trkpt lat="42.2966630" lon="-8.3624870">
        <ele>789.0</ele>
        <time>2022-08-28T09:38:59Z</time>
      </trkpt>
      <trkpt lat="42.2966970" lon="-8.3624390">
        <ele>789.4</ele>
        <time>2022-08-28T09:39:02Z</time>
      </trkpt>
      <trkpt lat="42.2967100" lon="-8.3623750">
        <ele>789.4</ele>
        <time>2022-08-28T09:39:05Z</time>
      </trkpt>
      <trkpt lat="42.2966750" lon="-8.3621790">
        <ele>789.6</ele>
        <time>2022-08-28T09:39:13Z</time>
      </trkpt>
      <trkpt lat="42.2966600" lon="-8.3620890">
        <ele>790.0</ele>
        <time>2022-08-28T09:39:17Z</time>
      </trkpt>
      <trkpt lat="42.2966640" lon="-8.3620200">
        <ele>790.4</ele>
        <time>2022-08-28T09:39:21Z</time>
      </trkpt>
      <trkpt lat="42.2966880" lon="-8.3618900">
        <ele>790.4</ele>
        <time>2022-08-28T09:39:27Z</time>
      </trkpt>
      <trkpt lat="42.2967060" lon="-8.3617900">
        <ele>791.0</ele>
        <time>2022-08-28T09:39:32Z</time>
      </trkpt>
      <trkpt lat="42.2967140" lon="-8.3617490">
        <ele>791.4</ele>
        <time>2022-08-28T09:39:34Z</time>
      </trkpt>
      <trkpt lat="42.2967400" lon="-8.3616280">
        <ele>792.2</ele>
        <time>2022-08-28T09:39:40Z</time>
      </trkpt>
      <trkpt lat="42.2967460" lon="-8.3616080">
        <ele>792.2</ele>
        <time>2022-08-28T09:39:41Z</time>
      </trkpt>
      <trkpt lat="42.2968330" lon="-8.3615390">
        <ele>792.8</ele>
        <time>2022-08-28T09:39:46Z</time>
      </trkpt>
      <trkpt lat="42.2970130" lon="-8.3614380">
        <ele>793.0</ele>
        <time>2022-08-28T09:39:54Z</time>
      </trkpt>
      <trkpt lat="42.2971570" lon="-8.3613860">
        <ele>793.2</ele>
        <time>2022-08-28T09:40:00Z</time>
      </trkpt>
      <trkpt lat="42.2972730" lon="-8.3613740">
        <ele>793.2</ele>
        <time>2022-08-28T09:40:06Z</time>
      </trkpt>
      <trkpt lat="42.2973050" lon="-8.3613750">
        <ele>793.2</ele>
        <time>2022-08-28T09:40:08Z</time>
      </trkpt>
      <trkpt lat="42.2973670" lon="-8.3614110">
        <ele>793.2</ele>
        <time>2022-08-28T09:40:12Z</time>
      </trkpt>
      <trkpt lat="42.2974810" lon="-8.3614820">
        <ele>794.0</ele>
        <time>2022-08-28T09:40:19Z</time>
      </trkpt>
      <trkpt lat="42.2975130" lon="-8.3614990">
        <ele>794.2</ele>
        <time>2022-08-28T09:40:21Z</time>
      </trkpt>
      <trkpt lat="42.2976260" lon="-8.3615310">
        <ele>794.8</ele>
        <time>2022-08-28T09:40:27Z</time>
      </trkpt>
      <trkpt lat="42.2977300" lon="-8.3615700">
        <ele>795.0</ele>
        <time>2022-08-28T09:40:31Z</time>
      </trkpt>
      <trkpt lat="42.2977750" lon="-8.3615900">
        <ele>795.2</ele>
        <time>2022-08-28T09:40:33Z</time>
      </trkpt>
      <trkpt lat="42.2979480" lon="-8.3616280">
        <ele>795.6</ele>
        <time>2022-08-28T09:40:41Z</time>
      </trkpt>
      <trkpt lat="42.2980240" lon="-8.3615500">
        <ele>795.6</ele>
        <time>2022-08-28T09:40:45Z</time>
      </trkpt>
      <trkpt lat="42.2980650" lon="-8.3613700">
        <ele>795.8</ele>
        <time>2022-08-28T09:40:52Z</time>
      </trkpt>
      <trkpt lat="42.2980690" lon="-8.3612270">
        <ele>796.0</ele>
        <time>2022-08-28T09:40:57Z</time>
      </trkpt>
      <trkpt lat="42.2980790" lon="-8.3611740">
        <ele>796.2</ele>
        <time>2022-08-28T09:40:59Z</time>
      </trkpt>
      <trkpt lat="42.2981290" lon="-8.3610200">
        <ele>797.0</ele>
        <time>2022-08-28T09:41:05Z</time>
      </trkpt>
      <trkpt lat="42.2981500" lon="-8.3609650">
        <ele>797.4</ele>
        <time>2022-08-28T09:41:07Z</time>
      </trkpt>
      <trkpt lat="42.2982360" lon="-8.3607730">
        <ele>797.8</ele>
        <time>2022-08-28T09:41:14Z</time>
      </trkpt>
      <trkpt lat="42.2982820" lon="-8.3606360">
        <ele>798.0</ele>
        <time>2022-08-28T09:41:19Z</time>
      </trkpt>
      <trkpt lat="42.2983040" lon="-8.3605890">
        <ele>798.2</ele>
        <time>2022-08-28T09:41:21Z</time>
      </trkpt>
      <trkpt lat="42.2984000" lon="-8.3604700">
        <ele>798.8</ele>
        <time>2022-08-28T09:41:28Z</time>
      </trkpt>
      <trkpt lat="42.2984540" lon="-8.3604430">
        <ele>799.2</ele>
        <time>2022-08-28T09:41:31Z</time>
      </trkpt>
      <trkpt lat="42.2985410" lon="-8.3603860">
        <ele>799.4</ele>
        <time>2022-08-28T09:41:36Z</time>
      </trkpt>
      <trkpt lat="42.2986750" lon="-8.3602660">
        <ele>800.2</ele>
        <time>2022-08-28T09:41:44Z</time>
      </trkpt>
      <trkpt lat="42.2987820" lon="-8.3601910">
        <ele>800.8</ele>
        <time>2022-08-28T09:41:50Z</time>
      </trkpt>
      <trkpt lat="42.2988220" lon="-8.3601430">
        <ele>801.2</ele>
        <time>2022-08-28T09:41:53Z</time>
      </trkpt>
      <trkpt lat="42.2988930" lon="-8.3600640">
        <ele>801.8</ele>
        <time>2022-08-28T09:41:58Z</time>
      </trkpt>
      <trkpt lat="42.2989460" lon="-8.3599980">
        <ele>802.4</ele>
        <time>2022-08-28T09:42:02Z</time>
      </trkpt>
      <trkpt lat="42.2989880" lon="-8.3599190">
        <ele>802.8</ele>
        <time>2022-08-28T09:42:06Z</time>
      </trkpt>
      <trkpt lat="42.2990540" lon="-8.3598070">
        <ele>803.2</ele>
        <time>2022-08-28T09:42:12Z</time>
      </trkpt>
      <trkpt lat="42.2990620" lon="-8.3597870">
        <ele>803.4</ele>
        <time>2022-08-28T09:42:13Z</time>
      </trkpt>
      <trkpt lat="42.2991260" lon="-8.3596650">
        <ele>804.0</ele>
        <time>2022-08-28T09:42:20Z</time>
      </trkpt>
      <trkpt lat="42.2991530" lon="-8.3596190">
        <ele>804.4</ele>
        <time>2022-08-28T09:42:23Z</time>
      </trkpt>
      <trkpt lat="42.2992050" lon="-8.3595330">
        <ele>805.4</ele>
        <time>2022-08-28T09:42:28Z</time>
      </trkpt>
      <trkpt lat="42.2992150" lon="-8.3595170">
        <ele>805.4</ele>
        <time>2022-08-28T09:42:29Z</time>
      </trkpt>
      <trkpt lat="42.2992820" lon="-8.3593730">
        <ele>806.4</ele>
        <time>2022-08-28T09:42:37Z</time>
      </trkpt>
      <trkpt lat="42.2992900" lon="-8.3593550">
        <ele>806.6</ele>
        <time>2022-08-28T09:42:38Z</time>
      </trkpt>
      <trkpt lat="42.2992980" lon="-8.3593360">
        <ele>806.4</ele>
        <time>2022-08-28T09:42:39Z</time>
      </trkpt>
      <trkpt lat="42.2993430" lon="-8.3592450">
        <ele>807.2</ele>
        <time>2022-08-28T09:42:44Z</time>
      </trkpt>
      <trkpt lat="42.2993680" lon="-8.3592140">
        <ele>807.4</ele>
        <time>2022-08-28T09:42:46Z</time>
      </trkpt>
      <trkpt lat="42.2994570" lon="-8.3591050">
        <ele>808.2</ele>
        <time>2022-08-28T09:42:52Z</time>
      </trkpt>
      <trkpt lat="42.2994840" lon="-8.3590310">
        <ele>808.4</ele>
        <time>2022-08-28T09:42:55Z</time>
      </trkpt>
      <trkpt lat="42.2994850" lon="-8.3590020">
        <ele>808.6</ele>
        <time>2022-08-28T09:42:56Z</time>
      </trkpt>
      <trkpt lat="42.2994820" lon="-8.3589740">
        <ele>808.8</ele>
        <time>2022-08-28T09:42:57Z</time>
      </trkpt>
      <trkpt lat="42.2994440" lon="-8.3587510">
        <ele>809.0</ele>
        <time>2022-08-28T09:43:05Z</time>
      </trkpt>
      <trkpt lat="42.2994150" lon="-8.3586150">
        <ele>809.4</ele>
        <time>2022-08-28T09:43:11Z</time>
      </trkpt>
      <trkpt lat="42.2993700" lon="-8.3584770">
        <ele>809.4</ele>
        <time>2022-08-28T09:43:18Z</time>
      </trkpt>
      <trkpt lat="42.2993680" lon="-8.3584570">
        <ele>809.6</ele>
        <time>2022-08-28T09:43:19Z</time>
      </trkpt>
      <trkpt lat="42.2993750" lon="-8.3583640">
        <ele>810.2</ele>
        <time>2022-08-28T09:43:24Z</time>
      </trkpt>
      <trkpt lat="42.2993780" lon="-8.3583160">
        <ele>810.8</ele>
        <time>2022-08-28T09:43:26Z</time>
      </trkpt>
      <trkpt lat="42.2993890" lon="-8.3582360">
        <ele>811.4</ele>
        <time>2022-08-28T09:43:30Z</time>
      </trkpt>
      <trkpt lat="42.2994020" lon="-8.3581920">
        <ele>811.8</ele>
        <time>2022-08-28T09:43:33Z</time>
      </trkpt>
      <trkpt lat="42.2994240" lon="-8.3581570">
        <ele>812.6</ele>
        <time>2022-08-28T09:43:37Z</time>
      </trkpt>
      <trkpt lat="42.2994250" lon="-8.3581570">
        <ele>812.6</ele>
        <time>2022-08-28T09:43:38Z</time>
      </trkpt>
      <trkpt lat="42.2995800" lon="-8.3579280">
        <ele>814.6</ele>
        <time>2022-08-28T09:44:05Z</time>
      </trkpt>
      <trkpt lat="42.2996110" lon="-8.3578970">
        <ele>814.6</ele>
        <time>2022-08-28T09:44:07Z</time>
      </trkpt>
      <trkpt lat="42.2997090" lon="-8.3578190">
        <ele>814.8</ele>
        <time>2022-08-28T09:44:13Z</time>
      </trkpt>
      <trkpt lat="42.2998020" lon="-8.3577410">
        <ele>815.2</ele>
        <time>2022-08-28T09:44:20Z</time>
      </trkpt>
      <trkpt lat="42.2998700" lon="-8.3576700">
        <ele>815.6</ele>
        <time>2022-08-28T09:44:27Z</time>
      </trkpt>
      <trkpt lat="42.2999560" lon="-8.3575710">
        <ele>816.2</ele>
        <time>2022-08-28T09:44:34Z</time>
      </trkpt>
      <trkpt lat="42.3000410" lon="-8.3575110">
        <ele>816.8</ele>
        <time>2022-08-28T09:44:40Z</time>
      </trkpt>
      <trkpt lat="42.3001140" lon="-8.3574480">
        <ele>817.6</ele>
        <time>2022-08-28T09:44:47Z</time>
      </trkpt>
      <trkpt lat="42.3001430" lon="-8.3574330">
        <ele>818.0</ele>
        <time>2022-08-28T09:44:49Z</time>
      </trkpt>
      <trkpt lat="42.3002010" lon="-8.3573830">
        <ele>818.4</ele>
        <time>2022-08-28T09:44:54Z</time>
      </trkpt>
      <trkpt lat="42.3002660" lon="-8.3573370">
        <ele>819.0</ele>
        <time>2022-08-28T09:44:59Z</time>
      </trkpt>
      <trkpt lat="42.3002930" lon="-8.3573160">
        <ele>819.2</ele>
        <time>2022-08-28T09:45:01Z</time>
      </trkpt>
      <trkpt lat="42.3004010" lon="-8.3572450">
        <ele>820.0</ele>
        <time>2022-08-28T09:45:09Z</time>
      </trkpt>
      <trkpt lat="42.3004260" lon="-8.3572260">
        <ele>820.4</ele>
        <time>2022-08-28T09:45:11Z</time>
      </trkpt>
      <trkpt lat="42.3004980" lon="-8.3571740">
        <ele>821.2</ele>
        <time>2022-08-28T09:45:17Z</time>
      </trkpt>
      <trkpt lat="42.3005180" lon="-8.3571600">
        <ele>821.2</ele>
        <time>2022-08-28T09:45:19Z</time>
      </trkpt>
      <trkpt lat="42.3005770" lon="-8.3571100">
        <ele>822.2</ele>
        <time>2022-08-28T09:45:24Z</time>
      </trkpt>
      <trkpt lat="42.3006030" lon="-8.3570930">
        <ele>822.6</ele>
        <time>2022-08-28T09:45:26Z</time>
      </trkpt>
      <trkpt lat="42.3007110" lon="-8.3570130">
        <ele>823.2</ele>
        <time>2022-08-28T09:45:34Z</time>
      </trkpt>
      <trkpt lat="42.3007240" lon="-8.3570030">
        <ele>823.4</ele>
        <time>2022-08-28T09:45:35Z</time>
      </trkpt>
      <trkpt lat="42.3008120" lon="-8.3569240">
        <ele>824.4</ele>
        <time>2022-08-28T09:45:42Z</time>
      </trkpt>
      <trkpt lat="42.3008460" lon="-8.3569040">
        <ele>824.6</ele>
        <time>2022-08-28T09:45:44Z</time>
      </trkpt>
      <trkpt lat="42.3009470" lon="-8.3568310">
        <ele>825.4</ele>
        <time>2022-08-28T09:45:50Z</time>
      </trkpt>
      <trkpt lat="42.3009790" lon="-8.3568070">
        <ele>825.6</ele>
        <time>2022-08-28T09:45:52Z</time>
      </trkpt>
      <trkpt lat="42.3011170" lon="-8.3567240">
        <ele>826.2</ele>
        <time>2022-08-28T09:45:59Z</time>
      </trkpt>
      <trkpt lat="42.3011920" lon="-8.3566680">
        <ele>826.4</ele>
        <time>2022-08-28T09:46:04Z</time>
      </trkpt>
      <trkpt lat="42.3011940" lon="-8.3566650">
        <ele>826.4</ele>
        <time>2022-08-28T09:46:05Z</time>
      </trkpt>
      <trkpt lat="42.3012200" lon="-8.3566430">
        <ele>826.6</ele>
        <time>2022-08-28T09:46:33Z</time>
      </trkpt>
      <trkpt lat="42.3012520" lon="-8.3566100">
        <ele>826.6</ele>
        <time>2022-08-28T09:46:35Z</time>
      </trkpt>
      <trkpt lat="42.3013230" lon="-8.3565020">
        <ele>826.6</ele>
        <time>2022-08-28T09:46:40Z</time>
      </trkpt>
      <trkpt lat="42.3014000" lon="-8.3563830">
        <ele>826.6</ele>
        <time>2022-08-28T09:46:45Z</time>
      </trkpt>
      <trkpt lat="42.3014080" lon="-8.3561940">
        <ele>826.8</ele>
        <time>2022-08-28T09:46:51Z</time>
      </trkpt>
      <trkpt lat="42.3013960" lon="-8.3560820">
        <ele>827.2</ele>
        <time>2022-08-28T09:46:55Z</time>
      </trkpt>
      <trkpt lat="42.3013750" lon="-8.3560020">
        <ele>828.0</ele>
        <time>2022-08-28T09:46:58Z</time>
      </trkpt>
      <trkpt lat="42.3013580" lon="-8.3559540">
        <ele>828.4</ele>
        <time>2022-08-28T09:47:00Z</time>
      </trkpt>
      <trkpt lat="42.3013020" lon="-8.3558550">
        <ele>829.0</ele>
        <time>2022-08-28T09:47:05Z</time>
      </trkpt>
      <trkpt lat="42.3012510" lon="-8.3558080">
        <ele>829.6</ele>
        <time>2022-08-28T09:47:09Z</time>
      </trkpt>
      <trkpt lat="42.3012090" lon="-8.3557660">
        <ele>830.0</ele>
        <time>2022-08-28T09:47:12Z</time>
      </trkpt>
      <trkpt lat="42.3011600" lon="-8.3557260">
        <ele>830.8</ele>
        <time>2022-08-28T09:47:15Z</time>
      </trkpt>
      <trkpt lat="42.3010580" lon="-8.3556530">
        <ele>831.4</ele>
        <time>2022-08-28T09:47:21Z</time>
      </trkpt>
      <trkpt lat="42.3009840" lon="-8.3556190">
        <ele>831.6</ele>
        <time>2022-08-28T09:47:25Z</time>
      </trkpt>
      <trkpt lat="42.3009340" lon="-8.3555990">
        <ele>832.0</ele>
        <time>2022-08-28T09:47:28Z</time>
      </trkpt>
      <trkpt lat="42.3008550" lon="-8.3555570">
        <ele>832.6</ele>
        <time>2022-08-28T09:47:33Z</time>
      </trkpt>
      <trkpt lat="42.3008420" lon="-8.3555410">
        <ele>832.8</ele>
        <time>2022-08-28T09:47:34Z</time>
      </trkpt>
      <trkpt lat="42.3007660" lon="-8.3554370">
        <ele>833.4</ele>
        <time>2022-08-28T09:47:40Z</time>
      </trkpt>
      <trkpt lat="42.3007290" lon="-8.3553760">
        <ele>833.6</ele>
        <time>2022-08-28T09:47:43Z</time>
      </trkpt>
      <trkpt lat="42.3006680" lon="-8.3552510">
        <ele>834.2</ele>
        <time>2022-08-28T09:47:48Z</time>
      </trkpt>
      <trkpt lat="42.3005920" lon="-8.3551590">
        <ele>834.6</ele>
        <time>2022-08-28T09:47:53Z</time>
      </trkpt>
      <trkpt lat="42.3005560" lon="-8.3551320">
        <ele>834.8</ele>
        <time>2022-08-28T09:47:55Z</time>
      </trkpt>
      <trkpt lat="42.3004280" lon="-8.3550370">
        <ele>835.2</ele>
        <time>2022-08-28T09:48:03Z</time>
      </trkpt>
      <trkpt lat="42.3003830" lon="-8.3549510">
        <ele>835.8</ele>
        <time>2022-08-28T09:48:08Z</time>
      </trkpt>
      <trkpt lat="42.3003690" lon="-8.3548820">
        <ele>836.2</ele>
        <time>2022-08-28T09:48:11Z</time>
      </trkpt>
      <trkpt lat="42.3003610" lon="-8.3548050">
        <ele>836.8</ele>
        <time>2022-08-28T09:48:14Z</time>
      </trkpt>
      <trkpt lat="42.3003320" lon="-8.3546250">
        <ele>837.6</ele>
        <time>2022-08-28T09:48:21Z</time>
      </trkpt>
      <trkpt lat="42.3003490" lon="-8.3545190">
        <ele>838.0</ele>
        <time>2022-08-28T09:48:25Z</time>
      </trkpt>
      <trkpt lat="42.3003710" lon="-8.3544410">
        <ele>838.2</ele>
        <time>2022-08-28T09:48:28Z</time>
      </trkpt>
      <trkpt lat="42.3004560" lon="-8.3542420">
        <ele>839.0</ele>
        <time>2022-08-28T09:48:36Z</time>
      </trkpt>
      <trkpt lat="42.3004710" lon="-8.3542200">
        <ele>839.0</ele>
        <time>2022-08-28T09:48:37Z</time>
      </trkpt>
      <trkpt lat="42.3006080" lon="-8.3541040">
        <ele>839.0</ele>
        <time>2022-08-28T09:48:44Z</time>
      </trkpt>
      <trkpt lat="42.3007850" lon="-8.3540350">
        <ele>839.2</ele>
        <time>2022-08-28T09:48:52Z</time>
      </trkpt>
      <trkpt lat="42.3009230" lon="-8.3539910">
        <ele>839.4</ele>
        <time>2022-08-28T09:48:58Z</time>
      </trkpt>
      <trkpt lat="42.3010240" lon="-8.3538960">
        <ele>839.8</ele>
        <time>2022-08-28T09:49:04Z</time>
      </trkpt>
      <trkpt lat="42.3010290" lon="-8.3538750">
        <ele>839.8</ele>
        <time>2022-08-28T09:49:05Z</time>
      </trkpt>
      <trkpt lat="42.3010800" lon="-8.3538100">
        <ele>840.2</ele>
        <time>2022-08-28T09:49:09Z</time>
      </trkpt>
      <trkpt lat="42.3011460" lon="-8.3537700">
        <ele>840.8</ele>
        <time>2022-08-28T09:49:12Z</time>
      </trkpt>
      <trkpt lat="42.3012060" lon="-8.3537400">
        <ele>841.4</ele>
        <time>2022-08-28T09:49:15Z</time>
      </trkpt>
      <trkpt lat="42.3012830" lon="-8.3536990">
        <ele>841.8</ele>
        <time>2022-08-28T09:49:19Z</time>
      </trkpt>
      <trkpt lat="42.3013320" lon="-8.3536530">
        <ele>842.2</ele>
        <time>2022-08-28T09:49:22Z</time>
      </trkpt>
      <trkpt lat="42.3014230" lon="-8.3535320">
        <ele>842.8</ele>
        <time>2022-08-28T09:49:28Z</time>
      </trkpt>
      <trkpt lat="42.3014590" lon="-8.3535010">
        <ele>843.0</ele>
        <time>2022-08-28T09:49:30Z</time>
      </trkpt>
      <trkpt lat="42.3015130" lon="-8.3534650">
        <ele>843.2</ele>
        <time>2022-08-28T09:49:33Z</time>
      </trkpt>
      <trkpt lat="42.3016390" lon="-8.3533470">
        <ele>843.4</ele>
        <time>2022-08-28T09:49:40Z</time>
      </trkpt>
      <trkpt lat="42.3017910" lon="-8.3532720">
        <ele>843.6</ele>
        <time>2022-08-28T09:49:46Z</time>
      </trkpt>
      <trkpt lat="42.3019890" lon="-8.3531700">
        <ele>843.6</ele>
        <time>2022-08-28T09:49:53Z</time>
      </trkpt>
      <trkpt lat="42.3022490" lon="-8.3530270">
        <ele>843.6</ele>
        <time>2022-08-28T09:50:01Z</time>
      </trkpt>
      <trkpt lat="42.3024830" lon="-8.3528850">
        <ele>843.6</ele>
        <time>2022-08-28T09:50:10Z</time>
      </trkpt>
      <trkpt lat="42.3026380" lon="-8.3528120">
        <ele>843.8</ele>
        <time>2022-08-28T09:50:15Z</time>
      </trkpt>
      <trkpt lat="42.3027290" lon="-8.3527640">
        <ele>843.8</ele>
        <time>2022-08-28T09:50:18Z</time>
      </trkpt>
      <trkpt lat="42.3028740" lon="-8.3526790">
        <ele>844.0</ele>
        <time>2022-08-28T09:50:23Z</time>
      </trkpt>
      <trkpt lat="42.3030980" lon="-8.3525410">
        <ele>844.4</ele>
        <time>2022-08-28T09:50:31Z</time>
      </trkpt>
      <trkpt lat="42.3033060" lon="-8.3523850">
        <ele>844.8</ele>
        <time>2022-08-28T09:50:39Z</time>
      </trkpt>
      <trkpt lat="42.3033830" lon="-8.3523290">
        <ele>844.8</ele>
        <time>2022-08-28T09:50:44Z</time>
      </trkpt>
      <trkpt lat="42.3035420" lon="-8.3521900">
        <ele>844.4</ele>
        <time>2022-08-28T09:50:51Z</time>
      </trkpt>
      <trkpt lat="42.3036170" lon="-8.3521340">
        <ele>844.0</ele>
        <time>2022-08-28T09:50:53Z</time>
      </trkpt>
      <trkpt lat="42.3037140" lon="-8.3520460">
        <ele>843.2</ele>
        <time>2022-08-28T09:50:56Z</time>
      </trkpt>
      <trkpt lat="42.3037870" lon="-8.3519910">
        <ele>842.4</ele>
        <time>2022-08-28T09:50:59Z</time>
      </trkpt>
      <trkpt lat="42.3038160" lon="-8.3519660">
        <ele>842.0</ele>
        <time>2022-08-28T09:51:01Z</time>
      </trkpt>
      <trkpt lat="42.3038580" lon="-8.3519240">
        <ele>841.2</ele>
        <time>2022-08-28T09:51:04Z</time>
      </trkpt>
      <trkpt lat="42.3038900" lon="-8.3518860">
        <ele>841.0</ele>
        <time>2022-08-28T09:51:07Z</time>
      </trkpt>
      <trkpt lat="42.3039150" lon="-8.3518550">
        <ele>840.6</ele>
        <time>2022-08-28T09:51:12Z</time>
      </trkpt>
      <trkpt lat="42.3039190" lon="-8.3518430">
        <ele>840.2</ele>
        <time>2022-08-28T09:51:14Z</time>
      </trkpt>
      <trkpt lat="42.3039300" lon="-8.3518210">
        <ele>839.2</ele>
        <time>2022-08-28T09:51:19Z</time>
      </trkpt>
      <trkpt lat="42.3039390" lon="-8.3518060">
        <ele>839.0</ele>
        <time>2022-08-28T09:51:23Z</time>
      </trkpt>
      <trkpt lat="42.3039560" lon="-8.3517810">
        <ele>838.8</ele>
        <time>2022-08-28T09:51:25Z</time>
      </trkpt>
      <trkpt lat="42.3040190" lon="-8.3517140">
        <ele>838.6</ele>
        <time>2022-08-28T09:51:32Z</time>
      </trkpt>
      <trkpt lat="42.3040930" lon="-8.3516310">
        <ele>838.2</ele>
        <time>2022-08-28T09:51:38Z</time>
      </trkpt>
      <trkpt lat="42.3041950" lon="-8.3515200">
        <ele>838.0</ele>
        <time>2022-08-28T09:51:45Z</time>
      </trkpt>
      <trkpt lat="42.3042750" lon="-8.3514120">
        <ele>838.0</ele>
        <time>2022-08-28T09:51:51Z</time>
      </trkpt>
      <trkpt lat="42.3043040" lon="-8.3513890">
        <ele>838.0</ele>
        <time>2022-08-28T09:51:54Z</time>
      </trkpt>
      <trkpt lat="42.3043150" lon="-8.3513860">
        <ele>837.8</ele>
        <time>2022-08-28T09:51:56Z</time>
      </trkpt>
      <trkpt lat="42.3043400" lon="-8.3513780">
        <ele>837.4</ele>
        <time>2022-08-28T09:51:59Z</time>
      </trkpt>
      <trkpt lat="42.3043860" lon="-8.3513590">
        <ele>837.0</ele>
        <time>2022-08-28T09:52:02Z</time>
      </trkpt>
      <trkpt lat="42.3044340" lon="-8.3513520">
        <ele>836.8</ele>
        <time>2022-08-28T09:52:05Z</time>
      </trkpt>
      <trkpt lat="42.3044480" lon="-8.3513520">
        <ele>836.8</ele>
        <time>2022-08-28T09:52:07Z</time>
      </trkpt>
      <trkpt lat="42.3044510" lon="-8.3513520">
        <ele>836.6</ele>
        <time>2022-08-28T09:52:09Z</time>
      </trkpt>
      <trkpt lat="42.3044840" lon="-8.3513420">
        <ele>837.2</ele>
        <time>2022-08-28T09:54:32Z</time>
      </trkpt>
      <trkpt lat="42.3045250" lon="-8.3513410">
        <ele>837.4</ele>
        <time>2022-08-28T09:54:34Z</time>
      </trkpt>
      <trkpt lat="42.3045430" lon="-8.3513470">
        <ele>837.2</ele>
        <time>2022-08-28T09:54:37Z</time>
      </trkpt>
      <trkpt lat="42.3045740" lon="-8.3513400">
        <ele>837.6</ele>
        <time>2022-08-28T09:56:01Z</time>
      </trkpt>
      <trkpt lat="42.3046150" lon="-8.3513340">
        <ele>837.6</ele>
        <time>2022-08-28T09:56:03Z</time>
      </trkpt>
      <trkpt lat="42.3048560" lon="-8.3512930">
        <ele>837.2</ele>
        <time>2022-08-28T09:56:12Z</time>
      </trkpt>
      <trkpt lat="42.3049100" lon="-8.3512910">
        <ele>837.2</ele>
        <time>2022-08-28T09:56:14Z</time>
      </trkpt>
      <trkpt lat="42.3050170" lon="-8.3512660">
        <ele>837.2</ele>
        <time>2022-08-28T09:56:18Z</time>
      </trkpt>
      <trkpt lat="42.3051580" lon="-8.3512460">
        <ele>837.2</ele>
        <time>2022-08-28T09:56:23Z</time>
      </trkpt>
      <trkpt lat="42.3053390" lon="-8.3512780">
        <ele>837.2</ele>
        <time>2022-08-28T09:56:29Z</time>
      </trkpt>
      <trkpt lat="42.3056010" lon="-8.3513150">
        <ele>837.0</ele>
        <time>2022-08-28T09:56:37Z</time>
      </trkpt>
      <trkpt lat="42.3058800" lon="-8.3513720">
        <ele>836.6</ele>
        <time>2022-08-28T09:56:46Z</time>
      </trkpt>
      <trkpt lat="42.3059930" lon="-8.3513840">
        <ele>836.8</ele>
        <time>2022-08-28T09:56:52Z</time>
      </trkpt>
      <trkpt lat="42.3060820" lon="-8.3514210">
        <ele>837.0</ele>
        <time>2022-08-28T09:56:58Z</time>
      </trkpt>
      <trkpt lat="42.3061660" lon="-8.3514520">
        <ele>837.4</ele>
        <time>2022-08-28T09:57:04Z</time>
      </trkpt>
      <trkpt lat="42.3063000" lon="-8.3514610">
        <ele>838.2</ele>
        <time>2022-08-28T09:57:11Z</time>
      </trkpt>
      <trkpt lat="42.3064370" lon="-8.3514830">
        <ele>838.6</ele>
        <time>2022-08-28T09:57:19Z</time>
      </trkpt>
      <trkpt lat="42.3064650" lon="-8.3514910">
        <ele>838.8</ele>
        <time>2022-08-28T09:57:21Z</time>
      </trkpt>
      <trkpt lat="42.3065220" lon="-8.3514810">
        <ele>839.0</ele>
        <time>2022-08-28T09:57:25Z</time>
      </trkpt>
      <trkpt lat="42.3065340" lon="-8.3514780">
        <ele>839.2</ele>
        <time>2022-08-28T09:57:26Z</time>
      </trkpt>
      <trkpt lat="42.3065560" lon="-8.3514740">
        <ele>839.2</ele>
        <time>2022-08-28T09:57:28Z</time>
      </trkpt>
      <trkpt lat="42.3066060" lon="-8.3514660">
        <ele>839.6</ele>
        <time>2022-08-28T09:57:33Z</time>
      </trkpt>
      <trkpt lat="42.3066340" lon="-8.3514610">
        <ele>840.2</ele>
        <time>2022-08-28T09:57:37Z</time>
      </trkpt>
      <trkpt lat="42.3066650" lon="-8.3514540">
        <ele>840.4</ele>
        <time>2022-08-28T09:57:40Z</time>
      </trkpt>
      <trkpt lat="42.3066760" lon="-8.3514480">
        <ele>840.2</ele>
        <time>2022-08-28T09:57:41Z</time>
      </trkpt>
      <trkpt lat="42.3066970" lon="-8.3514470">
        <ele>840.6</ele>
        <time>2022-08-28T09:57:45Z</time>
      </trkpt>
      <trkpt lat="42.3075840" lon="-8.3514990">
        <ele>850.0</ele>
        <time>2022-08-28T10:00:36Z</time>
      </trkpt>
      <trkpt lat="42.3076730" lon="-8.3515230">
        <ele>850.4</ele>
        <time>2022-08-28T10:00:42Z</time>
      </trkpt>
      <trkpt lat="42.3077590" lon="-8.3515460">
        <ele>851.0</ele>
        <time>2022-08-28T10:00:49Z</time>
      </trkpt>
      <trkpt lat="42.3077820" lon="-8.3515570">
        <ele>851.0</ele>
        <time>2022-08-28T10:00:51Z</time>
      </trkpt>
      <trkpt lat="42.3078450" lon="-8.3515780">
        <ele>851.2</ele>
        <time>2022-08-28T10:00:56Z</time>
      </trkpt>
      <trkpt lat="42.3079400" lon="-8.3516090">
        <ele>851.8</ele>
        <time>2022-08-28T10:01:04Z</time>
      </trkpt>
      <trkpt lat="42.3079610" lon="-8.3516200">
        <ele>852.4</ele>
        <time>2022-08-28T10:01:06Z</time>
      </trkpt>
      <trkpt lat="42.3080290" lon="-8.3516370">
        <ele>853.0</ele>
        <time>2022-08-28T10:01:11Z</time>
      </trkpt>
      <trkpt lat="42.3080500" lon="-8.3516490">
        <ele>853.6</ele>
        <time>2022-08-28T10:01:13Z</time>
      </trkpt>
      <trkpt lat="42.3080910" lon="-8.3516820">
        <ele>854.4</ele>
        <time>2022-08-28T10:01:18Z</time>
      </trkpt>
      <trkpt lat="42.3080970" lon="-8.3516830">
        <ele>854.6</ele>
        <time>2022-08-28T10:01:19Z</time>
      </trkpt>
      <trkpt lat="42.3081170" lon="-8.3516810">
        <ele>855.4</ele>
        <time>2022-08-28T10:01:24Z</time>
      </trkpt>
      <trkpt lat="42.3081490" lon="-8.3516890">
        <ele>855.8</ele>
        <time>2022-08-28T10:01:28Z</time>
      </trkpt>
      <trkpt lat="42.3081790" lon="-8.3516960">
        <ele>855.8</ele>
        <time>2022-08-28T10:01:30Z</time>
      </trkpt>
      <trkpt lat="42.3082200" lon="-8.3517330">
        <ele>856.0</ele>
        <time>2022-08-28T10:01:33Z</time>
      </trkpt>
      <trkpt lat="42.3082990" lon="-8.3517830">
        <ele>856.2</ele>
        <time>2022-08-28T10:01:38Z</time>
      </trkpt>
      <trkpt lat="42.3083770" lon="-8.3518520">
        <ele>856.6</ele>
        <time>2022-08-28T10:01:42Z</time>
      </trkpt>
      <trkpt lat="42.3084670" lon="-8.3519110">
        <ele>857.2</ele>
        <time>2022-08-28T10:01:46Z</time>
      </trkpt>
      <trkpt lat="42.3086520" lon="-8.3519850">
        <ele>857.8</ele>
        <time>2022-08-28T10:01:53Z</time>
      </trkpt>
      <trkpt lat="42.3086780" lon="-8.3520000">
        <ele>857.8</ele>
        <time>2022-08-28T10:01:54Z</time>
      </trkpt>
      <trkpt lat="42.3087990" lon="-8.3520800">
        <ele>857.8</ele>
        <time>2022-08-28T10:02:00Z</time>
      </trkpt>
      <trkpt lat="42.3088000" lon="-8.3520810">
        <ele>857.6</ele>
        <time>2022-08-28T10:02:01Z</time>
      </trkpt>
      <trkpt lat="42.3088320" lon="-8.3520890">
        <ele>857.2</ele>
        <time>2022-08-28T10:02:21Z</time>
      </trkpt>
      <trkpt lat="42.3088730" lon="-8.3521110">
        <ele>857.2</ele>
        <time>2022-08-28T10:02:23Z</time>
      </trkpt>
      <trkpt lat="42.3089990" lon="-8.3521970">
        <ele>857.0</ele>
        <time>2022-08-28T10:02:27Z</time>
      </trkpt>
      <trkpt lat="42.3090370" lon="-8.3522260">
        <ele>857.0</ele>
        <time>2022-08-28T10:02:28Z</time>
      </trkpt>
      <trkpt lat="42.3092210" lon="-8.3523380">
        <ele>856.6</ele>
        <time>2022-08-28T10:02:32Z</time>
      </trkpt>
      <trkpt lat="42.3092740" lon="-8.3523720">
        <ele>856.6</ele>
        <time>2022-08-28T10:02:33Z</time>
      </trkpt>
      <trkpt lat="42.3093900" lon="-8.3524250">
        <ele>856.0</ele>
        <time>2022-08-28T10:02:35Z</time>
      </trkpt>
      <trkpt lat="42.3095180" lon="-8.3524510">
        <ele>855.2</ele>
        <time>2022-08-28T10:02:37Z</time>
      </trkpt>
      <trkpt lat="42.3095860" lon="-8.3524560">
        <ele>855.0</ele>
        <time>2022-08-28T10:02:38Z</time>
      </trkpt>
      <trkpt lat="42.3098010" lon="-8.3524420">
        <ele>854.0</ele>
        <time>2022-08-28T10:02:41Z</time>
      </trkpt>
      <trkpt lat="42.3099500" lon="-8.3524340">
        <ele>853.6</ele>
        <time>2022-08-28T10:02:43Z</time>
      </trkpt>
      <trkpt lat="42.3100260" lon="-8.3524370">
        <ele>852.8</ele>
        <time>2022-08-28T10:02:44Z</time>
      </trkpt>
      <trkpt lat="42.3103170" lon="-8.3524740">
        <ele>851.6</ele>
        <time>2022-08-28T10:02:48Z</time>
      </trkpt>
      <trkpt lat="42.3103860" lon="-8.3524870">
        <ele>851.0</ele>
        <time>2022-08-28T10:02:49Z</time>
      </trkpt>
      <trkpt lat="42.3104540" lon="-8.3525040">
        <ele>850.4</ele>
        <time>2022-08-28T10:02:50Z</time>
      </trkpt>
      <trkpt lat="42.3107130" lon="-8.3526130">
        <ele>849.2</ele>
        <time>2022-08-28T10:02:54Z</time>
      </trkpt>
      <trkpt lat="42.3107750" lon="-8.3526430">
        <ele>848.6</ele>
        <time>2022-08-28T10:02:55Z</time>
      </trkpt>
      <trkpt lat="42.3108350" lon="-8.3526740">
        <ele>848.0</ele>
        <time>2022-08-28T10:02:56Z</time>
      </trkpt>
      <trkpt lat="42.3110430" lon="-8.3528100">
        <ele>846.6</ele>
        <time>2022-08-28T10:03:00Z</time>
      </trkpt>
      <trkpt lat="42.3112120" lon="-8.3529370">
        <ele>846.0</ele>
        <time>2022-08-28T10:03:04Z</time>
      </trkpt>
      <trkpt lat="42.3113310" lon="-8.3530060">
        <ele>846.0</ele>
        <time>2022-08-28T10:03:07Z</time>
      </trkpt>
      <trkpt lat="42.3115150" lon="-8.3530930">
        <ele>846.2</ele>
        <time>2022-08-28T10:03:12Z</time>
      </trkpt>
      <trkpt lat="42.3115560" lon="-8.3531030">
        <ele>846.2</ele>
        <time>2022-08-28T10:03:13Z</time>
      </trkpt>
      <trkpt lat="42.3116740" lon="-8.3531410">
        <ele>846.4</ele>
        <time>2022-08-28T10:03:16Z</time>
      </trkpt>
      <trkpt lat="42.3117960" lon="-8.3531550">
        <ele>846.6</ele>
        <time>2022-08-28T10:03:19Z</time>
      </trkpt>
      <trkpt lat="42.3118780" lon="-8.3531550">
        <ele>846.6</ele>
        <time>2022-08-28T10:03:21Z</time>
      </trkpt>
      <trkpt lat="42.3121080" lon="-8.3531200">
        <ele>846.8</ele>
        <time>2022-08-28T10:03:27Z</time>
      </trkpt>
      <trkpt lat="42.3122850" lon="-8.3530480">
        <ele>846.8</ele>
        <time>2022-08-28T10:03:33Z</time>
      </trkpt>
      <trkpt lat="42.3124420" lon="-8.3529770">
        <ele>847.6</ele>
        <time>2022-08-28T10:03:39Z</time>
      </trkpt>
      <trkpt lat="42.3124640" lon="-8.3529620">
        <ele>847.8</ele>
        <time>2022-08-28T10:03:40Z</time>
      </trkpt>
      <trkpt lat="42.3125910" lon="-8.3528920">
        <ele>848.6</ele>
        <time>2022-08-28T10:03:45Z</time>
      </trkpt>
      <trkpt lat="42.3126460" lon="-8.3528640">
        <ele>848.8</ele>
        <time>2022-08-28T10:03:47Z</time>
      </trkpt>
      <trkpt lat="42.3128250" lon="-8.3527760">
        <ele>849.2</ele>
        <time>2022-08-28T10:03:53Z</time>
      </trkpt>
      <trkpt lat="42.3131530" lon="-8.3526090">
        <ele>849.8</ele>
        <time>2022-08-28T10:04:03Z</time>
      </trkpt>
      <trkpt lat="42.3131880" lon="-8.3525910">
        <ele>849.8</ele>
        <time>2022-08-28T10:04:04Z</time>
      </trkpt>
      <trkpt lat="42.3133360" lon="-8.3525140">
        <ele>850.0</ele>
        <time>2022-08-28T10:04:08Z</time>
      </trkpt>
      <trkpt lat="42.3134490" lon="-8.3524610">
        <ele>850.0</ele>
        <time>2022-08-28T10:04:11Z</time>
      </trkpt>
      <trkpt lat="42.3137170" lon="-8.3523370">
        <ele>850.0</ele>
        <time>2022-08-28T10:04:18Z</time>
      </trkpt>
      <trkpt lat="42.3140820" lon="-8.3522210">
        <ele>850.0</ele>
        <time>2022-08-28T10:04:27Z</time>
      </trkpt>
      <trkpt lat="42.3145560" lon="-8.3521360">
        <ele>850.6</ele>
        <time>2022-08-28T10:04:39Z</time>
      </trkpt>
      <trkpt lat="42.3145940" lon="-8.3521320">
        <ele>850.6</ele>
        <time>2022-08-28T10:04:40Z</time>
      </trkpt>
      <trkpt lat="42.3148580" lon="-8.3521000">
        <ele>851.2</ele>
        <time>2022-08-28T10:04:47Z</time>
      </trkpt>
      <trkpt lat="42.3150690" lon="-8.3521020">
        <ele>851.8</ele>
        <time>2022-08-28T10:04:53Z</time>
      </trkpt>
      <trkpt lat="42.3151030" lon="-8.3521060">
        <ele>851.8</ele>
        <time>2022-08-28T10:04:54Z</time>
      </trkpt>
      <trkpt lat="42.3153450" lon="-8.3522010">
        <ele>852.4</ele>
        <time>2022-08-28T10:05:01Z</time>
      </trkpt>
      <trkpt lat="42.3154650" lon="-8.3522720">
        <ele>852.8</ele>
        <time>2022-08-28T10:05:05Z</time>
      </trkpt>
      <trkpt lat="42.3155960" lon="-8.3523390">
        <ele>853.2</ele>
        <time>2022-08-28T10:05:10Z</time>
      </trkpt>
      <trkpt lat="42.3157040" lon="-8.3523890">
        <ele>853.8</ele>
        <time>2022-08-28T10:05:15Z</time>
      </trkpt>
      <trkpt lat="42.3157620" lon="-8.3524110">
        <ele>854.0</ele>
        <time>2022-08-28T10:05:18Z</time>
      </trkpt>
      <trkpt lat="42.3158560" lon="-8.3524480">
        <ele>854.8</ele>
        <time>2022-08-28T10:05:23Z</time>
      </trkpt>
      <trkpt lat="42.3159150" lon="-8.3524470">
        <ele>855.4</ele>
        <time>2022-08-28T10:05:26Z</time>
      </trkpt>
      <trkpt lat="42.3159780" lon="-8.3524420">
        <ele>856.0</ele>
        <time>2022-08-28T10:05:29Z</time>
      </trkpt>
      <trkpt lat="42.3160720" lon="-8.3524120">
        <ele>856.8</ele>
        <time>2022-08-28T10:05:33Z</time>
      </trkpt>
      <trkpt lat="42.3161810" lon="-8.3523610">
        <ele>857.0</ele>
        <time>2022-08-28T10:05:37Z</time>
      </trkpt>
      <trkpt lat="42.3163010" lon="-8.3523050">
        <ele>857.2</ele>
        <time>2022-08-28T10:05:41Z</time>
      </trkpt>
      <trkpt lat="42.3165170" lon="-8.3522300">
        <ele>857.2</ele>
        <time>2022-08-28T10:05:48Z</time>
      </trkpt>
      <trkpt lat="42.3167900" lon="-8.3522190">
        <ele>857.2</ele>
        <time>2022-08-28T10:05:55Z</time>
      </trkpt>
      <trkpt lat="42.3170700" lon="-8.3522540">
        <ele>857.0</ele>
        <time>2022-08-28T10:06:00Z</time>
      </trkpt>
      <trkpt lat="42.3171350" lon="-8.3522690">
        <ele>856.8</ele>
        <time>2022-08-28T10:06:01Z</time>
      </trkpt>
      <trkpt lat="42.3172750" lon="-8.3523030">
        <ele>855.8</ele>
        <time>2022-08-28T10:06:03Z</time>
      </trkpt>
      <trkpt lat="42.3175020" lon="-8.3523510">
        <ele>854.8</ele>
        <time>2022-08-28T10:06:06Z</time>
      </trkpt>
      <trkpt lat="42.3176530" lon="-8.3523800">
        <ele>853.8</ele>
        <time>2022-08-28T10:06:08Z</time>
      </trkpt>
      <trkpt lat="42.3178040" lon="-8.3523990">
        <ele>852.4</ele>
        <time>2022-08-28T10:06:10Z</time>
      </trkpt>
      <trkpt lat="42.3180210" lon="-8.3524270">
        <ele>851.2</ele>
        <time>2022-08-28T10:06:13Z</time>
      </trkpt>
      <trkpt lat="42.3180880" lon="-8.3524360">
        <ele>850.8</ele>
        <time>2022-08-28T10:06:14Z</time>
      </trkpt>
      <trkpt lat="42.3181540" lon="-8.3524440">
        <ele>850.2</ele>
        <time>2022-08-28T10:06:15Z</time>
      </trkpt>
      <trkpt lat="42.3184610" lon="-8.3524780">
        <ele>849.0</ele>
        <time>2022-08-28T10:06:20Z</time>
      </trkpt>
      <trkpt lat="42.3185200" lon="-8.3524810">
        <ele>848.8</ele>
        <time>2022-08-28T10:06:21Z</time>
      </trkpt>
      <trkpt lat="42.3186280" lon="-8.3524760">
        <ele>848.6</ele>
        <time>2022-08-28T10:06:23Z</time>
      </trkpt>
      <trkpt lat="42.3187430" lon="-8.3524480">
        <ele>848.4</ele>
        <time>2022-08-28T10:06:26Z</time>
      </trkpt>
      <trkpt lat="42.3188190" lon="-8.3523670">
        <ele>848.4</ele>
        <time>2022-08-28T10:06:30Z</time>
      </trkpt>
      <trkpt lat="42.3188330" lon="-8.3522180">
        <ele>849.2</ele>
        <time>2022-08-28T10:06:35Z</time>
      </trkpt>
      <trkpt lat="42.3187910" lon="-8.3520840">
        <ele>850.2</ele>
        <time>2022-08-28T10:06:39Z</time>
      </trkpt>
      <trkpt lat="42.3187750" lon="-8.3520520">
        <ele>850.4</ele>
        <time>2022-08-28T10:06:40Z</time>
      </trkpt>
      <trkpt lat="42.3187010" lon="-8.3518940">
        <ele>851.2</ele>
        <time>2022-08-28T10:06:45Z</time>
      </trkpt>
      <trkpt lat="42.3186480" lon="-8.3517990">
        <ele>851.6</ele>
        <time>2022-08-28T10:06:48Z</time>
      </trkpt>
      <trkpt lat="42.3184940" lon="-8.3515170">
        <ele>852.2</ele>
        <time>2022-08-28T10:06:56Z</time>
      </trkpt>
      <trkpt lat="42.3183490" lon="-8.3512200">
        <ele>852.6</ele>
        <time>2022-08-28T10:07:03Z</time>
      </trkpt>
      <trkpt lat="42.3182590" lon="-8.3509260">
        <ele>852.6</ele>
        <time>2022-08-28T10:07:09Z</time>
      </trkpt>
      <trkpt lat="42.3181180" lon="-8.3505490">
        <ele>852.6</ele>
        <time>2022-08-28T10:07:17Z</time>
      </trkpt>
      <trkpt lat="42.3178780" lon="-8.3502560">
        <ele>852.6</ele>
        <time>2022-08-28T10:07:25Z</time>
      </trkpt>
      <trkpt lat="42.3176190" lon="-8.3499470">
        <ele>852.4</ele>
        <time>2022-08-28T10:07:33Z</time>
      </trkpt>
      <trkpt lat="42.3175920" lon="-8.3499020">
        <ele>852.4</ele>
        <time>2022-08-28T10:07:34Z</time>
      </trkpt>
      <trkpt lat="42.3174590" lon="-8.3496640">
        <ele>852.2</ele>
        <time>2022-08-28T10:07:40Z</time>
      </trkpt>
      <trkpt lat="42.3174080" lon="-8.3494870">
        <ele>852.2</ele>
        <time>2022-08-28T10:07:46Z</time>
      </trkpt>
      <trkpt lat="42.3173920" lon="-8.3493330">
        <ele>852.8</ele>
        <time>2022-08-28T10:07:54Z</time>
      </trkpt>
      <trkpt lat="42.3173930" lon="-8.3493000">
        <ele>853.2</ele>
        <time>2022-08-28T10:07:56Z</time>
      </trkpt>
      <trkpt lat="42.3174060" lon="-8.3492410">
        <ele>854.4</ele>
        <time>2022-08-28T10:08:00Z</time>
      </trkpt>
      <trkpt lat="42.3174110" lon="-8.3492270">
        <ele>854.6</ele>
        <time>2022-08-28T10:08:01Z</time>
      </trkpt>
      <trkpt lat="42.3174340" lon="-8.3491700">
        <ele>855.4</ele>
        <time>2022-08-28T10:08:06Z</time>
      </trkpt>
      <trkpt lat="42.3174420" lon="-8.3491600">
        <ele>855.6</ele>
        <time>2022-08-28T10:08:07Z</time>
      </trkpt>
      <trkpt lat="42.3174770" lon="-8.3491190">
        <ele>856.6</ele>
        <time>2022-08-28T10:08:11Z</time>
      </trkpt>
      <trkpt lat="42.3175400" lon="-8.3490770">
        <ele>857.4</ele>
        <time>2022-08-28T10:08:17Z</time>
      </trkpt>
      <trkpt lat="42.3175520" lon="-8.3490700">
        <ele>857.6</ele>
        <time>2022-08-28T10:08:18Z</time>
      </trkpt>
      <trkpt lat="42.3176460" lon="-8.3490680">
        <ele>858.6</ele>
        <time>2022-08-28T10:08:25Z</time>
      </trkpt>
      <trkpt lat="42.3177460" lon="-8.3491430">
        <ele>859.6</ele>
        <time>2022-08-28T10:08:32Z</time>
      </trkpt>
      <trkpt lat="42.3178830" lon="-8.3492800">
        <ele>860.8</ele>
        <time>2022-08-28T10:08:41Z</time>
      </trkpt>
      <trkpt lat="42.3179780" lon="-8.3494340">
        <ele>861.0</ele>
        <time>2022-08-28T10:08:49Z</time>
      </trkpt>
      <trkpt lat="42.3181210" lon="-8.3496240">
        <ele>861.6</ele>
        <time>2022-08-28T10:09:00Z</time>
      </trkpt>
      <trkpt lat="42.3181330" lon="-8.3496400">
        <ele>861.8</ele>
        <time>2022-08-28T10:09:01Z</time>
      </trkpt>
      <trkpt lat="42.3182080" lon="-8.3497460">
        <ele>862.8</ele>
        <time>2022-08-28T10:09:08Z</time>
      </trkpt>
      <trkpt lat="42.3182200" lon="-8.3497580">
        <ele>863.0</ele>
        <time>2022-08-28T10:09:09Z</time>
      </trkpt>
      <trkpt lat="42.3183040" lon="-8.3498550">
        <ele>863.8</ele>
        <time>2022-08-28T10:09:17Z</time>
      </trkpt>
      <trkpt lat="42.3183240" lon="-8.3498790">
        <ele>864.0</ele>
        <time>2022-08-28T10:09:19Z</time>
      </trkpt>
      <trkpt lat="42.3183990" lon="-8.3499530">
        <ele>865.2</ele>
        <time>2022-08-28T10:09:25Z</time>
      </trkpt>
      <trkpt lat="42.3184250" lon="-8.3499810">
        <ele>865.6</ele>
        <time>2022-08-28T10:09:27Z</time>
      </trkpt>
      <trkpt lat="42.3184800" lon="-8.3500380">
        <ele>866.4</ele>
        <time>2022-08-28T10:09:31Z</time>
      </trkpt>
      <trkpt lat="42.3185650" lon="-8.3501210">
        <ele>867.2</ele>
        <time>2022-08-28T10:09:37Z</time>
      </trkpt>
      <trkpt lat="42.3185940" lon="-8.3501520">
        <ele>867.6</ele>
        <time>2022-08-28T10:09:39Z</time>
      </trkpt>
      <trkpt lat="42.3187070" lon="-8.3502530">
        <ele>868.6</ele>
        <time>2022-08-28T10:09:47Z</time>
      </trkpt>
      <trkpt lat="42.3188280" lon="-8.3503320">
        <ele>869.6</ele>
        <time>2022-08-28T10:09:55Z</time>
      </trkpt>
      <trkpt lat="42.3188410" lon="-8.3503420">
        <ele>869.8</ele>
        <time>2022-08-28T10:09:56Z</time>
      </trkpt>
      <trkpt lat="42.3189370" lon="-8.3504340">
        <ele>870.8</ele>
        <time>2022-08-28T10:10:03Z</time>
      </trkpt>
      <trkpt lat="42.3190290" lon="-8.3505240">
        <ele>871.8</ele>
        <time>2022-08-28T10:10:10Z</time>
      </trkpt>
      <trkpt lat="42.3190400" lon="-8.3505360">
        <ele>872.0</ele>
        <time>2022-08-28T10:10:11Z</time>
      </trkpt>
      <trkpt lat="42.3190510" lon="-8.3505490">
        <ele>872.0</ele>
        <time>2022-08-28T10:10:12Z</time>
      </trkpt>
      <trkpt lat="42.3191060" lon="-8.3506170">
        <ele>873.0</ele>
        <time>2022-08-28T10:10:17Z</time>
      </trkpt>
      <trkpt lat="42.3191450" lon="-8.3506600">
        <ele>873.6</ele>
        <time>2022-08-28T10:10:21Z</time>
      </trkpt>
      <trkpt lat="42.3191750" lon="-8.3506930">
        <ele>874.2</ele>
        <time>2022-08-28T10:10:24Z</time>
      </trkpt>
      <trkpt lat="42.3192140" lon="-8.3507390">
        <ele>875.2</ele>
        <time>2022-08-28T10:10:28Z</time>
      </trkpt>
      <trkpt lat="42.3192230" lon="-8.3507460">
        <ele>875.4</ele>
        <time>2022-08-28T10:10:29Z</time>
      </trkpt>
      <trkpt lat="42.3192990" lon="-8.3508380">
        <ele>876.2</ele>
        <time>2022-08-28T10:10:37Z</time>
      </trkpt>
      <trkpt lat="42.3193680" lon="-8.3509140">
        <ele>877.2</ele>
        <time>2022-08-28T10:10:44Z</time>
      </trkpt>
      <trkpt lat="42.3193900" lon="-8.3509360">
        <ele>877.6</ele>
        <time>2022-08-28T10:10:46Z</time>
      </trkpt>
      <trkpt lat="42.3194410" lon="-8.3509970">
        <ele>878.4</ele>
        <time>2022-08-28T10:10:51Z</time>
      </trkpt>
      <trkpt lat="42.3194930" lon="-8.3510510">
        <ele>879.2</ele>
        <time>2022-08-28T10:10:56Z</time>
      </trkpt>
      <trkpt lat="42.3195040" lon="-8.3510610">
        <ele>879.4</ele>
        <time>2022-08-28T10:10:57Z</time>
      </trkpt>
      <trkpt lat="42.3195870" lon="-8.3511300">
        <ele>880.2</ele>
        <time>2022-08-28T10:11:04Z</time>
      </trkpt>
      <trkpt lat="42.3195990" lon="-8.3511380">
        <ele>880.4</ele>
        <time>2022-08-28T10:11:05Z</time>
      </trkpt>
      <trkpt lat="42.3196680" lon="-8.3512040">
        <ele>881.4</ele>
        <time>2022-08-28T10:11:12Z</time>
      </trkpt>
      <trkpt lat="42.3196780" lon="-8.3512110">
        <ele>881.6</ele>
        <time>2022-08-28T10:11:13Z</time>
      </trkpt>
      <trkpt lat="42.3197430" lon="-8.3512420">
        <ele>882.6</ele>
        <time>2022-08-28T10:11:19Z</time>
      </trkpt>
      <trkpt lat="42.3197540" lon="-8.3512430">
        <ele>882.8</ele>
        <time>2022-08-28T10:11:20Z</time>
      </trkpt>
      <trkpt lat="42.3198180" lon="-8.3512620">
        <ele>883.6</ele>
        <time>2022-08-28T10:11:25Z</time>
      </trkpt>
      <trkpt lat="42.3198550" lon="-8.3512790">
        <ele>884.2</ele>
        <time>2022-08-28T10:11:28Z</time>
      </trkpt>
      <trkpt lat="42.3199020" lon="-8.3512900">
        <ele>884.8</ele>
        <time>2022-08-28T10:11:32Z</time>
      </trkpt>
      <trkpt lat="42.3199360" lon="-8.3513060">
        <ele>885.2</ele>
        <time>2022-08-28T10:11:35Z</time>
      </trkpt>
      <trkpt lat="42.3199940" lon="-8.3513210">
        <ele>886.0</ele>
        <time>2022-08-28T10:11:40Z</time>
      </trkpt>
      <trkpt lat="42.3200330" lon="-8.3513340">
        <ele>886.4</ele>
        <time>2022-08-28T10:11:43Z</time>
      </trkpt>
      <trkpt lat="42.3201020" lon="-8.3513580">
        <ele>887.0</ele>
        <time>2022-08-28T10:11:48Z</time>
      </trkpt>
      <trkpt lat="42.3201400" lon="-8.3513740">
        <ele>887.4</ele>
        <time>2022-08-28T10:11:51Z</time>
      </trkpt>
      <trkpt lat="42.3201860" lon="-8.3513840">
        <ele>888.2</ele>
        <time>2022-08-28T10:11:55Z</time>
      </trkpt>
      <trkpt lat="42.3202350" lon="-8.3514190">
        <ele>888.8</ele>
        <time>2022-08-28T10:11:59Z</time>
      </trkpt>
      <trkpt lat="42.3202720" lon="-8.3514280">
        <ele>889.2</ele>
        <time>2022-08-28T10:12:02Z</time>
      </trkpt>
      <trkpt lat="42.3203320" lon="-8.3514350">
        <ele>889.8</ele>
        <time>2022-08-28T10:12:07Z</time>
      </trkpt>
      <trkpt lat="42.3203560" lon="-8.3514380">
        <ele>890.2</ele>
        <time>2022-08-28T10:12:09Z</time>
      </trkpt>
      <trkpt lat="42.3204510" lon="-8.3514380">
        <ele>891.2</ele>
        <time>2022-08-28T10:12:17Z</time>
      </trkpt>
      <trkpt lat="42.3204630" lon="-8.3514390">
        <ele>891.4</ele>
        <time>2022-08-28T10:12:18Z</time>
      </trkpt>
      <trkpt lat="42.3205630" lon="-8.3514360">
        <ele>892.6</ele>
        <time>2022-08-28T10:12:26Z</time>
      </trkpt>
      <trkpt lat="42.3206300" lon="-8.3514260">
        <ele>893.6</ele>
        <time>2022-08-28T10:12:32Z</time>
      </trkpt>
      <trkpt lat="42.3206620" lon="-8.3514180">
        <ele>894.2</ele>
        <time>2022-08-28T10:12:35Z</time>
      </trkpt>
      <trkpt lat="42.3207100" lon="-8.3514100">
        <ele>894.6</ele>
        <time>2022-08-28T10:12:39Z</time>
      </trkpt>
      <trkpt lat="42.3207700" lon="-8.3514030">
        <ele>895.4</ele>
        <time>2022-08-28T10:12:44Z</time>
      </trkpt>
      <trkpt lat="42.3207930" lon="-8.3513970">
        <ele>895.6</ele>
        <time>2022-08-28T10:12:46Z</time>
      </trkpt>
      <trkpt lat="42.3208670" lon="-8.3513960">
        <ele>896.8</ele>
        <time>2022-08-28T10:12:52Z</time>
      </trkpt>
      <trkpt lat="42.3208800" lon="-8.3513970">
        <ele>897.0</ele>
        <time>2022-08-28T10:12:53Z</time>
      </trkpt>
      <trkpt lat="42.3209740" lon="-8.3513880">
        <ele>898.0</ele>
        <time>2022-08-28T10:13:01Z</time>
      </trkpt>
      <trkpt lat="42.3209960" lon="-8.3513840">
        <ele>898.4</ele>
        <time>2022-08-28T10:13:03Z</time>
      </trkpt>
      <trkpt lat="42.3210400" lon="-8.3513780">
        <ele>899.0</ele>
        <time>2022-08-28T10:13:07Z</time>
      </trkpt>
      <trkpt lat="42.3211110" lon="-8.3513700">
        <ele>900.0</ele>
        <time>2022-08-28T10:13:14Z</time>
      </trkpt>
      <trkpt lat="42.3211940" lon="-8.3513540">
        <ele>901.2</ele>
        <time>2022-08-28T10:13:22Z</time>
      </trkpt>
      <trkpt lat="42.3212050" lon="-8.3513530">
        <ele>901.2</ele>
        <time>2022-08-28T10:13:23Z</time>
      </trkpt>
      <trkpt lat="42.3212700" lon="-8.3513400">
        <ele>902.2</ele>
        <time>2022-08-28T10:13:29Z</time>
      </trkpt>
      <trkpt lat="42.3212980" lon="-8.3513270">
        <ele>902.6</ele>
        <time>2022-08-28T10:13:32Z</time>
      </trkpt>
      <trkpt lat="42.3213290" lon="-8.3512820">
        <ele>903.2</ele>
        <time>2022-08-28T10:13:36Z</time>
      </trkpt>
      <trkpt lat="42.3213570" lon="-8.3512610">
        <ele>903.6</ele>
        <time>2022-08-28T10:13:39Z</time>
      </trkpt>
      <trkpt lat="42.3213880" lon="-8.3512500">
        <ele>904.2</ele>
        <time>2022-08-28T10:13:42Z</time>
      </trkpt>
      <trkpt lat="42.3214440" lon="-8.3512270">
        <ele>905.2</ele>
        <time>2022-08-28T10:13:47Z</time>
      </trkpt>
      <trkpt lat="42.3214550" lon="-8.3512190">
        <ele>905.2</ele>
        <time>2022-08-28T10:13:48Z</time>
      </trkpt>
      <trkpt lat="42.3215300" lon="-8.3511860">
        <ele>906.2</ele>
        <time>2022-08-28T10:13:55Z</time>
      </trkpt>
      <trkpt lat="42.3215430" lon="-8.3511820">
        <ele>906.4</ele>
        <time>2022-08-28T10:13:56Z</time>
      </trkpt>
      <trkpt lat="42.3216330" lon="-8.3511530">
        <ele>907.6</ele>
        <time>2022-08-28T10:14:03Z</time>
      </trkpt>
      <trkpt lat="42.3216640" lon="-8.3511410">
        <ele>908.0</ele>
        <time>2022-08-28T10:14:06Z</time>
      </trkpt>
      <trkpt lat="42.3217060" lon="-8.3511360">
        <ele>908.6</ele>
        <time>2022-08-28T10:14:10Z</time>
      </trkpt>
      <trkpt lat="42.3217600" lon="-8.3511270">
        <ele>909.2</ele>
        <time>2022-08-28T10:14:15Z</time>
      </trkpt>
      <trkpt lat="42.3218050" lon="-8.3511370">
        <ele>909.6</ele>
        <time>2022-08-28T10:14:19Z</time>
      </trkpt>
      <trkpt lat="42.3218440" lon="-8.3511600">
        <ele>910.4</ele>
        <time>2022-08-28T10:14:23Z</time>
      </trkpt>
      <trkpt lat="42.3218720" lon="-8.3511670">
        <ele>910.8</ele>
        <time>2022-08-28T10:14:26Z</time>
      </trkpt>
      <trkpt lat="42.3219040" lon="-8.3511770">
        <ele>911.4</ele>
        <time>2022-08-28T10:14:29Z</time>
      </trkpt>
      <trkpt lat="42.3219250" lon="-8.3511900">
        <ele>911.8</ele>
        <time>2022-08-28T10:14:31Z</time>
      </trkpt>
      <trkpt lat="42.3219350" lon="-8.3511960">
        <ele>912.4</ele>
        <time>2022-08-28T10:14:34Z</time>
      </trkpt>
      <trkpt lat="42.3222020" lon="-8.3514030">
        <ele>919.2</ele>
        <time>2022-08-28T10:15:36Z</time>
      </trkpt>
      <trkpt lat="42.3222100" lon="-8.3514190">
        <ele>919.2</ele>
        <time>2022-08-28T10:15:37Z</time>
      </trkpt>
      <trkpt lat="42.3222680" lon="-8.3515020">
        <ele>919.4</ele>
        <time>2022-08-28T10:15:43Z</time>
      </trkpt>
      <trkpt lat="42.3222760" lon="-8.3515170">
        <ele>919.4</ele>
        <time>2022-08-28T10:15:44Z</time>
      </trkpt>
      <trkpt lat="42.3223220" lon="-8.3515830">
        <ele>920.2</ele>
        <time>2022-08-28T10:15:49Z</time>
      </trkpt>
      <trkpt lat="42.3223520" lon="-8.3516190">
        <ele>920.8</ele>
        <time>2022-08-28T10:15:52Z</time>
      </trkpt>
      <trkpt lat="42.3223850" lon="-8.3516480">
        <ele>921.4</ele>
        <time>2022-08-28T10:15:55Z</time>
      </trkpt>
      <trkpt lat="42.3224200" lon="-8.3516760">
        <ele>921.8</ele>
        <time>2022-08-28T10:15:58Z</time>
      </trkpt>
      <trkpt lat="42.3224600" lon="-8.3517200">
        <ele>922.4</ele>
        <time>2022-08-28T10:16:02Z</time>
      </trkpt>
      <trkpt lat="42.3225060" lon="-8.3517920">
        <ele>923.4</ele>
        <time>2022-08-28T10:16:07Z</time>
      </trkpt>
      <trkpt lat="42.3225770" lon="-8.3519120">
        <ele>924.4</ele>
        <time>2022-08-28T10:16:15Z</time>
      </trkpt>
      <trkpt lat="42.3226470" lon="-8.3520390">
        <ele>925.6</ele>
        <time>2022-08-28T10:16:23Z</time>
      </trkpt>
      <trkpt lat="42.3226550" lon="-8.3520590">
        <ele>925.6</ele>
        <time>2022-08-28T10:16:24Z</time>
      </trkpt>
      <trkpt lat="42.3227180" lon="-8.3521580">
        <ele>926.6</ele>
        <time>2022-08-28T10:16:30Z</time>
      </trkpt>
      <trkpt lat="42.3227480" lon="-8.3522120">
        <ele>927.0</ele>
        <time>2022-08-28T10:16:33Z</time>
      </trkpt>
      <trkpt lat="42.3227910" lon="-8.3523230">
        <ele>927.6</ele>
        <time>2022-08-28T10:16:39Z</time>
      </trkpt>
      <trkpt lat="42.3228090" lon="-8.3523830">
        <ele>928.0</ele>
        <time>2022-08-28T10:16:42Z</time>
      </trkpt>
      <trkpt lat="42.3228750" lon="-8.3525710">
        <ele>928.4</ele>
        <time>2022-08-28T10:16:49Z</time>
      </trkpt>
      <trkpt lat="42.3228780" lon="-8.3525890">
        <ele>928.4</ele>
        <time>2022-08-28T10:16:52Z</time>
      </trkpt>
      <trkpt lat="42.3229050" lon="-8.3526060">
        <ele>927.8</ele>
        <time>2022-08-28T10:17:40Z</time>
      </trkpt>
      <trkpt lat="42.3229990" lon="-8.3526880">
        <ele>927.8</ele>
        <time>2022-08-28T10:17:45Z</time>
      </trkpt>
      <trkpt lat="42.3231750" lon="-8.3528410">
        <ele>927.8</ele>
        <time>2022-08-28T10:17:52Z</time>
      </trkpt>
      <trkpt lat="42.3233520" lon="-8.3529130">
        <ele>927.8</ele>
        <time>2022-08-28T10:17:59Z</time>
      </trkpt>
      <trkpt lat="42.3234010" lon="-8.3529310">
        <ele>928.0</ele>
        <time>2022-08-28T10:18:01Z</time>
      </trkpt>
      <trkpt lat="42.3235120" lon="-8.3529790">
        <ele>928.8</ele>
        <time>2022-08-28T10:18:06Z</time>
      </trkpt>
      <trkpt lat="42.3236320" lon="-8.3530810">
        <ele>930.0</ele>
        <time>2022-08-28T10:18:13Z</time>
      </trkpt>
      <trkpt lat="42.3236660" lon="-8.3531250">
        <ele>930.2</ele>
        <time>2022-08-28T10:18:15Z</time>
      </trkpt>
      <trkpt lat="42.3237400" lon="-8.3532090">
        <ele>931.0</ele>
        <time>2022-08-28T10:18:19Z</time>
      </trkpt>
      <trkpt lat="42.3238270" lon="-8.3532940">
        <ele>931.4</ele>
        <time>2022-08-28T10:18:23Z</time>
      </trkpt>
      <trkpt lat="42.3240320" lon="-8.3534750">
        <ele>931.8</ele>
        <time>2022-08-28T10:18:31Z</time>
      </trkpt>
      <trkpt lat="42.3242830" lon="-8.3536440">
        <ele>932.2</ele>
        <time>2022-08-28T10:18:40Z</time>
      </trkpt>
      <trkpt lat="42.3243390" lon="-8.3536840">
        <ele>932.2</ele>
        <time>2022-08-28T10:18:42Z</time>
      </trkpt>
      <trkpt lat="42.3245450" lon="-8.3538220">
        <ele>932.8</ele>
        <time>2022-08-28T10:18:49Z</time>
      </trkpt>
      <trkpt lat="42.3248020" lon="-8.3540270">
        <ele>933.2</ele>
        <time>2022-08-28T10:18:58Z</time>
      </trkpt>
      <trkpt lat="42.3248290" lon="-8.3540510">
        <ele>933.2</ele>
        <time>2022-08-28T10:18:59Z</time>
      </trkpt>
      <trkpt lat="42.3248840" lon="-8.3541020">
        <ele>933.4</ele>
        <time>2022-08-28T10:19:01Z</time>
      </trkpt>
      <trkpt lat="42.3251010" lon="-8.3542750">
        <ele>934.0</ele>
        <time>2022-08-28T10:19:09Z</time>
      </trkpt>
      <trkpt lat="42.3251890" lon="-8.3543050">
        <ele>934.0</ele>
        <time>2022-08-28T10:19:13Z</time>
      </trkpt>
      <trkpt lat="42.3252330" lon="-8.3543030">
        <ele>934.4</ele>
        <time>2022-08-28T10:19:15Z</time>
      </trkpt>
      <trkpt lat="42.3253880" lon="-8.3542050">
        <ele>935.0</ele>
        <time>2022-08-28T10:19:21Z</time>
      </trkpt>
      <trkpt lat="42.3254230" lon="-8.3541770">
        <ele>935.2</ele>
        <time>2022-08-28T10:19:22Z</time>
      </trkpt>
      <trkpt lat="42.3255060" lon="-8.3541240">
        <ele>935.2</ele>
        <time>2022-08-28T10:19:24Z</time>
      </trkpt>
      <trkpt lat="42.3255930" lon="-8.3540880">
        <ele>935.4</ele>
        <time>2022-08-28T10:19:26Z</time>
      </trkpt>
      <trkpt lat="42.3258230" lon="-8.3540210">
        <ele>934.8</ele>
        <time>2022-08-28T10:19:30Z</time>
      </trkpt>
      <trkpt lat="42.3260710" lon="-8.3539790">
        <ele>934.0</ele>
        <time>2022-08-28T10:19:33Z</time>
      </trkpt>
      <trkpt lat="42.3261580" lon="-8.3539670">
        <ele>933.6</ele>
        <time>2022-08-28T10:19:34Z</time>
      </trkpt>
      <trkpt lat="42.3263240" lon="-8.3539430">
        <ele>932.8</ele>
        <time>2022-08-28T10:19:36Z</time>
      </trkpt>
      <trkpt lat="42.3264830" lon="-8.3539200">
        <ele>931.4</ele>
        <time>2022-08-28T10:19:38Z</time>
      </trkpt>
      <trkpt lat="42.3265610" lon="-8.3539100">
        <ele>930.4</ele>
        <time>2022-08-28T10:19:39Z</time>
      </trkpt>
      <trkpt lat="42.3266350" lon="-8.3539030">
        <ele>929.6</ele>
        <time>2022-08-28T10:19:40Z</time>
      </trkpt>
      <trkpt lat="42.3267050" lon="-8.3538990">
        <ele>928.6</ele>
        <time>2022-08-28T10:19:41Z</time>
      </trkpt>
      <trkpt lat="42.3268230" lon="-8.3538960">
        <ele>926.6</ele>
        <time>2022-08-28T10:19:43Z</time>
      </trkpt>
      <trkpt lat="42.3268760" lon="-8.3538980">
        <ele>926.0</ele>
        <time>2022-08-28T10:19:44Z</time>
      </trkpt>
      <trkpt lat="42.3269280" lon="-8.3539020">
        <ele>924.6</ele>
        <time>2022-08-28T10:19:45Z</time>
      </trkpt>
      <trkpt lat="42.3270260" lon="-8.3539150">
        <ele>923.6</ele>
        <time>2022-08-28T10:19:47Z</time>
      </trkpt>
      <trkpt lat="42.3271220" lon="-8.3539390">
        <ele>922.4</ele>
        <time>2022-08-28T10:19:49Z</time>
      </trkpt>
      <trkpt lat="42.3271780" lon="-8.3539540">
        <ele>921.8</ele>
        <time>2022-08-28T10:19:50Z</time>
      </trkpt>
      <trkpt lat="42.3272370" lon="-8.3539730">
        <ele>921.2</ele>
        <time>2022-08-28T10:19:51Z</time>
      </trkpt>
      <trkpt lat="42.3272990" lon="-8.3539980">
        <ele>920.8</ele>
        <time>2022-08-28T10:19:52Z</time>
      </trkpt>
      <trkpt lat="42.3273560" lon="-8.3540320">
        <ele>920.2</ele>
        <time>2022-08-28T10:19:53Z</time>
      </trkpt>
      <trkpt lat="42.3274080" lon="-8.3540710">
        <ele>919.6</ele>
        <time>2022-08-28T10:19:54Z</time>
      </trkpt>
      <trkpt lat="42.3274560" lon="-8.3541130">
        <ele>918.8</ele>
        <time>2022-08-28T10:19:55Z</time>
      </trkpt>
      <trkpt lat="42.3275410" lon="-8.3542050">
        <ele>917.6</ele>
        <time>2022-08-28T10:19:57Z</time>
      </trkpt>
      <trkpt lat="42.3276120" lon="-8.3542950">
        <ele>917.0</ele>
        <time>2022-08-28T10:19:59Z</time>
      </trkpt>
      <trkpt lat="42.3277990" lon="-8.3545180">
        <ele>916.6</ele>
        <time>2022-08-28T10:20:05Z</time>
      </trkpt>
      <trkpt lat="42.3279700" lon="-8.3546960">
        <ele>917.0</ele>
        <time>2022-08-28T10:20:12Z</time>
      </trkpt>
      <trkpt lat="42.3281340" lon="-8.3548920">
        <ele>918.6</ele>
        <time>2022-08-28T10:20:21Z</time>
      </trkpt>
      <trkpt lat="42.3282190" lon="-8.3550010">
        <ele>919.8</ele>
        <time>2022-08-28T10:20:27Z</time>
      </trkpt>
      <trkpt lat="42.3282320" lon="-8.3550200">
        <ele>920.0</ele>
        <time>2022-08-28T10:20:28Z</time>
      </trkpt>
      <trkpt lat="42.3283020" lon="-8.3551450">
        <ele>921.0</ele>
        <time>2022-08-28T10:20:34Z</time>
      </trkpt>
      <trkpt lat="42.3283250" lon="-8.3551880">
        <ele>921.2</ele>
        <time>2022-08-28T10:20:36Z</time>
      </trkpt>
      <trkpt lat="42.3283350" lon="-8.3552090">
        <ele>921.4</ele>
        <time>2022-08-28T10:20:37Z</time>
      </trkpt>
      <trkpt lat="42.3283710" lon="-8.3552980">
        <ele>922.0</ele>
        <time>2022-08-28T10:20:41Z</time>
      </trkpt>
      <trkpt lat="42.3284010" lon="-8.3553930">
        <ele>922.8</ele>
        <time>2022-08-28T10:20:45Z</time>
      </trkpt>
      <trkpt lat="42.3284090" lon="-8.3554150">
        <ele>923.0</ele>
        <time>2022-08-28T10:20:46Z</time>
      </trkpt>
      <trkpt lat="42.3284340" lon="-8.3555830">
        <ele>923.8</ele>
        <time>2022-08-28T10:20:53Z</time>
      </trkpt>
      <trkpt lat="42.3284320" lon="-8.3556580">
        <ele>924.2</ele>
        <time>2022-08-28T10:20:56Z</time>
      </trkpt>
      <trkpt lat="42.3284250" lon="-8.3557380">
        <ele>924.4</ele>
        <time>2022-08-28T10:21:00Z</time>
      </trkpt>
      <trkpt lat="42.3283750" lon="-8.3559370">
        <ele>924.6</ele>
        <time>2022-08-28T10:21:09Z</time>
      </trkpt>
      <trkpt lat="42.3283740" lon="-8.3559380">
        <ele>924.6</ele>
        <time>2022-08-28T10:21:11Z</time>
      </trkpt>
      <trkpt lat="42.3283720" lon="-8.3559870">
        <ele>924.0</ele>
        <time>2022-08-28T10:21:36Z</time>
      </trkpt>
      <trkpt lat="42.3283750" lon="-8.3560210">
        <ele>924.0</ele>
        <time>2022-08-28T10:21:37Z</time>
      </trkpt>
      <trkpt lat="42.3284520" lon="-8.3562300">
        <ele>924.0</ele>
        <time>2022-08-28T10:21:42Z</time>
      </trkpt>
      <trkpt lat="42.3285680" lon="-8.3563720">
        <ele>923.6</ele>
        <time>2022-08-28T10:21:46Z</time>
      </trkpt>
      <trkpt lat="42.3287610" lon="-8.3565520">
        <ele>923.0</ele>
        <time>2022-08-28T10:21:52Z</time>
      </trkpt>
      <trkpt lat="42.3288440" lon="-8.3566120">
        <ele>922.8</ele>
        <time>2022-08-28T10:21:56Z</time>
      </trkpt>
      <trkpt lat="42.3288450" lon="-8.3566140">
        <ele>922.6</ele>
        <time>2022-08-28T10:21:57Z</time>
      </trkpt>
      <trkpt lat="42.3288170" lon="-8.3565800">
        <ele>921.6</ele>
        <time>2022-08-28T10:22:25Z</time>
      </trkpt>
      <trkpt lat="42.3287860" lon="-8.3565520">
        <ele>921.6</ele>
        <time>2022-08-28T10:22:27Z</time>
      </trkpt>
      <trkpt lat="42.3286540" lon="-8.3564450">
        <ele>921.6</ele>
        <time>2022-08-28T10:22:34Z</time>
      </trkpt>
      <trkpt lat="42.3285150" lon="-8.3563010">
        <ele>922.0</ele>
        <time>2022-08-28T10:22:42Z</time>
      </trkpt>
      <trkpt lat="42.3283890" lon="-8.3561170">
        <ele>922.6</ele>
        <time>2022-08-28T10:22:50Z</time>
      </trkpt>
      <trkpt lat="42.3283740" lon="-8.3559670">
        <ele>922.8</ele>
        <time>2022-08-28T10:22:56Z</time>
      </trkpt>
      <trkpt lat="42.3284150" lon="-8.3557670">
        <ele>923.4</ele>
        <time>2022-08-28T10:23:04Z</time>
      </trkpt>
      <trkpt lat="42.3284250" lon="-8.3557110">
        <ele>923.6</ele>
        <time>2022-08-28T10:23:06Z</time>
      </trkpt>
      <trkpt lat="42.3284340" lon="-8.3556070">
        <ele>924.0</ele>
        <time>2022-08-28T10:23:10Z</time>
      </trkpt>
      <trkpt lat="42.3284250" lon="-8.3555890">
        <ele>924.0</ele>
        <time>2022-08-28T10:23:11Z</time>
      </trkpt>
      <trkpt lat="42.3284360" lon="-8.3555550">
        <ele>924.2</ele>
        <time>2022-08-28T10:23:14Z</time>
      </trkpt>
      <trkpt lat="42.3284430" lon="-8.3555640">
        <ele>924.2</ele>
        <time>2022-08-28T10:23:15Z</time>
      </trkpt>
      <trkpt lat="42.3284500" lon="-8.3556400">
        <ele>924.4</ele>
        <time>2022-08-28T10:23:19Z</time>
      </trkpt>
      <trkpt lat="42.3284500" lon="-8.3556690">
        <ele>924.4</ele>
        <time>2022-08-28T10:23:22Z</time>
      </trkpt>
      <trkpt lat="42.3284990" lon="-8.3557280">
        <ele>924.8</ele>
        <time>2022-08-28T10:25:16Z</time>
      </trkpt>
      <trkpt lat="42.3286440" lon="-8.3557880">
        <ele>924.8</ele>
        <time>2022-08-28T10:25:20Z</time>
      </trkpt>
      <trkpt lat="42.3287730" lon="-8.3558380">
        <ele>924.2</ele>
        <time>2022-08-28T10:25:25Z</time>
      </trkpt>
      <trkpt lat="42.3288190" lon="-8.3558570">
        <ele>923.6</ele>
        <time>2022-08-28T10:25:27Z</time>
      </trkpt>
      <trkpt lat="42.3289530" lon="-8.3558760">
        <ele>923.2</ele>
        <time>2022-08-28T10:25:32Z</time>
      </trkpt>
      <trkpt lat="42.3289760" lon="-8.3558600">
        <ele>923.2</ele>
        <time>2022-08-28T10:25:33Z</time>
      </trkpt>
      <trkpt lat="42.3290210" lon="-8.3557890">
        <ele>923.2</ele>
        <time>2022-08-28T10:25:36Z</time>
      </trkpt>
      <trkpt lat="42.3290660" lon="-8.3557140">
        <ele>922.8</ele>
        <time>2022-08-28T10:25:41Z</time>
      </trkpt>
      <trkpt lat="42.3290710" lon="-8.3557050">
        <ele>922.4</ele>
        <time>2022-08-28T10:25:43Z</time>
      </trkpt>
      <trkpt lat="42.3290730" lon="-8.3557050">
        <ele>922.0</ele>
        <time>2022-08-28T10:25:44Z</time>
      </trkpt>
      <trkpt lat="42.3291110" lon="-8.3556110">
        <ele>920.6</ele>
        <time>2022-08-28T10:25:54Z</time>
      </trkpt>
      <trkpt lat="42.3291260" lon="-8.3555730">
        <ele>920.6</ele>
        <time>2022-08-28T10:25:55Z</time>
      </trkpt>
      <trkpt lat="42.3291490" lon="-8.3555280">
        <ele>920.4</ele>
        <time>2022-08-28T10:25:56Z</time>
      </trkpt>
      <trkpt lat="42.3292430" lon="-8.3554010">
        <ele>920.0</ele>
        <time>2022-08-28T10:25:59Z</time>
      </trkpt>
      <trkpt lat="42.3292960" lon="-8.3553480">
        <ele>919.6</ele>
        <time>2022-08-28T10:26:01Z</time>
      </trkpt>
      <trkpt lat="42.3293420" lon="-8.3553100">
        <ele>919.2</ele>
        <time>2022-08-28T10:26:03Z</time>
      </trkpt>
      <trkpt lat="42.3293580" lon="-8.3552930">
        <ele>918.6</ele>
        <time>2022-08-28T10:26:04Z</time>
      </trkpt>
      <trkpt lat="42.3293850" lon="-8.3552570">
        <ele>916.6</ele>
        <time>2022-08-28T10:26:06Z</time>
      </trkpt>
      <trkpt lat="42.3294320" lon="-8.3552140">
        <ele>915.6</ele>
        <time>2022-08-28T10:26:08Z</time>
      </trkpt>
      <trkpt lat="42.3295270" lon="-8.3551360">
        <ele>914.4</ele>
        <time>2022-08-28T10:26:11Z</time>
      </trkpt>
      <trkpt lat="42.3296340" lon="-8.3550800">
        <ele>913.6</ele>
        <time>2022-08-28T10:26:14Z</time>
      </trkpt>
      <trkpt lat="42.3296740" lon="-8.3550650">
        <ele>913.4</ele>
        <time>2022-08-28T10:26:15Z</time>
      </trkpt>
      <trkpt lat="42.3297990" lon="-8.3550480">
        <ele>912.6</ele>
        <time>2022-08-28T10:26:18Z</time>
      </trkpt>
      <trkpt lat="42.3298410" lon="-8.3550470">
        <ele>912.4</ele>
        <time>2022-08-28T10:26:19Z</time>
      </trkpt>
      <trkpt lat="42.3300240" lon="-8.3550710">
        <ele>911.4</ele>
        <time>2022-08-28T10:26:24Z</time>
      </trkpt>
      <trkpt lat="42.3300600" lon="-8.3550800">
        <ele>911.4</ele>
        <time>2022-08-28T10:26:25Z</time>
      </trkpt>
      <trkpt lat="42.3302570" lon="-8.3551260">
        <ele>911.0</ele>
        <time>2022-08-28T10:26:31Z</time>
      </trkpt>
      <trkpt lat="42.3304550" lon="-8.3551130">
        <ele>910.8</ele>
        <time>2022-08-28T10:26:38Z</time>
      </trkpt>
      <trkpt lat="42.3304610" lon="-8.3551140">
        <ele>910.8</ele>
        <time>2022-08-28T10:26:40Z</time>
      </trkpt>
      <trkpt lat="42.3305160" lon="-8.3551110">
        <ele>910.2</ele>
        <time>2022-08-28T10:26:56Z</time>
      </trkpt>
      <trkpt lat="42.3305410" lon="-8.3551070">
        <ele>910.2</ele>
        <time>2022-08-28T10:26:57Z</time>
      </trkpt>
      <trkpt lat="42.3307080" lon="-8.3550730">
        <ele>910.0</ele>
        <time>2022-08-28T10:27:02Z</time>
      </trkpt>
      <trkpt lat="42.3308540" lon="-8.3549960">
        <ele>909.0</ele>
        <time>2022-08-28T10:27:07Z</time>
      </trkpt>
      <trkpt lat="42.3309650" lon="-8.3549260">
        <ele>908.2</ele>
        <time>2022-08-28T10:27:12Z</time>
      </trkpt>
      <trkpt lat="42.3309800" lon="-8.3549180">
        <ele>907.8</ele>
        <time>2022-08-28T10:27:13Z</time>
      </trkpt>
      <trkpt lat="42.3310580" lon="-8.3548870">
        <ele>906.6</ele>
        <time>2022-08-28T10:27:17Z</time>
      </trkpt>
      <trkpt lat="42.3311090" lon="-8.3548740">
        <ele>906.0</ele>
        <time>2022-08-28T10:27:19Z</time>
      </trkpt>
      <trkpt lat="42.3311800" lon="-8.3548550">
        <ele>905.4</ele>
        <time>2022-08-28T10:27:21Z</time>
      </trkpt>
      <trkpt lat="42.3313570" lon="-8.3548030">
        <ele>904.4</ele>
        <time>2022-08-28T10:27:25Z</time>
      </trkpt>
      <trkpt lat="42.3314490" lon="-8.3547980">
        <ele>903.2</ele>
        <time>2022-08-28T10:27:28Z</time>
      </trkpt>
      <trkpt lat="42.3315050" lon="-8.3547990">
        <ele>902.0</ele>
        <time>2022-08-28T10:27:30Z</time>
      </trkpt>
      <trkpt lat="42.3315870" lon="-8.3548000">
        <ele>900.4</ele>
        <time>2022-08-28T10:27:32Z</time>
      </trkpt>
      <trkpt lat="42.3316270" lon="-8.3548040">
        <ele>899.2</ele>
        <time>2022-08-28T10:27:33Z</time>
      </trkpt>
      <trkpt lat="42.3317400" lon="-8.3548400">
        <ele>898.0</ele>
        <time>2022-08-28T10:27:36Z</time>
      </trkpt>
      <trkpt lat="42.3317760" lon="-8.3548580">
        <ele>897.8</ele>
        <time>2022-08-28T10:27:37Z</time>
      </trkpt>
      <trkpt lat="42.3318390" lon="-8.3548960">
        <ele>896.8</ele>
        <time>2022-08-28T10:27:39Z</time>
      </trkpt>
      <trkpt lat="42.3318920" lon="-8.3549330">
        <ele>895.4</ele>
        <time>2022-08-28T10:27:41Z</time>
      </trkpt>
      <trkpt lat="42.3319420" lon="-8.3549730">
        <ele>894.4</ele>
        <time>2022-08-28T10:27:43Z</time>
      </trkpt>
      <trkpt lat="42.3320010" lon="-8.3550160">
        <ele>893.2</ele>
        <time>2022-08-28T10:27:45Z</time>
      </trkpt>
      <trkpt lat="42.3320440" lon="-8.3550370">
        <ele>892.6</ele>
        <time>2022-08-28T10:27:47Z</time>
      </trkpt>
      <trkpt lat="42.3320630" lon="-8.3550430">
        <ele>892.0</ele>
        <time>2022-08-28T10:27:48Z</time>
      </trkpt>
      <trkpt lat="42.3321080" lon="-8.3550680">
        <ele>890.8</ele>
        <time>2022-08-28T10:27:51Z</time>
      </trkpt>
      <trkpt lat="42.3321360" lon="-8.3550830">
        <ele>890.0</ele>
        <time>2022-08-28T10:27:53Z</time>
      </trkpt>
      <trkpt lat="42.3321500" lon="-8.3550950">
        <ele>889.6</ele>
        <time>2022-08-28T10:27:54Z</time>
      </trkpt>
      <trkpt lat="42.3321830" lon="-8.3551330">
        <ele>888.4</ele>
        <time>2022-08-28T10:27:59Z</time>
      </trkpt>
      <trkpt lat="42.3321860" lon="-8.3551320">
        <ele>888.2</ele>
        <time>2022-08-28T10:28:00Z</time>
      </trkpt>
      <trkpt lat="42.3322360" lon="-8.3552030">
        <ele>886.2</ele>
        <time>2022-08-28T10:28:17Z</time>
      </trkpt>
      <trkpt lat="42.3322580" lon="-8.3552280">
        <ele>886.2</ele>
        <time>2022-08-28T10:28:19Z</time>
      </trkpt>
      <trkpt lat="42.3323010" lon="-8.3552910">
        <ele>885.6</ele>
        <time>2022-08-28T10:28:25Z</time>
      </trkpt>
      <trkpt lat="42.3324270" lon="-8.3553330">
        <ele>882.4</ele>
        <time>2022-08-28T10:28:40Z</time>
      </trkpt>
      <trkpt lat="42.3324590" lon="-8.3553250">
        <ele>882.2</ele>
        <time>2022-08-28T10:28:43Z</time>
      </trkpt>
      <trkpt lat="42.3324680" lon="-8.3553080">
        <ele>882.0</ele>
        <time>2022-08-28T10:28:45Z</time>
      </trkpt>
      <trkpt lat="42.3324890" lon="-8.3552730">
        <ele>881.8</ele>
        <time>2022-08-28T10:28:49Z</time>
      </trkpt>
      <trkpt lat="42.3324900" lon="-8.3552720">
        <ele>881.8</ele>
        <time>2022-08-28T10:28:50Z</time>
      </trkpt>
      <trkpt lat="42.3325130" lon="-8.3552050">
        <ele>881.8</ele>
        <time>2022-08-28T10:28:57Z</time>
      </trkpt>
      <trkpt lat="42.3325330" lon="-8.3551670">
        <ele>881.8</ele>
        <time>2022-08-28T10:29:00Z</time>
      </trkpt>
      <trkpt lat="42.3325990" lon="-8.3550510">
        <ele>882.0</ele>
        <time>2022-08-28T10:29:06Z</time>
      </trkpt>
      <trkpt lat="42.3327020" lon="-8.3548800">
        <ele>882.4</ele>
        <time>2022-08-28T10:29:14Z</time>
      </trkpt>
      <trkpt lat="42.3327650" lon="-8.3547560">
        <ele>883.0</ele>
        <time>2022-08-28T10:29:20Z</time>
      </trkpt>
      <trkpt lat="42.3328060" lon="-8.3546570">
        <ele>883.6</ele>
        <time>2022-08-28T10:29:25Z</time>
      </trkpt>
      <trkpt lat="42.3328280" lon="-8.3546030">
        <ele>884.0</ele>
        <time>2022-08-28T10:29:28Z</time>
      </trkpt>
      <trkpt lat="42.3328590" lon="-8.3545270">
        <ele>884.6</ele>
        <time>2022-08-28T10:29:32Z</time>
      </trkpt>
      <trkpt lat="42.3328870" lon="-8.3544320">
        <ele>885.0</ele>
        <time>2022-08-28T10:29:36Z</time>
      </trkpt>
      <trkpt lat="42.3329120" lon="-8.3543000">
        <ele>885.6</ele>
        <time>2022-08-28T10:29:42Z</time>
      </trkpt>
      <trkpt lat="42.3329130" lon="-8.3542770">
        <ele>885.6</ele>
        <time>2022-08-28T10:29:43Z</time>
      </trkpt>
      <trkpt lat="42.3329070" lon="-8.3542090">
        <ele>886.2</ele>
        <time>2022-08-28T10:29:46Z</time>
      </trkpt>
      <trkpt lat="42.3328980" lon="-8.3541560">
        <ele>886.6</ele>
        <time>2022-08-28T10:29:48Z</time>
      </trkpt>
      <trkpt lat="42.3328870" lon="-8.3541290">
        <ele>886.8</ele>
        <time>2022-08-28T10:29:49Z</time>
      </trkpt>
      <trkpt lat="42.3328150" lon="-8.3539960">
        <ele>887.0</ele>
        <time>2022-08-28T10:29:53Z</time>
      </trkpt>
      <trkpt lat="42.3327330" lon="-8.3538600">
        <ele>887.0</ele>
        <time>2022-08-28T10:29:56Z</time>
      </trkpt>
      <trkpt lat="42.3326870" lon="-8.3537570">
        <ele>887.0</ele>
        <time>2022-08-28T10:29:58Z</time>
      </trkpt>
      <trkpt lat="42.3326460" lon="-8.3535210">
        <ele>885.8</ele>
        <time>2022-08-28T10:30:03Z</time>
      </trkpt>
      <trkpt lat="42.3326510" lon="-8.3534770">
        <ele>885.6</ele>
        <time>2022-08-28T10:30:04Z</time>
      </trkpt>
      <trkpt lat="42.3327060" lon="-8.3533220">
        <ele>885.4</ele>
        <time>2022-08-28T10:30:08Z</time>
      </trkpt>
      <trkpt lat="42.3328000" lon="-8.3531790">
        <ele>885.4</ele>
        <time>2022-08-28T10:30:13Z</time>
      </trkpt>
      <trkpt lat="42.3329180" lon="-8.3530450">
        <ele>885.6</ele>
        <time>2022-08-28T10:30:20Z</time>
      </trkpt>
      <trkpt lat="42.3330210" lon="-8.3529200">
        <ele>886.6</ele>
        <time>2022-08-28T10:30:26Z</time>
      </trkpt>
      <trkpt lat="42.3331130" lon="-8.3527870">
        <ele>887.6</ele>
        <time>2022-08-28T10:30:33Z</time>
      </trkpt>
      <trkpt lat="42.3331960" lon="-8.3526100">
        <ele>888.2</ele>
        <time>2022-08-28T10:30:39Z</time>
      </trkpt>
      <trkpt lat="42.3332780" lon="-8.3524050">
        <ele>888.6</ele>
        <time>2022-08-28T10:30:45Z</time>
      </trkpt>
      <trkpt lat="42.3333010" lon="-8.3523420">
        <ele>888.8</ele>
        <time>2022-08-28T10:30:47Z</time>
      </trkpt>
      <trkpt lat="42.3333800" lon="-8.3521170">
        <ele>889.0</ele>
        <time>2022-08-28T10:30:53Z</time>
      </trkpt>
      <trkpt lat="42.3334370" lon="-8.3518760">
        <ele>889.2</ele>
        <time>2022-08-28T10:30:59Z</time>
      </trkpt>
      <trkpt lat="42.3335280" lon="-8.3517850">
        <ele>889.4</ele>
        <time>2022-08-28T10:31:03Z</time>
      </trkpt>
      <trkpt lat="42.3336950" lon="-8.3517270">
        <ele>889.6</ele>
        <time>2022-08-28T10:31:09Z</time>
      </trkpt>
      <trkpt lat="42.3337210" lon="-8.3517220">
        <ele>889.6</ele>
        <time>2022-08-28T10:31:10Z</time>
      </trkpt>
      <trkpt lat="42.3337470" lon="-8.3517140">
        <ele>889.8</ele>
        <time>2022-08-28T10:31:11Z</time>
      </trkpt>
      <trkpt lat="42.3339480" lon="-8.3517170">
        <ele>890.4</ele>
        <time>2022-08-28T10:31:18Z</time>
      </trkpt>
      <trkpt lat="42.3341320" lon="-8.3518200">
        <ele>890.6</ele>
        <time>2022-08-28T10:31:23Z</time>
      </trkpt>
      <trkpt lat="42.3342070" lon="-8.3519020">
        <ele>890.6</ele>
        <time>2022-08-28T10:31:25Z</time>
      </trkpt>
      <trkpt lat="42.3342810" lon="-8.3520300">
        <ele>890.2</ele>
        <time>2022-08-28T10:31:28Z</time>
      </trkpt>
      <trkpt lat="42.3343850" lon="-8.3522600">
        <ele>888.8</ele>
        <time>2022-08-28T10:31:34Z</time>
      </trkpt>
      <trkpt lat="42.3344000" lon="-8.3523040">
        <ele>888.4</ele>
        <time>2022-08-28T10:31:35Z</time>
      </trkpt>
      <trkpt lat="42.3344460" lon="-8.3524310">
        <ele>887.4</ele>
        <time>2022-08-28T10:31:38Z</time>
      </trkpt>
      <trkpt lat="42.3345030" lon="-8.3525490">
        <ele>886.8</ele>
        <time>2022-08-28T10:31:41Z</time>
      </trkpt>
      <trkpt lat="42.3345850" lon="-8.3527200">
        <ele>886.4</ele>
        <time>2022-08-28T10:31:45Z</time>
      </trkpt>
      <trkpt lat="42.3346320" lon="-8.3528610">
        <ele>886.2</ele>
        <time>2022-08-28T10:31:48Z</time>
      </trkpt>
      <trkpt lat="42.3347950" lon="-8.3533100">
        <ele>886.0</ele>
        <time>2022-08-28T10:31:57Z</time>
      </trkpt>
      <trkpt lat="42.3348690" lon="-8.3534480">
        <ele>886.0</ele>
        <time>2022-08-28T10:32:00Z</time>
      </trkpt>
      <trkpt lat="42.3349760" lon="-8.3535510">
        <ele>885.8</ele>
        <time>2022-08-28T10:32:03Z</time>
      </trkpt>
      <trkpt lat="42.3350200" lon="-8.3535790">
        <ele>885.8</ele>
        <time>2022-08-28T10:32:04Z</time>
      </trkpt>
      <trkpt lat="42.3351000" lon="-8.3536440">
        <ele>885.6</ele>
        <time>2022-08-28T10:32:06Z</time>
      </trkpt>
      <trkpt lat="42.3351940" lon="-8.3537730">
        <ele>885.4</ele>
        <time>2022-08-28T10:32:09Z</time>
      </trkpt>
      <trkpt lat="42.3353170" lon="-8.3539510">
        <ele>884.4</ele>
        <time>2022-08-28T10:32:13Z</time>
      </trkpt>
      <trkpt lat="42.3353440" lon="-8.3539980">
        <ele>884.2</ele>
        <time>2022-08-28T10:32:14Z</time>
      </trkpt>
      <trkpt lat="42.3354320" lon="-8.3542200">
        <ele>883.8</ele>
        <time>2022-08-28T10:32:18Z</time>
      </trkpt>
      <trkpt lat="42.3354640" lon="-8.3542730">
        <ele>883.6</ele>
        <time>2022-08-28T10:32:19Z</time>
      </trkpt>
      <trkpt lat="42.3356180" lon="-8.3545410">
        <ele>883.2</ele>
        <time>2022-08-28T10:32:24Z</time>
      </trkpt>
      <trkpt lat="42.3356420" lon="-8.3545980">
        <ele>883.0</ele>
        <time>2022-08-28T10:32:25Z</time>
      </trkpt>
      <trkpt lat="42.3356590" lon="-8.3546580">
        <ele>882.4</ele>
        <time>2022-08-28T10:32:26Z</time>
      </trkpt>
      <trkpt lat="42.3356780" lon="-8.3547800">
        <ele>882.0</ele>
        <time>2022-08-28T10:32:28Z</time>
      </trkpt>
      <trkpt lat="42.3357240" lon="-8.3550730">
        <ele>881.0</ele>
        <time>2022-08-28T10:32:33Z</time>
      </trkpt>
      <trkpt lat="42.3357290" lon="-8.3551220">
        <ele>880.8</ele>
        <time>2022-08-28T10:32:34Z</time>
      </trkpt>
      <trkpt lat="42.3357830" lon="-8.3553670">
        <ele>880.0</ele>
        <time>2022-08-28T10:32:39Z</time>
      </trkpt>
      <trkpt lat="42.3358270" lon="-8.3555200">
        <ele>879.8</ele>
        <time>2022-08-28T10:32:42Z</time>
      </trkpt>
      <trkpt lat="42.3358730" lon="-8.3556630">
        <ele>879.6</ele>
        <time>2022-08-28T10:32:45Z</time>
      </trkpt>
      <trkpt lat="42.3359650" lon="-8.3558970">
        <ele>879.0</ele>
        <time>2022-08-28T10:32:51Z</time>
      </trkpt>
      <trkpt lat="42.3359890" lon="-8.3559750">
        <ele>878.8</ele>
        <time>2022-08-28T10:32:53Z</time>
      </trkpt>
      <trkpt lat="42.3360360" lon="-8.3561580">
        <ele>878.0</ele>
        <time>2022-08-28T10:32:57Z</time>
      </trkpt>
      <trkpt lat="42.3361260" lon="-8.3564170">
        <ele>877.6</ele>
        <time>2022-08-28T10:33:03Z</time>
      </trkpt>
      <trkpt lat="42.3361440" lon="-8.3564560">
        <ele>877.4</ele>
        <time>2022-08-28T10:33:04Z</time>
      </trkpt>
      <trkpt lat="42.3362100" lon="-8.3566040">
        <ele>876.6</ele>
        <time>2022-08-28T10:33:09Z</time>
      </trkpt>
      <trkpt lat="42.3362380" lon="-8.3567720">
        <ele>875.6</ele>
        <time>2022-08-28T10:33:13Z</time>
      </trkpt>
      <trkpt lat="42.3362220" lon="-8.3568190">
        <ele>875.2</ele>
        <time>2022-08-28T10:33:14Z</time>
      </trkpt>
      <trkpt lat="42.3361330" lon="-8.3569980">
        <ele>874.2</ele>
        <time>2022-08-28T10:33:18Z</time>
      </trkpt>
      <trkpt lat="42.3360310" lon="-8.3571770">
        <ele>873.2</ele>
        <time>2022-08-28T10:33:22Z</time>
      </trkpt>
      <trkpt lat="42.3359820" lon="-8.3572710">
        <ele>872.6</ele>
        <time>2022-08-28T10:33:24Z</time>
      </trkpt>
      <trkpt lat="42.3359590" lon="-8.3573190">
        <ele>871.8</ele>
        <time>2022-08-28T10:33:25Z</time>
      </trkpt>
      <trkpt lat="42.3359090" lon="-8.3574720">
        <ele>870.4</ele>
        <time>2022-08-28T10:33:29Z</time>
      </trkpt>
      <trkpt lat="42.3359140" lon="-8.3575750">
        <ele>869.6</ele>
        <time>2022-08-28T10:33:32Z</time>
      </trkpt>
      <trkpt lat="42.3359290" lon="-8.3576020">
        <ele>869.4</ele>
        <time>2022-08-28T10:33:33Z</time>
      </trkpt>
      <trkpt lat="42.3360480" lon="-8.3576620">
        <ele>868.2</ele>
        <time>2022-08-28T10:33:37Z</time>
      </trkpt>
      <trkpt lat="42.3360880" lon="-8.3576650">
        <ele>868.0</ele>
        <time>2022-08-28T10:33:38Z</time>
      </trkpt>
      <trkpt lat="42.3362290" lon="-8.3576360">
        <ele>867.2</ele>
        <time>2022-08-28T10:33:41Z</time>
      </trkpt>
      <trkpt lat="42.3362790" lon="-8.3576220">
        <ele>867.0</ele>
        <time>2022-08-28T10:33:42Z</time>
      </trkpt>
      <trkpt lat="42.3364210" lon="-8.3575430">
        <ele>865.6</ele>
        <time>2022-08-28T10:33:45Z</time>
      </trkpt>
      <trkpt lat="42.3364630" lon="-8.3575090">
        <ele>865.2</ele>
        <time>2022-08-28T10:33:46Z</time>
      </trkpt>
      <trkpt lat="42.3365480" lon="-8.3574500">
        <ele>864.6</ele>
        <time>2022-08-28T10:33:48Z</time>
      </trkpt>
      <trkpt lat="42.3366700" lon="-8.3573970">
        <ele>863.4</ele>
        <time>2022-08-28T10:33:51Z</time>
      </trkpt>
      <trkpt lat="42.3367930" lon="-8.3573760">
        <ele>862.4</ele>
        <time>2022-08-28T10:33:54Z</time>
      </trkpt>
      <trkpt lat="42.3368310" lon="-8.3573920">
        <ele>862.2</ele>
        <time>2022-08-28T10:33:55Z</time>
      </trkpt>
      <trkpt lat="42.3369080" lon="-8.3574400">
        <ele>861.8</ele>
        <time>2022-08-28T10:33:57Z</time>
      </trkpt>
      <trkpt lat="42.3369920" lon="-8.3575260">
        <ele>861.6</ele>
        <time>2022-08-28T10:34:00Z</time>
      </trkpt>
      <trkpt lat="42.3370060" lon="-8.3575460">
        <ele>861.4</ele>
        <time>2022-08-28T10:34:01Z</time>
      </trkpt>
      <trkpt lat="42.3370810" lon="-8.3576270">
        <ele>860.2</ele>
        <time>2022-08-28T10:34:05Z</time>
      </trkpt>
      <trkpt lat="42.3371300" lon="-8.3576800">
        <ele>859.4</ele>
        <time>2022-08-28T10:34:07Z</time>
      </trkpt>
      <trkpt lat="42.3371590" lon="-8.3577120">
        <ele>859.0</ele>
        <time>2022-08-28T10:34:08Z</time>
      </trkpt>
      <trkpt lat="42.3372950" lon="-8.3578130">
        <ele>858.4</ele>
        <time>2022-08-28T10:34:12Z</time>
      </trkpt>
      <trkpt lat="42.3373710" lon="-8.3578340">
        <ele>857.8</ele>
        <time>2022-08-28T10:34:14Z</time>
      </trkpt>
      <trkpt lat="42.3375360" lon="-8.3578810">
        <ele>856.8</ele>
        <time>2022-08-28T10:34:18Z</time>
      </trkpt>
      <trkpt lat="42.3375740" lon="-8.3578970">
        <ele>856.6</ele>
        <time>2022-08-28T10:34:19Z</time>
      </trkpt>
      <trkpt lat="42.3376920" lon="-8.3579710">
        <ele>855.8</ele>
        <time>2022-08-28T10:34:23Z</time>
      </trkpt>
      <trkpt lat="42.3377280" lon="-8.3579900">
        <ele>855.4</ele>
        <time>2022-08-28T10:34:24Z</time>
      </trkpt>
      <trkpt lat="42.3378480" lon="-8.3580360">
        <ele>854.2</ele>
        <time>2022-08-28T10:34:27Z</time>
      </trkpt>
      <trkpt lat="42.3378830" lon="-8.3580500">
        <ele>854.0</ele>
        <time>2022-08-28T10:34:28Z</time>
      </trkpt>
      <trkpt lat="42.3379780" lon="-8.3581200">
        <ele>852.8</ele>
        <time>2022-08-28T10:34:31Z</time>
      </trkpt>
      <trkpt lat="42.3380200" lon="-8.3581820">
        <ele>852.2</ele>
        <time>2022-08-28T10:34:33Z</time>
      </trkpt>
      <trkpt lat="42.3380380" lon="-8.3582050">
        <ele>851.8</ele>
        <time>2022-08-28T10:34:34Z</time>
      </trkpt>
      <trkpt lat="42.3380690" lon="-8.3582560">
        <ele>850.8</ele>
        <time>2022-08-28T10:34:36Z</time>
      </trkpt>
      <trkpt lat="42.3381170" lon="-8.3583740">
        <ele>849.6</ele>
        <time>2022-08-28T10:34:40Z</time>
      </trkpt>
      <trkpt lat="42.3381700" lon="-8.3586080">
        <ele>848.6</ele>
        <time>2022-08-28T10:34:46Z</time>
      </trkpt>
      <trkpt lat="42.3381690" lon="-8.3586430">
        <ele>848.4</ele>
        <time>2022-08-28T10:34:47Z</time>
      </trkpt>
      <trkpt lat="42.3381550" lon="-8.3587580">
        <ele>848.0</ele>
        <time>2022-08-28T10:34:51Z</time>
      </trkpt>
      <trkpt lat="42.3381540" lon="-8.3587790">
        <ele>848.0</ele>
        <time>2022-08-28T10:34:52Z</time>
      </trkpt>
      <trkpt lat="42.3381550" lon="-8.3588020">
        <ele>847.4</ele>
        <time>2022-08-28T10:34:53Z</time>
      </trkpt>
      <trkpt lat="42.3381540" lon="-8.3588920">
        <ele>846.0</ele>
        <time>2022-08-28T10:34:57Z</time>
      </trkpt>
      <trkpt lat="42.3381510" lon="-8.3589100">
        <ele>845.6</ele>
        <time>2022-08-28T10:34:58Z</time>
      </trkpt>
      <trkpt lat="42.3381450" lon="-8.3589270">
        <ele>845.0</ele>
        <time>2022-08-28T10:35:00Z</time>
      </trkpt>
      <trkpt lat="42.3381430" lon="-8.3589310">
        <ele>844.6</ele>
        <time>2022-08-28T10:35:02Z</time>
      </trkpt>
      <trkpt lat="42.3391420" lon="-8.3614680">
        <ele>781.6</ele>
        <time>2022-08-28T10:41:25Z</time>
      </trkpt>
      <trkpt lat="42.3391720" lon="-8.3615060">
        <ele>781.2</ele>
        <time>2022-08-28T10:41:27Z</time>
      </trkpt>
      <trkpt lat="42.3392790" lon="-8.3615700">
        <ele>780.6</ele>
        <time>2022-08-28T10:41:33Z</time>
      </trkpt>
      <trkpt lat="42.3392990" lon="-8.3615680">
        <ele>780.4</ele>
        <time>2022-08-28T10:41:34Z</time>
      </trkpt>
      <trkpt lat="42.3393360" lon="-8.3615660">
        <ele>779.2</ele>
        <time>2022-08-28T10:41:37Z</time>
      </trkpt>
      <trkpt lat="42.3393410" lon="-8.3615660">
        <ele>779.0</ele>
        <time>2022-08-28T10:41:38Z</time>
      </trkpt>
      <trkpt lat="42.3393490" lon="-8.3615680">
        <ele>778.0</ele>
        <time>2022-08-28T10:41:41Z</time>
      </trkpt>
      <trkpt lat="42.3393850" lon="-8.3615700">
        <ele>777.6</ele>
        <time>2022-08-28T10:41:45Z</time>
      </trkpt>
      <trkpt lat="42.3394270" lon="-8.3615890">
        <ele>777.6</ele>
        <time>2022-08-28T10:41:47Z</time>
      </trkpt>
      <trkpt lat="42.3395800" lon="-8.3616680">
        <ele>777.4</ele>
        <time>2022-08-28T10:41:52Z</time>
      </trkpt>
      <trkpt lat="42.3396750" lon="-8.3616510">
        <ele>777.0</ele>
        <time>2022-08-28T10:41:57Z</time>
      </trkpt>
      <trkpt lat="42.3396890" lon="-8.3616400">
        <ele>776.6</ele>
        <time>2022-08-28T10:41:59Z</time>
      </trkpt>
      <trkpt lat="42.3397290" lon="-8.3616000">
        <ele>776.4</ele>
        <time>2022-08-28T10:42:02Z</time>
      </trkpt>
      <trkpt lat="42.3398090" lon="-8.3615360">
        <ele>776.2</ele>
        <time>2022-08-28T10:42:06Z</time>
      </trkpt>
      <trkpt lat="42.3398390" lon="-8.3615100">
        <ele>776.0</ele>
        <time>2022-08-28T10:42:07Z</time>
      </trkpt>
      <trkpt lat="42.3398720" lon="-8.3614880">
        <ele>776.0</ele>
        <time>2022-08-28T10:42:08Z</time>
      </trkpt>
      <trkpt lat="42.3399910" lon="-8.3614630">
        <ele>775.6</ele>
        <time>2022-08-28T10:42:12Z</time>
      </trkpt>
      <trkpt lat="42.3400620" lon="-8.3615060">
        <ele>774.2</ele>
        <time>2022-08-28T10:42:15Z</time>
      </trkpt>
      <trkpt lat="42.3401010" lon="-8.3615310">
        <ele>773.8</ele>
        <time>2022-08-28T10:42:17Z</time>
      </trkpt>
      <trkpt lat="42.3401780" lon="-8.3616110">
        <ele>773.4</ele>
        <time>2022-08-28T10:42:23Z</time>
      </trkpt>
      <trkpt lat="42.3402270" lon="-8.3617210">
        <ele>773.2</ele>
        <time>2022-08-28T10:42:28Z</time>
      </trkpt>
      <trkpt lat="42.3402470" lon="-8.3617280">
        <ele>773.2</ele>
        <time>2022-08-28T10:42:29Z</time>
      </trkpt>
      <trkpt lat="42.3403140" lon="-8.3616880">
        <ele>772.8</ele>
        <time>2022-08-28T10:42:34Z</time>
      </trkpt>
      <trkpt lat="42.3403280" lon="-8.3616550">
        <ele>772.6</ele>
        <time>2022-08-28T10:42:38Z</time>
      </trkpt>
      <trkpt lat="42.3403590" lon="-8.3616620">
        <ele>773.2</ele>
        <time>2022-08-28T10:48:14Z</time>
      </trkpt>
      <trkpt lat="42.3404220" lon="-8.3617110">
        <ele>773.0</ele>
        <time>2022-08-28T10:48:18Z</time>
      </trkpt>
      <trkpt lat="42.3404730" lon="-8.3617630">
        <ele>772.8</ele>
        <time>2022-08-28T10:48:21Z</time>
      </trkpt>
      <trkpt lat="42.3404780" lon="-8.3617730">
        <ele>772.6</ele>
        <time>2022-08-28T10:48:23Z</time>
      </trkpt>
      <trkpt lat="42.3405100" lon="-8.3619040">
        <ele>771.6</ele>
        <time>2022-08-28T10:49:27Z</time>
      </trkpt>
      <trkpt lat="42.3405150" lon="-8.3619180">
        <ele>771.6</ele>
        <time>2022-08-28T10:49:28Z</time>
      </trkpt>
      <trkpt lat="42.3405630" lon="-8.3620260">
        <ele>771.4</ele>
        <time>2022-08-28T10:49:33Z</time>
      </trkpt>
      <trkpt lat="42.3406750" lon="-8.3621720">
        <ele>771.0</ele>
        <time>2022-08-28T10:49:41Z</time>
      </trkpt>
      <trkpt lat="42.3407560" lon="-8.3622220">
        <ele>771.0</ele>
        <time>2022-08-28T10:49:47Z</time>
      </trkpt>
      <trkpt lat="42.3408420" lon="-8.3622390">
        <ele>771.2</ele>
        <time>2022-08-28T10:49:53Z</time>
      </trkpt>
      <trkpt lat="42.3409380" lon="-8.3623200">
        <ele>771.8</ele>
        <time>2022-08-28T10:50:00Z</time>
      </trkpt>
      <trkpt lat="42.3410100" lon="-8.3623890">
        <ele>772.6</ele>
        <time>2022-08-28T10:50:07Z</time>
      </trkpt>
      <trkpt lat="42.3410200" lon="-8.3623990">
        <ele>772.8</ele>
        <time>2022-08-28T10:50:08Z</time>
      </trkpt>
      <trkpt lat="42.3410820" lon="-8.3624430">
        <ele>773.6</ele>
        <time>2022-08-28T10:50:14Z</time>
      </trkpt>
      <trkpt lat="42.3410930" lon="-8.3624500">
        <ele>773.8</ele>
        <time>2022-08-28T10:50:15Z</time>
      </trkpt>
      <trkpt lat="42.3411390" lon="-8.3624770">
        <ele>774.2</ele>
        <time>2022-08-28T10:50:19Z</time>
      </trkpt>
      <trkpt lat="42.3411760" lon="-8.3624640">
        <ele>774.6</ele>
        <time>2022-08-28T10:50:22Z</time>
      </trkpt>
      <trkpt lat="42.3411890" lon="-8.3624600">
        <ele>774.6</ele>
        <time>2022-08-28T10:50:23Z</time>
      </trkpt>
      <trkpt lat="42.3412050" lon="-8.3624560">
        <ele>774.8</ele>
        <time>2022-08-28T10:50:24Z</time>
      </trkpt>
      <trkpt lat="42.3412850" lon="-8.3624490">
        <ele>775.0</ele>
        <time>2022-08-28T10:50:29Z</time>
      </trkpt>
      <trkpt lat="42.3414260" lon="-8.3624380">
        <ele>775.4</ele>
        <time>2022-08-28T10:50:36Z</time>
      </trkpt>
      <trkpt lat="42.3415310" lon="-8.3623990">
        <ele>775.2</ele>
        <time>2022-08-28T10:50:41Z</time>
      </trkpt>
      <trkpt lat="42.3416610" lon="-8.3623810">
        <ele>775.0</ele>
        <time>2022-08-28T10:50:47Z</time>
      </trkpt>
      <trkpt lat="42.3418150" lon="-8.3623690">
        <ele>774.8</ele>
        <time>2022-08-28T10:50:52Z</time>
      </trkpt>
      <trkpt lat="42.3419710" lon="-8.3623800">
        <ele>773.8</ele>
        <time>2022-08-28T10:50:57Z</time>
      </trkpt>
      <trkpt lat="42.3419930" lon="-8.3623860">
        <ele>773.6</ele>
        <time>2022-08-28T10:50:58Z</time>
      </trkpt>
      <trkpt lat="42.3420720" lon="-8.3624140">
        <ele>772.6</ele>
        <time>2022-08-28T10:51:02Z</time>
      </trkpt>
      <trkpt lat="42.3421010" lon="-8.3624200">
        <ele>772.4</ele>
        <time>2022-08-28T10:51:03Z</time>
      </trkpt>
      <trkpt lat="42.3421780" lon="-8.3624400">
        <ele>771.6</ele>
        <time>2022-08-28T10:51:06Z</time>
      </trkpt>
      <trkpt lat="42.3422710" lon="-8.3624670">
        <ele>770.6</ele>
        <time>2022-08-28T10:51:10Z</time>
      </trkpt>
      <trkpt lat="42.3423560" lon="-8.3625110">
        <ele>769.4</ele>
        <time>2022-08-28T10:51:13Z</time>
      </trkpt>
      <trkpt lat="42.3423840" lon="-8.3625300">
        <ele>769.2</ele>
        <time>2022-08-28T10:51:14Z</time>
      </trkpt>
      <trkpt lat="42.3424580" lon="-8.3625860">
        <ele>768.2</ele>
        <time>2022-08-28T10:51:17Z</time>
      </trkpt>
      <trkpt lat="42.3424880" lon="-8.3626310">
        <ele>767.4</ele>
        <time>2022-08-28T10:51:19Z</time>
      </trkpt>
      <trkpt lat="42.3425140" lon="-8.3626820">
        <ele>767.2</ele>
        <time>2022-08-28T10:51:21Z</time>
      </trkpt>
      <trkpt lat="42.3425760" lon="-8.3628320">
        <ele>766.8</ele>
        <time>2022-08-28T10:51:26Z</time>
      </trkpt>
      <trkpt lat="42.3426720" lon="-8.3630540">
        <ele>766.8</ele>
        <time>2022-08-28T10:51:33Z</time>
      </trkpt>
      <trkpt lat="42.3427740" lon="-8.3632190">
        <ele>766.2</ele>
        <time>2022-08-28T10:51:39Z</time>
      </trkpt>
      <trkpt lat="42.3428150" lon="-8.3633040">
        <ele>766.0</ele>
        <time>2022-08-28T10:51:42Z</time>
      </trkpt>
      <trkpt lat="42.3428600" lon="-8.3634160">
        <ele>766.0</ele>
        <time>2022-08-28T10:51:46Z</time>
      </trkpt>
      <trkpt lat="42.3428850" lon="-8.3635300">
        <ele>765.8</ele>
        <time>2022-08-28T10:51:51Z</time>
      </trkpt>
      <trkpt lat="42.3428990" lon="-8.3636900">
        <ele>765.8</ele>
        <time>2022-08-28T10:51:55Z</time>
      </trkpt>
      <trkpt lat="42.3429130" lon="-8.3638440">
        <ele>765.6</ele>
        <time>2022-08-28T10:51:58Z</time>
      </trkpt>
      <trkpt lat="42.3429130" lon="-8.3639500">
        <ele>765.4</ele>
        <time>2022-08-28T10:52:00Z</time>
      </trkpt>
      <trkpt lat="42.3429130" lon="-8.3640100">
        <ele>764.8</ele>
        <time>2022-08-28T10:52:02Z</time>
      </trkpt>
      <trkpt lat="42.3429160" lon="-8.3640440">
        <ele>764.0</ele>
        <time>2022-08-28T10:52:04Z</time>
      </trkpt>
      <trkpt lat="42.3429190" lon="-8.3640600">
        <ele>763.8</ele>
        <time>2022-08-28T10:52:05Z</time>
      </trkpt>
      <trkpt lat="42.3429410" lon="-8.3641140">
        <ele>763.0</ele>
        <time>2022-08-28T10:52:08Z</time>
      </trkpt>
      <trkpt lat="42.3429740" lon="-8.3641540">
        <ele>762.4</ele>
        <time>2022-08-28T10:52:10Z</time>
      </trkpt>
      <trkpt lat="42.3430120" lon="-8.3641750">
        <ele>761.8</ele>
        <time>2022-08-28T10:52:13Z</time>
      </trkpt>
      <trkpt lat="42.3430140" lon="-8.3641750">
        <ele>761.6</ele>
        <time>2022-08-28T10:52:15Z</time>
      </trkpt>
      <trkpt lat="42.3430820" lon="-8.3642110">
        <ele>759.0</ele>
        <time>2022-08-28T10:52:37Z</time>
      </trkpt>
      <trkpt lat="42.3431110" lon="-8.3642460">
        <ele>759.0</ele>
        <time>2022-08-28T10:52:39Z</time>
      </trkpt>
      <trkpt lat="42.3432120" lon="-8.3643740">
        <ele>758.8</ele>
        <time>2022-08-28T10:52:43Z</time>
      </trkpt>
      <trkpt lat="42.3433220" lon="-8.3645100">
        <ele>757.8</ele>
        <time>2022-08-28T10:52:46Z</time>
      </trkpt>
      <trkpt lat="42.3434240" lon="-8.3646440">
        <ele>756.4</ele>
        <time>2022-08-28T10:52:49Z</time>
      </trkpt>
      <trkpt lat="42.3434550" lon="-8.3646830">
        <ele>756.0</ele>
        <time>2022-08-28T10:52:50Z</time>
      </trkpt>
      <trkpt lat="42.3434860" lon="-8.3647180">
        <ele>755.4</ele>
        <time>2022-08-28T10:52:51Z</time>
      </trkpt>
      <trkpt lat="42.3435540" lon="-8.3647970">
        <ele>754.2</ele>
        <time>2022-08-28T10:52:54Z</time>
      </trkpt>
      <trkpt lat="42.3435730" lon="-8.3648160">
        <ele>753.8</ele>
        <time>2022-08-28T10:52:55Z</time>
      </trkpt>
      <trkpt lat="42.3436640" lon="-8.3648870">
        <ele>753.2</ele>
        <time>2022-08-28T10:53:00Z</time>
      </trkpt>
      <trkpt lat="42.3436880" lon="-8.3649250">
        <ele>753.2</ele>
        <time>2022-08-28T10:53:02Z</time>
      </trkpt>
      <trkpt lat="42.3437970" lon="-8.3650330">
        <ele>753.2</ele>
        <time>2022-08-28T10:53:08Z</time>
      </trkpt>
      <trkpt lat="42.3439510" lon="-8.3651840">
        <ele>753.2</ele>
        <time>2022-08-28T10:53:14Z</time>
      </trkpt>
      <trkpt lat="42.3441320" lon="-8.3653590">
        <ele>752.6</ele>
        <time>2022-08-28T10:53:20Z</time>
      </trkpt>
      <trkpt lat="42.3441700" lon="-8.3653970">
        <ele>752.0</ele>
        <time>2022-08-28T10:53:22Z</time>
      </trkpt>
      <trkpt lat="42.3442440" lon="-8.3654680">
        <ele>751.8</ele>
        <time>2022-08-28T10:53:26Z</time>
      </trkpt>
      <trkpt lat="42.3443840" lon="-8.3655900">
        <ele>751.8</ele>
        <time>2022-08-28T10:53:33Z</time>
      </trkpt>
      <trkpt lat="42.3444790" lon="-8.3656930">
        <ele>752.0</ele>
        <time>2022-08-28T10:53:40Z</time>
      </trkpt>
      <trkpt lat="42.3445550" lon="-8.3657770">
        <ele>751.6</ele>
        <time>2022-08-28T10:53:45Z</time>
      </trkpt>
      <trkpt lat="42.3446040" lon="-8.3658200">
        <ele>751.2</ele>
        <time>2022-08-28T10:53:48Z</time>
      </trkpt>
      <trkpt lat="42.3446550" lon="-8.3658710">
        <ele>751.0</ele>
        <time>2022-08-28T10:53:50Z</time>
      </trkpt>
      <trkpt lat="42.3447360" lon="-8.3659670">
        <ele>750.2</ele>
        <time>2022-08-28T10:53:54Z</time>
      </trkpt>
      <trkpt lat="42.3447550" lon="-8.3659950">
        <ele>750.0</ele>
        <time>2022-08-28T10:53:55Z</time>
      </trkpt>
      <trkpt lat="42.3448260" lon="-8.3660790">
        <ele>749.0</ele>
        <time>2022-08-28T10:53:58Z</time>
      </trkpt>
      <trkpt lat="42.3448670" lon="-8.3661270">
        <ele>747.6</ele>
        <time>2022-08-28T10:54:00Z</time>
      </trkpt>
      <trkpt lat="42.3449110" lon="-8.3661800">
        <ele>747.0</ele>
        <time>2022-08-28T10:54:02Z</time>
      </trkpt>
      <trkpt lat="42.3449310" lon="-8.3662040">
        <ele>746.4</ele>
        <time>2022-08-28T10:54:03Z</time>
      </trkpt>
      <trkpt lat="42.3449780" lon="-8.3662690">
        <ele>744.8</ele>
        <time>2022-08-28T10:54:06Z</time>
      </trkpt>
      <trkpt lat="42.3449900" lon="-8.3662910">
        <ele>744.2</ele>
        <time>2022-08-28T10:54:07Z</time>
      </trkpt>
      <trkpt lat="42.3450020" lon="-8.3663120">
        <ele>743.6</ele>
        <time>2022-08-28T10:54:08Z</time>
      </trkpt>
      <trkpt lat="42.3450450" lon="-8.3663720">
        <ele>742.4</ele>
        <time>2022-08-28T10:54:11Z</time>
      </trkpt>
      <trkpt lat="42.3450610" lon="-8.3663970">
        <ele>742.0</ele>
        <time>2022-08-28T10:54:12Z</time>
      </trkpt>
      <trkpt lat="42.3450950" lon="-8.3664490">
        <ele>741.2</ele>
        <time>2022-08-28T10:54:15Z</time>
      </trkpt>
      <trkpt lat="42.3451020" lon="-8.3664540">
        <ele>740.4</ele>
        <time>2022-08-28T10:54:17Z</time>
      </trkpt>
      <trkpt lat="42.3451090" lon="-8.3664580">
        <ele>740.0</ele>
        <time>2022-08-28T10:54:18Z</time>
      </trkpt>
      <trkpt lat="42.3451250" lon="-8.3664770">
        <ele>738.4</ele>
        <time>2022-08-28T10:54:21Z</time>
      </trkpt>
      <trkpt lat="42.3451310" lon="-8.3664920">
        <ele>737.4</ele>
        <time>2022-08-28T10:54:23Z</time>
      </trkpt>
      <trkpt lat="42.3451460" lon="-8.3665150">
        <ele>736.8</ele>
        <time>2022-08-28T10:54:26Z</time>
      </trkpt>
      <trkpt lat="42.3451580" lon="-8.3665290">
        <ele>736.4</ele>
        <time>2022-08-28T10:54:28Z</time>
      </trkpt>
      <trkpt lat="42.3452040" lon="-8.3665760">
        <ele>735.4</ele>
        <time>2022-08-28T10:54:34Z</time>
      </trkpt>
      <trkpt lat="42.3452130" lon="-8.3665770">
        <ele>735.2</ele>
        <time>2022-08-28T10:54:35Z</time>
      </trkpt>
      <trkpt lat="42.3452390" lon="-8.3665930">
        <ele>734.6</ele>
        <time>2022-08-28T10:54:38Z</time>
      </trkpt>
      <trkpt lat="42.3452480" lon="-8.3666000">
        <ele>734.2</ele>
        <time>2022-08-28T10:54:39Z</time>
      </trkpt>
      <trkpt lat="42.3452680" lon="-8.3666310">
        <ele>733.0</ele>
        <time>2022-08-28T10:54:43Z</time>
      </trkpt>
      <trkpt lat="42.3452860" lon="-8.3666570">
        <ele>731.8</ele>
        <time>2022-08-28T10:54:47Z</time>
      </trkpt>
      <trkpt lat="42.3453130" lon="-8.3666950">
        <ele>730.8</ele>
        <time>2022-08-28T10:54:53Z</time>
      </trkpt>
      <trkpt lat="42.3453420" lon="-8.3667280">
        <ele>729.8</ele>
        <time>2022-08-28T10:54:57Z</time>
      </trkpt>
      <trkpt lat="42.3453860" lon="-8.3667930">
        <ele>728.6</ele>
        <time>2022-08-28T10:55:03Z</time>
      </trkpt>
      <trkpt lat="42.3454120" lon="-8.3668440">
        <ele>727.4</ele>
        <time>2022-08-28T10:55:08Z</time>
      </trkpt>
      <trkpt lat="42.3454270" lon="-8.3668700">
        <ele>727.2</ele>
        <time>2022-08-28T10:55:11Z</time>
      </trkpt>
      <trkpt lat="42.3454300" lon="-8.3668730">
        <ele>726.8</ele>
        <time>2022-08-28T10:55:13Z</time>
      </trkpt>
      <trkpt lat="42.3454670" lon="-8.3669110">
        <ele>726.0</ele>
        <time>2022-08-28T10:55:17Z</time>
      </trkpt>
      <trkpt lat="42.3454940" lon="-8.3669590">
        <ele>725.6</ele>
        <time>2022-08-28T10:55:19Z</time>
      </trkpt>
      <trkpt lat="42.3455620" lon="-8.3671010">
        <ele>725.4</ele>
        <time>2022-08-28T10:55:23Z</time>
      </trkpt>
      <trkpt lat="42.3456500" lon="-8.3672660">
        <ele>724.4</ele>
        <time>2022-08-28T10:55:27Z</time>
      </trkpt>
      <trkpt lat="42.3457060" lon="-8.3674170">
        <ele>723.2</ele>
        <time>2022-08-28T10:55:30Z</time>
      </trkpt>
      <trkpt lat="42.3457270" lon="-8.3675720">
        <ele>722.0</ele>
        <time>2022-08-28T10:55:33Z</time>
      </trkpt>
      <trkpt lat="42.3457220" lon="-8.3676760">
        <ele>721.4</ele>
        <time>2022-08-28T10:55:35Z</time>
      </trkpt>
      <trkpt lat="42.3457120" lon="-8.3677880">
        <ele>720.4</ele>
        <time>2022-08-28T10:55:37Z</time>
      </trkpt>
      <trkpt lat="42.3457020" lon="-8.3679000">
        <ele>719.4</ele>
        <time>2022-08-28T10:55:40Z</time>
      </trkpt>
      <trkpt lat="42.3456990" lon="-8.3679190">
        <ele>719.2</ele>
        <time>2022-08-28T10:55:41Z</time>
      </trkpt>
      <trkpt lat="42.3456800" lon="-8.3679640">
        <ele>718.2</ele>
        <time>2022-08-28T10:55:45Z</time>
      </trkpt>
      <trkpt lat="42.3456780" lon="-8.3679630">
        <ele>718.0</ele>
        <time>2022-08-28T10:55:46Z</time>
      </trkpt>
      <trkpt lat="42.3456370" lon="-8.3680740">
        <ele>717.4</ele>
        <time>2022-08-28T10:55:58Z</time>
      </trkpt>
      <trkpt lat="42.3456190" lon="-8.3681330">
        <ele>717.4</ele>
        <time>2022-08-28T10:56:00Z</time>
      </trkpt>
      <trkpt lat="42.3456090" lon="-8.3681670">
        <ele>717.4</ele>
        <time>2022-08-28T10:56:01Z</time>
      </trkpt>
      <trkpt lat="42.3455800" lon="-8.3682530">
        <ele>717.2</ele>
        <time>2022-08-28T10:56:05Z</time>
      </trkpt>
      <trkpt lat="42.3456160" lon="-8.3683590">
        <ele>716.4</ele>
        <time>2022-08-28T10:56:10Z</time>
      </trkpt>
      <trkpt lat="42.3456240" lon="-8.3683810">
        <ele>716.2</ele>
        <time>2022-08-28T10:56:11Z</time>
      </trkpt>
      <trkpt lat="42.3456270" lon="-8.3684850">
        <ele>715.4</ele>
        <time>2022-08-28T10:56:14Z</time>
      </trkpt>
      <trkpt lat="42.3456360" lon="-8.3685670">
        <ele>715.0</ele>
        <time>2022-08-28T10:56:16Z</time>
      </trkpt>
      <trkpt lat="42.3456560" lon="-8.3686860">
        <ele>714.6</ele>
        <time>2022-08-28T10:56:19Z</time>
      </trkpt>
      <trkpt lat="42.3456790" lon="-8.3687960">
        <ele>713.8</ele>
        <time>2022-08-28T10:56:22Z</time>
      </trkpt>
      <trkpt lat="42.3457000" lon="-8.3688660">
        <ele>712.6</ele>
        <time>2022-08-28T10:56:24Z</time>
      </trkpt>
      <trkpt lat="42.3457170" lon="-8.3689570">
        <ele>710.8</ele>
        <time>2022-08-28T10:56:26Z</time>
      </trkpt>
      <trkpt lat="42.3457290" lon="-8.3690500">
        <ele>709.6</ele>
        <time>2022-08-28T10:56:28Z</time>
      </trkpt>
      <trkpt lat="42.3457380" lon="-8.3691550">
        <ele>708.4</ele>
        <time>2022-08-28T10:56:30Z</time>
      </trkpt>
      <trkpt lat="42.3457650" lon="-8.3692460">
        <ele>707.0</ele>
        <time>2022-08-28T10:56:33Z</time>
      </trkpt>
      <trkpt lat="42.3457750" lon="-8.3692800">
        <ele>706.4</ele>
        <time>2022-08-28T10:56:34Z</time>
      </trkpt>
      <trkpt lat="42.3457870" lon="-8.3693110">
        <ele>705.8</ele>
        <time>2022-08-28T10:56:35Z</time>
      </trkpt>
      <trkpt lat="42.3458060" lon="-8.3693790">
        <ele>704.6</ele>
        <time>2022-08-28T10:56:37Z</time>
      </trkpt>
      <trkpt lat="42.3458100" lon="-8.3694340">
        <ele>703.2</ele>
        <time>2022-08-28T10:56:39Z</time>
      </trkpt>
      <trkpt lat="42.3458090" lon="-8.3694420">
        <ele>702.8</ele>
        <time>2022-08-28T10:56:40Z</time>
      </trkpt>
      <trkpt lat="42.3458080" lon="-8.3694450">
        <ele>702.4</ele>
        <time>2022-08-28T10:56:41Z</time>
      </trkpt>
      <trkpt lat="42.3458710" lon="-8.3698310">
        <ele>694.4</ele>
        <time>2022-08-28T10:57:23Z</time>
      </trkpt>
      <trkpt lat="42.3458790" lon="-8.3698730">
        <ele>694.2</ele>
        <time>2022-08-28T10:57:24Z</time>
      </trkpt>
      <trkpt lat="42.3459040" lon="-8.3699810">
        <ele>694.2</ele>
        <time>2022-08-28T10:57:26Z</time>
      </trkpt>
      <trkpt lat="42.3459260" lon="-8.3700940">
        <ele>694.2</ele>
        <time>2022-08-28T10:57:28Z</time>
      </trkpt>
      <trkpt lat="42.3459730" lon="-8.3702510">
        <ele>693.8</ele>
        <time>2022-08-28T10:57:31Z</time>
      </trkpt>
      <trkpt lat="42.3460060" lon="-8.3703470">
        <ele>693.2</ele>
        <time>2022-08-28T10:57:33Z</time>
      </trkpt>
      <trkpt lat="42.3460280" lon="-8.3704840">
        <ele>692.2</ele>
        <time>2022-08-28T10:57:36Z</time>
      </trkpt>
      <trkpt lat="42.3460410" lon="-8.3705630">
        <ele>691.0</ele>
        <time>2022-08-28T10:57:38Z</time>
      </trkpt>
      <trkpt lat="42.3460470" lon="-8.3706030">
        <ele>690.8</ele>
        <time>2022-08-28T10:57:39Z</time>
      </trkpt>
      <trkpt lat="42.3461080" lon="-8.3708070">
        <ele>690.2</ele>
        <time>2022-08-28T10:57:44Z</time>
      </trkpt>
      <trkpt lat="42.3461730" lon="-8.3708620">
        <ele>690.0</ele>
        <time>2022-08-28T10:57:46Z</time>
      </trkpt>
      <trkpt lat="42.3462120" lon="-8.3708650">
        <ele>689.8</ele>
        <time>2022-08-28T10:57:47Z</time>
      </trkpt>
      <trkpt lat="42.3462920" lon="-8.3708110">
        <ele>689.4</ele>
        <time>2022-08-28T10:57:50Z</time>
      </trkpt>
      <trkpt lat="42.3463050" lon="-8.3708030">
        <ele>689.0</ele>
        <time>2022-08-28T10:57:53Z</time>
      </trkpt>
      <trkpt lat="42.3463020" lon="-8.3707510">
        <ele>687.6</ele>
        <time>2022-08-28T10:59:47Z</time>
      </trkpt>
      <trkpt lat="42.3462830" lon="-8.3705580">
        <ele>687.6</ele>
        <time>2022-08-28T10:59:51Z</time>
      </trkpt>
      <trkpt lat="42.3462750" lon="-8.3702010">
        <ele>687.2</ele>
        <time>2022-08-28T10:59:56Z</time>
      </trkpt>
      <trkpt lat="42.3462840" lon="-8.3701520">
        <ele>687.0</ele>
        <time>2022-08-28T10:59:57Z</time>
      </trkpt>
      <trkpt lat="42.3463140" lon="-8.3700890">
        <ele>686.4</ele>
        <time>2022-08-28T10:59:59Z</time>
      </trkpt>
      <trkpt lat="42.3463400" lon="-8.3700600">
        <ele>685.4</ele>
        <time>2022-08-28T11:00:02Z</time>
      </trkpt>
      <trkpt lat="42.3463410" lon="-8.3700590">
        <ele>685.0</ele>
        <time>2022-08-28T11:00:03Z</time>
      </trkpt>
      <trkpt lat="42.3463840" lon="-8.3700600">
        <ele>683.0</ele>
        <time>2022-08-28T11:00:13Z</time>
      </trkpt>
      <trkpt lat="42.3464350" lon="-8.3700960">
        <ele>683.0</ele>
        <time>2022-08-28T11:00:15Z</time>
      </trkpt>
      <trkpt lat="42.3464880" lon="-8.3701560">
        <ele>683.0</ele>
        <time>2022-08-28T11:00:17Z</time>
      </trkpt>
      <trkpt lat="42.3465880" lon="-8.3702790">
        <ele>682.6</ele>
        <time>2022-08-28T11:00:20Z</time>
      </trkpt>
      <trkpt lat="42.3466620" lon="-8.3703670">
        <ele>682.0</ele>
        <time>2022-08-28T11:00:22Z</time>
      </trkpt>
      <trkpt lat="42.3467740" lon="-8.3705120">
        <ele>680.6</ele>
        <time>2022-08-28T11:00:25Z</time>
      </trkpt>
      <trkpt lat="42.3468080" lon="-8.3705590">
        <ele>679.8</ele>
        <time>2022-08-28T11:00:26Z</time>
      </trkpt>
      <trkpt lat="42.3468410" lon="-8.3706090">
        <ele>678.6</ele>
        <time>2022-08-28T11:00:27Z</time>
      </trkpt>
      <trkpt lat="42.3469100" lon="-8.3707030">
        <ele>676.8</ele>
        <time>2022-08-28T11:00:29Z</time>
      </trkpt>
      <trkpt lat="42.3469400" lon="-8.3707570">
        <ele>676.0</ele>
        <time>2022-08-28T11:00:30Z</time>
      </trkpt>
      <trkpt lat="42.3469680" lon="-8.3708120">
        <ele>675.2</ele>
        <time>2022-08-28T11:00:31Z</time>
      </trkpt>
      <trkpt lat="42.3470240" lon="-8.3709240">
        <ele>673.6</ele>
        <time>2022-08-28T11:00:33Z</time>
      </trkpt>
      <trkpt lat="42.3470540" lon="-8.3709860">
        <ele>672.8</ele>
        <time>2022-08-28T11:00:34Z</time>
      </trkpt>
      <trkpt lat="42.3470830" lon="-8.3710490">
        <ele>671.8</ele>
        <time>2022-08-28T11:00:35Z</time>
      </trkpt>
      <trkpt lat="42.3471400" lon="-8.3711670">
        <ele>670.4</ele>
        <time>2022-08-28T11:00:37Z</time>
      </trkpt>
      <trkpt lat="42.3472000" lon="-8.3712910">
        <ele>668.6</ele>
        <time>2022-08-28T11:00:39Z</time>
      </trkpt>
      <trkpt lat="42.3472640" lon="-8.3714220">
        <ele>667.2</ele>
        <time>2022-08-28T11:00:41Z</time>
      </trkpt>
      <trkpt lat="42.3473300" lon="-8.3715470">
        <ele>665.6</ele>
        <time>2022-08-28T11:00:43Z</time>
      </trkpt>
      <trkpt lat="42.3474130" lon="-8.3716660">
        <ele>663.8</ele>
        <time>2022-08-28T11:00:45Z</time>
      </trkpt>
      <trkpt lat="42.3475180" lon="-8.3717740">
        <ele>662.2</ele>
        <time>2022-08-28T11:00:47Z</time>
      </trkpt>
      <trkpt lat="42.3476320" lon="-8.3718780">
        <ele>660.6</ele>
        <time>2022-08-28T11:00:49Z</time>
      </trkpt>
      <trkpt lat="42.3476880" lon="-8.3719370">
        <ele>659.0</ele>
        <time>2022-08-28T11:00:50Z</time>
      </trkpt>
      <trkpt lat="42.3477410" lon="-8.3720150">
        <ele>658.2</ele>
        <time>2022-08-28T11:00:51Z</time>
      </trkpt>
      <trkpt lat="42.3477910" lon="-8.3721110">
        <ele>657.4</ele>
        <time>2022-08-28T11:00:52Z</time>
      </trkpt>
      <trkpt lat="42.3478800" lon="-8.3723560">
        <ele>656.0</ele>
        <time>2022-08-28T11:00:54Z</time>
      </trkpt>
      <trkpt lat="42.3479170" lon="-8.3724930">
        <ele>655.0</ele>
        <time>2022-08-28T11:00:55Z</time>
      </trkpt>
      <trkpt lat="42.3479500" lon="-8.3726330">
        <ele>654.0</ele>
        <time>2022-08-28T11:00:56Z</time>
      </trkpt>
      <trkpt lat="42.3479830" lon="-8.3727730">
        <ele>652.8</ele>
        <time>2022-08-28T11:00:57Z</time>
      </trkpt>
      <trkpt lat="42.3480130" lon="-8.3729080">
        <ele>651.6</ele>
        <time>2022-08-28T11:00:58Z</time>
      </trkpt>
      <trkpt lat="42.3480400" lon="-8.3730370">
        <ele>650.4</ele>
        <time>2022-08-28T11:00:59Z</time>
      </trkpt>
      <trkpt lat="42.3480640" lon="-8.3731570">
        <ele>649.4</ele>
        <time>2022-08-28T11:01:00Z</time>
      </trkpt>
      <trkpt lat="42.3480820" lon="-8.3732700">
        <ele>648.2</ele>
        <time>2022-08-28T11:01:01Z</time>
      </trkpt>
      <trkpt lat="42.3480910" lon="-8.3733830">
        <ele>646.6</ele>
        <time>2022-08-28T11:01:02Z</time>
      </trkpt>
      <trkpt lat="42.3480900" lon="-8.3734940">
        <ele>645.2</ele>
        <time>2022-08-28T11:01:03Z</time>
      </trkpt>
      <trkpt lat="42.3480760" lon="-8.3736020">
        <ele>643.8</ele>
        <time>2022-08-28T11:01:04Z</time>
      </trkpt>
      <trkpt lat="42.3480560" lon="-8.3737030">
        <ele>642.4</ele>
        <time>2022-08-28T11:01:05Z</time>
      </trkpt>
      <trkpt lat="42.3480330" lon="-8.3737960">
        <ele>641.4</ele>
        <time>2022-08-28T11:01:06Z</time>
      </trkpt>
      <trkpt lat="42.3480110" lon="-8.3738820">
        <ele>640.0</ele>
        <time>2022-08-28T11:01:07Z</time>
      </trkpt>
      <trkpt lat="42.3479910" lon="-8.3739560">
        <ele>638.6</ele>
        <time>2022-08-28T11:01:08Z</time>
      </trkpt>
      <trkpt lat="42.3479570" lon="-8.3740730">
        <ele>636.6</ele>
        <time>2022-08-28T11:01:10Z</time>
      </trkpt>
      <trkpt lat="42.3479270" lon="-8.3741620">
        <ele>635.0</ele>
        <time>2022-08-28T11:01:12Z</time>
      </trkpt>
      <trkpt lat="42.3478880" lon="-8.3742620">
        <ele>633.2</ele>
        <time>2022-08-28T11:01:14Z</time>
      </trkpt>
      <trkpt lat="42.3478290" lon="-8.3743920">
        <ele>631.8</ele>
        <time>2022-08-28T11:01:16Z</time>
      </trkpt>
      <trkpt lat="42.3477700" lon="-8.3745340">
        <ele>630.2</ele>
        <time>2022-08-28T11:01:18Z</time>
      </trkpt>
      <trkpt lat="42.3477460" lon="-8.3745950">
        <ele>628.8</ele>
        <time>2022-08-28T11:01:19Z</time>
      </trkpt>
      <trkpt lat="42.3477140" lon="-8.3747000">
        <ele>627.8</ele>
        <time>2022-08-28T11:01:21Z</time>
      </trkpt>
      <trkpt lat="42.3477120" lon="-8.3747540">
        <ele>627.0</ele>
        <time>2022-08-28T11:01:22Z</time>
      </trkpt>
      <trkpt lat="42.3477220" lon="-8.3748130">
        <ele>626.2</ele>
        <time>2022-08-28T11:01:23Z</time>
      </trkpt>
      <trkpt lat="42.3477430" lon="-8.3748790">
        <ele>625.4</ele>
        <time>2022-08-28T11:01:24Z</time>
      </trkpt>
      <trkpt lat="42.3477710" lon="-8.3749520">
        <ele>624.4</ele>
        <time>2022-08-28T11:01:25Z</time>
      </trkpt>
      <trkpt lat="42.3478490" lon="-8.3750940">
        <ele>622.8</ele>
        <time>2022-08-28T11:01:27Z</time>
      </trkpt>
      <trkpt lat="42.3478970" lon="-8.3751620">
        <ele>622.2</ele>
        <time>2022-08-28T11:01:28Z</time>
      </trkpt>
      <trkpt lat="42.3479500" lon="-8.3752260">
        <ele>621.6</ele>
        <time>2022-08-28T11:01:29Z</time>
      </trkpt>
      <trkpt lat="42.3480070" lon="-8.3752910">
        <ele>621.0</ele>
        <time>2022-08-28T11:01:30Z</time>
      </trkpt>
      <trkpt lat="42.3480680" lon="-8.3753550">
        <ele>620.4</ele>
        <time>2022-08-28T11:01:31Z</time>
      </trkpt>
      <trkpt lat="42.3481850" lon="-8.3754780">
        <ele>619.2</ele>
        <time>2022-08-28T11:01:33Z</time>
      </trkpt>
      <trkpt lat="42.3482690" lon="-8.3755620">
        <ele>617.6</ele>
        <time>2022-08-28T11:01:35Z</time>
      </trkpt>
      <trkpt lat="42.3482880" lon="-8.3755790">
        <ele>617.0</ele>
        <time>2022-08-28T11:01:36Z</time>
      </trkpt>
      <trkpt lat="42.3482970" lon="-8.3755860">
        <ele>616.4</ele>
        <time>2022-08-28T11:01:37Z</time>
      </trkpt>
      <trkpt lat="42.3483000" lon="-8.3755870">
        <ele>615.2</ele>
        <time>2022-08-28T11:01:39Z</time>
      </trkpt>
      <trkpt lat="42.3483510" lon="-8.3756140">
        <ele>611.6</ele>
        <time>2022-08-28T11:03:39Z</time>
      </trkpt>
      <trkpt lat="42.3484910" lon="-8.3757410">
        <ele>611.4</ele>
        <time>2022-08-28T11:03:43Z</time>
      </trkpt>
      <trkpt lat="42.3487640" lon="-8.3760110">
        <ele>610.6</ele>
        <time>2022-08-28T11:03:49Z</time>
      </trkpt>
      <trkpt lat="42.3488050" lon="-8.3760620">
        <ele>610.4</ele>
        <time>2022-08-28T11:03:50Z</time>
      </trkpt>
      <trkpt lat="42.3488730" lon="-8.3761750">
        <ele>609.4</ele>
        <time>2022-08-28T11:03:52Z</time>
      </trkpt>
      <trkpt lat="42.3489250" lon="-8.3763070">
        <ele>608.4</ele>
        <time>2022-08-28T11:03:54Z</time>
      </trkpt>
      <trkpt lat="42.3489540" lon="-8.3763820">
        <ele>608.0</ele>
        <time>2022-08-28T11:03:55Z</time>
      </trkpt>
      <trkpt lat="42.3490260" lon="-8.3765500">
        <ele>607.0</ele>
        <time>2022-08-28T11:03:57Z</time>
      </trkpt>
      <trkpt lat="42.3490700" lon="-8.3766330">
        <ele>606.6</ele>
        <time>2022-08-28T11:03:58Z</time>
      </trkpt>
      <trkpt lat="42.3491630" lon="-8.3767870">
        <ele>605.4</ele>
        <time>2022-08-28T11:04:00Z</time>
      </trkpt>
      <trkpt lat="42.3493070" lon="-8.3769530">
        <ele>604.0</ele>
        <time>2022-08-28T11:04:03Z</time>
      </trkpt>
      <trkpt lat="42.3494020" lon="-8.3770400">
        <ele>602.6</ele>
        <time>2022-08-28T11:04:05Z</time>
      </trkpt>
      <trkpt lat="42.3494410" lon="-8.3770820">
        <ele>601.8</ele>
        <time>2022-08-28T11:04:06Z</time>
      </trkpt>
      <trkpt lat="42.3494700" lon="-8.3771290">
        <ele>601.0</ele>
        <time>2022-08-28T11:04:07Z</time>
      </trkpt>
      <trkpt lat="42.3494760" lon="-8.3772390">
        <ele>599.6</ele>
        <time>2022-08-28T11:04:09Z</time>
      </trkpt>
      <trkpt lat="42.3494590" lon="-8.3772780">
        <ele>598.8</ele>
        <time>2022-08-28T11:04:10Z</time>
      </trkpt>
      <trkpt lat="42.3494230" lon="-8.3773190">
        <ele>598.0</ele>
        <time>2022-08-28T11:04:11Z</time>
      </trkpt>
      <trkpt lat="42.3493190" lon="-8.3773360">
        <ele>596.8</ele>
        <time>2022-08-28T11:04:13Z</time>
      </trkpt>
      <trkpt lat="42.3491990" lon="-8.3772890">
        <ele>595.8</ele>
        <time>2022-08-28T11:04:15Z</time>
      </trkpt>
      <trkpt lat="42.3491350" lon="-8.3772590">
        <ele>595.2</ele>
        <time>2022-08-28T11:04:16Z</time>
      </trkpt>
      <trkpt lat="42.3490740" lon="-8.3772320">
        <ele>594.4</ele>
        <time>2022-08-28T11:04:17Z</time>
      </trkpt>
      <trkpt lat="42.3489530" lon="-8.3771860">
        <ele>593.6</ele>
        <time>2022-08-28T11:04:19Z</time>
      </trkpt>
      <trkpt lat="42.3488930" lon="-8.3771750">
        <ele>593.2</ele>
        <time>2022-08-28T11:04:20Z</time>
      </trkpt>
      <trkpt lat="42.3488330" lon="-8.3771750">
        <ele>592.6</ele>
        <time>2022-08-28T11:04:21Z</time>
      </trkpt>
      <trkpt lat="42.3487700" lon="-8.3771970">
        <ele>592.2</ele>
        <time>2022-08-28T11:04:22Z</time>
      </trkpt>
      <trkpt lat="42.3486400" lon="-8.3772890">
        <ele>591.0</ele>
        <time>2022-08-28T11:04:24Z</time>
      </trkpt>
      <trkpt lat="42.3484690" lon="-8.3775240">
        <ele>589.6</ele>
        <time>2022-08-28T11:04:27Z</time>
      </trkpt>
      <trkpt lat="42.3483800" lon="-8.3777280">
        <ele>588.4</ele>
        <time>2022-08-28T11:04:29Z</time>
      </trkpt>
      <trkpt lat="42.3483100" lon="-8.3779370">
        <ele>587.2</ele>
        <time>2022-08-28T11:04:31Z</time>
      </trkpt>
      <trkpt lat="42.3482620" lon="-8.3781060">
        <ele>585.6</ele>
        <time>2022-08-28T11:04:33Z</time>
      </trkpt>
      <trkpt lat="42.3482450" lon="-8.3781700">
        <ele>584.6</ele>
        <time>2022-08-28T11:04:34Z</time>
      </trkpt>
      <trkpt lat="42.3482310" lon="-8.3782180">
        <ele>583.6</ele>
        <time>2022-08-28T11:04:35Z</time>
      </trkpt>
      <trkpt lat="42.3482060" lon="-8.3782910">
        <ele>581.8</ele>
        <time>2022-08-28T11:04:37Z</time>
      </trkpt>
      <trkpt lat="42.3481930" lon="-8.3783260">
        <ele>580.8</ele>
        <time>2022-08-28T11:04:38Z</time>
      </trkpt>
      <trkpt lat="42.3481760" lon="-8.3783670">
        <ele>579.6</ele>
        <time>2022-08-28T11:04:39Z</time>
      </trkpt>
      <trkpt lat="42.3481570" lon="-8.3784170">
        <ele>578.6</ele>
        <time>2022-08-28T11:04:40Z</time>
      </trkpt>
      <trkpt lat="42.3481100" lon="-8.3785300">
        <ele>576.8</ele>
        <time>2022-08-28T11:04:42Z</time>
      </trkpt>
      <trkpt lat="42.3480720" lon="-8.3786380">
        <ele>575.4</ele>
        <time>2022-08-28T11:04:44Z</time>
      </trkpt>
      <trkpt lat="42.3480270" lon="-8.3787510">
        <ele>574.2</ele>
        <time>2022-08-28T11:04:46Z</time>
      </trkpt>
      <trkpt lat="42.3479840" lon="-8.3788530">
        <ele>573.6</ele>
        <time>2022-08-28T11:04:48Z</time>
      </trkpt>
      <trkpt lat="42.3479640" lon="-8.3789030">
        <ele>573.0</ele>
        <time>2022-08-28T11:04:49Z</time>
      </trkpt>
      <trkpt lat="42.3479310" lon="-8.3789960">
        <ele>572.2</ele>
        <time>2022-08-28T11:04:51Z</time>
      </trkpt>
      <trkpt lat="42.3478960" lon="-8.3790910">
        <ele>571.2</ele>
        <time>2022-08-28T11:04:53Z</time>
      </trkpt>
      <trkpt lat="42.3478830" lon="-8.3791340">
        <ele>570.6</ele>
        <time>2022-08-28T11:04:54Z</time>
      </trkpt>
      <trkpt lat="42.3478570" lon="-8.3792060">
        <ele>569.8</ele>
        <time>2022-08-28T11:04:56Z</time>
      </trkpt>
      <trkpt lat="42.3478290" lon="-8.3792780">
        <ele>568.8</ele>
        <time>2022-08-28T11:04:59Z</time>
      </trkpt>
      <trkpt lat="42.3478250" lon="-8.3792870">
        <ele>568.6</ele>
        <time>2022-08-28T11:05:00Z</time>
      </trkpt>
      <trkpt lat="42.3478230" lon="-8.3792910">
        <ele>568.0</ele>
        <time>2022-08-28T11:05:02Z</time>
      </trkpt>
      <trkpt lat="42.3477960" lon="-8.3792920">
        <ele>566.8</ele>
        <time>2022-08-28T11:07:10Z</time>
      </trkpt>
      <trkpt lat="42.3477850" lon="-8.3792800">
        <ele>566.8</ele>
        <time>2022-08-28T11:07:11Z</time>
      </trkpt>
      <trkpt lat="42.3477510" lon="-8.3792530">
        <ele>566.6</ele>
        <time>2022-08-28T11:07:14Z</time>
      </trkpt>
      <trkpt lat="42.3477120" lon="-8.3792670">
        <ele>566.0</ele>
        <time>2022-08-28T11:07:17Z</time>
      </trkpt>
      <trkpt lat="42.3477090" lon="-8.3792690">
        <ele>565.8</ele>
        <time>2022-08-28T11:07:18Z</time>
      </trkpt>
      <trkpt lat="42.3477080" lon="-8.3792740">
        <ele>565.6</ele>
        <time>2022-08-28T11:07:19Z</time>
      </trkpt>
      <trkpt lat="42.3476510" lon="-8.3795240">
        <ele>562.2</ele>
        <time>2022-08-28T11:07:38Z</time>
      </trkpt>
      <trkpt lat="42.3476560" lon="-8.3795670">
        <ele>561.8</ele>
        <time>2022-08-28T11:07:40Z</time>
      </trkpt>
      <trkpt lat="42.3476540" lon="-8.3796210">
        <ele>560.8</ele>
        <time>2022-08-28T11:07:42Z</time>
      </trkpt>
      <trkpt lat="42.3476540" lon="-8.3797020">
        <ele>560.0</ele>
        <time>2022-08-28T11:07:44Z</time>
      </trkpt>
      <trkpt lat="42.3476540" lon="-8.3797400">
        <ele>560.0</ele>
        <time>2022-08-28T11:07:45Z</time>
      </trkpt>
      <trkpt lat="42.3476710" lon="-8.3798180">
        <ele>559.8</ele>
        <time>2022-08-28T11:07:49Z</time>
      </trkpt>
      <trkpt lat="42.3476800" lon="-8.3798970">
        <ele>560.0</ele>
        <time>2022-08-28T11:07:57Z</time>
      </trkpt>
      <trkpt lat="42.3476830" lon="-8.3799050">
        <ele>560.0</ele>
        <time>2022-08-28T11:08:00Z</time>
      </trkpt>
      <trkpt lat="42.3477450" lon="-8.3792440">
        <ele>562.8</ele>
        <time>2022-08-28T11:13:09Z</time>
      </trkpt>
      <trkpt lat="42.3477580" lon="-8.3792610">
        <ele>563.2</ele>
        <time>2022-08-28T11:13:11Z</time>
      </trkpt>
      <trkpt lat="42.3477850" lon="-8.3793100">
        <ele>564.0</ele>
        <time>2022-08-28T11:13:16Z</time>
      </trkpt>
      <trkpt lat="42.3478120" lon="-8.3793400">
        <ele>565.2</ele>
        <time>2022-08-28T11:13:20Z</time>
      </trkpt>
      <trkpt lat="42.3478160" lon="-8.3793440">
        <ele>565.4</ele>
        <time>2022-08-28T11:13:21Z</time>
      </trkpt>
      <trkpt lat="42.3478290" lon="-8.3793530">
        <ele>566.0</ele>
        <time>2022-08-28T11:13:24Z</time>
      </trkpt>
      <trkpt lat="42.3478770" lon="-8.3793730">
        <ele>566.8</ele>
        <time>2022-08-28T11:13:30Z</time>
      </trkpt>
      <trkpt lat="42.3479190" lon="-8.3793970">
        <ele>566.8</ele>
        <time>2022-08-28T11:13:32Z</time>
      </trkpt>
      <trkpt lat="42.3481140" lon="-8.3793970">
        <ele>566.8</ele>
        <time>2022-08-28T11:13:37Z</time>
      </trkpt>
      <trkpt lat="42.3482980" lon="-8.3792050">
        <ele>566.2</ele>
        <time>2022-08-28T11:13:41Z</time>
      </trkpt>
      <trkpt lat="42.3483430" lon="-8.3791330">
        <ele>566.0</ele>
        <time>2022-08-28T11:13:42Z</time>
      </trkpt>
      <trkpt lat="42.3483880" lon="-8.3790580">
        <ele>565.8</ele>
        <time>2022-08-28T11:13:43Z</time>
      </trkpt>
      <trkpt lat="42.3485310" lon="-8.3788500">
        <ele>564.6</ele>
        <time>2022-08-28T11:13:46Z</time>
      </trkpt>
      <trkpt lat="42.3485780" lon="-8.3787800">
        <ele>564.4</ele>
        <time>2022-08-28T11:13:47Z</time>
      </trkpt>
      <trkpt lat="42.3487250" lon="-8.3785470">
        <ele>563.4</ele>
        <time>2022-08-28T11:13:50Z</time>
      </trkpt>
      <trkpt lat="42.3488770" lon="-8.3782830">
        <ele>562.6</ele>
        <time>2022-08-28T11:13:53Z</time>
      </trkpt>
      <trkpt lat="42.3489900" lon="-8.3781360">
        <ele>562.0</ele>
        <time>2022-08-28T11:13:55Z</time>
      </trkpt>
      <trkpt lat="42.3491300" lon="-8.3780510">
        <ele>561.2</ele>
        <time>2022-08-28T11:13:57Z</time>
      </trkpt>
      <trkpt lat="42.3492010" lon="-8.3780300">
        <ele>560.8</ele>
        <time>2022-08-28T11:13:58Z</time>
      </trkpt>
      <trkpt lat="42.3493330" lon="-8.3780160">
        <ele>559.8</ele>
        <time>2022-08-28T11:14:00Z</time>
      </trkpt>
      <trkpt lat="42.3493890" lon="-8.3780280">
        <ele>559.0</ele>
        <time>2022-08-28T11:14:01Z</time>
      </trkpt>
      <trkpt lat="42.3494450" lon="-8.3780560">
        <ele>557.8</ele>
        <time>2022-08-28T11:14:02Z</time>
      </trkpt>
      <trkpt lat="42.3495370" lon="-8.3782040">
        <ele>557.2</ele>
        <time>2022-08-28T11:14:04Z</time>
      </trkpt>
      <trkpt lat="42.3495650" lon="-8.3782990">
        <ele>556.6</ele>
        <time>2022-08-28T11:14:05Z</time>
      </trkpt>
      <trkpt lat="42.3495890" lon="-8.3784810">
        <ele>555.6</ele>
        <time>2022-08-28T11:14:07Z</time>
      </trkpt>
      <trkpt lat="42.3495850" lon="-8.3786380">
        <ele>554.6</ele>
        <time>2022-08-28T11:14:09Z</time>
      </trkpt>
      <trkpt lat="42.3495850" lon="-8.3787040">
        <ele>554.4</ele>
        <time>2022-08-28T11:14:10Z</time>
      </trkpt>
      <trkpt lat="42.3495870" lon="-8.3787680">
        <ele>554.2</ele>
        <time>2022-08-28T11:14:11Z</time>
      </trkpt>
      <trkpt lat="42.3496430" lon="-8.3791670">
        <ele>554.0</ele>
        <time>2022-08-28T11:14:18Z</time>
      </trkpt>
      <trkpt lat="42.3497620" lon="-8.3795960">
        <ele>554.0</ele>
        <time>2022-08-28T11:14:25Z</time>
      </trkpt>
      <trkpt lat="42.3498740" lon="-8.3800140">
        <ele>553.6</ele>
        <time>2022-08-28T11:14:30Z</time>
      </trkpt>
      <trkpt lat="42.3499320" lon="-8.3802200">
        <ele>553.0</ele>
        <time>2022-08-28T11:14:32Z</time>
      </trkpt>
      <trkpt lat="42.3500240" lon="-8.3805630">
        <ele>552.2</ele>
        <time>2022-08-28T11:14:35Z</time>
      </trkpt>
      <trkpt lat="42.3500480" lon="-8.3806850">
        <ele>551.8</ele>
        <time>2022-08-28T11:14:36Z</time>
      </trkpt>
      <trkpt lat="42.3500990" lon="-8.3810630">
        <ele>550.0</ele>
        <time>2022-08-28T11:14:39Z</time>
      </trkpt>
      <trkpt lat="42.3501120" lon="-8.3811870">
        <ele>549.2</ele>
        <time>2022-08-28T11:14:40Z</time>
      </trkpt>
      <trkpt lat="42.3501240" lon="-8.3813090">
        <ele>548.4</ele>
        <time>2022-08-28T11:14:41Z</time>
      </trkpt>
      <trkpt lat="42.3501420" lon="-8.3815380">
        <ele>547.2</ele>
        <time>2022-08-28T11:14:43Z</time>
      </trkpt>
      <trkpt lat="42.3501590" lon="-8.3817270">
        <ele>546.4</ele>
        <time>2022-08-28T11:14:45Z</time>
      </trkpt>
      <trkpt lat="42.3501710" lon="-8.3818060">
        <ele>546.0</ele>
        <time>2022-08-28T11:14:46Z</time>
      </trkpt>
      <trkpt lat="42.3501900" lon="-8.3819880">
        <ele>545.8</ele>
        <time>2022-08-28T11:14:49Z</time>
      </trkpt>
      <trkpt lat="42.3501980" lon="-8.3821870">
        <ele>545.8</ele>
        <time>2022-08-28T11:14:54Z</time>
      </trkpt>
      <trkpt lat="42.3502120" lon="-8.3823580">
        <ele>547.4</ele>
        <time>2022-08-28T11:15:00Z</time>
      </trkpt>
      <trkpt lat="42.3502180" lon="-8.3824400">
        <ele>548.2</ele>
        <time>2022-08-28T11:15:03Z</time>
      </trkpt>
      <trkpt lat="42.3502190" lon="-8.3824680">
        <ele>548.6</ele>
        <time>2022-08-28T11:15:04Z</time>
      </trkpt>
      <trkpt lat="42.3502330" lon="-8.3825740">
        <ele>549.4</ele>
        <time>2022-08-28T11:15:09Z</time>
      </trkpt>
      <trkpt lat="42.3502370" lon="-8.3826200">
        <ele>549.8</ele>
        <time>2022-08-28T11:15:11Z</time>
      </trkpt>
      <trkpt lat="42.3502540" lon="-8.3827160">
        <ele>550.6</ele>
        <time>2022-08-28T11:15:15Z</time>
      </trkpt>
      <trkpt lat="42.3502610" lon="-8.3827620">
        <ele>550.6</ele>
        <time>2022-08-28T11:15:17Z</time>
      </trkpt>
      <trkpt lat="42.3502720" lon="-8.3828050">
        <ele>551.0</ele>
        <time>2022-08-28T11:15:19Z</time>
      </trkpt>
      <trkpt lat="42.3502880" lon="-8.3828830">
        <ele>551.4</ele>
        <time>2022-08-28T11:15:22Z</time>
      </trkpt>
      <trkpt lat="42.3503090" lon="-8.3829680">
        <ele>551.8</ele>
        <time>2022-08-28T11:15:25Z</time>
      </trkpt>
      <trkpt lat="42.3503550" lon="-8.3831330">
        <ele>552.6</ele>
        <time>2022-08-28T11:15:31Z</time>
      </trkpt>
      <trkpt lat="42.3503930" lon="-8.3831980">
        <ele>553.0</ele>
        <time>2022-08-28T11:15:34Z</time>
      </trkpt>
      <trkpt lat="42.3504260" lon="-8.3833150">
        <ele>553.4</ele>
        <time>2022-08-28T11:15:38Z</time>
      </trkpt>
      <trkpt lat="42.3504480" lon="-8.3834900">
        <ele>554.0</ele>
        <time>2022-08-28T11:15:43Z</time>
      </trkpt>
      <trkpt lat="42.3504570" lon="-8.3835970">
        <ele>554.2</ele>
        <time>2022-08-28T11:15:46Z</time>
      </trkpt>
      <trkpt lat="42.3504880" lon="-8.3838730">
        <ele>554.6</ele>
        <time>2022-08-28T11:15:53Z</time>
      </trkpt>
      <trkpt lat="42.3505200" lon="-8.3841980">
        <ele>554.8</ele>
        <time>2022-08-28T11:16:01Z</time>
      </trkpt>
      <trkpt lat="42.3504630" lon="-8.3843810">
        <ele>554.8</ele>
        <time>2022-08-28T11:16:06Z</time>
      </trkpt>
      <trkpt lat="42.3503000" lon="-8.3846490">
        <ele>554.4</ele>
        <time>2022-08-28T11:16:12Z</time>
      </trkpt>
      <trkpt lat="42.3502560" lon="-8.3847560">
        <ele>554.2</ele>
        <time>2022-08-28T11:16:14Z</time>
      </trkpt>
      <trkpt lat="42.3502070" lon="-8.3849270">
        <ele>553.4</ele>
        <time>2022-08-28T11:16:17Z</time>
      </trkpt>
      <trkpt lat="42.3501730" lon="-8.3850590">
        <ele>552.6</ele>
        <time>2022-08-28T11:16:20Z</time>
      </trkpt>
      <trkpt lat="42.3501580" lon="-8.3850880">
        <ele>552.4</ele>
        <time>2022-08-28T11:16:21Z</time>
      </trkpt>
      <trkpt lat="42.3501400" lon="-8.3851020">
        <ele>552.0</ele>
        <time>2022-08-28T11:16:22Z</time>
      </trkpt>
      <trkpt lat="42.3501040" lon="-8.3850820">
        <ele>551.4</ele>
        <time>2022-08-28T11:16:24Z</time>
      </trkpt>
      <trkpt lat="42.3500910" lon="-8.3850510">
        <ele>551.0</ele>
        <time>2022-08-28T11:16:25Z</time>
      </trkpt>
      <trkpt lat="42.3500660" lon="-8.3849780">
        <ele>550.6</ele>
        <time>2022-08-28T11:16:27Z</time>
      </trkpt>
      <trkpt lat="42.3500510" lon="-8.3849420">
        <ele>550.4</ele>
        <time>2022-08-28T11:16:28Z</time>
      </trkpt>
      <trkpt lat="42.3499840" lon="-8.3848230">
        <ele>550.2</ele>
        <time>2022-08-28T11:16:32Z</time>
      </trkpt>
      <trkpt lat="42.3499010" lon="-8.3847460">
        <ele>549.0</ele>
        <time>2022-08-28T11:16:35Z</time>
      </trkpt>
      <trkpt lat="42.3498520" lon="-8.3847130">
        <ele>548.0</ele>
        <time>2022-08-28T11:16:37Z</time>
      </trkpt>
      <trkpt lat="42.3497820" lon="-8.3846800">
        <ele>546.8</ele>
        <time>2022-08-28T11:16:40Z</time>
      </trkpt>
      <trkpt lat="42.3497020" lon="-8.3846320">
        <ele>545.2</ele>
        <time>2022-08-28T11:16:43Z</time>
      </trkpt>
      <trkpt lat="42.3496110" lon="-8.3845700">
        <ele>543.8</ele>
        <time>2022-08-28T11:16:46Z</time>
      </trkpt>
      <trkpt lat="42.3495320" lon="-8.3845160">
        <ele>543.6</ele>
        <time>2022-08-28T11:16:48Z</time>
      </trkpt>
      <trkpt lat="42.3493840" lon="-8.3843910">
        <ele>542.8</ele>
        <time>2022-08-28T11:16:52Z</time>
      </trkpt>
      <trkpt lat="42.3493490" lon="-8.3843620">
        <ele>542.8</ele>
        <time>2022-08-28T11:16:53Z</time>
      </trkpt>
      <trkpt lat="42.3492530" lon="-8.3843220">
        <ele>541.8</ele>
        <time>2022-08-28T11:16:56Z</time>
      </trkpt>
      <trkpt lat="42.3492220" lon="-8.3843180">
        <ele>541.2</ele>
        <time>2022-08-28T11:16:57Z</time>
      </trkpt>
      <trkpt lat="42.3491410" lon="-8.3843080">
        <ele>540.0</ele>
        <time>2022-08-28T11:17:00Z</time>
      </trkpt>
      <trkpt lat="42.3491150" lon="-8.3842860">
        <ele>539.4</ele>
        <time>2022-08-28T11:17:02Z</time>
      </trkpt>
      <trkpt lat="42.3490900" lon="-8.3842610">
        <ele>538.6</ele>
        <time>2022-08-28T11:17:04Z</time>
      </trkpt>
      <trkpt lat="42.3490520" lon="-8.3841970">
        <ele>537.4</ele>
        <time>2022-08-28T11:17:07Z</time>
      </trkpt>
      <trkpt lat="42.3490400" lon="-8.3841670">
        <ele>537.0</ele>
        <time>2022-08-28T11:17:08Z</time>
      </trkpt>
      <trkpt lat="42.3490440" lon="-8.3840090">
        <ele>536.4</ele>
        <time>2022-08-28T11:17:12Z</time>
      </trkpt>
      <trkpt lat="42.3490600" lon="-8.3839900">
        <ele>536.2</ele>
        <time>2022-08-28T11:17:13Z</time>
      </trkpt>
      <trkpt lat="42.3490890" lon="-8.3839530">
        <ele>535.6</ele>
        <time>2022-08-28T11:17:16Z</time>
      </trkpt>
      <trkpt lat="42.3491050" lon="-8.3839350">
        <ele>535.2</ele>
        <time>2022-08-28T11:17:17Z</time>
      </trkpt>
      <trkpt lat="42.3491430" lon="-8.3838940">
        <ele>534.0</ele>
        <time>2022-08-28T11:17:19Z</time>
      </trkpt>
      <trkpt lat="42.3491730" lon="-8.3838370">
        <ele>533.0</ele>
        <time>2022-08-28T11:17:21Z</time>
      </trkpt>
      <trkpt lat="42.3491900" lon="-8.3837830">
        <ele>532.6</ele>
        <time>2022-08-28T11:17:22Z</time>
      </trkpt>
      <trkpt lat="42.3491970" lon="-8.3836570">
        <ele>532.0</ele>
        <time>2022-08-28T11:17:24Z</time>
      </trkpt>
      <trkpt lat="42.3491810" lon="-8.3834810">
        <ele>530.8</ele>
        <time>2022-08-28T11:17:27Z</time>
      </trkpt>
      <trkpt lat="42.3491830" lon="-8.3834150">
        <ele>530.0</ele>
        <time>2022-08-28T11:17:29Z</time>
      </trkpt>
      <trkpt lat="42.3491860" lon="-8.3834060">
        <ele>529.4</ele>
        <time>2022-08-28T11:17:30Z</time>
      </trkpt>
      <trkpt lat="42.3491860" lon="-8.3834040">
        <ele>529.2</ele>
        <time>2022-08-28T11:17:32Z</time>
      </trkpt>
      <trkpt lat="42.3493720" lon="-8.3829950">
        <ele>526.0</ele>
        <time>2022-08-28T11:20:59Z</time>
      </trkpt>
      <trkpt lat="42.3493770" lon="-8.3829810">
        <ele>526.0</ele>
        <time>2022-08-28T11:21:00Z</time>
      </trkpt>
      <trkpt lat="42.3494130" lon="-8.3829220">
        <ele>526.2</ele>
        <time>2022-08-28T11:21:05Z</time>
      </trkpt>
      <trkpt lat="42.3494300" lon="-8.3828990">
        <ele>526.2</ele>
        <time>2022-08-28T11:21:07Z</time>
      </trkpt>
      <trkpt lat="42.3494890" lon="-8.3828200">
        <ele>526.4</ele>
        <time>2022-08-28T11:21:15Z</time>
      </trkpt>
      <trkpt lat="42.3495230" lon="-8.3827980">
        <ele>526.6</ele>
        <time>2022-08-28T11:21:19Z</time>
      </trkpt>
      <trkpt lat="42.3495380" lon="-8.3827910">
        <ele>526.6</ele>
        <time>2022-08-28T11:21:21Z</time>
      </trkpt>
      <trkpt lat="42.3495460" lon="-8.3827830">
        <ele>526.8</ele>
        <time>2022-08-28T11:21:22Z</time>
      </trkpt>
      <trkpt lat="42.3495980" lon="-8.3827090">
        <ele>527.0</ele>
        <time>2022-08-28T11:21:32Z</time>
      </trkpt>
      <trkpt lat="42.3496290" lon="-8.3826850">
        <ele>527.2</ele>
        <time>2022-08-28T11:21:40Z</time>
      </trkpt>
      <trkpt lat="42.3491980" lon="-8.3833740">
        <ele>530.0</ele>
        <time>2022-08-28T13:12:20Z</time>
      </trkpt>
      <trkpt lat="42.3491980" lon="-8.3834900">
        <ele>530.0</ele>
        <time>2022-08-28T13:12:25Z</time>
      </trkpt>
      <trkpt lat="42.3491970" lon="-8.3834920">
        <ele>530.0</ele>
        <time>2022-08-28T13:12:26Z</time>
      </trkpt>
      <trkpt lat="42.3492020" lon="-8.3836030">
        <ele>529.4</ele>
        <time>2022-08-28T13:13:53Z</time>
      </trkpt>
      <trkpt lat="42.3492110" lon="-8.3836550">
        <ele>529.4</ele>
        <time>2022-08-28T13:13:55Z</time>
      </trkpt>
      <trkpt lat="42.3492020" lon="-8.3837620">
        <ele>529.2</ele>
        <time>2022-08-28T13:14:00Z</time>
      </trkpt>
      <trkpt lat="42.3491980" lon="-8.3837810">
        <ele>529.2</ele>
        <time>2022-08-28T13:14:01Z</time>
      </trkpt>
      <trkpt lat="42.3491550" lon="-8.3838690">
        <ele>529.2</ele>
        <time>2022-08-28T13:14:08Z</time>
      </trkpt>
      <trkpt lat="42.3491060" lon="-8.3839230">
        <ele>530.2</ele>
        <time>2022-08-28T13:14:16Z</time>
      </trkpt>
      <trkpt lat="42.3491040" lon="-8.3839250">
        <ele>530.2</ele>
        <time>2022-08-28T13:14:17Z</time>
      </trkpt>
      <trkpt lat="42.3491730" lon="-8.3843020">
        <ele>537.4</ele>
        <time>2022-08-28T13:22:09Z</time>
      </trkpt>
      <trkpt lat="42.3492070" lon="-8.3843070">
        <ele>537.4</ele>
        <time>2022-08-28T13:22:12Z</time>
      </trkpt>
      <trkpt lat="42.3492990" lon="-8.3843330">
        <ele>538.4</ele>
        <time>2022-08-28T13:22:20Z</time>
      </trkpt>
      <trkpt lat="42.3493080" lon="-8.3843420">
        <ele>538.6</ele>
        <time>2022-08-28T13:22:21Z</time>
      </trkpt>
      <trkpt lat="42.3493910" lon="-8.3844020">
        <ele>539.6</ele>
        <time>2022-08-28T13:22:28Z</time>
      </trkpt>
      <trkpt lat="42.3494830" lon="-8.3844710">
        <ele>540.2</ele>
        <time>2022-08-28T13:22:37Z</time>
      </trkpt>
      <trkpt lat="42.3495050" lon="-8.3844930">
        <ele>540.6</ele>
        <time>2022-08-28T13:22:40Z</time>
      </trkpt>
      <trkpt lat="42.3495300" lon="-8.3845220">
        <ele>541.0</ele>
        <time>2022-08-28T13:22:43Z</time>
      </trkpt>
      <trkpt lat="42.3496060" lon="-8.3845570">
        <ele>541.6</ele>
        <time>2022-08-28T13:22:50Z</time>
      </trkpt>
      <trkpt lat="42.3496800" lon="-8.3846320">
        <ele>542.4</ele>
        <time>2022-08-28T13:22:57Z</time>
      </trkpt>
      <trkpt lat="42.3497220" lon="-8.3846530">
        <ele>542.8</ele>
        <time>2022-08-28T13:23:00Z</time>
      </trkpt>
      <trkpt lat="42.3497850" lon="-8.3846890">
        <ele>543.4</ele>
        <time>2022-08-28T13:23:05Z</time>
      </trkpt>
      <trkpt lat="42.3498650" lon="-8.3847220">
        <ele>543.4</ele>
        <time>2022-08-28T13:23:12Z</time>
      </trkpt>
      <trkpt lat="42.3499110" lon="-8.3847610">
        <ele>543.8</ele>
        <time>2022-08-28T13:23:16Z</time>
      </trkpt>
      <trkpt lat="42.3499480" lon="-8.3848020">
        <ele>544.4</ele>
        <time>2022-08-28T13:23:20Z</time>
      </trkpt>
      <trkpt lat="42.3499780" lon="-8.3848450">
        <ele>545.0</ele>
        <time>2022-08-28T13:23:24Z</time>
      </trkpt>
      <trkpt lat="42.3499980" lon="-8.3848790">
        <ele>545.6</ele>
        <time>2022-08-28T13:23:27Z</time>
      </trkpt>
      <trkpt lat="42.3500220" lon="-8.3849140">
        <ele>546.0</ele>
        <time>2022-08-28T13:23:30Z</time>
      </trkpt>
      <trkpt lat="42.3500410" lon="-8.3849450">
        <ele>546.6</ele>
        <time>2022-08-28T13:23:33Z</time>
      </trkpt>
      <trkpt lat="42.3500500" lon="-8.3849640">
        <ele>547.2</ele>
        <time>2022-08-28T13:23:35Z</time>
      </trkpt>
      <trkpt lat="42.3500570" lon="-8.3849750">
        <ele>547.6</ele>
        <time>2022-08-28T13:23:36Z</time>
      </trkpt>
      <trkpt lat="42.3500860" lon="-8.3850500">
        <ele>548.4</ele>
        <time>2022-08-28T13:23:42Z</time>
      </trkpt>
      <trkpt lat="42.3501080" lon="-8.3851230">
        <ele>549.6</ele>
        <time>2022-08-28T13:23:50Z</time>
      </trkpt>
      <trkpt lat="42.3501430" lon="-8.3850620">
        <ele>550.4</ele>
        <time>2022-08-28T13:25:26Z</time>
      </trkpt>
      <trkpt lat="42.3501510" lon="-8.3849920">
        <ele>550.4</ele>
        <time>2022-08-28T13:25:29Z</time>
      </trkpt>
      <trkpt lat="42.3501790" lon="-8.3847870">
        <ele>550.4</ele>
        <time>2022-08-28T13:25:37Z</time>
      </trkpt>
      <trkpt lat="42.3502360" lon="-8.3846070">
        <ele>550.6</ele>
        <time>2022-08-28T13:25:46Z</time>
      </trkpt>
      <trkpt lat="42.3502440" lon="-8.3845890">
        <ele>550.8</ele>
        <time>2022-08-28T13:25:47Z</time>
      </trkpt>
      <trkpt lat="42.3502850" lon="-8.3845240">
        <ele>551.8</ele>
        <time>2022-08-28T13:25:51Z</time>
      </trkpt>
      <trkpt lat="42.3503370" lon="-8.3844360">
        <ele>552.2</ele>
        <time>2022-08-28T13:25:56Z</time>
      </trkpt>
      <trkpt lat="42.3503880" lon="-8.3843390">
        <ele>552.8</ele>
        <time>2022-08-28T13:26:02Z</time>
      </trkpt>
      <trkpt lat="42.3504220" lon="-8.3842940">
        <ele>553.2</ele>
        <time>2022-08-28T13:26:05Z</time>
      </trkpt>
      <trkpt lat="42.3504550" lon="-8.3841720">
        <ele>553.8</ele>
        <time>2022-08-28T13:26:11Z</time>
      </trkpt>
      <trkpt lat="42.3504530" lon="-8.3841500">
        <ele>553.8</ele>
        <time>2022-08-28T13:26:12Z</time>
      </trkpt>
      <trkpt lat="42.3504390" lon="-8.3840230">
        <ele>554.6</ele>
        <time>2022-08-28T13:26:18Z</time>
      </trkpt>
      <trkpt lat="42.3504310" lon="-8.3838230">
        <ele>554.8</ele>
        <time>2022-08-28T13:26:26Z</time>
      </trkpt>
      <trkpt lat="42.3504360" lon="-8.3836500">
        <ele>554.8</ele>
        <time>2022-08-28T13:26:33Z</time>
      </trkpt>
      <trkpt lat="42.3504620" lon="-8.3835990">
        <ele>554.8</ele>
        <time>2022-08-28T13:26:36Z</time>
      </trkpt>
      <trkpt lat="42.3504850" lon="-8.3835940">
        <ele>554.8</ele>
        <time>2022-08-28T13:26:38Z</time>
      </trkpt>
      <trkpt lat="42.3504940" lon="-8.3835940">
        <ele>554.8</ele>
        <time>2022-08-28T13:26:39Z</time>
      </trkpt>
      <trkpt lat="42.3505050" lon="-8.3835990">
        <ele>554.8</ele>
        <time>2022-08-28T13:26:40Z</time>
      </trkpt>
      <trkpt lat="42.3505400" lon="-8.3836500">
        <ele>555.0</ele>
        <time>2022-08-28T13:26:44Z</time>
      </trkpt>
      <trkpt lat="42.3505470" lon="-8.3836660">
        <ele>555.2</ele>
        <time>2022-08-28T13:26:45Z</time>
      </trkpt>
      <trkpt lat="42.3505620" lon="-8.3836970">
        <ele>556.0</ele>
        <time>2022-08-28T13:26:47Z</time>
      </trkpt>
      <trkpt lat="42.3505810" lon="-8.3837820">
        <ele>557.0</ele>
        <time>2022-08-28T13:26:52Z</time>
      </trkpt>
      <trkpt lat="42.3505840" lon="-8.3838190">
        <ele>557.6</ele>
        <time>2022-08-28T13:26:54Z</time>
      </trkpt>
      <trkpt lat="42.3505880" lon="-8.3838780">
        <ele>558.2</ele>
        <time>2022-08-28T13:26:57Z</time>
      </trkpt>
      <trkpt lat="42.3505840" lon="-8.3839820">
        <ele>559.0</ele>
        <time>2022-08-28T13:27:02Z</time>
      </trkpt>
      <trkpt lat="42.3505930" lon="-8.3840580">
        <ele>559.2</ele>
        <time>2022-08-28T13:27:06Z</time>
      </trkpt>
      <trkpt lat="42.3505980" lon="-8.3841130">
        <ele>559.6</ele>
        <time>2022-08-28T13:27:09Z</time>
      </trkpt>
      <trkpt lat="42.3506020" lon="-8.3842330">
        <ele>560.4</ele>
        <time>2022-08-28T13:27:16Z</time>
      </trkpt>
      <trkpt lat="42.3505940" lon="-8.3843060">
        <ele>561.6</ele>
        <time>2022-08-28T13:27:21Z</time>
      </trkpt>
      <trkpt lat="42.3505940" lon="-8.3843360">
        <ele>562.0</ele>
        <time>2022-08-28T13:27:23Z</time>
      </trkpt>
      <trkpt lat="42.3505980" lon="-8.3843800">
        <ele>562.6</ele>
        <time>2022-08-28T13:27:26Z</time>
      </trkpt>
      <trkpt lat="42.3506010" lon="-8.3844230">
        <ele>563.0</ele>
        <time>2022-08-28T13:27:29Z</time>
      </trkpt>
      <trkpt lat="42.3506010" lon="-8.3844380">
        <ele>563.0</ele>
        <time>2022-08-28T13:27:30Z</time>
      </trkpt>
      <trkpt lat="42.3506020" lon="-8.3845560">
        <ele>563.8</ele>
        <time>2022-08-28T13:27:37Z</time>
      </trkpt>
      <trkpt lat="42.3506070" lon="-8.3845870">
        <ele>564.0</ele>
        <time>2022-08-28T13:27:39Z</time>
      </trkpt>
      <trkpt lat="42.3506310" lon="-8.3846770">
        <ele>564.8</ele>
        <time>2022-08-28T13:27:45Z</time>
      </trkpt>
      <trkpt lat="42.3506420" lon="-8.3847210">
        <ele>565.4</ele>
        <time>2022-08-28T13:27:48Z</time>
      </trkpt>
      <trkpt lat="42.3506550" lon="-8.3847610">
        <ele>565.8</ele>
        <time>2022-08-28T13:27:51Z</time>
      </trkpt>
      <trkpt lat="42.3506790" lon="-8.3848170">
        <ele>566.4</ele>
        <time>2022-08-28T13:27:56Z</time>
      </trkpt>
      <trkpt lat="42.3506910" lon="-8.3848520">
        <ele>567.0</ele>
        <time>2022-08-28T13:27:59Z</time>
      </trkpt>
      <trkpt lat="42.3507210" lon="-8.3849120">
        <ele>567.8</ele>
        <time>2022-08-28T13:28:05Z</time>
      </trkpt>
      <trkpt lat="42.3507290" lon="-8.3849180">
        <ele>568.0</ele>
        <time>2022-08-28T13:28:06Z</time>
      </trkpt>
      <trkpt lat="42.3507740" lon="-8.3849550">
        <ele>569.0</ele>
        <time>2022-08-28T13:28:12Z</time>
      </trkpt>
      <trkpt lat="42.3507830" lon="-8.3849540">
        <ele>569.2</ele>
        <time>2022-08-28T13:28:13Z</time>
      </trkpt>
      <trkpt lat="42.3507910" lon="-8.3849480">
        <ele>569.4</ele>
        <time>2022-08-28T13:28:14Z</time>
      </trkpt>
      <trkpt lat="42.3508320" lon="-8.3849070">
        <ele>570.4</ele>
        <time>2022-08-28T13:28:19Z</time>
      </trkpt>
      <trkpt lat="42.3508530" lon="-8.3848760">
        <ele>571.2</ele>
        <time>2022-08-28T13:28:22Z</time>
      </trkpt>
      <trkpt lat="42.3508660" lon="-8.3848370">
        <ele>571.6</ele>
        <time>2022-08-28T13:28:25Z</time>
      </trkpt>
      <trkpt lat="42.3508970" lon="-8.3847810">
        <ele>572.6</ele>
        <time>2022-08-28T13:28:30Z</time>
      </trkpt>
      <trkpt lat="42.3509040" lon="-8.3847720">
        <ele>572.8</ele>
        <time>2022-08-28T13:28:31Z</time>
      </trkpt>
      <trkpt lat="42.3509410" lon="-8.3847360">
        <ele>573.8</ele>
        <time>2022-08-28T13:28:36Z</time>
      </trkpt>
      <trkpt lat="42.3509510" lon="-8.3847350">
        <ele>574.2</ele>
        <time>2022-08-28T13:28:37Z</time>
      </trkpt>
      <trkpt lat="42.3509610" lon="-8.3847390">
        <ele>574.4</ele>
        <time>2022-08-28T13:28:38Z</time>
      </trkpt>
      <trkpt lat="42.3509820" lon="-8.3847530">
        <ele>575.0</ele>
        <time>2022-08-28T13:28:40Z</time>
      </trkpt>
      <trkpt lat="42.3510130" lon="-8.3847890">
        <ele>576.2</ele>
        <time>2022-08-28T13:28:44Z</time>
      </trkpt>
      <trkpt lat="42.3510530" lon="-8.3848510">
        <ele>577.4</ele>
        <time>2022-08-28T13:28:50Z</time>
      </trkpt>
      <trkpt lat="42.3510660" lon="-8.3848710">
        <ele>577.8</ele>
        <time>2022-08-28T13:28:52Z</time>
      </trkpt>
      <trkpt lat="42.3510960" lon="-8.3849380">
        <ele>578.6</ele>
        <time>2022-08-28T13:28:57Z</time>
      </trkpt>
      <trkpt lat="42.3511350" lon="-8.3850210">
        <ele>579.2</ele>
        <time>2022-08-28T13:29:02Z</time>
      </trkpt>
      <trkpt lat="42.3511580" lon="-8.3850830">
        <ele>579.6</ele>
        <time>2022-08-28T13:29:05Z</time>
      </trkpt>
      <trkpt lat="42.3512000" lon="-8.3851870">
        <ele>580.4</ele>
        <time>2022-08-28T13:29:10Z</time>
      </trkpt>
      <trkpt lat="42.3512350" lon="-8.3852550">
        <ele>580.6</ele>
        <time>2022-08-28T13:29:14Z</time>
      </trkpt>
      <trkpt lat="42.3512910" lon="-8.3853660">
        <ele>581.6</ele>
        <time>2022-08-28T13:29:20Z</time>
      </trkpt>
      <trkpt lat="42.3513080" lon="-8.3854080">
        <ele>581.8</ele>
        <time>2022-08-28T13:29:22Z</time>
      </trkpt>
      <trkpt lat="42.3514160" lon="-8.3855940">
        <ele>582.6</ele>
        <time>2022-08-28T13:29:32Z</time>
      </trkpt>
      <trkpt lat="42.3515170" lon="-8.3857010">
        <ele>583.0</ele>
        <time>2022-08-28T13:29:40Z</time>
      </trkpt>
      <trkpt lat="42.3515270" lon="-8.3857130">
        <ele>583.2</ele>
        <time>2022-08-28T13:29:41Z</time>
      </trkpt>
      <trkpt lat="42.3516190" lon="-8.3857690">
        <ele>584.2</ele>
        <time>2022-08-28T13:29:49Z</time>
      </trkpt>
      <trkpt lat="42.3517050" lon="-8.3858180">
        <ele>585.2</ele>
        <time>2022-08-28T13:29:57Z</time>
      </trkpt>
      <trkpt lat="42.3517240" lon="-8.3858260">
        <ele>585.8</ele>
        <time>2022-08-28T13:29:59Z</time>
      </trkpt>
      <trkpt lat="42.3517640" lon="-8.3858470">
        <ele>586.4</ele>
        <time>2022-08-28T13:30:03Z</time>
      </trkpt>
      <trkpt lat="42.3518340" lon="-8.3858750">
        <ele>587.4</ele>
        <time>2022-08-28T13:30:10Z</time>
      </trkpt>
      <trkpt lat="42.3518980" lon="-8.3858970">
        <ele>588.4</ele>
        <time>2022-08-28T13:30:16Z</time>
      </trkpt>
      <trkpt lat="42.3519090" lon="-8.3859030">
        <ele>588.6</ele>
        <time>2022-08-28T13:30:17Z</time>
      </trkpt>
      <trkpt lat="42.3519580" lon="-8.3859270">
        <ele>589.8</ele>
        <time>2022-08-28T13:30:22Z</time>
      </trkpt>
      <trkpt lat="42.3520060" lon="-8.3859520">
        <ele>590.6</ele>
        <time>2022-08-28T13:30:27Z</time>
      </trkpt>
      <trkpt lat="42.3520280" lon="-8.3859610">
        <ele>590.8</ele>
        <time>2022-08-28T13:30:29Z</time>
      </trkpt>
      <trkpt lat="42.3520960" lon="-8.3859700">
        <ele>591.6</ele>
        <time>2022-08-28T13:30:35Z</time>
      </trkpt>
      <trkpt lat="42.3521290" lon="-8.3859820">
        <ele>592.0</ele>
        <time>2022-08-28T13:30:38Z</time>
      </trkpt>
      <trkpt lat="42.3521950" lon="-8.3860150">
        <ele>593.2</ele>
        <time>2022-08-28T13:30:44Z</time>
      </trkpt>
      <trkpt lat="42.3522270" lon="-8.3860430">
        <ele>593.6</ele>
        <time>2022-08-28T13:30:47Z</time>
      </trkpt>
      <trkpt lat="42.3522610" lon="-8.3860650">
        <ele>594.4</ele>
        <time>2022-08-28T13:30:50Z</time>
      </trkpt>
      <trkpt lat="42.3523490" lon="-8.3861010">
        <ele>595.2</ele>
        <time>2022-08-28T13:30:57Z</time>
      </trkpt>
      <trkpt lat="42.3523860" lon="-8.3861110">
        <ele>595.6</ele>
        <time>2022-08-28T13:31:00Z</time>
      </trkpt>
      <trkpt lat="42.3524470" lon="-8.3861320">
        <ele>596.6</ele>
        <time>2022-08-28T13:31:05Z</time>
      </trkpt>
      <trkpt lat="42.3525190" lon="-8.3861540">
        <ele>597.6</ele>
        <time>2022-08-28T13:31:11Z</time>
      </trkpt>
      <trkpt lat="42.3525740" lon="-8.3861600">
        <ele>598.4</ele>
        <time>2022-08-28T13:31:16Z</time>
      </trkpt>
      <trkpt lat="42.3525980" lon="-8.3861580">
        <ele>598.6</ele>
        <time>2022-08-28T13:31:18Z</time>
      </trkpt>
      <trkpt lat="42.3526680" lon="-8.3861450">
        <ele>599.4</ele>
        <time>2022-08-28T13:31:24Z</time>
      </trkpt>
      <trkpt lat="42.3526920" lon="-8.3861390">
        <ele>599.8</ele>
        <time>2022-08-28T13:31:26Z</time>
      </trkpt>
      <trkpt lat="42.3527780" lon="-8.3861120">
        <ele>601.0</ele>
        <time>2022-08-28T13:31:33Z</time>
      </trkpt>
      <trkpt lat="42.3528000" lon="-8.3861050">
        <ele>601.4</ele>
        <time>2022-08-28T13:31:35Z</time>
      </trkpt>
      <trkpt lat="42.3528690" lon="-8.3860800">
        <ele>602.2</ele>
        <time>2022-08-28T13:31:41Z</time>
      </trkpt>
      <trkpt lat="42.3529160" lon="-8.3860610">
        <ele>603.0</ele>
        <time>2022-08-28T13:31:45Z</time>
      </trkpt>
      <trkpt lat="42.3529400" lon="-8.3860510">
        <ele>603.2</ele>
        <time>2022-08-28T13:31:47Z</time>
      </trkpt>
      <trkpt lat="42.3530240" lon="-8.3860130">
        <ele>604.2</ele>
        <time>2022-08-28T13:31:54Z</time>
      </trkpt>
      <trkpt lat="42.3530460" lon="-8.3859990">
        <ele>604.6</ele>
        <time>2022-08-28T13:31:56Z</time>
      </trkpt>
      <trkpt lat="42.3531140" lon="-8.3859590">
        <ele>605.4</ele>
        <time>2022-08-28T13:32:02Z</time>
      </trkpt>
      <trkpt lat="42.3531610" lon="-8.3859300">
        <ele>606.0</ele>
        <time>2022-08-28T13:32:06Z</time>
      </trkpt>
      <trkpt lat="42.3532000" lon="-8.3859100">
        <ele>606.6</ele>
        <time>2022-08-28T13:32:09Z</time>
      </trkpt>
      <trkpt lat="42.3532810" lon="-8.3858880">
        <ele>607.4</ele>
        <time>2022-08-28T13:32:15Z</time>
      </trkpt>
      <trkpt lat="42.3533360" lon="-8.3858880">
        <ele>607.8</ele>
        <time>2022-08-28T13:32:19Z</time>
      </trkpt>
      <trkpt lat="42.3534310" lon="-8.3858950">
        <ele>608.8</ele>
        <time>2022-08-28T13:32:26Z</time>
      </trkpt>
      <trkpt lat="42.3534420" lon="-8.3858940">
        <ele>609.0</ele>
        <time>2022-08-28T13:32:27Z</time>
      </trkpt>
      <trkpt lat="42.3535170" lon="-8.3858670">
        <ele>609.8</ele>
        <time>2022-08-28T13:32:33Z</time>
      </trkpt>
      <trkpt lat="42.3535630" lon="-8.3858460">
        <ele>610.2</ele>
        <time>2022-08-28T13:32:36Z</time>
      </trkpt>
      <trkpt lat="42.3536560" lon="-8.3857890">
        <ele>611.2</ele>
        <time>2022-08-28T13:32:42Z</time>
      </trkpt>
      <trkpt lat="42.3537780" lon="-8.3856960">
        <ele>612.2</ele>
        <time>2022-08-28T13:32:50Z</time>
      </trkpt>
      <trkpt lat="42.3538310" lon="-8.3856570">
        <ele>612.6</ele>
        <time>2022-08-28T13:32:53Z</time>
      </trkpt>
      <trkpt lat="42.3539500" lon="-8.3855940">
        <ele>613.2</ele>
        <time>2022-08-28T13:32:59Z</time>
      </trkpt>
      <trkpt lat="42.3539860" lon="-8.3855720">
        <ele>613.4</ele>
        <time>2022-08-28T13:33:01Z</time>
      </trkpt>
      <trkpt lat="42.3541270" lon="-8.3855000">
        <ele>614.6</ele>
        <time>2022-08-28T13:33:08Z</time>
      </trkpt>
      <trkpt lat="42.3541470" lon="-8.3854920">
        <ele>614.8</ele>
        <time>2022-08-28T13:33:09Z</time>
      </trkpt>
      <trkpt lat="42.3543290" lon="-8.3854430">
        <ele>615.6</ele>
        <time>2022-08-28T13:33:18Z</time>
      </trkpt>
      <trkpt lat="42.3543490" lon="-8.3854400">
        <ele>615.8</ele>
        <time>2022-08-28T13:33:19Z</time>
      </trkpt>
      <trkpt lat="42.3545160" lon="-8.3854270">
        <ele>616.6</ele>
        <time>2022-08-28T13:33:27Z</time>
      </trkpt>
      <trkpt lat="42.3545370" lon="-8.3854240">
        <ele>616.8</ele>
        <time>2022-08-28T13:33:28Z</time>
      </trkpt>
      <trkpt lat="42.3547270" lon="-8.3854050">
        <ele>617.8</ele>
        <time>2022-08-28T13:33:37Z</time>
      </trkpt>
      <trkpt lat="42.3547480" lon="-8.3854040">
        <ele>617.8</ele>
        <time>2022-08-28T13:33:38Z</time>
      </trkpt>
      <trkpt lat="42.3548900" lon="-8.3853880">
        <ele>619.0</ele>
        <time>2022-08-28T13:33:45Z</time>
      </trkpt>
      <trkpt lat="42.3549510" lon="-8.3853860">
        <ele>619.2</ele>
        <time>2022-08-28T13:33:48Z</time>
      </trkpt>
      <trkpt lat="42.3551330" lon="-8.3853720">
        <ele>620.0</ele>
        <time>2022-08-28T13:33:58Z</time>
      </trkpt>
      <trkpt lat="42.3552790" lon="-8.3853610">
        <ele>621.4</ele>
        <time>2022-08-28T13:34:07Z</time>
      </trkpt>
      <trkpt lat="42.3552950" lon="-8.3853580">
        <ele>621.4</ele>
        <time>2022-08-28T13:34:08Z</time>
      </trkpt>
      <trkpt lat="42.3554170" lon="-8.3853520">
        <ele>622.4</ele>
        <time>2022-08-28T13:34:16Z</time>
      </trkpt>
      <trkpt lat="42.3554650" lon="-8.3853540">
        <ele>623.0</ele>
        <time>2022-08-28T13:34:19Z</time>
      </trkpt>
      <trkpt lat="42.3554820" lon="-8.3853540">
        <ele>623.2</ele>
        <time>2022-08-28T13:34:20Z</time>
      </trkpt>
      <trkpt lat="42.3555270" lon="-8.3853480">
        <ele>623.6</ele>
        <time>2022-08-28T13:34:23Z</time>
      </trkpt>
      <trkpt lat="42.3556050" lon="-8.3853430">
        <ele>624.2</ele>
        <time>2022-08-28T13:34:28Z</time>
      </trkpt>
      <trkpt lat="42.3556540" lon="-8.3853410">
        <ele>624.6</ele>
        <time>2022-08-28T13:34:31Z</time>
      </trkpt>
      <trkpt lat="42.3557430" lon="-8.3853360">
        <ele>625.4</ele>
        <time>2022-08-28T13:34:37Z</time>
      </trkpt>
      <trkpt lat="42.3557730" lon="-8.3853360">
        <ele>625.6</ele>
        <time>2022-08-28T13:34:39Z</time>
      </trkpt>
      <trkpt lat="42.3558870" lon="-8.3853270">
        <ele>626.8</ele>
        <time>2022-08-28T13:34:47Z</time>
      </trkpt>
      <trkpt lat="42.3559800" lon="-8.3853180">
        <ele>627.8</ele>
        <time>2022-08-28T13:34:54Z</time>
      </trkpt>
      <trkpt lat="42.3560200" lon="-8.3853080">
        <ele>628.2</ele>
        <time>2022-08-28T13:34:57Z</time>
      </trkpt>
      <trkpt lat="42.3560650" lon="-8.3853040">
        <ele>628.8</ele>
        <time>2022-08-28T13:35:01Z</time>
      </trkpt>
      <trkpt lat="42.3561170" lon="-8.3853200">
        <ele>629.6</ele>
        <time>2022-08-28T13:35:05Z</time>
      </trkpt>
      <trkpt lat="42.3561440" lon="-8.3853250">
        <ele>630.0</ele>
        <time>2022-08-28T13:35:07Z</time>
      </trkpt>
      <trkpt lat="42.3562250" lon="-8.3853190">
        <ele>631.0</ele>
        <time>2022-08-28T13:35:14Z</time>
      </trkpt>
      <trkpt lat="42.3562360" lon="-8.3853180">
        <ele>631.2</ele>
        <time>2022-08-28T13:35:15Z</time>
      </trkpt>
      <trkpt lat="42.3563050" lon="-8.3853180">
        <ele>632.4</ele>
        <time>2022-08-28T13:35:21Z</time>
      </trkpt>
      <trkpt lat="42.3563290" lon="-8.3853190">
        <ele>632.6</ele>
        <time>2022-08-28T13:35:23Z</time>
      </trkpt>
      <trkpt lat="42.3563760" lon="-8.3853210">
        <ele>633.4</ele>
        <time>2022-08-28T13:35:27Z</time>
      </trkpt>
      <trkpt lat="42.3564480" lon="-8.3853180">
        <ele>634.6</ele>
        <time>2022-08-28T13:35:33Z</time>
      </trkpt>
      <trkpt lat="42.3565250" lon="-8.3852920">
        <ele>635.8</ele>
        <time>2022-08-28T13:35:40Z</time>
      </trkpt>
      <trkpt lat="42.3565490" lon="-8.3852880">
        <ele>636.0</ele>
        <time>2022-08-28T13:35:42Z</time>
      </trkpt>
      <trkpt lat="42.3566110" lon="-8.3852850">
        <ele>636.8</ele>
        <time>2022-08-28T13:35:47Z</time>
      </trkpt>
      <trkpt lat="42.3566610" lon="-8.3852730">
        <ele>637.6</ele>
        <time>2022-08-28T13:35:51Z</time>
      </trkpt>
      <trkpt lat="42.3566840" lon="-8.3852720">
        <ele>637.8</ele>
        <time>2022-08-28T13:35:53Z</time>
      </trkpt>
      <trkpt lat="42.3567800" lon="-8.3852510">
        <ele>639.0</ele>
        <time>2022-08-28T13:36:01Z</time>
      </trkpt>
      <trkpt lat="42.3568570" lon="-8.3852110">
        <ele>639.8</ele>
        <time>2022-08-28T13:36:08Z</time>
      </trkpt>
      <trkpt lat="42.3568690" lon="-8.3852060">
        <ele>640.0</ele>
        <time>2022-08-28T13:36:09Z</time>
      </trkpt>
      <trkpt lat="42.3569190" lon="-8.3851790">
        <ele>641.0</ele>
        <time>2022-08-28T13:36:14Z</time>
      </trkpt>
      <trkpt lat="42.3569800" lon="-8.3851460">
        <ele>642.0</ele>
        <time>2022-08-28T13:36:20Z</time>
      </trkpt>
      <trkpt lat="42.3569920" lon="-8.3851430">
        <ele>642.0</ele>
        <time>2022-08-28T13:36:21Z</time>
      </trkpt>
      <trkpt lat="42.3570820" lon="-8.3851050">
        <ele>643.0</ele>
        <time>2022-08-28T13:36:29Z</time>
      </trkpt>
      <trkpt lat="42.3570940" lon="-8.3850990">
        <ele>643.0</ele>
        <time>2022-08-28T13:36:30Z</time>
      </trkpt>
      <trkpt lat="42.3571690" lon="-8.3850520">
        <ele>644.2</ele>
        <time>2022-08-28T13:36:36Z</time>
      </trkpt>
      <trkpt lat="42.3572450" lon="-8.3850150">
        <ele>645.4</ele>
        <time>2022-08-28T13:36:42Z</time>
      </trkpt>
      <trkpt lat="42.3572710" lon="-8.3850030">
        <ele>645.8</ele>
        <time>2022-08-28T13:36:44Z</time>
      </trkpt>
      <trkpt lat="42.3573050" lon="-8.3849750">
        <ele>646.4</ele>
        <time>2022-08-28T13:36:47Z</time>
      </trkpt>
      <trkpt lat="42.3573630" lon="-8.3849270">
        <ele>647.6</ele>
        <time>2022-08-28T13:36:53Z</time>
      </trkpt>
      <trkpt lat="42.3574510" lon="-8.3848800">
        <ele>648.8</ele>
        <time>2022-08-28T13:37:01Z</time>
      </trkpt>
      <trkpt lat="42.3575300" lon="-8.3848280">
        <ele>649.8</ele>
        <time>2022-08-28T13:37:08Z</time>
      </trkpt>
      <trkpt lat="42.3575420" lon="-8.3848210">
        <ele>650.0</ele>
        <time>2022-08-28T13:37:09Z</time>
      </trkpt>
      <trkpt lat="42.3576130" lon="-8.3847560">
        <ele>651.0</ele>
        <time>2022-08-28T13:37:16Z</time>
      </trkpt>
      <trkpt lat="42.3576520" lon="-8.3847180">
        <ele>651.6</ele>
        <time>2022-08-28T13:37:20Z</time>
      </trkpt>
      <trkpt lat="42.3576890" lon="-8.3846820">
        <ele>652.0</ele>
        <time>2022-08-28T13:37:24Z</time>
      </trkpt>
      <trkpt lat="42.3577190" lon="-8.3846300">
        <ele>652.6</ele>
        <time>2022-08-28T13:37:28Z</time>
      </trkpt>
      <trkpt lat="42.3577310" lon="-8.3845920">
        <ele>653.4</ele>
        <time>2022-08-28T13:37:31Z</time>
      </trkpt>
      <trkpt lat="42.3577690" lon="-8.3845270">
        <ele>654.0</ele>
        <time>2022-08-28T13:37:36Z</time>
      </trkpt>
      <trkpt lat="42.3577840" lon="-8.3845030">
        <ele>654.4</ele>
        <time>2022-08-28T13:37:38Z</time>
      </trkpt>
      <trkpt lat="42.3577900" lon="-8.3844900">
        <ele>654.6</ele>
        <time>2022-08-28T13:37:39Z</time>
      </trkpt>
      <trkpt lat="42.3578000" lon="-8.3844240">
        <ele>655.4</ele>
        <time>2022-08-28T13:37:43Z</time>
      </trkpt>
      <trkpt lat="42.3578010" lon="-8.3844090">
        <ele>655.4</ele>
        <time>2022-08-28T13:37:44Z</time>
      </trkpt>
      <trkpt lat="42.3578170" lon="-8.3842880">
        <ele>656.6</ele>
        <time>2022-08-28T13:37:52Z</time>
      </trkpt>
      <trkpt lat="42.3578170" lon="-8.3842720">
        <ele>656.8</ele>
        <time>2022-08-28T13:37:53Z</time>
      </trkpt>
      <trkpt lat="42.3578200" lon="-8.3841580">
        <ele>657.8</ele>
        <time>2022-08-28T13:38:00Z</time>
      </trkpt>
      <trkpt lat="42.3578200" lon="-8.3841280">
        <ele>658.0</ele>
        <time>2022-08-28T13:38:02Z</time>
      </trkpt>
      <trkpt lat="42.3578290" lon="-8.3840350">
        <ele>658.8</ele>
        <time>2022-08-28T13:38:08Z</time>
      </trkpt>
      <trkpt lat="42.3578330" lon="-8.3839850">
        <ele>659.2</ele>
        <time>2022-08-28T13:38:11Z</time>
      </trkpt>
      <trkpt lat="42.3578410" lon="-8.3839070">
        <ele>660.0</ele>
        <time>2022-08-28T13:38:16Z</time>
      </trkpt>
      <trkpt lat="42.3578490" lon="-8.3838460">
        <ele>660.6</ele>
        <time>2022-08-28T13:38:20Z</time>
      </trkpt>
      <trkpt lat="42.3578520" lon="-8.3838140">
        <ele>661.0</ele>
        <time>2022-08-28T13:38:22Z</time>
      </trkpt>
      <trkpt lat="42.3578540" lon="-8.3837150">
        <ele>662.2</ele>
        <time>2022-08-28T13:38:29Z</time>
      </trkpt>
      <trkpt lat="42.3578540" lon="-8.3837000">
        <ele>662.2</ele>
        <time>2022-08-28T13:38:30Z</time>
      </trkpt>
      <trkpt lat="42.3578460" lon="-8.3836070">
        <ele>663.4</ele>
        <time>2022-08-28T13:38:36Z</time>
      </trkpt>
      <trkpt lat="42.3578420" lon="-8.3835750">
        <ele>663.8</ele>
        <time>2022-08-28T13:38:38Z</time>
      </trkpt>
      <trkpt lat="42.3578220" lon="-8.3835150">
        <ele>664.4</ele>
        <time>2022-08-28T13:38:42Z</time>
      </trkpt>
      <trkpt lat="42.3577840" lon="-8.3834560">
        <ele>664.8</ele>
        <time>2022-08-28T13:38:47Z</time>
      </trkpt>
      <trkpt lat="42.3577170" lon="-8.3834050">
        <ele>665.4</ele>
        <time>2022-08-28T13:38:53Z</time>
      </trkpt>
      <trkpt lat="42.3576640" lon="-8.3833950">
        <ele>666.0</ele>
        <time>2022-08-28T13:38:57Z</time>
      </trkpt>
      <trkpt lat="42.3576380" lon="-8.3833970">
        <ele>666.6</ele>
        <time>2022-08-28T13:38:59Z</time>
      </trkpt>
      <trkpt lat="42.3575590" lon="-8.3833840">
        <ele>667.6</ele>
        <time>2022-08-28T13:39:05Z</time>
      </trkpt>
      <trkpt lat="42.3574910" lon="-8.3833050">
        <ele>668.4</ele>
        <time>2022-08-28T13:39:12Z</time>
      </trkpt>
      <trkpt lat="42.3574690" lon="-8.3832750">
        <ele>668.6</ele>
        <time>2022-08-28T13:39:14Z</time>
      </trkpt>
      <trkpt lat="42.3574290" lon="-8.3831830">
        <ele>669.4</ele>
        <time>2022-08-28T13:39:19Z</time>
      </trkpt>
      <trkpt lat="42.3574120" lon="-8.3831480">
        <ele>669.8</ele>
        <time>2022-08-28T13:39:21Z</time>
      </trkpt>
      <trkpt lat="42.3573660" lon="-8.3830380">
        <ele>670.6</ele>
        <time>2022-08-28T13:39:27Z</time>
      </trkpt>
      <trkpt lat="42.3573610" lon="-8.3830010">
        <ele>670.8</ele>
        <time>2022-08-28T13:39:29Z</time>
      </trkpt>
      <trkpt lat="42.3573520" lon="-8.3828800">
        <ele>671.6</ele>
        <time>2022-08-28T13:39:34Z</time>
      </trkpt>
      <trkpt lat="42.3573490" lon="-8.3828180">
        <ele>671.8</ele>
        <time>2022-08-28T13:39:36Z</time>
      </trkpt>
      <trkpt lat="42.3573500" lon="-8.3826950">
        <ele>671.8</ele>
        <time>2022-08-28T13:39:39Z</time>
      </trkpt>
      <trkpt lat="42.3573560" lon="-8.3826090">
        <ele>671.8</ele>
        <time>2022-08-28T13:39:43Z</time>
      </trkpt>
      <trkpt lat="42.3573660" lon="-8.3825980">
        <ele>671.4</ele>
        <time>2022-08-28T13:39:47Z</time>
      </trkpt>
      <trkpt lat="42.3574260" lon="-8.3826200">
        <ele>669.0</ele>
        <time>2022-08-28T13:44:23Z</time>
      </trkpt>
      <trkpt lat="42.3574480" lon="-8.3826180">
        <ele>669.0</ele>
        <time>2022-08-28T13:44:24Z</time>
      </trkpt>
      <trkpt lat="42.3575160" lon="-8.3826670">
        <ele>669.0</ele>
        <time>2022-08-28T13:44:28Z</time>
      </trkpt>
      <trkpt lat="42.3576670" lon="-8.3827490">
        <ele>669.0</ele>
        <time>2022-08-28T13:44:34Z</time>
      </trkpt>
      <trkpt lat="42.3577940" lon="-8.3827360">
        <ele>669.0</ele>
        <time>2022-08-28T13:44:37Z</time>
      </trkpt>
      <trkpt lat="42.3578390" lon="-8.3827590">
        <ele>668.8</ele>
        <time>2022-08-28T13:44:38Z</time>
      </trkpt>
      <trkpt lat="42.3579730" lon="-8.3828830">
        <ele>668.6</ele>
        <time>2022-08-28T13:44:42Z</time>
      </trkpt>
      <trkpt lat="42.3580310" lon="-8.3829210">
        <ele>668.0</ele>
        <time>2022-08-28T13:44:44Z</time>
      </trkpt>
      <trkpt lat="42.3581370" lon="-8.3829530">
        <ele>667.6</ele>
        <time>2022-08-28T13:44:48Z</time>
      </trkpt>
      <trkpt lat="42.3583320" lon="-8.3829650">
        <ele>667.6</ele>
        <time>2022-08-28T13:44:56Z</time>
      </trkpt>
      <trkpt lat="42.3584510" lon="-8.3829340">
        <ele>667.8</ele>
        <time>2022-08-28T13:45:01Z</time>
      </trkpt>
      <trkpt lat="42.3585600" lon="-8.3828580">
        <ele>667.8</ele>
        <time>2022-08-28T13:45:06Z</time>
      </trkpt>
      <trkpt lat="42.3586590" lon="-8.3827520">
        <ele>667.8</ele>
        <time>2022-08-28T13:45:11Z</time>
      </trkpt>
      <trkpt lat="42.3587400" lon="-8.3827830">
        <ele>667.6</ele>
        <time>2022-08-28T13:45:17Z</time>
      </trkpt>
      <trkpt lat="42.3587970" lon="-8.3828180">
        <ele>667.6</ele>
        <time>2022-08-28T13:45:21Z</time>
      </trkpt>
      <trkpt lat="42.3588540" lon="-8.3828430">
        <ele>667.8</ele>
        <time>2022-08-28T13:45:25Z</time>
      </trkpt>
      <trkpt lat="42.3589730" lon="-8.3829010">
        <ele>668.8</ele>
        <time>2022-08-28T13:45:34Z</time>
      </trkpt>
      <trkpt lat="42.3590820" lon="-8.3829590">
        <ele>669.2</ele>
        <time>2022-08-28T13:45:42Z</time>
      </trkpt>
      <trkpt lat="42.3591090" lon="-8.3829760">
        <ele>669.2</ele>
        <time>2022-08-28T13:45:44Z</time>
      </trkpt>
      <trkpt lat="42.3592490" lon="-8.3830880">
        <ele>670.2</ele>
        <time>2022-08-28T13:45:53Z</time>
      </trkpt>
      <trkpt lat="42.3593610" lon="-8.3832100">
        <ele>670.4</ele>
        <time>2022-08-28T13:46:01Z</time>
      </trkpt>
      <trkpt lat="42.3594370" lon="-8.3832920">
        <ele>670.8</ele>
        <time>2022-08-28T13:46:07Z</time>
      </trkpt>
      <trkpt lat="42.3595380" lon="-8.3833890">
        <ele>671.2</ele>
        <time>2022-08-28T13:46:15Z</time>
      </trkpt>
      <trkpt lat="42.3596240" lon="-8.3834680">
        <ele>671.8</ele>
        <time>2022-08-28T13:46:23Z</time>
      </trkpt>
      <trkpt lat="42.3597020" lon="-8.3835390">
        <ele>672.2</ele>
        <time>2022-08-28T13:46:29Z</time>
      </trkpt>
      <trkpt lat="42.3597520" lon="-8.3835820">
        <ele>672.4</ele>
        <time>2022-08-28T13:46:33Z</time>
      </trkpt>
      <trkpt lat="42.3598580" lon="-8.3836680">
        <ele>673.2</ele>
        <time>2022-08-28T13:46:41Z</time>
      </trkpt>
      <trkpt lat="42.3598700" lon="-8.3836750">
        <ele>673.4</ele>
        <time>2022-08-28T13:46:42Z</time>
      </trkpt>
      <trkpt lat="42.3599440" lon="-8.3837190">
        <ele>674.2</ele>
        <time>2022-08-28T13:46:48Z</time>
      </trkpt>
      <trkpt lat="42.3599990" lon="-8.3837460">
        <ele>674.4</ele>
        <time>2022-08-28T13:46:52Z</time>
      </trkpt>
      <trkpt lat="42.3600780" lon="-8.3837760">
        <ele>675.0</ele>
        <time>2022-08-28T13:46:58Z</time>
      </trkpt>
      <trkpt lat="42.3601410" lon="-8.3837750">
        <ele>675.4</ele>
        <time>2022-08-28T13:47:03Z</time>
      </trkpt>
      <trkpt lat="42.3601840" lon="-8.3837720">
        <ele>675.6</ele>
        <time>2022-08-28T13:47:06Z</time>
      </trkpt>
      <trkpt lat="42.3602790" lon="-8.3837850">
        <ele>676.4</ele>
        <time>2022-08-28T13:47:13Z</time>
      </trkpt>
      <trkpt lat="42.3602910" lon="-8.3837840">
        <ele>676.6</ele>
        <time>2022-08-28T13:47:14Z</time>
      </trkpt>
      <trkpt lat="42.3603310" lon="-8.3837870">
        <ele>677.6</ele>
        <time>2022-08-28T13:47:17Z</time>
      </trkpt>
      <trkpt lat="42.3603940" lon="-8.3837880">
        <ele>678.0</ele>
        <time>2022-08-28T13:47:22Z</time>
      </trkpt>
      <trkpt lat="42.3604660" lon="-8.3837840">
        <ele>678.6</ele>
        <time>2022-08-28T13:47:29Z</time>
      </trkpt>
      <trkpt lat="42.3605290" lon="-8.3837900">
        <ele>679.4</ele>
        <time>2022-08-28T13:47:36Z</time>
      </trkpt>
      <trkpt lat="42.3605660" lon="-8.3837970">
        <ele>679.6</ele>
        <time>2022-08-28T13:47:39Z</time>
      </trkpt>
      <trkpt lat="42.3606180" lon="-8.3837970">
        <ele>679.8</ele>
        <time>2022-08-28T13:47:43Z</time>
      </trkpt>
      <trkpt lat="42.3607090" lon="-8.3837820">
        <ele>680.6</ele>
        <time>2022-08-28T13:47:50Z</time>
      </trkpt>
      <trkpt lat="42.3607580" lon="-8.3837850">
        <ele>681.4</ele>
        <time>2022-08-28T13:47:54Z</time>
      </trkpt>
      <trkpt lat="42.3607950" lon="-8.3837800">
        <ele>681.8</ele>
        <time>2022-08-28T13:47:57Z</time>
      </trkpt>
      <trkpt lat="42.3608440" lon="-8.3837740">
        <ele>682.4</ele>
        <time>2022-08-28T13:48:01Z</time>
      </trkpt>
      <trkpt lat="42.3608910" lon="-8.3837810">
        <ele>683.0</ele>
        <time>2022-08-28T13:48:05Z</time>
      </trkpt>
      <trkpt lat="42.3609360" lon="-8.3837810">
        <ele>683.6</ele>
        <time>2022-08-28T13:48:09Z</time>
      </trkpt>
      <trkpt lat="42.3609680" lon="-8.3837790">
        <ele>684.2</ele>
        <time>2022-08-28T13:48:12Z</time>
      </trkpt>
      <trkpt lat="42.3610270" lon="-8.3837810">
        <ele>685.0</ele>
        <time>2022-08-28T13:48:16Z</time>
      </trkpt>
      <trkpt lat="42.3610540" lon="-8.3837800">
        <ele>685.4</ele>
        <time>2022-08-28T13:48:18Z</time>
      </trkpt>
      <trkpt lat="42.3611320" lon="-8.3837760">
        <ele>686.0</ele>
        <time>2022-08-28T13:48:23Z</time>
      </trkpt>
      <trkpt lat="42.3611780" lon="-8.3837790">
        <ele>686.4</ele>
        <time>2022-08-28T13:48:26Z</time>
      </trkpt>
      <trkpt lat="42.3612400" lon="-8.3837880">
        <ele>687.0</ele>
        <time>2022-08-28T13:48:31Z</time>
      </trkpt>
      <trkpt lat="42.3612410" lon="-8.3837900">
        <ele>687.0</ele>
        <time>2022-08-28T13:48:32Z</time>
      </trkpt>
      <trkpt lat="42.3612800" lon="-8.3837780">
        <ele>687.0</ele>
        <time>2022-08-28T13:48:38Z</time>
      </trkpt>
      <trkpt lat="42.3612960" lon="-8.3837690">
        <ele>687.0</ele>
        <time>2022-08-28T13:48:39Z</time>
      </trkpt>
      <trkpt lat="42.3613100" lon="-8.3837540">
        <ele>687.0</ele>
        <time>2022-08-28T13:48:40Z</time>
      </trkpt>
      <trkpt lat="42.3613600" lon="-8.3837020">
        <ele>687.2</ele>
        <time>2022-08-28T13:48:44Z</time>
      </trkpt>
      <trkpt lat="42.3613960" lon="-8.3836390">
        <ele>687.4</ele>
        <time>2022-08-28T13:48:47Z</time>
      </trkpt>
      <trkpt lat="42.3614200" lon="-8.3835860">
        <ele>687.4</ele>
        <time>2022-08-28T13:48:49Z</time>
      </trkpt>
      <trkpt lat="42.3615030" lon="-8.3833570">
        <ele>688.2</ele>
        <time>2022-08-28T13:48:58Z</time>
      </trkpt>
      <trkpt lat="42.3615200" lon="-8.3833100">
        <ele>688.4</ele>
        <time>2022-08-28T13:49:00Z</time>
      </trkpt>
      <trkpt lat="42.3615400" lon="-8.3832790">
        <ele>688.6</ele>
        <time>2022-08-28T13:49:02Z</time>
      </trkpt>
      <trkpt lat="42.3615560" lon="-8.3832780">
        <ele>688.8</ele>
        <time>2022-08-28T13:49:03Z</time>
      </trkpt>
      <trkpt lat="42.3616320" lon="-8.3833450">
        <ele>689.2</ele>
        <time>2022-08-28T13:49:08Z</time>
      </trkpt>
      <trkpt lat="42.3616980" lon="-8.3834520">
        <ele>689.2</ele>
        <time>2022-08-28T13:49:15Z</time>
      </trkpt>
      <trkpt lat="42.3617390" lon="-8.3835250">
        <ele>689.0</ele>
        <time>2022-08-28T13:49:22Z</time>
      </trkpt>
      <trkpt lat="42.3618000" lon="-8.3836490">
        <ele>688.6</ele>
        <time>2022-08-28T13:49:27Z</time>
      </trkpt>
      <trkpt lat="42.3619060" lon="-8.3838820">
        <ele>687.6</ele>
        <time>2022-08-28T13:49:32Z</time>
      </trkpt>
      <trkpt lat="42.3619330" lon="-8.3839220">
        <ele>687.4</ele>
        <time>2022-08-28T13:49:33Z</time>
      </trkpt>
      <trkpt lat="42.3620680" lon="-8.3841060">
        <ele>686.2</ele>
        <time>2022-08-28T13:49:38Z</time>
      </trkpt>
      <trkpt lat="42.3621750" lon="-8.3842000">
        <ele>685.2</ele>
        <time>2022-08-28T13:49:42Z</time>
      </trkpt>
      <trkpt lat="42.3622570" lon="-8.3842400">
        <ele>685.0</ele>
        <time>2022-08-28T13:49:45Z</time>
      </trkpt>
      <trkpt lat="42.3623530" lon="-8.3842660">
        <ele>684.6</ele>
        <time>2022-08-28T13:49:50Z</time>
      </trkpt>
      <trkpt lat="42.3624310" lon="-8.3842970">
        <ele>684.4</ele>
        <time>2022-08-28T13:49:56Z</time>
      </trkpt>
      <trkpt lat="42.3624370" lon="-8.3843460">
        <ele>684.4</ele>
        <time>2022-08-28T13:50:03Z</time>
      </trkpt>
      <trkpt lat="42.3624340" lon="-8.3843620">
        <ele>684.4</ele>
        <time>2022-08-28T13:50:04Z</time>
      </trkpt>
      <trkpt lat="42.3624130" lon="-8.3844700">
        <ele>684.4</ele>
        <time>2022-08-28T13:50:09Z</time>
      </trkpt>
      <trkpt lat="42.3624160" lon="-8.3846630">
        <ele>684.4</ele>
        <time>2022-08-28T13:50:16Z</time>
      </trkpt>
      <trkpt lat="42.3624720" lon="-8.3848350">
        <ele>684.6</ele>
        <time>2022-08-28T13:50:22Z</time>
      </trkpt>
      <trkpt lat="42.3625710" lon="-8.3850000">
        <ele>684.8</ele>
        <time>2022-08-28T13:50:28Z</time>
      </trkpt>
      <trkpt lat="42.3627070" lon="-8.3851620">
        <ele>685.0</ele>
        <time>2022-08-28T13:50:35Z</time>
      </trkpt>
      <trkpt lat="42.3628690" lon="-8.3853160">
        <ele>685.4</ele>
        <time>2022-08-28T13:50:42Z</time>
      </trkpt>
      <trkpt lat="42.3630130" lon="-8.3853940">
        <ele>685.4</ele>
        <time>2022-08-28T13:50:48Z</time>
      </trkpt>
      <trkpt lat="42.3631240" lon="-8.3854380">
        <ele>685.6</ele>
        <time>2022-08-28T13:50:55Z</time>
      </trkpt>
      <trkpt lat="42.3631900" lon="-8.3854530">
        <ele>686.2</ele>
        <time>2022-08-28T13:50:59Z</time>
      </trkpt>
      <trkpt lat="42.3632570" lon="-8.3854640">
        <ele>686.8</ele>
        <time>2022-08-28T13:51:03Z</time>
      </trkpt>
      <trkpt lat="42.3633050" lon="-8.3854710">
        <ele>687.2</ele>
        <time>2022-08-28T13:51:06Z</time>
      </trkpt>
      <trkpt lat="42.3633660" lon="-8.3854920">
        <ele>688.0</ele>
        <time>2022-08-28T13:51:11Z</time>
      </trkpt>
      <trkpt lat="42.3633930" lon="-8.3855010">
        <ele>688.2</ele>
        <time>2022-08-28T13:51:13Z</time>
      </trkpt>
      <trkpt lat="42.3634590" lon="-8.3855230">
        <ele>688.8</ele>
        <time>2022-08-28T13:51:18Z</time>
      </trkpt>
      <trkpt lat="42.3635130" lon="-8.3855410">
        <ele>689.2</ele>
        <time>2022-08-28T13:51:22Z</time>
      </trkpt>
      <trkpt lat="42.3636090" lon="-8.3855620">
        <ele>690.4</ele>
        <time>2022-08-28T13:51:29Z</time>
      </trkpt>
      <trkpt lat="42.3636960" lon="-8.3855790">
        <ele>691.6</ele>
        <time>2022-08-28T13:51:35Z</time>
      </trkpt>
      <trkpt lat="42.3637260" lon="-8.3855790">
        <ele>691.6</ele>
        <time>2022-08-28T13:51:37Z</time>
      </trkpt>
      <trkpt lat="42.3638500" lon="-8.3855730">
        <ele>692.4</ele>
        <time>2022-08-28T13:51:45Z</time>
      </trkpt>
      <trkpt lat="42.3638830" lon="-8.3855690">
        <ele>692.6</ele>
        <time>2022-08-28T13:51:47Z</time>
      </trkpt>
      <trkpt lat="42.3639800" lon="-8.3855710">
        <ele>693.4</ele>
        <time>2022-08-28T13:51:53Z</time>
      </trkpt>
      <trkpt lat="42.3640110" lon="-8.3855710">
        <ele>693.6</ele>
        <time>2022-08-28T13:51:55Z</time>
      </trkpt>
      <trkpt lat="42.3640770" lon="-8.3855680">
        <ele>694.6</ele>
        <time>2022-08-28T13:52:00Z</time>
      </trkpt>
      <trkpt lat="42.3640920" lon="-8.3855680">
        <ele>694.8</ele>
        <time>2022-08-28T13:52:01Z</time>
      </trkpt>
      <trkpt lat="42.3641840" lon="-8.3855620">
        <ele>695.8</ele>
        <time>2022-08-28T13:52:08Z</time>
      </trkpt>
      <trkpt lat="42.3642100" lon="-8.3855570">
        <ele>696.2</ele>
        <time>2022-08-28T13:52:10Z</time>
      </trkpt>
      <trkpt lat="42.3642760" lon="-8.3855500">
        <ele>696.8</ele>
        <time>2022-08-28T13:52:14Z</time>
      </trkpt>
      <trkpt lat="42.3643040" lon="-8.3855510">
        <ele>697.2</ele>
        <time>2022-08-28T13:52:16Z</time>
      </trkpt>
      <trkpt lat="42.3643890" lon="-8.3855470">
        <ele>698.0</ele>
        <time>2022-08-28T13:52:22Z</time>
      </trkpt>
      <trkpt lat="42.3644180" lon="-8.3855460">
        <ele>698.2</ele>
        <time>2022-08-28T13:52:24Z</time>
      </trkpt>
      <trkpt lat="42.3644980" lon="-8.3855490">
        <ele>699.0</ele>
        <time>2022-08-28T13:52:30Z</time>
      </trkpt>
      <trkpt lat="42.3645220" lon="-8.3855480">
        <ele>699.2</ele>
        <time>2022-08-28T13:52:32Z</time>
      </trkpt>
      <trkpt lat="42.3646110" lon="-8.3855540">
        <ele>700.2</ele>
        <time>2022-08-28T13:52:38Z</time>
      </trkpt>
      <trkpt lat="42.3646250" lon="-8.3855540">
        <ele>700.4</ele>
        <time>2022-08-28T13:52:39Z</time>
      </trkpt>
      <trkpt lat="42.3647520" lon="-8.3855600">
        <ele>701.2</ele>
        <time>2022-08-28T13:52:47Z</time>
      </trkpt>
      <trkpt lat="42.3648950" lon="-8.3855670">
        <ele>702.0</ele>
        <time>2022-08-28T13:52:56Z</time>
      </trkpt>
      <trkpt lat="42.3649070" lon="-8.3855670">
        <ele>702.0</ele>
        <time>2022-08-28T13:52:57Z</time>
      </trkpt>
      <trkpt lat="42.3650020" lon="-8.3855740">
        <ele>703.2</ele>
        <time>2022-08-28T13:53:04Z</time>
      </trkpt>
      <trkpt lat="42.3650820" lon="-8.3856100">
        <ele>704.0</ele>
        <time>2022-08-28T13:53:10Z</time>
      </trkpt>
      <trkpt lat="42.3651010" lon="-8.3856450">
        <ele>704.0</ele>
        <time>2022-08-28T13:53:12Z</time>
      </trkpt>
      <trkpt lat="42.3650990" lon="-8.3857370">
        <ele>704.2</ele>
        <time>2022-08-28T13:53:15Z</time>
      </trkpt>
      <trkpt lat="42.3650590" lon="-8.3859100">
        <ele>704.2</ele>
        <time>2022-08-28T13:53:20Z</time>
      </trkpt>
      <trkpt lat="42.3650560" lon="-8.3860800">
        <ele>703.0</ele>
        <time>2022-08-28T13:53:25Z</time>
      </trkpt>
      <trkpt lat="42.3650570" lon="-8.3861560">
        <ele>702.0</ele>
        <time>2022-08-28T13:53:28Z</time>
      </trkpt>
      <trkpt lat="42.3650500" lon="-8.3862050">
        <ele>700.8</ele>
        <time>2022-08-28T13:53:31Z</time>
      </trkpt>
      <trkpt lat="42.3650480" lon="-8.3862070">
        <ele>700.2</ele>
        <time>2022-08-28T13:53:32Z</time>
      </trkpt>
      <trkpt lat="42.3649110" lon="-8.3864330">
        <ele>693.6</ele>
        <time>2022-08-28T13:54:01Z</time>
      </trkpt>
      <trkpt lat="42.3648610" lon="-8.3864810">
        <ele>693.2</ele>
        <time>2022-08-28T13:54:03Z</time>
      </trkpt>
      <trkpt lat="42.3646880" lon="-8.3866340">
        <ele>693.2</ele>
        <time>2022-08-28T13:54:07Z</time>
      </trkpt>
      <trkpt lat="42.3645300" lon="-8.3867570">
        <ele>692.2</ele>
        <time>2022-08-28T13:54:10Z</time>
      </trkpt>
      <trkpt lat="42.3644260" lon="-8.3868200">
        <ele>691.4</ele>
        <time>2022-08-28T13:54:12Z</time>
      </trkpt>
      <trkpt lat="42.3643730" lon="-8.3868500">
        <ele>690.4</ele>
        <time>2022-08-28T13:54:13Z</time>
      </trkpt>
      <trkpt lat="42.3642720" lon="-8.3869050">
        <ele>689.0</ele>
        <time>2022-08-28T13:54:15Z</time>
      </trkpt>
      <trkpt lat="42.3641430" lon="-8.3869880">
        <ele>688.0</ele>
        <time>2022-08-28T13:54:18Z</time>
      </trkpt>
      <trkpt lat="42.3641120" lon="-8.3870150">
        <ele>687.8</ele>
        <time>2022-08-28T13:54:19Z</time>
      </trkpt>
      <trkpt lat="42.3640340" lon="-8.3870630">
        <ele>687.0</ele>
        <time>2022-08-28T13:54:22Z</time>
      </trkpt>
      <trkpt lat="42.3639890" lon="-8.3870830">
        <ele>686.8</ele>
        <time>2022-08-28T13:54:24Z</time>
      </trkpt>
      <trkpt lat="42.3638890" lon="-8.3871420">
        <ele>686.8</ele>
        <time>2022-08-28T13:54:29Z</time>
      </trkpt>
      <trkpt lat="42.3637490" lon="-8.3871960">
        <ele>686.8</ele>
        <time>2022-08-28T13:54:37Z</time>
      </trkpt>
      <trkpt lat="42.3636660" lon="-8.3872360">
        <ele>687.0</ele>
        <time>2022-08-28T13:54:41Z</time>
      </trkpt>
      <trkpt lat="42.3635500" lon="-8.3873040">
        <ele>687.6</ele>
        <time>2022-08-28T13:54:46Z</time>
      </trkpt>
      <trkpt lat="42.3634860" lon="-8.3873510">
        <ele>688.0</ele>
        <time>2022-08-28T13:54:49Z</time>
      </trkpt>
      <trkpt lat="42.3633780" lon="-8.3874370">
        <ele>688.4</ele>
        <time>2022-08-28T13:54:54Z</time>
      </trkpt>
      <trkpt lat="42.3632800" lon="-8.3875500">
        <ele>688.6</ele>
        <time>2022-08-28T13:55:01Z</time>
      </trkpt>
      <trkpt lat="42.3631890" lon="-8.3876440">
        <ele>689.0</ele>
        <time>2022-08-28T13:55:08Z</time>
      </trkpt>
      <trkpt lat="42.3630600" lon="-8.3877850">
        <ele>689.8</ele>
        <time>2022-08-28T13:55:16Z</time>
      </trkpt>
      <trkpt lat="42.3630450" lon="-8.3878020">
        <ele>690.0</ele>
        <time>2022-08-28T13:55:17Z</time>
      </trkpt>
      <trkpt lat="42.3629180" lon="-8.3879010">
        <ele>690.4</ele>
        <time>2022-08-28T13:55:24Z</time>
      </trkpt>
      <trkpt lat="42.3627870" lon="-8.3880270">
        <ele>690.4</ele>
        <time>2022-08-28T13:55:30Z</time>
      </trkpt>
      <trkpt lat="42.3627570" lon="-8.3880630">
        <ele>690.4</ele>
        <time>2022-08-28T13:55:31Z</time>
      </trkpt>
      <trkpt lat="42.3626400" lon="-8.3881970">
        <ele>690.4</ele>
        <time>2022-08-28T13:55:34Z</time>
      </trkpt>
      <trkpt lat="42.3625360" lon="-8.3883630">
        <ele>690.0</ele>
        <time>2022-08-28T13:55:37Z</time>
      </trkpt>
      <trkpt lat="42.3624620" lon="-8.3885510">
        <ele>689.0</ele>
        <time>2022-08-28T13:55:40Z</time>
      </trkpt>
      <trkpt lat="42.3624320" lon="-8.3885980">
        <ele>688.8</ele>
        <time>2022-08-28T13:55:41Z</time>
      </trkpt>
      <trkpt lat="42.3623610" lon="-8.3886620">
        <ele>688.2</ele>
        <time>2022-08-28T13:55:43Z</time>
      </trkpt>
      <trkpt lat="42.3623260" lon="-8.3886830">
        <ele>687.6</ele>
        <time>2022-08-28T13:55:44Z</time>
      </trkpt>
      <trkpt lat="42.3622950" lon="-8.3886990">
        <ele>687.2</ele>
        <time>2022-08-28T13:55:45Z</time>
      </trkpt>
      <trkpt lat="42.3622470" lon="-8.3887170">
        <ele>686.4</ele>
        <time>2022-08-28T13:55:47Z</time>
      </trkpt>
      <trkpt lat="42.3621040" lon="-8.3887710">
        <ele>686.2</ele>
        <time>2022-08-28T13:55:53Z</time>
      </trkpt>
      <trkpt lat="42.3620090" lon="-8.3888370">
        <ele>686.0</ele>
        <time>2022-08-28T13:55:59Z</time>
      </trkpt>
      <trkpt lat="42.3618820" lon="-8.3888880">
        <ele>686.0</ele>
        <time>2022-08-28T13:56:06Z</time>
      </trkpt>
      <trkpt lat="42.3617310" lon="-8.3889770">
        <ele>686.0</ele>
        <time>2022-08-28T13:56:12Z</time>
      </trkpt>
      <trkpt lat="42.3616040" lon="-8.3891030">
        <ele>685.8</ele>
        <time>2022-08-28T13:56:19Z</time>
      </trkpt>
      <trkpt lat="42.3615040" lon="-8.3892390">
        <ele>686.0</ele>
        <time>2022-08-28T13:56:26Z</time>
      </trkpt>
      <trkpt lat="42.3613760" lon="-8.3894050">
        <ele>686.4</ele>
        <time>2022-08-28T13:56:32Z</time>
      </trkpt>
      <trkpt lat="42.3612200" lon="-8.3896020">
        <ele>686.0</ele>
        <time>2022-08-28T13:56:39Z</time>
      </trkpt>
      <trkpt lat="42.3611420" lon="-8.3897430">
        <ele>685.8</ele>
        <time>2022-08-28T13:56:46Z</time>
      </trkpt>
      <trkpt lat="42.3610660" lon="-8.3898410">
        <ele>686.4</ele>
        <time>2022-08-28T13:56:52Z</time>
      </trkpt>
      <trkpt lat="42.3609300" lon="-8.3899550">
        <ele>686.8</ele>
        <time>2022-08-28T13:56:58Z</time>
      </trkpt>
      <trkpt lat="42.3608180" lon="-8.3900580">
        <ele>687.0</ele>
        <time>2022-08-28T13:57:05Z</time>
      </trkpt>
      <trkpt lat="42.3607620" lon="-8.3901590">
        <ele>687.4</ele>
        <time>2022-08-28T13:57:12Z</time>
      </trkpt>
      <trkpt lat="42.3607220" lon="-8.3902680">
        <ele>688.4</ele>
        <time>2022-08-28T13:57:20Z</time>
      </trkpt>
      <trkpt lat="42.3607100" lon="-8.3902930">
        <ele>688.6</ele>
        <time>2022-08-28T13:57:22Z</time>
      </trkpt>
      <trkpt lat="42.3606910" lon="-8.3903420">
        <ele>689.6</ele>
        <time>2022-08-28T13:57:26Z</time>
      </trkpt>
      <trkpt lat="42.3606750" lon="-8.3903780">
        <ele>690.2</ele>
        <time>2022-08-28T13:57:29Z</time>
      </trkpt>
      <trkpt lat="42.3606570" lon="-8.3904260">
        <ele>690.8</ele>
        <time>2022-08-28T13:57:33Z</time>
      </trkpt>
      <trkpt lat="42.3606400" lon="-8.3904640">
        <ele>691.4</ele>
        <time>2022-08-28T13:57:37Z</time>
      </trkpt>
      <trkpt lat="42.3606300" lon="-8.3904870">
        <ele>691.8</ele>
        <time>2022-08-28T13:57:39Z</time>
      </trkpt>
      <trkpt lat="42.3606050" lon="-8.3905590">
        <ele>692.8</ele>
        <time>2022-08-28T13:57:45Z</time>
      </trkpt>
      <trkpt lat="42.3606000" lon="-8.3905710">
        <ele>693.2</ele>
        <time>2022-08-28T13:57:46Z</time>
      </trkpt>
      <trkpt lat="42.3605630" lon="-8.3906270">
        <ele>694.0</ele>
        <time>2022-08-28T13:57:51Z</time>
      </trkpt>
      <trkpt lat="42.3605430" lon="-8.3906680">
        <ele>694.8</ele>
        <time>2022-08-28T13:57:54Z</time>
      </trkpt>
      <trkpt lat="42.3605350" lon="-8.3906790">
        <ele>695.0</ele>
        <time>2022-08-28T13:57:55Z</time>
      </trkpt>
      <trkpt lat="42.3605050" lon="-8.3907350">
        <ele>696.4</ele>
        <time>2022-08-28T13:58:00Z</time>
      </trkpt>
      <trkpt lat="42.3605010" lon="-8.3907460">
        <ele>696.8</ele>
        <time>2022-08-28T13:58:01Z</time>
      </trkpt>
      <trkpt lat="42.3604980" lon="-8.3907560">
        <ele>697.2</ele>
        <time>2022-08-28T13:58:02Z</time>
      </trkpt>
      <trkpt lat="42.3604970" lon="-8.3907700">
        <ele>697.4</ele>
        <time>2022-08-28T13:58:03Z</time>
      </trkpt>
      <trkpt lat="42.3604920" lon="-8.3907870">
        <ele>697.8</ele>
        <time>2022-08-28T13:58:06Z</time>
      </trkpt>
      <trkpt lat="42.3604590" lon="-8.3908330">
        <ele>698.2</ele>
        <time>2022-08-28T13:58:24Z</time>
      </trkpt>
      <trkpt lat="42.3604440" lon="-8.3908410">
        <ele>698.2</ele>
        <time>2022-08-28T13:58:25Z</time>
      </trkpt>
      <trkpt lat="42.3603100" lon="-8.3908800">
        <ele>697.6</ele>
        <time>2022-08-28T13:58:31Z</time>
      </trkpt>
      <trkpt lat="42.3601240" lon="-8.3909390">
        <ele>696.8</ele>
        <time>2022-08-28T13:58:37Z</time>
      </trkpt>
      <trkpt lat="42.3600860" lon="-8.3909500">
        <ele>696.4</ele>
        <time>2022-08-28T13:58:38Z</time>
      </trkpt>
      <trkpt lat="42.3599890" lon="-8.3909900">
        <ele>695.0</ele>
        <time>2022-08-28T13:58:41Z</time>
      </trkpt>
      <trkpt lat="42.3599640" lon="-8.3910010">
        <ele>694.4</ele>
        <time>2022-08-28T13:58:42Z</time>
      </trkpt>
      <trkpt lat="42.3599490" lon="-8.3910120">
        <ele>693.8</ele>
        <time>2022-08-28T13:58:43Z</time>
      </trkpt>
      <trkpt lat="42.3599260" lon="-8.3910390">
        <ele>692.6</ele>
        <time>2022-08-28T13:58:45Z</time>
      </trkpt>
      <trkpt lat="42.3599110" lon="-8.3910480">
        <ele>691.8</ele>
        <time>2022-08-28T13:58:46Z</time>
      </trkpt>
      <trkpt lat="42.3598950" lon="-8.3910570">
        <ele>691.2</ele>
        <time>2022-08-28T13:58:47Z</time>
      </trkpt>
      <trkpt lat="42.3598640" lon="-8.3910760">
        <ele>690.0</ele>
        <time>2022-08-28T13:58:49Z</time>
      </trkpt>
      <trkpt lat="42.3598330" lon="-8.3911050">
        <ele>688.2</ele>
        <time>2022-08-28T13:58:51Z</time>
      </trkpt>
      <trkpt lat="42.3598130" lon="-8.3911270">
        <ele>688.0</ele>
        <time>2022-08-28T13:58:52Z</time>
      </trkpt>
      <trkpt lat="42.3597810" lon="-8.3911580">
        <ele>687.2</ele>
        <time>2022-08-28T13:58:54Z</time>
      </trkpt>
      <trkpt lat="42.3597320" lon="-8.3911970">
        <ele>686.2</ele>
        <time>2022-08-28T13:58:57Z</time>
      </trkpt>
      <trkpt lat="42.3597140" lon="-8.3912180">
        <ele>686.0</ele>
        <time>2022-08-28T13:58:58Z</time>
      </trkpt>
      <trkpt lat="42.3596550" lon="-8.3912900">
        <ele>684.6</ele>
        <time>2022-08-28T13:59:01Z</time>
      </trkpt>
      <trkpt lat="42.3596260" lon="-8.3913350">
        <ele>684.2</ele>
        <time>2022-08-28T13:59:03Z</time>
      </trkpt>
      <trkpt lat="42.3596100" lon="-8.3913750">
        <ele>683.6</ele>
        <time>2022-08-28T13:59:05Z</time>
      </trkpt>
      <trkpt lat="42.3595670" lon="-8.3914480">
        <ele>682.4</ele>
        <time>2022-08-28T13:59:08Z</time>
      </trkpt>
      <trkpt lat="42.3595390" lon="-8.3914940">
        <ele>681.0</ele>
        <time>2022-08-28T13:59:10Z</time>
      </trkpt>
      <trkpt lat="42.3595000" lon="-8.3915550">
        <ele>679.8</ele>
        <time>2022-08-28T13:59:13Z</time>
      </trkpt>
      <trkpt lat="42.3594840" lon="-8.3915810">
        <ele>679.6</ele>
        <time>2022-08-28T13:59:14Z</time>
      </trkpt>
      <trkpt lat="42.3594510" lon="-8.3916260">
        <ele>678.8</ele>
        <time>2022-08-28T13:59:17Z</time>
      </trkpt>
      <trkpt lat="42.3594390" lon="-8.3916340">
        <ele>678.6</ele>
        <time>2022-08-28T13:59:18Z</time>
      </trkpt>
      <trkpt lat="42.3594130" lon="-8.3916570">
        <ele>677.4</ele>
        <time>2022-08-28T13:59:20Z</time>
      </trkpt>
      <trkpt lat="42.3593960" lon="-8.3916760">
        <ele>676.4</ele>
        <time>2022-08-28T13:59:22Z</time>
      </trkpt>
      <trkpt lat="42.3593940" lon="-8.3916770">
        <ele>675.8</ele>
        <time>2022-08-28T13:59:23Z</time>
      </trkpt>
      <trkpt lat="42.3593940" lon="-8.3916780">
        <ele>675.6</ele>
        <time>2022-08-28T13:59:24Z</time>
      </trkpt>
      <trkpt lat="42.3591080" lon="-8.3920050">
        <ele>665.4</ele>
        <time>2022-08-28T14:00:14Z</time>
      </trkpt>
      <trkpt lat="42.3590760" lon="-8.3920260">
        <ele>665.2</ele>
        <time>2022-08-28T14:00:17Z</time>
      </trkpt>
      <trkpt lat="42.3590220" lon="-8.3920730">
        <ele>664.4</ele>
        <time>2022-08-28T14:00:23Z</time>
      </trkpt>
      <trkpt lat="42.3590170" lon="-8.3920870">
        <ele>664.0</ele>
        <time>2022-08-28T14:00:24Z</time>
      </trkpt>
      <trkpt lat="42.3589890" lon="-8.3921410">
        <ele>663.0</ele>
        <time>2022-08-28T14:00:28Z</time>
      </trkpt>
      <trkpt lat="42.3589810" lon="-8.3921490">
        <ele>662.6</ele>
        <time>2022-08-28T14:00:30Z</time>
      </trkpt>
      <trkpt lat="42.3589540" lon="-8.3922030">
        <ele>661.2</ele>
        <time>2022-08-28T14:00:35Z</time>
      </trkpt>
      <trkpt lat="42.3589240" lon="-8.3922770">
        <ele>661.0</ele>
        <time>2022-08-28T14:00:37Z</time>
      </trkpt>
      <trkpt lat="42.3588580" lon="-8.3925970">
        <ele>660.0</ele>
        <time>2022-08-28T14:00:43Z</time>
      </trkpt>
      <trkpt lat="42.3588390" lon="-8.3928250">
        <ele>659.0</ele>
        <time>2022-08-28T14:00:47Z</time>
      </trkpt>
      <trkpt lat="42.3588410" lon="-8.3928680">
        <ele>658.0</ele>
        <time>2022-08-28T14:00:48Z</time>
      </trkpt>
      <trkpt lat="42.3588810" lon="-8.3930050">
        <ele>656.6</ele>
        <time>2022-08-28T14:00:51Z</time>
      </trkpt>
      <trkpt lat="42.3589060" lon="-8.3930520">
        <ele>656.0</ele>
        <time>2022-08-28T14:00:52Z</time>
      </trkpt>
      <trkpt lat="42.3589300" lon="-8.3930980">
        <ele>655.4</ele>
        <time>2022-08-28T14:00:53Z</time>
      </trkpt>
      <trkpt lat="42.3589740" lon="-8.3931710">
        <ele>654.4</ele>
        <time>2022-08-28T14:00:55Z</time>
      </trkpt>
      <trkpt lat="42.3590140" lon="-8.3932340">
        <ele>653.6</ele>
        <time>2022-08-28T14:00:57Z</time>
      </trkpt>
      <trkpt lat="42.3590310" lon="-8.3932570">
        <ele>653.2</ele>
        <time>2022-08-28T14:00:58Z</time>
      </trkpt>
      <trkpt lat="42.3590560" lon="-8.3933180">
        <ele>652.8</ele>
        <time>2022-08-28T14:01:00Z</time>
      </trkpt>
      <trkpt lat="42.3590620" lon="-8.3933620">
        <ele>652.4</ele>
        <time>2022-08-28T14:01:01Z</time>
      </trkpt>
      <trkpt lat="42.3590650" lon="-8.3934080">
        <ele>651.8</ele>
        <time>2022-08-28T14:01:02Z</time>
      </trkpt>
      <trkpt lat="42.3590380" lon="-8.3935330">
        <ele>650.4</ele>
        <time>2022-08-28T14:01:05Z</time>
      </trkpt>
      <trkpt lat="42.3590230" lon="-8.3935680">
        <ele>650.0</ele>
        <time>2022-08-28T14:01:06Z</time>
      </trkpt>
      <trkpt lat="42.3589840" lon="-8.3936330">
        <ele>649.4</ele>
        <time>2022-08-28T14:01:08Z</time>
      </trkpt>
      <trkpt lat="42.3589040" lon="-8.3937110">
        <ele>647.8</ele>
        <time>2022-08-28T14:01:11Z</time>
      </trkpt>
      <trkpt lat="42.3588340" lon="-8.3937470">
        <ele>646.4</ele>
        <time>2022-08-28T14:01:14Z</time>
      </trkpt>
      <trkpt lat="42.3587830" lon="-8.3937730">
        <ele>645.0</ele>
        <time>2022-08-28T14:01:16Z</time>
      </trkpt>
      <trkpt lat="42.3587180" lon="-8.3938060">
        <ele>643.8</ele>
        <time>2022-08-28T14:01:18Z</time>
      </trkpt>
      <trkpt lat="42.3586280" lon="-8.3938460">
        <ele>642.4</ele>
        <time>2022-08-28T14:01:21Z</time>
      </trkpt>
      <trkpt lat="42.3586010" lon="-8.3938600">
        <ele>642.0</ele>
        <time>2022-08-28T14:01:22Z</time>
      </trkpt>
      <trkpt lat="42.3585380" lon="-8.3938880">
        <ele>641.0</ele>
        <time>2022-08-28T14:01:24Z</time>
      </trkpt>
      <trkpt lat="42.3584460" lon="-8.3939250">
        <ele>639.4</ele>
        <time>2022-08-28T14:01:27Z</time>
      </trkpt>
      <trkpt lat="42.3584160" lon="-8.3939350">
        <ele>638.8</ele>
        <time>2022-08-28T14:01:28Z</time>
      </trkpt>
      <trkpt lat="42.3583850" lon="-8.3939480">
        <ele>638.4</ele>
        <time>2022-08-28T14:01:29Z</time>
      </trkpt>
      <trkpt lat="42.3583230" lon="-8.3939770">
        <ele>637.2</ele>
        <time>2022-08-28T14:01:31Z</time>
      </trkpt>
      <trkpt lat="42.3582660" lon="-8.3939960">
        <ele>636.0</ele>
        <time>2022-08-28T14:01:33Z</time>
      </trkpt>
      <trkpt lat="42.3582390" lon="-8.3940040">
        <ele>635.2</ele>
        <time>2022-08-28T14:01:34Z</time>
      </trkpt>
      <trkpt lat="42.3582190" lon="-8.3940110">
        <ele>634.8</ele>
        <time>2022-08-28T14:01:35Z</time>
      </trkpt>
      <trkpt lat="42.3581860" lon="-8.3940210">
        <ele>633.4</ele>
        <time>2022-08-28T14:01:37Z</time>
      </trkpt>
      <trkpt lat="42.3581540" lon="-8.3940320">
        <ele>632.0</ele>
        <time>2022-08-28T14:01:39Z</time>
      </trkpt>
      <trkpt lat="42.3581370" lon="-8.3940390">
        <ele>631.4</ele>
        <time>2022-08-28T14:01:40Z</time>
      </trkpt>
      <trkpt lat="42.3581180" lon="-8.3940440">
        <ele>630.4</ele>
        <time>2022-08-28T14:01:41Z</time>
      </trkpt>
      <trkpt lat="42.3580810" lon="-8.3940500">
        <ele>629.2</ele>
        <time>2022-08-28T14:01:43Z</time>
      </trkpt>
      <trkpt lat="42.3580570" lon="-8.3940470">
        <ele>627.8</ele>
        <time>2022-08-28T14:01:45Z</time>
      </trkpt>
      <trkpt lat="42.3580500" lon="-8.3940470">
        <ele>627.4</ele>
        <time>2022-08-28T14:01:46Z</time>
      </trkpt>
      <trkpt lat="42.3580280" lon="-8.3940410">
        <ele>626.8</ele>
        <time>2022-08-28T14:01:48Z</time>
      </trkpt>
      <trkpt lat="42.3579710" lon="-8.3940350">
        <ele>625.6</ele>
        <time>2022-08-28T14:01:51Z</time>
      </trkpt>
      <trkpt lat="42.3578720" lon="-8.3940380">
        <ele>624.6</ele>
        <time>2022-08-28T14:01:55Z</time>
      </trkpt>
      <trkpt lat="42.3578320" lon="-8.3940360">
        <ele>624.2</ele>
        <time>2022-08-28T14:01:57Z</time>
      </trkpt>
      <trkpt lat="42.3577760" lon="-8.3940400">
        <ele>623.4</ele>
        <time>2022-08-28T14:02:00Z</time>
      </trkpt>
      <trkpt lat="42.3577520" lon="-8.3940330">
        <ele>623.0</ele>
        <time>2022-08-28T14:02:01Z</time>
      </trkpt>
      <trkpt lat="42.3577110" lon="-8.3940260">
        <ele>622.2</ele>
        <time>2022-08-28T14:02:03Z</time>
      </trkpt>
      <trkpt lat="42.3576190" lon="-8.3940200">
        <ele>620.8</ele>
        <time>2022-08-28T14:02:06Z</time>
      </trkpt>
      <trkpt lat="42.3574990" lon="-8.3940320">
        <ele>619.6</ele>
        <time>2022-08-28T14:02:10Z</time>
      </trkpt>
      <trkpt lat="42.3574760" lon="-8.3940390">
        <ele>619.2</ele>
        <time>2022-08-28T14:02:11Z</time>
      </trkpt>
      <trkpt lat="42.3574390" lon="-8.3940350">
        <ele>617.4</ele>
        <time>2022-08-28T14:02:14Z</time>
      </trkpt>
      <trkpt lat="42.3574380" lon="-8.3940330">
        <ele>616.6</ele>
        <time>2022-08-28T14:02:15Z</time>
      </trkpt>
      <trkpt lat="42.3573940" lon="-8.3940630">
        <ele>613.8</ele>
        <time>2022-08-28T14:02:30Z</time>
      </trkpt>
      <trkpt lat="42.3573540" lon="-8.3940850">
        <ele>613.8</ele>
        <time>2022-08-28T14:02:32Z</time>
      </trkpt>
      <trkpt lat="42.3572690" lon="-8.3941220">
        <ele>613.2</ele>
        <time>2022-08-28T14:02:38Z</time>
      </trkpt>
      <trkpt lat="42.3572540" lon="-8.3941310">
        <ele>612.6</ele>
        <time>2022-08-28T14:02:41Z</time>
      </trkpt>
      <trkpt lat="42.3572460" lon="-8.3941310">
        <ele>611.6</ele>
        <time>2022-08-28T14:02:43Z</time>
      </trkpt>
      <trkpt lat="42.3571910" lon="-8.3941500">
        <ele>610.8</ele>
        <time>2022-08-28T14:02:48Z</time>
      </trkpt>
      <trkpt lat="42.3571750" lon="-8.3941540">
        <ele>610.6</ele>
        <time>2022-08-28T14:02:49Z</time>
      </trkpt>
      <trkpt lat="42.3570640" lon="-8.3941790">
        <ele>609.6</ele>
        <time>2022-08-28T14:02:56Z</time>
      </trkpt>
      <trkpt lat="42.3569980" lon="-8.3941640">
        <ele>608.6</ele>
        <time>2022-08-28T14:03:00Z</time>
      </trkpt>
      <trkpt lat="42.3569480" lon="-8.3941440">
        <ele>608.0</ele>
        <time>2022-08-28T14:03:02Z</time>
      </trkpt>
      <trkpt lat="42.3568840" lon="-8.3941210">
        <ele>607.4</ele>
        <time>2022-08-28T14:03:05Z</time>
      </trkpt>
      <trkpt lat="42.3568450" lon="-8.3941080">
        <ele>606.4</ele>
        <time>2022-08-28T14:03:08Z</time>
      </trkpt>
      <trkpt lat="42.3568380" lon="-8.3941040">
        <ele>606.0</ele>
        <time>2022-08-28T14:03:09Z</time>
      </trkpt>
      <trkpt lat="42.3568180" lon="-8.3940950">
        <ele>604.6</ele>
        <time>2022-08-28T14:03:12Z</time>
      </trkpt>
      <trkpt lat="42.3568030" lon="-8.3940880">
        <ele>603.8</ele>
        <time>2022-08-28T14:03:15Z</time>
      </trkpt>
      <trkpt lat="42.3567980" lon="-8.3940860">
        <ele>603.6</ele>
        <time>2022-08-28T14:03:16Z</time>
      </trkpt>
      <trkpt lat="42.3567860" lon="-8.3940790">
        <ele>603.2</ele>
        <time>2022-08-28T14:03:19Z</time>
      </trkpt>
      <trkpt lat="42.3565030" lon="-8.3940520">
        <ele>597.8</ele>
        <time>2022-08-28T14:03:51Z</time>
      </trkpt>
      <trkpt lat="42.3564850" lon="-8.3940480">
        <ele>597.6</ele>
        <time>2022-08-28T14:03:52Z</time>
      </trkpt>
      <trkpt lat="42.3563950" lon="-8.3939870">
        <ele>597.4</ele>
        <time>2022-08-28T14:03:56Z</time>
      </trkpt>
      <trkpt lat="42.3563670" lon="-8.3939600">
        <ele>597.2</ele>
        <time>2022-08-28T14:03:57Z</time>
      </trkpt>
      <trkpt lat="42.3563140" lon="-8.3939010">
        <ele>596.8</ele>
        <time>2022-08-28T14:04:00Z</time>
      </trkpt>
      <trkpt lat="42.3563030" lon="-8.3938870">
        <ele>596.6</ele>
        <time>2022-08-28T14:04:01Z</time>
      </trkpt>
      <trkpt lat="42.3562790" lon="-8.3938640">
        <ele>595.4</ele>
        <time>2022-08-28T14:04:04Z</time>
      </trkpt>
      <trkpt lat="42.3562800" lon="-8.3938640">
        <ele>595.0</ele>
        <time>2022-08-28T14:04:05Z</time>
      </trkpt>
      <trkpt lat="42.3562790" lon="-8.3939450">
        <ele>593.0</ele>
        <time>2022-08-28T14:04:27Z</time>
      </trkpt>
      <trkpt lat="42.3563310" lon="-8.3940990">
        <ele>592.6</ele>
        <time>2022-08-28T14:04:32Z</time>
      </trkpt>
      <trkpt lat="42.3563750" lon="-8.3942680">
        <ele>592.2</ele>
        <time>2022-08-28T14:04:37Z</time>
      </trkpt>
      <trkpt lat="42.3563900" lon="-8.3942910">
        <ele>591.8</ele>
        <time>2022-08-28T14:04:38Z</time>
      </trkpt>
      <trkpt lat="42.3564370" lon="-8.3943310">
        <ele>591.4</ele>
        <time>2022-08-28T14:04:41Z</time>
      </trkpt>
      <trkpt lat="42.3564860" lon="-8.3943930">
        <ele>590.8</ele>
        <time>2022-08-28T14:04:44Z</time>
      </trkpt>
      <trkpt lat="42.3564970" lon="-8.3944350">
        <ele>589.8</ele>
        <time>2022-08-28T14:04:46Z</time>
      </trkpt>
      <trkpt lat="42.3564970" lon="-8.3944570">
        <ele>589.6</ele>
        <time>2022-08-28T14:04:47Z</time>
      </trkpt>
      <trkpt lat="42.3564960" lon="-8.3944810">
        <ele>589.6</ele>
        <time>2022-08-28T14:04:48Z</time>
      </trkpt>
      <trkpt lat="42.3564970" lon="-8.3945890">
        <ele>589.0</ele>
        <time>2022-08-28T14:04:52Z</time>
      </trkpt>
      <trkpt lat="42.3564960" lon="-8.3946210">
        <ele>588.4</ele>
        <time>2022-08-28T14:04:54Z</time>
      </trkpt>
      <trkpt lat="42.3564910" lon="-8.3946470">
        <ele>587.6</ele>
        <time>2022-08-28T14:04:57Z</time>
      </trkpt>
      <trkpt lat="42.3564890" lon="-8.3946480">
        <ele>587.2</ele>
        <time>2022-08-28T14:04:58Z</time>
      </trkpt>
      <trkpt lat="42.3564770" lon="-8.3947170">
        <ele>585.8</ele>
        <time>2022-08-28T14:05:03Z</time>
      </trkpt>
      <trkpt lat="42.3564760" lon="-8.3947540">
        <ele>585.6</ele>
        <time>2022-08-28T14:05:06Z</time>
      </trkpt>
      <trkpt lat="42.3564730" lon="-8.3947620">
        <ele>585.4</ele>
        <time>2022-08-28T14:05:08Z</time>
      </trkpt>
      <trkpt lat="42.3564760" lon="-8.3948080">
        <ele>584.4</ele>
        <time>2022-08-28T14:05:12Z</time>
      </trkpt>
      <trkpt lat="42.3564740" lon="-8.3948310">
        <ele>584.2</ele>
        <time>2022-08-28T14:05:13Z</time>
      </trkpt>
      <trkpt lat="42.3564510" lon="-8.3949060">
        <ele>583.4</ele>
        <time>2022-08-28T14:05:19Z</time>
      </trkpt>
      <trkpt lat="42.3564450" lon="-8.3949210">
        <ele>583.4</ele>
        <time>2022-08-28T14:05:20Z</time>
      </trkpt>
      <trkpt lat="42.3564010" lon="-8.3950120">
        <ele>582.6</ele>
        <time>2022-08-28T14:05:24Z</time>
      </trkpt>
      <trkpt lat="42.3563820" lon="-8.3950570">
        <ele>582.2</ele>
        <time>2022-08-28T14:05:26Z</time>
      </trkpt>
      <trkpt lat="42.3563640" lon="-8.3951020">
        <ele>581.6</ele>
        <time>2022-08-28T14:05:29Z</time>
      </trkpt>
      <trkpt lat="42.3563480" lon="-8.3951710">
        <ele>581.2</ele>
        <time>2022-08-28T14:05:32Z</time>
      </trkpt>
      <trkpt lat="42.3563370" lon="-8.3952170">
        <ele>581.0</ele>
        <time>2022-08-28T14:05:34Z</time>
      </trkpt>
      <trkpt lat="42.3563150" lon="-8.3953210">
        <ele>580.0</ele>
        <time>2022-08-28T14:05:38Z</time>
      </trkpt>
      <trkpt lat="42.3562990" lon="-8.3953820">
        <ele>579.0</ele>
        <time>2022-08-28T14:05:41Z</time>
      </trkpt>
      <trkpt lat="42.3562830" lon="-8.3954230">
        <ele>578.2</ele>
        <time>2022-08-28T14:05:46Z</time>
      </trkpt>
      <trkpt lat="42.3562780" lon="-8.3954420">
        <ele>577.8</ele>
        <time>2022-08-28T14:05:48Z</time>
      </trkpt>
      <trkpt lat="42.3562450" lon="-8.3955320">
        <ele>577.0</ele>
        <time>2022-08-28T14:05:56Z</time>
      </trkpt>
      <trkpt lat="42.3562370" lon="-8.3955420">
        <ele>576.8</ele>
        <time>2022-08-28T14:05:57Z</time>
      </trkpt>
      <trkpt lat="42.3562200" lon="-8.3955720">
        <ele>576.0</ele>
        <time>2022-08-28T14:06:02Z</time>
      </trkpt>
      <trkpt lat="42.3562170" lon="-8.3955940">
        <ele>575.6</ele>
        <time>2022-08-28T14:06:03Z</time>
      </trkpt>
      <trkpt lat="42.3561890" lon="-8.3956920">
        <ele>574.8</ele>
        <time>2022-08-28T14:06:07Z</time>
      </trkpt>
      <trkpt lat="42.3561380" lon="-8.3958920">
        <ele>574.6</ele>
        <time>2022-08-28T14:06:15Z</time>
      </trkpt>
      <trkpt lat="42.3561410" lon="-8.3960350">
        <ele>575.2</ele>
        <time>2022-08-28T14:06:21Z</time>
      </trkpt>
      <trkpt lat="42.3561970" lon="-8.3961740">
        <ele>575.6</ele>
        <time>2022-08-28T14:06:28Z</time>
      </trkpt>
      <trkpt lat="42.3562860" lon="-8.3964000">
        <ele>576.2</ele>
        <time>2022-08-28T14:06:37Z</time>
      </trkpt>
      <trkpt lat="42.3563630" lon="-8.3966500">
        <ele>576.0</ele>
        <time>2022-08-28T14:06:45Z</time>
      </trkpt>
      <trkpt lat="42.3563760" lon="-8.3967700">
        <ele>575.6</ele>
        <time>2022-08-28T14:06:50Z</time>
      </trkpt>
      <trkpt lat="42.3562970" lon="-8.3969140">
        <ele>574.8</ele>
        <time>2022-08-28T14:06:56Z</time>
      </trkpt>
      <trkpt lat="42.3562540" lon="-8.3969700">
        <ele>574.4</ele>
        <time>2022-08-28T14:06:58Z</time>
      </trkpt>
      <trkpt lat="42.3561610" lon="-8.3970660">
        <ele>573.2</ele>
        <time>2022-08-28T14:07:02Z</time>
      </trkpt>
      <trkpt lat="42.3561310" lon="-8.3970860">
        <ele>573.0</ele>
        <time>2022-08-28T14:07:03Z</time>
      </trkpt>
      <trkpt lat="42.3560020" lon="-8.3971220">
        <ele>572.4</ele>
        <time>2022-08-28T14:07:08Z</time>
      </trkpt>
      <trkpt lat="42.3559850" lon="-8.3971230">
        <ele>572.2</ele>
        <time>2022-08-28T14:07:09Z</time>
      </trkpt>
      <trkpt lat="42.3559520" lon="-8.3971310">
        <ele>571.2</ele>
        <time>2022-08-28T14:07:12Z</time>
      </trkpt>
      <trkpt lat="42.3559420" lon="-8.3971340">
        <ele>571.0</ele>
        <time>2022-08-28T14:07:13Z</time>
      </trkpt>
      <trkpt lat="42.3559330" lon="-8.3971410">
        <ele>570.8</ele>
        <time>2022-08-28T14:07:14Z</time>
      </trkpt>
      <trkpt lat="42.3558750" lon="-8.3971980">
        <ele>570.0</ele>
        <time>2022-08-28T14:07:17Z</time>
      </trkpt>
      <trkpt lat="42.3558110" lon="-8.3973860">
        <ele>569.2</ele>
        <time>2022-08-28T14:07:21Z</time>
      </trkpt>
      <trkpt lat="42.3558000" lon="-8.3975940">
        <ele>568.8</ele>
        <time>2022-08-28T14:07:24Z</time>
      </trkpt>
      <trkpt lat="42.3557800" lon="-8.3978020">
        <ele>568.4</ele>
        <time>2022-08-28T14:07:27Z</time>
      </trkpt>
      <trkpt lat="42.3557700" lon="-8.3978660">
        <ele>568.0</ele>
        <time>2022-08-28T14:07:28Z</time>
      </trkpt>
      <trkpt lat="42.3557560" lon="-8.3979220">
        <ele>567.8</ele>
        <time>2022-08-28T14:07:29Z</time>
      </trkpt>
      <trkpt lat="42.3557160" lon="-8.3980870">
        <ele>566.2</ele>
        <time>2022-08-28T14:07:32Z</time>
      </trkpt>
      <trkpt lat="42.3556480" lon="-8.3983650">
        <ele>565.6</ele>
        <time>2022-08-28T14:07:38Z</time>
      </trkpt>
      <trkpt lat="42.3555990" lon="-8.3983970">
        <ele>565.0</ele>
        <time>2022-08-28T14:07:41Z</time>
      </trkpt>
      <trkpt lat="42.3555600" lon="-8.3984090">
        <ele>564.0</ele>
        <time>2022-08-28T14:07:43Z</time>
      </trkpt>
      <trkpt lat="42.3554820" lon="-8.3984030">
        <ele>562.6</ele>
        <time>2022-08-28T14:07:46Z</time>
      </trkpt>
      <trkpt lat="42.3554470" lon="-8.3983870">
        <ele>562.2</ele>
        <time>2022-08-28T14:07:47Z</time>
      </trkpt>
      <trkpt lat="42.3553940" lon="-8.3983540">
        <ele>561.4</ele>
        <time>2022-08-28T14:07:49Z</time>
      </trkpt>
      <trkpt lat="42.3553400" lon="-8.3983260">
        <ele>560.8</ele>
        <time>2022-08-28T14:07:51Z</time>
      </trkpt>
      <trkpt lat="42.3553080" lon="-8.3983090">
        <ele>560.4</ele>
        <time>2022-08-28T14:07:52Z</time>
      </trkpt>
      <trkpt lat="42.3552270" lon="-8.3982720">
        <ele>559.4</ele>
        <time>2022-08-28T14:07:55Z</time>
      </trkpt>
      <trkpt lat="42.3551960" lon="-8.3982570">
        <ele>558.8</ele>
        <time>2022-08-28T14:07:56Z</time>
      </trkpt>
      <trkpt lat="42.3551610" lon="-8.3982410">
        <ele>558.2</ele>
        <time>2022-08-28T14:07:57Z</time>
      </trkpt>
      <trkpt lat="42.3550660" lon="-8.3982120">
        <ele>556.8</ele>
        <time>2022-08-28T14:08:00Z</time>
      </trkpt>
      <trkpt lat="42.3550520" lon="-8.3982180">
        <ele>555.8</ele>
        <time>2022-08-28T14:08:01Z</time>
      </trkpt>
      <trkpt lat="42.3550240" lon="-8.3982600">
        <ele>554.4</ele>
        <time>2022-08-28T14:08:04Z</time>
      </trkpt>
      <trkpt lat="42.3550010" lon="-8.3983240">
        <ele>553.2</ele>
        <time>2022-08-28T14:08:07Z</time>
      </trkpt>
      <trkpt lat="42.3549700" lon="-8.3984910">
        <ele>552.2</ele>
        <time>2022-08-28T14:08:12Z</time>
      </trkpt>
      <trkpt lat="42.3548770" lon="-8.3987590">
        <ele>552.0</ele>
        <time>2022-08-28T14:08:20Z</time>
      </trkpt>
      <trkpt lat="42.3547510" lon="-8.3990040">
        <ele>552.0</ele>
        <time>2022-08-28T14:08:26Z</time>
      </trkpt>
      <trkpt lat="42.3545460" lon="-8.3991640">
        <ele>552.0</ele>
        <time>2022-08-28T14:08:31Z</time>
      </trkpt>
      <trkpt lat="42.3545000" lon="-8.3991780">
        <ele>552.0</ele>
        <time>2022-08-28T14:08:32Z</time>
      </trkpt>
      <trkpt lat="42.3544090" lon="-8.3992030">
        <ele>551.4</ele>
        <time>2022-08-28T14:08:34Z</time>
      </trkpt>
      <trkpt lat="42.3542950" lon="-8.3992300">
        <ele>550.6</ele>
        <time>2022-08-28T14:08:36Z</time>
      </trkpt>
      <trkpt lat="42.3542340" lon="-8.3992480">
        <ele>550.0</ele>
        <time>2022-08-28T14:08:37Z</time>
      </trkpt>
      <trkpt lat="42.3541210" lon="-8.3992860">
        <ele>548.6</ele>
        <time>2022-08-28T14:08:39Z</time>
      </trkpt>
      <trkpt lat="42.3540700" lon="-8.3992920">
        <ele>548.0</ele>
        <time>2022-08-28T14:08:40Z</time>
      </trkpt>
      <trkpt lat="42.3540260" lon="-8.3992950">
        <ele>547.4</ele>
        <time>2022-08-28T14:08:41Z</time>
      </trkpt>
      <trkpt lat="42.3539600" lon="-8.3992900">
        <ele>546.0</ele>
        <time>2022-08-28T14:08:43Z</time>
      </trkpt>
      <trkpt lat="42.3539310" lon="-8.3992800">
        <ele>545.6</ele>
        <time>2022-08-28T14:08:44Z</time>
      </trkpt>
      <trkpt lat="42.3538690" lon="-8.3992560">
        <ele>544.8</ele>
        <time>2022-08-28T14:08:46Z</time>
      </trkpt>
      <trkpt lat="42.3538270" lon="-8.3992420">
        <ele>544.6</ele>
        <time>2022-08-28T14:08:48Z</time>
      </trkpt>
      <trkpt lat="42.3537330" lon="-8.3991920">
        <ele>543.6</ele>
        <time>2022-08-28T14:08:51Z</time>
      </trkpt>
      <trkpt lat="42.3536980" lon="-8.3991690">
        <ele>543.2</ele>
        <time>2022-08-28T14:08:52Z</time>
      </trkpt>
      <trkpt lat="42.3536170" lon="-8.3991090">
        <ele>542.6</ele>
        <time>2022-08-28T14:08:54Z</time>
      </trkpt>
      <trkpt lat="42.3535450" lon="-8.3990400">
        <ele>541.8</ele>
        <time>2022-08-28T14:08:56Z</time>
      </trkpt>
      <trkpt lat="42.3535150" lon="-8.3990030">
        <ele>541.4</ele>
        <time>2022-08-28T14:08:57Z</time>
      </trkpt>
      <trkpt lat="42.3534790" lon="-8.3989190">
        <ele>540.0</ele>
        <time>2022-08-28T14:08:59Z</time>
      </trkpt>
      <trkpt lat="42.3534740" lon="-8.3988750">
        <ele>539.4</ele>
        <time>2022-08-28T14:09:00Z</time>
      </trkpt>
      <trkpt lat="42.3534730" lon="-8.3988240">
        <ele>538.8</ele>
        <time>2022-08-28T14:09:01Z</time>
      </trkpt>
      <trkpt lat="42.3534730" lon="-8.3987670">
        <ele>538.0</ele>
        <time>2022-08-28T14:09:02Z</time>
      </trkpt>
      <trkpt lat="42.3534740" lon="-8.3987090">
        <ele>537.8</ele>
        <time>2022-08-28T14:09:03Z</time>
      </trkpt>
      <trkpt lat="42.3534820" lon="-8.3985960">
        <ele>536.6</ele>
        <time>2022-08-28T14:09:05Z</time>
      </trkpt>
      <trkpt lat="42.3534850" lon="-8.3984270">
        <ele>535.4</ele>
        <time>2022-08-28T14:09:08Z</time>
      </trkpt>
      <trkpt lat="42.3534740" lon="-8.3983540">
        <ele>534.6</ele>
        <time>2022-08-28T14:09:10Z</time>
      </trkpt>
      <trkpt lat="42.3534680" lon="-8.3983250">
        <ele>534.0</ele>
        <time>2022-08-28T14:09:11Z</time>
      </trkpt>
      <trkpt lat="42.3534520" lon="-8.3982630">
        <ele>533.0</ele>
        <time>2022-08-28T14:09:13Z</time>
      </trkpt>
      <trkpt lat="42.3534210" lon="-8.3982090">
        <ele>531.8</ele>
        <time>2022-08-28T14:09:15Z</time>
      </trkpt>
      <trkpt lat="42.3534030" lon="-8.3981890">
        <ele>531.0</ele>
        <time>2022-08-28T14:09:16Z</time>
      </trkpt>
      <trkpt lat="42.3533820" lon="-8.3981750">
        <ele>530.6</ele>
        <time>2022-08-28T14:09:17Z</time>
      </trkpt>
      <trkpt lat="42.3533200" lon="-8.3981570">
        <ele>529.6</ele>
        <time>2022-08-28T14:09:20Z</time>
      </trkpt>
      <trkpt lat="42.3532800" lon="-8.3981560">
        <ele>529.0</ele>
        <time>2022-08-28T14:09:22Z</time>
      </trkpt>
      <trkpt lat="42.3532670" lon="-8.3981540">
        <ele>528.4</ele>
        <time>2022-08-28T14:09:23Z</time>
      </trkpt>
      <trkpt lat="42.3532530" lon="-8.3981460">
        <ele>527.2</ele>
        <time>2022-08-28T14:09:26Z</time>
      </trkpt>
      <trkpt lat="42.3532490" lon="-8.3981420">
        <ele>526.4</ele>
        <time>2022-08-28T14:09:27Z</time>
      </trkpt>
      <trkpt lat="42.3532450" lon="-8.3981390">
        <ele>526.0</ele>
        <time>2022-08-28T14:09:28Z</time>
      </trkpt>
      <trkpt lat="42.3532090" lon="-8.3981550">
        <ele>525.0</ele>
        <time>2022-08-28T14:09:32Z</time>
      </trkpt>
      <trkpt lat="42.3531680" lon="-8.3981700">
        <ele>525.0</ele>
        <time>2022-08-28T14:09:34Z</time>
      </trkpt>
      <trkpt lat="42.3531490" lon="-8.3981730">
        <ele>525.0</ele>
        <time>2022-08-28T14:09:37Z</time>
      </trkpt>
      <trkpt lat="42.3531190" lon="-8.3981920">
        <ele>523.4</ele>
        <time>2022-08-28T14:10:27Z</time>
      </trkpt>
      <trkpt lat="42.3530080" lon="-8.3983410">
        <ele>523.4</ele>
        <time>2022-08-28T14:10:34Z</time>
      </trkpt>
      <trkpt lat="42.3528910" lon="-8.3985020">
        <ele>523.2</ele>
        <time>2022-08-28T14:10:41Z</time>
      </trkpt>
      <trkpt lat="42.3528840" lon="-8.3985050">
        <ele>523.2</ele>
        <time>2022-08-28T14:10:43Z</time>
      </trkpt>
      <trkpt lat="42.3528670" lon="-8.3985560">
        <ele>522.8</ele>
        <time>2022-08-28T14:11:54Z</time>
      </trkpt>
      <trkpt lat="42.3528650" lon="-8.3985810">
        <ele>522.6</ele>
        <time>2022-08-28T14:11:55Z</time>
      </trkpt>
      <trkpt lat="42.3528380" lon="-8.3987660">
        <ele>522.6</ele>
        <time>2022-08-28T14:12:01Z</time>
      </trkpt>
      <trkpt lat="42.3528340" lon="-8.3989990">
        <ele>522.4</ele>
        <time>2022-08-28T14:12:08Z</time>
      </trkpt>
      <trkpt lat="42.3528320" lon="-8.3990140">
        <ele>522.2</ele>
        <time>2022-08-28T14:12:10Z</time>
      </trkpt>
      <trkpt lat="42.3528370" lon="-8.3989270">
        <ele>521.8</ele>
        <time>2022-08-28T14:12:20Z</time>
      </trkpt>
      <trkpt lat="42.3528370" lon="-8.3989020">
        <ele>521.8</ele>
        <time>2022-08-28T14:12:21Z</time>
      </trkpt>
      <trkpt lat="42.3528450" lon="-8.3987090">
        <ele>521.8</ele>
        <time>2022-08-28T14:12:28Z</time>
      </trkpt>
      <trkpt lat="42.3529000" lon="-8.3985430">
        <ele>522.2</ele>
        <time>2022-08-28T14:12:35Z</time>
      </trkpt>
      <trkpt lat="42.3528930" lon="-8.3985060">
        <ele>522.6</ele>
        <time>2022-08-28T14:12:38Z</time>
      </trkpt>
      <trkpt lat="42.3528910" lon="-8.3985040">
        <ele>522.6</ele>
        <time>2022-08-28T14:12:39Z</time>
      </trkpt>
      <trkpt lat="42.3529160" lon="-8.3985190">
        <ele>523.2</ele>
        <time>2022-08-28T14:14:02Z</time>
      </trkpt>
      <trkpt lat="42.3529100" lon="-8.3985640">
        <ele>523.2</ele>
        <time>2022-08-28T14:14:04Z</time>
      </trkpt>
      <trkpt lat="42.3528890" lon="-8.3986540">
        <ele>523.2</ele>
        <time>2022-08-28T14:14:07Z</time>
      </trkpt>
      <trkpt lat="42.3528680" lon="-8.3987840">
        <ele>523.2</ele>
        <time>2022-08-28T14:14:10Z</time>
      </trkpt>
      <trkpt lat="42.3528610" lon="-8.3991510">
        <ele>523.0</ele>
        <time>2022-08-28T14:14:17Z</time>
      </trkpt>
      <trkpt lat="42.3528910" lon="-8.3994890">
        <ele>522.2</ele>
        <time>2022-08-28T14:14:23Z</time>
      </trkpt>
      <trkpt lat="42.3529130" lon="-8.3995970">
        <ele>522.0</ele>
        <time>2022-08-28T14:14:25Z</time>
      </trkpt>
      <trkpt lat="42.3530010" lon="-8.4000370">
        <ele>521.4</ele>
        <time>2022-08-28T14:14:33Z</time>
      </trkpt>
      <trkpt lat="42.3530110" lon="-8.4000920">
        <ele>521.4</ele>
        <time>2022-08-28T14:14:34Z</time>
      </trkpt>
      <trkpt lat="42.3530170" lon="-8.4003700">
        <ele>521.4</ele>
        <time>2022-08-28T14:14:39Z</time>
      </trkpt>
      <trkpt lat="42.3530090" lon="-8.4004260">
        <ele>521.4</ele>
        <time>2022-08-28T14:14:40Z</time>
      </trkpt>
      <trkpt lat="42.3529450" lon="-8.4006320">
        <ele>521.6</ele>
        <time>2022-08-28T14:14:44Z</time>
      </trkpt>
      <trkpt lat="42.3528560" lon="-8.4008520">
        <ele>521.8</ele>
        <time>2022-08-28T14:14:50Z</time>
      </trkpt>
      <trkpt lat="42.3528180" lon="-8.4009520">
        <ele>522.4</ele>
        <time>2022-08-28T14:14:54Z</time>
      </trkpt>
      <trkpt lat="42.3528190" lon="-8.4009660">
        <ele>522.6</ele>
        <time>2022-08-28T14:14:55Z</time>
      </trkpt>
      <trkpt lat="42.3528200" lon="-8.4009740">
        <ele>523.0</ele>
        <time>2022-08-28T14:14:57Z</time>
      </trkpt>
      <trkpt lat="42.3527610" lon="-8.4010110">
        <ele>523.8</ele>
        <time>2022-08-28T14:15:43Z</time>
      </trkpt>
      <trkpt lat="42.3527480" lon="-8.4010380">
        <ele>523.8</ele>
        <time>2022-08-28T14:15:45Z</time>
      </trkpt>
      <trkpt lat="42.3527430" lon="-8.4010470">
        <ele>524.0</ele>
        <time>2022-08-28T14:15:48Z</time>
      </trkpt>
      <trkpt lat="42.3526740" lon="-8.4010500">
        <ele>524.4</ele>
        <time>2022-08-28T14:19:25Z</time>
      </trkpt>
      <trkpt lat="42.3526530" lon="-8.4010530">
        <ele>524.4</ele>
        <time>2022-08-28T14:19:26Z</time>
      </trkpt>
      <trkpt lat="42.3524750" lon="-8.4010480">
        <ele>524.8</ele>
        <time>2022-08-28T14:19:34Z</time>
      </trkpt>
      <trkpt lat="42.3524270" lon="-8.4010390">
        <ele>525.0</ele>
        <time>2022-08-28T14:19:36Z</time>
      </trkpt>
      <trkpt lat="42.3522170" lon="-8.4009960">
        <ele>525.6</ele>
        <time>2022-08-28T14:19:45Z</time>
      </trkpt>
      <trkpt lat="42.3521450" lon="-8.4009780">
        <ele>526.0</ele>
        <time>2022-08-28T14:19:48Z</time>
      </trkpt>
      <trkpt lat="42.3519750" lon="-8.4009480">
        <ele>526.6</ele>
        <time>2022-08-28T14:19:55Z</time>
      </trkpt>
      <trkpt lat="42.3518530" lon="-8.4009720">
        <ele>527.0</ele>
        <time>2022-08-28T14:20:00Z</time>
      </trkpt>
      <trkpt lat="42.3517860" lon="-8.4010090">
        <ele>527.2</ele>
        <time>2022-08-28T14:20:03Z</time>
      </trkpt>
      <trkpt lat="42.3516300" lon="-8.4011600">
        <ele>528.2</ele>
        <time>2022-08-28T14:20:11Z</time>
      </trkpt>
      <trkpt lat="42.3514920" lon="-8.4013350">
        <ele>529.2</ele>
        <time>2022-08-28T14:20:19Z</time>
      </trkpt>
      <trkpt lat="42.3513810" lon="-8.4014640">
        <ele>530.2</ele>
        <time>2022-08-28T14:20:25Z</time>
      </trkpt>
      <trkpt lat="42.3513450" lon="-8.4015080">
        <ele>530.4</ele>
        <time>2022-08-28T14:20:27Z</time>
      </trkpt>
      <trkpt lat="42.3512200" lon="-8.4016640">
        <ele>531.2</ele>
        <time>2022-08-28T14:20:34Z</time>
      </trkpt>
      <trkpt lat="42.3511500" lon="-8.4017510">
        <ele>531.8</ele>
        <time>2022-08-28T14:20:38Z</time>
      </trkpt>
      <trkpt lat="42.3510620" lon="-8.4018690">
        <ele>532.4</ele>
        <time>2022-08-28T14:20:43Z</time>
      </trkpt>
      <trkpt lat="42.3509620" lon="-8.4019800">
        <ele>532.8</ele>
        <time>2022-08-28T14:20:48Z</time>
      </trkpt>
      <trkpt lat="42.3508070" lon="-8.4020530">
        <ele>533.0</ele>
        <time>2022-08-28T14:20:54Z</time>
      </trkpt>
      <trkpt lat="42.3506490" lon="-8.4019890">
        <ele>533.0</ele>
        <time>2022-08-28T14:20:59Z</time>
      </trkpt>
      <trkpt lat="42.3505280" lon="-8.4019460">
        <ele>533.0</ele>
        <time>2022-08-28T14:21:02Z</time>
      </trkpt>
      <trkpt lat="42.3504250" lon="-8.4019500">
        <ele>532.8</ele>
        <time>2022-08-28T14:21:04Z</time>
      </trkpt>
      <trkpt lat="42.3503130" lon="-8.4020030">
        <ele>532.8</ele>
        <time>2022-08-28T14:21:06Z</time>
      </trkpt>
      <trkpt lat="42.3502020" lon="-8.4020690">
        <ele>532.8</ele>
        <time>2022-08-28T14:21:08Z</time>
      </trkpt>
      <trkpt lat="42.3501020" lon="-8.4021360">
        <ele>532.0</ele>
        <time>2022-08-28T14:21:10Z</time>
      </trkpt>
      <trkpt lat="42.3500170" lon="-8.4022420">
        <ele>531.2</ele>
        <time>2022-08-28T14:21:12Z</time>
      </trkpt>
      <trkpt lat="42.3499780" lon="-8.4023840">
        <ele>530.2</ele>
        <time>2022-08-28T14:21:14Z</time>
      </trkpt>
      <trkpt lat="42.3499820" lon="-8.4024610">
        <ele>529.8</ele>
        <time>2022-08-28T14:21:15Z</time>
      </trkpt>
      <trkpt lat="42.3499910" lon="-8.4025410">
        <ele>529.4</ele>
        <time>2022-08-28T14:21:16Z</time>
      </trkpt>
      <trkpt lat="42.3499990" lon="-8.4026240">
        <ele>529.0</ele>
        <time>2022-08-28T14:21:17Z</time>
      </trkpt>
      <trkpt lat="42.3500180" lon="-8.4029000">
        <ele>527.6</ele>
        <time>2022-08-28T14:21:20Z</time>
      </trkpt>
      <trkpt lat="42.3500220" lon="-8.4030030">
        <ele>527.2</ele>
        <time>2022-08-28T14:21:21Z</time>
      </trkpt>
      <trkpt lat="42.3500250" lon="-8.4031090">
        <ele>526.8</ele>
        <time>2022-08-28T14:21:22Z</time>
      </trkpt>
      <trkpt lat="42.3500400" lon="-8.4033330">
        <ele>525.8</ele>
        <time>2022-08-28T14:21:24Z</time>
      </trkpt>
      <trkpt lat="42.3500740" lon="-8.4035780">
        <ele>524.8</ele>
        <time>2022-08-28T14:21:26Z</time>
      </trkpt>
      <trkpt lat="42.3500960" lon="-8.4037020">
        <ele>524.2</ele>
        <time>2022-08-28T14:21:27Z</time>
      </trkpt>
      <trkpt lat="42.3501600" lon="-8.4039570">
        <ele>522.8</ele>
        <time>2022-08-28T14:21:29Z</time>
      </trkpt>
      <trkpt lat="42.3502040" lon="-8.4040800">
        <ele>522.2</ele>
        <time>2022-08-28T14:21:30Z</time>
      </trkpt>
      <trkpt lat="42.3502570" lon="-8.4041990">
        <ele>521.6</ele>
        <time>2022-08-28T14:21:31Z</time>
      </trkpt>
      <trkpt lat="42.3503600" lon="-8.4044170">
        <ele>520.4</ele>
        <time>2022-08-28T14:21:33Z</time>
      </trkpt>
      <trkpt lat="42.3504540" lon="-8.4046000">
        <ele>519.4</ele>
        <time>2022-08-28T14:21:35Z</time>
      </trkpt>
      <trkpt lat="42.3504930" lon="-8.4046770">
        <ele>518.6</ele>
        <time>2022-08-28T14:21:36Z</time>
      </trkpt>
      <trkpt lat="42.3505590" lon="-8.4048060">
        <ele>517.2</ele>
        <time>2022-08-28T14:21:38Z</time>
      </trkpt>
      <trkpt lat="42.3505860" lon="-8.4048630">
        <ele>515.4</ele>
        <time>2022-08-28T14:21:39Z</time>
      </trkpt>
      <trkpt lat="42.3506100" lon="-8.4049140">
        <ele>514.2</ele>
        <time>2022-08-28T14:21:40Z</time>
      </trkpt>
      <trkpt lat="42.3506530" lon="-8.4050140">
        <ele>513.2</ele>
        <time>2022-08-28T14:21:42Z</time>
      </trkpt>
      <trkpt lat="42.3506800" lon="-8.4050600">
        <ele>512.8</ele>
        <time>2022-08-28T14:21:43Z</time>
      </trkpt>
      <trkpt lat="42.3507070" lon="-8.4051020">
        <ele>512.2</ele>
        <time>2022-08-28T14:21:44Z</time>
      </trkpt>
      <trkpt lat="42.3507370" lon="-8.4051360">
        <ele>512.0</ele>
        <time>2022-08-28T14:21:45Z</time>
      </trkpt>
      <trkpt lat="42.3508030" lon="-8.4051760">
        <ele>511.6</ele>
        <time>2022-08-28T14:21:48Z</time>
      </trkpt>
      <trkpt lat="42.3509020" lon="-8.4051830">
        <ele>511.6</ele>
        <time>2022-08-28T14:21:54Z</time>
      </trkpt>
      <trkpt lat="42.3510020" lon="-8.4051580">
        <ele>513.0</ele>
        <time>2022-08-28T14:22:01Z</time>
      </trkpt>
      <trkpt lat="42.3510160" lon="-8.4051510">
        <ele>513.4</ele>
        <time>2022-08-28T14:22:02Z</time>
      </trkpt>
      <trkpt lat="42.3510980" lon="-8.4051250">
        <ele>514.4</ele>
        <time>2022-08-28T14:22:07Z</time>
      </trkpt>
      <trkpt lat="42.3511920" lon="-8.4050880">
        <ele>515.4</ele>
        <time>2022-08-28T14:22:13Z</time>
      </trkpt>
      <trkpt lat="42.3512240" lon="-8.4050690">
        <ele>515.8</ele>
        <time>2022-08-28T14:22:15Z</time>
      </trkpt>
      <trkpt lat="42.3512900" lon="-8.4050060">
        <ele>516.4</ele>
        <time>2022-08-28T14:22:20Z</time>
      </trkpt>
      <trkpt lat="42.3513160" lon="-8.4049860">
        <ele>516.6</ele>
        <time>2022-08-28T14:22:22Z</time>
      </trkpt>
      <trkpt lat="42.3514110" lon="-8.4049270">
        <ele>517.4</ele>
        <time>2022-08-28T14:22:29Z</time>
      </trkpt>
      <trkpt lat="42.3514230" lon="-8.4049190">
        <ele>517.6</ele>
        <time>2022-08-28T14:22:30Z</time>
      </trkpt>
      <trkpt lat="42.3515150" lon="-8.4048600">
        <ele>518.4</ele>
        <time>2022-08-28T14:22:36Z</time>
      </trkpt>
      <trkpt lat="42.3515300" lon="-8.4048490">
        <ele>518.6</ele>
        <time>2022-08-28T14:22:37Z</time>
      </trkpt>
      <trkpt lat="42.3516280" lon="-8.4047920">
        <ele>519.6</ele>
        <time>2022-08-28T14:22:43Z</time>
      </trkpt>
      <trkpt lat="42.3517710" lon="-8.4047460">
        <ele>520.6</ele>
        <time>2022-08-28T14:22:51Z</time>
      </trkpt>
      <trkpt lat="42.3519050" lon="-8.4047090">
        <ele>521.4</ele>
        <time>2022-08-28T14:22:59Z</time>
      </trkpt>
      <trkpt lat="42.3519360" lon="-8.4047070">
        <ele>521.8</ele>
        <time>2022-08-28T14:23:01Z</time>
      </trkpt>
      <trkpt lat="42.3519880" lon="-8.4047050">
        <ele>522.2</ele>
        <time>2022-08-28T14:23:05Z</time>
      </trkpt>
      <trkpt lat="42.3520430" lon="-8.4047390">
        <ele>522.8</ele>
        <time>2022-08-28T14:23:09Z</time>
      </trkpt>
      <trkpt lat="42.3520750" lon="-8.4047600">
        <ele>523.2</ele>
        <time>2022-08-28T14:23:11Z</time>
      </trkpt>
      <trkpt lat="42.3521590" lon="-8.4048310">
        <ele>523.8</ele>
        <time>2022-08-28T14:23:16Z</time>
      </trkpt>
      <trkpt lat="42.3521910" lon="-8.4048590">
        <ele>524.2</ele>
        <time>2022-08-28T14:23:18Z</time>
      </trkpt>
      <trkpt lat="42.3522550" lon="-8.4049460">
        <ele>524.8</ele>
        <time>2022-08-28T14:23:23Z</time>
      </trkpt>
      <trkpt lat="42.3522780" lon="-8.4049830">
        <ele>525.0</ele>
        <time>2022-08-28T14:23:25Z</time>
      </trkpt>
      <trkpt lat="42.3523480" lon="-8.4050860">
        <ele>525.8</ele>
        <time>2022-08-28T14:23:31Z</time>
      </trkpt>
      <trkpt lat="42.3523590" lon="-8.4051040">
        <ele>525.8</ele>
        <time>2022-08-28T14:23:32Z</time>
      </trkpt>
      <trkpt lat="42.3524360" lon="-8.4052150">
        <ele>526.8</ele>
        <time>2022-08-28T14:23:39Z</time>
      </trkpt>
      <trkpt lat="42.3525390" lon="-8.4053100">
        <ele>527.6</ele>
        <time>2022-08-28T14:23:46Z</time>
      </trkpt>
      <trkpt lat="42.3525610" lon="-8.4053320">
        <ele>527.8</ele>
        <time>2022-08-28T14:23:48Z</time>
      </trkpt>
      <trkpt lat="42.3526080" lon="-8.4053880">
        <ele>528.6</ele>
        <time>2022-08-28T14:23:52Z</time>
      </trkpt>
      <trkpt lat="42.3526280" lon="-8.4054130">
        <ele>529.0</ele>
        <time>2022-08-28T14:23:54Z</time>
      </trkpt>
      <trkpt lat="42.3526740" lon="-8.4054520">
        <ele>529.4</ele>
        <time>2022-08-28T14:23:58Z</time>
      </trkpt>
      <trkpt lat="42.3527150" lon="-8.4055020">
        <ele>530.0</ele>
        <time>2022-08-28T14:24:02Z</time>
      </trkpt>
      <trkpt lat="42.3527580" lon="-8.4055370">
        <ele>530.6</ele>
        <time>2022-08-28T14:24:05Z</time>
      </trkpt>
      <trkpt lat="42.3527900" lon="-8.4055770">
        <ele>531.2</ele>
        <time>2022-08-28T14:24:08Z</time>
      </trkpt>
      <trkpt lat="42.3528400" lon="-8.4056250">
        <ele>532.0</ele>
        <time>2022-08-28T14:24:12Z</time>
      </trkpt>
      <trkpt lat="42.3528550" lon="-8.4056380">
        <ele>532.2</ele>
        <time>2022-08-28T14:24:13Z</time>
      </trkpt>
      <trkpt lat="42.3529610" lon="-8.4056990">
        <ele>533.4</ele>
        <time>2022-08-28T14:24:19Z</time>
      </trkpt>
      <trkpt lat="42.3529820" lon="-8.4057040">
        <ele>533.4</ele>
        <time>2022-08-28T14:24:20Z</time>
      </trkpt>
      <trkpt lat="42.3531260" lon="-8.4057600">
        <ele>533.8</ele>
        <time>2022-08-28T14:24:26Z</time>
      </trkpt>
      <trkpt lat="42.3533000" lon="-8.4058210">
        <ele>533.8</ele>
        <time>2022-08-28T14:24:31Z</time>
      </trkpt>
      <trkpt lat="42.3535480" lon="-8.4059020">
        <ele>533.2</ele>
        <time>2022-08-28T14:24:37Z</time>
      </trkpt>
      <trkpt lat="42.3537970" lon="-8.4059970">
        <ele>532.8</ele>
        <time>2022-08-28T14:24:42Z</time>
      </trkpt>
      <trkpt lat="42.3538480" lon="-8.4060300">
        <ele>532.6</ele>
        <time>2022-08-28T14:24:43Z</time>
      </trkpt>
      <trkpt lat="42.3539340" lon="-8.4060810">
        <ele>532.2</ele>
        <time>2022-08-28T14:24:45Z</time>
      </trkpt>
      <trkpt lat="42.3540220" lon="-8.4061250">
        <ele>531.8</ele>
        <time>2022-08-28T14:24:47Z</time>
      </trkpt>
      <trkpt lat="42.3541640" lon="-8.4061400">
        <ele>531.2</ele>
        <time>2022-08-28T14:24:50Z</time>
      </trkpt>
      <trkpt lat="42.3542020" lon="-8.4061280">
        <ele>531.0</ele>
        <time>2022-08-28T14:24:51Z</time>
      </trkpt>
      <trkpt lat="42.3542970" lon="-8.4060750">
        <ele>530.6</ele>
        <time>2022-08-28T14:24:54Z</time>
      </trkpt>
      <trkpt lat="42.3543460" lon="-8.4060420">
        <ele>530.6</ele>
        <time>2022-08-28T14:24:56Z</time>
      </trkpt>
      <trkpt lat="42.3544420" lon="-8.4059310">
        <ele>530.6</ele>
        <time>2022-08-28T14:25:02Z</time>
      </trkpt>
      <trkpt lat="42.3545420" lon="-8.4058170">
        <ele>532.0</ele>
        <time>2022-08-28T14:25:09Z</time>
      </trkpt>
      <trkpt lat="42.3545550" lon="-8.4058020">
        <ele>532.2</ele>
        <time>2022-08-28T14:25:10Z</time>
      </trkpt>
      <trkpt lat="42.3546220" lon="-8.4057350">
        <ele>533.6</ele>
        <time>2022-08-28T14:25:15Z</time>
      </trkpt>
      <trkpt lat="42.3546350" lon="-8.4057210">
        <ele>533.8</ele>
        <time>2022-08-28T14:25:16Z</time>
      </trkpt>
      <trkpt lat="42.3546840" lon="-8.4056530">
        <ele>534.6</ele>
        <time>2022-08-28T14:25:20Z</time>
      </trkpt>
      <trkpt lat="42.3547150" lon="-8.4056230">
        <ele>535.0</ele>
        <time>2022-08-28T14:25:22Z</time>
      </trkpt>
      <trkpt lat="42.3548000" lon="-8.4055420">
        <ele>535.6</ele>
        <time>2022-08-28T14:25:27Z</time>
      </trkpt>
      <trkpt lat="42.3548500" lon="-8.4054650">
        <ele>536.2</ele>
        <time>2022-08-28T14:25:31Z</time>
      </trkpt>
      <trkpt lat="42.3548820" lon="-8.4054080">
        <ele>536.8</ele>
        <time>2022-08-28T14:25:34Z</time>
      </trkpt>
      <trkpt lat="42.3549400" lon="-8.4052870">
        <ele>537.6</ele>
        <time>2022-08-28T14:25:40Z</time>
      </trkpt>
      <trkpt lat="42.3549610" lon="-8.4052420">
        <ele>537.8</ele>
        <time>2022-08-28T14:25:42Z</time>
      </trkpt>
      <trkpt lat="42.3550060" lon="-8.4051220">
        <ele>538.6</ele>
        <time>2022-08-28T14:25:48Z</time>
      </trkpt>
      <trkpt lat="42.3550140" lon="-8.4051020">
        <ele>538.8</ele>
        <time>2022-08-28T14:25:49Z</time>
      </trkpt>
      <trkpt lat="42.3550220" lon="-8.4050800">
        <ele>538.8</ele>
        <time>2022-08-28T14:25:50Z</time>
      </trkpt>
      <trkpt lat="42.3550520" lon="-8.4050330">
        <ele>539.2</ele>
        <time>2022-08-28T14:25:53Z</time>
      </trkpt>
      <trkpt lat="42.3550740" lon="-8.4050290">
        <ele>539.4</ele>
        <time>2022-08-28T14:25:55Z</time>
      </trkpt>
      <trkpt lat="42.3550810" lon="-8.4050270">
        <ele>539.4</ele>
        <time>2022-08-28T14:25:57Z</time>
      </trkpt>
      <trkpt lat="42.3551110" lon="-8.4050710">
        <ele>538.4</ele>
        <time>2022-08-28T14:26:26Z</time>
      </trkpt>
      <trkpt lat="42.3551320" lon="-8.4051030">
        <ele>538.4</ele>
        <time>2022-08-28T14:26:27Z</time>
      </trkpt>
      <trkpt lat="42.3552560" lon="-8.4052990">
        <ele>538.4</ele>
        <time>2022-08-28T14:26:32Z</time>
      </trkpt>
      <trkpt lat="42.3554310" lon="-8.4055330">
        <ele>537.6</ele>
        <time>2022-08-28T14:26:38Z</time>
      </trkpt>
      <trkpt lat="42.3554650" lon="-8.4055600">
        <ele>537.4</ele>
        <time>2022-08-28T14:26:39Z</time>
      </trkpt>
      <trkpt lat="42.3557460" lon="-8.4057540">
        <ele>537.2</ele>
        <time>2022-08-28T14:26:47Z</time>
      </trkpt>
      <trkpt lat="42.3560820" lon="-8.4060230">
        <ele>537.0</ele>
        <time>2022-08-28T14:26:56Z</time>
      </trkpt>
      <trkpt lat="42.3563160" lon="-8.4063290">
        <ele>536.8</ele>
        <time>2022-08-28T14:27:03Z</time>
      </trkpt>
      <trkpt lat="42.3564020" lon="-8.4064380">
        <ele>536.6</ele>
        <time>2022-08-28T14:27:06Z</time>
      </trkpt>
      <trkpt lat="42.3564600" lon="-8.4065050">
        <ele>536.4</ele>
        <time>2022-08-28T14:27:08Z</time>
      </trkpt>
      <trkpt lat="42.3566240" lon="-8.4067020">
        <ele>536.4</ele>
        <time>2022-08-28T14:27:15Z</time>
      </trkpt>
      <trkpt lat="42.3567520" lon="-8.4067970">
        <ele>537.0</ele>
        <time>2022-08-28T14:27:22Z</time>
      </trkpt>
      <trkpt lat="42.3567960" lon="-8.4068380">
        <ele>537.6</ele>
        <time>2022-08-28T14:27:25Z</time>
      </trkpt>
      <trkpt lat="42.3568530" lon="-8.4068900">
        <ele>538.6</ele>
        <time>2022-08-28T14:27:29Z</time>
      </trkpt>
      <trkpt lat="42.3568900" lon="-8.4069210">
        <ele>539.2</ele>
        <time>2022-08-28T14:27:32Z</time>
      </trkpt>
      <trkpt lat="42.3569230" lon="-8.4069460">
        <ele>539.8</ele>
        <time>2022-08-28T14:27:35Z</time>
      </trkpt>
      <trkpt lat="42.3569750" lon="-8.4069810">
        <ele>540.8</ele>
        <time>2022-08-28T14:27:40Z</time>
      </trkpt>
      <trkpt lat="42.3570330" lon="-8.4070280">
        <ele>541.8</ele>
        <time>2022-08-28T14:27:46Z</time>
      </trkpt>
      <trkpt lat="42.3570630" lon="-8.4070500">
        <ele>542.4</ele>
        <time>2022-08-28T14:27:49Z</time>
      </trkpt>
      <trkpt lat="42.3570950" lon="-8.4070730">
        <ele>543.0</ele>
        <time>2022-08-28T14:27:52Z</time>
      </trkpt>
      <trkpt lat="42.3571560" lon="-8.4071230">
        <ele>544.2</ele>
        <time>2022-08-28T14:27:58Z</time>
      </trkpt>
      <trkpt lat="42.3572180" lon="-8.4071760">
        <ele>545.2</ele>
        <time>2022-08-28T14:28:04Z</time>
      </trkpt>
      <trkpt lat="42.3572510" lon="-8.4072010">
        <ele>545.8</ele>
        <time>2022-08-28T14:28:07Z</time>
      </trkpt>
      <trkpt lat="42.3573020" lon="-8.4072420">
        <ele>546.2</ele>
        <time>2022-08-28T14:28:12Z</time>
      </trkpt>
      <trkpt lat="42.3573250" lon="-8.4072570">
        <ele>546.4</ele>
        <time>2022-08-28T14:28:14Z</time>
      </trkpt>
      <trkpt lat="42.3573880" lon="-8.4072960">
        <ele>547.6</ele>
        <time>2022-08-28T14:28:19Z</time>
      </trkpt>
      <trkpt lat="42.3574470" lon="-8.4073270">
        <ele>548.4</ele>
        <time>2022-08-28T14:28:23Z</time>
      </trkpt>
      <trkpt lat="42.3574940" lon="-8.4073520">
        <ele>548.8</ele>
        <time>2022-08-28T14:28:26Z</time>
      </trkpt>
      <trkpt lat="42.3575650" lon="-8.4073930">
        <ele>549.6</ele>
        <time>2022-08-28T14:28:31Z</time>
      </trkpt>
      <trkpt lat="42.3575940" lon="-8.4074100">
        <ele>549.8</ele>
        <time>2022-08-28T14:28:33Z</time>
      </trkpt>
      <trkpt lat="42.3576650" lon="-8.4074590">
        <ele>550.6</ele>
        <time>2022-08-28T14:28:38Z</time>
      </trkpt>
      <trkpt lat="42.3576930" lon="-8.4074790">
        <ele>551.0</ele>
        <time>2022-08-28T14:28:40Z</time>
      </trkpt>
      <trkpt lat="42.3577210" lon="-8.4074960">
        <ele>551.2</ele>
        <time>2022-08-28T14:28:42Z</time>
      </trkpt>
      <trkpt lat="42.3578110" lon="-8.4075700">
        <ele>552.0</ele>
        <time>2022-08-28T14:28:48Z</time>
      </trkpt>
      <trkpt lat="42.3579390" lon="-8.4076800">
        <ele>553.2</ele>
        <time>2022-08-28T14:28:54Z</time>
      </trkpt>
      <trkpt lat="42.3579630" lon="-8.4077010">
        <ele>553.2</ele>
        <time>2022-08-28T14:28:55Z</time>
      </trkpt>
      <trkpt lat="42.3581150" lon="-8.4078290">
        <ele>553.4</ele>
        <time>2022-08-28T14:29:00Z</time>
      </trkpt>
      <trkpt lat="42.3583600" lon="-8.4080260">
        <ele>553.2</ele>
        <time>2022-08-28T14:29:06Z</time>
      </trkpt>
      <trkpt lat="42.3586510" lon="-8.4082130">
        <ele>552.0</ele>
        <time>2022-08-28T14:29:12Z</time>
      </trkpt>
      <trkpt lat="42.3587060" lon="-8.4082330">
        <ele>551.8</ele>
        <time>2022-08-28T14:29:13Z</time>
      </trkpt>
      <trkpt lat="42.3589400" lon="-8.4082510">
        <ele>551.2</ele>
        <time>2022-08-28T14:29:17Z</time>
      </trkpt>
      <trkpt lat="42.3590740" lon="-8.4082400">
        <ele>551.0</ele>
        <time>2022-08-28T14:29:19Z</time>
      </trkpt>
      <trkpt lat="42.3593720" lon="-8.4081890">
        <ele>550.2</ele>
        <time>2022-08-28T14:29:23Z</time>
      </trkpt>
      <trkpt lat="42.3595220" lon="-8.4081670">
        <ele>549.8</ele>
        <time>2022-08-28T14:29:25Z</time>
      </trkpt>
      <trkpt lat="42.3598000" lon="-8.4081330">
        <ele>548.6</ele>
        <time>2022-08-28T14:29:29Z</time>
      </trkpt>
      <trkpt lat="42.3599270" lon="-8.4081170">
        <ele>547.4</ele>
        <time>2022-08-28T14:29:31Z</time>
      </trkpt>
      <trkpt lat="42.3602860" lon="-8.4080790">
        <ele>546.4</ele>
        <time>2022-08-28T14:29:37Z</time>
      </trkpt>
      <trkpt lat="42.3604520" lon="-8.4080550">
        <ele>546.2</ele>
        <time>2022-08-28T14:29:40Z</time>
      </trkpt>
      <trkpt lat="42.3605610" lon="-8.4080330">
        <ele>546.0</ele>
        <time>2022-08-28T14:29:42Z</time>
      </trkpt>
      <trkpt lat="42.3606680" lon="-8.4080090">
        <ele>545.6</ele>
        <time>2022-08-28T14:29:44Z</time>
      </trkpt>
      <trkpt lat="42.3609220" lon="-8.4079760">
        <ele>545.2</ele>
        <time>2022-08-28T14:29:49Z</time>
      </trkpt>
      <trkpt lat="42.3609690" lon="-8.4079810">
        <ele>545.2</ele>
        <time>2022-08-28T14:29:50Z</time>
      </trkpt>
      <trkpt lat="42.3610130" lon="-8.4079920">
        <ele>545.2</ele>
        <time>2022-08-28T14:29:51Z</time>
      </trkpt>
      <trkpt lat="42.3611640" lon="-8.4080720">
        <ele>545.2</ele>
        <time>2022-08-28T14:29:55Z</time>
      </trkpt>
      <trkpt lat="42.3612840" lon="-8.4081180">
        <ele>545.2</ele>
        <time>2022-08-28T14:29:58Z</time>
      </trkpt>
      <trkpt lat="42.3613740" lon="-8.4081230">
        <ele>545.4</ele>
        <time>2022-08-28T14:30:00Z</time>
      </trkpt>
      <trkpt lat="42.3617360" lon="-8.4080470">
        <ele>545.6</ele>
        <time>2022-08-28T14:30:08Z</time>
      </trkpt>
      <trkpt lat="42.3618680" lon="-8.4080980">
        <ele>545.6</ele>
        <time>2022-08-28T14:30:11Z</time>
      </trkpt>
      <trkpt lat="42.3619250" lon="-8.4082040">
        <ele>545.4</ele>
        <time>2022-08-28T14:30:13Z</time>
      </trkpt>
      <trkpt lat="42.3619640" lon="-8.4083080">
        <ele>545.4</ele>
        <time>2022-08-28T14:30:15Z</time>
      </trkpt>
      <trkpt lat="42.3621000" lon="-8.4085880">
        <ele>545.4</ele>
        <time>2022-08-28T14:30:21Z</time>
      </trkpt>
      <trkpt lat="42.3623260" lon="-8.4088880">
        <ele>545.2</ele>
        <time>2022-08-28T14:30:28Z</time>
      </trkpt>
      <trkpt lat="42.3626030" lon="-8.4091290">
        <ele>544.6</ele>
        <time>2022-08-28T14:30:34Z</time>
      </trkpt>
      <trkpt lat="42.3628330" lon="-8.4092590">
        <ele>544.0</ele>
        <time>2022-08-28T14:30:38Z</time>
      </trkpt>
      <trkpt lat="42.3629560" lon="-8.4093100">
        <ele>543.2</ele>
        <time>2022-08-28T14:30:40Z</time>
      </trkpt>
      <trkpt lat="42.3630230" lon="-8.4093380">
        <ele>542.8</ele>
        <time>2022-08-28T14:30:41Z</time>
      </trkpt>
      <trkpt lat="42.3633110" lon="-8.4094690">
        <ele>541.4</ele>
        <time>2022-08-28T14:30:45Z</time>
      </trkpt>
      <trkpt lat="42.3636190" lon="-8.4095840">
        <ele>540.0</ele>
        <time>2022-08-28T14:30:50Z</time>
      </trkpt>
      <trkpt lat="42.3636680" lon="-8.4096090">
        <ele>539.8</ele>
        <time>2022-08-28T14:30:51Z</time>
      </trkpt>
      <trkpt lat="42.3638090" lon="-8.4096680">
        <ele>539.6</ele>
        <time>2022-08-28T14:30:55Z</time>
      </trkpt>
      <trkpt lat="42.3639530" lon="-8.4096460">
        <ele>539.8</ele>
        <time>2022-08-28T14:31:00Z</time>
      </trkpt>
      <trkpt lat="42.3640830" lon="-8.4095760">
        <ele>541.0</ele>
        <time>2022-08-28T14:31:06Z</time>
      </trkpt>
      <trkpt lat="42.3642060" lon="-8.4094760">
        <ele>542.2</ele>
        <time>2022-08-28T14:31:13Z</time>
      </trkpt>
      <trkpt lat="42.3643110" lon="-8.4094070">
        <ele>543.2</ele>
        <time>2022-08-28T14:31:19Z</time>
      </trkpt>
      <trkpt lat="42.3643290" lon="-8.4093910">
        <ele>543.4</ele>
        <time>2022-08-28T14:31:20Z</time>
      </trkpt>
      <trkpt lat="42.3644490" lon="-8.4092620">
        <ele>544.2</ele>
        <time>2022-08-28T14:31:27Z</time>
      </trkpt>
      <trkpt lat="42.3644790" lon="-8.4092250">
        <ele>544.4</ele>
        <time>2022-08-28T14:31:29Z</time>
      </trkpt>
      <trkpt lat="42.3645730" lon="-8.4091490">
        <ele>544.8</ele>
        <time>2022-08-28T14:31:35Z</time>
      </trkpt>
      <trkpt lat="42.3646540" lon="-8.4091000">
        <ele>545.6</ele>
        <time>2022-08-28T14:31:41Z</time>
      </trkpt>
      <trkpt lat="42.3646820" lon="-8.4090800">
        <ele>546.0</ele>
        <time>2022-08-28T14:31:43Z</time>
      </trkpt>
      <trkpt lat="42.3647230" lon="-8.4090530">
        <ele>546.8</ele>
        <time>2022-08-28T14:31:46Z</time>
      </trkpt>
      <trkpt lat="42.3647910" lon="-8.4090070">
        <ele>547.6</ele>
        <time>2022-08-28T14:31:51Z</time>
      </trkpt>
      <trkpt lat="42.3648030" lon="-8.4089930">
        <ele>547.8</ele>
        <time>2022-08-28T14:31:52Z</time>
      </trkpt>
      <trkpt lat="42.3648810" lon="-8.4089170">
        <ele>549.2</ele>
        <time>2022-08-28T14:31:58Z</time>
      </trkpt>
      <trkpt lat="42.3649360" lon="-8.4088730">
        <ele>549.8</ele>
        <time>2022-08-28T14:32:02Z</time>
      </trkpt>
      <trkpt lat="42.3649610" lon="-8.4088490">
        <ele>550.2</ele>
        <time>2022-08-28T14:32:04Z</time>
      </trkpt>
      <trkpt lat="42.3650260" lon="-8.4087940">
        <ele>551.0</ele>
        <time>2022-08-28T14:32:09Z</time>
      </trkpt>
      <trkpt lat="42.3650490" lon="-8.4087680">
        <ele>551.4</ele>
        <time>2022-08-28T14:32:11Z</time>
      </trkpt>
      <trkpt lat="42.3650760" lon="-8.4086850">
        <ele>552.2</ele>
        <time>2022-08-28T14:32:15Z</time>
      </trkpt>
      <trkpt lat="42.3650780" lon="-8.4086610">
        <ele>552.6</ele>
        <time>2022-08-28T14:32:16Z</time>
      </trkpt>
      <trkpt lat="42.3650650" lon="-8.4084960">
        <ele>553.4</ele>
        <time>2022-08-28T14:32:24Z</time>
      </trkpt>
      <trkpt lat="42.3650560" lon="-8.4084780">
        <ele>553.6</ele>
        <time>2022-08-28T14:32:25Z</time>
      </trkpt>
      <trkpt lat="42.3649820" lon="-8.4083710">
        <ele>554.6</ele>
        <time>2022-08-28T14:32:32Z</time>
      </trkpt>
      <trkpt lat="42.3649610" lon="-8.4083420">
        <ele>554.6</ele>
        <time>2022-08-28T14:32:34Z</time>
      </trkpt>
      <trkpt lat="42.3649010" lon="-8.4082490">
        <ele>555.4</ele>
        <time>2022-08-28T14:32:40Z</time>
      </trkpt>
      <trkpt lat="42.3648750" lon="-8.4081540">
        <ele>555.8</ele>
        <time>2022-08-28T14:32:45Z</time>
      </trkpt>
      <trkpt lat="42.3648770" lon="-8.4081010">
        <ele>556.2</ele>
        <time>2022-08-28T14:32:48Z</time>
      </trkpt>
      <trkpt lat="42.3649010" lon="-8.4080220">
        <ele>556.8</ele>
        <time>2022-08-28T14:32:53Z</time>
      </trkpt>
      <trkpt lat="42.3649300" lon="-8.4079660">
        <ele>558.0</ele>
        <time>2022-08-28T14:32:57Z</time>
      </trkpt>
      <trkpt lat="42.3649940" lon="-8.4079100">
        <ele>559.0</ele>
        <time>2022-08-28T14:33:03Z</time>
      </trkpt>
      <trkpt lat="42.3650060" lon="-8.4079000">
        <ele>559.4</ele>
        <time>2022-08-28T14:33:04Z</time>
      </trkpt>
      <trkpt lat="42.3650610" lon="-8.4078600">
        <ele>560.2</ele>
        <time>2022-08-28T14:33:09Z</time>
      </trkpt>
      <trkpt lat="42.3650960" lon="-8.4078440">
        <ele>560.8</ele>
        <time>2022-08-28T14:33:12Z</time>
      </trkpt>
      <trkpt lat="42.3651210" lon="-8.4078340">
        <ele>561.4</ele>
        <time>2022-08-28T14:33:14Z</time>
      </trkpt>
      <trkpt lat="42.3652080" lon="-8.4078060">
        <ele>562.4</ele>
        <time>2022-08-28T14:33:21Z</time>
      </trkpt>
      <trkpt lat="42.3652230" lon="-8.4078020">
        <ele>562.4</ele>
        <time>2022-08-28T14:33:22Z</time>
      </trkpt>
      <trkpt lat="42.3653070" lon="-8.4077600">
        <ele>563.8</ele>
        <time>2022-08-28T14:33:28Z</time>
      </trkpt>
      <trkpt lat="42.3653470" lon="-8.4077370">
        <ele>564.2</ele>
        <time>2022-08-28T14:33:31Z</time>
      </trkpt>
      <trkpt lat="42.3654060" lon="-8.4077090">
        <ele>564.8</ele>
        <time>2022-08-28T14:33:35Z</time>
      </trkpt>
      <trkpt lat="42.3654850" lon="-8.4076660">
        <ele>565.6</ele>
        <time>2022-08-28T14:33:40Z</time>
      </trkpt>
      <trkpt lat="42.3655130" lon="-8.4076490">
        <ele>565.8</ele>
        <time>2022-08-28T14:33:42Z</time>
      </trkpt>
      <trkpt lat="42.3656200" lon="-8.4075900">
        <ele>566.6</ele>
        <time>2022-08-28T14:33:49Z</time>
      </trkpt>
      <trkpt lat="42.3656510" lon="-8.4075690">
        <ele>566.8</ele>
        <time>2022-08-28T14:33:51Z</time>
      </trkpt>
      <trkpt lat="42.3657970" lon="-8.4075030">
        <ele>567.8</ele>
        <time>2022-08-28T14:34:00Z</time>
      </trkpt>
      <trkpt lat="42.3658140" lon="-8.4075030">
        <ele>568.0</ele>
        <time>2022-08-28T14:34:01Z</time>
      </trkpt>
      <trkpt lat="42.3659100" lon="-8.4075390">
        <ele>569.0</ele>
        <time>2022-08-28T14:34:07Z</time>
      </trkpt>
      <trkpt lat="42.3659260" lon="-8.4075470">
        <ele>569.2</ele>
        <time>2022-08-28T14:34:08Z</time>
      </trkpt>
      <trkpt lat="42.3660080" lon="-8.4075950">
        <ele>570.0</ele>
        <time>2022-08-28T14:34:13Z</time>
      </trkpt>
      <trkpt lat="42.3660420" lon="-8.4076140">
        <ele>570.4</ele>
        <time>2022-08-28T14:34:15Z</time>
      </trkpt>
      <trkpt lat="42.3661190" lon="-8.4076420">
        <ele>571.2</ele>
        <time>2022-08-28T14:34:19Z</time>
      </trkpt>
      <trkpt lat="42.3661850" lon="-8.4076360">
        <ele>571.4</ele>
        <time>2022-08-28T14:34:22Z</time>
      </trkpt>
      <trkpt lat="42.3663080" lon="-8.4076140">
        <ele>572.2</ele>
        <time>2022-08-28T14:34:28Z</time>
      </trkpt>
      <trkpt lat="42.3663660" lon="-8.4075890">
        <ele>572.6</ele>
        <time>2022-08-28T14:34:31Z</time>
      </trkpt>
      <trkpt lat="42.3664790" lon="-8.4075240">
        <ele>573.4</ele>
        <time>2022-08-28T14:34:37Z</time>
      </trkpt>
      <trkpt lat="42.3665340" lon="-8.4074630">
        <ele>573.8</ele>
        <time>2022-08-28T14:34:41Z</time>
      </trkpt>
      <trkpt lat="42.3665550" lon="-8.4074040">
        <ele>574.4</ele>
        <time>2022-08-28T14:34:44Z</time>
      </trkpt>
      <trkpt lat="42.3665520" lon="-8.4073620">
        <ele>574.6</ele>
        <time>2022-08-28T14:34:46Z</time>
      </trkpt>
      <trkpt lat="42.3665240" lon="-8.4072600">
        <ele>575.6</ele>
        <time>2022-08-28T14:34:51Z</time>
      </trkpt>
      <trkpt lat="42.3664960" lon="-8.4072050">
        <ele>576.2</ele>
        <time>2022-08-28T14:34:54Z</time>
      </trkpt>
      <trkpt lat="42.3664580" lon="-8.4071340">
        <ele>576.8</ele>
        <time>2022-08-28T14:34:58Z</time>
      </trkpt>
      <trkpt lat="42.3664340" lon="-8.4070870">
        <ele>577.2</ele>
        <time>2022-08-28T14:35:01Z</time>
      </trkpt>
      <trkpt lat="42.3664040" lon="-8.4070500">
        <ele>577.8</ele>
        <time>2022-08-28T14:35:04Z</time>
      </trkpt>
      <trkpt lat="42.3663640" lon="-8.4069780">
        <ele>578.8</ele>
        <time>2022-08-28T14:35:09Z</time>
      </trkpt>
      <trkpt lat="42.3662940" lon="-8.4068560">
        <ele>579.8</ele>
        <time>2022-08-28T14:35:17Z</time>
      </trkpt>
      <trkpt lat="42.3662820" lon="-8.4068450">
        <ele>580.0</ele>
        <time>2022-08-28T14:35:18Z</time>
      </trkpt>
      <trkpt lat="42.3662220" lon="-8.4067770">
        <ele>581.0</ele>
        <time>2022-08-28T14:35:24Z</time>
      </trkpt>
      <trkpt lat="42.3662070" lon="-8.4067520">
        <ele>581.2</ele>
        <time>2022-08-28T14:35:26Z</time>
      </trkpt>
      <trkpt lat="42.3661740" lon="-8.4066810">
        <ele>582.0</ele>
        <time>2022-08-28T14:35:31Z</time>
      </trkpt>
      <trkpt lat="42.3661630" lon="-8.4066490">
        <ele>582.4</ele>
        <time>2022-08-28T14:35:33Z</time>
      </trkpt>
      <trkpt lat="42.3661200" lon="-8.4065740">
        <ele>583.0</ele>
        <time>2022-08-28T14:35:38Z</time>
      </trkpt>
      <trkpt lat="42.3661030" lon="-8.4065460">
        <ele>583.2</ele>
        <time>2022-08-28T14:35:40Z</time>
      </trkpt>
      <trkpt lat="42.3660290" lon="-8.4064110">
        <ele>584.2</ele>
        <time>2022-08-28T14:35:49Z</time>
      </trkpt>
      <trkpt lat="42.3660200" lon="-8.4063950">
        <ele>584.4</ele>
        <time>2022-08-28T14:35:50Z</time>
      </trkpt>
      <trkpt lat="42.3659840" lon="-8.4063270">
        <ele>585.4</ele>
        <time>2022-08-28T14:35:54Z</time>
      </trkpt>
      <trkpt lat="42.3659370" lon="-8.4062570">
        <ele>586.0</ele>
        <time>2022-08-28T14:35:59Z</time>
      </trkpt>
      <trkpt lat="42.3658920" lon="-8.4061960">
        <ele>586.6</ele>
        <time>2022-08-28T14:36:04Z</time>
      </trkpt>
      <trkpt lat="42.3658750" lon="-8.4061550">
        <ele>587.2</ele>
        <time>2022-08-28T14:36:07Z</time>
      </trkpt>
      <trkpt lat="42.3658540" lon="-8.4061060">
        <ele>587.6</ele>
        <time>2022-08-28T14:36:10Z</time>
      </trkpt>
      <trkpt lat="42.3658250" lon="-8.4060430">
        <ele>588.2</ele>
        <time>2022-08-28T14:36:14Z</time>
      </trkpt>
      <trkpt lat="42.3657900" lon="-8.4059860">
        <ele>588.6</ele>
        <time>2022-08-28T14:36:18Z</time>
      </trkpt>
      <trkpt lat="42.3657600" lon="-8.4059430">
        <ele>589.2</ele>
        <time>2022-08-28T14:36:21Z</time>
      </trkpt>
      <trkpt lat="42.3657510" lon="-8.4059260">
        <ele>589.4</ele>
        <time>2022-08-28T14:36:22Z</time>
      </trkpt>
      <trkpt lat="42.3657310" lon="-8.4058960">
        <ele>589.6</ele>
        <time>2022-08-28T14:36:24Z</time>
      </trkpt>
      <trkpt lat="42.3656620" lon="-8.4058030">
        <ele>590.6</ele>
        <time>2022-08-28T14:36:31Z</time>
      </trkpt>
      <trkpt lat="42.3656530" lon="-8.4057890">
        <ele>590.8</ele>
        <time>2022-08-28T14:36:32Z</time>
      </trkpt>
      <trkpt lat="42.3656360" lon="-8.4057660">
        <ele>591.2</ele>
        <time>2022-08-28T14:36:34Z</time>
      </trkpt>
      <trkpt lat="42.3656110" lon="-8.4057270">
        <ele>591.8</ele>
        <time>2022-08-28T14:36:37Z</time>
      </trkpt>
      <trkpt lat="42.3656030" lon="-8.4057140">
        <ele>591.8</ele>
        <time>2022-08-28T14:36:38Z</time>
      </trkpt>
      <trkpt lat="42.3655740" lon="-8.4056780">
        <ele>592.4</ele>
        <time>2022-08-28T14:36:41Z</time>
      </trkpt>
      <trkpt lat="42.3655410" lon="-8.4056360">
        <ele>593.0</ele>
        <time>2022-08-28T14:36:45Z</time>
      </trkpt>
      <trkpt lat="42.3655340" lon="-8.4056220">
        <ele>593.0</ele>
        <time>2022-08-28T14:36:46Z</time>
      </trkpt>
      <trkpt lat="42.3654960" lon="-8.4055420">
        <ele>594.0</ele>
        <time>2022-08-28T14:36:52Z</time>
      </trkpt>
      <trkpt lat="42.3654870" lon="-8.4055290">
        <ele>594.4</ele>
        <time>2022-08-28T14:36:53Z</time>
      </trkpt>
      <trkpt lat="42.3654550" lon="-8.4054510">
        <ele>595.2</ele>
        <time>2022-08-28T14:36:58Z</time>
      </trkpt>
      <trkpt lat="42.3654400" lon="-8.4054240">
        <ele>595.4</ele>
        <time>2022-08-28T14:37:00Z</time>
      </trkpt>
      <trkpt lat="42.3654100" lon="-8.4053660">
        <ele>596.2</ele>
        <time>2022-08-28T14:37:04Z</time>
      </trkpt>
      <trkpt lat="42.3653920" lon="-8.4053200">
        <ele>596.8</ele>
        <time>2022-08-28T14:37:07Z</time>
      </trkpt>
      <trkpt lat="42.3653700" lon="-8.4052770">
        <ele>597.2</ele>
        <time>2022-08-28T14:37:10Z</time>
      </trkpt>
      <trkpt lat="42.3653450" lon="-8.4052150">
        <ele>598.0</ele>
        <time>2022-08-28T14:37:15Z</time>
      </trkpt>
      <trkpt lat="42.3653320" lon="-8.4051830">
        <ele>598.4</ele>
        <time>2022-08-28T14:37:17Z</time>
      </trkpt>
      <trkpt lat="42.3653140" lon="-8.4050960">
        <ele>599.4</ele>
        <time>2022-08-28T14:37:22Z</time>
      </trkpt>
      <trkpt lat="42.3653060" lon="-8.4050270">
        <ele>600.0</ele>
        <time>2022-08-28T14:37:26Z</time>
      </trkpt>
      <trkpt lat="42.3653040" lon="-8.4049690">
        <ele>600.4</ele>
        <time>2022-08-28T14:37:29Z</time>
      </trkpt>
      <trkpt lat="42.3653010" lon="-8.4049290">
        <ele>600.6</ele>
        <time>2022-08-28T14:37:31Z</time>
      </trkpt>
      <trkpt lat="42.3652930" lon="-8.4048390">
        <ele>601.2</ele>
        <time>2022-08-28T14:37:36Z</time>
      </trkpt>
      <trkpt lat="42.3652880" lon="-8.4047860">
        <ele>601.8</ele>
        <time>2022-08-28T14:37:39Z</time>
      </trkpt>
      <trkpt lat="42.3652800" lon="-8.4046630">
        <ele>602.6</ele>
        <time>2022-08-28T14:37:46Z</time>
      </trkpt>
      <trkpt lat="42.3652760" lon="-8.4046420">
        <ele>602.8</ele>
        <time>2022-08-28T14:37:47Z</time>
      </trkpt>
      <trkpt lat="42.3652470" lon="-8.4045280">
        <ele>603.6</ele>
        <time>2022-08-28T14:37:53Z</time>
      </trkpt>
      <trkpt lat="42.3652410" lon="-8.4045070">
        <ele>603.6</ele>
        <time>2022-08-28T14:37:54Z</time>
      </trkpt>
      <trkpt lat="42.3652020" lon="-8.4043790">
        <ele>604.6</ele>
        <time>2022-08-28T14:38:01Z</time>
      </trkpt>
      <trkpt lat="42.3651640" lon="-8.4042980">
        <ele>605.6</ele>
        <time>2022-08-28T14:38:06Z</time>
      </trkpt>
      <trkpt lat="42.3651570" lon="-8.4042770">
        <ele>605.8</ele>
        <time>2022-08-28T14:38:07Z</time>
      </trkpt>
      <trkpt lat="42.3651280" lon="-8.4041630">
        <ele>606.8</ele>
        <time>2022-08-28T14:38:13Z</time>
      </trkpt>
      <trkpt lat="42.3651220" lon="-8.4041430">
        <ele>607.0</ele>
        <time>2022-08-28T14:38:14Z</time>
      </trkpt>
      <trkpt lat="42.3650620" lon="-8.4040400">
        <ele>607.8</ele>
        <time>2022-08-28T14:38:20Z</time>
      </trkpt>
      <trkpt lat="42.3650530" lon="-8.4040240">
        <ele>607.8</ele>
        <time>2022-08-28T14:38:21Z</time>
      </trkpt>
      <trkpt lat="42.3650310" lon="-8.4039740">
        <ele>608.8</ele>
        <time>2022-08-28T14:38:24Z</time>
      </trkpt>
      <trkpt lat="42.3649940" lon="-8.4038810">
        <ele>610.0</ele>
        <time>2022-08-28T14:38:30Z</time>
      </trkpt>
      <trkpt lat="42.3649640" lon="-8.4038350">
        <ele>610.6</ele>
        <time>2022-08-28T14:38:33Z</time>
      </trkpt>
      <trkpt lat="42.3649260" lon="-8.4037780">
        <ele>611.0</ele>
        <time>2022-08-28T14:38:37Z</time>
      </trkpt>
      <trkpt lat="42.3648600" lon="-8.4037120">
        <ele>611.8</ele>
        <time>2022-08-28T14:38:43Z</time>
      </trkpt>
      <trkpt lat="42.3648320" lon="-8.4036960">
        <ele>612.2</ele>
        <time>2022-08-28T14:38:45Z</time>
      </trkpt>
      <trkpt lat="42.3647430" lon="-8.4036590">
        <ele>613.0</ele>
        <time>2022-08-28T14:38:51Z</time>
      </trkpt>
      <trkpt lat="42.3647010" lon="-8.4036400">
        <ele>613.4</ele>
        <time>2022-08-28T14:38:54Z</time>
      </trkpt>
      <trkpt lat="42.3646370" lon="-8.4036100">
        <ele>614.0</ele>
        <time>2022-08-28T14:38:58Z</time>
      </trkpt>
      <trkpt lat="42.3645710" lon="-8.4035770">
        <ele>614.6</ele>
        <time>2022-08-28T14:39:02Z</time>
      </trkpt>
      <trkpt lat="42.3645090" lon="-8.4035450">
        <ele>615.0</ele>
        <time>2022-08-28T14:39:06Z</time>
      </trkpt>
      <trkpt lat="42.3644470" lon="-8.4035140">
        <ele>615.6</ele>
        <time>2022-08-28T14:39:10Z</time>
      </trkpt>
      <trkpt lat="42.3643830" lon="-8.4034780">
        <ele>616.2</ele>
        <time>2022-08-28T14:39:14Z</time>
      </trkpt>
      <trkpt lat="42.3643330" lon="-8.4034490">
        <ele>616.8</ele>
        <time>2022-08-28T14:39:17Z</time>
      </trkpt>
      <trkpt lat="42.3643020" lon="-8.4034250">
        <ele>617.4</ele>
        <time>2022-08-28T14:39:19Z</time>
      </trkpt>
      <trkpt lat="42.3642210" lon="-8.4033420">
        <ele>618.4</ele>
        <time>2022-08-28T14:39:25Z</time>
      </trkpt>
      <trkpt lat="42.3641350" lon="-8.4032350">
        <ele>619.6</ele>
        <time>2022-08-28T14:39:32Z</time>
      </trkpt>
      <trkpt lat="42.3641230" lon="-8.4032190">
        <ele>619.6</ele>
        <time>2022-08-28T14:39:33Z</time>
      </trkpt>
      <trkpt lat="42.3640460" lon="-8.4031070">
        <ele>620.6</ele>
        <time>2022-08-28T14:39:40Z</time>
      </trkpt>
      <trkpt lat="42.3640260" lon="-8.4030730">
        <ele>620.8</ele>
        <time>2022-08-28T14:39:42Z</time>
      </trkpt>
      <trkpt lat="42.3639600" lon="-8.4029790">
        <ele>621.8</ele>
        <time>2022-08-28T14:39:48Z</time>
      </trkpt>
      <trkpt lat="42.3639490" lon="-8.4029600">
        <ele>621.8</ele>
        <time>2022-08-28T14:39:49Z</time>
      </trkpt>
      <trkpt lat="42.3638940" lon="-8.4028790">
        <ele>623.0</ele>
        <time>2022-08-28T14:39:54Z</time>
      </trkpt>
      <trkpt lat="42.3638510" lon="-8.4028170">
        <ele>623.4</ele>
        <time>2022-08-28T14:39:58Z</time>
      </trkpt>
      <trkpt lat="42.3638360" lon="-8.4027860">
        <ele>624.0</ele>
        <time>2022-08-28T14:40:00Z</time>
      </trkpt>
      <trkpt lat="42.3637800" lon="-8.4026920">
        <ele>624.8</ele>
        <time>2022-08-28T14:40:06Z</time>
      </trkpt>
      <trkpt lat="42.3637700" lon="-8.4026760">
        <ele>625.0</ele>
        <time>2022-08-28T14:40:07Z</time>
      </trkpt>
      <trkpt lat="42.3637200" lon="-8.4026020">
        <ele>626.0</ele>
        <time>2022-08-28T14:40:12Z</time>
      </trkpt>
      <trkpt lat="42.3636880" lon="-8.4025560">
        <ele>626.6</ele>
        <time>2022-08-28T14:40:15Z</time>
      </trkpt>
      <trkpt lat="42.3636530" lon="-8.4025090">
        <ele>627.0</ele>
        <time>2022-08-28T14:40:18Z</time>
      </trkpt>
      <trkpt lat="42.3635890" lon="-8.4024720">
        <ele>627.8</ele>
        <time>2022-08-28T14:40:22Z</time>
      </trkpt>
      <trkpt lat="42.3635510" lon="-8.4024760">
        <ele>628.2</ele>
        <time>2022-08-28T14:40:24Z</time>
      </trkpt>
      <trkpt lat="42.3634080" lon="-8.4024770">
        <ele>629.2</ele>
        <time>2022-08-28T14:40:31Z</time>
      </trkpt>
      <trkpt lat="42.3632640" lon="-8.4024580">
        <ele>630.2</ele>
        <time>2022-08-28T14:40:39Z</time>
      </trkpt>
      <trkpt lat="42.3632460" lon="-8.4024520">
        <ele>630.4</ele>
        <time>2022-08-28T14:40:40Z</time>
      </trkpt>
      <trkpt lat="42.3631480" lon="-8.4024080">
        <ele>631.4</ele>
        <time>2022-08-28T14:40:46Z</time>
      </trkpt>
      <trkpt lat="42.3631180" lon="-8.4023910">
        <ele>632.0</ele>
        <time>2022-08-28T14:40:48Z</time>
      </trkpt>
      <trkpt lat="42.3630550" lon="-8.4023470">
        <ele>632.4</ele>
        <time>2022-08-28T14:40:52Z</time>
      </trkpt>
      <trkpt lat="42.3629880" lon="-8.4022750">
        <ele>633.0</ele>
        <time>2022-08-28T14:40:57Z</time>
      </trkpt>
      <trkpt lat="42.3629400" lon="-8.4022130">
        <ele>633.6</ele>
        <time>2022-08-28T14:41:01Z</time>
      </trkpt>
      <trkpt lat="42.3629070" lon="-8.4021700">
        <ele>634.0</ele>
        <time>2022-08-28T14:41:04Z</time>
      </trkpt>
      <trkpt lat="42.3628660" lon="-8.4021100">
        <ele>634.6</ele>
        <time>2022-08-28T14:41:08Z</time>
      </trkpt>
      <trkpt lat="42.3628220" lon="-8.4020450">
        <ele>635.6</ele>
        <time>2022-08-28T14:41:12Z</time>
      </trkpt>
      <trkpt lat="42.3627320" lon="-8.4019240">
        <ele>636.8</ele>
        <time>2022-08-28T14:41:19Z</time>
      </trkpt>
      <trkpt lat="42.3626150" lon="-8.4018560">
        <ele>637.4</ele>
        <time>2022-08-28T14:41:26Z</time>
      </trkpt>
      <trkpt lat="42.3625820" lon="-8.4018240">
        <ele>637.8</ele>
        <time>2022-08-28T14:41:28Z</time>
      </trkpt>
      <trkpt lat="42.3625250" lon="-8.4017650">
        <ele>638.8</ele>
        <time>2022-08-28T14:41:32Z</time>
      </trkpt>
      <trkpt lat="42.3625120" lon="-8.4017480">
        <ele>639.0</ele>
        <time>2022-08-28T14:41:33Z</time>
      </trkpt>
      <trkpt lat="42.3624580" lon="-8.4016220">
        <ele>639.6</ele>
        <time>2022-08-28T14:41:39Z</time>
      </trkpt>
      <trkpt lat="42.3624400" lon="-8.4015490">
        <ele>640.2</ele>
        <time>2022-08-28T14:41:42Z</time>
      </trkpt>
      <trkpt lat="42.3624330" lon="-8.4014550">
        <ele>640.8</ele>
        <time>2022-08-28T14:41:46Z</time>
      </trkpt>
      <trkpt lat="42.3624440" lon="-8.4013860">
        <ele>641.2</ele>
        <time>2022-08-28T14:41:49Z</time>
      </trkpt>
      <trkpt lat="42.3624840" lon="-8.4013130">
        <ele>642.0</ele>
        <time>2022-08-28T14:41:53Z</time>
      </trkpt>
      <trkpt lat="42.3625480" lon="-8.4012590">
        <ele>642.4</ele>
        <time>2022-08-28T14:41:57Z</time>
      </trkpt>
      <trkpt lat="42.3625970" lon="-8.4012400">
        <ele>643.0</ele>
        <time>2022-08-28T14:42:00Z</time>
      </trkpt>
      <trkpt lat="42.3627020" lon="-8.4012160">
        <ele>643.6</ele>
        <time>2022-08-28T14:42:06Z</time>
      </trkpt>
      <trkpt lat="42.3627380" lon="-8.4012060">
        <ele>644.0</ele>
        <time>2022-08-28T14:42:08Z</time>
      </trkpt>
      <trkpt lat="42.3628260" lon="-8.4011820">
        <ele>644.6</ele>
        <time>2022-08-28T14:42:13Z</time>
      </trkpt>
      <trkpt lat="42.3629180" lon="-8.4011670">
        <ele>645.4</ele>
        <time>2022-08-28T14:42:18Z</time>
      </trkpt>
      <trkpt lat="42.3629910" lon="-8.4011580">
        <ele>645.8</ele>
        <time>2022-08-28T14:42:22Z</time>
      </trkpt>
      <trkpt lat="42.3630980" lon="-8.4011510">
        <ele>646.2</ele>
        <time>2022-08-28T14:42:28Z</time>
      </trkpt>
      <trkpt lat="42.3631320" lon="-8.4011520">
        <ele>646.8</ele>
        <time>2022-08-28T14:42:30Z</time>
      </trkpt>
      <trkpt lat="42.3632470" lon="-8.4011430">
        <ele>647.6</ele>
        <time>2022-08-28T14:42:37Z</time>
      </trkpt>
      <trkpt lat="42.3633940" lon="-8.4011310">
        <ele>649.0</ele>
        <time>2022-08-28T14:42:46Z</time>
      </trkpt>
      <trkpt lat="42.3634090" lon="-8.4011300">
        <ele>649.2</ele>
        <time>2022-08-28T14:42:47Z</time>
      </trkpt>
      <trkpt lat="42.3634900" lon="-8.4011250">
        <ele>650.0</ele>
        <time>2022-08-28T14:42:52Z</time>
      </trkpt>
      <trkpt lat="42.3635740" lon="-8.4011130">
        <ele>651.0</ele>
        <time>2022-08-28T14:42:57Z</time>
      </trkpt>
      <trkpt lat="42.3635920" lon="-8.4011120">
        <ele>651.2</ele>
        <time>2022-08-28T14:42:58Z</time>
      </trkpt>
      <trkpt lat="42.3637270" lon="-8.4011430">
        <ele>652.2</ele>
        <time>2022-08-28T14:43:06Z</time>
      </trkpt>
      <trkpt lat="42.3637430" lon="-8.4011520">
        <ele>652.2</ele>
        <time>2022-08-28T14:43:07Z</time>
      </trkpt>
      <trkpt lat="42.3638750" lon="-8.4012420">
        <ele>653.2</ele>
        <time>2022-08-28T14:43:16Z</time>
      </trkpt>
      <trkpt lat="42.3639630" lon="-8.4013140">
        <ele>654.2</ele>
        <time>2022-08-28T14:43:23Z</time>
      </trkpt>
      <trkpt lat="42.3639940" lon="-8.4013440">
        <ele>654.6</ele>
        <time>2022-08-28T14:43:26Z</time>
      </trkpt>
      <trkpt lat="42.3640230" lon="-8.4013540">
        <ele>655.2</ele>
        <time>2022-08-28T14:43:29Z</time>
      </trkpt>
      <trkpt lat="42.3640470" lon="-8.4013390">
        <ele>655.4</ele>
        <time>2022-08-28T14:43:31Z</time>
      </trkpt>
      <trkpt lat="42.3640550" lon="-8.4013270">
        <ele>655.4</ele>
        <time>2022-08-28T14:43:32Z</time>
      </trkpt>
      <trkpt lat="42.3640700" lon="-8.4012570">
        <ele>656.0</ele>
        <time>2022-08-28T14:43:36Z</time>
      </trkpt>
      <trkpt lat="42.3640680" lon="-8.4012360">
        <ele>656.2</ele>
        <time>2022-08-28T14:43:37Z</time>
      </trkpt>
      <trkpt lat="42.3640620" lon="-8.4012170">
        <ele>656.2</ele>
        <time>2022-08-28T14:43:38Z</time>
      </trkpt>
      <trkpt lat="42.3640530" lon="-8.4011980">
        <ele>656.4</ele>
        <time>2022-08-28T14:43:39Z</time>
      </trkpt>
      <trkpt lat="42.3639810" lon="-8.4010730">
        <ele>657.4</ele>
        <time>2022-08-28T14:43:46Z</time>
      </trkpt>
      <trkpt lat="42.3639710" lon="-8.4010530">
        <ele>657.4</ele>
        <time>2022-08-28T14:43:47Z</time>
      </trkpt>
      <trkpt lat="42.3639190" lon="-8.4009410">
        <ele>658.6</ele>
        <time>2022-08-28T14:43:53Z</time>
      </trkpt>
      <trkpt lat="42.3639120" lon="-8.4009230">
        <ele>658.6</ele>
        <time>2022-08-28T14:43:54Z</time>
      </trkpt>
      <trkpt lat="42.3638420" lon="-8.4007860">
        <ele>659.6</ele>
        <time>2022-08-28T14:44:02Z</time>
      </trkpt>
      <trkpt lat="42.3638230" lon="-8.4007580">
        <ele>659.8</ele>
        <time>2022-08-28T14:44:04Z</time>
      </trkpt>
      <trkpt lat="42.3637690" lon="-8.4006520">
        <ele>660.6</ele>
        <time>2022-08-28T14:44:10Z</time>
      </trkpt>
      <trkpt lat="42.3637610" lon="-8.4006370">
        <ele>660.8</ele>
        <time>2022-08-28T14:44:11Z</time>
      </trkpt>
      <trkpt lat="42.3637190" lon="-8.4005550">
        <ele>661.6</ele>
        <time>2022-08-28T14:44:17Z</time>
      </trkpt>
      <trkpt lat="42.3637020" lon="-8.4005270">
        <ele>662.0</ele>
        <time>2022-08-28T14:44:19Z</time>
      </trkpt>
      <trkpt lat="42.3636660" lon="-8.4004700">
        <ele>662.8</ele>
        <time>2022-08-28T14:44:23Z</time>
      </trkpt>
      <trkpt lat="42.3636530" lon="-8.4004290">
        <ele>663.4</ele>
        <time>2022-08-28T14:44:26Z</time>
      </trkpt>
      <trkpt lat="42.3636300" lon="-8.4003880">
        <ele>663.8</ele>
        <time>2022-08-28T14:44:29Z</time>
      </trkpt>
      <trkpt lat="42.3635810" lon="-8.4002870">
        <ele>664.8</ele>
        <time>2022-08-28T14:44:35Z</time>
      </trkpt>
      <trkpt lat="42.3635660" lon="-8.4002560">
        <ele>665.0</ele>
        <time>2022-08-28T14:44:37Z</time>
      </trkpt>
      <trkpt lat="42.3635040" lon="-8.4001390">
        <ele>666.2</ele>
        <time>2022-08-28T14:44:45Z</time>
      </trkpt>
      <trkpt lat="42.3634510" lon="-8.4000270">
        <ele>667.2</ele>
        <time>2022-08-28T14:44:51Z</time>
      </trkpt>
      <trkpt lat="42.3634340" lon="-8.3999900">
        <ele>667.6</ele>
        <time>2022-08-28T14:44:53Z</time>
      </trkpt>
      <trkpt lat="42.3633970" lon="-8.3999010">
        <ele>668.2</ele>
        <time>2022-08-28T14:44:58Z</time>
      </trkpt>
      <trkpt lat="42.3633680" lon="-8.3998340">
        <ele>668.8</ele>
        <time>2022-08-28T14:45:02Z</time>
      </trkpt>
      <trkpt lat="42.3633370" lon="-8.3997530">
        <ele>669.4</ele>
        <time>2022-08-28T14:45:07Z</time>
      </trkpt>
      <trkpt lat="42.3632950" lon="-8.3996740">
        <ele>670.0</ele>
        <time>2022-08-28T14:45:11Z</time>
      </trkpt>
      <trkpt lat="42.3632740" lon="-8.3996310">
        <ele>670.8</ele>
        <time>2022-08-28T14:45:13Z</time>
      </trkpt>
      <trkpt lat="42.3632230" lon="-8.3995150">
        <ele>671.2</ele>
        <time>2022-08-28T14:45:19Z</time>
      </trkpt>
      <trkpt lat="42.3631900" lon="-8.3994460">
        <ele>671.8</ele>
        <time>2022-08-28T14:45:23Z</time>
      </trkpt>
      <trkpt lat="42.3631600" lon="-8.3993760">
        <ele>672.4</ele>
        <time>2022-08-28T14:45:27Z</time>
      </trkpt>
      <trkpt lat="42.3631410" lon="-8.3993150">
        <ele>673.0</ele>
        <time>2022-08-28T14:45:30Z</time>
      </trkpt>
      <trkpt lat="42.3631120" lon="-8.3992370">
        <ele>673.4</ele>
        <time>2022-08-28T14:45:34Z</time>
      </trkpt>
      <trkpt lat="42.3630660" lon="-8.3991420">
        <ele>674.0</ele>
        <time>2022-08-28T14:45:39Z</time>
      </trkpt>
      <trkpt lat="42.3630550" lon="-8.3991000">
        <ele>674.2</ele>
        <time>2022-08-28T14:45:41Z</time>
      </trkpt>
      <trkpt lat="42.3630150" lon="-8.3989950">
        <ele>675.0</ele>
        <time>2022-08-28T14:45:47Z</time>
      </trkpt>
      <trkpt lat="42.3630070" lon="-8.3989770">
        <ele>675.2</ele>
        <time>2022-08-28T14:45:48Z</time>
      </trkpt>
      <trkpt lat="42.3629620" lon="-8.3988580">
        <ele>676.0</ele>
        <time>2022-08-28T14:45:55Z</time>
      </trkpt>
      <trkpt lat="42.3629410" lon="-8.3988040">
        <ele>676.6</ele>
        <time>2022-08-28T14:45:58Z</time>
      </trkpt>
      <trkpt lat="42.3629080" lon="-8.3987260">
        <ele>677.2</ele>
        <time>2022-08-28T14:46:02Z</time>
      </trkpt>
      <trkpt lat="42.3628910" lon="-8.3986880">
        <ele>677.6</ele>
        <time>2022-08-28T14:46:05Z</time>
      </trkpt>
      <trkpt lat="42.3628500" lon="-8.3986160">
        <ele>678.4</ele>
        <time>2022-08-28T14:46:10Z</time>
      </trkpt>
      <trkpt lat="42.3628160" lon="-8.3985520">
        <ele>679.4</ele>
        <time>2022-08-28T14:46:14Z</time>
      </trkpt>
      <trkpt lat="42.3627540" lon="-8.3984700">
        <ele>680.4</ele>
        <time>2022-08-28T14:46:19Z</time>
      </trkpt>
      <trkpt lat="42.3627390" lon="-8.3984370">
        <ele>680.8</ele>
        <time>2022-08-28T14:46:21Z</time>
      </trkpt>
      <trkpt lat="42.3626750" lon="-8.3982800">
        <ele>681.6</ele>
        <time>2022-08-28T14:46:28Z</time>
      </trkpt>
      <trkpt lat="42.3626710" lon="-8.3982570">
        <ele>681.8</ele>
        <time>2022-08-28T14:46:29Z</time>
      </trkpt>
      <trkpt lat="42.3626200" lon="-8.3980930">
        <ele>682.2</ele>
        <time>2022-08-28T14:46:36Z</time>
      </trkpt>
      <trkpt lat="42.3625960" lon="-8.3979790">
        <ele>682.6</ele>
        <time>2022-08-28T14:46:41Z</time>
      </trkpt>
      <trkpt lat="42.3625880" lon="-8.3979320">
        <ele>682.8</ele>
        <time>2022-08-28T14:46:43Z</time>
      </trkpt>
      <trkpt lat="42.3625700" lon="-8.3977930">
        <ele>683.8</ele>
        <time>2022-08-28T14:46:50Z</time>
      </trkpt>
      <trkpt lat="42.3625610" lon="-8.3977350">
        <ele>684.0</ele>
        <time>2022-08-28T14:46:53Z</time>
      </trkpt>
      <trkpt lat="42.3625500" lon="-8.3976010">
        <ele>684.6</ele>
        <time>2022-08-28T14:47:00Z</time>
      </trkpt>
      <trkpt lat="42.3625510" lon="-8.3975610">
        <ele>685.0</ele>
        <time>2022-08-28T14:47:02Z</time>
      </trkpt>
      <trkpt lat="42.3625470" lon="-8.3974840">
        <ele>685.8</ele>
        <time>2022-08-28T14:47:06Z</time>
      </trkpt>
      <trkpt lat="42.3625410" lon="-8.3973980">
        <ele>686.4</ele>
        <time>2022-08-28T14:47:10Z</time>
      </trkpt>
      <trkpt lat="42.3625400" lon="-8.3973590">
        <ele>686.8</ele>
        <time>2022-08-28T14:47:12Z</time>
      </trkpt>
      <trkpt lat="42.3625320" lon="-8.3972440">
        <ele>687.4</ele>
        <time>2022-08-28T14:47:18Z</time>
      </trkpt>
      <trkpt lat="42.3625380" lon="-8.3971720">
        <ele>687.8</ele>
        <time>2022-08-28T14:47:22Z</time>
      </trkpt>
      <trkpt lat="42.3625350" lon="-8.3970970">
        <ele>688.8</ele>
        <time>2022-08-28T14:47:26Z</time>
      </trkpt>
      <trkpt lat="42.3625310" lon="-8.3970580">
        <ele>689.0</ele>
        <time>2022-08-28T14:47:28Z</time>
      </trkpt>
      <trkpt lat="42.3625080" lon="-8.3969290">
        <ele>689.8</ele>
        <time>2022-08-28T14:47:35Z</time>
      </trkpt>
      <trkpt lat="42.3624930" lon="-8.3968960">
        <ele>690.2</ele>
        <time>2022-08-28T14:47:37Z</time>
      </trkpt>
      <trkpt lat="42.3624580" lon="-8.3967910">
        <ele>691.2</ele>
        <time>2022-08-28T14:47:42Z</time>
      </trkpt>
      <trkpt lat="42.3624530" lon="-8.3967720">
        <ele>691.4</ele>
        <time>2022-08-28T14:47:43Z</time>
      </trkpt>
      <trkpt lat="42.3624380" lon="-8.3966530">
        <ele>692.4</ele>
        <time>2022-08-28T14:47:50Z</time>
      </trkpt>
      <trkpt lat="42.3624350" lon="-8.3966360">
        <ele>692.6</ele>
        <time>2022-08-28T14:47:51Z</time>
      </trkpt>
      <trkpt lat="42.3624130" lon="-8.3965580">
        <ele>693.6</ele>
        <time>2022-08-28T14:47:56Z</time>
      </trkpt>
      <trkpt lat="42.3623990" lon="-8.3965030">
        <ele>694.2</ele>
        <time>2022-08-28T14:47:59Z</time>
      </trkpt>
      <trkpt lat="42.3623740" lon="-8.3964320">
        <ele>694.6</ele>
        <time>2022-08-28T14:48:03Z</time>
      </trkpt>
      <trkpt lat="42.3623570" lon="-8.3963730">
        <ele>695.0</ele>
        <time>2022-08-28T14:48:06Z</time>
      </trkpt>
      <trkpt lat="42.3623400" lon="-8.3963190">
        <ele>695.6</ele>
        <time>2022-08-28T14:48:09Z</time>
      </trkpt>
      <trkpt lat="42.3623090" lon="-8.3962650">
        <ele>696.4</ele>
        <time>2022-08-28T14:48:12Z</time>
      </trkpt>
      <trkpt lat="42.3622850" lon="-8.3962320">
        <ele>696.8</ele>
        <time>2022-08-28T14:48:14Z</time>
      </trkpt>
      <trkpt lat="42.3622180" lon="-8.3961560">
        <ele>697.8</ele>
        <time>2022-08-28T14:48:19Z</time>
      </trkpt>
      <trkpt lat="42.3622030" lon="-8.3961410">
        <ele>698.0</ele>
        <time>2022-08-28T14:48:20Z</time>
      </trkpt>
      <trkpt lat="42.3620840" lon="-8.3960470">
        <ele>698.8</ele>
        <time>2022-08-28T14:48:27Z</time>
      </trkpt>
      <trkpt lat="42.3619910" lon="-8.3959580">
        <ele>700.0</ele>
        <time>2022-08-28T14:48:34Z</time>
      </trkpt>
      <trkpt lat="42.3619780" lon="-8.3959400">
        <ele>700.2</ele>
        <time>2022-08-28T14:48:35Z</time>
      </trkpt>
      <trkpt lat="42.3619300" lon="-8.3958000">
        <ele>701.2</ele>
        <time>2022-08-28T14:48:42Z</time>
      </trkpt>
      <trkpt lat="42.3619280" lon="-8.3957800">
        <ele>701.2</ele>
        <time>2022-08-28T14:48:43Z</time>
      </trkpt>
      <trkpt lat="42.3619150" lon="-8.3956750">
        <ele>702.2</ele>
        <time>2022-08-28T14:48:49Z</time>
      </trkpt>
      <trkpt lat="42.3619130" lon="-8.3956560">
        <ele>702.2</ele>
        <time>2022-08-28T14:48:50Z</time>
      </trkpt>
      <trkpt lat="42.3618950" lon="-8.3955860">
        <ele>703.2</ele>
        <time>2022-08-28T14:48:54Z</time>
      </trkpt>
      <trkpt lat="42.3618910" lon="-8.3955520">
        <ele>703.6</ele>
        <time>2022-08-28T14:48:56Z</time>
      </trkpt>
      <trkpt lat="42.3618790" lon="-8.3954610">
        <ele>704.4</ele>
        <time>2022-08-28T14:49:01Z</time>
      </trkpt>
      <trkpt lat="42.3618770" lon="-8.3954060">
        <ele>704.8</ele>
        <time>2022-08-28T14:49:04Z</time>
      </trkpt>
      <trkpt lat="42.3619060" lon="-8.3953240">
        <ele>705.6</ele>
        <time>2022-08-28T14:49:08Z</time>
      </trkpt>
      <trkpt lat="42.3619270" lon="-8.3953020">
        <ele>706.4</ele>
        <time>2022-08-28T14:49:10Z</time>
      </trkpt>
      <trkpt lat="42.3619380" lon="-8.3952940">
        <ele>706.6</ele>
        <time>2022-08-28T14:49:11Z</time>
      </trkpt>
      <trkpt lat="42.3620010" lon="-8.3952950">
        <ele>707.8</ele>
        <time>2022-08-28T14:49:16Z</time>
      </trkpt>
      <trkpt lat="42.3620130" lon="-8.3952990">
        <ele>708.0</ele>
        <time>2022-08-28T14:49:17Z</time>
      </trkpt>
      <trkpt lat="42.3620780" lon="-8.3953430">
        <ele>709.0</ele>
        <time>2022-08-28T14:49:23Z</time>
      </trkpt>
      <trkpt lat="42.3621100" lon="-8.3953650">
        <ele>709.2</ele>
        <time>2022-08-28T14:49:26Z</time>
      </trkpt>
      <trkpt lat="42.3621790" lon="-8.3954070">
        <ele>710.0</ele>
        <time>2022-08-28T14:49:32Z</time>
      </trkpt>
      <trkpt lat="42.3621900" lon="-8.3954110">
        <ele>710.2</ele>
        <time>2022-08-28T14:49:33Z</time>
      </trkpt>
      <trkpt lat="42.3622570" lon="-8.3954410">
        <ele>711.4</ele>
        <time>2022-08-28T14:49:39Z</time>
      </trkpt>
      <trkpt lat="42.3623010" lon="-8.3954610">
        <ele>712.2</ele>
        <time>2022-08-28T14:49:43Z</time>
      </trkpt>
      <trkpt lat="42.3623380" lon="-8.3954770">
        <ele>712.6</ele>
        <time>2022-08-28T14:49:46Z</time>
      </trkpt>
      <trkpt lat="42.3624130" lon="-8.3955130">
        <ele>713.4</ele>
        <time>2022-08-28T14:49:52Z</time>
      </trkpt>
      <trkpt lat="42.3624260" lon="-8.3955160">
        <ele>713.6</ele>
        <time>2022-08-28T14:49:53Z</time>
      </trkpt>
      <trkpt lat="42.3625160" lon="-8.3955380">
        <ele>714.8</ele>
        <time>2022-08-28T14:50:00Z</time>
      </trkpt>
      <trkpt lat="42.3625580" lon="-8.3955590">
        <ele>715.2</ele>
        <time>2022-08-28T14:50:03Z</time>
      </trkpt>
      <trkpt lat="42.3626150" lon="-8.3955830">
        <ele>715.8</ele>
        <time>2022-08-28T14:50:07Z</time>
      </trkpt>
      <trkpt lat="42.3627000" lon="-8.3956080">
        <ele>716.8</ele>
        <time>2022-08-28T14:50:12Z</time>
      </trkpt>
      <trkpt lat="42.3627330" lon="-8.3956080">
        <ele>717.0</ele>
        <time>2022-08-28T14:50:14Z</time>
      </trkpt>
      <trkpt lat="42.3628290" lon="-8.3956090">
        <ele>717.6</ele>
        <time>2022-08-28T14:50:20Z</time>
      </trkpt>
      <trkpt lat="42.3628620" lon="-8.3956080">
        <ele>718.0</ele>
        <time>2022-08-28T14:50:22Z</time>
      </trkpt>
      <trkpt lat="42.3629810" lon="-8.3955930">
        <ele>719.0</ele>
        <time>2022-08-28T14:50:29Z</time>
      </trkpt>
      <trkpt lat="42.3630750" lon="-8.3955760">
        <ele>720.0</ele>
        <time>2022-08-28T14:50:35Z</time>
      </trkpt>
      <trkpt lat="42.3631370" lon="-8.3955610">
        <ele>721.0</ele>
        <time>2022-08-28T14:50:39Z</time>
      </trkpt>
      <trkpt lat="42.3631530" lon="-8.3955560">
        <ele>721.2</ele>
        <time>2022-08-28T14:50:40Z</time>
      </trkpt>
      <trkpt lat="42.3632650" lon="-8.3955300">
        <ele>722.2</ele>
        <time>2022-08-28T14:50:47Z</time>
      </trkpt>
      <trkpt lat="42.3632820" lon="-8.3955260">
        <ele>722.2</ele>
        <time>2022-08-28T14:50:48Z</time>
      </trkpt>
      <trkpt lat="42.3634050" lon="-8.3954920">
        <ele>723.2</ele>
        <time>2022-08-28T14:50:55Z</time>
      </trkpt>
      <trkpt lat="42.3634780" lon="-8.3954820">
        <ele>723.8</ele>
        <time>2022-08-28T14:50:59Z</time>
      </trkpt>
      <trkpt lat="42.3635500" lon="-8.3954640">
        <ele>724.4</ele>
        <time>2022-08-28T14:51:03Z</time>
      </trkpt>
      <trkpt lat="42.3636360" lon="-8.3954460">
        <ele>724.8</ele>
        <time>2022-08-28T14:51:08Z</time>
      </trkpt>
      <trkpt lat="42.3637550" lon="-8.3954080">
        <ele>725.4</ele>
        <time>2022-08-28T14:51:14Z</time>
      </trkpt>
      <trkpt lat="42.3638150" lon="-8.3953840">
        <ele>726.0</ele>
        <time>2022-08-28T14:51:17Z</time>
      </trkpt>
      <trkpt lat="42.3639770" lon="-8.3953460">
        <ele>726.6</ele>
        <time>2022-08-28T14:51:25Z</time>
      </trkpt>
      <trkpt lat="42.3641720" lon="-8.3952990">
        <ele>727.4</ele>
        <time>2022-08-28T14:51:36Z</time>
      </trkpt>
      <trkpt lat="42.3641780" lon="-8.3953010">
        <ele>728.0</ele>
        <time>2022-08-28T14:51:38Z</time>
      </trkpt>
      <trkpt lat="42.3642660" lon="-8.3952770">
        <ele>728.6</ele>
        <time>2022-08-28T14:54:17Z</time>
      </trkpt>
      <trkpt lat="42.3643000" lon="-8.3952670">
        <ele>728.8</ele>
        <time>2022-08-28T14:54:19Z</time>
      </trkpt>
      <trkpt lat="42.3644280" lon="-8.3952300">
        <ele>729.2</ele>
        <time>2022-08-28T14:54:26Z</time>
      </trkpt>
      <trkpt lat="42.3644470" lon="-8.3952240">
        <ele>729.6</ele>
        <time>2022-08-28T14:54:27Z</time>
      </trkpt>
      <trkpt lat="42.3645590" lon="-8.3952030">
        <ele>730.6</ele>
        <time>2022-08-28T14:54:33Z</time>
      </trkpt>
      <trkpt lat="42.3645770" lon="-8.3952030">
        <ele>730.8</ele>
        <time>2022-08-28T14:54:34Z</time>
      </trkpt>
      <trkpt lat="42.3646910" lon="-8.3951700">
        <ele>731.6</ele>
        <time>2022-08-28T14:54:41Z</time>
      </trkpt>
      <trkpt lat="42.3647080" lon="-8.3951630">
        <ele>731.6</ele>
        <time>2022-08-28T14:54:42Z</time>
      </trkpt>
      <trkpt lat="42.3648230" lon="-8.3951260">
        <ele>732.2</ele>
        <time>2022-08-28T14:54:48Z</time>
      </trkpt>
      <trkpt lat="42.3649040" lon="-8.3950780">
        <ele>732.8</ele>
        <time>2022-08-28T14:54:52Z</time>
      </trkpt>
      <trkpt lat="42.3649650" lon="-8.3950230">
        <ele>733.0</ele>
        <time>2022-08-28T14:54:55Z</time>
      </trkpt>
      <trkpt lat="42.3649880" lon="-8.3950020">
        <ele>733.0</ele>
        <time>2022-08-28T14:54:56Z</time>
      </trkpt>
      <trkpt lat="42.3651730" lon="-8.3948580">
        <ele>733.0</ele>
        <time>2022-08-28T14:55:03Z</time>
      </trkpt>
      <trkpt lat="42.3653440" lon="-8.3947050">
        <ele>731.8</ele>
        <time>2022-08-28T14:55:08Z</time>
      </trkpt>
      <trkpt lat="42.3653880" lon="-8.3946600">
        <ele>731.6</ele>
        <time>2022-08-28T14:55:09Z</time>
      </trkpt>
      <trkpt lat="42.3655220" lon="-8.3945180">
        <ele>730.4</ele>
        <time>2022-08-28T14:55:12Z</time>
      </trkpt>
      <trkpt lat="42.3656110" lon="-8.3944310">
        <ele>729.6</ele>
        <time>2022-08-28T14:55:14Z</time>
      </trkpt>
      <trkpt lat="42.3656940" lon="-8.3943510">
        <ele>728.8</ele>
        <time>2022-08-28T14:55:16Z</time>
      </trkpt>
      <trkpt lat="42.3658040" lon="-8.3942490">
        <ele>728.0</ele>
        <time>2022-08-28T14:55:19Z</time>
      </trkpt>
      <trkpt lat="42.3658380" lon="-8.3942230">
        <ele>728.0</ele>
        <time>2022-08-28T14:55:20Z</time>
      </trkpt>
      <trkpt lat="42.3659300" lon="-8.3941460">
        <ele>727.8</ele>
        <time>2022-08-28T14:55:23Z</time>
      </trkpt>
      <trkpt lat="42.3660810" lon="-8.3940170">
        <ele>727.8</ele>
        <time>2022-08-28T14:55:28Z</time>
      </trkpt>
      <trkpt lat="42.3663810" lon="-8.3937510">
        <ele>728.0</ele>
        <time>2022-08-28T14:55:38Z</time>
      </trkpt>
      <trkpt lat="42.3665160" lon="-8.3936380">
        <ele>728.0</ele>
        <time>2022-08-28T14:55:42Z</time>
      </trkpt>
      <trkpt lat="42.3666210" lon="-8.3935340">
        <ele>728.0</ele>
        <time>2022-08-28T14:55:45Z</time>
      </trkpt>
      <trkpt lat="42.3667430" lon="-8.3934050">
        <ele>727.6</ele>
        <time>2022-08-28T14:55:48Z</time>
      </trkpt>
      <trkpt lat="42.3668450" lon="-8.3933100">
        <ele>727.4</ele>
        <time>2022-08-28T14:55:50Z</time>
      </trkpt>
      <trkpt lat="42.3668940" lon="-8.3932700">
        <ele>727.2</ele>
        <time>2022-08-28T14:55:51Z</time>
      </trkpt>
      <trkpt lat="42.3670170" lon="-8.3931850">
        <ele>726.6</ele>
        <time>2022-08-28T14:55:54Z</time>
      </trkpt>
      <trkpt lat="42.3671440" lon="-8.3931430">
        <ele>725.2</ele>
        <time>2022-08-28T14:55:57Z</time>
      </trkpt>
      <trkpt lat="42.3672160" lon="-8.3931200">
        <ele>724.2</ele>
        <time>2022-08-28T14:55:59Z</time>
      </trkpt>
      <trkpt lat="42.3673880" lon="-8.3930850">
        <ele>723.4</ele>
        <time>2022-08-28T14:56:04Z</time>
      </trkpt>
      <trkpt lat="42.3675390" lon="-8.3930380">
        <ele>723.2</ele>
        <time>2022-08-28T14:56:08Z</time>
      </trkpt>
      <trkpt lat="42.3676730" lon="-8.3930100">
        <ele>722.6</ele>
        <time>2022-08-28T14:56:11Z</time>
      </trkpt>
      <trkpt lat="42.3679410" lon="-8.3929410">
        <ele>722.2</ele>
        <time>2022-08-28T14:56:17Z</time>
      </trkpt>
      <trkpt lat="42.3679800" lon="-8.3929320">
        <ele>722.0</ele>
        <time>2022-08-28T14:56:18Z</time>
      </trkpt>
      <trkpt lat="42.3681850" lon="-8.3928870">
        <ele>721.4</ele>
        <time>2022-08-28T14:56:24Z</time>
      </trkpt>
      <trkpt lat="42.3683670" lon="-8.3928760">
        <ele>721.4</ele>
        <time>2022-08-28T14:56:31Z</time>
      </trkpt>
      <trkpt lat="42.3684730" lon="-8.3928630">
        <ele>721.8</ele>
        <time>2022-08-28T14:56:37Z</time>
      </trkpt>
      <trkpt lat="42.3685630" lon="-8.3928280">
        <ele>722.6</ele>
        <time>2022-08-28T14:56:42Z</time>
      </trkpt>
      <trkpt lat="42.3686590" lon="-8.3928070">
        <ele>723.0</ele>
        <time>2022-08-28T14:56:47Z</time>
      </trkpt>
      <trkpt lat="42.3686980" lon="-8.3928010">
        <ele>723.4</ele>
        <time>2022-08-28T14:56:49Z</time>
      </trkpt>
      <trkpt lat="42.3687510" lon="-8.3927910">
        <ele>723.8</ele>
        <time>2022-08-28T14:56:52Z</time>
      </trkpt>
      <trkpt lat="42.3687880" lon="-8.3927840">
        <ele>724.0</ele>
        <time>2022-08-28T14:56:54Z</time>
      </trkpt>
      <trkpt lat="42.3688210" lon="-8.3927710">
        <ele>724.4</ele>
        <time>2022-08-28T14:56:56Z</time>
      </trkpt>
      <trkpt lat="42.3688920" lon="-8.3927470">
        <ele>725.2</ele>
        <time>2022-08-28T14:57:00Z</time>
      </trkpt>
      <trkpt lat="42.3689720" lon="-8.3927330">
        <ele>725.6</ele>
        <time>2022-08-28T14:57:04Z</time>
      </trkpt>
      <trkpt lat="42.3690970" lon="-8.3927050">
        <ele>726.2</ele>
        <time>2022-08-28T14:57:10Z</time>
      </trkpt>
      <trkpt lat="42.3691610" lon="-8.3926970">
        <ele>726.6</ele>
        <time>2022-08-28T14:57:13Z</time>
      </trkpt>
      <trkpt lat="42.3692240" lon="-8.3926920">
        <ele>727.2</ele>
        <time>2022-08-28T14:57:18Z</time>
      </trkpt>
      <trkpt lat="42.3692240" lon="-8.3926920">
        <ele>727.2</ele>
        <time>2022-08-28T14:57:19Z</time>
      </trkpt>
      <trkpt lat="42.3692680" lon="-8.3927050">
        <ele>727.8</ele>
        <time>2022-08-28T14:59:31Z</time>
      </trkpt>
      <trkpt lat="42.3693150" lon="-8.3927390">
        <ele>727.8</ele>
        <time>2022-08-28T14:59:33Z</time>
      </trkpt>
      <trkpt lat="42.3693790" lon="-8.3927920">
        <ele>727.8</ele>
        <time>2022-08-28T14:59:35Z</time>
      </trkpt>
      <trkpt lat="42.3695030" lon="-8.3928780">
        <ele>727.8</ele>
        <time>2022-08-28T14:59:38Z</time>
      </trkpt>
      <trkpt lat="42.3697140" lon="-8.3930360">
        <ele>726.6</ele>
        <time>2022-08-28T14:59:43Z</time>
      </trkpt>
      <trkpt lat="42.3698330" lon="-8.3931290">
        <ele>725.6</ele>
        <time>2022-08-28T14:59:46Z</time>
      </trkpt>
      <trkpt lat="42.3699670" lon="-8.3932380">
        <ele>724.8</ele>
        <time>2022-08-28T14:59:50Z</time>
      </trkpt>
      <trkpt lat="42.3700740" lon="-8.3933090">
        <ele>724.4</ele>
        <time>2022-08-28T14:59:53Z</time>
      </trkpt>
      <trkpt lat="42.3703160" lon="-8.3934930">
        <ele>723.4</ele>
        <time>2022-08-28T15:00:01Z</time>
      </trkpt>
      <trkpt lat="42.3705610" lon="-8.3937830">
        <ele>723.2</ele>
        <time>2022-08-28T15:00:11Z</time>
      </trkpt>
      <trkpt lat="42.3706400" lon="-8.3939000">
        <ele>723.0</ele>
        <time>2022-08-28T15:00:15Z</time>
      </trkpt>
      <trkpt lat="42.3706770" lon="-8.3939570">
        <ele>723.0</ele>
        <time>2022-08-28T15:00:17Z</time>
      </trkpt>
      <trkpt lat="42.3708190" lon="-8.3941810">
        <ele>723.0</ele>
        <time>2022-08-28T15:00:25Z</time>
      </trkpt>
      <trkpt lat="42.3708940" lon="-8.3943470">
        <ele>723.0</ele>
        <time>2022-08-28T15:00:32Z</time>
      </trkpt>
      <trkpt lat="42.3708700" lon="-8.3944730">
        <ele>722.8</ele>
        <time>2022-08-28T15:00:38Z</time>
      </trkpt>
      <trkpt lat="42.3708210" lon="-8.3946070">
        <ele>722.4</ele>
        <time>2022-08-28T15:00:42Z</time>
      </trkpt>
      <trkpt lat="42.3708040" lon="-8.3946470">
        <ele>722.2</ele>
        <time>2022-08-28T15:00:43Z</time>
      </trkpt>
      <trkpt lat="42.3707800" lon="-8.3947450">
        <ele>722.0</ele>
        <time>2022-08-28T15:00:45Z</time>
      </trkpt>
      <trkpt lat="42.3707810" lon="-8.3947960">
        <ele>721.8</ele>
        <time>2022-08-28T15:00:46Z</time>
      </trkpt>
      <trkpt lat="42.3708190" lon="-8.3948800">
        <ele>721.4</ele>
        <time>2022-08-28T15:00:49Z</time>
      </trkpt>
      <trkpt lat="42.3708360" lon="-8.3948990">
        <ele>721.2</ele>
        <time>2022-08-28T15:00:50Z</time>
      </trkpt>
      <trkpt lat="42.3708950" lon="-8.3949850">
        <ele>720.2</ele>
        <time>2022-08-28T15:00:53Z</time>
      </trkpt>
      <trkpt lat="42.3709170" lon="-8.3950200">
        <ele>719.8</ele>
        <time>2022-08-28T15:00:54Z</time>
      </trkpt>
      <trkpt lat="42.3709640" lon="-8.3950980">
        <ele>719.0</ele>
        <time>2022-08-28T15:00:56Z</time>
      </trkpt>
      <trkpt lat="42.3711050" lon="-8.3952900">
        <ele>718.4</ele>
        <time>2022-08-28T15:01:01Z</time>
      </trkpt>
      <trkpt lat="42.3711690" lon="-8.3953520">
        <ele>718.0</ele>
        <time>2022-08-28T15:01:04Z</time>
      </trkpt>
      <trkpt lat="42.3711910" lon="-8.3953720">
        <ele>718.0</ele>
        <time>2022-08-28T15:01:05Z</time>
      </trkpt>
      <trkpt lat="42.3713090" lon="-8.3954870">
        <ele>717.0</ele>
        <time>2022-08-28T15:01:10Z</time>
      </trkpt>
      <trkpt lat="42.3713210" lon="-8.3954970">
        <ele>716.8</ele>
        <time>2022-08-28T15:01:11Z</time>
      </trkpt>
      <trkpt lat="42.3713490" lon="-8.3955170">
        <ele>715.8</ele>
        <time>2022-08-28T15:01:15Z</time>
      </trkpt>
      <trkpt lat="42.3713760" lon="-8.3955470">
        <ele>715.4</ele>
        <time>2022-08-28T15:01:17Z</time>
      </trkpt>
      <trkpt lat="42.3714290" lon="-8.3956010">
        <ele>714.8</ele>
        <time>2022-08-28T15:01:20Z</time>
      </trkpt>
      <trkpt lat="42.3715050" lon="-8.3956640">
        <ele>714.2</ele>
        <time>2022-08-28T15:01:23Z</time>
      </trkpt>
      <trkpt lat="42.3715780" lon="-8.3957070">
        <ele>713.6</ele>
        <time>2022-08-28T15:01:26Z</time>
      </trkpt>
      <trkpt lat="42.3716190" lon="-8.3957280">
        <ele>713.2</ele>
        <time>2022-08-28T15:01:28Z</time>
      </trkpt>
      <trkpt lat="42.3716730" lon="-8.3957590">
        <ele>712.4</ele>
        <time>2022-08-28T15:01:30Z</time>
      </trkpt>
      <trkpt lat="42.3717550" lon="-8.3958060">
        <ele>711.2</ele>
        <time>2022-08-28T15:01:33Z</time>
      </trkpt>
      <trkpt lat="42.3718190" lon="-8.3958600">
        <ele>710.0</ele>
        <time>2022-08-28T15:01:38Z</time>
      </trkpt>
      <trkpt lat="42.3718210" lon="-8.3958580">
        <ele>709.8</ele>
        <time>2022-08-28T15:01:39Z</time>
      </trkpt>
      <trkpt lat="42.3726060" lon="-8.3964920">
        <ele>689.8</ele>
        <time>2022-08-28T15:03:21Z</time>
      </trkpt>
      <trkpt lat="42.3726270" lon="-8.3965180">
        <ele>689.4</ele>
        <time>2022-08-28T15:03:22Z</time>
      </trkpt>
      <trkpt lat="42.3727210" lon="-8.3966460">
        <ele>688.8</ele>
        <time>2022-08-28T15:03:27Z</time>
      </trkpt>
      <trkpt lat="42.3727410" lon="-8.3966650">
        <ele>688.6</ele>
        <time>2022-08-28T15:03:28Z</time>
      </trkpt>
      <trkpt lat="42.3728500" lon="-8.3967580">
        <ele>687.8</ele>
        <time>2022-08-28T15:03:32Z</time>
      </trkpt>
      <trkpt lat="42.3728940" lon="-8.3967850">
        <ele>687.2</ele>
        <time>2022-08-28T15:03:34Z</time>
      </trkpt>
      <trkpt lat="42.3729490" lon="-8.3968170">
        <ele>686.2</ele>
        <time>2022-08-28T15:03:36Z</time>
      </trkpt>
      <trkpt lat="42.3729990" lon="-8.3968570">
        <ele>685.4</ele>
        <time>2022-08-28T15:03:38Z</time>
      </trkpt>
      <trkpt lat="42.3730160" lon="-8.3968750">
        <ele>685.0</ele>
        <time>2022-08-28T15:03:39Z</time>
      </trkpt>
      <trkpt lat="42.3730330" lon="-8.3968990">
        <ele>684.2</ele>
        <time>2022-08-28T15:03:42Z</time>
      </trkpt>
      <trkpt lat="42.3731000" lon="-8.3969710">
        <ele>681.0</ele>
        <time>2022-08-28T15:05:39Z</time>
      </trkpt>
      <trkpt lat="42.3731270" lon="-8.3970070">
        <ele>680.8</ele>
        <time>2022-08-28T15:05:41Z</time>
      </trkpt>
      <trkpt lat="42.3731560" lon="-8.3970490">
        <ele>680.2</ele>
        <time>2022-08-28T15:05:45Z</time>
      </trkpt>
      <trkpt lat="42.3734460" lon="-8.3974890">
        <ele>670.4</ele>
        <time>2022-08-28T15:06:38Z</time>
      </trkpt>
      <trkpt lat="42.3734630" lon="-8.3975410">
        <ele>669.6</ele>
        <time>2022-08-28T15:06:43Z</time>
      </trkpt>
      <trkpt lat="42.3734770" lon="-8.3975710">
        <ele>669.2</ele>
        <time>2022-08-28T15:06:46Z</time>
      </trkpt>
      <trkpt lat="42.3735010" lon="-8.3976150">
        <ele>668.6</ele>
        <time>2022-08-28T15:06:49Z</time>
      </trkpt>
      <trkpt lat="42.3735970" lon="-8.3977220">
        <ele>668.0</ele>
        <time>2022-08-28T15:06:54Z</time>
      </trkpt>
      <trkpt lat="42.3736890" lon="-8.3978000">
        <ele>667.2</ele>
        <time>2022-08-28T15:06:59Z</time>
      </trkpt>
      <trkpt lat="42.3737020" lon="-8.3978110">
        <ele>667.0</ele>
        <time>2022-08-28T15:07:00Z</time>
      </trkpt>
      <trkpt lat="42.3737620" lon="-8.3978520">
        <ele>666.0</ele>
        <time>2022-08-28T15:07:04Z</time>
      </trkpt>
      <trkpt lat="42.3737910" lon="-8.3978640">
        <ele>665.4</ele>
        <time>2022-08-28T15:07:06Z</time>
      </trkpt>
      <trkpt lat="42.3738110" lon="-8.3978740">
        <ele>665.2</ele>
        <time>2022-08-28T15:07:08Z</time>
      </trkpt>
      <trkpt lat="42.3738100" lon="-8.3978770">
        <ele>665.0</ele>
        <time>2022-08-28T15:07:09Z</time>
      </trkpt>
      <trkpt lat="42.3741010" lon="-8.3980000">
        <ele>657.4</ele>
        <time>2022-08-28T15:07:47Z</time>
      </trkpt>
      <trkpt lat="42.3742170" lon="-8.3980160">
        <ele>656.8</ele>
        <time>2022-08-28T15:07:52Z</time>
      </trkpt>
      <trkpt lat="42.3742950" lon="-8.3979750">
        <ele>656.2</ele>
        <time>2022-08-28T15:07:56Z</time>
      </trkpt>
      <trkpt lat="42.3743060" lon="-8.3979680">
        <ele>655.8</ele>
        <time>2022-08-28T15:07:57Z</time>
      </trkpt>
      <trkpt lat="42.3743170" lon="-8.3979580">
        <ele>655.0</ele>
        <time>2022-08-28T15:07:59Z</time>
      </trkpt>
      <trkpt lat="42.3743390" lon="-8.3979400">
        <ele>654.0</ele>
        <time>2022-08-28T15:08:01Z</time>
      </trkpt>
      <trkpt lat="42.3743480" lon="-8.3979350">
        <ele>653.6</ele>
        <time>2022-08-28T15:08:02Z</time>
      </trkpt>
      <trkpt lat="42.3743640" lon="-8.3979350">
        <ele>653.0</ele>
        <time>2022-08-28T15:08:04Z</time>
      </trkpt>
      <trkpt lat="42.3744320" lon="-8.3978920">
        <ele>652.0</ele>
        <time>2022-08-28T15:08:09Z</time>
      </trkpt>
      <trkpt lat="42.3744500" lon="-8.3978820">
        <ele>651.8</ele>
        <time>2022-08-28T15:08:10Z</time>
      </trkpt>
      <trkpt lat="42.3745600" lon="-8.3978190">
        <ele>650.8</ele>
        <time>2022-08-28T15:08:15Z</time>
      </trkpt>
      <trkpt lat="42.3745770" lon="-8.3978090">
        <ele>650.4</ele>
        <time>2022-08-28T15:08:16Z</time>
      </trkpt>
      <trkpt lat="42.3745920" lon="-8.3978040">
        <ele>649.4</ele>
        <time>2022-08-28T15:08:19Z</time>
      </trkpt>
      <trkpt lat="42.3747700" lon="-8.3975490">
        <ele>642.4</ele>
        <time>2022-08-28T15:08:56Z</time>
      </trkpt>
      <trkpt lat="42.3747630" lon="-8.3973590">
        <ele>641.8</ele>
        <time>2022-08-28T15:09:01Z</time>
      </trkpt>
      <trkpt lat="42.3747170" lon="-8.3971360">
        <ele>641.0</ele>
        <time>2022-08-28T15:09:06Z</time>
      </trkpt>
      <trkpt lat="42.3746840" lon="-8.3970200">
        <ele>639.4</ele>
        <time>2022-08-28T15:09:09Z</time>
      </trkpt>
      <trkpt lat="42.3746300" lon="-8.3969130">
        <ele>638.2</ele>
        <time>2022-08-28T15:09:12Z</time>
      </trkpt>
      <trkpt lat="42.3746150" lon="-8.3968340">
        <ele>638.0</ele>
        <time>2022-08-28T15:09:14Z</time>
      </trkpt>
      <trkpt lat="42.3746300" lon="-8.3967580">
        <ele>637.8</ele>
        <time>2022-08-28T15:09:16Z</time>
      </trkpt>
      <trkpt lat="42.3747050" lon="-8.3966410">
        <ele>637.4</ele>
        <time>2022-08-28T15:09:21Z</time>
      </trkpt>
      <trkpt lat="42.3748420" lon="-8.3965740">
        <ele>637.2</ele>
        <time>2022-08-28T15:09:26Z</time>
      </trkpt>
      <trkpt lat="42.3748740" lon="-8.3965720">
        <ele>637.2</ele>
        <time>2022-08-28T15:09:27Z</time>
      </trkpt>
      <trkpt lat="42.3750820" lon="-8.3965460">
        <ele>636.8</ele>
        <time>2022-08-28T15:09:33Z</time>
      </trkpt>
      <trkpt lat="42.3751930" lon="-8.3965410">
        <ele>636.4</ele>
        <time>2022-08-28T15:09:38Z</time>
      </trkpt>
      <trkpt lat="42.3752800" lon="-8.3965490">
        <ele>636.2</ele>
        <time>2022-08-28T15:09:44Z</time>
      </trkpt>
      <trkpt lat="42.3753640" lon="-8.3965240">
        <ele>636.2</ele>
        <time>2022-08-28T15:09:51Z</time>
      </trkpt>
      <trkpt lat="42.3754350" lon="-8.3964730">
        <ele>636.4</ele>
        <time>2022-08-28T15:09:58Z</time>
      </trkpt>
      <trkpt lat="42.3755140" lon="-8.3964380">
        <ele>637.0</ele>
        <time>2022-08-28T15:10:04Z</time>
      </trkpt>
      <trkpt lat="42.3755450" lon="-8.3964300">
        <ele>637.4</ele>
        <time>2022-08-28T15:10:06Z</time>
      </trkpt>
      <trkpt lat="42.3755980" lon="-8.3964210">
        <ele>637.8</ele>
        <time>2022-08-28T15:10:10Z</time>
      </trkpt>
      <trkpt lat="42.3756980" lon="-8.3964420">
        <ele>638.4</ele>
        <time>2022-08-28T15:10:17Z</time>
      </trkpt>
      <trkpt lat="42.3758440" lon="-8.3964410">
        <ele>638.4</ele>
        <time>2022-08-28T15:10:23Z</time>
      </trkpt>
      <trkpt lat="42.3759850" lon="-8.3964510">
        <ele>638.4</ele>
        <time>2022-08-28T15:10:28Z</time>
      </trkpt>
      <trkpt lat="42.3761430" lon="-8.3964460">
        <ele>637.6</ele>
        <time>2022-08-28T15:10:33Z</time>
      </trkpt>
      <trkpt lat="42.3761760" lon="-8.3964490">
        <ele>637.4</ele>
        <time>2022-08-28T15:10:34Z</time>
      </trkpt>
      <trkpt lat="42.3763250" lon="-8.3965110">
        <ele>636.8</ele>
        <time>2022-08-28T15:10:38Z</time>
      </trkpt>
      <trkpt lat="42.3764260" lon="-8.3965430">
        <ele>636.4</ele>
        <time>2022-08-28T15:10:41Z</time>
      </trkpt>
      <trkpt lat="42.3764910" lon="-8.3965680">
        <ele>635.6</ele>
        <time>2022-08-28T15:10:43Z</time>
      </trkpt>
      <trkpt lat="42.3765170" lon="-8.3965740">
        <ele>635.4</ele>
        <time>2022-08-28T15:10:44Z</time>
      </trkpt>
      <trkpt lat="42.3765540" lon="-8.3965830">
        <ele>635.0</ele>
        <time>2022-08-28T15:10:47Z</time>
      </trkpt>
      <trkpt lat="42.3765560" lon="-8.3965820">
        <ele>634.8</ele>
        <time>2022-08-28T15:10:48Z</time>
      </trkpt>
      <trkpt lat="42.3765900" lon="-8.3965730">
        <ele>634.2</ele>
        <time>2022-08-28T15:10:51Z</time>
      </trkpt>
      <trkpt lat="42.3766180" lon="-8.3965780">
        <ele>633.8</ele>
        <time>2022-08-28T15:10:53Z</time>
      </trkpt>
      <trkpt lat="42.3766300" lon="-8.3965820">
        <ele>633.6</ele>
        <time>2022-08-28T15:10:56Z</time>
      </trkpt>
      <trkpt lat="42.3767020" lon="-8.3965890">
        <ele>632.8</ele>
        <time>2022-08-28T15:11:03Z</time>
      </trkpt>
      <trkpt lat="42.3768590" lon="-8.3965800">
        <ele>631.6</ele>
        <time>2022-08-28T15:11:10Z</time>
      </trkpt>
      <trkpt lat="42.3768840" lon="-8.3965770">
        <ele>631.6</ele>
        <time>2022-08-28T15:11:11Z</time>
      </trkpt>
      <trkpt lat="42.3769360" lon="-8.3965710">
        <ele>630.4</ele>
        <time>2022-08-28T15:11:13Z</time>
      </trkpt>
      <trkpt lat="42.3770080" lon="-8.3965650">
        <ele>629.0</ele>
        <time>2022-08-28T15:11:16Z</time>
      </trkpt>
      <trkpt lat="42.3770390" lon="-8.3965660">
        <ele>628.2</ele>
        <time>2022-08-28T15:11:18Z</time>
      </trkpt>
      <trkpt lat="42.3770500" lon="-8.3965690">
        <ele>627.6</ele>
        <time>2022-08-28T15:11:19Z</time>
      </trkpt>
      <trkpt lat="42.3770720" lon="-8.3965760">
        <ele>626.4</ele>
        <time>2022-08-28T15:11:21Z</time>
      </trkpt>
      <trkpt lat="42.3771050" lon="-8.3965870">
        <ele>625.2</ele>
        <time>2022-08-28T15:11:23Z</time>
      </trkpt>
      <trkpt lat="42.3771620" lon="-8.3966050">
        <ele>624.0</ele>
        <time>2022-08-28T15:11:27Z</time>
      </trkpt>
      <trkpt lat="42.3771880" lon="-8.3966170">
        <ele>623.0</ele>
        <time>2022-08-28T15:11:30Z</time>
      </trkpt>
      <trkpt lat="42.3771910" lon="-8.3966390">
        <ele>622.6</ele>
        <time>2022-08-28T15:11:32Z</time>
      </trkpt>
      <trkpt lat="42.3771960" lon="-8.3967140">
        <ele>621.6</ele>
        <time>2022-08-28T15:11:35Z</time>
      </trkpt>
      <trkpt lat="42.3772570" lon="-8.3968870">
        <ele>620.4</ele>
        <time>2022-08-28T15:11:40Z</time>
      </trkpt>
      <trkpt lat="42.3773350" lon="-8.3970160">
        <ele>619.2</ele>
        <time>2022-08-28T15:11:45Z</time>
      </trkpt>
      <trkpt lat="42.3773500" lon="-8.3970340">
        <ele>618.8</ele>
        <time>2022-08-28T15:11:46Z</time>
      </trkpt>
      <trkpt lat="42.3773870" lon="-8.3970700">
        <ele>618.0</ele>
        <time>2022-08-28T15:11:48Z</time>
      </trkpt>
      <trkpt lat="42.3774470" lon="-8.3971110">
        <ele>617.0</ele>
        <time>2022-08-28T15:11:51Z</time>
      </trkpt>
      <trkpt lat="42.3774610" lon="-8.3971210">
        <ele>616.6</ele>
        <time>2022-08-28T15:11:52Z</time>
      </trkpt>
      <trkpt lat="42.3774830" lon="-8.3971320">
        <ele>616.0</ele>
        <time>2022-08-28T15:11:54Z</time>
      </trkpt>
      <trkpt lat="42.3775130" lon="-8.3971370">
        <ele>615.0</ele>
        <time>2022-08-28T15:11:56Z</time>
      </trkpt>
      <trkpt lat="42.3775630" lon="-8.3971590">
        <ele>614.0</ele>
        <time>2022-08-28T15:11:58Z</time>
      </trkpt>
      <trkpt lat="42.3775990" lon="-8.3971790">
        <ele>613.6</ele>
        <time>2022-08-28T15:11:59Z</time>
      </trkpt>
      <trkpt lat="42.3776870" lon="-8.3972290">
        <ele>613.0</ele>
        <time>2022-08-28T15:12:01Z</time>
      </trkpt>
      <trkpt lat="42.3777360" lon="-8.3972460">
        <ele>612.6</ele>
        <time>2022-08-28T15:12:02Z</time>
      </trkpt>
      <trkpt lat="42.3777860" lon="-8.3972650">
        <ele>612.4</ele>
        <time>2022-08-28T15:12:03Z</time>
      </trkpt>
      <trkpt lat="42.3778860" lon="-8.3973120">
        <ele>611.6</ele>
        <time>2022-08-28T15:12:05Z</time>
      </trkpt>
      <trkpt lat="42.3779300" lon="-8.3973280">
        <ele>611.2</ele>
        <time>2022-08-28T15:12:06Z</time>
      </trkpt>
      <trkpt lat="42.3779650" lon="-8.3973400">
        <ele>610.8</ele>
        <time>2022-08-28T15:12:07Z</time>
      </trkpt>
      <trkpt lat="42.3780100" lon="-8.3973570">
        <ele>610.0</ele>
        <time>2022-08-28T15:12:09Z</time>
      </trkpt>
      <trkpt lat="42.3780490" lon="-8.3973610">
        <ele>609.4</ele>
        <time>2022-08-28T15:12:11Z</time>
      </trkpt>
      <trkpt lat="42.3782230" lon="-8.3974230">
        <ele>609.4</ele>
        <time>2022-08-28T15:12:18Z</time>
      </trkpt>
      <trkpt lat="42.3784100" lon="-8.3975390">
        <ele>609.4</ele>
        <time>2022-08-28T15:12:25Z</time>
      </trkpt>
      <trkpt lat="42.3784990" lon="-8.3976240">
        <ele>609.2</ele>
        <time>2022-08-28T15:12:30Z</time>
      </trkpt>
      <trkpt lat="42.3785450" lon="-8.3976490">
        <ele>608.8</ele>
        <time>2022-08-28T15:12:32Z</time>
      </trkpt>
      <trkpt lat="42.3786270" lon="-8.3976890">
        <ele>607.6</ele>
        <time>2022-08-28T15:12:35Z</time>
      </trkpt>
      <trkpt lat="42.3786500" lon="-8.3976950">
        <ele>607.2</ele>
        <time>2022-08-28T15:12:36Z</time>
      </trkpt>
      <trkpt lat="42.3786870" lon="-8.3977150">
        <ele>606.8</ele>
        <time>2022-08-28T15:12:38Z</time>
      </trkpt>
      <trkpt lat="42.3787000" lon="-8.3977300">
        <ele>606.4</ele>
        <time>2022-08-28T15:12:39Z</time>
      </trkpt>
      <trkpt lat="42.3787150" lon="-8.3977450">
        <ele>605.6</ele>
        <time>2022-08-28T15:12:40Z</time>
      </trkpt>
      <trkpt lat="42.3787280" lon="-8.3977630">
        <ele>605.2</ele>
        <time>2022-08-28T15:12:41Z</time>
      </trkpt>
      <trkpt lat="42.3787640" lon="-8.3978210">
        <ele>604.2</ele>
        <time>2022-08-28T15:12:44Z</time>
      </trkpt>
      <trkpt lat="42.3787790" lon="-8.3978420">
        <ele>603.8</ele>
        <time>2022-08-28T15:12:45Z</time>
      </trkpt>
      <trkpt lat="42.3788170" lon="-8.3978780">
        <ele>603.0</ele>
        <time>2022-08-28T15:12:48Z</time>
      </trkpt>
      <trkpt lat="42.3788500" lon="-8.3979070">
        <ele>602.6</ele>
        <time>2022-08-28T15:12:51Z</time>
      </trkpt>
      <trkpt lat="42.3788920" lon="-8.3979420">
        <ele>602.2</ele>
        <time>2022-08-28T15:12:53Z</time>
      </trkpt>
      <trkpt lat="42.3789370" lon="-8.3979700">
        <ele>601.8</ele>
        <time>2022-08-28T15:12:55Z</time>
      </trkpt>
      <trkpt lat="42.3790160" lon="-8.3979830">
        <ele>601.0</ele>
        <time>2022-08-28T15:12:59Z</time>
      </trkpt>
      <trkpt lat="42.3790390" lon="-8.3979830">
        <ele>600.8</ele>
        <time>2022-08-28T15:13:00Z</time>
      </trkpt>
      <trkpt lat="42.3791380" lon="-8.3979890">
        <ele>600.0</ele>
        <time>2022-08-28T15:13:04Z</time>
      </trkpt>
      <trkpt lat="42.3791710" lon="-8.3979850">
        <ele>599.6</ele>
        <time>2022-08-28T15:13:05Z</time>
      </trkpt>
      <trkpt lat="42.3792900" lon="-8.3979620">
        <ele>599.2</ele>
        <time>2022-08-28T15:13:08Z</time>
      </trkpt>
      <trkpt lat="42.3793280" lon="-8.3979440">
        <ele>599.0</ele>
        <time>2022-08-28T15:13:09Z</time>
      </trkpt>
      <trkpt lat="42.3793610" lon="-8.3979200">
        <ele>598.2</ele>
        <time>2022-08-28T15:13:10Z</time>
      </trkpt>
      <trkpt lat="42.3793930" lon="-8.3978760">
        <ele>597.8</ele>
        <time>2022-08-28T15:13:12Z</time>
      </trkpt>
      <trkpt lat="42.3794180" lon="-8.3978360">
        <ele>597.2</ele>
        <time>2022-08-28T15:13:14Z</time>
      </trkpt>
      <trkpt lat="42.3794570" lon="-8.3978000">
        <ele>596.6</ele>
        <time>2022-08-28T15:13:17Z</time>
      </trkpt>
      <trkpt lat="42.3794880" lon="-8.3977900">
        <ele>596.4</ele>
        <time>2022-08-28T15:13:19Z</time>
      </trkpt>
      <trkpt lat="42.3795900" lon="-8.3977180">
        <ele>596.0</ele>
        <time>2022-08-28T15:13:25Z</time>
      </trkpt>
      <trkpt lat="42.3796540" lon="-8.3976820">
        <ele>595.4</ele>
        <time>2022-08-28T15:13:28Z</time>
      </trkpt>
      <trkpt lat="42.3797310" lon="-8.3976710">
        <ele>595.2</ele>
        <time>2022-08-28T15:13:31Z</time>
      </trkpt>
      <trkpt lat="42.3797890" lon="-8.3976650">
        <ele>594.6</ele>
        <time>2022-08-28T15:13:33Z</time>
      </trkpt>
      <trkpt lat="42.3799260" lon="-8.3976330">
        <ele>593.6</ele>
        <time>2022-08-28T15:13:38Z</time>
      </trkpt>
      <trkpt lat="42.3800750" lon="-8.3976270">
        <ele>593.4</ele>
        <time>2022-08-28T15:13:44Z</time>
      </trkpt>
      <trkpt lat="42.3801690" lon="-8.3975710">
        <ele>593.6</ele>
        <time>2022-08-28T15:13:49Z</time>
      </trkpt>
      <trkpt lat="42.3802560" lon="-8.3975180">
        <ele>594.2</ele>
        <time>2022-08-28T15:13:55Z</time>
      </trkpt>
      <trkpt lat="42.3803100" lon="-8.3975040">
        <ele>594.6</ele>
        <time>2022-08-28T15:13:58Z</time>
      </trkpt>
      <trkpt lat="42.3803650" lon="-8.3975080">
        <ele>595.2</ele>
        <time>2022-08-28T15:14:01Z</time>
      </trkpt>
      <trkpt lat="42.3804350" lon="-8.3975180">
        <ele>595.8</ele>
        <time>2022-08-28T15:14:05Z</time>
      </trkpt>
      <trkpt lat="42.3805030" lon="-8.3975250">
        <ele>595.8</ele>
        <time>2022-08-28T15:14:09Z</time>
      </trkpt>
      <trkpt lat="42.3805260" lon="-8.3975190">
        <ele>595.8</ele>
        <time>2022-08-28T15:14:12Z</time>
      </trkpt>
      <trkpt lat="42.3805730" lon="-8.3973610">
        <ele>593.8</ele>
        <time>2022-08-28T15:14:29Z</time>
      </trkpt>
      <trkpt lat="42.3805760" lon="-8.3973010">
        <ele>593.4</ele>
        <time>2022-08-28T15:14:34Z</time>
      </trkpt>
      <trkpt lat="42.3805520" lon="-8.3972390">
        <ele>592.6</ele>
        <time>2022-08-28T15:14:38Z</time>
      </trkpt>
      <trkpt lat="42.3804580" lon="-8.3970470">
        <ele>592.0</ele>
        <time>2022-08-28T15:14:44Z</time>
      </trkpt>
      <trkpt lat="42.3805090" lon="-8.3969340">
        <ele>591.8</ele>
        <time>2022-08-28T15:14:47Z</time>
      </trkpt>
      <trkpt lat="42.3805340" lon="-8.3969140">
        <ele>591.4</ele>
        <time>2022-08-28T15:14:48Z</time>
      </trkpt>
      <trkpt lat="42.3806010" lon="-8.3968820">
        <ele>590.2</ele>
        <time>2022-08-28T15:14:51Z</time>
      </trkpt>
      <trkpt lat="42.3806370" lon="-8.3968490">
        <ele>589.0</ele>
        <time>2022-08-28T15:14:54Z</time>
      </trkpt>
      <trkpt lat="42.3806540" lon="-8.3968310">
        <ele>588.8</ele>
        <time>2022-08-28T15:14:55Z</time>
      </trkpt>
      <trkpt lat="42.3807010" lon="-8.3967850">
        <ele>588.0</ele>
        <time>2022-08-28T15:14:57Z</time>
      </trkpt>
      <trkpt lat="42.3808390" lon="-8.3966610">
        <ele>586.8</ele>
        <time>2022-08-28T15:15:01Z</time>
      </trkpt>
      <trkpt lat="42.3809100" lon="-8.3966340">
        <ele>586.2</ele>
        <time>2022-08-28T15:15:03Z</time>
      </trkpt>
      <trkpt lat="42.3809750" lon="-8.3966280">
        <ele>585.4</ele>
        <time>2022-08-28T15:15:05Z</time>
      </trkpt>
      <trkpt lat="42.3810310" lon="-8.3966300">
        <ele>583.8</ele>
        <time>2022-08-28T15:15:07Z</time>
      </trkpt>
      <trkpt lat="42.3810640" lon="-8.3966320">
        <ele>583.0</ele>
        <time>2022-08-28T15:15:08Z</time>
      </trkpt>
      <trkpt lat="42.3810980" lon="-8.3966320">
        <ele>582.6</ele>
        <time>2022-08-28T15:15:09Z</time>
      </trkpt>
      <trkpt lat="42.3811890" lon="-8.3966380">
        <ele>581.6</ele>
        <time>2022-08-28T15:15:12Z</time>
      </trkpt>
      <trkpt lat="42.3812140" lon="-8.3966420">
        <ele>581.4</ele>
        <time>2022-08-28T15:15:13Z</time>
      </trkpt>
      <trkpt lat="42.3813400" lon="-8.3966450">
        <ele>580.0</ele>
        <time>2022-08-28T15:15:18Z</time>
      </trkpt>
      <trkpt lat="42.3813770" lon="-8.3966430">
        <ele>579.6</ele>
        <time>2022-08-28T15:15:19Z</time>
      </trkpt>
      <trkpt lat="42.3815180" lon="-8.3966400">
        <ele>579.0</ele>
        <time>2022-08-28T15:15:22Z</time>
      </trkpt>
      <trkpt lat="42.3816210" lon="-8.3966160">
        <ele>578.4</ele>
        <time>2022-08-28T15:15:24Z</time>
      </trkpt>
      <trkpt lat="42.3816720" lon="-8.3966070">
        <ele>578.0</ele>
        <time>2022-08-28T15:15:25Z</time>
      </trkpt>
      <trkpt lat="42.3818700" lon="-8.3965970">
        <ele>576.4</ele>
        <time>2022-08-28T15:15:29Z</time>
      </trkpt>
      <trkpt lat="42.3819030" lon="-8.3966020">
        <ele>575.8</ele>
        <time>2022-08-28T15:15:30Z</time>
      </trkpt>
      <trkpt lat="42.3819280" lon="-8.3966100">
        <ele>575.4</ele>
        <time>2022-08-28T15:15:31Z</time>
      </trkpt>
      <trkpt lat="42.3820090" lon="-8.3966430">
        <ele>574.8</ele>
        <time>2022-08-28T15:15:35Z</time>
      </trkpt>
      <trkpt lat="42.3820530" lon="-8.3966570">
        <ele>574.4</ele>
        <time>2022-08-28T15:15:38Z</time>
      </trkpt>
      <trkpt lat="42.3821170" lon="-8.3966920">
        <ele>574.2</ele>
        <time>2022-08-28T15:15:41Z</time>
      </trkpt>
      <trkpt lat="42.3821490" lon="-8.3967090">
        <ele>573.6</ele>
        <time>2022-08-28T15:15:45Z</time>
      </trkpt>
      <trkpt lat="42.3822090" lon="-8.3967480">
        <ele>571.6</ele>
        <time>2022-08-28T15:16:26Z</time>
      </trkpt>
      <trkpt lat="42.3822440" lon="-8.3967800">
        <ele>571.6</ele>
        <time>2022-08-28T15:16:29Z</time>
      </trkpt>
      <trkpt lat="42.3822970" lon="-8.3968190">
        <ele>570.4</ele>
        <time>2022-08-28T15:16:36Z</time>
      </trkpt>
      <trkpt lat="42.3823180" lon="-8.3968380">
        <ele>569.8</ele>
        <time>2022-08-28T15:16:40Z</time>
      </trkpt>
      <trkpt lat="42.3824120" lon="-8.3968960">
        <ele>569.0</ele>
        <time>2022-08-28T15:16:50Z</time>
      </trkpt>
      <trkpt lat="42.3824200" lon="-8.3969120">
        <ele>568.8</ele>
        <time>2022-08-28T15:16:51Z</time>
      </trkpt>
      <trkpt lat="42.3824280" lon="-8.3969710">
        <ele>568.4</ele>
        <time>2022-08-28T15:16:54Z</time>
      </trkpt>
      <trkpt lat="42.3824280" lon="-8.3970210">
        <ele>567.8</ele>
        <time>2022-08-28T15:16:57Z</time>
      </trkpt>
      <trkpt lat="42.3824280" lon="-8.3970350">
        <ele>567.8</ele>
        <time>2022-08-28T15:16:58Z</time>
      </trkpt>
      <trkpt lat="42.3824260" lon="-8.3971220">
        <ele>567.4</ele>
        <time>2022-08-28T15:17:07Z</time>
      </trkpt>
      <trkpt lat="42.3824420" lon="-8.3972180">
        <ele>567.4</ele>
        <time>2022-08-28T15:21:14Z</time>
      </trkpt>
      <trkpt lat="42.3824470" lon="-8.3972860">
        <ele>567.4</ele>
        <time>2022-08-28T15:21:16Z</time>
      </trkpt>
      <trkpt lat="42.3824950" lon="-8.3974100">
        <ele>567.6</ele>
        <time>2022-08-28T15:21:22Z</time>
      </trkpt>
      <trkpt lat="42.3826020" lon="-8.3974820">
        <ele>568.2</ele>
        <time>2022-08-28T15:21:31Z</time>
      </trkpt>
      <trkpt lat="42.3826500" lon="-8.3975050">
        <ele>569.0</ele>
        <time>2022-08-28T15:21:35Z</time>
      </trkpt>
      <trkpt lat="42.3827070" lon="-8.3975350">
        <ele>570.0</ele>
        <time>2022-08-28T15:21:40Z</time>
      </trkpt>
      <trkpt lat="42.3827760" lon="-8.3975770">
        <ele>571.2</ele>
        <time>2022-08-28T15:21:46Z</time>
      </trkpt>
      <trkpt lat="42.3828210" lon="-8.3976020">
        <ele>571.8</ele>
        <time>2022-08-28T15:21:50Z</time>
      </trkpt>
      <trkpt lat="42.3828410" lon="-8.3976150">
        <ele>572.2</ele>
        <time>2022-08-28T15:21:52Z</time>
      </trkpt>
      <trkpt lat="42.3828760" lon="-8.3976360">
        <ele>573.0</ele>
        <time>2022-08-28T15:21:57Z</time>
      </trkpt>
      <trkpt lat="42.3830060" lon="-8.3977430">
        <ele>574.6</ele>
        <time>2022-08-28T15:23:12Z</time>
      </trkpt>
      <trkpt lat="42.3830450" lon="-8.3977700">
        <ele>574.6</ele>
        <time>2022-08-28T15:23:15Z</time>
      </trkpt>
      <trkpt lat="42.3831010" lon="-8.3978530">
        <ele>575.0</ele>
        <time>2022-08-28T15:23:21Z</time>
      </trkpt>
      <trkpt lat="42.3831020" lon="-8.3978740">
        <ele>575.2</ele>
        <time>2022-08-28T15:23:22Z</time>
      </trkpt>
      <trkpt lat="42.3831030" lon="-8.3979550">
        <ele>575.8</ele>
        <time>2022-08-28T15:23:26Z</time>
      </trkpt>
      <trkpt lat="42.3830920" lon="-8.3980480">
        <ele>577.2</ele>
        <time>2022-08-28T15:23:31Z</time>
      </trkpt>
      <trkpt lat="42.3831110" lon="-8.3981160">
        <ele>577.8</ele>
        <time>2022-08-28T15:23:35Z</time>
      </trkpt>
      <trkpt lat="42.3831330" lon="-8.3981290">
        <ele>577.8</ele>
        <time>2022-08-28T15:23:36Z</time>
      </trkpt>
      <trkpt lat="42.3832680" lon="-8.3981600">
        <ele>577.8</ele>
        <time>2022-08-28T15:23:39Z</time>
      </trkpt>
      <trkpt lat="42.3834700" lon="-8.3982250">
        <ele>577.2</ele>
        <time>2022-08-28T15:23:44Z</time>
      </trkpt>
      <trkpt lat="42.3836360" lon="-8.3982540">
        <ele>576.6</ele>
        <time>2022-08-28T15:23:52Z</time>
      </trkpt>
      <trkpt lat="42.3837920" lon="-8.3982270">
        <ele>577.6</ele>
        <time>2022-08-28T15:24:00Z</time>
      </trkpt>
      <trkpt lat="42.3838700" lon="-8.3982040">
        <ele>578.4</ele>
        <time>2022-08-28T15:24:05Z</time>
      </trkpt>
      <trkpt lat="42.3838940" lon="-8.3981910">
        <ele>578.6</ele>
        <time>2022-08-28T15:24:07Z</time>
      </trkpt>
      <trkpt lat="42.3839400" lon="-8.3981440">
        <ele>579.4</ele>
        <time>2022-08-28T15:24:11Z</time>
      </trkpt>
      <trkpt lat="42.3839790" lon="-8.3981140">
        <ele>579.8</ele>
        <time>2022-08-28T15:24:14Z</time>
      </trkpt>
      <trkpt lat="42.3840350" lon="-8.3981200">
        <ele>580.4</ele>
        <time>2022-08-28T15:24:18Z</time>
      </trkpt>
      <trkpt lat="42.3840440" lon="-8.3981240">
        <ele>580.6</ele>
        <time>2022-08-28T15:24:20Z</time>
      </trkpt>
      <trkpt lat="42.3842650" lon="-8.3982370">
        <ele>584.0</ele>
        <time>2022-08-28T15:26:39Z</time>
      </trkpt>
      <trkpt lat="42.3842360" lon="-8.3982530">
        <ele>584.0</ele>
        <time>2022-08-28T15:26:41Z</time>
      </trkpt>
      <trkpt lat="42.3842130" lon="-8.3982660">
        <ele>584.2</ele>
        <time>2022-08-28T15:26:45Z</time>
      </trkpt>
      <trkpt lat="42.3841420" lon="-8.3984000">
        <ele>585.4</ele>
        <time>2022-08-28T15:27:01Z</time>
      </trkpt>
      <trkpt lat="42.3841310" lon="-8.3985230">
        <ele>585.4</ele>
        <time>2022-08-28T15:27:05Z</time>
      </trkpt>
      <trkpt lat="42.3841310" lon="-8.3985610">
        <ele>585.2</ele>
        <time>2022-08-28T15:27:06Z</time>
      </trkpt>
      <trkpt lat="42.3841190" lon="-8.3987410">
        <ele>585.2</ele>
        <time>2022-08-28T15:27:12Z</time>
      </trkpt>
      <trkpt lat="42.3841390" lon="-8.3989620">
        <ele>585.0</ele>
        <time>2022-08-28T15:27:18Z</time>
      </trkpt>
      <trkpt lat="42.3841770" lon="-8.3990640">
        <ele>584.8</ele>
        <time>2022-08-28T15:27:22Z</time>
      </trkpt>
      <trkpt lat="42.3841770" lon="-8.3990880">
        <ele>584.6</ele>
        <time>2022-08-28T15:27:23Z</time>
      </trkpt>
      <trkpt lat="42.3841730" lon="-8.3991750">
        <ele>584.6</ele>
        <time>2022-08-28T15:27:28Z</time>
      </trkpt>
      <trkpt lat="42.3841910" lon="-8.3993140">
        <ele>584.0</ele>
        <time>2022-08-28T15:27:49Z</time>
      </trkpt>
      <trkpt lat="42.3842010" lon="-8.3993580">
        <ele>583.6</ele>
        <time>2022-08-28T15:27:52Z</time>
      </trkpt>
      <trkpt lat="42.3842100" lon="-8.3993830">
        <ele>583.4</ele>
        <time>2022-08-28T15:27:54Z</time>
      </trkpt>
      <trkpt lat="42.3842180" lon="-8.3994350">
        <ele>582.8</ele>
        <time>2022-08-28T15:27:57Z</time>
      </trkpt>
      <trkpt lat="42.3842270" lon="-8.3995240">
        <ele>582.4</ele>
        <time>2022-08-28T15:28:01Z</time>
      </trkpt>
      <trkpt lat="42.3842400" lon="-8.3995780">
        <ele>582.4</ele>
        <time>2022-08-28T15:28:04Z</time>
      </trkpt>
      <trkpt lat="42.3842570" lon="-8.3996310">
        <ele>582.0</ele>
        <time>2022-08-28T15:28:07Z</time>
      </trkpt>
      <trkpt lat="42.3842870" lon="-8.3997050">
        <ele>581.8</ele>
        <time>2022-08-28T15:28:12Z</time>
      </trkpt>
      <trkpt lat="42.3843040" lon="-8.3997490">
        <ele>581.4</ele>
        <time>2022-08-28T15:28:15Z</time>
      </trkpt>
      <trkpt lat="42.3843330" lon="-8.3997850">
        <ele>580.8</ele>
        <time>2022-08-28T15:28:18Z</time>
      </trkpt>
      <trkpt lat="42.3843630" lon="-8.3998200">
        <ele>579.6</ele>
        <time>2022-08-28T15:28:21Z</time>
      </trkpt>
      <trkpt lat="42.3843840" lon="-8.3998470">
        <ele>579.2</ele>
        <time>2022-08-28T15:28:23Z</time>
      </trkpt>
      <trkpt lat="42.3844190" lon="-8.3998770">
        <ele>578.6</ele>
        <time>2022-08-28T15:28:26Z</time>
      </trkpt>
      <trkpt lat="42.3844590" lon="-8.3999070">
        <ele>577.6</ele>
        <time>2022-08-28T15:28:29Z</time>
      </trkpt>
      <trkpt lat="42.3844710" lon="-8.3999160">
        <ele>577.4</ele>
        <time>2022-08-28T15:28:30Z</time>
      </trkpt>
      <trkpt lat="42.3845240" lon="-8.3999600">
        <ele>576.4</ele>
        <time>2022-08-28T15:28:35Z</time>
      </trkpt>
      <trkpt lat="42.3845430" lon="-8.3999830">
        <ele>576.2</ele>
        <time>2022-08-28T15:28:37Z</time>
      </trkpt>
      <trkpt lat="42.3846170" lon="-8.4000570">
        <ele>575.8</ele>
        <time>2022-08-28T15:28:45Z</time>
      </trkpt>
      <trkpt lat="42.3846430" lon="-8.4000820">
        <ele>575.4</ele>
        <time>2022-08-28T15:28:48Z</time>
      </trkpt>
      <trkpt lat="42.3846510" lon="-8.4000890">
        <ele>575.2</ele>
        <time>2022-08-28T15:28:49Z</time>
      </trkpt>
      <trkpt lat="42.3846690" lon="-8.4001090">
        <ele>574.8</ele>
        <time>2022-08-28T15:28:51Z</time>
      </trkpt>
      <trkpt lat="42.3847100" lon="-8.4001690">
        <ele>574.2</ele>
        <time>2022-08-28T15:28:56Z</time>
      </trkpt>
      <trkpt lat="42.3847260" lon="-8.4001940">
        <ele>573.8</ele>
        <time>2022-08-28T15:28:58Z</time>
      </trkpt>
      <trkpt lat="42.3847650" lon="-8.4002230">
        <ele>573.2</ele>
        <time>2022-08-28T15:29:02Z</time>
      </trkpt>
      <trkpt lat="42.3847960" lon="-8.4002500">
        <ele>572.6</ele>
        <time>2022-08-28T15:29:05Z</time>
      </trkpt>
      <trkpt lat="42.3848240" lon="-8.4002780">
        <ele>571.8</ele>
        <time>2022-08-28T15:29:08Z</time>
      </trkpt>
      <trkpt lat="42.3848650" lon="-8.4003170">
        <ele>571.4</ele>
        <time>2022-08-28T15:29:12Z</time>
      </trkpt>
      <trkpt lat="42.3848980" lon="-8.4003600">
        <ele>570.8</ele>
        <time>2022-08-28T15:29:16Z</time>
      </trkpt>
      <trkpt lat="42.3849060" lon="-8.4003720">
        <ele>570.4</ele>
        <time>2022-08-28T15:29:17Z</time>
      </trkpt>
      <trkpt lat="42.3849230" lon="-8.4003760">
        <ele>570.2</ele>
        <time>2022-08-28T15:29:19Z</time>
      </trkpt>
      <trkpt lat="42.3849470" lon="-8.4003940">
        <ele>569.6</ele>
        <time>2022-08-28T15:29:22Z</time>
      </trkpt>
      <trkpt lat="42.3849990" lon="-8.4004300">
        <ele>569.2</ele>
        <time>2022-08-28T15:29:27Z</time>
      </trkpt>
      <trkpt lat="42.3850480" lon="-8.4004490">
        <ele>568.6</ele>
        <time>2022-08-28T15:29:31Z</time>
      </trkpt>
      <trkpt lat="42.3850840" lon="-8.4004660">
        <ele>568.2</ele>
        <time>2022-08-28T15:29:34Z</time>
      </trkpt>
      <trkpt lat="42.3851170" lon="-8.4004810">
        <ele>567.6</ele>
        <time>2022-08-28T15:29:37Z</time>
      </trkpt>
      <trkpt lat="42.3851350" lon="-8.4004980">
        <ele>567.2</ele>
        <time>2022-08-28T15:29:39Z</time>
      </trkpt>
      <trkpt lat="42.3851470" lon="-8.4005140">
        <ele>567.0</ele>
        <time>2022-08-28T15:29:41Z</time>
      </trkpt>
      <trkpt lat="42.3851490" lon="-8.4005230">
        <ele>566.4</ele>
        <time>2022-08-28T15:29:44Z</time>
      </trkpt>
      <trkpt lat="42.3852200" lon="-8.4005400">
        <ele>565.6</ele>
        <time>2022-08-28T15:29:49Z</time>
      </trkpt>
      <trkpt lat="42.3852610" lon="-8.4005600">
        <ele>565.6</ele>
        <time>2022-08-28T15:29:51Z</time>
      </trkpt>
      <trkpt lat="42.3852910" lon="-8.4006320">
        <ele>565.2</ele>
        <time>2022-08-28T15:29:54Z</time>
      </trkpt>
      <trkpt lat="42.3852870" lon="-8.4006590">
        <ele>565.2</ele>
        <time>2022-08-28T15:29:55Z</time>
      </trkpt>
      <trkpt lat="42.3852820" lon="-8.4007130">
        <ele>565.0</ele>
        <time>2022-08-28T15:29:57Z</time>
      </trkpt>
      <trkpt lat="42.3852680" lon="-8.4008360">
        <ele>565.0</ele>
        <time>2022-08-28T15:30:02Z</time>
      </trkpt>
      <trkpt lat="42.3852380" lon="-8.4009580">
        <ele>565.0</ele>
        <time>2022-08-28T15:30:07Z</time>
      </trkpt>
      <trkpt lat="42.3852350" lon="-8.4009690">
        <ele>565.0</ele>
        <time>2022-08-28T15:30:09Z</time>
      </trkpt>
      <trkpt lat="42.3851650" lon="-8.4009340">
        <ele>564.8</ele>
        <time>2022-08-28T15:32:08Z</time>
      </trkpt>
      <trkpt lat="42.3851400" lon="-8.4009270">
        <ele>564.8</ele>
        <time>2022-08-28T15:32:09Z</time>
      </trkpt>
      <trkpt lat="42.3849570" lon="-8.4009540">
        <ele>564.6</ele>
        <time>2022-08-28T15:32:14Z</time>
      </trkpt>
      <trkpt lat="42.3849100" lon="-8.4009680">
        <ele>564.4</ele>
        <time>2022-08-28T15:32:15Z</time>
      </trkpt>
      <trkpt lat="42.3848120" lon="-8.4010030">
        <ele>563.8</ele>
        <time>2022-08-28T15:32:17Z</time>
      </trkpt>
      <trkpt lat="42.3846770" lon="-8.4010580">
        <ele>562.4</ele>
        <time>2022-08-28T15:32:20Z</time>
      </trkpt>
      <trkpt lat="42.3846000" lon="-8.4010950">
        <ele>561.2</ele>
        <time>2022-08-28T15:32:22Z</time>
      </trkpt>
      <trkpt lat="42.3845330" lon="-8.4011290">
        <ele>559.8</ele>
        <time>2022-08-28T15:32:24Z</time>
      </trkpt>
      <trkpt lat="42.3844720" lon="-8.4011470">
        <ele>558.4</ele>
        <time>2022-08-28T15:32:26Z</time>
      </trkpt>
      <trkpt lat="42.3844190" lon="-8.4011490">
        <ele>557.0</ele>
        <time>2022-08-28T15:32:28Z</time>
      </trkpt>
      <trkpt lat="42.3843790" lon="-8.4011460">
        <ele>555.6</ele>
        <time>2022-08-28T15:32:30Z</time>
      </trkpt>
      <trkpt lat="42.3843520" lon="-8.4011470">
        <ele>554.4</ele>
        <time>2022-08-28T15:32:32Z</time>
      </trkpt>
      <trkpt lat="42.3843470" lon="-8.4011510">
        <ele>552.8</ele>
        <time>2022-08-28T15:32:35Z</time>
      </trkpt>
      <trkpt lat="42.3843110" lon="-8.4011320">
        <ele>551.2</ele>
        <time>2022-08-28T15:32:42Z</time>
      </trkpt>
      <trkpt lat="42.3842910" lon="-8.4011130">
        <ele>551.2</ele>
        <time>2022-08-28T15:32:43Z</time>
      </trkpt>
      <trkpt lat="42.3841200" lon="-8.4009970">
        <ele>550.8</ele>
        <time>2022-08-28T15:32:50Z</time>
      </trkpt>
      <trkpt lat="42.3839860" lon="-8.4010030">
        <ele>550.2</ele>
        <time>2022-08-28T15:32:55Z</time>
      </trkpt>
      <trkpt lat="42.3838450" lon="-8.4009790">
        <ele>550.4</ele>
        <time>2022-08-28T15:33:01Z</time>
      </trkpt>
      <trkpt lat="42.3837040" lon="-8.4008810">
        <ele>550.4</ele>
        <time>2022-08-28T15:33:09Z</time>
      </trkpt>
      <trkpt lat="42.3836680" lon="-8.4008430">
        <ele>550.2</ele>
        <time>2022-08-28T15:33:14Z</time>
      </trkpt>
      <trkpt lat="42.3837240" lon="-8.4008970">
        <ele>550.2</ele>
        <time>2022-08-28T15:34:31Z</time>
      </trkpt>
      <trkpt lat="42.3838160" lon="-8.4009860">
        <ele>550.2</ele>
        <time>2022-08-28T15:34:36Z</time>
      </trkpt>
      <trkpt lat="42.3838400" lon="-8.4009990">
        <ele>550.2</ele>
        <time>2022-08-28T15:34:37Z</time>
      </trkpt>
      <trkpt lat="42.3839990" lon="-8.4010040">
        <ele>550.2</ele>
        <time>2022-08-28T15:34:43Z</time>
      </trkpt>
      <trkpt lat="42.3840260" lon="-8.4010240">
        <ele>550.2</ele>
        <time>2022-08-28T15:34:44Z</time>
      </trkpt>
      <trkpt lat="42.3840470" lon="-8.4010560">
        <ele>550.2</ele>
        <time>2022-08-28T15:34:46Z</time>
      </trkpt>
      <trkpt lat="42.3840490" lon="-8.4010600">
        <ele>550.2</ele>
        <time>2022-08-28T15:34:48Z</time>
      </trkpt>
      <trkpt lat="42.3841490" lon="-8.4010630">
        <ele>550.2</ele>
        <time>2022-08-28T15:36:05Z</time>
      </trkpt>
      <trkpt lat="42.3841890" lon="-8.4010790">
        <ele>550.2</ele>
        <time>2022-08-28T15:36:07Z</time>
      </trkpt>
      <trkpt lat="42.3843140" lon="-8.4011830">
        <ele>550.2</ele>
        <time>2022-08-28T15:36:14Z</time>
      </trkpt>
      <trkpt lat="42.3843540" lon="-8.4012790">
        <ele>550.4</ele>
        <time>2022-08-28T15:36:20Z</time>
      </trkpt>
      <trkpt lat="42.3843690" lon="-8.4012950">
        <ele>550.8</ele>
        <time>2022-08-28T15:36:24Z</time>
      </trkpt>
      <trkpt lat="42.3843690" lon="-8.4014100">
        <ele>551.8</ele>
        <time>2022-08-28T15:38:54Z</time>
      </trkpt>
      <trkpt lat="42.3843520" lon="-8.4014440">
        <ele>551.8</ele>
        <time>2022-08-28T15:38:55Z</time>
      </trkpt>
      <trkpt lat="42.3842260" lon="-8.4016150">
        <ele>551.0</ele>
        <time>2022-08-28T15:39:01Z</time>
      </trkpt>
      <trkpt lat="42.3841510" lon="-8.4016990">
        <ele>550.2</ele>
        <time>2022-08-28T15:39:05Z</time>
      </trkpt>
      <trkpt lat="42.3841030" lon="-8.4017560">
        <ele>550.0</ele>
        <time>2022-08-28T15:39:07Z</time>
      </trkpt>
      <trkpt lat="42.3839830" lon="-8.4019110">
        <ele>549.8</ele>
        <time>2022-08-28T15:39:13Z</time>
      </trkpt>
      <trkpt lat="42.3839030" lon="-8.4020580">
        <ele>549.8</ele>
        <time>2022-08-28T15:39:19Z</time>
      </trkpt>
      <trkpt lat="42.3838390" lon="-8.4022050">
        <ele>549.8</ele>
        <time>2022-08-28T15:39:26Z</time>
      </trkpt>
      <trkpt lat="42.3837780" lon="-8.4023780">
        <ele>549.6</ele>
        <time>2022-08-28T15:39:33Z</time>
      </trkpt>
      <trkpt lat="42.3837680" lon="-8.4023920">
        <ele>549.6</ele>
        <time>2022-08-28T15:39:36Z</time>
      </trkpt>
      <trkpt lat="42.3837150" lon="-8.4024880">
        <ele>549.6</ele>
        <time>2022-08-28T15:39:46Z</time>
      </trkpt>
      <trkpt lat="42.3837050" lon="-8.4025130">
        <ele>549.6</ele>
        <time>2022-08-28T15:39:47Z</time>
      </trkpt>
      <trkpt lat="42.3836230" lon="-8.4026930">
        <ele>549.6</ele>
        <time>2022-08-28T15:39:54Z</time>
      </trkpt>
      <trkpt lat="42.3835720" lon="-8.4027940">
        <ele>550.0</ele>
        <time>2022-08-28T15:40:00Z</time>
      </trkpt>
      <trkpt lat="42.3835550" lon="-8.4028350">
        <ele>550.0</ele>
        <time>2022-08-28T15:40:05Z</time>
      </trkpt>
      <trkpt lat="42.3834940" lon="-8.4029350">
        <ele>549.6</ele>
        <time>2022-08-28T15:41:07Z</time>
      </trkpt>
      <trkpt lat="42.3834370" lon="-8.4030470">
        <ele>549.6</ele>
        <time>2022-08-28T15:41:13Z</time>
      </trkpt>
      <trkpt lat="42.3834290" lon="-8.4030680">
        <ele>549.6</ele>
        <time>2022-08-28T15:41:14Z</time>
      </trkpt>
      <trkpt lat="42.3833430" lon="-8.4032250">
        <ele>549.8</ele>
        <time>2022-08-28T15:41:20Z</time>
      </trkpt>
      <trkpt lat="42.3832180" lon="-8.4034390">
        <ele>549.8</ele>
        <time>2022-08-28T15:41:28Z</time>
      </trkpt>
      <trkpt lat="42.3831000" lon="-8.4036360">
        <ele>549.8</ele>
        <time>2022-08-28T15:41:35Z</time>
      </trkpt>
      <trkpt lat="42.3830740" lon="-8.4036790">
        <ele>549.6</ele>
        <time>2022-08-28T15:41:37Z</time>
      </trkpt>
      <trkpt lat="42.3830460" lon="-8.4037400">
        <ele>549.6</ele>
        <time>2022-08-28T15:41:39Z</time>
      </trkpt>
      <trkpt lat="42.3829670" lon="-8.4039230">
        <ele>549.4</ele>
        <time>2022-08-28T15:41:44Z</time>
      </trkpt>
      <trkpt lat="42.3829120" lon="-8.4040520">
        <ele>549.2</ele>
        <time>2022-08-28T15:41:47Z</time>
      </trkpt>
      <trkpt lat="42.3828620" lon="-8.4042770">
        <ele>548.6</ele>
        <time>2022-08-28T15:41:53Z</time>
      </trkpt>
      <trkpt lat="42.3828610" lon="-8.4043150">
        <ele>548.4</ele>
        <time>2022-08-28T15:41:54Z</time>
      </trkpt>
      <trkpt lat="42.3828660" lon="-8.4045420">
        <ele>548.0</ele>
        <time>2022-08-28T15:41:59Z</time>
      </trkpt>
      <trkpt lat="42.3828570" lon="-8.4047760">
        <ele>547.8</ele>
        <time>2022-08-28T15:42:04Z</time>
      </trkpt>
      <trkpt lat="42.3828400" lon="-8.4048240">
        <ele>547.8</ele>
        <time>2022-08-28T15:42:05Z</time>
      </trkpt>
      <trkpt lat="42.3827470" lon="-8.4050460">
        <ele>547.8</ele>
        <time>2022-08-28T15:42:11Z</time>
      </trkpt>
      <trkpt lat="42.3826310" lon="-8.4052880">
        <ele>548.2</ele>
        <time>2022-08-28T15:42:18Z</time>
      </trkpt>
      <trkpt lat="42.3825980" lon="-8.4055330">
        <ele>548.2</ele>
        <time>2022-08-28T15:42:23Z</time>
      </trkpt>
      <trkpt lat="42.3826390" lon="-8.4057360">
        <ele>547.8</ele>
        <time>2022-08-28T15:42:28Z</time>
      </trkpt>
      <trkpt lat="42.3826660" lon="-8.4059980">
        <ele>547.6</ele>
        <time>2022-08-28T15:42:34Z</time>
      </trkpt>
      <trkpt lat="42.3826680" lon="-8.4060420">
        <ele>547.6</ele>
        <time>2022-08-28T15:42:35Z</time>
      </trkpt>
      <trkpt lat="42.3827100" lon="-8.4062630">
        <ele>547.4</ele>
        <time>2022-08-28T15:42:41Z</time>
      </trkpt>
      <trkpt lat="42.3828370" lon="-8.4064890">
        <ele>547.4</ele>
        <time>2022-08-28T15:42:48Z</time>
      </trkpt>
      <trkpt lat="42.3828650" lon="-8.4065590">
        <ele>547.4</ele>
        <time>2022-08-28T15:42:50Z</time>
      </trkpt>
      <trkpt lat="42.3828730" lon="-8.4066410">
        <ele>547.4</ele>
        <time>2022-08-28T15:42:52Z</time>
      </trkpt>
      <trkpt lat="42.3828330" lon="-8.4067610">
        <ele>547.4</ele>
        <time>2022-08-28T15:42:56Z</time>
      </trkpt>
      <trkpt lat="42.3828160" lon="-8.4067870">
        <ele>547.4</ele>
        <time>2022-08-28T15:42:57Z</time>
      </trkpt>
      <trkpt lat="42.3827010" lon="-8.4069310">
        <ele>547.4</ele>
        <time>2022-08-28T15:43:03Z</time>
      </trkpt>
      <trkpt lat="42.3825590" lon="-8.4071080">
        <ele>547.4</ele>
        <time>2022-08-28T15:43:11Z</time>
      </trkpt>
      <trkpt lat="42.3824820" lon="-8.4071880">
        <ele>547.4</ele>
        <time>2022-08-28T15:43:15Z</time>
      </trkpt>
      <trkpt lat="42.3823910" lon="-8.4072920">
        <ele>547.4</ele>
        <time>2022-08-28T15:43:19Z</time>
      </trkpt>
      <trkpt lat="42.3823010" lon="-8.4074030">
        <ele>547.4</ele>
        <time>2022-08-28T15:43:26Z</time>
      </trkpt>
      <trkpt lat="42.3822470" lon="-8.4074650">
        <ele>548.6</ele>
        <time>2022-08-28T15:43:33Z</time>
      </trkpt>
      <trkpt lat="42.3821220" lon="-8.4077520">
        <ele>550.0</ele>
        <time>2022-08-28T15:46:04Z</time>
      </trkpt>
      <trkpt lat="42.3821050" lon="-8.4078180">
        <ele>550.0</ele>
        <time>2022-08-28T15:46:07Z</time>
      </trkpt>
      <trkpt lat="42.3820810" lon="-8.4079470">
        <ele>550.2</ele>
        <time>2022-08-28T15:46:14Z</time>
      </trkpt>
      <trkpt lat="42.3820820" lon="-8.4079790">
        <ele>550.4</ele>
        <time>2022-08-28T15:46:16Z</time>
      </trkpt>
      <trkpt lat="42.3820920" lon="-8.4080180">
        <ele>550.6</ele>
        <time>2022-08-28T15:46:19Z</time>
      </trkpt>
      <trkpt lat="42.3820920" lon="-8.4080340">
        <ele>550.6</ele>
        <time>2022-08-28T15:46:20Z</time>
      </trkpt>
      <trkpt lat="42.3821010" lon="-8.4081190">
        <ele>551.4</ele>
        <time>2022-08-28T15:46:25Z</time>
      </trkpt>
      <trkpt lat="42.3821150" lon="-8.4081680">
        <ele>551.8</ele>
        <time>2022-08-28T15:46:28Z</time>
      </trkpt>
      <trkpt lat="42.3821310" lon="-8.4082360">
        <ele>552.6</ele>
        <time>2022-08-28T15:46:33Z</time>
      </trkpt>
      <trkpt lat="42.3821390" lon="-8.4082970">
        <ele>553.4</ele>
        <time>2022-08-28T15:46:37Z</time>
      </trkpt>
      <trkpt lat="42.3821420" lon="-8.4083130">
        <ele>553.6</ele>
        <time>2022-08-28T15:46:38Z</time>
      </trkpt>
      <trkpt lat="42.3821620" lon="-8.4084340">
        <ele>554.6</ele>
        <time>2022-08-28T15:46:46Z</time>
      </trkpt>
      <trkpt lat="42.3821650" lon="-8.4084510">
        <ele>554.8</ele>
        <time>2022-08-28T15:46:47Z</time>
      </trkpt>
      <trkpt lat="42.3821710" lon="-8.4084970">
        <ele>555.2</ele>
        <time>2022-08-28T15:46:50Z</time>
      </trkpt>
      <trkpt lat="42.3821890" lon="-8.4085540">
        <ele>556.0</ele>
        <time>2022-08-28T15:46:54Z</time>
      </trkpt>
      <trkpt lat="42.3822180" lon="-8.4086050">
        <ele>556.4</ele>
        <time>2022-08-28T15:46:58Z</time>
      </trkpt>
      <trkpt lat="42.3822530" lon="-8.4086210">
        <ele>557.0</ele>
        <time>2022-08-28T15:47:01Z</time>
      </trkpt>
      <trkpt lat="42.3822650" lon="-8.4086230">
        <ele>557.2</ele>
        <time>2022-08-28T15:47:02Z</time>
      </trkpt>
      <trkpt lat="42.3822760" lon="-8.4086170">
        <ele>557.2</ele>
        <time>2022-08-28T15:47:03Z</time>
      </trkpt>
      <trkpt lat="42.3823110" lon="-8.4086080">
        <ele>557.8</ele>
        <time>2022-08-28T15:47:06Z</time>
      </trkpt>
      <trkpt lat="42.3823350" lon="-8.4086160">
        <ele>558.0</ele>
        <time>2022-08-28T15:47:08Z</time>
      </trkpt>
      <trkpt lat="42.3823450" lon="-8.4086210">
        <ele>558.2</ele>
        <time>2022-08-28T15:47:09Z</time>
      </trkpt>
      <trkpt lat="42.3823730" lon="-8.4086350">
        <ele>558.6</ele>
        <time>2022-08-28T15:47:12Z</time>
      </trkpt>
      <trkpt lat="42.3823930" lon="-8.4086540">
        <ele>558.8</ele>
        <time>2022-08-28T15:47:14Z</time>
      </trkpt>
      <trkpt lat="42.3824200" lon="-8.4086670">
        <ele>559.4</ele>
        <time>2022-08-28T15:47:17Z</time>
      </trkpt>
      <trkpt lat="42.3824670" lon="-8.4086960">
        <ele>560.0</ele>
        <time>2022-08-28T15:47:21Z</time>
      </trkpt>
      <trkpt lat="42.3824940" lon="-8.4087090">
        <ele>560.4</ele>
        <time>2022-08-28T15:47:23Z</time>
      </trkpt>
      <trkpt lat="42.3825710" lon="-8.4087610">
        <ele>561.2</ele>
        <time>2022-08-28T15:47:29Z</time>
      </trkpt>
      <trkpt lat="42.3825840" lon="-8.4087660">
        <ele>561.4</ele>
        <time>2022-08-28T15:47:30Z</time>
      </trkpt>
      <trkpt lat="42.3826510" lon="-8.4088020">
        <ele>561.4</ele>
        <time>2022-08-28T15:47:35Z</time>
      </trkpt>
      <trkpt lat="42.3826790" lon="-8.4088110">
        <ele>561.8</ele>
        <time>2022-08-28T15:47:37Z</time>
      </trkpt>
      <trkpt lat="42.3827420" lon="-8.4088470">
        <ele>562.6</ele>
        <time>2022-08-28T15:47:42Z</time>
      </trkpt>
      <trkpt lat="42.3828060" lon="-8.4088900">
        <ele>563.6</ele>
        <time>2022-08-28T15:47:47Z</time>
      </trkpt>
      <trkpt lat="42.3828190" lon="-8.4088990">
        <ele>563.8</ele>
        <time>2022-08-28T15:47:48Z</time>
      </trkpt>
      <trkpt lat="42.3829350" lon="-8.4089490">
        <ele>564.8</ele>
        <time>2022-08-28T15:47:55Z</time>
      </trkpt>
      <trkpt lat="42.3829520" lon="-8.4089520">
        <ele>564.8</ele>
        <time>2022-08-28T15:47:56Z</time>
      </trkpt>
      <trkpt lat="42.3830570" lon="-8.4089980">
        <ele>565.2</ele>
        <time>2022-08-28T15:48:03Z</time>
      </trkpt>
      <trkpt lat="42.3831440" lon="-8.4090590">
        <ele>566.0</ele>
        <time>2022-08-28T15:48:09Z</time>
      </trkpt>
      <trkpt lat="42.3831810" lon="-8.4090980">
        <ele>566.4</ele>
        <time>2022-08-28T15:48:12Z</time>
      </trkpt>
      <trkpt lat="42.3832350" lon="-8.4091700">
        <ele>567.2</ele>
        <time>2022-08-28T15:48:17Z</time>
      </trkpt>
      <trkpt lat="42.3832590" lon="-8.4092170">
        <ele>567.6</ele>
        <time>2022-08-28T15:48:20Z</time>
      </trkpt>
      <trkpt lat="42.3832810" lon="-8.4092630">
        <ele>568.2</ele>
        <time>2022-08-28T15:48:23Z</time>
      </trkpt>
      <trkpt lat="42.3833210" lon="-8.4093230">
        <ele>569.2</ele>
        <time>2022-08-28T15:48:28Z</time>
      </trkpt>
      <trkpt lat="42.3833280" lon="-8.4093310">
        <ele>569.4</ele>
        <time>2022-08-28T15:48:29Z</time>
      </trkpt>
      <trkpt lat="42.3833490" lon="-8.4093620">
        <ele>570.0</ele>
        <time>2022-08-28T15:48:34Z</time>
      </trkpt>
      <trkpt lat="42.3834190" lon="-8.4092840">
        <ele>571.0</ele>
        <time>2022-08-28T15:48:50Z</time>
      </trkpt>
      <trkpt lat="42.3834810" lon="-8.4092230">
        <ele>571.2</ele>
        <time>2022-08-28T15:48:56Z</time>
      </trkpt>
      <trkpt lat="42.3835260" lon="-8.4091880">
        <ele>571.6</ele>
        <time>2022-08-28T15:49:00Z</time>
      </trkpt>
      <trkpt lat="42.3835450" lon="-8.4091690">
        <ele>572.0</ele>
        <time>2022-08-28T15:49:02Z</time>
      </trkpt>
      <trkpt lat="42.3835660" lon="-8.4091500">
        <ele>572.2</ele>
        <time>2022-08-28T15:49:04Z</time>
      </trkpt>
      <trkpt lat="42.3836360" lon="-8.4090920">
        <ele>573.0</ele>
        <time>2022-08-28T15:49:10Z</time>
      </trkpt>
      <trkpt lat="42.3836640" lon="-8.4090760">
        <ele>573.6</ele>
        <time>2022-08-28T15:49:12Z</time>
      </trkpt>
      <trkpt lat="42.3837050" lon="-8.4090440">
        <ele>574.2</ele>
        <time>2022-08-28T15:49:15Z</time>
      </trkpt>
      <trkpt lat="42.3837600" lon="-8.4089830">
        <ele>574.4</ele>
        <time>2022-08-28T15:49:19Z</time>
      </trkpt>
      <trkpt lat="42.3838260" lon="-8.4089250">
        <ele>575.2</ele>
        <time>2022-08-28T15:49:24Z</time>
      </trkpt>
      <trkpt lat="42.3838980" lon="-8.4088510">
        <ele>576.0</ele>
        <time>2022-08-28T15:49:29Z</time>
      </trkpt>
      <trkpt lat="42.3839510" lon="-8.4088030">
        <ele>576.4</ele>
        <time>2022-08-28T15:49:32Z</time>
      </trkpt>
      <trkpt lat="42.3840520" lon="-8.4086950">
        <ele>576.6</ele>
        <time>2022-08-28T15:49:37Z</time>
      </trkpt>
      <trkpt lat="42.3841920" lon="-8.4085070">
        <ele>577.0</ele>
        <time>2022-08-28T15:49:44Z</time>
      </trkpt>
      <trkpt lat="42.3843800" lon="-8.4082900">
        <ele>577.4</ele>
        <time>2022-08-28T15:49:53Z</time>
      </trkpt>
      <trkpt lat="42.3844020" lon="-8.4082680">
        <ele>577.4</ele>
        <time>2022-08-28T15:49:54Z</time>
      </trkpt>
      <trkpt lat="42.3846090" lon="-8.4080540">
        <ele>578.2</ele>
        <time>2022-08-28T15:50:03Z</time>
      </trkpt>
      <trkpt lat="42.3847880" lon="-8.4077360">
        <ele>578.2</ele>
        <time>2022-08-28T15:50:12Z</time>
      </trkpt>
      <trkpt lat="42.3848510" lon="-8.4076710">
        <ele>578.0</ele>
        <time>2022-08-28T15:50:16Z</time>
      </trkpt>
      <trkpt lat="42.3848610" lon="-8.4076730">
        <ele>577.8</ele>
        <time>2022-08-28T15:50:17Z</time>
      </trkpt>
      <trkpt lat="42.3848880" lon="-8.4077050">
        <ele>577.6</ele>
        <time>2022-08-28T15:50:21Z</time>
      </trkpt>
      <trkpt lat="42.3848900" lon="-8.4077090">
        <ele>577.2</ele>
        <time>2022-08-28T15:50:22Z</time>
      </trkpt>
      <trkpt lat="42.3850140" lon="-8.4078690">
        <ele>574.2</ele>
        <time>2022-08-28T15:50:42Z</time>
      </trkpt>
      <trkpt lat="42.3850570" lon="-8.4079410">
        <ele>573.6</ele>
        <time>2022-08-28T15:50:44Z</time>
      </trkpt>
      <trkpt lat="42.3851150" lon="-8.4080270">
        <ele>573.2</ele>
        <time>2022-08-28T15:50:47Z</time>
      </trkpt>
      <trkpt lat="42.3851350" lon="-8.4080530">
        <ele>573.2</ele>
        <time>2022-08-28T15:50:48Z</time>
      </trkpt>
      <trkpt lat="42.3851570" lon="-8.4080830">
        <ele>573.0</ele>
        <time>2022-08-28T15:50:49Z</time>
      </trkpt>
      <trkpt lat="42.3852060" lon="-8.4081940">
        <ele>571.6</ele>
        <time>2022-08-28T15:50:52Z</time>
      </trkpt>
      <trkpt lat="42.3852180" lon="-8.4082560">
        <ele>570.8</ele>
        <time>2022-08-28T15:50:54Z</time>
      </trkpt>
      <trkpt lat="42.3852260" lon="-8.4082920">
        <ele>570.4</ele>
        <time>2022-08-28T15:50:55Z</time>
      </trkpt>
      <trkpt lat="42.3852680" lon="-8.4083930">
        <ele>569.2</ele>
        <time>2022-08-28T15:50:58Z</time>
      </trkpt>
      <trkpt lat="42.3852900" lon="-8.4084450">
        <ele>568.0</ele>
        <time>2022-08-28T15:51:01Z</time>
      </trkpt>
      <trkpt lat="42.3852900" lon="-8.4084510">
        <ele>567.6</ele>
        <time>2022-08-28T15:51:02Z</time>
      </trkpt>
      <trkpt lat="42.3853050" lon="-8.4084910">
        <ele>564.0</ele>
        <time>2022-08-28T15:51:54Z</time>
      </trkpt>
      <trkpt lat="42.3853300" lon="-8.4085540">
        <ele>564.0</ele>
        <time>2022-08-28T15:51:56Z</time>
      </trkpt>
      <trkpt lat="42.3854470" lon="-8.4088290">
        <ele>563.4</ele>
        <time>2022-08-28T15:52:03Z</time>
      </trkpt>
      <trkpt lat="42.3854830" lon="-8.4089090">
        <ele>562.6</ele>
        <time>2022-08-28T15:52:05Z</time>
      </trkpt>
      <trkpt lat="42.3855190" lon="-8.4089890">
        <ele>561.2</ele>
        <time>2022-08-28T15:52:07Z</time>
      </trkpt>
      <trkpt lat="42.3855600" lon="-8.4090720">
        <ele>560.0</ele>
        <time>2022-08-28T15:52:09Z</time>
      </trkpt>
      <trkpt lat="42.3856050" lon="-8.4091660">
        <ele>558.8</ele>
        <time>2022-08-28T15:52:12Z</time>
      </trkpt>
      <trkpt lat="42.3856130" lon="-8.4091870">
        <ele>558.4</ele>
        <time>2022-08-28T15:52:13Z</time>
      </trkpt>
      <trkpt lat="42.3856150" lon="-8.4091950">
        <ele>557.4</ele>
        <time>2022-08-28T15:52:15Z</time>
      </trkpt>
      <trkpt lat="42.3856240" lon="-8.4092320">
        <ele>555.4</ele>
        <time>2022-08-28T15:52:18Z</time>
      </trkpt>
      <trkpt lat="42.3856270" lon="-8.4092520">
        <ele>554.8</ele>
        <time>2022-08-28T15:52:19Z</time>
      </trkpt>
      <trkpt lat="42.3856300" lon="-8.4092760">
        <ele>554.0</ele>
        <time>2022-08-28T15:52:20Z</time>
      </trkpt>
      <trkpt lat="42.3856220" lon="-8.4093750">
        <ele>553.2</ele>
        <time>2022-08-28T15:52:24Z</time>
      </trkpt>
      <trkpt lat="42.3856150" lon="-8.4094460">
        <ele>553.0</ele>
        <time>2022-08-28T15:52:26Z</time>
      </trkpt>
      <trkpt lat="42.3856090" lon="-8.4095370">
        <ele>552.6</ele>
        <time>2022-08-28T15:52:28Z</time>
      </trkpt>
      <trkpt lat="42.3856080" lon="-8.4096250">
        <ele>552.0</ele>
        <time>2022-08-28T15:52:30Z</time>
      </trkpt>
      <trkpt lat="42.3856000" lon="-8.4097190">
        <ele>551.2</ele>
        <time>2022-08-28T15:52:33Z</time>
      </trkpt>
      <trkpt lat="42.3855970" lon="-8.4097370">
        <ele>550.8</ele>
        <time>2022-08-28T15:52:34Z</time>
      </trkpt>
      <trkpt lat="42.3855850" lon="-8.4098110">
        <ele>549.6</ele>
        <time>2022-08-28T15:52:37Z</time>
      </trkpt>
      <trkpt lat="42.3855710" lon="-8.4098410">
        <ele>549.4</ele>
        <time>2022-08-28T15:52:38Z</time>
      </trkpt>
      <trkpt lat="42.3855130" lon="-8.4099320">
        <ele>548.4</ele>
        <time>2022-08-28T15:52:41Z</time>
      </trkpt>
      <trkpt lat="42.3854200" lon="-8.4100420">
        <ele>547.4</ele>
        <time>2022-08-28T15:52:45Z</time>
      </trkpt>
      <trkpt lat="42.3853470" lon="-8.4101250">
        <ele>546.2</ele>
        <time>2022-08-28T15:52:48Z</time>
      </trkpt>
      <trkpt lat="42.3852510" lon="-8.4102570">
        <ele>545.6</ele>
        <time>2022-08-28T15:52:52Z</time>
      </trkpt>
      <trkpt lat="42.3850760" lon="-8.4105280">
        <ele>545.6</ele>
        <time>2022-08-28T15:53:00Z</time>
      </trkpt>
      <trkpt lat="42.3848770" lon="-8.4107030">
        <ele>545.6</ele>
        <time>2022-08-28T15:53:05Z</time>
      </trkpt>
      <trkpt lat="42.3847010" lon="-8.4109090">
        <ele>545.2</ele>
        <time>2022-08-28T15:53:09Z</time>
      </trkpt>
      <trkpt lat="42.3846440" lon="-8.4109590">
        <ele>545.0</ele>
        <time>2022-08-28T15:53:10Z</time>
      </trkpt>
      <trkpt lat="42.3844530" lon="-8.4111180">
        <ele>544.0</ele>
        <time>2022-08-28T15:53:13Z</time>
      </trkpt>
      <trkpt lat="42.3843130" lon="-8.4112120">
        <ele>543.2</ele>
        <time>2022-08-28T15:53:15Z</time>
      </trkpt>
      <trkpt lat="42.3842450" lon="-8.4112550">
        <ele>542.8</ele>
        <time>2022-08-28T15:53:16Z</time>
      </trkpt>
      <trkpt lat="42.3841830" lon="-8.4113010">
        <ele>542.6</ele>
        <time>2022-08-28T15:53:17Z</time>
      </trkpt>
      <trkpt lat="42.3841270" lon="-8.4113470">
        <ele>541.6</ele>
        <time>2022-08-28T15:53:18Z</time>
      </trkpt>
      <trkpt lat="42.3840740" lon="-8.4113900">
        <ele>540.8</ele>
        <time>2022-08-28T15:53:19Z</time>
      </trkpt>
      <trkpt lat="42.3840220" lon="-8.4114300">
        <ele>540.2</ele>
        <time>2022-08-28T15:53:20Z</time>
      </trkpt>
      <trkpt lat="42.3839200" lon="-8.4115000">
        <ele>538.8</ele>
        <time>2022-08-28T15:53:22Z</time>
      </trkpt>
      <trkpt lat="42.3837800" lon="-8.4115810">
        <ele>538.2</ele>
        <time>2022-08-28T15:53:25Z</time>
      </trkpt>
      <trkpt lat="42.3835760" lon="-8.4117130">
        <ele>538.0</ele>
        <time>2022-08-28T15:53:31Z</time>
      </trkpt>
      <trkpt lat="42.3834710" lon="-8.4118090">
        <ele>538.0</ele>
        <time>2022-08-28T15:53:34Z</time>
      </trkpt>
      <trkpt lat="42.3834310" lon="-8.4118440">
        <ele>538.0</ele>
        <time>2022-08-28T15:53:35Z</time>
      </trkpt>
      <trkpt lat="42.3833850" lon="-8.4118710">
        <ele>538.0</ele>
        <time>2022-08-28T15:53:36Z</time>
      </trkpt>
      <trkpt lat="42.3832880" lon="-8.4119070">
        <ele>538.0</ele>
        <time>2022-08-28T15:53:38Z</time>
      </trkpt>
      <trkpt lat="42.3831350" lon="-8.4118830">
        <ele>538.0</ele>
        <time>2022-08-28T15:53:41Z</time>
      </trkpt>
      <trkpt lat="42.3830260" lon="-8.4118430">
        <ele>537.8</ele>
        <time>2022-08-28T15:53:43Z</time>
      </trkpt>
      <trkpt lat="42.3829060" lon="-8.4117850">
        <ele>537.4</ele>
        <time>2022-08-28T15:53:45Z</time>
      </trkpt>
      <trkpt lat="42.3828520" lon="-8.4117410">
        <ele>537.0</ele>
        <time>2022-08-28T15:53:46Z</time>
      </trkpt>
      <trkpt lat="42.3827590" lon="-8.4116280">
        <ele>535.6</ele>
        <time>2022-08-28T15:53:48Z</time>
      </trkpt>
      <trkpt lat="42.3827190" lon="-8.4115780">
        <ele>535.2</ele>
        <time>2022-08-28T15:53:49Z</time>
      </trkpt>
      <trkpt lat="42.3826810" lon="-8.4115400">
        <ele>534.6</ele>
        <time>2022-08-28T15:53:50Z</time>
      </trkpt>
      <trkpt lat="42.3826430" lon="-8.4115120">
        <ele>534.4</ele>
        <time>2022-08-28T15:53:51Z</time>
      </trkpt>
      <trkpt lat="42.3825490" lon="-8.4114700">
        <ele>533.0</ele>
        <time>2022-08-28T15:53:53Z</time>
      </trkpt>
      <trkpt lat="42.3824960" lon="-8.4114500">
        <ele>532.6</ele>
        <time>2022-08-28T15:53:54Z</time>
      </trkpt>
      <trkpt lat="42.3823840" lon="-8.4114120">
        <ele>532.0</ele>
        <time>2022-08-28T15:53:56Z</time>
      </trkpt>
      <trkpt lat="42.3823320" lon="-8.4113900">
        <ele>531.8</ele>
        <time>2022-08-28T15:53:57Z</time>
      </trkpt>
      <trkpt lat="42.3822860" lon="-8.4113690">
        <ele>531.2</ele>
        <time>2022-08-28T15:53:58Z</time>
      </trkpt>
      <trkpt lat="42.3822470" lon="-8.4113560">
        <ele>530.8</ele>
        <time>2022-08-28T15:53:59Z</time>
      </trkpt>
      <trkpt lat="42.3821770" lon="-8.4113640">
        <ele>529.8</ele>
        <time>2022-08-28T15:54:01Z</time>
      </trkpt>
      <trkpt lat="42.3820800" lon="-8.4113890">
        <ele>528.6</ele>
        <time>2022-08-28T15:54:03Z</time>
      </trkpt>
      <trkpt lat="42.3819720" lon="-8.4114270">
        <ele>527.4</ele>
        <time>2022-08-28T15:54:05Z</time>
      </trkpt>
      <trkpt lat="42.3818750" lon="-8.4114660">
        <ele>526.4</ele>
        <time>2022-08-28T15:54:07Z</time>
      </trkpt>
      <trkpt lat="42.3818260" lon="-8.4114880">
        <ele>525.8</ele>
        <time>2022-08-28T15:54:08Z</time>
      </trkpt>
      <trkpt lat="42.3817280" lon="-8.4115330">
        <ele>524.6</ele>
        <time>2022-08-28T15:54:10Z</time>
      </trkpt>
      <trkpt lat="42.3816330" lon="-8.4115620">
        <ele>523.4</ele>
        <time>2022-08-28T15:54:12Z</time>
      </trkpt>
      <trkpt lat="42.3815630" lon="-8.4116010">
        <ele>522.4</ele>
        <time>2022-08-28T15:54:14Z</time>
      </trkpt>
      <trkpt lat="42.3815480" lon="-8.4116270">
        <ele>522.0</ele>
        <time>2022-08-28T15:54:15Z</time>
      </trkpt>
      <trkpt lat="42.3815460" lon="-8.4116540">
        <ele>521.0</ele>
        <time>2022-08-28T15:54:16Z</time>
      </trkpt>
      <trkpt lat="42.3815560" lon="-8.4116770">
        <ele>520.4</ele>
        <time>2022-08-28T15:54:17Z</time>
      </trkpt>
      <trkpt lat="42.3815770" lon="-8.4116950">
        <ele>519.8</ele>
        <time>2022-08-28T15:54:18Z</time>
      </trkpt>
      <trkpt lat="42.3816390" lon="-8.4117180">
        <ele>518.4</ele>
        <time>2022-08-28T15:54:20Z</time>
      </trkpt>
      <trkpt lat="42.3816690" lon="-8.4117300">
        <ele>517.8</ele>
        <time>2022-08-28T15:54:21Z</time>
      </trkpt>
      <trkpt lat="42.3816950" lon="-8.4117430">
        <ele>517.2</ele>
        <time>2022-08-28T15:54:22Z</time>
      </trkpt>
      <trkpt lat="42.3817740" lon="-8.4117770">
        <ele>516.0</ele>
        <time>2022-08-28T15:54:25Z</time>
      </trkpt>
      <trkpt lat="42.3818410" lon="-8.4118110">
        <ele>515.4</ele>
        <time>2022-08-28T15:54:27Z</time>
      </trkpt>
      <trkpt lat="42.3818820" lon="-8.4118290">
        <ele>515.0</ele>
        <time>2022-08-28T15:54:28Z</time>
      </trkpt>
      <trkpt lat="42.3819410" lon="-8.4118750">
        <ele>514.0</ele>
        <time>2022-08-28T15:54:30Z</time>
      </trkpt>
      <trkpt lat="42.3819590" lon="-8.4119050">
        <ele>513.6</ele>
        <time>2022-08-28T15:54:31Z</time>
      </trkpt>
      <trkpt lat="42.3819760" lon="-8.4119590">
        <ele>512.6</ele>
        <time>2022-08-28T15:54:33Z</time>
      </trkpt>
      <trkpt lat="42.3819820" lon="-8.4119910">
        <ele>511.8</ele>
        <time>2022-08-28T15:54:35Z</time>
      </trkpt>
      <trkpt lat="42.3819840" lon="-8.4120040">
        <ele>511.4</ele>
        <time>2022-08-28T15:54:36Z</time>
      </trkpt>
      <trkpt lat="42.3819720" lon="-8.4120630">
        <ele>510.2</ele>
        <time>2022-08-28T15:54:39Z</time>
      </trkpt>
      <trkpt lat="42.3819610" lon="-8.4120830">
        <ele>509.8</ele>
        <time>2022-08-28T15:54:40Z</time>
      </trkpt>
      <trkpt lat="42.3819230" lon="-8.4121440">
        <ele>509.0</ele>
        <time>2022-08-28T15:54:42Z</time>
      </trkpt>
      <trkpt lat="42.3818770" lon="-8.4122340">
        <ele>508.4</ele>
        <time>2022-08-28T15:54:44Z</time>
      </trkpt>
      <trkpt lat="42.3818600" lon="-8.4123000">
        <ele>507.6</ele>
        <time>2022-08-28T15:54:46Z</time>
      </trkpt>
      <trkpt lat="42.3818580" lon="-8.4123060">
        <ele>507.6</ele>
        <time>2022-08-28T15:54:47Z</time>
      </trkpt>
      <trkpt lat="42.3818590" lon="-8.4123060">
        <ele>507.4</ele>
        <time>2022-08-28T15:54:48Z</time>
      </trkpt>
      <trkpt lat="42.3818510" lon="-8.4123410">
        <ele>505.2</ele>
        <time>2022-08-28T15:54:54Z</time>
      </trkpt>
      <trkpt lat="42.3818480" lon="-8.4123890">
        <ele>505.0</ele>
        <time>2022-08-28T15:54:56Z</time>
      </trkpt>
      <trkpt lat="42.3818200" lon="-8.4125800">
        <ele>504.8</ele>
        <time>2022-08-28T15:55:02Z</time>
      </trkpt>
      <trkpt lat="42.3817890" lon="-8.4127720">
        <ele>504.2</ele>
        <time>2022-08-28T15:55:07Z</time>
      </trkpt>
      <trkpt lat="42.3817810" lon="-8.4129170">
        <ele>503.0</ele>
        <time>2022-08-28T15:55:10Z</time>
      </trkpt>
      <trkpt lat="42.3817890" lon="-8.4130620">
        <ele>502.0</ele>
        <time>2022-08-28T15:55:13Z</time>
      </trkpt>
      <trkpt lat="42.3818330" lon="-8.4132330">
        <ele>500.8</ele>
        <time>2022-08-28T15:55:18Z</time>
      </trkpt>
      <trkpt lat="42.3818630" lon="-8.4134000">
        <ele>499.8</ele>
        <time>2022-08-28T15:55:23Z</time>
      </trkpt>
      <trkpt lat="42.3818770" lon="-8.4134690">
        <ele>499.6</ele>
        <time>2022-08-28T15:55:25Z</time>
      </trkpt>
      <trkpt lat="42.3818900" lon="-8.4135600">
        <ele>499.2</ele>
        <time>2022-08-28T15:55:30Z</time>
      </trkpt>
      <trkpt lat="42.3819130" lon="-8.4136220">
        <ele>499.2</ele>
        <time>2022-08-28T15:56:00Z</time>
      </trkpt>
      <trkpt lat="42.3819400" lon="-8.4136880">
        <ele>499.0</ele>
        <time>2022-08-28T15:56:03Z</time>
      </trkpt>
      <trkpt lat="42.3819550" lon="-8.4137420">
        <ele>499.0</ele>
        <time>2022-08-28T15:56:05Z</time>
      </trkpt>
      <trkpt lat="42.3819700" lon="-8.4138020">
        <ele>499.0</ele>
        <time>2022-08-28T15:56:08Z</time>
      </trkpt>
      <trkpt lat="42.3820470" lon="-8.4138490">
        <ele>498.8</ele>
        <time>2022-08-28T15:56:13Z</time>
      </trkpt>
      <trkpt lat="42.3820620" lon="-8.4138630">
        <ele>498.8</ele>
        <time>2022-08-28T15:56:14Z</time>
      </trkpt>
      <trkpt lat="42.3821500" lon="-8.4139390">
        <ele>498.8</ele>
        <time>2022-08-28T15:56:20Z</time>
      </trkpt>
      <trkpt lat="42.3822740" lon="-8.4140680">
        <ele>499.0</ele>
        <time>2022-08-28T15:56:25Z</time>
      </trkpt>
      <trkpt lat="42.3824890" lon="-8.4143110">
        <ele>498.4</ele>
        <time>2022-08-28T15:56:32Z</time>
      </trkpt>
      <trkpt lat="42.3825250" lon="-8.4143490">
        <ele>498.2</ele>
        <time>2022-08-28T15:56:33Z</time>
      </trkpt>
      <trkpt lat="42.3826480" lon="-8.4144590">
        <ele>497.0</ele>
        <time>2022-08-28T15:56:36Z</time>
      </trkpt>
      <trkpt lat="42.3826890" lon="-8.4144900">
        <ele>496.4</ele>
        <time>2022-08-28T15:56:37Z</time>
      </trkpt>
      <trkpt lat="42.3827320" lon="-8.4145190">
        <ele>495.8</ele>
        <time>2022-08-28T15:56:38Z</time>
      </trkpt>
      <trkpt lat="42.3828250" lon="-8.4145710">
        <ele>494.4</ele>
        <time>2022-08-28T15:56:40Z</time>
      </trkpt>
      <trkpt lat="42.3828760" lon="-8.4145910">
        <ele>493.6</ele>
        <time>2022-08-28T15:56:41Z</time>
      </trkpt>
      <trkpt lat="42.3829300" lon="-8.4146060">
        <ele>493.0</ele>
        <time>2022-08-28T15:56:42Z</time>
      </trkpt>
      <trkpt lat="42.3829870" lon="-8.4146180">
        <ele>491.0</ele>
        <time>2022-08-28T15:56:43Z</time>
      </trkpt>
      <trkpt lat="42.3831060" lon="-8.4146320">
        <ele>489.2</ele>
        <time>2022-08-28T15:56:45Z</time>
      </trkpt>
      <trkpt lat="42.3832240" lon="-8.4146310">
        <ele>487.6</ele>
        <time>2022-08-28T15:56:47Z</time>
      </trkpt>
      <trkpt lat="42.3832790" lon="-8.4146180">
        <ele>486.6</ele>
        <time>2022-08-28T15:56:48Z</time>
      </trkpt>
      <trkpt lat="42.3833280" lon="-8.4145980">
        <ele>485.8</ele>
        <time>2022-08-28T15:56:49Z</time>
      </trkpt>
      <trkpt lat="42.3834090" lon="-8.4145600">
        <ele>483.8</ele>
        <time>2022-08-28T15:56:51Z</time>
      </trkpt>
      <trkpt lat="42.3834430" lon="-8.4145500">
        <ele>482.8</ele>
        <time>2022-08-28T15:56:52Z</time>
      </trkpt>
      <trkpt lat="42.3834760" lon="-8.4145450">
        <ele>481.8</ele>
        <time>2022-08-28T15:56:53Z</time>
      </trkpt>
      <trkpt lat="42.3835690" lon="-8.4145410">
        <ele>480.4</ele>
        <time>2022-08-28T15:56:55Z</time>
      </trkpt>
      <trkpt lat="42.3836290" lon="-8.4145340">
        <ele>479.8</ele>
        <time>2022-08-28T15:56:56Z</time>
      </trkpt>
      <trkpt lat="42.3838390" lon="-8.4145230">
        <ele>479.2</ele>
        <time>2022-08-28T15:56:59Z</time>
      </trkpt>
      <trkpt lat="42.3839870" lon="-8.4145090">
        <ele>479.0</ele>
        <time>2022-08-28T15:57:01Z</time>
      </trkpt>
      <trkpt lat="42.3841140" lon="-8.4144760">
        <ele>478.2</ele>
        <time>2022-08-28T15:57:03Z</time>
      </trkpt>
      <trkpt lat="42.3842150" lon="-8.4144560">
        <ele>476.0</ele>
        <time>2022-08-28T15:57:05Z</time>
      </trkpt>
      <trkpt lat="42.3842510" lon="-8.4144620">
        <ele>474.6</ele>
        <time>2022-08-28T15:57:06Z</time>
      </trkpt>
      <trkpt lat="42.3842760" lon="-8.4144780">
        <ele>473.6</ele>
        <time>2022-08-28T15:57:07Z</time>
      </trkpt>
      <trkpt lat="42.3842920" lon="-8.4145020">
        <ele>472.4</ele>
        <time>2022-08-28T15:57:08Z</time>
      </trkpt>
      <trkpt lat="42.3843000" lon="-8.4145190">
        <ele>471.0</ele>
        <time>2022-08-28T15:57:09Z</time>
      </trkpt>
      <trkpt lat="42.3843030" lon="-8.4145260">
        <ele>470.0</ele>
        <time>2022-08-28T15:57:10Z</time>
      </trkpt>
      <trkpt lat="42.3842950" lon="-8.4145540">
        <ele>467.8</ele>
        <time>2022-08-28T15:57:12Z</time>
      </trkpt>
      <trkpt lat="42.3842650" lon="-8.4145950">
        <ele>466.6</ele>
        <time>2022-08-28T15:57:14Z</time>
      </trkpt>
      <trkpt lat="42.3842090" lon="-8.4146400">
        <ele>465.6</ele>
        <time>2022-08-28T15:57:16Z</time>
      </trkpt>
      <trkpt lat="42.3841690" lon="-8.4146630">
        <ele>465.2</ele>
        <time>2022-08-28T15:57:17Z</time>
      </trkpt>
      <trkpt lat="42.3841260" lon="-8.4146890">
        <ele>465.0</ele>
        <time>2022-08-28T15:57:18Z</time>
      </trkpt>
      <trkpt lat="42.3840690" lon="-8.4147250">
        <ele>464.6</ele>
        <time>2022-08-28T15:57:20Z</time>
      </trkpt>
      <trkpt lat="42.3840090" lon="-8.4147450">
        <ele>463.8</ele>
        <time>2022-08-28T15:57:22Z</time>
      </trkpt>
      <trkpt lat="42.3839630" lon="-8.4147530">
        <ele>462.4</ele>
        <time>2022-08-28T15:57:24Z</time>
      </trkpt>
      <trkpt lat="42.3839160" lon="-8.4147600">
        <ele>457.0</ele>
        <time>2022-08-28T16:00:08Z</time>
      </trkpt>
      <trkpt lat="42.3838700" lon="-8.4147680">
        <ele>457.0</ele>
        <time>2022-08-28T16:00:09Z</time>
      </trkpt>
      <trkpt lat="42.3837650" lon="-8.4148870">
        <ele>456.8</ele>
        <time>2022-08-28T16:00:12Z</time>
      </trkpt>
      <trkpt lat="42.3836940" lon="-8.4150140">
        <ele>456.4</ele>
        <time>2022-08-28T16:00:14Z</time>
      </trkpt>
      <trkpt lat="42.3836000" lon="-8.4151650">
        <ele>456.0</ele>
        <time>2022-08-28T16:00:16Z</time>
      </trkpt>
      <trkpt lat="42.3835170" lon="-8.4153180">
        <ele>455.4</ele>
        <time>2022-08-28T16:00:18Z</time>
      </trkpt>
      <trkpt lat="42.3834800" lon="-8.4153880">
        <ele>454.8</ele>
        <time>2022-08-28T16:00:19Z</time>
      </trkpt>
      <trkpt lat="42.3834400" lon="-8.4154500">
        <ele>454.2</ele>
        <time>2022-08-28T16:00:20Z</time>
      </trkpt>
      <trkpt lat="42.3833900" lon="-8.4155060">
        <ele>453.6</ele>
        <time>2022-08-28T16:00:21Z</time>
      </trkpt>
      <trkpt lat="42.3833310" lon="-8.4155560">
        <ele>453.0</ele>
        <time>2022-08-28T16:00:22Z</time>
      </trkpt>
      <trkpt lat="42.3832740" lon="-8.4156050">
        <ele>452.2</ele>
        <time>2022-08-28T16:00:23Z</time>
      </trkpt>
      <trkpt lat="42.3832200" lon="-8.4156560">
        <ele>451.6</ele>
        <time>2022-08-28T16:00:24Z</time>
      </trkpt>
      <trkpt lat="42.3831690" lon="-8.4157030">
        <ele>450.8</ele>
        <time>2022-08-28T16:00:25Z</time>
      </trkpt>
      <trkpt lat="42.3830780" lon="-8.4158040">
        <ele>449.6</ele>
        <time>2022-08-28T16:00:27Z</time>
      </trkpt>
      <trkpt lat="42.3830140" lon="-8.4159410">
        <ele>448.4</ele>
        <time>2022-08-28T16:00:29Z</time>
      </trkpt>
      <trkpt lat="42.3829500" lon="-8.4160790">
        <ele>447.6</ele>
        <time>2022-08-28T16:00:31Z</time>
      </trkpt>
      <trkpt lat="42.3829070" lon="-8.4161260">
        <ele>447.4</ele>
        <time>2022-08-28T16:00:32Z</time>
      </trkpt>
      <trkpt lat="42.3828150" lon="-8.4161750">
        <ele>446.8</ele>
        <time>2022-08-28T16:00:34Z</time>
      </trkpt>
      <trkpt lat="42.3827270" lon="-8.4161950">
        <ele>446.0</ele>
        <time>2022-08-28T16:00:36Z</time>
      </trkpt>
      <trkpt lat="42.3825930" lon="-8.4161910">
        <ele>445.0</ele>
        <time>2022-08-28T16:00:39Z</time>
      </trkpt>
      <trkpt lat="42.3825490" lon="-8.4161790">
        <ele>445.0</ele>
        <time>2022-08-28T16:00:40Z</time>
      </trkpt>
      <trkpt lat="42.3824020" lon="-8.4161500">
        <ele>444.8</ele>
        <time>2022-08-28T16:00:44Z</time>
      </trkpt>
      <trkpt lat="42.3822540" lon="-8.4161420">
        <ele>444.4</ele>
        <time>2022-08-28T16:00:47Z</time>
      </trkpt>
      <trkpt lat="42.3821900" lon="-8.4161280">
        <ele>444.4</ele>
        <time>2022-08-28T16:00:48Z</time>
      </trkpt>
      <trkpt lat="42.3820660" lon="-8.4161050">
        <ele>444.0</ele>
        <time>2022-08-28T16:00:50Z</time>
      </trkpt>
      <trkpt lat="42.3819740" lon="-8.4160920">
        <ele>443.8</ele>
        <time>2022-08-28T16:00:52Z</time>
      </trkpt>
      <trkpt lat="42.3818980" lon="-8.4160960">
        <ele>442.6</ele>
        <time>2022-08-28T16:00:55Z</time>
      </trkpt>
      <trkpt lat="42.3818830" lon="-8.4161010">
        <ele>441.8</ele>
        <time>2022-08-28T16:00:56Z</time>
      </trkpt>
      <trkpt lat="42.3818720" lon="-8.4161050">
        <ele>441.2</ele>
        <time>2022-08-28T16:00:57Z</time>
      </trkpt>
      <trkpt lat="42.3818570" lon="-8.4161190">
        <ele>440.4</ele>
        <time>2022-08-28T16:00:59Z</time>
      </trkpt>
      <trkpt lat="42.3818490" lon="-8.4161430">
        <ele>440.0</ele>
        <time>2022-08-28T16:01:00Z</time>
      </trkpt>
      <trkpt lat="42.3818440" lon="-8.4161840">
        <ele>439.4</ele>
        <time>2022-08-28T16:01:01Z</time>
      </trkpt>
      <trkpt lat="42.3818590" lon="-8.4163070">
        <ele>438.8</ele>
        <time>2022-08-28T16:01:03Z</time>
      </trkpt>
      <trkpt lat="42.3818750" lon="-8.4163900">
        <ele>438.4</ele>
        <time>2022-08-28T16:01:04Z</time>
      </trkpt>
      <trkpt lat="42.3819390" lon="-8.4167060">
        <ele>437.6</ele>
        <time>2022-08-28T16:01:07Z</time>
      </trkpt>
      <trkpt lat="42.3819610" lon="-8.4168240">
        <ele>437.2</ele>
        <time>2022-08-28T16:01:08Z</time>
      </trkpt>
      <trkpt lat="42.3820260" lon="-8.4171680">
        <ele>436.2</ele>
        <time>2022-08-28T16:01:11Z</time>
      </trkpt>
      <trkpt lat="42.3820680" lon="-8.4173770">
        <ele>434.8</ele>
        <time>2022-08-28T16:01:13Z</time>
      </trkpt>
      <trkpt lat="42.3820890" lon="-8.4174770">
        <ele>433.4</ele>
        <time>2022-08-28T16:01:14Z</time>
      </trkpt>
      <trkpt lat="42.3821050" lon="-8.4175770">
        <ele>432.4</ele>
        <time>2022-08-28T16:01:15Z</time>
      </trkpt>
      <trkpt lat="42.3821080" lon="-8.4176760">
        <ele>432.0</ele>
        <time>2022-08-28T16:01:16Z</time>
      </trkpt>
      <trkpt lat="42.3820960" lon="-8.4177690">
        <ele>431.6</ele>
        <time>2022-08-28T16:01:17Z</time>
      </trkpt>
      <trkpt lat="42.3820400" lon="-8.4179500">
        <ele>431.2</ele>
        <time>2022-08-28T16:01:19Z</time>
      </trkpt>
      <trkpt lat="42.3820130" lon="-8.4180450">
        <ele>431.2</ele>
        <time>2022-08-28T16:01:20Z</time>
      </trkpt>
      <trkpt lat="42.3819940" lon="-8.4181390">
        <ele>431.0</ele>
        <time>2022-08-28T16:01:21Z</time>
      </trkpt>
      <trkpt lat="42.3819880" lon="-8.4182290">
        <ele>430.8</ele>
        <time>2022-08-28T16:01:22Z</time>
      </trkpt>
      <trkpt lat="42.3820150" lon="-8.4183720">
        <ele>430.8</ele>
        <time>2022-08-28T16:01:24Z</time>
      </trkpt>
      <trkpt lat="42.3821590" lon="-8.4184300">
        <ele>430.4</ele>
        <time>2022-08-28T16:01:27Z</time>
      </trkpt>
      <trkpt lat="42.3822680" lon="-8.4183810">
        <ele>429.8</ele>
        <time>2022-08-28T16:01:29Z</time>
      </trkpt>
      <trkpt lat="42.3823560" lon="-8.4183040">
        <ele>428.8</ele>
        <time>2022-08-28T16:01:31Z</time>
      </trkpt>
      <trkpt lat="42.3825010" lon="-8.4181690">
        <ele>427.4</ele>
        <time>2022-08-28T16:01:34Z</time>
      </trkpt>
      <trkpt lat="42.3825980" lon="-8.4180560">
        <ele>426.2</ele>
        <time>2022-08-28T16:01:36Z</time>
      </trkpt>
      <trkpt lat="42.3829190" lon="-8.4178000">
        <ele>425.2</ele>
        <time>2022-08-28T16:01:42Z</time>
      </trkpt>
      <trkpt lat="42.3831410" lon="-8.4176390">
        <ele>424.2</ele>
        <time>2022-08-28T16:01:46Z</time>
      </trkpt>
      <trkpt lat="42.3831990" lon="-8.4175970">
        <ele>423.8</ele>
        <time>2022-08-28T16:01:47Z</time>
      </trkpt>
      <trkpt lat="42.3832600" lon="-8.4175510">
        <ele>423.0</ele>
        <time>2022-08-28T16:01:48Z</time>
      </trkpt>
      <trkpt lat="42.3833180" lon="-8.4174960">
        <ele>422.4</ele>
        <time>2022-08-28T16:01:49Z</time>
      </trkpt>
      <trkpt lat="42.3833750" lon="-8.4174390">
        <ele>421.8</ele>
        <time>2022-08-28T16:01:50Z</time>
      </trkpt>
      <trkpt lat="42.3834280" lon="-8.4173740">
        <ele>421.2</ele>
        <time>2022-08-28T16:01:51Z</time>
      </trkpt>
      <trkpt lat="42.3834860" lon="-8.4173050">
        <ele>420.4</ele>
        <time>2022-08-28T16:01:52Z</time>
      </trkpt>
      <trkpt lat="42.3835450" lon="-8.4172320">
        <ele>419.2</ele>
        <time>2022-08-28T16:01:53Z</time>
      </trkpt>
      <trkpt lat="42.3836040" lon="-8.4171570">
        <ele>418.0</ele>
        <time>2022-08-28T16:01:54Z</time>
      </trkpt>
      <trkpt lat="42.3837160" lon="-8.4169820">
        <ele>416.6</ele>
        <time>2022-08-28T16:01:56Z</time>
      </trkpt>
      <trkpt lat="42.3838030" lon="-8.4166900">
        <ele>415.6</ele>
        <time>2022-08-28T16:01:59Z</time>
      </trkpt>
      <trkpt lat="42.3839530" lon="-8.4164500">
        <ele>414.4</ele>
        <time>2022-08-28T16:02:02Z</time>
      </trkpt>
      <trkpt lat="42.3841990" lon="-8.4163540">
        <ele>412.4</ele>
        <time>2022-08-28T16:02:05Z</time>
      </trkpt>
      <trkpt lat="42.3843900" lon="-8.4163150">
        <ele>411.2</ele>
        <time>2022-08-28T16:02:07Z</time>
      </trkpt>
      <trkpt lat="42.3846680" lon="-8.4162800">
        <ele>410.2</ele>
        <time>2022-08-28T16:02:10Z</time>
      </trkpt>
      <trkpt lat="42.3847510" lon="-8.4162670">
        <ele>409.8</ele>
        <time>2022-08-28T16:02:11Z</time>
      </trkpt>
      <trkpt lat="42.3849010" lon="-8.4162430">
        <ele>408.6</ele>
        <time>2022-08-28T16:02:13Z</time>
      </trkpt>
      <trkpt lat="42.3850270" lon="-8.4162170">
        <ele>408.4</ele>
        <time>2022-08-28T16:02:15Z</time>
      </trkpt>
      <trkpt lat="42.3852280" lon="-8.4162020">
        <ele>408.2</ele>
        <time>2022-08-28T16:02:19Z</time>
      </trkpt>
      <trkpt lat="42.3852720" lon="-8.4162150">
        <ele>408.2</ele>
        <time>2022-08-28T16:02:20Z</time>
      </trkpt>
      <trkpt lat="42.3853980" lon="-8.4163260">
        <ele>408.4</ele>
        <time>2022-08-28T16:02:24Z</time>
      </trkpt>
      <trkpt lat="42.3855300" lon="-8.4164670">
        <ele>409.6</ele>
        <time>2022-08-28T16:02:29Z</time>
      </trkpt>
      <trkpt lat="42.3855790" lon="-8.4164660">
        <ele>409.8</ele>
        <time>2022-08-28T16:02:31Z</time>
      </trkpt>
      <trkpt lat="42.3855990" lon="-8.4164640">
        <ele>409.8</ele>
        <time>2022-08-28T16:02:32Z</time>
      </trkpt>
      <trkpt lat="42.3856160" lon="-8.4164620">
        <ele>409.8</ele>
        <time>2022-08-28T16:02:33Z</time>
      </trkpt>
      <trkpt lat="42.3857180" lon="-8.4164440">
        <ele>410.8</ele>
        <time>2022-08-28T16:02:39Z</time>
      </trkpt>
      <trkpt lat="42.3858260" lon="-8.4164150">
        <ele>411.8</ele>
        <time>2022-08-28T16:02:46Z</time>
      </trkpt>
      <trkpt lat="42.3858410" lon="-8.4164090">
        <ele>412.0</ele>
        <time>2022-08-28T16:02:47Z</time>
      </trkpt>
      <trkpt lat="42.3858700" lon="-8.4163980">
        <ele>412.2</ele>
        <time>2022-08-28T16:02:49Z</time>
      </trkpt>
      <trkpt lat="42.3859420" lon="-8.4163810">
        <ele>412.8</ele>
        <time>2022-08-28T16:02:54Z</time>
      </trkpt>
      <trkpt lat="42.3860520" lon="-8.4163450">
        <ele>414.0</ele>
        <time>2022-08-28T16:03:01Z</time>
      </trkpt>
      <trkpt lat="42.3860660" lon="-8.4163440">
        <ele>414.0</ele>
        <time>2022-08-28T16:03:02Z</time>
      </trkpt>
      <trkpt lat="42.3861700" lon="-8.4163440">
        <ele>414.8</ele>
        <time>2022-08-28T16:03:08Z</time>
      </trkpt>
      <trkpt lat="42.3862030" lon="-8.4163450">
        <ele>415.0</ele>
        <time>2022-08-28T16:03:10Z</time>
      </trkpt>
      <trkpt lat="42.3862690" lon="-8.4163290">
        <ele>415.8</ele>
        <time>2022-08-28T16:03:15Z</time>
      </trkpt>
      <trkpt lat="42.3862950" lon="-8.4163250">
        <ele>416.2</ele>
        <time>2022-08-28T16:03:17Z</time>
      </trkpt>
      <trkpt lat="42.3863790" lon="-8.4163160">
        <ele>416.8</ele>
        <time>2022-08-28T16:03:23Z</time>
      </trkpt>
      <trkpt lat="42.3863900" lon="-8.4163120">
        <ele>417.0</ele>
        <time>2022-08-28T16:03:24Z</time>
      </trkpt>
      <trkpt lat="42.3864720" lon="-8.4162810">
        <ele>417.8</ele>
        <time>2022-08-28T16:03:30Z</time>
      </trkpt>
      <trkpt lat="42.3864820" lon="-8.4162790">
        <ele>417.8</ele>
        <time>2022-08-28T16:03:31Z</time>
      </trkpt>
      <trkpt lat="42.3865560" lon="-8.4162720">
        <ele>419.0</ele>
        <time>2022-08-28T16:03:36Z</time>
      </trkpt>
      <trkpt lat="42.3865710" lon="-8.4162730">
        <ele>419.0</ele>
        <time>2022-08-28T16:03:37Z</time>
      </trkpt>
      <trkpt lat="42.3866740" lon="-8.4162820">
        <ele>419.8</ele>
        <time>2022-08-28T16:03:44Z</time>
      </trkpt>
      <trkpt lat="42.3866900" lon="-8.4162860">
        <ele>420.0</ele>
        <time>2022-08-28T16:03:45Z</time>
      </trkpt>
      <trkpt lat="42.3867070" lon="-8.4162900">
        <ele>420.2</ele>
        <time>2022-08-28T16:03:46Z</time>
      </trkpt>
      <trkpt lat="42.3867890" lon="-8.4162960">
        <ele>420.8</ele>
        <time>2022-08-28T16:03:51Z</time>
      </trkpt>
      <trkpt lat="42.3868210" lon="-8.4163020">
        <ele>421.2</ele>
        <time>2022-08-28T16:03:53Z</time>
      </trkpt>
      <trkpt lat="42.3868880" lon="-8.4163020">
        <ele>421.8</ele>
        <time>2022-08-28T16:03:57Z</time>
      </trkpt>
      <trkpt lat="42.3869280" lon="-8.4163110">
        <ele>422.2</ele>
        <time>2022-08-28T16:03:59Z</time>
      </trkpt>
      <trkpt lat="42.3869980" lon="-8.4163260">
        <ele>423.0</ele>
        <time>2022-08-28T16:04:03Z</time>
      </trkpt>
      <trkpt lat="42.3870310" lon="-8.4163260">
        <ele>423.0</ele>
        <time>2022-08-28T16:04:05Z</time>
      </trkpt>
      <trkpt lat="42.3871260" lon="-8.4163110">
        <ele>424.0</ele>
        <time>2022-08-28T16:04:11Z</time>
      </trkpt>
      <trkpt lat="42.3872270" lon="-8.4162960">
        <ele>424.8</ele>
        <time>2022-08-28T16:04:18Z</time>
      </trkpt>
      <trkpt lat="42.3872420" lon="-8.4162910">
        <ele>425.0</ele>
        <time>2022-08-28T16:04:19Z</time>
      </trkpt>
      <trkpt lat="42.3873520" lon="-8.4162650">
        <ele>425.8</ele>
        <time>2022-08-28T16:04:26Z</time>
      </trkpt>
      <trkpt lat="42.3873680" lon="-8.4162620">
        <ele>425.8</ele>
        <time>2022-08-28T16:04:27Z</time>
      </trkpt>
      <trkpt lat="42.3874470" lon="-8.4162590">
        <ele>426.4</ele>
        <time>2022-08-28T16:04:32Z</time>
      </trkpt>
      <trkpt lat="42.3875090" lon="-8.4162500">
        <ele>426.8</ele>
        <time>2022-08-28T16:04:36Z</time>
      </trkpt>
      <trkpt lat="42.3875600" lon="-8.4162470">
        <ele>427.2</ele>
        <time>2022-08-28T16:04:39Z</time>
      </trkpt>
      <trkpt lat="42.3876570" lon="-8.4162430">
        <ele>428.0</ele>
        <time>2022-08-28T16:04:45Z</time>
      </trkpt>
      <trkpt lat="42.3876730" lon="-8.4162450">
        <ele>428.2</ele>
        <time>2022-08-28T16:04:46Z</time>
      </trkpt>
      <trkpt lat="42.3877740" lon="-8.4162320">
        <ele>429.0</ele>
        <time>2022-08-28T16:04:53Z</time>
      </trkpt>
      <trkpt lat="42.3877870" lon="-8.4162330">
        <ele>429.2</ele>
        <time>2022-08-28T16:04:54Z</time>
      </trkpt>
      <trkpt lat="42.3878690" lon="-8.4162140">
        <ele>430.0</ele>
        <time>2022-08-28T16:05:00Z</time>
      </trkpt>
      <trkpt lat="42.3878840" lon="-8.4162100">
        <ele>430.2</ele>
        <time>2022-08-28T16:05:01Z</time>
      </trkpt>
      <trkpt lat="42.3878990" lon="-8.4162060">
        <ele>430.4</ele>
        <time>2022-08-28T16:05:02Z</time>
      </trkpt>
      <trkpt lat="42.3879520" lon="-8.4162020">
        <ele>431.2</ele>
        <time>2022-08-28T16:05:06Z</time>
      </trkpt>
      <trkpt lat="42.3879650" lon="-8.4161980">
        <ele>431.4</ele>
        <time>2022-08-28T16:05:07Z</time>
      </trkpt>
      <trkpt lat="42.3880420" lon="-8.4161910">
        <ele>432.2</ele>
        <time>2022-08-28T16:05:13Z</time>
      </trkpt>
      <trkpt lat="42.3880560" lon="-8.4161850">
        <ele>432.4</ele>
        <time>2022-08-28T16:05:14Z</time>
      </trkpt>
      <trkpt lat="42.3880920" lon="-8.4161730">
        <ele>432.8</ele>
        <time>2022-08-28T16:05:17Z</time>
      </trkpt>
      <trkpt lat="42.3881280" lon="-8.4161710">
        <ele>433.4</ele>
        <time>2022-08-28T16:05:20Z</time>
      </trkpt>
      <trkpt lat="42.3882020" lon="-8.4161540">
        <ele>434.6</ele>
        <time>2022-08-28T16:05:27Z</time>
      </trkpt>
      <trkpt lat="42.3882110" lon="-8.4161560">
        <ele>434.8</ele>
        <time>2022-08-28T16:05:28Z</time>
      </trkpt>
      <trkpt lat="42.3882550" lon="-8.4161590">
        <ele>435.6</ele>
        <time>2022-08-28T16:05:32Z</time>
      </trkpt>
      <trkpt lat="42.3882770" lon="-8.4161720">
        <ele>436.0</ele>
        <time>2022-08-28T16:05:34Z</time>
      </trkpt>
      <trkpt lat="42.3882870" lon="-8.4161790">
        <ele>436.0</ele>
        <time>2022-08-28T16:05:35Z</time>
      </trkpt>
      <trkpt lat="42.3883170" lon="-8.4162180">
        <ele>436.6</ele>
        <time>2022-08-28T16:05:39Z</time>
      </trkpt>
      <trkpt lat="42.3883250" lon="-8.4162150">
        <ele>437.0</ele>
        <time>2022-08-28T16:05:42Z</time>
      </trkpt>
      <trkpt lat="42.3882690" lon="-8.4162800">
        <ele>437.6</ele>
        <time>2022-08-28T16:06:18Z</time>
      </trkpt>
      <trkpt lat="42.3882280" lon="-8.4163110">
        <ele>437.6</ele>
        <time>2022-08-28T16:06:21Z</time>
      </trkpt>
      <trkpt lat="42.3881720" lon="-8.4163740">
        <ele>437.8</ele>
        <time>2022-08-28T16:06:26Z</time>
      </trkpt>
      <trkpt lat="42.3881610" lon="-8.4163810">
        <ele>437.8</ele>
        <time>2022-08-28T16:06:27Z</time>
      </trkpt>
      <trkpt lat="42.3881080" lon="-8.4164160">
        <ele>438.8</ele>
        <time>2022-08-28T16:06:32Z</time>
      </trkpt>
      <trkpt lat="42.3881000" lon="-8.4164260">
        <ele>439.0</ele>
        <time>2022-08-28T16:06:33Z</time>
      </trkpt>
      <trkpt lat="42.3880890" lon="-8.4164330">
        <ele>439.2</ele>
        <time>2022-08-28T16:06:34Z</time>
      </trkpt>
      <trkpt lat="42.3880470" lon="-8.4164730">
        <ele>440.0</ele>
        <time>2022-08-28T16:06:38Z</time>
      </trkpt>
      <trkpt lat="42.3880020" lon="-8.4165010">
        <ele>440.6</ele>
        <time>2022-08-28T16:06:42Z</time>
      </trkpt>
      <trkpt lat="42.3879810" lon="-8.4165170">
        <ele>441.0</ele>
        <time>2022-08-28T16:06:44Z</time>
      </trkpt>
      <trkpt lat="42.3879140" lon="-8.4165800">
        <ele>442.2</ele>
        <time>2022-08-28T16:06:50Z</time>
      </trkpt>
      <trkpt lat="42.3878310" lon="-8.4166810">
        <ele>443.2</ele>
        <time>2022-08-28T16:06:57Z</time>
      </trkpt>
      <trkpt lat="42.3878210" lon="-8.4167010">
        <ele>443.2</ele>
        <time>2022-08-28T16:06:58Z</time>
      </trkpt>
      <trkpt lat="42.3877830" lon="-8.4168500">
        <ele>444.0</ele>
        <time>2022-08-28T16:07:04Z</time>
      </trkpt>
      <trkpt lat="42.3877700" lon="-8.4169100">
        <ele>444.2</ele>
        <time>2022-08-28T16:07:06Z</time>
      </trkpt>
      <trkpt lat="42.3877120" lon="-8.4170740">
        <ele>444.4</ele>
        <time>2022-08-28T16:07:12Z</time>
      </trkpt>
      <trkpt lat="42.3876260" lon="-8.4171820">
        <ele>444.4</ele>
        <time>2022-08-28T16:07:19Z</time>
      </trkpt>
      <trkpt lat="42.3875770" lon="-8.4172190">
        <ele>445.6</ele>
        <time>2022-08-28T16:07:24Z</time>
      </trkpt>
      <trkpt lat="42.3875660" lon="-8.4172260">
        <ele>445.8</ele>
        <time>2022-08-28T16:07:25Z</time>
      </trkpt>
      <trkpt lat="42.3875290" lon="-8.4172570">
        <ele>446.8</ele>
        <time>2022-08-28T16:07:29Z</time>
      </trkpt>
      <trkpt lat="42.3874770" lon="-8.4173040">
        <ele>447.6</ele>
        <time>2022-08-28T16:07:35Z</time>
      </trkpt>
      <trkpt lat="42.3874680" lon="-8.4173130">
        <ele>447.8</ele>
        <time>2022-08-28T16:07:36Z</time>
      </trkpt>
      <trkpt lat="42.3874220" lon="-8.4173660">
        <ele>449.0</ele>
        <time>2022-08-28T16:07:42Z</time>
      </trkpt>
      <trkpt lat="42.3873560" lon="-8.4174430">
        <ele>450.0</ele>
        <time>2022-08-28T16:07:49Z</time>
      </trkpt>
      <trkpt lat="42.3873460" lon="-8.4174580">
        <ele>450.2</ele>
        <time>2022-08-28T16:07:50Z</time>
      </trkpt>
      <trkpt lat="42.3873060" lon="-8.4175370">
        <ele>451.0</ele>
        <time>2022-08-28T16:07:55Z</time>
      </trkpt>
      <trkpt lat="42.3872890" lon="-8.4175840">
        <ele>451.8</ele>
        <time>2022-08-28T16:07:58Z</time>
      </trkpt>
      <trkpt lat="42.3872770" lon="-8.4176120">
        <ele>452.2</ele>
        <time>2022-08-28T16:08:00Z</time>
      </trkpt>
      <trkpt lat="42.3872610" lon="-8.4176890">
        <ele>453.4</ele>
        <time>2022-08-28T16:08:05Z</time>
      </trkpt>
      <trkpt lat="42.3872580" lon="-8.4177220">
        <ele>453.8</ele>
        <time>2022-08-28T16:08:07Z</time>
      </trkpt>
      <trkpt lat="42.3872670" lon="-8.4177830">
        <ele>454.6</ele>
        <time>2022-08-28T16:08:11Z</time>
      </trkpt>
      <trkpt lat="42.3872800" lon="-8.4178150">
        <ele>455.0</ele>
        <time>2022-08-28T16:08:14Z</time>
      </trkpt>
      <trkpt lat="42.3872960" lon="-8.4178290">
        <ele>455.6</ele>
        <time>2022-08-28T16:08:16Z</time>
      </trkpt>
      <trkpt lat="42.3873040" lon="-8.4178360">
        <ele>456.2</ele>
        <time>2022-08-28T16:08:19Z</time>
      </trkpt>
      <trkpt lat="42.3873500" lon="-8.4179090">
        <ele>457.0</ele>
        <time>2022-08-28T16:12:24Z</time>
      </trkpt>
      <trkpt lat="42.3874000" lon="-8.4179600">
        <ele>457.2</ele>
        <time>2022-08-28T16:12:28Z</time>
      </trkpt>
      <trkpt lat="42.3874500" lon="-8.4180040">
        <ele>457.6</ele>
        <time>2022-08-28T16:12:32Z</time>
      </trkpt>
      <trkpt lat="42.3875390" lon="-8.4180350">
        <ele>458.0</ele>
        <time>2022-08-28T16:12:39Z</time>
      </trkpt>
      <trkpt lat="42.3875950" lon="-8.4180270">
        <ele>458.4</ele>
        <time>2022-08-28T16:12:44Z</time>
      </trkpt>
      <trkpt lat="42.3876210" lon="-8.4180170">
        <ele>458.6</ele>
        <time>2022-08-28T16:12:47Z</time>
      </trkpt>
      <trkpt lat="42.3876240" lon="-8.4180170">
        <ele>458.8</ele>
        <time>2022-08-28T16:12:48Z</time>
      </trkpt>
      <trkpt lat="42.3875840" lon="-8.4181230">
        <ele>459.8</ele>
        <time>2022-08-28T16:14:14Z</time>
      </trkpt>
      <trkpt lat="42.3875490" lon="-8.4181770">
        <ele>459.8</ele>
        <time>2022-08-28T16:14:16Z</time>
      </trkpt>
      <trkpt lat="42.3874340" lon="-8.4184080">
        <ele>459.6</ele>
        <time>2022-08-28T16:14:24Z</time>
      </trkpt>
      <trkpt lat="42.3873130" lon="-8.4186280">
        <ele>460.4</ele>
        <time>2022-08-28T16:14:33Z</time>
      </trkpt>
      <trkpt lat="42.3872730" lon="-8.4187180">
        <ele>460.8</ele>
        <time>2022-08-28T16:14:37Z</time>
      </trkpt>
      <trkpt lat="42.3872330" lon="-8.4188060">
        <ele>461.6</ele>
        <time>2022-08-28T16:14:41Z</time>
      </trkpt>
      <trkpt lat="42.3871820" lon="-8.4189040">
        <ele>462.0</ele>
        <time>2022-08-28T16:14:46Z</time>
      </trkpt>
      <trkpt lat="42.3871420" lon="-8.4189810">
        <ele>462.4</ele>
        <time>2022-08-28T16:14:50Z</time>
      </trkpt>
      <trkpt lat="42.3871050" lon="-8.4190660">
        <ele>463.0</ele>
        <time>2022-08-28T16:14:54Z</time>
      </trkpt>
      <trkpt lat="42.3870530" lon="-8.4192270">
        <ele>464.0</ele>
        <time>2022-08-28T16:15:01Z</time>
      </trkpt>
      <trkpt lat="42.3870540" lon="-8.4192530">
        <ele>464.2</ele>
        <time>2022-08-28T16:15:02Z</time>
      </trkpt>
      <trkpt lat="42.3870980" lon="-8.4193660">
        <ele>464.6</ele>
        <time>2022-08-28T16:15:07Z</time>
      </trkpt>
      <trkpt lat="42.3871850" lon="-8.4194670">
        <ele>465.2</ele>
        <time>2022-08-28T16:15:13Z</time>
      </trkpt>
      <trkpt lat="42.3872350" lon="-8.4195110">
        <ele>465.4</ele>
        <time>2022-08-28T16:15:16Z</time>
      </trkpt>
      <trkpt lat="42.3873750" lon="-8.4195570">
        <ele>466.4</ele>
        <time>2022-08-28T16:15:23Z</time>
      </trkpt>
      <trkpt lat="42.3873960" lon="-8.4195560">
        <ele>466.4</ele>
        <time>2022-08-28T16:15:24Z</time>
      </trkpt>
      <trkpt lat="42.3876040" lon="-8.4195090">
        <ele>467.4</ele>
        <time>2022-08-28T16:15:34Z</time>
      </trkpt>
      <trkpt lat="42.3877810" lon="-8.4194640">
        <ele>468.4</ele>
        <time>2022-08-28T16:15:43Z</time>
      </trkpt>
      <trkpt lat="42.3878180" lon="-8.4194550">
        <ele>468.8</ele>
        <time>2022-08-28T16:15:45Z</time>
      </trkpt>
      <trkpt lat="42.3879080" lon="-8.4194260">
        <ele>469.4</ele>
        <time>2022-08-28T16:15:50Z</time>
      </trkpt>
      <trkpt lat="42.3879700" lon="-8.4194110">
        <ele>470.0</ele>
        <time>2022-08-28T16:15:54Z</time>
      </trkpt>
      <trkpt lat="42.3880250" lon="-8.4193970">
        <ele>470.4</ele>
        <time>2022-08-28T16:15:57Z</time>
      </trkpt>
      <trkpt lat="42.3881440" lon="-8.4193580">
        <ele>471.2</ele>
        <time>2022-08-28T16:16:03Z</time>
      </trkpt>
      <trkpt lat="42.3881880" lon="-8.4193440">
        <ele>471.6</ele>
        <time>2022-08-28T16:16:05Z</time>
      </trkpt>
      <trkpt lat="42.3883430" lon="-8.4193050">
        <ele>472.4</ele>
        <time>2022-08-28T16:16:12Z</time>
      </trkpt>
      <trkpt lat="42.3883860" lon="-8.4192920">
        <ele>472.6</ele>
        <time>2022-08-28T16:16:14Z</time>
      </trkpt>
      <trkpt lat="42.3885030" lon="-8.4192540">
        <ele>473.2</ele>
        <time>2022-08-28T16:16:19Z</time>
      </trkpt>
      <trkpt lat="42.3886130" lon="-8.4192190">
        <ele>473.6</ele>
        <time>2022-08-28T16:16:23Z</time>
      </trkpt>
      <trkpt lat="42.3887240" lon="-8.4191830">
        <ele>474.0</ele>
        <time>2022-08-28T16:16:27Z</time>
      </trkpt>
      <trkpt lat="42.3889040" lon="-8.4191340">
        <ele>474.6</ele>
        <time>2022-08-28T16:16:34Z</time>
      </trkpt>
      <trkpt lat="42.3889920" lon="-8.4191040">
        <ele>474.8</ele>
        <time>2022-08-28T16:16:38Z</time>
      </trkpt>
      <trkpt lat="42.3890750" lon="-8.4190830">
        <ele>475.6</ele>
        <time>2022-08-28T16:16:42Z</time>
      </trkpt>
      <trkpt lat="42.3890930" lon="-8.4190750">
        <ele>476.0</ele>
        <time>2022-08-28T16:16:43Z</time>
      </trkpt>
      <trkpt lat="42.3891800" lon="-8.4190400">
        <ele>477.0</ele>
        <time>2022-08-28T16:16:48Z</time>
      </trkpt>
      <trkpt lat="42.3892120" lon="-8.4190250">
        <ele>477.2</ele>
        <time>2022-08-28T16:16:50Z</time>
      </trkpt>
      <trkpt lat="42.3892750" lon="-8.4190030">
        <ele>478.0</ele>
        <time>2022-08-28T16:16:54Z</time>
      </trkpt>
      <trkpt lat="42.3893380" lon="-8.4189790">
        <ele>478.8</ele>
        <time>2022-08-28T16:16:58Z</time>
      </trkpt>
      <trkpt lat="42.3893710" lon="-8.4189650">
        <ele>479.2</ele>
        <time>2022-08-28T16:17:00Z</time>
      </trkpt>
      <trkpt lat="42.3894830" lon="-8.4189080">
        <ele>480.4</ele>
        <time>2022-08-28T16:17:07Z</time>
      </trkpt>
      <trkpt lat="42.3895990" lon="-8.4188370">
        <ele>481.6</ele>
        <time>2022-08-28T16:17:14Z</time>
      </trkpt>
      <trkpt lat="42.3896180" lon="-8.4188270">
        <ele>481.8</ele>
        <time>2022-08-28T16:17:15Z</time>
      </trkpt>
      <trkpt lat="42.3897300" lon="-8.4187700">
        <ele>482.6</ele>
        <time>2022-08-28T16:17:21Z</time>
      </trkpt>
      <trkpt lat="42.3897930" lon="-8.4187450">
        <ele>483.2</ele>
        <time>2022-08-28T16:17:24Z</time>
      </trkpt>
      <trkpt lat="42.3899230" lon="-8.4186990">
        <ele>483.6</ele>
        <time>2022-08-28T16:17:30Z</time>
      </trkpt>
      <trkpt lat="42.3900400" lon="-8.4186690">
        <ele>484.2</ele>
        <time>2022-08-28T16:17:35Z</time>
      </trkpt>
      <trkpt lat="42.3902540" lon="-8.4186240">
        <ele>484.8</ele>
        <time>2022-08-28T16:17:44Z</time>
      </trkpt>
      <trkpt lat="42.3904390" lon="-8.4186090">
        <ele>485.8</ele>
        <time>2022-08-28T16:17:52Z</time>
      </trkpt>
      <trkpt lat="42.3904620" lon="-8.4186100">
        <ele>485.8</ele>
        <time>2022-08-28T16:17:53Z</time>
      </trkpt>
      <trkpt lat="42.3906410" lon="-8.4186550">
        <ele>486.6</ele>
        <time>2022-08-28T16:18:01Z</time>
      </trkpt>
      <trkpt lat="42.3906830" lon="-8.4186840">
        <ele>486.8</ele>
        <time>2022-08-28T16:18:03Z</time>
      </trkpt>
      <trkpt lat="42.3907620" lon="-8.4187810">
        <ele>487.6</ele>
        <time>2022-08-28T16:18:07Z</time>
      </trkpt>
      <trkpt lat="42.3908540" lon="-8.4189870">
        <ele>488.2</ele>
        <time>2022-08-28T16:18:13Z</time>
      </trkpt>
      <trkpt lat="42.3908770" lon="-8.4190650">
        <ele>488.4</ele>
        <time>2022-08-28T16:18:15Z</time>
      </trkpt>
      <trkpt lat="42.3909470" lon="-8.4193080">
        <ele>488.6</ele>
        <time>2022-08-28T16:18:22Z</time>
      </trkpt>
      <trkpt lat="42.3909560" lon="-8.4195720">
        <ele>489.0</ele>
        <time>2022-08-28T16:18:28Z</time>
      </trkpt>
      <trkpt lat="42.3909700" lon="-8.4199640">
        <ele>489.0</ele>
        <time>2022-08-28T16:18:36Z</time>
      </trkpt>
      <trkpt lat="42.3909950" lon="-8.4200010">
        <ele>489.0</ele>
        <time>2022-08-28T16:18:37Z</time>
      </trkpt>
      <trkpt lat="42.3910680" lon="-8.4200350">
        <ele>489.2</ele>
        <time>2022-08-28T16:18:39Z</time>
      </trkpt>
      <trkpt lat="42.3912160" lon="-8.4199660">
        <ele>489.2</ele>
        <time>2022-08-28T16:18:43Z</time>
      </trkpt>
      <trkpt lat="42.3913080" lon="-8.4198740">
        <ele>489.2</ele>
        <time>2022-08-28T16:18:47Z</time>
      </trkpt>
      <trkpt lat="42.3913280" lon="-8.4198570">
        <ele>489.4</ele>
        <time>2022-08-28T16:18:48Z</time>
      </trkpt>
      <trkpt lat="42.3914300" lon="-8.4197780">
        <ele>490.4</ele>
        <time>2022-08-28T16:18:53Z</time>
      </trkpt>
      <trkpt lat="42.3914780" lon="-8.4197420">
        <ele>490.8</ele>
        <time>2022-08-28T16:18:55Z</time>
      </trkpt>
      <trkpt lat="42.3915380" lon="-8.4196690">
        <ele>491.4</ele>
        <time>2022-08-28T16:18:58Z</time>
      </trkpt>
      <trkpt lat="42.3916020" lon="-8.4195830">
        <ele>491.8</ele>
        <time>2022-08-28T16:19:01Z</time>
      </trkpt>
      <trkpt lat="42.3917100" lon="-8.4194020">
        <ele>492.4</ele>
        <time>2022-08-28T16:19:08Z</time>
      </trkpt>
      <trkpt lat="42.3917200" lon="-8.4193760">
        <ele>492.4</ele>
        <time>2022-08-28T16:19:09Z</time>
      </trkpt>
      <trkpt lat="42.3917780" lon="-8.4192540">
        <ele>493.4</ele>
        <time>2022-08-28T16:19:14Z</time>
      </trkpt>
      <trkpt lat="42.3918340" lon="-8.4191190">
        <ele>494.2</ele>
        <time>2022-08-28T16:19:19Z</time>
      </trkpt>
      <trkpt lat="42.3918540" lon="-8.4190540">
        <ele>494.6</ele>
        <time>2022-08-28T16:19:21Z</time>
      </trkpt>
      <trkpt lat="42.3919010" lon="-8.4187910">
        <ele>495.4</ele>
        <time>2022-08-28T16:19:28Z</time>
      </trkpt>
      <trkpt lat="42.3919070" lon="-8.4186090">
        <ele>495.6</ele>
        <time>2022-08-28T16:19:33Z</time>
      </trkpt>
      <trkpt lat="42.3919150" lon="-8.4184290">
        <ele>496.0</ele>
        <time>2022-08-28T16:19:38Z</time>
      </trkpt>
      <trkpt lat="42.3919430" lon="-8.4182400">
        <ele>497.0</ele>
        <time>2022-08-28T16:19:43Z</time>
      </trkpt>
      <trkpt lat="42.3920010" lon="-8.4180610">
        <ele>497.4</ele>
        <time>2022-08-28T16:19:48Z</time>
      </trkpt>
      <trkpt lat="42.3921090" lon="-8.4178990">
        <ele>498.0</ele>
        <time>2022-08-28T16:19:54Z</time>
      </trkpt>
      <trkpt lat="42.3921500" lon="-8.4178610">
        <ele>498.2</ele>
        <time>2022-08-28T16:19:56Z</time>
      </trkpt>
      <trkpt lat="42.3922330" lon="-8.4178020">
        <ele>499.0</ele>
        <time>2022-08-28T16:20:00Z</time>
      </trkpt>
      <trkpt lat="42.3923170" lon="-8.4177530">
        <ele>499.6</ele>
        <time>2022-08-28T16:20:04Z</time>
      </trkpt>
      <trkpt lat="42.3924300" lon="-8.4177090">
        <ele>500.2</ele>
        <time>2022-08-28T16:20:09Z</time>
      </trkpt>
      <trkpt lat="42.3924980" lon="-8.4176860">
        <ele>501.0</ele>
        <time>2022-08-28T16:20:12Z</time>
      </trkpt>
      <trkpt lat="42.3925420" lon="-8.4176750">
        <ele>501.2</ele>
        <time>2022-08-28T16:20:14Z</time>
      </trkpt>
      <trkpt lat="42.3927310" lon="-8.4176480">
        <ele>502.2</ele>
        <time>2022-08-28T16:20:22Z</time>
      </trkpt>
      <trkpt lat="42.3927550" lon="-8.4176480">
        <ele>502.4</ele>
        <time>2022-08-28T16:20:23Z</time>
      </trkpt>
      <trkpt lat="42.3929070" lon="-8.4176510">
        <ele>503.4</ele>
        <time>2022-08-28T16:20:30Z</time>
      </trkpt>
      <trkpt lat="42.3929240" lon="-8.4176520">
        <ele>503.6</ele>
        <time>2022-08-28T16:20:32Z</time>
      </trkpt>
      <trkpt lat="42.3929250" lon="-8.4176520">
        <ele>503.8</ele>
        <time>2022-08-28T16:20:34Z</time>
      </trkpt>
      <trkpt lat="42.3929740" lon="-8.4176670">
        <ele>504.4</ele>
        <time>2022-08-28T16:21:26Z</time>
      </trkpt>
      <trkpt lat="42.3929940" lon="-8.4176700">
        <ele>504.4</ele>
        <time>2022-08-28T16:21:27Z</time>
      </trkpt>
      <trkpt lat="42.3932020" lon="-8.4177130">
        <ele>504.6</ele>
        <time>2022-08-28T16:21:36Z</time>
      </trkpt>
      <trkpt lat="42.3932500" lon="-8.4177260">
        <ele>505.0</ele>
        <time>2022-08-28T16:21:38Z</time>
      </trkpt>
      <trkpt lat="42.3933490" lon="-8.4177450">
        <ele>505.8</ele>
        <time>2022-08-28T16:21:42Z</time>
      </trkpt>
      <trkpt lat="42.3934700" lon="-8.4177700">
        <ele>506.6</ele>
        <time>2022-08-28T16:21:47Z</time>
      </trkpt>
      <trkpt lat="42.3934950" lon="-8.4177750">
        <ele>506.8</ele>
        <time>2022-08-28T16:21:48Z</time>
      </trkpt>
      <trkpt lat="42.3936810" lon="-8.4178040">
        <ele>507.6</ele>
        <time>2022-08-28T16:21:55Z</time>
      </trkpt>
      <trkpt lat="42.3937370" lon="-8.4178080">
        <ele>507.8</ele>
        <time>2022-08-28T16:21:57Z</time>
      </trkpt>
      <trkpt lat="42.3939270" lon="-8.4177890">
        <ele>508.4</ele>
        <time>2022-08-28T16:22:04Z</time>
      </trkpt>
      <trkpt lat="42.3940280" lon="-8.4177410">
        <ele>509.0</ele>
        <time>2022-08-28T16:22:08Z</time>
      </trkpt>
      <trkpt lat="42.3941130" lon="-8.4176830">
        <ele>509.6</ele>
        <time>2022-08-28T16:22:12Z</time>
      </trkpt>
      <trkpt lat="42.3942020" lon="-8.4175930">
        <ele>510.2</ele>
        <time>2022-08-28T16:22:17Z</time>
      </trkpt>
      <trkpt lat="42.3942670" lon="-8.4175320">
        <ele>510.8</ele>
        <time>2022-08-28T16:22:20Z</time>
      </trkpt>
      <trkpt lat="42.3943360" lon="-8.4174680">
        <ele>511.2</ele>
        <time>2022-08-28T16:22:23Z</time>
      </trkpt>
      <trkpt lat="42.3945020" lon="-8.4173150">
        <ele>512.0</ele>
        <time>2022-08-28T16:22:30Z</time>
      </trkpt>
      <trkpt lat="42.3946120" lon="-8.4172170">
        <ele>512.2</ele>
        <time>2022-08-28T16:22:35Z</time>
      </trkpt>
      <trkpt lat="42.3946920" lon="-8.4171990">
        <ele>512.6</ele>
        <time>2022-08-28T16:22:38Z</time>
      </trkpt>
      <trkpt lat="42.3947450" lon="-8.4172820">
        <ele>512.6</ele>
        <time>2022-08-28T16:22:41Z</time>
      </trkpt>
      <trkpt lat="42.3947310" lon="-8.4173640">
        <ele>512.6</ele>
        <time>2022-08-28T16:22:44Z</time>
      </trkpt>
      <trkpt lat="42.3947200" lon="-8.4174120">
        <ele>513.0</ele>
        <time>2022-08-28T16:22:46Z</time>
      </trkpt>
      <trkpt lat="42.3946860" lon="-8.4174940">
        <ele>513.4</ele>
        <time>2022-08-28T16:22:50Z</time>
      </trkpt>
      <trkpt lat="42.3946490" lon="-8.4175960">
        <ele>514.4</ele>
        <time>2022-08-28T16:22:55Z</time>
      </trkpt>
      <trkpt lat="42.3946110" lon="-8.4176940">
        <ele>515.6</ele>
        <time>2022-08-28T16:23:00Z</time>
      </trkpt>
      <trkpt lat="42.3945680" lon="-8.4177940">
        <ele>516.6</ele>
        <time>2022-08-28T16:23:05Z</time>
      </trkpt>
      <trkpt lat="42.3945510" lon="-8.4178340">
        <ele>517.0</ele>
        <time>2022-08-28T16:23:07Z</time>
      </trkpt>
      <trkpt lat="42.3945210" lon="-8.4179100">
        <ele>517.8</ele>
        <time>2022-08-28T16:23:11Z</time>
      </trkpt>
      <trkpt lat="42.3944690" lon="-8.4180230">
        <ele>518.8</ele>
        <time>2022-08-28T16:23:17Z</time>
      </trkpt>
      <trkpt lat="42.3944600" lon="-8.4180420">
        <ele>519.0</ele>
        <time>2022-08-28T16:23:18Z</time>
      </trkpt>
      <trkpt lat="42.3943880" lon="-8.4181750">
        <ele>520.0</ele>
        <time>2022-08-28T16:23:25Z</time>
      </trkpt>
      <trkpt lat="42.3943420" lon="-8.4182510">
        <ele>520.2</ele>
        <time>2022-08-28T16:23:29Z</time>
      </trkpt>
      <trkpt lat="42.3942880" lon="-8.4183490">
        <ele>521.0</ele>
        <time>2022-08-28T16:23:34Z</time>
      </trkpt>
      <trkpt lat="42.3942760" lon="-8.4183670">
        <ele>521.2</ele>
        <time>2022-08-28T16:23:35Z</time>
      </trkpt>
      <trkpt lat="42.3942430" lon="-8.4184230">
        <ele>521.8</ele>
        <time>2022-08-28T16:23:38Z</time>
      </trkpt>
      <trkpt lat="42.3942120" lon="-8.4184810">
        <ele>522.0</ele>
        <time>2022-08-28T16:23:41Z</time>
      </trkpt>
      <trkpt lat="42.3941470" lon="-8.4185960">
        <ele>523.2</ele>
        <time>2022-08-28T16:23:47Z</time>
      </trkpt>
      <trkpt lat="42.3941170" lon="-8.4186560">
        <ele>523.6</ele>
        <time>2022-08-28T16:23:50Z</time>
      </trkpt>
      <trkpt lat="42.3940900" lon="-8.4187180">
        <ele>524.2</ele>
        <time>2022-08-28T16:23:53Z</time>
      </trkpt>
      <trkpt lat="42.3940540" lon="-8.4188570">
        <ele>525.4</ele>
        <time>2022-08-28T16:23:59Z</time>
      </trkpt>
      <trkpt lat="42.3940450" lon="-8.4189060">
        <ele>525.4</ele>
        <time>2022-08-28T16:24:01Z</time>
      </trkpt>
      <trkpt lat="42.3940050" lon="-8.4190740">
        <ele>526.4</ele>
        <time>2022-08-28T16:24:08Z</time>
      </trkpt>
      <trkpt lat="42.3939630" lon="-8.4191900">
        <ele>527.2</ele>
        <time>2022-08-28T16:24:13Z</time>
      </trkpt>
      <trkpt lat="42.3939310" lon="-8.4192520">
        <ele>527.4</ele>
        <time>2022-08-28T16:24:16Z</time>
      </trkpt>
      <trkpt lat="42.3938600" lon="-8.4193790">
        <ele>528.4</ele>
        <time>2022-08-28T16:24:23Z</time>
      </trkpt>
      <trkpt lat="42.3938050" lon="-8.4194740">
        <ele>529.4</ele>
        <time>2022-08-28T16:24:29Z</time>
      </trkpt>
      <trkpt lat="42.3937670" lon="-8.4195350">
        <ele>530.6</ele>
        <time>2022-08-28T16:24:33Z</time>
      </trkpt>
      <trkpt lat="42.3937320" lon="-8.4196020">
        <ele>531.6</ele>
        <time>2022-08-28T16:24:37Z</time>
      </trkpt>
      <trkpt lat="42.3936780" lon="-8.4197360">
        <ele>532.4</ele>
        <time>2022-08-28T16:24:44Z</time>
      </trkpt>
      <trkpt lat="42.3936650" lon="-8.4197770">
        <ele>532.8</ele>
        <time>2022-08-28T16:24:46Z</time>
      </trkpt>
      <trkpt lat="42.3936310" lon="-8.4199060">
        <ele>533.8</ele>
        <time>2022-08-28T16:24:52Z</time>
      </trkpt>
      <trkpt lat="42.3936190" lon="-8.4199490">
        <ele>534.2</ele>
        <time>2022-08-28T16:24:54Z</time>
      </trkpt>
      <trkpt lat="42.3935850" lon="-8.4200780">
        <ele>534.8</ele>
        <time>2022-08-28T16:25:00Z</time>
      </trkpt>
      <trkpt lat="42.3935690" lon="-8.4201620">
        <ele>535.6</ele>
        <time>2022-08-28T16:25:04Z</time>
      </trkpt>
      <trkpt lat="42.3935610" lon="-8.4202030">
        <ele>536.0</ele>
        <time>2022-08-28T16:25:06Z</time>
      </trkpt>
      <trkpt lat="42.3935240" lon="-8.4203610">
        <ele>537.0</ele>
        <time>2022-08-28T16:25:14Z</time>
      </trkpt>
      <trkpt lat="42.3934790" lon="-8.4205150">
        <ele>538.2</ele>
        <time>2022-08-28T16:25:22Z</time>
      </trkpt>
      <trkpt lat="42.3934680" lon="-8.4205520">
        <ele>538.6</ele>
        <time>2022-08-28T16:25:24Z</time>
      </trkpt>
      <trkpt lat="42.3934450" lon="-8.4206190">
        <ele>539.4</ele>
        <time>2022-08-28T16:25:28Z</time>
      </trkpt>
      <trkpt lat="42.3934220" lon="-8.4207030">
        <ele>540.4</ele>
        <time>2022-08-28T16:25:33Z</time>
      </trkpt>
      <trkpt lat="42.3934180" lon="-8.4207210">
        <ele>541.0</ele>
        <time>2022-08-28T16:25:34Z</time>
      </trkpt>
      <trkpt lat="42.3933900" lon="-8.4208390">
        <ele>542.0</ele>
        <time>2022-08-28T16:25:41Z</time>
      </trkpt>
      <trkpt lat="42.3933770" lon="-8.4208850">
        <ele>542.4</ele>
        <time>2022-08-28T16:25:44Z</time>
      </trkpt>
      <trkpt lat="42.3933690" lon="-8.4209170">
        <ele>543.0</ele>
        <time>2022-08-28T16:25:46Z</time>
      </trkpt>
      <trkpt lat="42.3933540" lon="-8.4210040">
        <ele>544.0</ele>
        <time>2022-08-28T16:25:51Z</time>
      </trkpt>
      <trkpt lat="42.3933520" lon="-8.4210540">
        <ele>544.6</ele>
        <time>2022-08-28T16:25:54Z</time>
      </trkpt>
      <trkpt lat="42.3933520" lon="-8.4211090">
        <ele>545.2</ele>
        <time>2022-08-28T16:25:57Z</time>
      </trkpt>
      <trkpt lat="42.3933650" lon="-8.4212170">
        <ele>546.2</ele>
        <time>2022-08-28T16:26:03Z</time>
      </trkpt>
      <trkpt lat="42.3933710" lon="-8.4212530">
        <ele>546.8</ele>
        <time>2022-08-28T16:26:05Z</time>
      </trkpt>
      <trkpt lat="42.3933850" lon="-8.4213070">
        <ele>547.4</ele>
        <time>2022-08-28T16:26:08Z</time>
      </trkpt>
      <trkpt lat="42.3934280" lon="-8.4214030">
        <ele>548.4</ele>
        <time>2022-08-28T16:26:14Z</time>
      </trkpt>
      <trkpt lat="42.3934380" lon="-8.4214190">
        <ele>548.4</ele>
        <time>2022-08-28T16:26:15Z</time>
      </trkpt>
      <trkpt lat="42.3935260" lon="-8.4215190">
        <ele>549.4</ele>
        <time>2022-08-28T16:26:22Z</time>
      </trkpt>
      <trkpt lat="42.3935700" lon="-8.4215500">
        <ele>550.2</ele>
        <time>2022-08-28T16:26:25Z</time>
      </trkpt>
      <trkpt lat="42.3936020" lon="-8.4215740">
        <ele>550.6</ele>
        <time>2022-08-28T16:26:27Z</time>
      </trkpt>
      <trkpt lat="42.3937180" lon="-8.4216380">
        <ele>551.6</ele>
        <time>2022-08-28T16:26:34Z</time>
      </trkpt>
      <trkpt lat="42.3937350" lon="-8.4216440">
        <ele>551.6</ele>
        <time>2022-08-28T16:26:35Z</time>
      </trkpt>
      <trkpt lat="42.3939090" lon="-8.4217280">
        <ele>552.6</ele>
        <time>2022-08-28T16:26:44Z</time>
      </trkpt>
      <trkpt lat="42.3939290" lon="-8.4217380">
        <ele>552.6</ele>
        <time>2022-08-28T16:26:45Z</time>
      </trkpt>
      <trkpt lat="42.3940750" lon="-8.4218100">
        <ele>553.6</ele>
        <time>2022-08-28T16:26:53Z</time>
      </trkpt>
      <trkpt lat="42.3940920" lon="-8.4218190">
        <ele>553.8</ele>
        <time>2022-08-28T16:26:54Z</time>
      </trkpt>
      <trkpt lat="42.3941950" lon="-8.4218610">
        <ele>554.8</ele>
        <time>2022-08-28T16:27:00Z</time>
      </trkpt>
      <trkpt lat="42.3942470" lon="-8.4218700">
        <ele>555.6</ele>
        <time>2022-08-28T16:27:03Z</time>
      </trkpt>
      <trkpt lat="42.3942830" lon="-8.4218650">
        <ele>556.0</ele>
        <time>2022-08-28T16:27:05Z</time>
      </trkpt>
      <trkpt lat="42.3943680" lon="-8.4218310">
        <ele>557.0</ele>
        <time>2022-08-28T16:27:10Z</time>
      </trkpt>
      <trkpt lat="42.3944000" lon="-8.4218140">
        <ele>557.2</ele>
        <time>2022-08-28T16:27:12Z</time>
      </trkpt>
      <trkpt lat="42.3944840" lon="-8.4217720">
        <ele>558.0</ele>
        <time>2022-08-28T16:27:17Z</time>
      </trkpt>
      <trkpt lat="42.3945750" lon="-8.4217440">
        <ele>558.8</ele>
        <time>2022-08-28T16:27:22Z</time>
      </trkpt>
      <trkpt lat="42.3946290" lon="-8.4217340">
        <ele>559.0</ele>
        <time>2022-08-28T16:27:25Z</time>
      </trkpt>
      <trkpt lat="42.3946990" lon="-8.4217370">
        <ele>560.0</ele>
        <time>2022-08-28T16:27:30Z</time>
      </trkpt>
      <trkpt lat="42.3947100" lon="-8.4217390">
        <ele>560.2</ele>
        <time>2022-08-28T16:27:31Z</time>
      </trkpt>
      <trkpt lat="42.3947770" lon="-8.4217560">
        <ele>561.2</ele>
        <time>2022-08-28T16:27:36Z</time>
      </trkpt>
      <trkpt lat="42.3947900" lon="-8.4217550">
        <ele>561.4</ele>
        <time>2022-08-28T16:27:37Z</time>
      </trkpt>
      <trkpt lat="42.3948570" lon="-8.4217630">
        <ele>562.4</ele>
        <time>2022-08-28T16:27:43Z</time>
      </trkpt>
      <trkpt lat="42.3948670" lon="-8.4217660">
        <ele>562.6</ele>
        <time>2022-08-28T16:27:44Z</time>
      </trkpt>
      <trkpt lat="42.3949200" lon="-8.4217800">
        <ele>563.6</ele>
        <time>2022-08-28T16:27:49Z</time>
      </trkpt>
      <trkpt lat="42.3949630" lon="-8.4217930">
        <ele>564.0</ele>
        <time>2022-08-28T16:27:53Z</time>
      </trkpt>
      <trkpt lat="42.3950080" lon="-8.4218020">
        <ele>564.6</ele>
        <time>2022-08-28T16:27:57Z</time>
      </trkpt>
      <trkpt lat="42.3950670" lon="-8.4218140">
        <ele>565.6</ele>
        <time>2022-08-28T16:28:02Z</time>
      </trkpt>
      <trkpt lat="42.3951600" lon="-8.4218490">
        <ele>566.4</ele>
        <time>2022-08-28T16:28:10Z</time>
      </trkpt>
      <trkpt lat="42.3951930" lon="-8.4218630">
        <ele>566.8</ele>
        <time>2022-08-28T16:28:13Z</time>
      </trkpt>
      <trkpt lat="42.3952590" lon="-8.4218940">
        <ele>567.8</ele>
        <time>2022-08-28T16:28:19Z</time>
      </trkpt>
      <trkpt lat="42.3952690" lon="-8.4219000">
        <ele>568.0</ele>
        <time>2022-08-28T16:28:20Z</time>
      </trkpt>
      <trkpt lat="42.3953440" lon="-8.4219410">
        <ele>569.0</ele>
        <time>2022-08-28T16:28:27Z</time>
      </trkpt>
      <trkpt lat="42.3953660" lon="-8.4219520">
        <ele>569.6</ele>
        <time>2022-08-28T16:28:29Z</time>
      </trkpt>
      <trkpt lat="42.3953750" lon="-8.4219610">
        <ele>570.0</ele>
        <time>2022-08-28T16:28:30Z</time>
      </trkpt>
      <trkpt lat="42.3953860" lon="-8.4219680">
        <ele>570.2</ele>
        <time>2022-08-28T16:28:31Z</time>
      </trkpt>
      <trkpt lat="42.3954510" lon="-8.4220040">
        <ele>571.4</ele>
        <time>2022-08-28T16:28:37Z</time>
      </trkpt>
      <trkpt lat="42.3954850" lon="-8.4220230">
        <ele>571.8</ele>
        <time>2022-08-28T16:28:40Z</time>
      </trkpt>
      <trkpt lat="42.3955310" lon="-8.4220480">
        <ele>572.4</ele>
        <time>2022-08-28T16:28:44Z</time>
      </trkpt>
      <trkpt lat="42.3956070" lon="-8.4220740">
        <ele>573.0</ele>
        <time>2022-08-28T16:28:50Z</time>
      </trkpt>
      <trkpt lat="42.3956190" lon="-8.4220780">
        <ele>573.2</ele>
        <time>2022-08-28T16:28:51Z</time>
      </trkpt>
      <trkpt lat="42.3956990" lon="-8.4220850">
        <ele>574.2</ele>
        <time>2022-08-28T16:28:57Z</time>
      </trkpt>
      <trkpt lat="42.3957250" lon="-8.4220840">
        <ele>574.6</ele>
        <time>2022-08-28T16:28:59Z</time>
      </trkpt>
      <trkpt lat="42.3957750" lon="-8.4220830">
        <ele>575.4</ele>
        <time>2022-08-28T16:29:02Z</time>
      </trkpt>
      <trkpt lat="42.3958790" lon="-8.4220630">
        <ele>576.0</ele>
        <time>2022-08-28T16:29:08Z</time>
      </trkpt>
      <trkpt lat="42.3959320" lon="-8.4220510">
        <ele>576.4</ele>
        <time>2022-08-28T16:29:11Z</time>
      </trkpt>
      <trkpt lat="42.3959970" lon="-8.4220140">
        <ele>577.2</ele>
        <time>2022-08-28T16:29:15Z</time>
      </trkpt>
      <trkpt lat="42.3960300" lon="-8.4219880">
        <ele>577.6</ele>
        <time>2022-08-28T16:29:17Z</time>
      </trkpt>
      <trkpt lat="42.3961190" lon="-8.4218840">
        <ele>578.2</ele>
        <time>2022-08-28T16:29:23Z</time>
      </trkpt>
      <trkpt lat="42.3961820" lon="-8.4218060">
        <ele>578.6</ele>
        <time>2022-08-28T16:29:27Z</time>
      </trkpt>
      <trkpt lat="42.3962940" lon="-8.4216610">
        <ele>579.2</ele>
        <time>2022-08-28T16:29:34Z</time>
      </trkpt>
      <trkpt lat="42.3963710" lon="-8.4215660">
        <ele>579.6</ele>
        <time>2022-08-28T16:29:39Z</time>
      </trkpt>
      <trkpt lat="42.3964390" lon="-8.4214830">
        <ele>580.6</ele>
        <time>2022-08-28T16:29:44Z</time>
      </trkpt>
      <trkpt lat="42.3964530" lon="-8.4214680">
        <ele>580.8</ele>
        <time>2022-08-28T16:29:45Z</time>
      </trkpt>
      <trkpt lat="42.3965160" lon="-8.4213890">
        <ele>581.8</ele>
        <time>2022-08-28T16:29:50Z</time>
      </trkpt>
      <trkpt lat="42.3965430" lon="-8.4213550">
        <ele>582.2</ele>
        <time>2022-08-28T16:29:52Z</time>
      </trkpt>
      <trkpt lat="42.3965940" lon="-8.4212900">
        <ele>582.8</ele>
        <time>2022-08-28T16:29:56Z</time>
      </trkpt>
      <trkpt lat="42.3966470" lon="-8.4212230">
        <ele>584.0</ele>
        <time>2022-08-28T16:30:00Z</time>
      </trkpt>
      <trkpt lat="42.3966750" lon="-8.4211940">
        <ele>584.4</ele>
        <time>2022-08-28T16:30:02Z</time>
      </trkpt>
      <trkpt lat="42.3967380" lon="-8.4211380">
        <ele>585.0</ele>
        <time>2022-08-28T16:30:06Z</time>
      </trkpt>
      <trkpt lat="42.3968160" lon="-8.4210690">
        <ele>586.0</ele>
        <time>2022-08-28T16:30:11Z</time>
      </trkpt>
      <trkpt lat="42.3969800" lon="-8.4209940">
        <ele>587.0</ele>
        <time>2022-08-28T16:30:20Z</time>
      </trkpt>
      <trkpt lat="42.3971130" lon="-8.4209720">
        <ele>588.2</ele>
        <time>2022-08-28T16:30:27Z</time>
      </trkpt>
      <trkpt lat="42.3971330" lon="-8.4209720">
        <ele>588.4</ele>
        <time>2022-08-28T16:30:28Z</time>
      </trkpt>
      <trkpt lat="42.3972740" lon="-8.4209850">
        <ele>589.2</ele>
        <time>2022-08-28T16:30:35Z</time>
      </trkpt>
      <trkpt lat="42.3973090" lon="-8.4209920">
        <ele>589.4</ele>
        <time>2022-08-28T16:30:37Z</time>
      </trkpt>
      <trkpt lat="42.3974060" lon="-8.4210290">
        <ele>590.2</ele>
        <time>2022-08-28T16:30:43Z</time>
      </trkpt>
      <trkpt lat="42.3974810" lon="-8.4210650">
        <ele>591.0</ele>
        <time>2022-08-28T16:30:48Z</time>
      </trkpt>
      <trkpt lat="42.3975090" lon="-8.4210830">
        <ele>591.4</ele>
        <time>2022-08-28T16:30:50Z</time>
      </trkpt>
      <trkpt lat="42.3975820" lon="-8.4211460">
        <ele>592.6</ele>
        <time>2022-08-28T16:30:56Z</time>
      </trkpt>
      <trkpt lat="42.3976050" lon="-8.4211700">
        <ele>593.4</ele>
        <time>2022-08-28T16:30:58Z</time>
      </trkpt>
      <trkpt lat="42.3976160" lon="-8.4211820">
        <ele>593.6</ele>
        <time>2022-08-28T16:30:59Z</time>
      </trkpt>
      <trkpt lat="42.3976780" lon="-8.4212590">
        <ele>594.6</ele>
        <time>2022-08-28T16:31:05Z</time>
      </trkpt>
      <trkpt lat="42.3976890" lon="-8.4212720">
        <ele>594.8</ele>
        <time>2022-08-28T16:31:06Z</time>
      </trkpt>
      <trkpt lat="42.3977560" lon="-8.4213700">
        <ele>595.8</ele>
        <time>2022-08-28T16:31:13Z</time>
      </trkpt>
      <trkpt lat="42.3977800" lon="-8.4214210">
        <ele>596.2</ele>
        <time>2022-08-28T16:31:16Z</time>
      </trkpt>
      <trkpt lat="42.3978160" lon="-8.4214960">
        <ele>596.8</ele>
        <time>2022-08-28T16:31:20Z</time>
      </trkpt>
      <trkpt lat="42.3978430" lon="-8.4215840">
        <ele>597.4</ele>
        <time>2022-08-28T16:31:24Z</time>
      </trkpt>
      <trkpt lat="42.3978680" lon="-8.4216480">
        <ele>598.0</ele>
        <time>2022-08-28T16:31:27Z</time>
      </trkpt>
      <trkpt lat="42.3979290" lon="-8.4218290">
        <ele>598.8</ele>
        <time>2022-08-28T16:31:35Z</time>
      </trkpt>
      <trkpt lat="42.3979350" lon="-8.4218530">
        <ele>599.0</ele>
        <time>2022-08-28T16:31:36Z</time>
      </trkpt>
      <trkpt lat="42.3979820" lon="-8.4220250">
        <ele>600.0</ele>
        <time>2022-08-28T16:31:43Z</time>
      </trkpt>
      <trkpt lat="42.3979890" lon="-8.4220510">
        <ele>600.2</ele>
        <time>2022-08-28T16:31:44Z</time>
      </trkpt>
      <trkpt lat="42.3980560" lon="-8.4223290">
        <ele>601.2</ele>
        <time>2022-08-28T16:31:54Z</time>
      </trkpt>
      <trkpt lat="42.3980730" lon="-8.4223840">
        <ele>601.6</ele>
        <time>2022-08-28T16:31:56Z</time>
      </trkpt>
      <trkpt lat="42.3981330" lon="-8.4225060">
        <ele>602.2</ele>
        <time>2022-08-28T16:32:01Z</time>
      </trkpt>
      <trkpt lat="42.3981640" lon="-8.4225500">
        <ele>602.4</ele>
        <time>2022-08-28T16:32:03Z</time>
      </trkpt>
      <trkpt lat="42.3982900" lon="-8.4226980">
        <ele>603.2</ele>
        <time>2022-08-28T16:32:10Z</time>
      </trkpt>
      <trkpt lat="42.3983290" lon="-8.4227400">
        <ele>603.6</ele>
        <time>2022-08-28T16:32:12Z</time>
      </trkpt>
      <trkpt lat="42.3984240" lon="-8.4228540">
        <ele>604.2</ele>
        <time>2022-08-28T16:32:17Z</time>
      </trkpt>
      <trkpt lat="42.3985410" lon="-8.4230230">
        <ele>604.6</ele>
        <time>2022-08-28T16:32:24Z</time>
      </trkpt>
      <trkpt lat="42.3986280" lon="-8.4231770">
        <ele>605.2</ele>
        <time>2022-08-28T16:32:30Z</time>
      </trkpt>
      <trkpt lat="42.3986530" lon="-8.4232330">
        <ele>605.6</ele>
        <time>2022-08-28T16:32:32Z</time>
      </trkpt>
      <trkpt lat="42.3987170" lon="-8.4234100">
        <ele>606.4</ele>
        <time>2022-08-28T16:32:38Z</time>
      </trkpt>
      <trkpt lat="42.3987450" lon="-8.4235010">
        <ele>606.8</ele>
        <time>2022-08-28T16:32:41Z</time>
      </trkpt>
      <trkpt lat="42.3987810" lon="-8.4236230">
        <ele>607.4</ele>
        <time>2022-08-28T16:32:45Z</time>
      </trkpt>
      <trkpt lat="42.3988430" lon="-8.4238450">
        <ele>608.6</ele>
        <time>2022-08-28T16:32:52Z</time>
      </trkpt>
      <trkpt lat="42.3988510" lon="-8.4238760">
        <ele>608.6</ele>
        <time>2022-08-28T16:32:53Z</time>
      </trkpt>
      <trkpt lat="42.3988890" lon="-8.4240310">
        <ele>609.6</ele>
        <time>2022-08-28T16:32:58Z</time>
      </trkpt>
      <trkpt lat="42.3989470" lon="-8.4242560">
        <ele>610.4</ele>
        <time>2022-08-28T16:33:05Z</time>
      </trkpt>
      <trkpt lat="42.3989550" lon="-8.4242890">
        <ele>610.6</ele>
        <time>2022-08-28T16:33:06Z</time>
      </trkpt>
      <trkpt lat="42.3990280" lon="-8.4245780">
        <ele>611.2</ele>
        <time>2022-08-28T16:33:14Z</time>
      </trkpt>
      <trkpt lat="42.3991110" lon="-8.4248430">
        <ele>611.2</ele>
        <time>2022-08-28T16:33:20Z</time>
      </trkpt>
      <trkpt lat="42.3992550" lon="-8.4251280">
        <ele>611.0</ele>
        <time>2022-08-28T16:33:25Z</time>
      </trkpt>
      <trkpt lat="42.3992980" lon="-8.4251860">
        <ele>610.8</ele>
        <time>2022-08-28T16:33:26Z</time>
      </trkpt>
      <trkpt lat="42.3994580" lon="-8.4253360">
        <ele>610.2</ele>
        <time>2022-08-28T16:33:29Z</time>
      </trkpt>
      <trkpt lat="42.3995190" lon="-8.4253790">
        <ele>610.0</ele>
        <time>2022-08-28T16:33:30Z</time>
      </trkpt>
      <trkpt lat="42.3996460" lon="-8.4254600">
        <ele>609.4</ele>
        <time>2022-08-28T16:33:32Z</time>
      </trkpt>
      <trkpt lat="42.3998460" lon="-8.4255920">
        <ele>608.4</ele>
        <time>2022-08-28T16:33:35Z</time>
      </trkpt>
      <trkpt lat="42.3999150" lon="-8.4256380">
        <ele>608.0</ele>
        <time>2022-08-28T16:33:36Z</time>
      </trkpt>
      <trkpt lat="42.4000640" lon="-8.4257320">
        <ele>607.2</ele>
        <time>2022-08-28T16:33:38Z</time>
      </trkpt>
      <trkpt lat="42.4003050" lon="-8.4258890">
        <ele>606.0</ele>
        <time>2022-08-28T16:33:41Z</time>
      </trkpt>
      <trkpt lat="42.4003880" lon="-8.4259450">
        <ele>605.6</ele>
        <time>2022-08-28T16:33:42Z</time>
      </trkpt>
      <trkpt lat="42.4005570" lon="-8.4260600">
        <ele>604.8</ele>
        <time>2022-08-28T16:33:44Z</time>
      </trkpt>
      <trkpt lat="42.4007340" lon="-8.4261670">
        <ele>603.8</ele>
        <time>2022-08-28T16:33:46Z</time>
      </trkpt>
      <trkpt lat="42.4008290" lon="-8.4262140">
        <ele>603.2</ele>
        <time>2022-08-28T16:33:47Z</time>
      </trkpt>
      <trkpt lat="42.4009280" lon="-8.4262520">
        <ele>602.8</ele>
        <time>2022-08-28T16:33:48Z</time>
      </trkpt>
      <trkpt lat="42.4011390" lon="-8.4263020">
        <ele>601.4</ele>
        <time>2022-08-28T16:33:50Z</time>
      </trkpt>
      <trkpt lat="42.4013550" lon="-8.4263230">
        <ele>600.0</ele>
        <time>2022-08-28T16:33:52Z</time>
      </trkpt>
      <trkpt lat="42.4014570" lon="-8.4263280">
        <ele>598.4</ele>
        <time>2022-08-28T16:33:53Z</time>
      </trkpt>
      <trkpt lat="42.4016450" lon="-8.4263480">
        <ele>596.8</ele>
        <time>2022-08-28T16:33:55Z</time>
      </trkpt>
      <trkpt lat="42.4017320" lon="-8.4263790">
        <ele>596.0</ele>
        <time>2022-08-28T16:33:56Z</time>
      </trkpt>
      <trkpt lat="42.4018130" lon="-8.4264300">
        <ele>595.2</ele>
        <time>2022-08-28T16:33:57Z</time>
      </trkpt>
      <trkpt lat="42.4018870" lon="-8.4264990">
        <ele>594.2</ele>
        <time>2022-08-28T16:33:58Z</time>
      </trkpt>
      <trkpt lat="42.4019480" lon="-8.4265810">
        <ele>593.4</ele>
        <time>2022-08-28T16:33:59Z</time>
      </trkpt>
      <trkpt lat="42.4019940" lon="-8.4266750">
        <ele>592.6</ele>
        <time>2022-08-28T16:34:00Z</time>
      </trkpt>
      <trkpt lat="42.4020370" lon="-8.4268890">
        <ele>590.8</ele>
        <time>2022-08-28T16:34:02Z</time>
      </trkpt>
      <trkpt lat="42.4020230" lon="-8.4271240">
        <ele>589.2</ele>
        <time>2022-08-28T16:34:04Z</time>
      </trkpt>
      <trkpt lat="42.4019910" lon="-8.4272430">
        <ele>588.6</ele>
        <time>2022-08-28T16:34:05Z</time>
      </trkpt>
      <trkpt lat="42.4019400" lon="-8.4273600">
        <ele>588.0</ele>
        <time>2022-08-28T16:34:06Z</time>
      </trkpt>
      <trkpt lat="42.4017980" lon="-8.4275750">
        <ele>587.0</ele>
        <time>2022-08-28T16:34:08Z</time>
      </trkpt>
      <trkpt lat="42.4017180" lon="-8.4276750">
        <ele>586.2</ele>
        <time>2022-08-28T16:34:09Z</time>
      </trkpt>
      <trkpt lat="42.4016390" lon="-8.4277730">
        <ele>585.4</ele>
        <time>2022-08-28T16:34:10Z</time>
      </trkpt>
      <trkpt lat="42.4014840" lon="-8.4279710">
        <ele>583.6</ele>
        <time>2022-08-28T16:34:12Z</time>
      </trkpt>
      <trkpt lat="42.4013410" lon="-8.4282000">
        <ele>581.8</ele>
        <time>2022-08-28T16:34:14Z</time>
      </trkpt>
      <trkpt lat="42.4012880" lon="-8.4283280">
        <ele>580.8</ele>
        <time>2022-08-28T16:34:15Z</time>
      </trkpt>
      <trkpt lat="42.4012440" lon="-8.4284610">
        <ele>579.6</ele>
        <time>2022-08-28T16:34:16Z</time>
      </trkpt>
      <trkpt lat="42.4012040" lon="-8.4285860">
        <ele>578.4</ele>
        <time>2022-08-28T16:34:17Z</time>
      </trkpt>
      <trkpt lat="42.4011680" lon="-8.4286940">
        <ele>577.6</ele>
        <time>2022-08-28T16:34:18Z</time>
      </trkpt>
      <trkpt lat="42.4011340" lon="-8.4287860">
        <ele>576.4</ele>
        <time>2022-08-28T16:34:19Z</time>
      </trkpt>
      <trkpt lat="42.4011020" lon="-8.4288670">
        <ele>575.4</ele>
        <time>2022-08-28T16:34:20Z</time>
      </trkpt>
      <trkpt lat="42.4010710" lon="-8.4289380">
        <ele>574.2</ele>
        <time>2022-08-28T16:34:21Z</time>
      </trkpt>
      <trkpt lat="42.4010360" lon="-8.4290040">
        <ele>571.6</ele>
        <time>2022-08-28T16:34:22Z</time>
      </trkpt>
      <trkpt lat="42.4009580" lon="-8.4291400">
        <ele>569.8</ele>
        <time>2022-08-28T16:34:24Z</time>
      </trkpt>
      <trkpt lat="42.4009210" lon="-8.4292080">
        <ele>568.6</ele>
        <time>2022-08-28T16:34:25Z</time>
      </trkpt>
      <trkpt lat="42.4008490" lon="-8.4293380">
        <ele>566.8</ele>
        <time>2022-08-28T16:34:27Z</time>
      </trkpt>
      <trkpt lat="42.4007750" lon="-8.4294720">
        <ele>565.2</ele>
        <time>2022-08-28T16:34:29Z</time>
      </trkpt>
      <trkpt lat="42.4007370" lon="-8.4295530">
        <ele>564.4</ele>
        <time>2022-08-28T16:34:30Z</time>
      </trkpt>
      <trkpt lat="42.4006960" lon="-8.4296470">
        <ele>563.6</ele>
        <time>2022-08-28T16:34:31Z</time>
      </trkpt>
      <trkpt lat="42.4005960" lon="-8.4298560">
        <ele>562.0</ele>
        <time>2022-08-28T16:34:33Z</time>
      </trkpt>
      <trkpt lat="42.4005410" lon="-8.4299650">
        <ele>561.2</ele>
        <time>2022-08-28T16:34:34Z</time>
      </trkpt>
      <trkpt lat="42.4004850" lon="-8.4300750">
        <ele>560.2</ele>
        <time>2022-08-28T16:34:35Z</time>
      </trkpt>
      <trkpt lat="42.4003640" lon="-8.4303140">
        <ele>558.4</ele>
        <time>2022-08-28T16:34:37Z</time>
      </trkpt>
      <trkpt lat="42.4002460" lon="-8.4305510">
        <ele>556.6</ele>
        <time>2022-08-28T16:34:39Z</time>
      </trkpt>
      <trkpt lat="42.4001300" lon="-8.4307780">
        <ele>554.6</ele>
        <time>2022-08-28T16:34:41Z</time>
      </trkpt>
      <trkpt lat="42.4000680" lon="-8.4308950">
        <ele>553.2</ele>
        <time>2022-08-28T16:34:42Z</time>
      </trkpt>
      <trkpt lat="42.4000080" lon="-8.4310130">
        <ele>551.8</ele>
        <time>2022-08-28T16:34:43Z</time>
      </trkpt>
      <trkpt lat="42.3999500" lon="-8.4311260">
        <ele>550.4</ele>
        <time>2022-08-28T16:34:44Z</time>
      </trkpt>
      <trkpt lat="42.3998940" lon="-8.4312370">
        <ele>549.0</ele>
        <time>2022-08-28T16:34:45Z</time>
      </trkpt>
      <trkpt lat="42.3998420" lon="-8.4313450">
        <ele>547.2</ele>
        <time>2022-08-28T16:34:46Z</time>
      </trkpt>
      <trkpt lat="42.3997900" lon="-8.4314520">
        <ele>545.4</ele>
        <time>2022-08-28T16:34:47Z</time>
      </trkpt>
      <trkpt lat="42.3997380" lon="-8.4315540">
        <ele>543.8</ele>
        <time>2022-08-28T16:34:48Z</time>
      </trkpt>
      <trkpt lat="42.3996840" lon="-8.4316510">
        <ele>542.0</ele>
        <time>2022-08-28T16:34:49Z</time>
      </trkpt>
      <trkpt lat="42.3996240" lon="-8.4317420">
        <ele>540.8</ele>
        <time>2022-08-28T16:34:50Z</time>
      </trkpt>
      <trkpt lat="42.3995530" lon="-8.4318260">
        <ele>537.6</ele>
        <time>2022-08-28T16:34:51Z</time>
      </trkpt>
      <trkpt lat="42.3994670" lon="-8.4318970">
        <ele>536.0</ele>
        <time>2022-08-28T16:34:52Z</time>
      </trkpt>
      <trkpt lat="42.3993730" lon="-8.4319500">
        <ele>534.2</ele>
        <time>2022-08-28T16:34:53Z</time>
      </trkpt>
      <trkpt lat="42.3992790" lon="-8.4319920">
        <ele>532.6</ele>
        <time>2022-08-28T16:34:54Z</time>
      </trkpt>
      <trkpt lat="42.3991910" lon="-8.4320290">
        <ele>531.0</ele>
        <time>2022-08-28T16:34:55Z</time>
      </trkpt>
      <trkpt lat="42.3991130" lon="-8.4320700">
        <ele>529.4</ele>
        <time>2022-08-28T16:34:56Z</time>
      </trkpt>
      <trkpt lat="42.3990490" lon="-8.4321330">
        <ele>527.8</ele>
        <time>2022-08-28T16:34:57Z</time>
      </trkpt>
      <trkpt lat="42.3990000" lon="-8.4322240">
        <ele>526.4</ele>
        <time>2022-08-28T16:34:58Z</time>
      </trkpt>
      <trkpt lat="42.3989720" lon="-8.4323370">
        <ele>525.0</ele>
        <time>2022-08-28T16:34:59Z</time>
      </trkpt>
      <trkpt lat="42.3989580" lon="-8.4324610">
        <ele>523.4</ele>
        <time>2022-08-28T16:35:00Z</time>
      </trkpt>
      <trkpt lat="42.3989480" lon="-8.4325880">
        <ele>521.6</ele>
        <time>2022-08-28T16:35:01Z</time>
      </trkpt>
      <trkpt lat="42.3989390" lon="-8.4327110">
        <ele>520.2</ele>
        <time>2022-08-28T16:35:02Z</time>
      </trkpt>
      <trkpt lat="42.3989310" lon="-8.4328290">
        <ele>518.8</ele>
        <time>2022-08-28T16:35:03Z</time>
      </trkpt>
      <trkpt lat="42.3989230" lon="-8.4329410">
        <ele>517.6</ele>
        <time>2022-08-28T16:35:04Z</time>
      </trkpt>
      <trkpt lat="42.3989080" lon="-8.4330470">
        <ele>516.6</ele>
        <time>2022-08-28T16:35:05Z</time>
      </trkpt>
      <trkpt lat="42.3988340" lon="-8.4332490">
        <ele>514.8</ele>
        <time>2022-08-28T16:35:07Z</time>
      </trkpt>
      <trkpt lat="42.3986840" lon="-8.4334320">
        <ele>513.0</ele>
        <time>2022-08-28T16:35:09Z</time>
      </trkpt>
      <trkpt lat="42.3985920" lon="-8.4335190">
        <ele>512.0</ele>
        <time>2022-08-28T16:35:10Z</time>
      </trkpt>
      <trkpt lat="42.3985070" lon="-8.4336220">
        <ele>510.8</ele>
        <time>2022-08-28T16:35:11Z</time>
      </trkpt>
      <trkpt lat="42.3984410" lon="-8.4337530">
        <ele>509.8</ele>
        <time>2022-08-28T16:35:12Z</time>
      </trkpt>
      <trkpt lat="42.3983880" lon="-8.4338990">
        <ele>508.8</ele>
        <time>2022-08-28T16:35:13Z</time>
      </trkpt>
      <trkpt lat="42.3983350" lon="-8.4340480">
        <ele>507.6</ele>
        <time>2022-08-28T16:35:14Z</time>
      </trkpt>
      <trkpt lat="42.3982830" lon="-8.4341960">
        <ele>506.4</ele>
        <time>2022-08-28T16:35:15Z</time>
      </trkpt>
      <trkpt lat="42.3982310" lon="-8.4343450">
        <ele>505.0</ele>
        <time>2022-08-28T16:35:16Z</time>
      </trkpt>
      <trkpt lat="42.3981770" lon="-8.4344840">
        <ele>503.6</ele>
        <time>2022-08-28T16:35:17Z</time>
      </trkpt>
      <trkpt lat="42.3981310" lon="-8.4346130">
        <ele>502.2</ele>
        <time>2022-08-28T16:35:18Z</time>
      </trkpt>
      <trkpt lat="42.3980950" lon="-8.4347340">
        <ele>500.8</ele>
        <time>2022-08-28T16:35:19Z</time>
      </trkpt>
      <trkpt lat="42.3980730" lon="-8.4348550">
        <ele>499.0</ele>
        <time>2022-08-28T16:35:20Z</time>
      </trkpt>
      <trkpt lat="42.3980720" lon="-8.4349850">
        <ele>495.8</ele>
        <time>2022-08-28T16:35:21Z</time>
      </trkpt>
      <trkpt lat="42.3980870" lon="-8.4351190">
        <ele>494.8</ele>
        <time>2022-08-28T16:35:22Z</time>
      </trkpt>
      <trkpt lat="42.3981080" lon="-8.4352530">
        <ele>493.8</ele>
        <time>2022-08-28T16:35:23Z</time>
      </trkpt>
      <trkpt lat="42.3981310" lon="-8.4353840">
        <ele>493.0</ele>
        <time>2022-08-28T16:35:24Z</time>
      </trkpt>
      <trkpt lat="42.3981670" lon="-8.4356130">
        <ele>491.6</ele>
        <time>2022-08-28T16:35:26Z</time>
      </trkpt>
      <trkpt lat="42.3981760" lon="-8.4357090">
        <ele>491.0</ele>
        <time>2022-08-28T16:35:27Z</time>
      </trkpt>
      <trkpt lat="42.3981760" lon="-8.4358000">
        <ele>490.4</ele>
        <time>2022-08-28T16:35:28Z</time>
      </trkpt>
      <trkpt lat="42.3981350" lon="-8.4359770">
        <ele>488.4</ele>
        <time>2022-08-28T16:35:30Z</time>
      </trkpt>
      <trkpt lat="42.3980970" lon="-8.4360630">
        <ele>487.2</ele>
        <time>2022-08-28T16:35:31Z</time>
      </trkpt>
      <trkpt lat="42.3980490" lon="-8.4361460">
        <ele>486.0</ele>
        <time>2022-08-28T16:35:32Z</time>
      </trkpt>
      <trkpt lat="42.3979910" lon="-8.4362320">
        <ele>484.6</ele>
        <time>2022-08-28T16:35:33Z</time>
      </trkpt>
      <trkpt lat="42.3979260" lon="-8.4363190">
        <ele>483.2</ele>
        <time>2022-08-28T16:35:34Z</time>
      </trkpt>
      <trkpt lat="42.3978530" lon="-8.4363980">
        <ele>482.0</ele>
        <time>2022-08-28T16:35:35Z</time>
      </trkpt>
      <trkpt lat="42.3977760" lon="-8.4364640">
        <ele>481.0</ele>
        <time>2022-08-28T16:35:36Z</time>
      </trkpt>
      <trkpt lat="42.3977050" lon="-8.4365170">
        <ele>480.0</ele>
        <time>2022-08-28T16:35:37Z</time>
      </trkpt>
      <trkpt lat="42.3976460" lon="-8.4365540">
        <ele>478.8</ele>
        <time>2022-08-28T16:35:38Z</time>
      </trkpt>
      <trkpt lat="42.3975980" lon="-8.4365870">
        <ele>477.6</ele>
        <time>2022-08-28T16:35:39Z</time>
      </trkpt>
      <trkpt lat="42.3975500" lon="-8.4366140">
        <ele>476.6</ele>
        <time>2022-08-28T16:35:40Z</time>
      </trkpt>
      <trkpt lat="42.3975000" lon="-8.4366450">
        <ele>475.4</ele>
        <time>2022-08-28T16:35:41Z</time>
      </trkpt>
      <trkpt lat="42.3974540" lon="-8.4366820">
        <ele>474.2</ele>
        <time>2022-08-28T16:35:42Z</time>
      </trkpt>
      <trkpt lat="42.3973720" lon="-8.4367780">
        <ele>472.8</ele>
        <time>2022-08-28T16:35:44Z</time>
      </trkpt>
      <trkpt lat="42.3973340" lon="-8.4368310">
        <ele>472.4</ele>
        <time>2022-08-28T16:35:45Z</time>
      </trkpt>
      <trkpt lat="42.3971840" lon="-8.4370660">
        <ele>471.8</ele>
        <time>2022-08-28T16:35:49Z</time>
      </trkpt>
      <trkpt lat="42.3971120" lon="-8.4371910">
        <ele>471.4</ele>
        <time>2022-08-28T16:35:51Z</time>
      </trkpt>
      <trkpt lat="42.3968520" lon="-8.4376160">
        <ele>470.6</ele>
        <time>2022-08-28T16:35:58Z</time>
      </trkpt>
      <trkpt lat="42.3966610" lon="-8.4380010">
        <ele>469.4</ele>
        <time>2022-08-28T16:36:03Z</time>
      </trkpt>
      <trkpt lat="42.3965270" lon="-8.4382550">
        <ele>468.2</ele>
        <time>2022-08-28T16:36:06Z</time>
      </trkpt>
      <trkpt lat="42.3964510" lon="-8.4384370">
        <ele>467.2</ele>
        <time>2022-08-28T16:36:08Z</time>
      </trkpt>
      <trkpt lat="42.3964160" lon="-8.4385300">
        <ele>466.6</ele>
        <time>2022-08-28T16:36:09Z</time>
      </trkpt>
      <trkpt lat="42.3963800" lon="-8.4386280">
        <ele>466.0</ele>
        <time>2022-08-28T16:36:10Z</time>
      </trkpt>
      <trkpt lat="42.3962580" lon="-8.4389420">
        <ele>464.8</ele>
        <time>2022-08-28T16:36:13Z</time>
      </trkpt>
      <trkpt lat="42.3962160" lon="-8.4390500">
        <ele>464.4</ele>
        <time>2022-08-28T16:36:14Z</time>
      </trkpt>
      <trkpt lat="42.3961470" lon="-8.4392560">
        <ele>463.6</ele>
        <time>2022-08-28T16:36:16Z</time>
      </trkpt>
      <trkpt lat="42.3960380" lon="-8.4395410">
        <ele>462.2</ele>
        <time>2022-08-28T16:36:19Z</time>
      </trkpt>
      <trkpt lat="42.3959900" lon="-8.4396270">
        <ele>460.8</ele>
        <time>2022-08-28T16:36:20Z</time>
      </trkpt>
      <trkpt lat="42.3958890" lon="-8.4397810">
        <ele>459.4</ele>
        <time>2022-08-28T16:36:22Z</time>
      </trkpt>
      <trkpt lat="42.3958360" lon="-8.4398470">
        <ele>458.6</ele>
        <time>2022-08-28T16:36:23Z</time>
      </trkpt>
      <trkpt lat="42.3957860" lon="-8.4399070">
        <ele>457.8</ele>
        <time>2022-08-28T16:36:24Z</time>
      </trkpt>
      <trkpt lat="42.3957000" lon="-8.4400130">
        <ele>456.0</ele>
        <time>2022-08-28T16:36:26Z</time>
      </trkpt>
      <trkpt lat="42.3956690" lon="-8.4400640">
        <ele>455.2</ele>
        <time>2022-08-28T16:36:27Z</time>
      </trkpt>
      <trkpt lat="42.3956510" lon="-8.4401140">
        <ele>454.4</ele>
        <time>2022-08-28T16:36:28Z</time>
      </trkpt>
      <trkpt lat="42.3956700" lon="-8.4402060">
        <ele>453.0</ele>
        <time>2022-08-28T16:36:30Z</time>
      </trkpt>
      <trkpt lat="42.3957730" lon="-8.4402710">
        <ele>451.8</ele>
        <time>2022-08-28T16:36:32Z</time>
      </trkpt>
      <trkpt lat="42.3958450" lon="-8.4402980">
        <ele>451.0</ele>
        <time>2022-08-28T16:36:33Z</time>
      </trkpt>
      <trkpt lat="42.3959240" lon="-8.4403290">
        <ele>450.4</ele>
        <time>2022-08-28T16:36:34Z</time>
      </trkpt>
      <trkpt lat="42.3960900" lon="-8.4403980">
        <ele>449.2</ele>
        <time>2022-08-28T16:36:36Z</time>
      </trkpt>
      <trkpt lat="42.3961650" lon="-8.4404270">
        <ele>448.6</ele>
        <time>2022-08-28T16:36:37Z</time>
      </trkpt>
      <trkpt lat="42.3962250" lon="-8.4404520">
        <ele>447.8</ele>
        <time>2022-08-28T16:36:38Z</time>
      </trkpt>
      <trkpt lat="42.3963270" lon="-8.4405000">
        <ele>446.2</ele>
        <time>2022-08-28T16:36:40Z</time>
      </trkpt>
      <trkpt lat="42.3963740" lon="-8.4405240">
        <ele>445.4</ele>
        <time>2022-08-28T16:36:41Z</time>
      </trkpt>
      <trkpt lat="42.3964210" lon="-8.4405490">
        <ele>444.6</ele>
        <time>2022-08-28T16:36:42Z</time>
      </trkpt>
      <trkpt lat="42.3965120" lon="-8.4405970">
        <ele>443.0</ele>
        <time>2022-08-28T16:36:44Z</time>
      </trkpt>
      <trkpt lat="42.3966050" lon="-8.4406480">
        <ele>441.8</ele>
        <time>2022-08-28T16:36:46Z</time>
      </trkpt>
      <trkpt lat="42.3968420" lon="-8.4407840">
        <ele>441.0</ele>
        <time>2022-08-28T16:36:51Z</time>
      </trkpt>
      <trkpt lat="42.3970640" lon="-8.4409180">
        <ele>440.8</ele>
        <time>2022-08-28T16:36:55Z</time>
      </trkpt>
      <trkpt lat="42.3971920" lon="-8.4409960">
        <ele>440.6</ele>
        <time>2022-08-28T16:36:57Z</time>
      </trkpt>
      <trkpt lat="42.3974680" lon="-8.4411470">
        <ele>439.6</ele>
        <time>2022-08-28T16:37:01Z</time>
      </trkpt>
      <trkpt lat="42.3975210" lon="-8.4411800">
        <ele>439.4</ele>
        <time>2022-08-28T16:37:02Z</time>
      </trkpt>
      <trkpt lat="42.3976410" lon="-8.4412690">
        <ele>438.4</ele>
        <time>2022-08-28T16:37:05Z</time>
      </trkpt>
      <trkpt lat="42.3976700" lon="-8.4413100">
        <ele>438.0</ele>
        <time>2022-08-28T16:37:06Z</time>
      </trkpt>
      <trkpt lat="42.3976860" lon="-8.4413560">
        <ele>437.4</ele>
        <time>2022-08-28T16:37:07Z</time>
      </trkpt>
      <trkpt lat="42.3976670" lon="-8.4414630">
        <ele>436.2</ele>
        <time>2022-08-28T16:37:09Z</time>
      </trkpt>
      <trkpt lat="42.3976100" lon="-8.4415850">
        <ele>435.0</ele>
        <time>2022-08-28T16:37:11Z</time>
      </trkpt>
      <trkpt lat="42.3975450" lon="-8.4417250">
        <ele>434.4</ele>
        <time>2022-08-28T16:37:13Z</time>
      </trkpt>
      <trkpt lat="42.3974860" lon="-8.4418550">
        <ele>433.6</ele>
        <time>2022-08-28T16:37:15Z</time>
      </trkpt>
      <trkpt lat="42.3973850" lon="-8.4420470">
        <ele>432.8</ele>
        <time>2022-08-28T16:37:18Z</time>
      </trkpt>
      <trkpt lat="42.3973420" lon="-8.4420990">
        <ele>432.0</ele>
        <time>2022-08-28T16:37:19Z</time>
      </trkpt>
      <trkpt lat="42.3972450" lon="-8.4421890">
        <ele>430.8</ele>
        <time>2022-08-28T16:37:21Z</time>
      </trkpt>
      <trkpt lat="42.3972010" lon="-8.4422320">
        <ele>430.2</ele>
        <time>2022-08-28T16:37:22Z</time>
      </trkpt>
      <trkpt lat="42.3971690" lon="-8.4422760">
        <ele>429.6</ele>
        <time>2022-08-28T16:37:23Z</time>
      </trkpt>
      <trkpt lat="42.3971080" lon="-8.4423470">
        <ele>428.2</ele>
        <time>2022-08-28T16:37:25Z</time>
      </trkpt>
      <trkpt lat="42.3970780" lon="-8.4423660">
        <ele>427.6</ele>
        <time>2022-08-28T16:37:26Z</time>
      </trkpt>
      <trkpt lat="42.3970520" lon="-8.4423730">
        <ele>427.0</ele>
        <time>2022-08-28T16:37:27Z</time>
      </trkpt>
      <trkpt lat="42.3969930" lon="-8.4423770">
        <ele>425.6</ele>
        <time>2022-08-28T16:37:30Z</time>
      </trkpt>
      <trkpt lat="42.3969750" lon="-8.4423600">
        <ele>425.2</ele>
        <time>2022-08-28T16:37:31Z</time>
      </trkpt>
      <trkpt lat="42.3969790" lon="-8.4422760">
        <ele>424.6</ele>
        <time>2022-08-28T16:37:35Z</time>
      </trkpt>
      <trkpt lat="42.3970530" lon="-8.4423160">
        <ele>424.6</ele>
        <time>2022-08-28T16:37:39Z</time>
      </trkpt>
      <trkpt lat="42.3972320" lon="-8.4424600">
        <ele>424.8</ele>
        <time>2022-08-28T16:37:46Z</time>
      </trkpt>
      <trkpt lat="42.3975890" lon="-8.4427170">
        <ele>425.0</ele>
        <time>2022-08-28T16:37:57Z</time>
      </trkpt>
      <trkpt lat="42.3977220" lon="-8.4427600">
        <ele>424.8</ele>
        <time>2022-08-28T16:38:01Z</time>
      </trkpt>
      <trkpt lat="42.3977540" lon="-8.4427380">
        <ele>424.8</ele>
        <time>2022-08-28T16:38:02Z</time>
      </trkpt>
      <trkpt lat="42.3978040" lon="-8.4426620">
        <ele>424.8</ele>
        <time>2022-08-28T16:38:04Z</time>
      </trkpt>
      <trkpt lat="42.3979080" lon="-8.4424580">
        <ele>424.8</ele>
        <time>2022-08-28T16:38:10Z</time>
      </trkpt>
      <trkpt lat="42.3979820" lon="-8.4422630">
        <ele>426.0</ele>
        <time>2022-08-28T16:38:18Z</time>
      </trkpt>
      <trkpt lat="42.3980240" lon="-8.4421330">
        <ele>427.0</ele>
        <time>2022-08-28T16:38:24Z</time>
      </trkpt>
      <trkpt lat="42.3980420" lon="-8.4420960">
        <ele>427.2</ele>
        <time>2022-08-28T16:38:26Z</time>
      </trkpt>
      <trkpt lat="42.3981050" lon="-8.4419960">
        <ele>428.2</ele>
        <time>2022-08-28T16:38:32Z</time>
      </trkpt>
      <trkpt lat="42.3981180" lon="-8.4419860">
        <ele>428.4</ele>
        <time>2022-08-28T16:38:33Z</time>
      </trkpt>
      <trkpt lat="42.3981650" lon="-8.4419520">
        <ele>429.0</ele>
        <time>2022-08-28T16:38:37Z</time>
      </trkpt>
      <trkpt lat="42.3981810" lon="-8.4419230">
        <ele>429.2</ele>
        <time>2022-08-28T16:38:39Z</time>
      </trkpt>
      <trkpt lat="42.3981920" lon="-8.4419050">
        <ele>429.6</ele>
        <time>2022-08-28T16:38:42Z</time>
      </trkpt>
      <trkpt lat="42.3981810" lon="-8.4418080">
        <ele>431.0</ele>
        <time>2022-08-28T17:15:26Z</time>
      </trkpt>
      <trkpt lat="42.3981940" lon="-8.4418080">
        <ele>431.0</ele>
        <time>2022-08-28T17:15:27Z</time>
      </trkpt>
      <trkpt lat="42.3982370" lon="-8.4418240">
        <ele>431.4</ele>
        <time>2022-08-28T17:15:30Z</time>
      </trkpt>
      <trkpt lat="42.3983110" lon="-8.4418600">
        <ele>431.8</ele>
        <time>2022-08-28T17:15:35Z</time>
      </trkpt>
      <trkpt lat="42.3983360" lon="-8.4418900">
        <ele>432.0</ele>
        <time>2022-08-28T17:15:37Z</time>
      </trkpt>
      <trkpt lat="42.3983750" lon="-8.4419250">
        <ele>432.2</ele>
        <time>2022-08-28T17:15:40Z</time>
      </trkpt>
      <trkpt lat="42.3985240" lon="-8.4420280">
        <ele>432.6</ele>
        <time>2022-08-28T17:15:47Z</time>
      </trkpt>
      <trkpt lat="42.3987270" lon="-8.4421500">
        <ele>432.6</ele>
        <time>2022-08-28T17:15:51Z</time>
      </trkpt>
      <trkpt lat="42.3987860" lon="-8.4421970">
        <ele>432.6</ele>
        <time>2022-08-28T17:15:52Z</time>
      </trkpt>
      <trkpt lat="42.3988840" lon="-8.4423200">
        <ele>432.4</ele>
        <time>2022-08-28T17:15:54Z</time>
      </trkpt>
      <trkpt lat="42.3989770" lon="-8.4424470">
        <ele>432.0</ele>
        <time>2022-08-28T17:15:56Z</time>
      </trkpt>
      <trkpt lat="42.3990910" lon="-8.4425300">
        <ele>431.2</ele>
        <time>2022-08-28T17:15:58Z</time>
      </trkpt>
      <trkpt lat="42.3991570" lon="-8.4425500">
        <ele>430.2</ele>
        <time>2022-08-28T17:15:59Z</time>
      </trkpt>
      <trkpt lat="42.3992870" lon="-8.4425520">
        <ele>429.4</ele>
        <time>2022-08-28T17:16:01Z</time>
      </trkpt>
      <trkpt lat="42.3993500" lon="-8.4425410">
        <ele>429.0</ele>
        <time>2022-08-28T17:16:02Z</time>
      </trkpt>
      <trkpt lat="42.3995220" lon="-8.4424700">
        <ele>428.6</ele>
        <time>2022-08-28T17:16:05Z</time>
      </trkpt>
      <trkpt lat="42.3995750" lon="-8.4424380">
        <ele>428.6</ele>
        <time>2022-08-28T17:16:06Z</time>
      </trkpt>
      <trkpt lat="42.3996760" lon="-8.4423590">
        <ele>428.6</ele>
        <time>2022-08-28T17:16:08Z</time>
      </trkpt>
      <trkpt lat="42.3998220" lon="-8.4422030">
        <ele>428.4</ele>
        <time>2022-08-28T17:16:11Z</time>
      </trkpt>
      <trkpt lat="42.4001390" lon="-8.4419310">
        <ele>428.2</ele>
        <time>2022-08-28T17:16:16Z</time>
      </trkpt>
      <trkpt lat="42.4003110" lon="-8.4418490">
        <ele>428.0</ele>
        <time>2022-08-28T17:16:18Z</time>
      </trkpt>
      <trkpt lat="42.4005990" lon="-8.4416890">
        <ele>427.2</ele>
        <time>2022-08-28T17:16:21Z</time>
      </trkpt>
      <trkpt lat="42.4006870" lon="-8.4416180">
        <ele>426.8</ele>
        <time>2022-08-28T17:16:22Z</time>
      </trkpt>
      <trkpt lat="42.4008540" lon="-8.4414470">
        <ele>425.6</ele>
        <time>2022-08-28T17:16:24Z</time>
      </trkpt>
      <trkpt lat="42.4009330" lon="-8.4413460">
        <ele>425.0</ele>
        <time>2022-08-28T17:16:25Z</time>
      </trkpt>
      <trkpt lat="42.4010080" lon="-8.4412350">
        <ele>424.2</ele>
        <time>2022-08-28T17:16:26Z</time>
      </trkpt>
      <trkpt lat="42.4011400" lon="-8.4409830">
        <ele>422.6</ele>
        <time>2022-08-28T17:16:28Z</time>
      </trkpt>
      <trkpt lat="42.4011960" lon="-8.4408470">
        <ele>421.2</ele>
        <time>2022-08-28T17:16:29Z</time>
      </trkpt>
      <trkpt lat="42.4012870" lon="-8.4405730">
        <ele>419.6</ele>
        <time>2022-08-28T17:16:31Z</time>
      </trkpt>
      <trkpt lat="42.4013660" lon="-8.4403170">
        <ele>417.8</ele>
        <time>2022-08-28T17:16:33Z</time>
      </trkpt>
      <trkpt lat="42.4014120" lon="-8.4402010">
        <ele>417.0</ele>
        <time>2022-08-28T17:16:34Z</time>
      </trkpt>
      <trkpt lat="42.4014700" lon="-8.4401010">
        <ele>416.2</ele>
        <time>2022-08-28T17:16:35Z</time>
      </trkpt>
      <trkpt lat="42.4015450" lon="-8.4400270">
        <ele>415.6</ele>
        <time>2022-08-28T17:16:36Z</time>
      </trkpt>
      <trkpt lat="42.4016280" lon="-8.4399770">
        <ele>415.0</ele>
        <time>2022-08-28T17:16:37Z</time>
      </trkpt>
      <trkpt lat="42.4018060" lon="-8.4399600">
        <ele>413.8</ele>
        <time>2022-08-28T17:16:39Z</time>
      </trkpt>
      <trkpt lat="42.4020440" lon="-8.4400800">
        <ele>413.0</ele>
        <time>2022-08-28T17:16:42Z</time>
      </trkpt>
      <trkpt lat="42.4021870" lon="-8.4401910">
        <ele>412.6</ele>
        <time>2022-08-28T17:16:44Z</time>
      </trkpt>
      <trkpt lat="42.4023790" lon="-8.4403570">
        <ele>412.0</ele>
        <time>2022-08-28T17:16:47Z</time>
      </trkpt>
      <trkpt lat="42.4025620" lon="-8.4404980">
        <ele>411.6</ele>
        <time>2022-08-28T17:16:50Z</time>
      </trkpt>
      <trkpt lat="42.4027310" lon="-8.4406440">
        <ele>411.4</ele>
        <time>2022-08-28T17:16:53Z</time>
      </trkpt>
      <trkpt lat="42.4029340" lon="-8.4408370">
        <ele>411.2</ele>
        <time>2022-08-28T17:16:57Z</time>
      </trkpt>
      <trkpt lat="42.4029770" lon="-8.4408970">
        <ele>411.2</ele>
        <time>2022-08-28T17:16:58Z</time>
      </trkpt>
      <trkpt lat="42.4030700" lon="-8.4411960">
        <ele>410.8</ele>
        <time>2022-08-28T17:17:02Z</time>
      </trkpt>
      <trkpt lat="42.4030870" lon="-8.4412780">
        <ele>410.8</ele>
        <time>2022-08-28T17:17:03Z</time>
      </trkpt>
      <trkpt lat="42.4031070" lon="-8.4413590">
        <ele>410.8</ele>
        <time>2022-08-28T17:17:04Z</time>
      </trkpt>
      <trkpt lat="42.4032160" lon="-8.4415720">
        <ele>410.4</ele>
        <time>2022-08-28T17:17:07Z</time>
      </trkpt>
      <trkpt lat="42.4033670" lon="-8.4417270">
        <ele>410.0</ele>
        <time>2022-08-28T17:17:10Z</time>
      </trkpt>
      <trkpt lat="42.4034700" lon="-8.4418240">
        <ele>409.8</ele>
        <time>2022-08-28T17:17:12Z</time>
      </trkpt>
      <trkpt lat="42.4035200" lon="-8.4418710">
        <ele>409.4</ele>
        <time>2022-08-28T17:17:13Z</time>
      </trkpt>
      <trkpt lat="42.4038580" lon="-8.4421730">
        <ele>408.4</ele>
        <time>2022-08-28T17:17:20Z</time>
      </trkpt>
      <trkpt lat="42.4041180" lon="-8.4424010">
        <ele>408.4</ele>
        <time>2022-08-28T17:17:27Z</time>
      </trkpt>
      <trkpt lat="42.4043500" lon="-8.4426070">
        <ele>409.2</ele>
        <time>2022-08-28T17:17:35Z</time>
      </trkpt>
      <trkpt lat="42.4044670" lon="-8.4427940">
        <ele>410.2</ele>
        <time>2022-08-28T17:17:41Z</time>
      </trkpt>
      <trkpt lat="42.4044820" lon="-8.4428220">
        <ele>410.4</ele>
        <time>2022-08-28T17:17:42Z</time>
      </trkpt>
      <trkpt lat="42.4045570" lon="-8.4429920">
        <ele>411.2</ele>
        <time>2022-08-28T17:17:47Z</time>
      </trkpt>
      <trkpt lat="42.4047020" lon="-8.4432860">
        <ele>411.4</ele>
        <time>2022-08-28T17:17:54Z</time>
      </trkpt>
      <trkpt lat="42.4047270" lon="-8.4433160">
        <ele>411.2</ele>
        <time>2022-08-28T17:17:55Z</time>
      </trkpt>
      <trkpt lat="42.4048800" lon="-8.4434610">
        <ele>411.4</ele>
        <time>2022-08-28T17:18:00Z</time>
      </trkpt>
      <trkpt lat="42.4052200" lon="-8.4435830">
        <ele>411.4</ele>
        <time>2022-08-28T17:18:08Z</time>
      </trkpt>
      <trkpt lat="42.4056610" lon="-8.4437230">
        <ele>410.8</ele>
        <time>2022-08-28T17:18:17Z</time>
      </trkpt>
      <trkpt lat="42.4060220" lon="-8.4439250">
        <ele>410.2</ele>
        <time>2022-08-28T17:18:24Z</time>
      </trkpt>
      <trkpt lat="42.4061290" lon="-8.4439890">
        <ele>409.6</ele>
        <time>2022-08-28T17:18:26Z</time>
      </trkpt>
      <trkpt lat="42.4063330" lon="-8.4441250">
        <ele>409.0</ele>
        <time>2022-08-28T17:18:30Z</time>
      </trkpt>
      <trkpt lat="42.4064720" lon="-8.4442690">
        <ele>408.4</ele>
        <time>2022-08-28T17:18:33Z</time>
      </trkpt>
      <trkpt lat="42.4065420" lon="-8.4444000">
        <ele>408.0</ele>
        <time>2022-08-28T17:18:35Z</time>
      </trkpt>
      <trkpt lat="42.4065990" lon="-8.4445440">
        <ele>407.8</ele>
        <time>2022-08-28T17:18:37Z</time>
      </trkpt>
      <trkpt lat="42.4068160" lon="-8.4450310">
        <ele>407.0</ele>
        <time>2022-08-28T17:18:44Z</time>
      </trkpt>
      <trkpt lat="42.4068530" lon="-8.4450920">
        <ele>406.8</ele>
        <time>2022-08-28T17:18:45Z</time>
      </trkpt>
      <trkpt lat="42.4071140" lon="-8.4453820">
        <ele>406.0</ele>
        <time>2022-08-28T17:18:51Z</time>
      </trkpt>
      <trkpt lat="42.4071650" lon="-8.4454160">
        <ele>406.0</ele>
        <time>2022-08-28T17:18:52Z</time>
      </trkpt>
      <trkpt lat="42.4072200" lon="-8.4454450">
        <ele>406.0</ele>
        <time>2022-08-28T17:18:53Z</time>
      </trkpt>
      <trkpt lat="42.4073920" lon="-8.4455150">
        <ele>405.6</ele>
        <time>2022-08-28T17:18:56Z</time>
      </trkpt>
      <trkpt lat="42.4076960" lon="-8.4455950">
        <ele>404.8</ele>
        <time>2022-08-28T17:19:01Z</time>
      </trkpt>
      <trkpt lat="42.4078190" lon="-8.4456280">
        <ele>404.4</ele>
        <time>2022-08-28T17:19:03Z</time>
      </trkpt>
      <trkpt lat="42.4080480" lon="-8.4456920">
        <ele>403.8</ele>
        <time>2022-08-28T17:19:07Z</time>
      </trkpt>
      <trkpt lat="42.4082640" lon="-8.4457450">
        <ele>403.4</ele>
        <time>2022-08-28T17:19:11Z</time>
      </trkpt>
      <trkpt lat="42.4087960" lon="-8.4458810">
        <ele>402.6</ele>
        <time>2022-08-28T17:19:21Z</time>
      </trkpt>
      <trkpt lat="42.4093680" lon="-8.4460260">
        <ele>402.2</ele>
        <time>2022-08-28T17:19:32Z</time>
      </trkpt>
      <trkpt lat="42.4094230" lon="-8.4460310">
        <ele>402.0</ele>
        <time>2022-08-28T17:19:33Z</time>
      </trkpt>
      <trkpt lat="42.4097140" lon="-8.4460500">
        <ele>401.8</ele>
        <time>2022-08-28T17:19:38Z</time>
      </trkpt>
      <trkpt lat="42.4097730" lon="-8.4460650">
        <ele>401.6</ele>
        <time>2022-08-28T17:19:39Z</time>
      </trkpt>
      <trkpt lat="42.4101650" lon="-8.4461000">
        <ele>400.4</ele>
        <time>2022-08-28T17:19:45Z</time>
      </trkpt>
      <trkpt lat="42.4104640" lon="-8.4460400">
        <ele>399.4</ele>
        <time>2022-08-28T17:19:49Z</time>
      </trkpt>
      <trkpt lat="42.4106260" lon="-8.4459870">
        <ele>399.0</ele>
        <time>2022-08-28T17:19:51Z</time>
      </trkpt>
      <trkpt lat="42.4108040" lon="-8.4459200">
        <ele>398.2</ele>
        <time>2022-08-28T17:19:53Z</time>
      </trkpt>
      <trkpt lat="42.4111000" lon="-8.4458080">
        <ele>397.0</ele>
        <time>2022-08-28T17:19:56Z</time>
      </trkpt>
      <trkpt lat="42.4113100" lon="-8.4457270">
        <ele>396.0</ele>
        <time>2022-08-28T17:19:58Z</time>
      </trkpt>
      <trkpt lat="42.4115310" lon="-8.4456430">
        <ele>394.6</ele>
        <time>2022-08-28T17:20:00Z</time>
      </trkpt>
      <trkpt lat="42.4117570" lon="-8.4455530">
        <ele>393.2</ele>
        <time>2022-08-28T17:20:02Z</time>
      </trkpt>
      <trkpt lat="42.4119800" lon="-8.4454580">
        <ele>391.4</ele>
        <time>2022-08-28T17:20:04Z</time>
      </trkpt>
      <trkpt lat="42.4122010" lon="-8.4453530">
        <ele>389.6</ele>
        <time>2022-08-28T17:20:06Z</time>
      </trkpt>
      <trkpt lat="42.4124130" lon="-8.4452460">
        <ele>387.8</ele>
        <time>2022-08-28T17:20:08Z</time>
      </trkpt>
      <trkpt lat="42.4125120" lon="-8.4451950">
        <ele>387.0</ele>
        <time>2022-08-28T17:20:09Z</time>
      </trkpt>
      <trkpt lat="42.4126080" lon="-8.4451450">
        <ele>386.0</ele>
        <time>2022-08-28T17:20:10Z</time>
      </trkpt>
      <trkpt lat="42.4127870" lon="-8.4450490">
        <ele>384.2</ele>
        <time>2022-08-28T17:20:12Z</time>
      </trkpt>
      <trkpt lat="42.4128700" lon="-8.4450050">
        <ele>383.2</ele>
        <time>2022-08-28T17:20:13Z</time>
      </trkpt>
      <trkpt lat="42.4129490" lon="-8.4449620">
        <ele>382.0</ele>
        <time>2022-08-28T17:20:14Z</time>
      </trkpt>
      <trkpt lat="42.4131040" lon="-8.4448770">
        <ele>380.2</ele>
        <time>2022-08-28T17:20:16Z</time>
      </trkpt>
      <trkpt lat="42.4132540" lon="-8.4447910">
        <ele>378.8</ele>
        <time>2022-08-28T17:20:18Z</time>
      </trkpt>
      <trkpt lat="42.4133820" lon="-8.4447130">
        <ele>377.2</ele>
        <time>2022-08-28T17:20:20Z</time>
      </trkpt>
      <trkpt lat="42.4134380" lon="-8.4446790">
        <ele>376.4</ele>
        <time>2022-08-28T17:20:21Z</time>
      </trkpt>
      <trkpt lat="42.4134890" lon="-8.4446460">
        <ele>374.8</ele>
        <time>2022-08-28T17:20:22Z</time>
      </trkpt>
      <trkpt lat="42.4135760" lon="-8.4445890">
        <ele>373.8</ele>
        <time>2022-08-28T17:20:24Z</time>
      </trkpt>
      <trkpt lat="42.4136380" lon="-8.4445700">
        <ele>372.8</ele>
        <time>2022-08-28T17:20:26Z</time>
      </trkpt>
      <trkpt lat="42.4136660" lon="-8.4445870">
        <ele>372.4</ele>
        <time>2022-08-28T17:20:27Z</time>
      </trkpt>
      <trkpt lat="42.4137030" lon="-8.4446670">
        <ele>371.2</ele>
        <time>2022-08-28T17:20:29Z</time>
      </trkpt>
      <trkpt lat="42.4137280" lon="-8.4448220">
        <ele>370.0</ele>
        <time>2022-08-28T17:20:32Z</time>
      </trkpt>
      <trkpt lat="42.4137420" lon="-8.4448720">
        <ele>369.8</ele>
        <time>2022-08-28T17:20:33Z</time>
      </trkpt>
      <trkpt lat="42.4137630" lon="-8.4449210">
        <ele>369.6</ele>
        <time>2022-08-28T17:20:34Z</time>
      </trkpt>
      <trkpt lat="42.4138510" lon="-8.4450220">
        <ele>369.0</ele>
        <time>2022-08-28T17:20:37Z</time>
      </trkpt>
      <trkpt lat="42.4138870" lon="-8.4450380">
        <ele>369.0</ele>
        <time>2022-08-28T17:20:38Z</time>
      </trkpt>
      <trkpt lat="42.4140000" lon="-8.4450590">
        <ele>368.8</ele>
        <time>2022-08-28T17:20:41Z</time>
      </trkpt>
      <trkpt lat="42.4140410" lon="-8.4450600">
        <ele>368.8</ele>
        <time>2022-08-28T17:20:42Z</time>
      </trkpt>
      <trkpt lat="42.4144140" lon="-8.4450620">
        <ele>368.8</ele>
        <time>2022-08-28T17:20:51Z</time>
      </trkpt>
      <trkpt lat="42.4146400" lon="-8.4450610">
        <ele>368.8</ele>
        <time>2022-08-28T17:20:57Z</time>
      </trkpt>
      <trkpt lat="42.4148030" lon="-8.4450480">
        <ele>369.2</ele>
        <time>2022-08-28T17:21:03Z</time>
      </trkpt>
      <trkpt lat="42.4149340" lon="-8.4450440">
        <ele>370.2</ele>
        <time>2022-08-28T17:21:09Z</time>
      </trkpt>
      <trkpt lat="42.4149560" lon="-8.4450460">
        <ele>370.4</ele>
        <time>2022-08-28T17:21:10Z</time>
      </trkpt>
      <trkpt lat="42.4150540" lon="-8.4450460">
        <ele>371.2</ele>
        <time>2022-08-28T17:21:15Z</time>
      </trkpt>
      <trkpt lat="42.4151320" lon="-8.4450590">
        <ele>371.8</ele>
        <time>2022-08-28T17:21:19Z</time>
      </trkpt>
      <trkpt lat="42.4151750" lon="-8.4450730">
        <ele>372.2</ele>
        <time>2022-08-28T17:21:21Z</time>
      </trkpt>
      <trkpt lat="42.4152820" lon="-8.4451290">
        <ele>372.8</ele>
        <time>2022-08-28T17:21:26Z</time>
      </trkpt>
      <trkpt lat="42.4153480" lon="-8.4452130">
        <ele>373.2</ele>
        <time>2022-08-28T17:21:30Z</time>
      </trkpt>
      <trkpt lat="42.4153830" lon="-8.4452880">
        <ele>373.6</ele>
        <time>2022-08-28T17:21:33Z</time>
      </trkpt>
      <trkpt lat="42.4154180" lon="-8.4454230">
        <ele>374.6</ele>
        <time>2022-08-28T17:21:38Z</time>
      </trkpt>
      <trkpt lat="42.4154400" lon="-8.4455310">
        <ele>375.0</ele>
        <time>2022-08-28T17:21:42Z</time>
      </trkpt>
      <trkpt lat="42.4154640" lon="-8.4456680">
        <ele>375.6</ele>
        <time>2022-08-28T17:21:47Z</time>
      </trkpt>
      <trkpt lat="42.4154930" lon="-8.4458380">
        <ele>376.4</ele>
        <time>2022-08-28T17:21:53Z</time>
      </trkpt>
      <trkpt lat="42.4155040" lon="-8.4458930">
        <ele>376.6</ele>
        <time>2022-08-28T17:21:55Z</time>
      </trkpt>
      <trkpt lat="42.4155490" lon="-8.4461200">
        <ele>377.6</ele>
        <time>2022-08-28T17:22:03Z</time>
      </trkpt>
      <trkpt lat="42.4155540" lon="-8.4461500">
        <ele>377.8</ele>
        <time>2022-08-28T17:22:04Z</time>
      </trkpt>
      <trkpt lat="42.4156050" lon="-8.4464170">
        <ele>379.0</ele>
        <time>2022-08-28T17:22:13Z</time>
      </trkpt>
      <trkpt lat="42.4156420" lon="-8.4466590">
        <ele>380.0</ele>
        <time>2022-08-28T17:22:21Z</time>
      </trkpt>
      <trkpt lat="42.4156480" lon="-8.4466890">
        <ele>380.0</ele>
        <time>2022-08-28T17:22:22Z</time>
      </trkpt>
      <trkpt lat="42.4157090" lon="-8.4468510">
        <ele>381.0</ele>
        <time>2022-08-28T17:22:28Z</time>
      </trkpt>
      <trkpt lat="42.4157220" lon="-8.4468790">
        <ele>381.2</ele>
        <time>2022-08-28T17:22:29Z</time>
      </trkpt>
      <trkpt lat="42.4157850" lon="-8.4470920">
        <ele>381.8</ele>
        <time>2022-08-28T17:22:36Z</time>
      </trkpt>
      <trkpt lat="42.4158480" lon="-8.4472770">
        <ele>382.0</ele>
        <time>2022-08-28T17:22:41Z</time>
      </trkpt>
      <trkpt lat="42.4158790" lon="-8.4473520">
        <ele>382.2</ele>
        <time>2022-08-28T17:22:43Z</time>
      </trkpt>
      <trkpt lat="42.4159860" lon="-8.4475920">
        <ele>382.4</ele>
        <time>2022-08-28T17:22:49Z</time>
      </trkpt>
      <trkpt lat="42.4161660" lon="-8.4479390">
        <ele>382.8</ele>
        <time>2022-08-28T17:22:57Z</time>
      </trkpt>
      <trkpt lat="42.4163640" lon="-8.4483030">
        <ele>382.8</ele>
        <time>2022-08-28T17:23:05Z</time>
      </trkpt>
      <trkpt lat="42.4165210" lon="-8.4485750">
        <ele>382.4</ele>
        <time>2022-08-28T17:23:11Z</time>
      </trkpt>
      <trkpt lat="42.4165410" lon="-8.4486330">
        <ele>382.4</ele>
        <time>2022-08-28T17:23:12Z</time>
      </trkpt>
      <trkpt lat="42.4166000" lon="-8.4488070">
        <ele>382.4</ele>
        <time>2022-08-28T17:23:16Z</time>
      </trkpt>
      <trkpt lat="42.4166090" lon="-8.4490460">
        <ele>382.6</ele>
        <time>2022-08-28T17:23:22Z</time>
      </trkpt>
      <trkpt lat="42.4166030" lon="-8.4491250">
        <ele>383.0</ele>
        <time>2022-08-28T17:23:24Z</time>
      </trkpt>
      <trkpt lat="42.4166170" lon="-8.4493070">
        <ele>384.0</ele>
        <time>2022-08-28T17:23:29Z</time>
      </trkpt>
      <trkpt lat="42.4166300" lon="-8.4493760">
        <ele>384.2</ele>
        <time>2022-08-28T17:23:31Z</time>
      </trkpt>
      <trkpt lat="42.4166660" lon="-8.4495270">
        <ele>385.2</ele>
        <time>2022-08-28T17:23:36Z</time>
      </trkpt>
      <trkpt lat="42.4166760" lon="-8.4495560">
        <ele>385.2</ele>
        <time>2022-08-28T17:23:37Z</time>
      </trkpt>
      <trkpt lat="42.4167400" lon="-8.4497410">
        <ele>386.0</ele>
        <time>2022-08-28T17:23:43Z</time>
      </trkpt>
      <trkpt lat="42.4167610" lon="-8.4498030">
        <ele>386.4</ele>
        <time>2022-08-28T17:23:45Z</time>
      </trkpt>
      <trkpt lat="42.4168270" lon="-8.4499500">
        <ele>387.0</ele>
        <time>2022-08-28T17:23:50Z</time>
      </trkpt>
      <trkpt lat="42.4168760" lon="-8.4500170">
        <ele>387.4</ele>
        <time>2022-08-28T17:23:53Z</time>
      </trkpt>
      <trkpt lat="42.4169440" lon="-8.4501330">
        <ele>388.2</ele>
        <time>2022-08-28T17:23:58Z</time>
      </trkpt>
      <trkpt lat="42.4169840" lon="-8.4502130">
        <ele>388.6</ele>
        <time>2022-08-28T17:24:01Z</time>
      </trkpt>
      <trkpt lat="42.4170110" lon="-8.4502850">
        <ele>388.8</ele>
        <time>2022-08-28T17:24:03Z</time>
      </trkpt>
      <trkpt lat="42.4170420" lon="-8.4504580">
        <ele>389.6</ele>
        <time>2022-08-28T17:24:08Z</time>
      </trkpt>
      <trkpt lat="42.4170460" lon="-8.4505240">
        <ele>389.8</ele>
        <time>2022-08-28T17:24:10Z</time>
      </trkpt>
      <trkpt lat="42.4170420" lon="-8.4507110">
        <ele>390.6</ele>
        <time>2022-08-28T17:24:15Z</time>
      </trkpt>
      <trkpt lat="42.4170320" lon="-8.4507770">
        <ele>391.0</ele>
        <time>2022-08-28T17:24:17Z</time>
      </trkpt>
      <trkpt lat="42.4170030" lon="-8.4509900">
        <ele>391.6</ele>
        <time>2022-08-28T17:24:23Z</time>
      </trkpt>
      <trkpt lat="42.4169830" lon="-8.4510930">
        <ele>392.0</ele>
        <time>2022-08-28T17:24:26Z</time>
      </trkpt>
      <trkpt lat="42.4169480" lon="-8.4512620">
        <ele>392.8</ele>
        <time>2022-08-28T17:24:31Z</time>
      </trkpt>
      <trkpt lat="42.4169350" lon="-8.4513290">
        <ele>393.0</ele>
        <time>2022-08-28T17:24:33Z</time>
      </trkpt>
      <trkpt lat="42.4169300" lon="-8.4513600">
        <ele>393.2</ele>
        <time>2022-08-28T17:24:34Z</time>
      </trkpt>
      <trkpt lat="42.4168980" lon="-8.4514950">
        <ele>393.8</ele>
        <time>2022-08-28T17:24:38Z</time>
      </trkpt>
      <trkpt lat="42.4168620" lon="-8.4516300">
        <ele>394.4</ele>
        <time>2022-08-28T17:24:42Z</time>
      </trkpt>
      <trkpt lat="42.4168440" lon="-8.4516950">
        <ele>395.0</ele>
        <time>2022-08-28T17:24:44Z</time>
      </trkpt>
      <trkpt lat="42.4168040" lon="-8.4518770">
        <ele>395.8</ele>
        <time>2022-08-28T17:24:50Z</time>
      </trkpt>
      <trkpt lat="42.4167760" lon="-8.4520620">
        <ele>396.8</ele>
        <time>2022-08-28T17:24:56Z</time>
      </trkpt>
      <trkpt lat="42.4167430" lon="-8.4522510">
        <ele>397.4</ele>
        <time>2022-08-28T17:25:02Z</time>
      </trkpt>
      <trkpt lat="42.4167350" lon="-8.4523090">
        <ele>397.8</ele>
        <time>2022-08-28T17:25:04Z</time>
      </trkpt>
      <trkpt lat="42.4167030" lon="-8.4524570">
        <ele>398.6</ele>
        <time>2022-08-28T17:25:09Z</time>
      </trkpt>
      <trkpt lat="42.4166880" lon="-8.4525400">
        <ele>398.8</ele>
        <time>2022-08-28T17:25:12Z</time>
      </trkpt>
      <trkpt lat="42.4166470" lon="-8.4526110">
        <ele>399.4</ele>
        <time>2022-08-28T17:25:15Z</time>
      </trkpt>
      <trkpt lat="42.4165750" lon="-8.4527150">
        <ele>400.0</ele>
        <time>2022-08-28T17:25:19Z</time>
      </trkpt>
      <trkpt lat="42.4165570" lon="-8.4527450">
        <ele>400.0</ele>
        <time>2022-08-28T17:25:20Z</time>
      </trkpt>
      <trkpt lat="42.4164780" lon="-8.4529690">
        <ele>401.0</ele>
        <time>2022-08-28T17:25:27Z</time>
      </trkpt>
      <trkpt lat="42.4164390" lon="-8.4531650">
        <ele>402.0</ele>
        <time>2022-08-28T17:25:33Z</time>
      </trkpt>
      <trkpt lat="42.4164340" lon="-8.4532010">
        <ele>402.0</ele>
        <time>2022-08-28T17:25:34Z</time>
      </trkpt>
      <trkpt lat="42.4163670" lon="-8.4533890">
        <ele>403.0</ele>
        <time>2022-08-28T17:25:40Z</time>
      </trkpt>
      <trkpt lat="42.4163290" lon="-8.4536420">
        <ele>403.8</ele>
        <time>2022-08-28T17:25:47Z</time>
      </trkpt>
      <trkpt lat="42.4163240" lon="-8.4537500">
        <ele>404.0</ele>
        <time>2022-08-28T17:25:50Z</time>
      </trkpt>
      <trkpt lat="42.4163350" lon="-8.4538530">
        <ele>404.4</ele>
        <time>2022-08-28T17:25:53Z</time>
      </trkpt>
      <trkpt lat="42.4163540" lon="-8.4541390">
        <ele>405.2</ele>
        <time>2022-08-28T17:26:01Z</time>
      </trkpt>
      <trkpt lat="42.4163550" lon="-8.4544570">
        <ele>406.0</ele>
        <time>2022-08-28T17:26:09Z</time>
      </trkpt>
      <trkpt lat="42.4163470" lon="-8.4546320">
        <ele>406.2</ele>
        <time>2022-08-28T17:26:13Z</time>
      </trkpt>
      <trkpt lat="42.4163510" lon="-8.4547510">
        <ele>406.6</ele>
        <time>2022-08-28T17:26:16Z</time>
      </trkpt>
      <trkpt lat="42.4163720" lon="-8.4549640">
        <ele>407.4</ele>
        <time>2022-08-28T17:26:22Z</time>
      </trkpt>
      <trkpt lat="42.4163810" lon="-8.4550320">
        <ele>407.6</ele>
        <time>2022-08-28T17:26:24Z</time>
      </trkpt>
      <trkpt lat="42.4164220" lon="-8.4551700">
        <ele>408.4</ele>
        <time>2022-08-28T17:26:29Z</time>
      </trkpt>
      <trkpt lat="42.4164460" lon="-8.4552160">
        <ele>408.4</ele>
        <time>2022-08-28T17:26:31Z</time>
      </trkpt>
      <trkpt lat="42.4165430" lon="-8.4553400">
        <ele>409.2</ele>
        <time>2022-08-28T17:26:37Z</time>
      </trkpt>
      <trkpt lat="42.4165620" lon="-8.4553540">
        <ele>409.4</ele>
        <time>2022-08-28T17:26:38Z</time>
      </trkpt>
      <trkpt lat="42.4166520" lon="-8.4554490">
        <ele>410.4</ele>
        <time>2022-08-28T17:26:43Z</time>
      </trkpt>
      <trkpt lat="42.4166670" lon="-8.4554700">
        <ele>410.6</ele>
        <time>2022-08-28T17:26:44Z</time>
      </trkpt>
      <trkpt lat="42.4167520" lon="-8.4556140">
        <ele>411.6</ele>
        <time>2022-08-28T17:26:50Z</time>
      </trkpt>
      <trkpt lat="42.4167690" lon="-8.4556380">
        <ele>411.6</ele>
        <time>2022-08-28T17:26:51Z</time>
      </trkpt>
      <trkpt lat="42.4168450" lon="-8.4557830">
        <ele>412.6</ele>
        <time>2022-08-28T17:26:57Z</time>
      </trkpt>
      <trkpt lat="42.4168690" lon="-8.4558290">
        <ele>412.8</ele>
        <time>2022-08-28T17:26:59Z</time>
      </trkpt>
      <trkpt lat="42.4169240" lon="-8.4559650">
        <ele>413.6</ele>
        <time>2022-08-28T17:27:03Z</time>
      </trkpt>
      <trkpt lat="42.4169900" lon="-8.4560790">
        <ele>414.4</ele>
        <time>2022-08-28T17:27:07Z</time>
      </trkpt>
      <trkpt lat="42.4170290" lon="-8.4561150">
        <ele>414.4</ele>
        <time>2022-08-28T17:27:09Z</time>
      </trkpt>
      <trkpt lat="42.4171180" lon="-8.4561640">
        <ele>415.4</ele>
        <time>2022-08-28T17:27:14Z</time>
      </trkpt>
      <trkpt lat="42.4172380" lon="-8.4561930">
        <ele>416.4</ele>
        <time>2022-08-28T17:27:20Z</time>
      </trkpt>
      <trkpt lat="42.4172580" lon="-8.4562000">
        <ele>416.8</ele>
        <time>2022-08-28T17:27:21Z</time>
      </trkpt>
      <trkpt lat="42.4173890" lon="-8.4562100">
        <ele>417.6</ele>
        <time>2022-08-28T17:27:28Z</time>
      </trkpt>
      <trkpt lat="42.4174090" lon="-8.4562120">
        <ele>417.8</ele>
        <time>2022-08-28T17:27:29Z</time>
      </trkpt>
      <trkpt lat="42.4174780" lon="-8.4562150">
        <ele>418.4</ele>
        <time>2022-08-28T17:27:33Z</time>
      </trkpt>
      <trkpt lat="42.4175180" lon="-8.4562200">
        <ele>418.6</ele>
        <time>2022-08-28T17:27:35Z</time>
      </trkpt>
      <trkpt lat="42.4175370" lon="-8.4562200">
        <ele>418.8</ele>
        <time>2022-08-28T17:27:36Z</time>
      </trkpt>
      <trkpt lat="42.4176430" lon="-8.4562390">
        <ele>420.0</ele>
        <time>2022-08-28T17:27:42Z</time>
      </trkpt>
      <trkpt lat="42.4176930" lon="-8.4562550">
        <ele>420.6</ele>
        <time>2022-08-28T17:27:45Z</time>
      </trkpt>
      <trkpt lat="42.4177460" lon="-8.4562790">
        <ele>421.0</ele>
        <time>2022-08-28T17:27:48Z</time>
      </trkpt>
      <trkpt lat="42.4178130" lon="-8.4563300">
        <ele>421.6</ele>
        <time>2022-08-28T17:27:52Z</time>
      </trkpt>
      <trkpt lat="42.4178600" lon="-8.4563910">
        <ele>422.0</ele>
        <time>2022-08-28T17:27:55Z</time>
      </trkpt>
      <trkpt lat="42.4179050" lon="-8.4564950">
        <ele>422.6</ele>
        <time>2022-08-28T17:27:59Z</time>
      </trkpt>
      <trkpt lat="42.4179920" lon="-8.4566520">
        <ele>422.8</ele>
        <time>2022-08-28T17:28:04Z</time>
      </trkpt>
      <trkpt lat="42.4180080" lon="-8.4566810">
        <ele>423.0</ele>
        <time>2022-08-28T17:28:05Z</time>
      </trkpt>
      <trkpt lat="42.4181610" lon="-8.4568550">
        <ele>423.8</ele>
        <time>2022-08-28T17:28:12Z</time>
      </trkpt>
      <trkpt lat="42.4182030" lon="-8.4569040">
        <ele>424.0</ele>
        <time>2022-08-28T17:28:14Z</time>
      </trkpt>
      <trkpt lat="42.4183290" lon="-8.4570390">
        <ele>424.6</ele>
        <time>2022-08-28T17:28:20Z</time>
      </trkpt>
      <trkpt lat="42.4184250" lon="-8.4571420">
        <ele>425.0</ele>
        <time>2022-08-28T17:28:25Z</time>
      </trkpt>
      <trkpt lat="42.4184820" lon="-8.4572160">
        <ele>425.4</ele>
        <time>2022-08-28T17:28:28Z</time>
      </trkpt>
      <trkpt lat="42.4186130" lon="-8.4573390">
        <ele>426.0</ele>
        <time>2022-08-28T17:28:35Z</time>
      </trkpt>
      <trkpt lat="42.4187480" lon="-8.4574160">
        <ele>426.6</ele>
        <time>2022-08-28T17:28:41Z</time>
      </trkpt>
      <trkpt lat="42.4188260" lon="-8.4574490">
        <ele>427.2</ele>
        <time>2022-08-28T17:28:45Z</time>
      </trkpt>
      <trkpt lat="42.4188920" lon="-8.4574720">
        <ele>427.6</ele>
        <time>2022-08-28T17:28:48Z</time>
      </trkpt>
      <trkpt lat="42.4190040" lon="-8.4575160">
        <ele>428.2</ele>
        <time>2022-08-28T17:28:52Z</time>
      </trkpt>
      <trkpt lat="42.4190820" lon="-8.4575430">
        <ele>428.8</ele>
        <time>2022-08-28T17:28:55Z</time>
      </trkpt>
      <trkpt lat="42.4191950" lon="-8.4575820">
        <ele>429.4</ele>
        <time>2022-08-28T17:28:59Z</time>
      </trkpt>
      <trkpt lat="42.4193160" lon="-8.4576280">
        <ele>429.8</ele>
        <time>2022-08-28T17:29:03Z</time>
      </trkpt>
      <trkpt lat="42.4194270" lon="-8.4576590">
        <ele>430.4</ele>
        <time>2022-08-28T17:29:07Z</time>
      </trkpt>
      <trkpt lat="42.4195140" lon="-8.4576780">
        <ele>431.0</ele>
        <time>2022-08-28T17:29:10Z</time>
      </trkpt>
      <trkpt lat="42.4196900" lon="-8.4577300">
        <ele>431.6</ele>
        <time>2022-08-28T17:29:16Z</time>
      </trkpt>
      <trkpt lat="42.4197970" lon="-8.4577660">
        <ele>432.0</ele>
        <time>2022-08-28T17:29:20Z</time>
      </trkpt>
      <trkpt lat="42.4199610" lon="-8.4578090">
        <ele>432.6</ele>
        <time>2022-08-28T17:29:26Z</time>
      </trkpt>
      <trkpt lat="42.4200410" lon="-8.4578310">
        <ele>433.0</ele>
        <time>2022-08-28T17:29:29Z</time>
      </trkpt>
      <trkpt lat="42.4202010" lon="-8.4578430">
        <ele>433.4</ele>
        <time>2022-08-28T17:29:36Z</time>
      </trkpt>
      <trkpt lat="42.4202490" lon="-8.4578500">
        <ele>433.8</ele>
        <time>2022-08-28T17:29:39Z</time>
      </trkpt>
      <trkpt lat="42.4202920" lon="-8.4578610">
        <ele>434.2</ele>
        <time>2022-08-28T17:29:41Z</time>
      </trkpt>
      <trkpt lat="42.4203950" lon="-8.4578890">
        <ele>434.4</ele>
        <time>2022-08-28T17:29:47Z</time>
      </trkpt>
      <trkpt lat="42.4203980" lon="-8.4578890">
        <ele>434.4</ele>
        <time>2022-08-28T17:29:48Z</time>
      </trkpt>
      <trkpt lat="42.4204670" lon="-8.4579400">
        <ele>434.8</ele>
        <time>2022-08-28T17:30:29Z</time>
      </trkpt>
      <trkpt lat="42.4204920" lon="-8.4579490">
        <ele>434.8</ele>
        <time>2022-08-28T17:30:31Z</time>
      </trkpt>
      <trkpt lat="42.4205730" lon="-8.4579770">
        <ele>434.8</ele>
        <time>2022-08-28T17:30:35Z</time>
      </trkpt>
      <trkpt lat="42.4207060" lon="-8.4579970">
        <ele>434.8</ele>
        <time>2022-08-28T17:30:39Z</time>
      </trkpt>
      <trkpt lat="42.4207690" lon="-8.4580090">
        <ele>435.0</ele>
        <time>2022-08-28T17:30:41Z</time>
      </trkpt>
      <trkpt lat="42.4209600" lon="-8.4580810">
        <ele>435.0</ele>
        <time>2022-08-28T17:30:47Z</time>
      </trkpt>
      <trkpt lat="42.4212810" lon="-8.4581660">
        <ele>435.2</ele>
        <time>2022-08-28T17:30:55Z</time>
      </trkpt>
      <trkpt lat="42.4216640" lon="-8.4582900">
        <ele>435.2</ele>
        <time>2022-08-28T17:31:04Z</time>
      </trkpt>
      <trkpt lat="42.4221110" lon="-8.4584450">
        <ele>435.0</ele>
        <time>2022-08-28T17:31:14Z</time>
      </trkpt>
      <trkpt lat="42.4225420" lon="-8.4585930">
        <ele>434.6</ele>
        <time>2022-08-28T17:31:23Z</time>
      </trkpt>
      <trkpt lat="42.4228900" lon="-8.4587500">
        <ele>434.4</ele>
        <time>2022-08-28T17:31:30Z</time>
      </trkpt>
      <trkpt lat="42.4233120" lon="-8.4590190">
        <ele>434.0</ele>
        <time>2022-08-28T17:31:39Z</time>
      </trkpt>
      <trkpt lat="42.4237650" lon="-8.4593550">
        <ele>434.0</ele>
        <time>2022-08-28T17:31:49Z</time>
      </trkpt>
      <trkpt lat="42.4240730" lon="-8.4597020">
        <ele>433.8</ele>
        <time>2022-08-28T17:31:57Z</time>
      </trkpt>
      <trkpt lat="42.4242470" lon="-8.4598740">
        <ele>433.8</ele>
        <time>2022-08-28T17:32:02Z</time>
      </trkpt>
      <trkpt lat="42.4243140" lon="-8.4599420">
        <ele>434.0</ele>
        <time>2022-08-28T17:32:04Z</time>
      </trkpt>
      <trkpt lat="42.4245680" lon="-8.4602240">
        <ele>434.8</ele>
        <time>2022-08-28T17:32:12Z</time>
      </trkpt>
      <trkpt lat="42.4246400" lon="-8.4602840">
        <ele>435.0</ele>
        <time>2022-08-28T17:32:14Z</time>
      </trkpt>
      <trkpt lat="42.4247700" lon="-8.4603180">
        <ele>435.4</ele>
        <time>2022-08-28T17:32:17Z</time>
      </trkpt>
      <trkpt lat="42.4248560" lon="-8.4603350">
        <ele>435.6</ele>
        <time>2022-08-28T17:32:19Z</time>
      </trkpt>
      <trkpt lat="42.4249750" lon="-8.4603820">
        <ele>435.6</ele>
        <time>2022-08-28T17:32:22Z</time>
      </trkpt>
      <trkpt lat="42.4250170" lon="-8.4604050">
        <ele>435.6</ele>
        <time>2022-08-28T17:32:23Z</time>
      </trkpt>
      <trkpt lat="42.4251960" lon="-8.4605660">
        <ele>436.2</ele>
        <time>2022-08-28T17:32:28Z</time>
      </trkpt>
      <trkpt lat="42.4252310" lon="-8.4606050">
        <ele>436.4</ele>
        <time>2022-08-28T17:32:29Z</time>
      </trkpt>
      <trkpt lat="42.4253390" lon="-8.4607310">
        <ele>436.4</ele>
        <time>2022-08-28T17:32:32Z</time>
      </trkpt>
      <trkpt lat="42.4254130" lon="-8.4608170">
        <ele>436.4</ele>
        <time>2022-08-28T17:32:34Z</time>
      </trkpt>
      <trkpt lat="42.4255330" lon="-8.4609400">
        <ele>436.4</ele>
        <time>2022-08-28T17:32:37Z</time>
      </trkpt>
      <trkpt lat="42.4256180" lon="-8.4610050">
        <ele>436.4</ele>
        <time>2022-08-28T17:32:39Z</time>
      </trkpt>
      <trkpt lat="42.4257990" lon="-8.4609890">
        <ele>436.4</ele>
        <time>2022-08-28T17:32:43Z</time>
      </trkpt>
      <trkpt lat="42.4259150" lon="-8.4608700">
        <ele>436.2</ele>
        <time>2022-08-28T17:32:46Z</time>
      </trkpt>
      <trkpt lat="42.4259970" lon="-8.4607840">
        <ele>436.2</ele>
        <time>2022-08-28T17:32:48Z</time>
      </trkpt>
      <trkpt lat="42.4262990" lon="-8.4604700">
        <ele>436.2</ele>
        <time>2022-08-28T17:32:54Z</time>
      </trkpt>
      <trkpt lat="42.4266960" lon="-8.4600340">
        <ele>434.4</ele>
        <time>2022-08-28T17:33:01Z</time>
      </trkpt>
      <trkpt lat="42.4267580" lon="-8.4599650">
        <ele>434.2</ele>
        <time>2022-08-28T17:33:02Z</time>
      </trkpt>
      <trkpt lat="42.4269480" lon="-8.4597600">
        <ele>433.2</ele>
        <time>2022-08-28T17:33:05Z</time>
      </trkpt>
      <trkpt lat="42.4271460" lon="-8.4595650">
        <ele>431.8</ele>
        <time>2022-08-28T17:33:08Z</time>
      </trkpt>
      <trkpt lat="42.4272190" lon="-8.4595180">
        <ele>431.2</ele>
        <time>2022-08-28T17:33:09Z</time>
      </trkpt>
      <trkpt lat="42.4273740" lon="-8.4594680">
        <ele>430.4</ele>
        <time>2022-08-28T17:33:11Z</time>
      </trkpt>
      <trkpt lat="42.4274550" lon="-8.4594570">
        <ele>430.0</ele>
        <time>2022-08-28T17:33:12Z</time>
      </trkpt>
      <trkpt lat="42.4275350" lon="-8.4594470">
        <ele>429.6</ele>
        <time>2022-08-28T17:33:13Z</time>
      </trkpt>
      <trkpt lat="42.4276130" lon="-8.4594340">
        <ele>429.2</ele>
        <time>2022-08-28T17:33:14Z</time>
      </trkpt>
      <trkpt lat="42.4278380" lon="-8.4593690">
        <ele>428.0</ele>
        <time>2022-08-28T17:33:17Z</time>
      </trkpt>
      <trkpt lat="42.4279080" lon="-8.4593390">
        <ele>427.8</ele>
        <time>2022-08-28T17:33:18Z</time>
      </trkpt>
      <trkpt lat="42.4281190" lon="-8.4592520">
        <ele>427.6</ele>
        <time>2022-08-28T17:33:21Z</time>
      </trkpt>
      <trkpt lat="42.4283280" lon="-8.4591690">
        <ele>427.4</ele>
        <time>2022-08-28T17:33:24Z</time>
      </trkpt>
      <trkpt lat="42.4284610" lon="-8.4591100">
        <ele>427.0</ele>
        <time>2022-08-28T17:33:26Z</time>
      </trkpt>
      <trkpt lat="42.4287260" lon="-8.4590020">
        <ele>426.6</ele>
        <time>2022-08-28T17:33:30Z</time>
      </trkpt>
      <trkpt lat="42.4290420" lon="-8.4587980">
        <ele>426.4</ele>
        <time>2022-08-28T17:33:36Z</time>
      </trkpt>
      <trkpt lat="42.4290840" lon="-8.4587580">
        <ele>426.4</ele>
        <time>2022-08-28T17:33:37Z</time>
      </trkpt>
      <trkpt lat="42.4293170" lon="-8.4585160">
        <ele>426.8</ele>
        <time>2022-08-28T17:33:43Z</time>
      </trkpt>
      <trkpt lat="42.4296820" lon="-8.4581230">
        <ele>427.8</ele>
        <time>2022-08-28T17:33:53Z</time>
      </trkpt>
      <trkpt lat="42.4297540" lon="-8.4580390">
        <ele>427.8</ele>
        <time>2022-08-28T17:33:55Z</time>
      </trkpt>
      <trkpt lat="42.4299370" lon="-8.4578290">
        <ele>428.0</ele>
        <time>2022-08-28T17:34:00Z</time>
      </trkpt>
      <trkpt lat="42.4300110" lon="-8.4577630">
        <ele>428.0</ele>
        <time>2022-08-28T17:34:02Z</time>
      </trkpt>
      <trkpt lat="42.4301290" lon="-8.4576990">
        <ele>428.0</ele>
        <time>2022-08-28T17:34:05Z</time>
      </trkpt>
      <trkpt lat="42.4302910" lon="-8.4577210">
        <ele>428.2</ele>
        <time>2022-08-28T17:34:09Z</time>
      </trkpt>
      <trkpt lat="42.4303770" lon="-8.4578250">
        <ele>428.8</ele>
        <time>2022-08-28T17:34:12Z</time>
      </trkpt>
      <trkpt lat="42.4303990" lon="-8.4578670">
        <ele>429.0</ele>
        <time>2022-08-28T17:34:13Z</time>
      </trkpt>
      <trkpt lat="42.4304760" lon="-8.4581250">
        <ele>430.0</ele>
        <time>2022-08-28T17:34:19Z</time>
      </trkpt>
      <trkpt lat="42.4304890" lon="-8.4581700">
        <ele>430.0</ele>
        <time>2022-08-28T17:34:20Z</time>
      </trkpt>
      <trkpt lat="42.4305800" lon="-8.4583900">
        <ele>430.6</ele>
        <time>2022-08-28T17:34:25Z</time>
      </trkpt>
      <trkpt lat="42.4306590" lon="-8.4584550">
        <ele>431.0</ele>
        <time>2022-08-28T17:34:27Z</time>
      </trkpt>
      <trkpt lat="42.4307450" lon="-8.4584950">
        <ele>431.2</ele>
        <time>2022-08-28T17:34:29Z</time>
      </trkpt>
      <trkpt lat="42.4307900" lon="-8.4585150">
        <ele>431.4</ele>
        <time>2022-08-28T17:34:30Z</time>
      </trkpt>
      <trkpt lat="42.4310530" lon="-8.4585830">
        <ele>431.4</ele>
        <time>2022-08-28T17:34:36Z</time>
      </trkpt>
      <trkpt lat="42.4314030" lon="-8.4585540">
        <ele>431.2</ele>
        <time>2022-08-28T17:34:43Z</time>
      </trkpt>
      <trkpt lat="42.4317140" lon="-8.4584860">
        <ele>430.8</ele>
        <time>2022-08-28T17:34:49Z</time>
      </trkpt>
      <trkpt lat="42.4318740" lon="-8.4584060">
        <ele>430.6</ele>
        <time>2022-08-28T17:34:52Z</time>
      </trkpt>
      <trkpt lat="42.4319710" lon="-8.4583400">
        <ele>430.4</ele>
        <time>2022-08-28T17:34:54Z</time>
      </trkpt>
      <trkpt lat="42.4323300" lon="-8.4581070">
        <ele>430.2</ele>
        <time>2022-08-28T17:35:01Z</time>
      </trkpt>
      <trkpt lat="42.4323780" lon="-8.4580620">
        <ele>430.0</ele>
        <time>2022-08-28T17:35:02Z</time>
      </trkpt>
      <trkpt lat="42.4324220" lon="-8.4580100">
        <ele>430.0</ele>
        <time>2022-08-28T17:35:03Z</time>
      </trkpt>
      <trkpt lat="42.4325000" lon="-8.4578810">
        <ele>429.8</ele>
        <time>2022-08-28T17:35:05Z</time>
      </trkpt>
      <trkpt lat="42.4325520" lon="-8.4577230">
        <ele>429.6</ele>
        <time>2022-08-28T17:35:07Z</time>
      </trkpt>
      <trkpt lat="42.4326130" lon="-8.4575570">
        <ele>429.4</ele>
        <time>2022-08-28T17:35:09Z</time>
      </trkpt>
      <trkpt lat="42.4326490" lon="-8.4574810">
        <ele>429.4</ele>
        <time>2022-08-28T17:35:10Z</time>
      </trkpt>
      <trkpt lat="42.4327440" lon="-8.4573650">
        <ele>428.6</ele>
        <time>2022-08-28T17:35:12Z</time>
      </trkpt>
      <trkpt lat="42.4329880" lon="-8.4572330">
        <ele>427.8</ele>
        <time>2022-08-28T17:35:16Z</time>
      </trkpt>
      <trkpt lat="42.4331270" lon="-8.4571990">
        <ele>427.6</ele>
        <time>2022-08-28T17:35:18Z</time>
      </trkpt>
      <trkpt lat="42.4333290" lon="-8.4571530">
        <ele>427.6</ele>
        <time>2022-08-28T17:35:21Z</time>
      </trkpt>
      <trkpt lat="42.4337720" lon="-8.4570600">
        <ele>427.6</ele>
        <time>2022-08-28T17:35:28Z</time>
      </trkpt>
      <trkpt lat="42.4342010" lon="-8.4570050">
        <ele>427.8</ele>
        <time>2022-08-28T17:35:35Z</time>
      </trkpt>
      <trkpt lat="42.4346610" lon="-8.4569850">
        <ele>427.8</ele>
        <time>2022-08-28T17:35:43Z</time>
      </trkpt>
      <trkpt lat="42.4350960" lon="-8.4569880">
        <ele>428.0</ele>
        <time>2022-08-28T17:35:51Z</time>
      </trkpt>
      <trkpt lat="42.4353920" lon="-8.4569760">
        <ele>428.0</ele>
        <time>2022-08-28T17:35:57Z</time>
      </trkpt>
      <trkpt lat="42.4355430" lon="-8.4569520">
        <ele>428.0</ele>
        <time>2022-08-28T17:36:00Z</time>
      </trkpt>
      <trkpt lat="42.4357110" lon="-8.4568870">
        <ele>428.0</ele>
        <time>2022-08-28T17:36:03Z</time>
      </trkpt>
      <trkpt lat="42.4358190" lon="-8.4568160">
        <ele>428.0</ele>
        <time>2022-08-28T17:36:05Z</time>
      </trkpt>
      <trkpt lat="42.4359160" lon="-8.4567140">
        <ele>427.8</ele>
        <time>2022-08-28T17:36:07Z</time>
      </trkpt>
      <trkpt lat="42.4359920" lon="-8.4565840">
        <ele>427.6</ele>
        <time>2022-08-28T17:36:09Z</time>
      </trkpt>
      <trkpt lat="42.4360740" lon="-8.4564600">
        <ele>427.4</ele>
        <time>2022-08-28T17:36:11Z</time>
      </trkpt>
      <trkpt lat="42.4361280" lon="-8.4564080">
        <ele>427.0</ele>
        <time>2022-08-28T17:36:12Z</time>
      </trkpt>
      <trkpt lat="42.4363220" lon="-8.4563690">
        <ele>426.2</ele>
        <time>2022-08-28T17:36:15Z</time>
      </trkpt>
      <trkpt lat="42.4364510" lon="-8.4564840">
        <ele>425.8</ele>
        <time>2022-08-28T17:36:17Z</time>
      </trkpt>
      <trkpt lat="42.4365420" lon="-8.4567200">
        <ele>425.2</ele>
        <time>2022-08-28T17:36:20Z</time>
      </trkpt>
      <trkpt lat="42.4365560" lon="-8.4568010">
        <ele>425.0</ele>
        <time>2022-08-28T17:36:21Z</time>
      </trkpt>
      <trkpt lat="42.4365680" lon="-8.4569540">
        <ele>424.8</ele>
        <time>2022-08-28T17:36:23Z</time>
      </trkpt>
      <trkpt lat="42.4365800" lon="-8.4570220">
        <ele>424.8</ele>
        <time>2022-08-28T17:36:24Z</time>
      </trkpt>
      <trkpt lat="42.4366750" lon="-8.4572310">
        <ele>424.8</ele>
        <time>2022-08-28T17:36:28Z</time>
      </trkpt>
      <trkpt lat="42.4367050" lon="-8.4572610">
        <ele>424.8</ele>
        <time>2022-08-28T17:36:29Z</time>
      </trkpt>
      <trkpt lat="42.4368660" lon="-8.4573830">
        <ele>426.0</ele>
        <time>2022-08-28T17:36:35Z</time>
      </trkpt>
      <trkpt lat="42.4369570" lon="-8.4574570">
        <ele>427.2</ele>
        <time>2022-08-28T17:36:39Z</time>
      </trkpt>
      <trkpt lat="42.4370290" lon="-8.4575140">
        <ele>427.8</ele>
        <time>2022-08-28T17:36:42Z</time>
      </trkpt>
      <trkpt lat="42.4370980" lon="-8.4575700">
        <ele>428.4</ele>
        <time>2022-08-28T17:36:45Z</time>
      </trkpt>
      <trkpt lat="42.4371900" lon="-8.4576470">
        <ele>429.0</ele>
        <time>2022-08-28T17:36:49Z</time>
      </trkpt>
      <trkpt lat="42.4372110" lon="-8.4576630">
        <ele>429.4</ele>
        <time>2022-08-28T17:36:50Z</time>
      </trkpt>
      <trkpt lat="42.4373390" lon="-8.4577630">
        <ele>430.4</ele>
        <time>2022-08-28T17:36:56Z</time>
      </trkpt>
      <trkpt lat="42.4373600" lon="-8.4577780">
        <ele>430.4</ele>
        <time>2022-08-28T17:36:57Z</time>
      </trkpt>
      <trkpt lat="42.4374550" lon="-8.4578680">
        <ele>431.6</ele>
        <time>2022-08-28T17:37:02Z</time>
      </trkpt>
      <trkpt lat="42.4374850" lon="-8.4579040">
        <ele>431.8</ele>
        <time>2022-08-28T17:37:04Z</time>
      </trkpt>
      <trkpt lat="42.4375750" lon="-8.4580520">
        <ele>432.6</ele>
        <time>2022-08-28T17:37:10Z</time>
      </trkpt>
      <trkpt lat="42.4376170" lon="-8.4581930">
        <ele>433.2</ele>
        <time>2022-08-28T17:37:15Z</time>
      </trkpt>
      <trkpt lat="42.4376220" lon="-8.4582960">
        <ele>433.8</ele>
        <time>2022-08-28T17:37:18Z</time>
      </trkpt>
      <trkpt lat="42.4376080" lon="-8.4583960">
        <ele>434.2</ele>
        <time>2022-08-28T17:37:21Z</time>
      </trkpt>
      <trkpt lat="42.4375660" lon="-8.4585920">
        <ele>434.8</ele>
        <time>2022-08-28T17:37:27Z</time>
      </trkpt>
      <trkpt lat="42.4375510" lon="-8.4586560">
        <ele>435.0</ele>
        <time>2022-08-28T17:37:29Z</time>
      </trkpt>
      <trkpt lat="42.4375040" lon="-8.4588420">
        <ele>436.0</ele>
        <time>2022-08-28T17:37:35Z</time>
      </trkpt>
      <trkpt lat="42.4374820" lon="-8.4589360">
        <ele>436.2</ele>
        <time>2022-08-28T17:37:38Z</time>
      </trkpt>
      <trkpt lat="42.4375180" lon="-8.4591620">
        <ele>437.0</ele>
        <time>2022-08-28T17:37:45Z</time>
      </trkpt>
      <trkpt lat="42.4376440" lon="-8.4592970">
        <ele>438.0</ele>
        <time>2022-08-28T17:37:51Z</time>
      </trkpt>
      <trkpt lat="42.4376680" lon="-8.4593150">
        <ele>438.0</ele>
        <time>2022-08-28T17:37:52Z</time>
      </trkpt>
      <trkpt lat="42.4378440" lon="-8.4593930">
        <ele>439.0</ele>
        <time>2022-08-28T17:37:59Z</time>
      </trkpt>
      <trkpt lat="42.4378700" lon="-8.4594010">
        <ele>439.2</ele>
        <time>2022-08-28T17:38:00Z</time>
      </trkpt>
      <trkpt lat="42.4380740" lon="-8.4594560">
        <ele>440.4</ele>
        <time>2022-08-28T17:38:08Z</time>
      </trkpt>
      <trkpt lat="42.4382630" lon="-8.4595090">
        <ele>441.4</ele>
        <time>2022-08-28T17:38:15Z</time>
      </trkpt>
      <trkpt lat="42.4383160" lon="-8.4595240">
        <ele>441.8</ele>
        <time>2022-08-28T17:38:17Z</time>
      </trkpt>
      <trkpt lat="42.4385300" lon="-8.4595770">
        <ele>442.6</ele>
        <time>2022-08-28T17:38:25Z</time>
      </trkpt>
      <trkpt lat="42.4387220" lon="-8.4596310">
        <ele>443.6</ele>
        <time>2022-08-28T17:38:32Z</time>
      </trkpt>
      <trkpt lat="42.4389380" lon="-8.4596910">
        <ele>444.6</ele>
        <time>2022-08-28T17:38:40Z</time>
      </trkpt>
      <trkpt lat="42.4389650" lon="-8.4596970">
        <ele>444.8</ele>
        <time>2022-08-28T17:38:41Z</time>
      </trkpt>
      <trkpt lat="42.4391490" lon="-8.4597500">
        <ele>445.6</ele>
        <time>2022-08-28T17:38:48Z</time>
      </trkpt>
      <trkpt lat="42.4392060" lon="-8.4597660">
        <ele>446.0</ele>
        <time>2022-08-28T17:38:50Z</time>
      </trkpt>
      <trkpt lat="42.4394050" lon="-8.4598200">
        <ele>447.0</ele>
        <time>2022-08-28T17:38:57Z</time>
      </trkpt>
      <trkpt lat="42.4395990" lon="-8.4598870">
        <ele>448.0</ele>
        <time>2022-08-28T17:39:04Z</time>
      </trkpt>
      <trkpt lat="42.4398020" lon="-8.4599170">
        <ele>448.8</ele>
        <time>2022-08-28T17:39:11Z</time>
      </trkpt>
      <trkpt lat="42.4399070" lon="-8.4598770">
        <ele>449.2</ele>
        <time>2022-08-28T17:39:15Z</time>
      </trkpt>
      <trkpt lat="42.4399900" lon="-8.4598340">
        <ele>449.4</ele>
        <time>2022-08-28T17:39:18Z</time>
      </trkpt>
      <trkpt lat="42.4401330" lon="-8.4597580">
        <ele>450.2</ele>
        <time>2022-08-28T17:39:23Z</time>
      </trkpt>
      <trkpt lat="42.4403050" lon="-8.4596890">
        <ele>451.2</ele>
        <time>2022-08-28T17:39:29Z</time>
      </trkpt>
      <trkpt lat="42.4403330" lon="-8.4596870">
        <ele>451.4</ele>
        <time>2022-08-28T17:39:30Z</time>
      </trkpt>
      <trkpt lat="42.4405160" lon="-8.4597310">
        <ele>452.4</ele>
        <time>2022-08-28T17:39:37Z</time>
      </trkpt>
      <trkpt lat="42.4406790" lon="-8.4598890">
        <ele>453.4</ele>
        <time>2022-08-28T17:39:45Z</time>
      </trkpt>
      <trkpt lat="42.4406980" lon="-8.4599140">
        <ele>453.4</ele>
        <time>2022-08-28T17:39:46Z</time>
      </trkpt>
      <trkpt lat="42.4407950" lon="-8.4600650">
        <ele>454.4</ele>
        <time>2022-08-28T17:39:52Z</time>
      </trkpt>
      <trkpt lat="42.4408100" lon="-8.4600930">
        <ele>454.6</ele>
        <time>2022-08-28T17:39:53Z</time>
      </trkpt>
      <trkpt lat="42.4408640" lon="-8.4602470">
        <ele>455.6</ele>
        <time>2022-08-28T17:39:58Z</time>
      </trkpt>
      <trkpt lat="42.4408770" lon="-8.4603110">
        <ele>456.0</ele>
        <time>2022-08-28T17:40:00Z</time>
      </trkpt>
      <trkpt lat="42.4408980" lon="-8.4604090">
        <ele>456.6</ele>
        <time>2022-08-28T17:40:03Z</time>
      </trkpt>
      <trkpt lat="42.4409250" lon="-8.4605410">
        <ele>457.2</ele>
        <time>2022-08-28T17:40:07Z</time>
      </trkpt>
      <trkpt lat="42.4409310" lon="-8.4606050">
        <ele>457.6</ele>
        <time>2022-08-28T17:40:09Z</time>
      </trkpt>
      <trkpt lat="42.4409550" lon="-8.4607730">
        <ele>458.6</ele>
        <time>2022-08-28T17:40:14Z</time>
      </trkpt>
      <trkpt lat="42.4409690" lon="-8.4608450">
        <ele>458.6</ele>
        <time>2022-08-28T17:40:16Z</time>
      </trkpt>
      <trkpt lat="42.4410110" lon="-8.4610660">
        <ele>459.2</ele>
        <time>2022-08-28T17:40:22Z</time>
      </trkpt>
      <trkpt lat="42.4410420" lon="-8.4612190">
        <ele>459.6</ele>
        <time>2022-08-28T17:40:26Z</time>
      </trkpt>
      <trkpt lat="42.4410570" lon="-8.4613000">
        <ele>460.0</ele>
        <time>2022-08-28T17:40:28Z</time>
      </trkpt>
      <trkpt lat="42.4411190" lon="-8.4616790">
        <ele>460.6</ele>
        <time>2022-08-28T17:40:37Z</time>
      </trkpt>
      <trkpt lat="42.4411480" lon="-8.4618430">
        <ele>460.8</ele>
        <time>2022-08-28T17:40:41Z</time>
      </trkpt>
      <trkpt lat="42.4411850" lon="-8.4620950">
        <ele>461.2</ele>
        <time>2022-08-28T17:40:47Z</time>
      </trkpt>
      <trkpt lat="42.4412380" lon="-8.4623700">
        <ele>461.8</ele>
        <time>2022-08-28T17:40:54Z</time>
      </trkpt>
      <trkpt lat="42.4412900" lon="-8.4626760">
        <ele>462.6</ele>
        <time>2022-08-28T17:41:01Z</time>
      </trkpt>
      <trkpt lat="42.4413140" lon="-8.4628060">
        <ele>462.8</ele>
        <time>2022-08-28T17:41:04Z</time>
      </trkpt>
      <trkpt lat="42.4413540" lon="-8.4630370">
        <ele>463.4</ele>
        <time>2022-08-28T17:41:10Z</time>
      </trkpt>
      <trkpt lat="42.4413780" lon="-8.4631920">
        <ele>464.0</ele>
        <time>2022-08-28T17:41:14Z</time>
      </trkpt>
      <trkpt lat="42.4414100" lon="-8.4634050">
        <ele>464.8</ele>
        <time>2022-08-28T17:41:20Z</time>
      </trkpt>
      <trkpt lat="42.4414220" lon="-8.4634720">
        <ele>465.0</ele>
        <time>2022-08-28T17:41:22Z</time>
      </trkpt>
      <trkpt lat="42.4414510" lon="-8.4636320">
        <ele>466.2</ele>
        <time>2022-08-28T17:41:27Z</time>
      </trkpt>
      <trkpt lat="42.4414610" lon="-8.4636970">
        <ele>466.6</ele>
        <time>2022-08-28T17:41:29Z</time>
      </trkpt>
      <trkpt lat="42.4414750" lon="-8.4638000">
        <ele>467.2</ele>
        <time>2022-08-28T17:41:32Z</time>
      </trkpt>
      <trkpt lat="42.4415070" lon="-8.4640270">
        <ele>467.8</ele>
        <time>2022-08-28T17:41:38Z</time>
      </trkpt>
      <trkpt lat="42.4415290" lon="-8.4641470">
        <ele>468.2</ele>
        <time>2022-08-28T17:41:41Z</time>
      </trkpt>
      <trkpt lat="42.4415630" lon="-8.4643450">
        <ele>468.6</ele>
        <time>2022-08-28T17:41:46Z</time>
      </trkpt>
      <trkpt lat="42.4416040" lon="-8.4645740">
        <ele>469.2</ele>
        <time>2022-08-28T17:41:52Z</time>
      </trkpt>
      <trkpt lat="42.4416250" lon="-8.4646910">
        <ele>469.8</ele>
        <time>2022-08-28T17:41:55Z</time>
      </trkpt>
      <trkpt lat="42.4416290" lon="-8.4648800">
        <ele>470.2</ele>
        <time>2022-08-28T17:42:00Z</time>
      </trkpt>
      <trkpt lat="42.4416080" lon="-8.4649890">
        <ele>470.6</ele>
        <time>2022-08-28T17:42:03Z</time>
      </trkpt>
      <trkpt lat="42.4415820" lon="-8.4651210">
        <ele>471.0</ele>
        <time>2022-08-28T17:42:07Z</time>
      </trkpt>
      <trkpt lat="42.4415510" lon="-8.4652070">
        <ele>471.4</ele>
        <time>2022-08-28T17:42:10Z</time>
      </trkpt>
      <trkpt lat="42.4414750" lon="-8.4653280">
        <ele>472.2</ele>
        <time>2022-08-28T17:42:15Z</time>
      </trkpt>
      <trkpt lat="42.4414630" lon="-8.4653500">
        <ele>472.4</ele>
        <time>2022-08-28T17:42:16Z</time>
      </trkpt>
      <trkpt lat="42.4413660" lon="-8.4654260">
        <ele>473.0</ele>
        <time>2022-08-28T17:42:21Z</time>
      </trkpt>
      <trkpt lat="42.4413250" lon="-8.4654570">
        <ele>473.2</ele>
        <time>2022-08-28T17:42:23Z</time>
      </trkpt>
      <trkpt lat="42.4412290" lon="-8.4654920">
        <ele>473.8</ele>
        <time>2022-08-28T17:42:27Z</time>
      </trkpt>
      <trkpt lat="42.4411580" lon="-8.4655120">
        <ele>474.2</ele>
        <time>2022-08-28T17:42:30Z</time>
      </trkpt>
      <trkpt lat="42.4410660" lon="-8.4655340">
        <ele>474.8</ele>
        <time>2022-08-28T17:42:34Z</time>
      </trkpt>
      <trkpt lat="42.4410140" lon="-8.4655460">
        <ele>475.4</ele>
        <time>2022-08-28T17:42:36Z</time>
      </trkpt>
      <trkpt lat="42.4408600" lon="-8.4656130">
        <ele>476.0</ele>
        <time>2022-08-28T17:42:42Z</time>
      </trkpt>
      <trkpt lat="42.4407990" lon="-8.4656770">
        <ele>476.4</ele>
        <time>2022-08-28T17:42:45Z</time>
      </trkpt>
      <trkpt lat="42.4407380" lon="-8.4657940">
        <ele>477.2</ele>
        <time>2022-08-28T17:42:49Z</time>
      </trkpt>
      <trkpt lat="42.4407190" lon="-8.4658550">
        <ele>477.4</ele>
        <time>2022-08-28T17:42:51Z</time>
      </trkpt>
      <trkpt lat="42.4406960" lon="-8.4659750">
        <ele>478.4</ele>
        <time>2022-08-28T17:42:55Z</time>
      </trkpt>
      <trkpt lat="42.4406910" lon="-8.4660380">
        <ele>478.8</ele>
        <time>2022-08-28T17:42:57Z</time>
      </trkpt>
      <trkpt lat="42.4406760" lon="-8.4662290">
        <ele>479.4</ele>
        <time>2022-08-28T17:43:03Z</time>
      </trkpt>
      <trkpt lat="42.4406640" lon="-8.4662960">
        <ele>479.8</ele>
        <time>2022-08-28T17:43:05Z</time>
      </trkpt>
      <trkpt lat="42.4406660" lon="-8.4664610">
        <ele>480.4</ele>
        <time>2022-08-28T17:43:10Z</time>
      </trkpt>
      <trkpt lat="42.4406820" lon="-8.4665590">
        <ele>480.8</ele>
        <time>2022-08-28T17:43:13Z</time>
      </trkpt>
      <trkpt lat="42.4407230" lon="-8.4667180">
        <ele>481.6</ele>
        <time>2022-08-28T17:43:18Z</time>
      </trkpt>
      <trkpt lat="42.4407470" lon="-8.4668110">
        <ele>481.8</ele>
        <time>2022-08-28T17:43:21Z</time>
      </trkpt>
      <trkpt lat="42.4407820" lon="-8.4669320">
        <ele>482.6</ele>
        <time>2022-08-28T17:43:25Z</time>
      </trkpt>
      <trkpt lat="42.4408090" lon="-8.4670550">
        <ele>483.2</ele>
        <time>2022-08-28T17:43:29Z</time>
      </trkpt>
      <trkpt lat="42.4408460" lon="-8.4671710">
        <ele>483.6</ele>
        <time>2022-08-28T17:43:33Z</time>
      </trkpt>
      <trkpt lat="42.4408890" lon="-8.4673000">
        <ele>484.4</ele>
        <time>2022-08-28T17:43:38Z</time>
      </trkpt>
      <trkpt lat="42.4409040" lon="-8.4673490">
        <ele>484.8</ele>
        <time>2022-08-28T17:43:40Z</time>
      </trkpt>
      <trkpt lat="42.4409520" lon="-8.4674780">
        <ele>485.2</ele>
        <time>2022-08-28T17:43:45Z</time>
      </trkpt>
      <trkpt lat="42.4409990" lon="-8.4675920">
        <ele>485.8</ele>
        <time>2022-08-28T17:43:49Z</time>
      </trkpt>
      <trkpt lat="42.4410230" lon="-8.4676470">
        <ele>486.0</ele>
        <time>2022-08-28T17:43:51Z</time>
      </trkpt>
      <trkpt lat="42.4410940" lon="-8.4678030">
        <ele>487.0</ele>
        <time>2022-08-28T17:43:57Z</time>
      </trkpt>
      <trkpt lat="42.4411700" lon="-8.4679460">
        <ele>488.2</ele>
        <time>2022-08-28T17:44:03Z</time>
      </trkpt>
      <trkpt lat="42.4412050" lon="-8.4679900">
        <ele>488.4</ele>
        <time>2022-08-28T17:44:05Z</time>
      </trkpt>
      <trkpt lat="42.4413680" lon="-8.4681460">
        <ele>489.2</ele>
        <time>2022-08-28T17:44:13Z</time>
      </trkpt>
      <trkpt lat="42.4414110" lon="-8.4681790">
        <ele>489.6</ele>
        <time>2022-08-28T17:44:15Z</time>
      </trkpt>
      <trkpt lat="42.4415270" lon="-8.4682470">
        <ele>490.4</ele>
        <time>2022-08-28T17:44:20Z</time>
      </trkpt>
      <trkpt lat="42.4416030" lon="-8.4682660">
        <ele>491.2</ele>
        <time>2022-08-28T17:44:23Z</time>
      </trkpt>
      <trkpt lat="42.4416780" lon="-8.4682760">
        <ele>491.6</ele>
        <time>2022-08-28T17:44:26Z</time>
      </trkpt>
      <trkpt lat="42.4417700" lon="-8.4682760">
        <ele>492.2</ele>
        <time>2022-08-28T17:44:30Z</time>
      </trkpt>
      <trkpt lat="42.4418150" lon="-8.4682730">
        <ele>492.6</ele>
        <time>2022-08-28T17:44:32Z</time>
      </trkpt>
      <trkpt lat="42.4419550" lon="-8.4682490">
        <ele>493.6</ele>
        <time>2022-08-28T17:44:38Z</time>
      </trkpt>
      <trkpt lat="42.4419770" lon="-8.4682380">
        <ele>493.8</ele>
        <time>2022-08-28T17:44:39Z</time>
      </trkpt>
      <trkpt lat="42.4421280" lon="-8.4681660">
        <ele>494.8</ele>
        <time>2022-08-28T17:44:46Z</time>
      </trkpt>
      <trkpt lat="42.4421510" lon="-8.4681540">
        <ele>494.8</ele>
        <time>2022-08-28T17:44:47Z</time>
      </trkpt>
      <trkpt lat="42.4423150" lon="-8.4680530">
        <ele>495.6</ele>
        <time>2022-08-28T17:44:54Z</time>
      </trkpt>
      <trkpt lat="42.4423860" lon="-8.4680050">
        <ele>495.8</ele>
        <time>2022-08-28T17:44:57Z</time>
      </trkpt>
      <trkpt lat="42.4424900" lon="-8.4679090">
        <ele>496.6</ele>
        <time>2022-08-28T17:45:02Z</time>
      </trkpt>
      <trkpt lat="42.4425750" lon="-8.4678500">
        <ele>497.0</ele>
        <time>2022-08-28T17:45:06Z</time>
      </trkpt>
      <trkpt lat="42.4426450" lon="-8.4678030">
        <ele>497.4</ele>
        <time>2022-08-28T17:45:09Z</time>
      </trkpt>
      <trkpt lat="42.4427410" lon="-8.4677540">
        <ele>498.0</ele>
        <time>2022-08-28T17:45:13Z</time>
      </trkpt>
      <trkpt lat="42.4428080" lon="-8.4677360">
        <ele>498.4</ele>
        <time>2022-08-28T17:45:16Z</time>
      </trkpt>
      <trkpt lat="42.4429030" lon="-8.4677190">
        <ele>499.2</ele>
        <time>2022-08-28T17:45:20Z</time>
      </trkpt>
      <trkpt lat="42.4429860" lon="-8.4677070">
        <ele>499.6</ele>
        <time>2022-08-28T17:45:23Z</time>
      </trkpt>
      <trkpt lat="42.4431010" lon="-8.4677040">
        <ele>500.0</ele>
        <time>2022-08-28T17:45:27Z</time>
      </trkpt>
      <trkpt lat="42.4431320" lon="-8.4677060">
        <ele>500.2</ele>
        <time>2022-08-28T17:45:28Z</time>
      </trkpt>
      <trkpt lat="42.4432920" lon="-8.4677410">
        <ele>501.0</ele>
        <time>2022-08-28T17:45:34Z</time>
      </trkpt>
      <trkpt lat="42.4433430" lon="-8.4677580">
        <ele>501.4</ele>
        <time>2022-08-28T17:45:36Z</time>
      </trkpt>
      <trkpt lat="42.4434870" lon="-8.4678110">
        <ele>502.2</ele>
        <time>2022-08-28T17:45:41Z</time>
      </trkpt>
      <trkpt lat="42.4435140" lon="-8.4678220">
        <ele>502.4</ele>
        <time>2022-08-28T17:45:42Z</time>
      </trkpt>
      <trkpt lat="42.4436390" lon="-8.4678890">
        <ele>503.4</ele>
        <time>2022-08-28T17:45:47Z</time>
      </trkpt>
      <trkpt lat="42.4436820" lon="-8.4679180">
        <ele>503.8</ele>
        <time>2022-08-28T17:45:49Z</time>
      </trkpt>
      <trkpt lat="42.4437960" lon="-8.4679840">
        <ele>504.6</ele>
        <time>2022-08-28T17:45:54Z</time>
      </trkpt>
      <trkpt lat="42.4438170" lon="-8.4679980">
        <ele>504.6</ele>
        <time>2022-08-28T17:45:55Z</time>
      </trkpt>
      <trkpt lat="42.4439410" lon="-8.4680790">
        <ele>505.6</ele>
        <time>2022-08-28T17:46:01Z</time>
      </trkpt>
      <trkpt lat="42.4439970" lon="-8.4681270">
        <ele>506.0</ele>
        <time>2022-08-28T17:46:04Z</time>
      </trkpt>
      <trkpt lat="42.4440550" lon="-8.4681730">
        <ele>506.6</ele>
        <time>2022-08-28T17:46:07Z</time>
      </trkpt>
      <trkpt lat="42.4441690" lon="-8.4682560">
        <ele>507.2</ele>
        <time>2022-08-28T17:46:12Z</time>
      </trkpt>
      <trkpt lat="42.4442300" lon="-8.4683150">
        <ele>507.8</ele>
        <time>2022-08-28T17:46:15Z</time>
      </trkpt>
      <trkpt lat="42.4443250" lon="-8.4684130">
        <ele>508.6</ele>
        <time>2022-08-28T17:46:20Z</time>
      </trkpt>
      <trkpt lat="42.4443420" lon="-8.4684360">
        <ele>508.8</ele>
        <time>2022-08-28T17:46:21Z</time>
      </trkpt>
      <trkpt lat="42.4444410" lon="-8.4685860">
        <ele>510.0</ele>
        <time>2022-08-28T17:46:28Z</time>
      </trkpt>
      <trkpt lat="42.4444530" lon="-8.4686130">
        <ele>510.0</ele>
        <time>2022-08-28T17:46:29Z</time>
      </trkpt>
      <trkpt lat="42.4445240" lon="-8.4687720">
        <ele>511.0</ele>
        <time>2022-08-28T17:46:35Z</time>
      </trkpt>
      <trkpt lat="42.4445380" lon="-8.4687990">
        <ele>511.0</ele>
        <time>2022-08-28T17:46:36Z</time>
      </trkpt>
      <trkpt lat="42.4446190" lon="-8.4689970">
        <ele>511.8</ele>
        <time>2022-08-28T17:46:43Z</time>
      </trkpt>
      <trkpt lat="42.4446310" lon="-8.4690240">
        <ele>512.0</ele>
        <time>2022-08-28T17:46:44Z</time>
      </trkpt>
      <trkpt lat="42.4447270" lon="-8.4692460">
        <ele>513.0</ele>
        <time>2022-08-28T17:46:52Z</time>
      </trkpt>
      <trkpt lat="42.4448110" lon="-8.4693620">
        <ele>514.2</ele>
        <time>2022-08-28T17:46:57Z</time>
      </trkpt>
      <trkpt lat="42.4448270" lon="-8.4693840">
        <ele>514.4</ele>
        <time>2022-08-28T17:46:58Z</time>
      </trkpt>
      <trkpt lat="42.4449150" lon="-8.4695000">
        <ele>515.2</ele>
        <time>2022-08-28T17:47:03Z</time>
      </trkpt>
      <trkpt lat="42.4449690" lon="-8.4695670">
        <ele>515.8</ele>
        <time>2022-08-28T17:47:06Z</time>
      </trkpt>
      <trkpt lat="42.4450350" lon="-8.4696470">
        <ele>516.4</ele>
        <time>2022-08-28T17:47:10Z</time>
      </trkpt>
      <trkpt lat="42.4450880" lon="-8.4697030">
        <ele>516.6</ele>
        <time>2022-08-28T17:47:13Z</time>
      </trkpt>
      <trkpt lat="42.4451350" lon="-8.4697610">
        <ele>517.2</ele>
        <time>2022-08-28T17:47:16Z</time>
      </trkpt>
      <trkpt lat="42.4452010" lon="-8.4698480">
        <ele>518.0</ele>
        <time>2022-08-28T17:47:20Z</time>
      </trkpt>
      <trkpt lat="42.4452400" lon="-8.4699230">
        <ele>518.2</ele>
        <time>2022-08-28T17:47:23Z</time>
      </trkpt>
      <trkpt lat="42.4452670" lon="-8.4700120">
        <ele>518.8</ele>
        <time>2022-08-28T17:47:26Z</time>
      </trkpt>
      <trkpt lat="42.4452800" lon="-8.4701510">
        <ele>519.4</ele>
        <time>2022-08-28T17:47:30Z</time>
      </trkpt>
      <trkpt lat="42.4452780" lon="-8.4702580">
        <ele>519.6</ele>
        <time>2022-08-28T17:47:33Z</time>
      </trkpt>
      <trkpt lat="42.4452750" lon="-8.4704270">
        <ele>520.4</ele>
        <time>2022-08-28T17:47:38Z</time>
      </trkpt>
      <trkpt lat="42.4452980" lon="-8.4705210">
        <ele>521.0</ele>
        <time>2022-08-28T17:47:41Z</time>
      </trkpt>
      <trkpt lat="42.4453490" lon="-8.4706030">
        <ele>521.6</ele>
        <time>2022-08-28T17:47:44Z</time>
      </trkpt>
      <trkpt lat="42.4454100" lon="-8.4706670">
        <ele>522.2</ele>
        <time>2022-08-28T17:47:47Z</time>
      </trkpt>
      <trkpt lat="42.4454500" lon="-8.4707140">
        <ele>522.6</ele>
        <time>2022-08-28T17:47:49Z</time>
      </trkpt>
      <trkpt lat="42.4455670" lon="-8.4708550">
        <ele>523.6</ele>
        <time>2022-08-28T17:47:55Z</time>
      </trkpt>
      <trkpt lat="42.4455880" lon="-8.4708770">
        <ele>523.6</ele>
        <time>2022-08-28T17:47:56Z</time>
      </trkpt>
      <trkpt lat="42.4457220" lon="-8.4710100">
        <ele>524.8</ele>
        <time>2022-08-28T17:48:02Z</time>
      </trkpt>
      <trkpt lat="42.4458730" lon="-8.4711770">
        <ele>525.8</ele>
        <time>2022-08-28T17:48:09Z</time>
      </trkpt>
      <trkpt lat="42.4459980" lon="-8.4713300">
        <ele>526.8</ele>
        <time>2022-08-28T17:48:15Z</time>
      </trkpt>
      <trkpt lat="42.4460180" lon="-8.4713550">
        <ele>526.8</ele>
        <time>2022-08-28T17:48:16Z</time>
      </trkpt>
      <trkpt lat="42.4462010" lon="-8.4715490">
        <ele>527.6</ele>
        <time>2022-08-28T17:48:24Z</time>
      </trkpt>
      <trkpt lat="42.4463700" lon="-8.4716930">
        <ele>528.8</ele>
        <time>2022-08-28T17:48:31Z</time>
      </trkpt>
      <trkpt lat="42.4464440" lon="-8.4717290">
        <ele>529.4</ele>
        <time>2022-08-28T17:48:34Z</time>
      </trkpt>
      <trkpt lat="42.4464930" lon="-8.4717470">
        <ele>529.8</ele>
        <time>2022-08-28T17:48:36Z</time>
      </trkpt>
      <trkpt lat="42.4466260" lon="-8.4717560">
        <ele>530.6</ele>
        <time>2022-08-28T17:48:41Z</time>
      </trkpt>
      <trkpt lat="42.4466770" lon="-8.4717520">
        <ele>530.8</ele>
        <time>2022-08-28T17:48:43Z</time>
      </trkpt>
      <trkpt lat="42.4468430" lon="-8.4717420">
        <ele>532.0</ele>
        <time>2022-08-28T17:48:49Z</time>
      </trkpt>
      <trkpt lat="42.4469960" lon="-8.4717040">
        <ele>533.0</ele>
        <time>2022-08-28T17:48:55Z</time>
      </trkpt>
      <trkpt lat="42.4470220" lon="-8.4717070">
        <ele>533.2</ele>
        <time>2022-08-28T17:48:56Z</time>
      </trkpt>
      <trkpt lat="42.4471470" lon="-8.4717140">
        <ele>534.0</ele>
        <time>2022-08-28T17:49:01Z</time>
      </trkpt>
      <trkpt lat="42.4472310" lon="-8.4717230">
        <ele>534.6</ele>
        <time>2022-08-28T17:49:04Z</time>
      </trkpt>
      <trkpt lat="42.4473870" lon="-8.4717300">
        <ele>535.0</ele>
        <time>2022-08-28T17:49:09Z</time>
      </trkpt>
      <trkpt lat="42.4474210" lon="-8.4717320">
        <ele>535.2</ele>
        <time>2022-08-28T17:49:10Z</time>
      </trkpt>
      <trkpt lat="42.4477140" lon="-8.4717600">
        <ele>535.0</ele>
        <time>2022-08-28T17:49:17Z</time>
      </trkpt>
      <trkpt lat="42.4478210" lon="-8.4717870">
        <ele>534.6</ele>
        <time>2022-08-28T17:49:19Z</time>
      </trkpt>
      <trkpt lat="42.4479920" lon="-8.4718430">
        <ele>534.2</ele>
        <time>2022-08-28T17:49:22Z</time>
      </trkpt>
      <trkpt lat="42.4480490" lon="-8.4718630">
        <ele>534.0</ele>
        <time>2022-08-28T17:49:23Z</time>
      </trkpt>
      <trkpt lat="42.4483390" lon="-8.4719280">
        <ele>533.2</ele>
        <time>2022-08-28T17:49:27Z</time>
      </trkpt>
      <trkpt lat="42.4484210" lon="-8.4719480">
        <ele>532.8</ele>
        <time>2022-08-28T17:49:28Z</time>
      </trkpt>
      <trkpt lat="42.4486730" lon="-8.4720320">
        <ele>531.8</ele>
        <time>2022-08-28T17:49:31Z</time>
      </trkpt>
      <trkpt lat="42.4489390" lon="-8.4721060">
        <ele>530.6</ele>
        <time>2022-08-28T17:49:34Z</time>
      </trkpt>
      <trkpt lat="42.4491160" lon="-8.4721690">
        <ele>530.0</ele>
        <time>2022-08-28T17:49:36Z</time>
      </trkpt>
      <trkpt lat="42.4492050" lon="-8.4722290">
        <ele>529.4</ele>
        <time>2022-08-28T17:49:37Z</time>
      </trkpt>
      <trkpt lat="42.4492870" lon="-8.4723010">
        <ele>529.0</ele>
        <time>2022-08-28T17:49:38Z</time>
      </trkpt>
      <trkpt lat="42.4494340" lon="-8.4724990">
        <ele>528.0</ele>
        <time>2022-08-28T17:49:40Z</time>
      </trkpt>
      <trkpt lat="42.4494810" lon="-8.4726080">
        <ele>527.8</ele>
        <time>2022-08-28T17:49:41Z</time>
      </trkpt>
      <trkpt lat="42.4495100" lon="-8.4728470">
        <ele>526.4</ele>
        <time>2022-08-28T17:49:43Z</time>
      </trkpt>
      <trkpt lat="42.4494470" lon="-8.4730690">
        <ele>525.4</ele>
        <time>2022-08-28T17:49:45Z</time>
      </trkpt>
      <trkpt lat="42.4493940" lon="-8.4731700">
        <ele>524.8</ele>
        <time>2022-08-28T17:49:46Z</time>
      </trkpt>
      <trkpt lat="42.4493370" lon="-8.4732640">
        <ele>524.2</ele>
        <time>2022-08-28T17:49:47Z</time>
      </trkpt>
      <trkpt lat="42.4492780" lon="-8.4733590">
        <ele>523.4</ele>
        <time>2022-08-28T17:49:48Z</time>
      </trkpt>
      <trkpt lat="42.4492170" lon="-8.4734640">
        <ele>522.6</ele>
        <time>2022-08-28T17:49:49Z</time>
      </trkpt>
      <trkpt lat="42.4491700" lon="-8.4735780">
        <ele>522.0</ele>
        <time>2022-08-28T17:49:50Z</time>
      </trkpt>
      <trkpt lat="42.4491360" lon="-8.4737010">
        <ele>521.2</ele>
        <time>2022-08-28T17:49:51Z</time>
      </trkpt>
      <trkpt lat="42.4490890" lon="-8.4739710">
        <ele>520.0</ele>
        <time>2022-08-28T17:49:53Z</time>
      </trkpt>
      <trkpt lat="42.4490430" lon="-8.4742480">
        <ele>518.4</ele>
        <time>2022-08-28T17:49:55Z</time>
      </trkpt>
      <trkpt lat="42.4490140" lon="-8.4745290">
        <ele>517.0</ele>
        <time>2022-08-28T17:49:57Z</time>
      </trkpt>
      <trkpt lat="42.4490050" lon="-8.4748030">
        <ele>516.0</ele>
        <time>2022-08-28T17:49:59Z</time>
      </trkpt>
      <trkpt lat="42.4490670" lon="-8.4750520">
        <ele>514.8</ele>
        <time>2022-08-28T17:50:01Z</time>
      </trkpt>
      <trkpt lat="42.4491260" lon="-8.4751330">
        <ele>513.8</ele>
        <time>2022-08-28T17:50:02Z</time>
      </trkpt>
      <trkpt lat="42.4492010" lon="-8.4751820">
        <ele>513.2</ele>
        <time>2022-08-28T17:50:03Z</time>
      </trkpt>
      <trkpt lat="42.4492820" lon="-8.4751700">
        <ele>512.4</ele>
        <time>2022-08-28T17:50:04Z</time>
      </trkpt>
      <trkpt lat="42.4493420" lon="-8.4751030">
        <ele>511.8</ele>
        <time>2022-08-28T17:50:05Z</time>
      </trkpt>
      <trkpt lat="42.4493890" lon="-8.4750150">
        <ele>511.2</ele>
        <time>2022-08-28T17:50:06Z</time>
      </trkpt>
      <trkpt lat="42.4494460" lon="-8.4749200">
        <ele>510.8</ele>
        <time>2022-08-28T17:50:07Z</time>
      </trkpt>
      <trkpt lat="42.4496750" lon="-8.4746670">
        <ele>509.4</ele>
        <time>2022-08-28T17:50:10Z</time>
      </trkpt>
      <trkpt lat="42.4498410" lon="-8.4745240">
        <ele>507.6</ele>
        <time>2022-08-28T17:50:12Z</time>
      </trkpt>
      <trkpt lat="42.4499240" lon="-8.4744750">
        <ele>506.0</ele>
        <time>2022-08-28T17:50:13Z</time>
      </trkpt>
      <trkpt lat="42.4500190" lon="-8.4744380">
        <ele>505.8</ele>
        <time>2022-08-28T17:50:14Z</time>
      </trkpt>
      <trkpt lat="42.4502160" lon="-8.4744050">
        <ele>505.2</ele>
        <time>2022-08-28T17:50:16Z</time>
      </trkpt>
      <trkpt lat="42.4503140" lon="-8.4743970">
        <ele>504.8</ele>
        <time>2022-08-28T17:50:17Z</time>
      </trkpt>
      <trkpt lat="42.4504130" lon="-8.4743940">
        <ele>504.2</ele>
        <time>2022-08-28T17:50:18Z</time>
      </trkpt>
      <trkpt lat="42.4505130" lon="-8.4743950">
        <ele>503.4</ele>
        <time>2022-08-28T17:50:19Z</time>
      </trkpt>
      <trkpt lat="42.4507120" lon="-8.4744070">
        <ele>502.2</ele>
        <time>2022-08-28T17:50:21Z</time>
      </trkpt>
      <trkpt lat="42.4509210" lon="-8.4744330">
        <ele>500.8</ele>
        <time>2022-08-28T17:50:23Z</time>
      </trkpt>
      <trkpt lat="42.4512430" lon="-8.4744890">
        <ele>499.6</ele>
        <time>2022-08-28T17:50:26Z</time>
      </trkpt>
      <trkpt lat="42.4513470" lon="-8.4745150">
        <ele>499.0</ele>
        <time>2022-08-28T17:50:27Z</time>
      </trkpt>
      <trkpt lat="42.4514590" lon="-8.4745620">
        <ele>498.4</ele>
        <time>2022-08-28T17:50:28Z</time>
      </trkpt>
      <trkpt lat="42.4516600" lon="-8.4746840">
        <ele>497.2</ele>
        <time>2022-08-28T17:50:30Z</time>
      </trkpt>
      <trkpt lat="42.4517500" lon="-8.4747580">
        <ele>496.4</ele>
        <time>2022-08-28T17:50:31Z</time>
      </trkpt>
      <trkpt lat="42.4518410" lon="-8.4748220">
        <ele>495.8</ele>
        <time>2022-08-28T17:50:32Z</time>
      </trkpt>
      <trkpt lat="42.4520380" lon="-8.4748750">
        <ele>494.4</ele>
        <time>2022-08-28T17:50:34Z</time>
      </trkpt>
      <trkpt lat="42.4522520" lon="-8.4747860">
        <ele>493.0</ele>
        <time>2022-08-28T17:50:36Z</time>
      </trkpt>
      <trkpt lat="42.4523550" lon="-8.4747390">
        <ele>492.2</ele>
        <time>2022-08-28T17:50:37Z</time>
      </trkpt>
      <trkpt lat="42.4524640" lon="-8.4746880">
        <ele>491.4</ele>
        <time>2022-08-28T17:50:38Z</time>
      </trkpt>
      <trkpt lat="42.4527760" lon="-8.4744820">
        <ele>489.8</ele>
        <time>2022-08-28T17:50:41Z</time>
      </trkpt>
      <trkpt lat="42.4528610" lon="-8.4743890">
        <ele>488.0</ele>
        <time>2022-08-28T17:50:42Z</time>
      </trkpt>
      <trkpt lat="42.4530280" lon="-8.4741820">
        <ele>486.8</ele>
        <time>2022-08-28T17:50:44Z</time>
      </trkpt>
      <trkpt lat="42.4531770" lon="-8.4739490">
        <ele>485.4</ele>
        <time>2022-08-28T17:50:46Z</time>
      </trkpt>
      <trkpt lat="42.4533350" lon="-8.4737040">
        <ele>484.0</ele>
        <time>2022-08-28T17:50:48Z</time>
      </trkpt>
      <trkpt lat="42.4534910" lon="-8.4734670">
        <ele>482.2</ele>
        <time>2022-08-28T17:50:50Z</time>
      </trkpt>
      <trkpt lat="42.4536330" lon="-8.4732350">
        <ele>481.0</ele>
        <time>2022-08-28T17:50:52Z</time>
      </trkpt>
      <trkpt lat="42.4537060" lon="-8.4731220">
        <ele>480.4</ele>
        <time>2022-08-28T17:50:53Z</time>
      </trkpt>
      <trkpt lat="42.4538560" lon="-8.4729100">
        <ele>479.8</ele>
        <time>2022-08-28T17:50:55Z</time>
      </trkpt>
      <trkpt lat="42.4539410" lon="-8.4728190">
        <ele>479.2</ele>
        <time>2022-08-28T17:50:56Z</time>
      </trkpt>
      <trkpt lat="42.4540300" lon="-8.4727480">
        <ele>478.2</ele>
        <time>2022-08-28T17:50:57Z</time>
      </trkpt>
      <trkpt lat="42.4543410" lon="-8.4726630">
        <ele>476.8</ele>
        <time>2022-08-28T17:51:00Z</time>
      </trkpt>
      <trkpt lat="42.4545530" lon="-8.4726300">
        <ele>475.4</ele>
        <time>2022-08-28T17:51:02Z</time>
      </trkpt>
      <trkpt lat="42.4547710" lon="-8.4726030">
        <ele>474.4</ele>
        <time>2022-08-28T17:51:04Z</time>
      </trkpt>
      <trkpt lat="42.4550790" lon="-8.4725410">
        <ele>473.2</ele>
        <time>2022-08-28T17:51:07Z</time>
      </trkpt>
      <trkpt lat="42.4552510" lon="-8.4723920">
        <ele>472.2</ele>
        <time>2022-08-28T17:51:09Z</time>
      </trkpt>
      <trkpt lat="42.4553750" lon="-8.4721650">
        <ele>470.6</ele>
        <time>2022-08-28T17:51:11Z</time>
      </trkpt>
      <trkpt lat="42.4554330" lon="-8.4720490">
        <ele>469.2</ele>
        <time>2022-08-28T17:51:12Z</time>
      </trkpt>
      <trkpt lat="42.4554920" lon="-8.4719330">
        <ele>468.4</ele>
        <time>2022-08-28T17:51:13Z</time>
      </trkpt>
      <trkpt lat="42.4555530" lon="-8.4718170">
        <ele>468.0</ele>
        <time>2022-08-28T17:51:14Z</time>
      </trkpt>
      <trkpt lat="42.4556760" lon="-8.4715830">
        <ele>467.0</ele>
        <time>2022-08-28T17:51:16Z</time>
      </trkpt>
      <trkpt lat="42.4557990" lon="-8.4713480">
        <ele>465.6</ele>
        <time>2022-08-28T17:51:18Z</time>
      </trkpt>
      <trkpt lat="42.4559270" lon="-8.4711250">
        <ele>464.0</ele>
        <time>2022-08-28T17:51:20Z</time>
      </trkpt>
      <trkpt lat="42.4559980" lon="-8.4710240">
        <ele>463.6</ele>
        <time>2022-08-28T17:51:21Z</time>
      </trkpt>
      <trkpt lat="42.4560750" lon="-8.4709330">
        <ele>463.0</ele>
        <time>2022-08-28T17:51:22Z</time>
      </trkpt>
      <trkpt lat="42.4561570" lon="-8.4708480">
        <ele>462.4</ele>
        <time>2022-08-28T17:51:23Z</time>
      </trkpt>
      <trkpt lat="42.4563240" lon="-8.4706790">
        <ele>461.0</ele>
        <time>2022-08-28T17:51:25Z</time>
      </trkpt>
      <trkpt lat="42.4565800" lon="-8.4704180">
        <ele>459.6</ele>
        <time>2022-08-28T17:51:28Z</time>
      </trkpt>
      <trkpt lat="42.4567530" lon="-8.4702400">
        <ele>458.8</ele>
        <time>2022-08-28T17:51:30Z</time>
      </trkpt>
      <trkpt lat="42.4568450" lon="-8.4701500">
        <ele>458.2</ele>
        <time>2022-08-28T17:51:31Z</time>
      </trkpt>
      <trkpt lat="42.4571230" lon="-8.4698760">
        <ele>457.0</ele>
        <time>2022-08-28T17:51:34Z</time>
      </trkpt>
      <trkpt lat="42.4573060" lon="-8.4696890">
        <ele>456.0</ele>
        <time>2022-08-28T17:51:36Z</time>
      </trkpt>
      <trkpt lat="42.4573960" lon="-8.4695890">
        <ele>455.6</ele>
        <time>2022-08-28T17:51:37Z</time>
      </trkpt>
      <trkpt lat="42.4574780" lon="-8.4694800">
        <ele>454.8</ele>
        <time>2022-08-28T17:51:38Z</time>
      </trkpt>
      <trkpt lat="42.4575550" lon="-8.4693650">
        <ele>453.8</ele>
        <time>2022-08-28T17:51:39Z</time>
      </trkpt>
      <trkpt lat="42.4576780" lon="-8.4691000">
        <ele>452.2</ele>
        <time>2022-08-28T17:51:41Z</time>
      </trkpt>
      <trkpt lat="42.4577130" lon="-8.4689480">
        <ele>450.4</ele>
        <time>2022-08-28T17:51:42Z</time>
      </trkpt>
      <trkpt lat="42.4577620" lon="-8.4686390">
        <ele>448.6</ele>
        <time>2022-08-28T17:51:44Z</time>
      </trkpt>
      <trkpt lat="42.4578080" lon="-8.4683400">
        <ele>447.2</ele>
        <time>2022-08-28T17:51:46Z</time>
      </trkpt>
      <trkpt lat="42.4578850" lon="-8.4679170">
        <ele>446.0</ele>
        <time>2022-08-28T17:51:49Z</time>
      </trkpt>
      <trkpt lat="42.4579160" lon="-8.4677900">
        <ele>445.4</ele>
        <time>2022-08-28T17:51:50Z</time>
      </trkpt>
      <trkpt lat="42.4579550" lon="-8.4676720">
        <ele>444.8</ele>
        <time>2022-08-28T17:51:51Z</time>
      </trkpt>
      <trkpt lat="42.4580050" lon="-8.4675650">
        <ele>443.6</ele>
        <time>2022-08-28T17:51:52Z</time>
      </trkpt>
      <trkpt lat="42.4580660" lon="-8.4674720">
        <ele>442.2</ele>
        <time>2022-08-28T17:51:53Z</time>
      </trkpt>
      <trkpt lat="42.4581370" lon="-8.4674020">
        <ele>441.0</ele>
        <time>2022-08-28T17:51:54Z</time>
      </trkpt>
      <trkpt lat="42.4583010" lon="-8.4673360">
        <ele>440.0</ele>
        <time>2022-08-28T17:51:56Z</time>
      </trkpt>
      <trkpt lat="42.4584960" lon="-8.4673290">
        <ele>438.8</ele>
        <time>2022-08-28T17:51:58Z</time>
      </trkpt>
      <trkpt lat="42.4586010" lon="-8.4673190">
        <ele>437.8</ele>
        <time>2022-08-28T17:51:59Z</time>
      </trkpt>
      <trkpt lat="42.4588110" lon="-8.4672920">
        <ele>436.2</ele>
        <time>2022-08-28T17:52:01Z</time>
      </trkpt>
      <trkpt lat="42.4590180" lon="-8.4672260">
        <ele>434.6</ele>
        <time>2022-08-28T17:52:03Z</time>
      </trkpt>
      <trkpt lat="42.4591150" lon="-8.4671680">
        <ele>434.2</ele>
        <time>2022-08-28T17:52:04Z</time>
      </trkpt>
      <trkpt lat="42.4593000" lon="-8.4670180">
        <ele>433.2</ele>
        <time>2022-08-28T17:52:06Z</time>
      </trkpt>
      <trkpt lat="42.4594820" lon="-8.4668570">
        <ele>431.8</ele>
        <time>2022-08-28T17:52:08Z</time>
      </trkpt>
      <trkpt lat="42.4595740" lon="-8.4667840">
        <ele>431.2</ele>
        <time>2022-08-28T17:52:09Z</time>
      </trkpt>
      <trkpt lat="42.4596670" lon="-8.4667240">
        <ele>430.6</ele>
        <time>2022-08-28T17:52:10Z</time>
      </trkpt>
      <trkpt lat="42.4597640" lon="-8.4666810">
        <ele>428.8</ele>
        <time>2022-08-28T17:52:11Z</time>
      </trkpt>
      <trkpt lat="42.4598690" lon="-8.4666640">
        <ele>427.6</ele>
        <time>2022-08-28T17:52:12Z</time>
      </trkpt>
      <trkpt lat="42.4600800" lon="-8.4666870">
        <ele>426.2</ele>
        <time>2022-08-28T17:52:14Z</time>
      </trkpt>
      <trkpt lat="42.4601840" lon="-8.4667260">
        <ele>425.6</ele>
        <time>2022-08-28T17:52:15Z</time>
      </trkpt>
      <trkpt lat="42.4602860" lon="-8.4667750">
        <ele>424.6</ele>
        <time>2022-08-28T17:52:16Z</time>
      </trkpt>
      <trkpt lat="42.4604830" lon="-8.4668790">
        <ele>423.0</ele>
        <time>2022-08-28T17:52:18Z</time>
      </trkpt>
      <trkpt lat="42.4606520" lon="-8.4669860">
        <ele>421.8</ele>
        <time>2022-08-28T17:52:20Z</time>
      </trkpt>
      <trkpt lat="42.4607720" lon="-8.4671510">
        <ele>420.8</ele>
        <time>2022-08-28T17:52:22Z</time>
      </trkpt>
      <trkpt lat="42.4608370" lon="-8.4675050">
        <ele>419.0</ele>
        <time>2022-08-28T17:52:25Z</time>
      </trkpt>
      <trkpt lat="42.4608530" lon="-8.4676280">
        <ele>417.8</ele>
        <time>2022-08-28T17:52:26Z</time>
      </trkpt>
      <trkpt lat="42.4609080" lon="-8.4678460">
        <ele>416.2</ele>
        <time>2022-08-28T17:52:28Z</time>
      </trkpt>
      <trkpt lat="42.4609640" lon="-8.4679260">
        <ele>415.6</ele>
        <time>2022-08-28T17:52:29Z</time>
      </trkpt>
      <trkpt lat="42.4610300" lon="-8.4679900">
        <ele>415.0</ele>
        <time>2022-08-28T17:52:30Z</time>
      </trkpt>
      <trkpt lat="42.4612000" lon="-8.4680170">
        <ele>414.2</ele>
        <time>2022-08-28T17:52:32Z</time>
      </trkpt>
      <trkpt lat="42.4612910" lon="-8.4680030">
        <ele>413.8</ele>
        <time>2022-08-28T17:52:33Z</time>
      </trkpt>
      <trkpt lat="42.4613840" lon="-8.4679840">
        <ele>413.0</ele>
        <time>2022-08-28T17:52:34Z</time>
      </trkpt>
      <trkpt lat="42.4614790" lon="-8.4679660">
        <ele>412.2</ele>
        <time>2022-08-28T17:52:35Z</time>
      </trkpt>
      <trkpt lat="42.4616750" lon="-8.4679330">
        <ele>410.8</ele>
        <time>2022-08-28T17:52:37Z</time>
      </trkpt>
      <trkpt lat="42.4618780" lon="-8.4679020">
        <ele>409.6</ele>
        <time>2022-08-28T17:52:39Z</time>
      </trkpt>
      <trkpt lat="42.4620790" lon="-8.4679010">
        <ele>408.2</ele>
        <time>2022-08-28T17:52:41Z</time>
      </trkpt>
      <trkpt lat="42.4621740" lon="-8.4679080">
        <ele>407.6</ele>
        <time>2022-08-28T17:52:42Z</time>
      </trkpt>
      <trkpt lat="42.4622600" lon="-8.4679220">
        <ele>406.8</ele>
        <time>2022-08-28T17:52:43Z</time>
      </trkpt>
      <trkpt lat="42.4623380" lon="-8.4679450">
        <ele>406.2</ele>
        <time>2022-08-28T17:52:44Z</time>
      </trkpt>
      <trkpt lat="42.4624070" lon="-8.4679890">
        <ele>405.6</ele>
        <time>2022-08-28T17:52:45Z</time>
      </trkpt>
      <trkpt lat="42.4625130" lon="-8.4681340">
        <ele>404.2</ele>
        <time>2022-08-28T17:52:47Z</time>
      </trkpt>
      <trkpt lat="42.4625270" lon="-8.4682310">
        <ele>403.6</ele>
        <time>2022-08-28T17:52:48Z</time>
      </trkpt>
      <trkpt lat="42.4625260" lon="-8.4683320">
        <ele>403.0</ele>
        <time>2022-08-28T17:52:49Z</time>
      </trkpt>
      <trkpt lat="42.4625060" lon="-8.4685340">
        <ele>401.8</ele>
        <time>2022-08-28T17:52:51Z</time>
      </trkpt>
      <trkpt lat="42.4625130" lon="-8.4687500">
        <ele>400.6</ele>
        <time>2022-08-28T17:52:53Z</time>
      </trkpt>
      <trkpt lat="42.4625510" lon="-8.4688470">
        <ele>400.2</ele>
        <time>2022-08-28T17:52:54Z</time>
      </trkpt>
      <trkpt lat="42.4626090" lon="-8.4689190">
        <ele>399.6</ele>
        <time>2022-08-28T17:52:55Z</time>
      </trkpt>
      <trkpt lat="42.4626810" lon="-8.4689650">
        <ele>399.0</ele>
        <time>2022-08-28T17:52:56Z</time>
      </trkpt>
      <trkpt lat="42.4628490" lon="-8.4690200">
        <ele>398.4</ele>
        <time>2022-08-28T17:52:58Z</time>
      </trkpt>
      <trkpt lat="42.4630300" lon="-8.4690680">
        <ele>397.6</ele>
        <time>2022-08-28T17:53:00Z</time>
      </trkpt>
      <trkpt lat="42.4631240" lon="-8.4690890">
        <ele>397.0</ele>
        <time>2022-08-28T17:53:01Z</time>
      </trkpt>
      <trkpt lat="42.4633230" lon="-8.4691200">
        <ele>395.8</ele>
        <time>2022-08-28T17:53:03Z</time>
      </trkpt>
      <trkpt lat="42.4634240" lon="-8.4691180">
        <ele>395.2</ele>
        <time>2022-08-28T17:53:04Z</time>
      </trkpt>
      <trkpt lat="42.4635240" lon="-8.4690970">
        <ele>394.8</ele>
        <time>2022-08-28T17:53:05Z</time>
      </trkpt>
      <trkpt lat="42.4639130" lon="-8.4689270">
        <ele>393.0</ele>
        <time>2022-08-28T17:53:09Z</time>
      </trkpt>
      <trkpt lat="42.4640100" lon="-8.4688770">
        <ele>391.6</ele>
        <time>2022-08-28T17:53:10Z</time>
      </trkpt>
      <trkpt lat="42.4642100" lon="-8.4687780">
        <ele>390.4</ele>
        <time>2022-08-28T17:53:12Z</time>
      </trkpt>
      <trkpt lat="42.4644220" lon="-8.4686880">
        <ele>388.8</ele>
        <time>2022-08-28T17:53:14Z</time>
      </trkpt>
      <trkpt lat="42.4645290" lon="-8.4686480">
        <ele>388.0</ele>
        <time>2022-08-28T17:53:15Z</time>
      </trkpt>
      <trkpt lat="42.4646370" lon="-8.4686110">
        <ele>387.2</ele>
        <time>2022-08-28T17:53:16Z</time>
      </trkpt>
      <trkpt lat="42.4648440" lon="-8.4685660">
        <ele>385.8</ele>
        <time>2022-08-28T17:53:18Z</time>
      </trkpt>
      <trkpt lat="42.4649420" lon="-8.4685710">
        <ele>385.2</ele>
        <time>2022-08-28T17:53:19Z</time>
      </trkpt>
      <trkpt lat="42.4650400" lon="-8.4686010">
        <ele>384.4</ele>
        <time>2022-08-28T17:53:20Z</time>
      </trkpt>
      <trkpt lat="42.4652210" lon="-8.4687120">
        <ele>382.6</ele>
        <time>2022-08-28T17:53:22Z</time>
      </trkpt>
      <trkpt lat="42.4653030" lon="-8.4687700">
        <ele>381.8</ele>
        <time>2022-08-28T17:53:23Z</time>
      </trkpt>
      <trkpt lat="42.4653800" lon="-8.4688070">
        <ele>380.8</ele>
        <time>2022-08-28T17:53:24Z</time>
      </trkpt>
      <trkpt lat="42.4654650" lon="-8.4688170">
        <ele>380.0</ele>
        <time>2022-08-28T17:53:25Z</time>
      </trkpt>
      <trkpt lat="42.4655400" lon="-8.4687810">
        <ele>379.2</ele>
        <time>2022-08-28T17:53:26Z</time>
      </trkpt>
      <trkpt lat="42.4656030" lon="-8.4687200">
        <ele>378.6</ele>
        <time>2022-08-28T17:53:27Z</time>
      </trkpt>
      <trkpt lat="42.4656550" lon="-8.4686440">
        <ele>377.8</ele>
        <time>2022-08-28T17:53:28Z</time>
      </trkpt>
      <trkpt lat="42.4657480" lon="-8.4685000">
        <ele>376.6</ele>
        <time>2022-08-28T17:53:30Z</time>
      </trkpt>
      <trkpt lat="42.4658680" lon="-8.4684280">
        <ele>375.6</ele>
        <time>2022-08-28T17:53:32Z</time>
      </trkpt>
      <trkpt lat="42.4659310" lon="-8.4684340">
        <ele>375.0</ele>
        <time>2022-08-28T17:53:33Z</time>
      </trkpt>
      <trkpt lat="42.4660960" lon="-8.4685570">
        <ele>374.4</ele>
        <time>2022-08-28T17:53:36Z</time>
      </trkpt>
      <trkpt lat="42.4661450" lon="-8.4686090">
        <ele>374.4</ele>
        <time>2022-08-28T17:53:37Z</time>
      </trkpt>
      <trkpt lat="42.4665280" lon="-8.4690230">
        <ele>374.4</ele>
        <time>2022-08-28T17:53:45Z</time>
      </trkpt>
      <trkpt lat="42.4669160" lon="-8.4694750">
        <ele>373.8</ele>
        <time>2022-08-28T17:53:53Z</time>
      </trkpt>
      <trkpt lat="42.4670170" lon="-8.4695810">
        <ele>373.2</ele>
        <time>2022-08-28T17:53:55Z</time>
      </trkpt>
      <trkpt lat="42.4672570" lon="-8.4698330">
        <ele>372.4</ele>
        <time>2022-08-28T17:54:00Z</time>
      </trkpt>
      <trkpt lat="42.4675190" lon="-8.4700860">
        <ele>372.2</ele>
        <time>2022-08-28T17:54:06Z</time>
      </trkpt>
      <trkpt lat="42.4675650" lon="-8.4701240">
        <ele>372.2</ele>
        <time>2022-08-28T17:54:07Z</time>
      </trkpt>
      <trkpt lat="42.4677740" lon="-8.4703620">
        <ele>372.2</ele>
        <time>2022-08-28T17:54:12Z</time>
      </trkpt>
      <trkpt lat="42.4680150" lon="-8.4706260">
        <ele>372.2</ele>
        <time>2022-08-28T17:54:18Z</time>
      </trkpt>
      <trkpt lat="42.4683230" lon="-8.4708590">
        <ele>372.0</ele>
        <time>2022-08-28T17:54:25Z</time>
      </trkpt>
      <trkpt lat="42.4686200" lon="-8.4710660">
        <ele>372.0</ele>
        <time>2022-08-28T17:54:32Z</time>
      </trkpt>
      <trkpt lat="42.4687130" lon="-8.4711310">
        <ele>372.0</ele>
        <time>2022-08-28T17:54:34Z</time>
      </trkpt>
      <trkpt lat="42.4689080" lon="-8.4713340">
        <ele>372.0</ele>
        <time>2022-08-28T17:54:38Z</time>
      </trkpt>
      <trkpt lat="42.4692090" lon="-8.4716830">
        <ele>372.2</ele>
        <time>2022-08-28T17:54:45Z</time>
      </trkpt>
      <trkpt lat="42.4695130" lon="-8.4720330">
        <ele>372.2</ele>
        <time>2022-08-28T17:54:52Z</time>
      </trkpt>
      <trkpt lat="42.4698930" lon="-8.4724920">
        <ele>371.2</ele>
        <time>2022-08-28T17:54:59Z</time>
      </trkpt>
      <trkpt lat="42.4699510" lon="-8.4725670">
        <ele>371.0</ele>
        <time>2022-08-28T17:55:00Z</time>
      </trkpt>
      <trkpt lat="42.4701820" lon="-8.4728770">
        <ele>369.6</ele>
        <time>2022-08-28T17:55:04Z</time>
      </trkpt>
      <trkpt lat="42.4702920" lon="-8.4730410">
        <ele>368.8</ele>
        <time>2022-08-28T17:55:06Z</time>
      </trkpt>
      <trkpt lat="42.4703460" lon="-8.4731170">
        <ele>368.4</ele>
        <time>2022-08-28T17:55:07Z</time>
      </trkpt>
      <trkpt lat="42.4704570" lon="-8.4732620">
        <ele>367.2</ele>
        <time>2022-08-28T17:55:09Z</time>
      </trkpt>
      <trkpt lat="42.4705750" lon="-8.4733800">
        <ele>366.6</ele>
        <time>2022-08-28T17:55:11Z</time>
      </trkpt>
      <trkpt lat="42.4706380" lon="-8.4734300">
        <ele>366.4</ele>
        <time>2022-08-28T17:55:12Z</time>
      </trkpt>
      <trkpt lat="42.4707580" lon="-8.4735150">
        <ele>366.2</ele>
        <time>2022-08-28T17:55:14Z</time>
      </trkpt>
      <trkpt lat="42.4710000" lon="-8.4736630">
        <ele>366.0</ele>
        <time>2022-08-28T17:55:18Z</time>
      </trkpt>
      <trkpt lat="42.4712870" lon="-8.4738370">
        <ele>365.8</ele>
        <time>2022-08-28T17:55:23Z</time>
      </trkpt>
      <trkpt lat="42.4713930" lon="-8.4739250">
        <ele>365.8</ele>
        <time>2022-08-28T17:55:25Z</time>
      </trkpt>
      <trkpt lat="42.4714980" lon="-8.4740250">
        <ele>365.8</ele>
        <time>2022-08-28T17:55:27Z</time>
      </trkpt>
      <trkpt lat="42.4716790" lon="-8.4742360">
        <ele>365.6</ele>
        <time>2022-08-28T17:55:31Z</time>
      </trkpt>
      <trkpt lat="42.4719420" lon="-8.4745660">
        <ele>365.4</ele>
        <time>2022-08-28T17:55:37Z</time>
      </trkpt>
      <trkpt lat="42.4721830" lon="-8.4748250">
        <ele>365.4</ele>
        <time>2022-08-28T17:55:42Z</time>
      </trkpt>
      <trkpt lat="42.4723350" lon="-8.4749980">
        <ele>365.2</ele>
        <time>2022-08-28T17:55:45Z</time>
      </trkpt>
      <trkpt lat="42.4724210" lon="-8.4751450">
        <ele>365.0</ele>
        <time>2022-08-28T17:55:47Z</time>
      </trkpt>
      <trkpt lat="42.4726010" lon="-8.4755590">
        <ele>364.0</ele>
        <time>2022-08-28T17:55:52Z</time>
      </trkpt>
      <trkpt lat="42.4726620" lon="-8.4757480">
        <ele>363.6</ele>
        <time>2022-08-28T17:55:54Z</time>
      </trkpt>
      <trkpt lat="42.4727190" lon="-8.4759400">
        <ele>363.0</ele>
        <time>2022-08-28T17:55:56Z</time>
      </trkpt>
      <trkpt lat="42.4728700" lon="-8.4764190">
        <ele>361.6</ele>
        <time>2022-08-28T17:56:01Z</time>
      </trkpt>
      <trkpt lat="42.4729000" lon="-8.4764990">
        <ele>361.4</ele>
        <time>2022-08-28T17:56:02Z</time>
      </trkpt>
      <trkpt lat="42.4730080" lon="-8.4768370">
        <ele>360.6</ele>
        <time>2022-08-28T17:56:06Z</time>
      </trkpt>
      <trkpt lat="42.4730620" lon="-8.4769950">
        <ele>360.6</ele>
        <time>2022-08-28T17:56:08Z</time>
      </trkpt>
      <trkpt lat="42.4731920" lon="-8.4774710">
        <ele>360.4</ele>
        <time>2022-08-28T17:56:14Z</time>
      </trkpt>
      <trkpt lat="42.4731980" lon="-8.4775540">
        <ele>360.4</ele>
        <time>2022-08-28T17:56:15Z</time>
      </trkpt>
      <trkpt lat="42.4731670" lon="-8.4778760">
        <ele>360.4</ele>
        <time>2022-08-28T17:56:19Z</time>
      </trkpt>
      <trkpt lat="42.4731300" lon="-8.4780150">
        <ele>360.4</ele>
        <time>2022-08-28T17:56:21Z</time>
      </trkpt>
      <trkpt lat="42.4730520" lon="-8.4782730">
        <ele>360.6</ele>
        <time>2022-08-28T17:56:25Z</time>
      </trkpt>
      <trkpt lat="42.4729260" lon="-8.4786220">
        <ele>361.2</ele>
        <time>2022-08-28T17:56:31Z</time>
      </trkpt>
      <trkpt lat="42.4728500" lon="-8.4788390">
        <ele>361.8</ele>
        <time>2022-08-28T17:56:35Z</time>
      </trkpt>
      <trkpt lat="42.4727830" lon="-8.4790380">
        <ele>362.8</ele>
        <time>2022-08-28T17:56:39Z</time>
      </trkpt>
      <trkpt lat="42.4727660" lon="-8.4790860">
        <ele>363.0</ele>
        <time>2022-08-28T17:56:40Z</time>
      </trkpt>
      <trkpt lat="42.4726560" lon="-8.4794120">
        <ele>363.4</ele>
        <time>2022-08-28T17:56:47Z</time>
      </trkpt>
      <trkpt lat="42.4726140" lon="-8.4796040">
        <ele>364.0</ele>
        <time>2022-08-28T17:56:51Z</time>
      </trkpt>
      <trkpt lat="42.4725830" lon="-8.4796950">
        <ele>364.4</ele>
        <time>2022-08-28T17:56:53Z</time>
      </trkpt>
      <trkpt lat="42.4724210" lon="-8.4800980">
        <ele>365.2</ele>
        <time>2022-08-28T17:57:01Z</time>
      </trkpt>
      <trkpt lat="42.4723970" lon="-8.4801550">
        <ele>365.2</ele>
        <time>2022-08-28T17:57:02Z</time>
      </trkpt>
      <trkpt lat="42.4721850" lon="-8.4806310">
        <ele>365.2</ele>
        <time>2022-08-28T17:57:10Z</time>
      </trkpt>
      <trkpt lat="42.4719690" lon="-8.4811180">
        <ele>365.0</ele>
        <time>2022-08-28T17:57:18Z</time>
      </trkpt>
      <trkpt lat="42.4718100" lon="-8.4815250">
        <ele>364.8</ele>
        <time>2022-08-28T17:57:24Z</time>
      </trkpt>
      <trkpt lat="42.4716910" lon="-8.4821360">
        <ele>364.2</ele>
        <time>2022-08-28T17:57:32Z</time>
      </trkpt>
      <trkpt lat="42.4715630" lon="-8.4828090">
        <ele>364.0</ele>
        <time>2022-08-28T17:57:41Z</time>
      </trkpt>
      <trkpt lat="42.4714570" lon="-8.4833740">
        <ele>363.8</ele>
        <time>2022-08-28T17:57:49Z</time>
      </trkpt>
      <trkpt lat="42.4713510" lon="-8.4840450">
        <ele>363.8</ele>
        <time>2022-08-28T17:57:59Z</time>
      </trkpt>
      <trkpt lat="42.4713400" lon="-8.4844750">
        <ele>364.0</ele>
        <time>2022-08-28T17:58:05Z</time>
      </trkpt>
      <trkpt lat="42.4713370" lon="-8.4851350">
        <ele>363.8</ele>
        <time>2022-08-28T17:58:13Z</time>
      </trkpt>
      <trkpt lat="42.4713370" lon="-8.4855720">
        <ele>363.2</ele>
        <time>2022-08-28T17:58:18Z</time>
      </trkpt>
      <trkpt lat="42.4713420" lon="-8.4858400">
        <ele>362.6</ele>
        <time>2022-08-28T17:58:21Z</time>
      </trkpt>
      <trkpt lat="42.4713650" lon="-8.4861040">
        <ele>362.2</ele>
        <time>2022-08-28T17:58:24Z</time>
      </trkpt>
      <trkpt lat="42.4714050" lon="-8.4863690">
        <ele>361.6</ele>
        <time>2022-08-28T17:58:27Z</time>
      </trkpt>
      <trkpt lat="42.4715700" lon="-8.4870140">
        <ele>361.0</ele>
        <time>2022-08-28T17:58:34Z</time>
      </trkpt>
      <trkpt lat="42.4717490" lon="-8.4875540">
        <ele>360.0</ele>
        <time>2022-08-28T17:58:40Z</time>
      </trkpt>
      <trkpt lat="42.4717790" lon="-8.4876470">
        <ele>360.0</ele>
        <time>2022-08-28T17:58:41Z</time>
      </trkpt>
      <trkpt lat="42.4719820" lon="-8.4882820">
        <ele>359.0</ele>
        <time>2022-08-28T17:58:48Z</time>
      </trkpt>
      <trkpt lat="42.4720120" lon="-8.4883740">
        <ele>358.8</ele>
        <time>2022-08-28T17:58:49Z</time>
      </trkpt>
      <trkpt lat="42.4722290" lon="-8.4890060">
        <ele>358.0</ele>
        <time>2022-08-28T17:58:56Z</time>
      </trkpt>
      <trkpt lat="42.4722920" lon="-8.4891860">
        <ele>357.6</ele>
        <time>2022-08-28T17:58:58Z</time>
      </trkpt>
      <trkpt lat="42.4724310" lon="-8.4896360">
        <ele>356.8</ele>
        <time>2022-08-28T17:59:03Z</time>
      </trkpt>
      <trkpt lat="42.4724520" lon="-8.4897290">
        <ele>356.8</ele>
        <time>2022-08-28T17:59:04Z</time>
      </trkpt>
      <trkpt lat="42.4724770" lon="-8.4899190">
        <ele>356.6</ele>
        <time>2022-08-28T17:59:06Z</time>
      </trkpt>
      <trkpt lat="42.4724790" lon="-8.4901140">
        <ele>356.2</ele>
        <time>2022-08-28T17:59:08Z</time>
      </trkpt>
      <trkpt lat="42.4723980" lon="-8.4905940">
        <ele>355.8</ele>
        <time>2022-08-28T17:59:13Z</time>
      </trkpt>
      <trkpt lat="42.4722270" lon="-8.4910180">
        <ele>355.2</ele>
        <time>2022-08-28T17:59:18Z</time>
      </trkpt>
      <trkpt lat="42.4720110" lon="-8.4915550">
        <ele>354.8</ele>
        <time>2022-08-28T17:59:24Z</time>
      </trkpt>
      <trkpt lat="42.4718710" lon="-8.4922050">
        <ele>353.8</ele>
        <time>2022-08-28T17:59:30Z</time>
      </trkpt>
      <trkpt lat="42.4718270" lon="-8.4924370">
        <ele>352.6</ele>
        <time>2022-08-28T17:59:32Z</time>
      </trkpt>
      <trkpt lat="42.4717460" lon="-8.4928970">
        <ele>351.4</ele>
        <time>2022-08-28T17:59:36Z</time>
      </trkpt>
      <trkpt lat="42.4716890" lon="-8.4932270">
        <ele>350.2</ele>
        <time>2022-08-28T17:59:39Z</time>
      </trkpt>
      <trkpt lat="42.4716360" lon="-8.4935350">
        <ele>349.2</ele>
        <time>2022-08-28T17:59:42Z</time>
      </trkpt>
      <trkpt lat="42.4715810" lon="-8.4939190">
        <ele>348.6</ele>
        <time>2022-08-28T17:59:46Z</time>
      </trkpt>
      <trkpt lat="42.4715720" lon="-8.4944600">
        <ele>348.6</ele>
        <time>2022-08-28T17:59:52Z</time>
      </trkpt>
      <trkpt lat="42.4716020" lon="-8.4947020">
        <ele>348.6</ele>
        <time>2022-08-28T17:59:55Z</time>
      </trkpt>
      <trkpt lat="42.4716340" lon="-8.4948510">
        <ele>348.6</ele>
        <time>2022-08-28T17:59:57Z</time>
      </trkpt>
      <trkpt lat="42.4717570" lon="-8.4953670">
        <ele>348.6</ele>
        <time>2022-08-28T18:00:04Z</time>
      </trkpt>
      <trkpt lat="42.4718470" lon="-8.4958380">
        <ele>348.6</ele>
        <time>2022-08-28T18:00:10Z</time>
      </trkpt>
      <trkpt lat="42.4718480" lon="-8.4963970">
        <ele>348.6</ele>
        <time>2022-08-28T18:00:17Z</time>
      </trkpt>
      <trkpt lat="42.4717370" lon="-8.4968390">
        <ele>348.6</ele>
        <time>2022-08-28T18:00:23Z</time>
      </trkpt>
      <trkpt lat="42.4716060" lon="-8.4970990">
        <ele>348.8</ele>
        <time>2022-08-28T18:00:27Z</time>
      </trkpt>
      <trkpt lat="42.4715300" lon="-8.4972210">
        <ele>348.8</ele>
        <time>2022-08-28T18:00:29Z</time>
      </trkpt>
      <trkpt lat="42.4712430" lon="-8.4976010">
        <ele>349.0</ele>
        <time>2022-08-28T18:00:36Z</time>
      </trkpt>
      <trkpt lat="42.4708130" lon="-8.4981090">
        <ele>349.4</ele>
        <time>2022-08-28T18:00:46Z</time>
      </trkpt>
      <trkpt lat="42.4704340" lon="-8.4985780">
        <ele>349.2</ele>
        <time>2022-08-28T18:00:55Z</time>
      </trkpt>
      <trkpt lat="42.4700220" lon="-8.4991300">
        <ele>349.2</ele>
        <time>2022-08-28T18:01:05Z</time>
      </trkpt>
      <trkpt lat="42.4696960" lon="-8.4995920">
        <ele>349.2</ele>
        <time>2022-08-28T18:01:12Z</time>
      </trkpt>
      <trkpt lat="42.4693620" lon="-8.5000690">
        <ele>348.2</ele>
        <time>2022-08-28T18:01:18Z</time>
      </trkpt>
      <trkpt lat="42.4693020" lon="-8.5001550">
        <ele>347.8</ele>
        <time>2022-08-28T18:01:19Z</time>
      </trkpt>
      <trkpt lat="42.4691120" lon="-8.5004150">
        <ele>347.0</ele>
        <time>2022-08-28T18:01:22Z</time>
      </trkpt>
      <trkpt lat="42.4689030" lon="-8.5006500">
        <ele>345.6</ele>
        <time>2022-08-28T18:01:25Z</time>
      </trkpt>
      <trkpt lat="42.4686680" lon="-8.5008120">
        <ele>344.2</ele>
        <time>2022-08-28T18:01:28Z</time>
      </trkpt>
      <trkpt lat="42.4685880" lon="-8.5008490">
        <ele>343.2</ele>
        <time>2022-08-28T18:01:29Z</time>
      </trkpt>
      <trkpt lat="42.4682880" lon="-8.5009640">
        <ele>342.2</ele>
        <time>2022-08-28T18:01:33Z</time>
      </trkpt>
      <trkpt lat="42.4681490" lon="-8.5010170">
        <ele>342.0</ele>
        <time>2022-08-28T18:01:35Z</time>
      </trkpt>
      <trkpt lat="42.4677930" lon="-8.5012300">
        <ele>341.8</ele>
        <time>2022-08-28T18:01:41Z</time>
      </trkpt>
      <trkpt lat="42.4675130" lon="-8.5015010">
        <ele>342.2</ele>
        <time>2022-08-28T18:01:47Z</time>
      </trkpt>
      <trkpt lat="42.4672050" lon="-8.5017990">
        <ele>343.0</ele>
        <time>2022-08-28T18:01:54Z</time>
      </trkpt>
      <trkpt lat="42.4671250" lon="-8.5018800">
        <ele>343.2</ele>
        <time>2022-08-28T18:01:56Z</time>
      </trkpt>
      <trkpt lat="42.4669660" lon="-8.5020460">
        <ele>343.6</ele>
        <time>2022-08-28T18:02:00Z</time>
      </trkpt>
      <trkpt lat="42.4666320" lon="-8.5023880">
        <ele>344.2</ele>
        <time>2022-08-28T18:02:08Z</time>
      </trkpt>
      <trkpt lat="42.4665870" lon="-8.5024330">
        <ele>344.2</ele>
        <time>2022-08-28T18:02:09Z</time>
      </trkpt>
      <trkpt lat="42.4662850" lon="-8.5027350">
        <ele>344.4</ele>
        <time>2022-08-28T18:02:16Z</time>
      </trkpt>
      <trkpt lat="42.4659040" lon="-8.5031460">
        <ele>344.4</ele>
        <time>2022-08-28T18:02:25Z</time>
      </trkpt>
      <trkpt lat="42.4655180" lon="-8.5036360">
        <ele>344.0</ele>
        <time>2022-08-28T18:02:35Z</time>
      </trkpt>
      <trkpt lat="42.4651410" lon="-8.5041900">
        <ele>344.0</ele>
        <time>2022-08-28T18:02:45Z</time>
      </trkpt>
      <trkpt lat="42.4647690" lon="-8.5048260">
        <ele>343.2</ele>
        <time>2022-08-28T18:02:55Z</time>
      </trkpt>
      <trkpt lat="42.4647330" lon="-8.5048940">
        <ele>343.2</ele>
        <time>2022-08-28T18:02:56Z</time>
      </trkpt>
      <trkpt lat="42.4646970" lon="-8.5049620">
        <ele>343.2</ele>
        <time>2022-08-28T18:02:57Z</time>
      </trkpt>
      <trkpt lat="42.4643960" lon="-8.5055270">
        <ele>342.2</ele>
        <time>2022-08-28T18:03:05Z</time>
      </trkpt>
      <trkpt lat="42.4643560" lon="-8.5055990">
        <ele>342.0</ele>
        <time>2022-08-28T18:03:06Z</time>
      </trkpt>
      <trkpt lat="42.4640370" lon="-8.5061970">
        <ele>341.2</ele>
        <time>2022-08-28T18:03:14Z</time>
      </trkpt>
      <trkpt lat="42.4639960" lon="-8.5062740">
        <ele>341.0</ele>
        <time>2022-08-28T18:03:15Z</time>
      </trkpt>
      <trkpt lat="42.4639560" lon="-8.5063490">
        <ele>341.0</ele>
        <time>2022-08-28T18:03:16Z</time>
      </trkpt>
      <trkpt lat="42.4636100" lon="-8.5070010">
        <ele>340.2</ele>
        <time>2022-08-28T18:03:25Z</time>
      </trkpt>
      <trkpt lat="42.4633870" lon="-8.5074020">
        <ele>340.0</ele>
        <time>2022-08-28T18:03:31Z</time>
      </trkpt>
      <trkpt lat="42.4630640" lon="-8.5079950">
        <ele>340.0</ele>
        <time>2022-08-28T18:03:40Z</time>
      </trkpt>
      <trkpt lat="42.4627420" lon="-8.5085900">
        <ele>340.0</ele>
        <time>2022-08-28T18:03:49Z</time>
      </trkpt>
      <trkpt lat="42.4625990" lon="-8.5088550">
        <ele>340.0</ele>
        <time>2022-08-28T18:03:53Z</time>
      </trkpt>
      <trkpt lat="42.4622580" lon="-8.5093840">
        <ele>339.8</ele>
        <time>2022-08-28T18:04:02Z</time>
      </trkpt>
      <trkpt lat="42.4619380" lon="-8.5097110">
        <ele>339.6</ele>
        <time>2022-08-28T18:04:08Z</time>
      </trkpt>
      <trkpt lat="42.4616970" lon="-8.5099410">
        <ele>339.2</ele>
        <time>2022-08-28T18:04:12Z</time>
      </trkpt>
      <trkpt lat="42.4614440" lon="-8.5101810">
        <ele>338.0</ele>
        <time>2022-08-28T18:04:16Z</time>
      </trkpt>
      <trkpt lat="42.4613120" lon="-8.5103070">
        <ele>337.4</ele>
        <time>2022-08-28T18:04:18Z</time>
      </trkpt>
      <trkpt lat="42.4611800" lon="-8.5104340">
        <ele>336.8</ele>
        <time>2022-08-28T18:04:20Z</time>
      </trkpt>
      <trkpt lat="42.4609200" lon="-8.5106860">
        <ele>335.6</ele>
        <time>2022-08-28T18:04:24Z</time>
      </trkpt>
      <trkpt lat="42.4607240" lon="-8.5108680">
        <ele>334.6</ele>
        <time>2022-08-28T18:04:27Z</time>
      </trkpt>
      <trkpt lat="42.4605970" lon="-8.5109880">
        <ele>333.8</ele>
        <time>2022-08-28T18:04:29Z</time>
      </trkpt>
      <trkpt lat="42.4605340" lon="-8.5110490">
        <ele>333.4</ele>
        <time>2022-08-28T18:04:30Z</time>
      </trkpt>
      <trkpt lat="42.4600410" lon="-8.5115230">
        <ele>332.4</ele>
        <time>2022-08-28T18:04:38Z</time>
      </trkpt>
      <trkpt lat="42.4598160" lon="-8.5117460">
        <ele>331.8</ele>
        <time>2022-08-28T18:04:42Z</time>
      </trkpt>
      <trkpt lat="42.4594170" lon="-8.5121320">
        <ele>331.4</ele>
        <time>2022-08-28T18:04:50Z</time>
      </trkpt>
      <trkpt lat="42.4589430" lon="-8.5125850">
        <ele>332.0</ele>
        <time>2022-08-28T18:05:01Z</time>
      </trkpt>
      <trkpt lat="42.4585520" lon="-8.5129500">
        <ele>333.0</ele>
        <time>2022-08-28T18:05:11Z</time>
      </trkpt>
      <trkpt lat="42.4582410" lon="-8.5133220">
        <ele>333.2</ele>
        <time>2022-08-28T18:05:19Z</time>
      </trkpt>
      <trkpt lat="42.4578870" lon="-8.5138580">
        <ele>333.0</ele>
        <time>2022-08-28T18:05:29Z</time>
      </trkpt>
      <trkpt lat="42.4576890" lon="-8.5143010">
        <ele>333.0</ele>
        <time>2022-08-28T18:05:36Z</time>
      </trkpt>
      <trkpt lat="42.4576050" lon="-8.5148100">
        <ele>333.0</ele>
        <time>2022-08-28T18:05:43Z</time>
      </trkpt>
      <trkpt lat="42.4574980" lon="-8.5155370">
        <ele>332.8</ele>
        <time>2022-08-28T18:05:53Z</time>
      </trkpt>
      <trkpt lat="42.4573610" lon="-8.5160570">
        <ele>333.4</ele>
        <time>2022-08-28T18:06:01Z</time>
      </trkpt>
      <trkpt lat="42.4571520" lon="-8.5166100">
        <ele>334.2</ele>
        <time>2022-08-28T18:06:10Z</time>
      </trkpt>
      <trkpt lat="42.4569270" lon="-8.5172810">
        <ele>334.6</ele>
        <time>2022-08-28T18:06:20Z</time>
      </trkpt>
      <trkpt lat="42.4568260" lon="-8.5178560">
        <ele>334.6</ele>
        <time>2022-08-28T18:06:28Z</time>
      </trkpt>
      <trkpt lat="42.4567440" lon="-8.5183620">
        <ele>334.8</ele>
        <time>2022-08-28T18:06:35Z</time>
      </trkpt>
      <trkpt lat="42.4566480" lon="-8.5189570">
        <ele>334.6</ele>
        <time>2022-08-28T18:06:43Z</time>
      </trkpt>
      <trkpt lat="42.4565430" lon="-8.5194570">
        <ele>334.6</ele>
        <time>2022-08-28T18:06:50Z</time>
      </trkpt>
      <trkpt lat="42.4563500" lon="-8.5198380">
        <ele>334.6</ele>
        <time>2022-08-28T18:06:56Z</time>
      </trkpt>
      <trkpt lat="42.4560560" lon="-8.5202390">
        <ele>334.6</ele>
        <time>2022-08-28T18:07:03Z</time>
      </trkpt>
      <trkpt lat="42.4556660" lon="-8.5207690">
        <ele>334.6</ele>
        <time>2022-08-28T18:07:13Z</time>
      </trkpt>
      <trkpt lat="42.4555910" lon="-8.5208690">
        <ele>334.6</ele>
        <time>2022-08-28T18:07:15Z</time>
      </trkpt>
      <trkpt lat="42.4552070" lon="-8.5213290">
        <ele>335.0</ele>
        <time>2022-08-28T18:07:25Z</time>
      </trkpt>
      <trkpt lat="42.4549240" lon="-8.5215090">
        <ele>335.6</ele>
        <time>2022-08-28T18:07:32Z</time>
      </trkpt>
      <trkpt lat="42.4548850" lon="-8.5215300">
        <ele>335.6</ele>
        <time>2022-08-28T18:07:33Z</time>
      </trkpt>
      <trkpt lat="42.4546250" lon="-8.5216770">
        <ele>336.2</ele>
        <time>2022-08-28T18:07:40Z</time>
      </trkpt>
      <trkpt lat="42.4545920" lon="-8.5217090">
        <ele>336.2</ele>
        <time>2022-08-28T18:07:41Z</time>
      </trkpt>
      <trkpt lat="42.4545140" lon="-8.5218410">
        <ele>336.4</ele>
        <time>2022-08-28T18:07:44Z</time>
      </trkpt>
      <trkpt lat="42.4544960" lon="-8.5218930">
        <ele>336.6</ele>
        <time>2022-08-28T18:07:45Z</time>
      </trkpt>
      <trkpt lat="42.4544630" lon="-8.5220640">
        <ele>337.0</ele>
        <time>2022-08-28T18:07:48Z</time>
      </trkpt>
      <trkpt lat="42.4544570" lon="-8.5221210">
        <ele>337.2</ele>
        <time>2022-08-28T18:07:49Z</time>
      </trkpt>
      <trkpt lat="42.4544260" lon="-8.5226330">
        <ele>337.8</ele>
        <time>2022-08-28T18:07:57Z</time>
      </trkpt>
      <trkpt lat="42.4544020" lon="-8.5229520">
        <ele>337.8</ele>
        <time>2022-08-28T18:08:02Z</time>
      </trkpt>
      <trkpt lat="42.4543740" lon="-8.5231510">
        <ele>338.0</ele>
        <time>2022-08-28T18:08:05Z</time>
      </trkpt>
      <trkpt lat="42.4543560" lon="-8.5232180">
        <ele>338.0</ele>
        <time>2022-08-28T18:08:06Z</time>
      </trkpt>
      <trkpt lat="42.4541740" lon="-8.5236400">
        <ele>338.0</ele>
        <time>2022-08-28T18:08:13Z</time>
      </trkpt>
      <trkpt lat="42.4539320" lon="-8.5239320">
        <ele>338.2</ele>
        <time>2022-08-28T18:08:19Z</time>
      </trkpt>
      <trkpt lat="42.4536110" lon="-8.5241270">
        <ele>338.4</ele>
        <time>2022-08-28T18:08:25Z</time>
      </trkpt>
      <trkpt lat="42.4531140" lon="-8.5242700">
        <ele>338.0</ele>
        <time>2022-08-28T18:08:33Z</time>
      </trkpt>
      <trkpt lat="42.4525450" lon="-8.5244160">
        <ele>337.2</ele>
        <time>2022-08-28T18:08:42Z</time>
      </trkpt>
      <trkpt lat="42.4521650" lon="-8.5245480">
        <ele>336.8</ele>
        <time>2022-08-28T18:08:48Z</time>
      </trkpt>
      <trkpt lat="42.4518550" lon="-8.5246800">
        <ele>336.6</ele>
        <time>2022-08-28T18:08:53Z</time>
      </trkpt>
      <trkpt lat="42.4513330" lon="-8.5249640">
        <ele>336.2</ele>
        <time>2022-08-28T18:09:02Z</time>
      </trkpt>
      <trkpt lat="42.4512780" lon="-8.5249990">
        <ele>336.2</ele>
        <time>2022-08-28T18:09:03Z</time>
      </trkpt>
      <trkpt lat="42.4507900" lon="-8.5253240">
        <ele>335.8</ele>
        <time>2022-08-28T18:09:12Z</time>
      </trkpt>
      <trkpt lat="42.4507360" lon="-8.5253610">
        <ele>335.8</ele>
        <time>2022-08-28T18:09:13Z</time>
      </trkpt>
      <trkpt lat="42.4506820" lon="-8.5253980">
        <ele>335.8</ele>
        <time>2022-08-28T18:09:14Z</time>
      </trkpt>
      <trkpt lat="42.4501940" lon="-8.5257310">
        <ele>335.4</ele>
        <time>2022-08-28T18:09:23Z</time>
      </trkpt>
      <trkpt lat="42.4496590" lon="-8.5260940">
        <ele>335.0</ele>
        <time>2022-08-28T18:09:33Z</time>
      </trkpt>
      <trkpt lat="42.4496050" lon="-8.5261310">
        <ele>335.0</ele>
        <time>2022-08-28T18:09:34Z</time>
      </trkpt>
      <trkpt lat="42.4491690" lon="-8.5264310">
        <ele>334.8</ele>
        <time>2022-08-28T18:09:42Z</time>
      </trkpt>
      <trkpt lat="42.4489500" lon="-8.5265800">
        <ele>334.4</ele>
        <time>2022-08-28T18:09:46Z</time>
      </trkpt>
      <trkpt lat="42.4484640" lon="-8.5269170">
        <ele>334.0</ele>
        <time>2022-08-28T18:09:55Z</time>
      </trkpt>
      <trkpt lat="42.4483000" lon="-8.5270320">
        <ele>334.0</ele>
        <time>2022-08-28T18:09:58Z</time>
      </trkpt>
      <trkpt lat="42.4478110" lon="-8.5274000">
        <ele>333.8</ele>
        <time>2022-08-28T18:10:07Z</time>
      </trkpt>
      <trkpt lat="42.4477560" lon="-8.5274420">
        <ele>333.8</ele>
        <time>2022-08-28T18:10:08Z</time>
      </trkpt>
      <trkpt lat="42.4475910" lon="-8.5275750">
        <ele>333.6</ele>
        <time>2022-08-28T18:10:11Z</time>
      </trkpt>
      <trkpt lat="42.4471810" lon="-8.5279320">
        <ele>333.6</ele>
        <time>2022-08-28T18:10:18Z</time>
      </trkpt>
      <trkpt lat="42.4468640" lon="-8.5282220">
        <ele>332.4</ele>
        <time>2022-08-28T18:10:23Z</time>
      </trkpt>
      <trkpt lat="42.4466120" lon="-8.5284630">
        <ele>331.8</ele>
        <time>2022-08-28T18:10:27Z</time>
      </trkpt>
      <trkpt lat="42.4465500" lon="-8.5285220">
        <ele>331.6</ele>
        <time>2022-08-28T18:10:28Z</time>
      </trkpt>
      <trkpt lat="42.4461990" lon="-8.5288550">
        <ele>330.4</ele>
        <time>2022-08-28T18:10:34Z</time>
      </trkpt>
      <trkpt lat="42.4460880" lon="-8.5289570">
        <ele>330.4</ele>
        <time>2022-08-28T18:10:36Z</time>
      </trkpt>
      <trkpt lat="42.4459190" lon="-8.5290860">
        <ele>330.2</ele>
        <time>2022-08-28T18:10:39Z</time>
      </trkpt>
      <trkpt lat="42.4458000" lon="-8.5291430">
        <ele>330.2</ele>
        <time>2022-08-28T18:10:41Z</time>
      </trkpt>
      <trkpt lat="42.4457390" lon="-8.5291600">
        <ele>330.2</ele>
        <time>2022-08-28T18:10:42Z</time>
      </trkpt>
      <trkpt lat="42.4456160" lon="-8.5291710">
        <ele>330.2</ele>
        <time>2022-08-28T18:10:44Z</time>
      </trkpt>
      <trkpt lat="42.4455550" lon="-8.5291660">
        <ele>330.2</ele>
        <time>2022-08-28T18:10:45Z</time>
      </trkpt>
      <trkpt lat="42.4452000" lon="-8.5290510">
        <ele>330.2</ele>
        <time>2022-08-28T18:10:51Z</time>
      </trkpt>
      <trkpt lat="42.4448040" lon="-8.5289770">
        <ele>330.2</ele>
        <time>2022-08-28T18:10:57Z</time>
      </trkpt>
      <trkpt lat="42.4445280" lon="-8.5290930">
        <ele>329.4</ele>
        <time>2022-08-28T18:11:01Z</time>
      </trkpt>
      <trkpt lat="42.4442980" lon="-8.5293820">
        <ele>328.2</ele>
        <time>2022-08-28T18:11:05Z</time>
      </trkpt>
      <trkpt lat="42.4442110" lon="-8.5295730">
        <ele>327.6</ele>
        <time>2022-08-28T18:11:07Z</time>
      </trkpt>
      <trkpt lat="42.4441250" lon="-8.5297710">
        <ele>327.0</ele>
        <time>2022-08-28T18:11:09Z</time>
      </trkpt>
      <trkpt lat="42.4440810" lon="-8.5298720">
        <ele>326.6</ele>
        <time>2022-08-28T18:11:10Z</time>
      </trkpt>
      <trkpt lat="42.4439450" lon="-8.5301840">
        <ele>325.8</ele>
        <time>2022-08-28T18:11:13Z</time>
      </trkpt>
      <trkpt lat="42.4438540" lon="-8.5303990">
        <ele>324.8</ele>
        <time>2022-08-28T18:11:15Z</time>
      </trkpt>
      <trkpt lat="42.4437170" lon="-8.5307210">
        <ele>323.2</ele>
        <time>2022-08-28T18:11:18Z</time>
      </trkpt>
      <trkpt lat="42.4436730" lon="-8.5308260">
        <ele>322.6</ele>
        <time>2022-08-28T18:11:19Z</time>
      </trkpt>
      <trkpt lat="42.4435900" lon="-8.5310270">
        <ele>321.8</ele>
        <time>2022-08-28T18:11:21Z</time>
      </trkpt>
      <trkpt lat="42.4434430" lon="-8.5313980">
        <ele>320.8</ele>
        <time>2022-08-28T18:11:25Z</time>
      </trkpt>
      <trkpt lat="42.4434140" lon="-8.5314900">
        <ele>320.8</ele>
        <time>2022-08-28T18:11:26Z</time>
      </trkpt>
      <trkpt lat="42.4433530" lon="-8.5318770">
        <ele>320.6</ele>
        <time>2022-08-28T18:11:30Z</time>
      </trkpt>
      <trkpt lat="42.4433910" lon="-8.5322760">
        <ele>320.6</ele>
        <time>2022-08-28T18:11:34Z</time>
      </trkpt>
      <trkpt lat="42.4434160" lon="-8.5323760">
        <ele>320.4</ele>
        <time>2022-08-28T18:11:35Z</time>
      </trkpt>
      <trkpt lat="42.4435580" lon="-8.5328860">
        <ele>320.2</ele>
        <time>2022-08-28T18:11:40Z</time>
      </trkpt>
      <trkpt lat="42.4436790" lon="-8.5333140">
        <ele>319.8</ele>
        <time>2022-08-28T18:11:44Z</time>
      </trkpt>
      <trkpt lat="42.4437410" lon="-8.5335270">
        <ele>319.0</ele>
        <time>2022-08-28T18:11:46Z</time>
      </trkpt>
      <trkpt lat="42.4437720" lon="-8.5336370">
        <ele>318.4</ele>
        <time>2022-08-28T18:11:47Z</time>
      </trkpt>
      <trkpt lat="42.4439230" lon="-8.5341810">
        <ele>317.2</ele>
        <time>2022-08-28T18:11:52Z</time>
      </trkpt>
      <trkpt lat="42.4439530" lon="-8.5342910">
        <ele>317.0</ele>
        <time>2022-08-28T18:11:53Z</time>
      </trkpt>
      <trkpt lat="42.4440160" lon="-8.5345150">
        <ele>316.2</ele>
        <time>2022-08-28T18:11:55Z</time>
      </trkpt>
      <trkpt lat="42.4441590" lon="-8.5349960">
        <ele>315.2</ele>
        <time>2022-08-28T18:11:59Z</time>
      </trkpt>
      <trkpt lat="42.4441940" lon="-8.5351250">
        <ele>314.8</ele>
        <time>2022-08-28T18:12:00Z</time>
      </trkpt>
      <trkpt lat="42.4443050" lon="-8.5355230">
        <ele>314.0</ele>
        <time>2022-08-28T18:12:03Z</time>
      </trkpt>
      <trkpt lat="42.4444130" lon="-8.5359210">
        <ele>312.6</ele>
        <time>2022-08-28T18:12:06Z</time>
      </trkpt>
      <trkpt lat="42.4444490" lon="-8.5360470">
        <ele>311.8</ele>
        <time>2022-08-28T18:12:07Z</time>
      </trkpt>
      <trkpt lat="42.4444850" lon="-8.5361710">
        <ele>310.8</ele>
        <time>2022-08-28T18:12:08Z</time>
      </trkpt>
      <trkpt lat="42.4445510" lon="-8.5364090">
        <ele>309.2</ele>
        <time>2022-08-28T18:12:10Z</time>
      </trkpt>
      <trkpt lat="42.4446180" lon="-8.5366350">
        <ele>308.0</ele>
        <time>2022-08-28T18:12:12Z</time>
      </trkpt>
      <trkpt lat="42.4446490" lon="-8.5367470">
        <ele>307.8</ele>
        <time>2022-08-28T18:12:13Z</time>
      </trkpt>
      <trkpt lat="42.4447650" lon="-8.5374000">
        <ele>307.4</ele>
        <time>2022-08-28T18:12:19Z</time>
      </trkpt>
      <trkpt lat="42.4447520" lon="-8.5379370">
        <ele>307.6</ele>
        <time>2022-08-28T18:12:24Z</time>
      </trkpt>
      <trkpt lat="42.4447240" lon="-8.5385390">
        <ele>307.6</ele>
        <time>2022-08-28T18:12:30Z</time>
      </trkpt>
      <trkpt lat="42.4446780" lon="-8.5391440">
        <ele>307.6</ele>
        <time>2022-08-28T18:12:37Z</time>
      </trkpt>
      <trkpt lat="42.4445380" lon="-8.5394690">
        <ele>307.6</ele>
        <time>2022-08-28T18:12:41Z</time>
      </trkpt>
      <trkpt lat="42.4444260" lon="-8.5396100">
        <ele>307.6</ele>
        <time>2022-08-28T18:12:43Z</time>
      </trkpt>
      <trkpt lat="42.4442320" lon="-8.5397960">
        <ele>307.2</ele>
        <time>2022-08-28T18:12:46Z</time>
      </trkpt>
      <trkpt lat="42.4441570" lon="-8.5398380">
        <ele>307.0</ele>
        <time>2022-08-28T18:12:47Z</time>
      </trkpt>
      <trkpt lat="42.4439100" lon="-8.5399040">
        <ele>306.4</ele>
        <time>2022-08-28T18:12:50Z</time>
      </trkpt>
      <trkpt lat="42.4438230" lon="-8.5399190">
        <ele>306.2</ele>
        <time>2022-08-28T18:12:51Z</time>
      </trkpt>
      <trkpt lat="42.4435610" lon="-8.5399690">
        <ele>305.0</ele>
        <time>2022-08-28T18:12:54Z</time>
      </trkpt>
      <trkpt lat="42.4432960" lon="-8.5400080">
        <ele>303.8</ele>
        <time>2022-08-28T18:12:57Z</time>
      </trkpt>
      <trkpt lat="42.4431170" lon="-8.5400410">
        <ele>303.0</ele>
        <time>2022-08-28T18:12:59Z</time>
      </trkpt>
      <trkpt lat="42.4430280" lon="-8.5400650">
        <ele>302.6</ele>
        <time>2022-08-28T18:13:00Z</time>
      </trkpt>
      <trkpt lat="42.4428510" lon="-8.5401400">
        <ele>301.2</ele>
        <time>2022-08-28T18:13:02Z</time>
      </trkpt>
      <trkpt lat="42.4427690" lon="-8.5401950">
        <ele>300.8</ele>
        <time>2022-08-28T18:13:03Z</time>
      </trkpt>
      <trkpt lat="42.4426140" lon="-8.5403320">
        <ele>300.0</ele>
        <time>2022-08-28T18:13:05Z</time>
      </trkpt>
      <trkpt lat="42.4424610" lon="-8.5404770">
        <ele>298.8</ele>
        <time>2022-08-28T18:13:07Z</time>
      </trkpt>
      <trkpt lat="42.4423090" lon="-8.5406230">
        <ele>297.6</ele>
        <time>2022-08-28T18:13:09Z</time>
      </trkpt>
      <trkpt lat="42.4422330" lon="-8.5406970">
        <ele>297.2</ele>
        <time>2022-08-28T18:13:10Z</time>
      </trkpt>
      <trkpt lat="42.4420800" lon="-8.5408440">
        <ele>296.4</ele>
        <time>2022-08-28T18:13:12Z</time>
      </trkpt>
      <trkpt lat="42.4418560" lon="-8.5410640">
        <ele>295.0</ele>
        <time>2022-08-28T18:13:15Z</time>
      </trkpt>
      <trkpt lat="42.4417890" lon="-8.5411480">
        <ele>294.4</ele>
        <time>2022-08-28T18:13:16Z</time>
      </trkpt>
      <trkpt lat="42.4417340" lon="-8.5412470">
        <ele>293.6</ele>
        <time>2022-08-28T18:13:17Z</time>
      </trkpt>
      <trkpt lat="42.4416530" lon="-8.5414860">
        <ele>292.4</ele>
        <time>2022-08-28T18:13:19Z</time>
      </trkpt>
      <trkpt lat="42.4416160" lon="-8.5416130">
        <ele>291.8</ele>
        <time>2022-08-28T18:13:20Z</time>
      </trkpt>
      <trkpt lat="42.4415770" lon="-8.5417380">
        <ele>291.2</ele>
        <time>2022-08-28T18:13:21Z</time>
      </trkpt>
      <trkpt lat="42.4415320" lon="-8.5418570">
        <ele>290.8</ele>
        <time>2022-08-28T18:13:22Z</time>
      </trkpt>
      <trkpt lat="42.4414230" lon="-8.5420760">
        <ele>289.8</ele>
        <time>2022-08-28T18:13:24Z</time>
      </trkpt>
      <trkpt lat="42.4413030" lon="-8.5422880">
        <ele>288.6</ele>
        <time>2022-08-28T18:13:26Z</time>
      </trkpt>
      <trkpt lat="42.4411440" lon="-8.5426350">
        <ele>287.2</ele>
        <time>2022-08-28T18:13:29Z</time>
      </trkpt>
      <trkpt lat="42.4410720" lon="-8.5430390">
        <ele>285.8</ele>
        <time>2022-08-28T18:13:32Z</time>
      </trkpt>
      <trkpt lat="42.4410620" lon="-8.5431710">
        <ele>285.4</ele>
        <time>2022-08-28T18:13:33Z</time>
      </trkpt>
      <trkpt lat="42.4410410" lon="-8.5434280">
        <ele>284.4</ele>
        <time>2022-08-28T18:13:35Z</time>
      </trkpt>
      <trkpt lat="42.4410020" lon="-8.5436700">
        <ele>283.2</ele>
        <time>2022-08-28T18:13:37Z</time>
      </trkpt>
      <trkpt lat="42.4409720" lon="-8.5437810">
        <ele>282.6</ele>
        <time>2022-08-28T18:13:38Z</time>
      </trkpt>
      <trkpt lat="42.4409350" lon="-8.5438860">
        <ele>282.2</ele>
        <time>2022-08-28T18:13:39Z</time>
      </trkpt>
      <trkpt lat="42.4408420" lon="-8.5440680">
        <ele>281.2</ele>
        <time>2022-08-28T18:13:41Z</time>
      </trkpt>
      <trkpt lat="42.4407870" lon="-8.5441450">
        <ele>280.8</ele>
        <time>2022-08-28T18:13:42Z</time>
      </trkpt>
      <trkpt lat="42.4406700" lon="-8.5442750">
        <ele>280.4</ele>
        <time>2022-08-28T18:13:44Z</time>
      </trkpt>
      <trkpt lat="42.4406100" lon="-8.5443300">
        <ele>280.2</ele>
        <time>2022-08-28T18:13:45Z</time>
      </trkpt>
      <trkpt lat="42.4404860" lon="-8.5444330">
        <ele>280.2</ele>
        <time>2022-08-28T18:13:47Z</time>
      </trkpt>
      <trkpt lat="42.4401770" lon="-8.5447050">
        <ele>280.0</ele>
        <time>2022-08-28T18:13:52Z</time>
      </trkpt>
      <trkpt lat="42.4401240" lon="-8.5447780">
        <ele>280.0</ele>
        <time>2022-08-28T18:13:53Z</time>
      </trkpt>
      <trkpt lat="42.4399970" lon="-8.5450620">
        <ele>279.8</ele>
        <time>2022-08-28T18:13:56Z</time>
      </trkpt>
      <trkpt lat="42.4399430" lon="-8.5455080">
        <ele>279.4</ele>
        <time>2022-08-28T18:14:00Z</time>
      </trkpt>
      <trkpt lat="42.4399580" lon="-8.5459450">
        <ele>278.2</ele>
        <time>2022-08-28T18:14:04Z</time>
      </trkpt>
      <trkpt lat="42.4399730" lon="-8.5461650">
        <ele>277.2</ele>
        <time>2022-08-28T18:14:06Z</time>
      </trkpt>
      <trkpt lat="42.4399800" lon="-8.5462770">
        <ele>277.0</ele>
        <time>2022-08-28T18:14:07Z</time>
      </trkpt>
      <trkpt lat="42.4400370" lon="-8.5468680">
        <ele>275.8</ele>
        <time>2022-08-28T18:14:12Z</time>
      </trkpt>
      <trkpt lat="42.4400600" lon="-8.5469880">
        <ele>275.6</ele>
        <time>2022-08-28T18:14:13Z</time>
      </trkpt>
      <trkpt lat="42.4401880" lon="-8.5473130">
        <ele>274.6</ele>
        <time>2022-08-28T18:14:16Z</time>
      </trkpt>
      <trkpt lat="42.4403910" lon="-8.5475320">
        <ele>273.2</ele>
        <time>2022-08-28T18:14:19Z</time>
      </trkpt>
      <trkpt lat="42.4406290" lon="-8.5476200">
        <ele>272.0</ele>
        <time>2022-08-28T18:14:22Z</time>
      </trkpt>
      <trkpt lat="42.4407880" lon="-8.5476390">
        <ele>271.6</ele>
        <time>2022-08-28T18:14:24Z</time>
      </trkpt>
      <trkpt lat="42.4410330" lon="-8.5476520">
        <ele>271.4</ele>
        <time>2022-08-28T18:14:27Z</time>
      </trkpt>
      <trkpt lat="42.4413670" lon="-8.5476750">
        <ele>271.0</ele>
        <time>2022-08-28T18:14:31Z</time>
      </trkpt>
      <trkpt lat="42.4416370" lon="-8.5476900">
        <ele>270.4</ele>
        <time>2022-08-28T18:14:34Z</time>
      </trkpt>
      <trkpt lat="42.4418200" lon="-8.5477000">
        <ele>270.0</ele>
        <time>2022-08-28T18:14:36Z</time>
      </trkpt>
      <trkpt lat="42.4421050" lon="-8.5477110">
        <ele>268.8</ele>
        <time>2022-08-28T18:14:39Z</time>
      </trkpt>
      <trkpt lat="42.4423010" lon="-8.5477260">
        <ele>268.2</ele>
        <time>2022-08-28T18:14:41Z</time>
      </trkpt>
      <trkpt lat="42.4425100" lon="-8.5477420">
        <ele>267.2</ele>
        <time>2022-08-28T18:14:43Z</time>
      </trkpt>
      <trkpt lat="42.4427270" lon="-8.5477680">
        <ele>266.0</ele>
        <time>2022-08-28T18:14:45Z</time>
      </trkpt>
      <trkpt lat="42.4428390" lon="-8.5477910">
        <ele>265.4</ele>
        <time>2022-08-28T18:14:46Z</time>
      </trkpt>
      <trkpt lat="42.4429520" lon="-8.5478220">
        <ele>264.8</ele>
        <time>2022-08-28T18:14:47Z</time>
      </trkpt>
      <trkpt lat="42.4431800" lon="-8.5479100">
        <ele>263.6</ele>
        <time>2022-08-28T18:14:49Z</time>
      </trkpt>
      <trkpt lat="42.4432910" lon="-8.5479710">
        <ele>263.0</ele>
        <time>2022-08-28T18:14:50Z</time>
      </trkpt>
      <trkpt lat="42.4433990" lon="-8.5480460">
        <ele>262.4</ele>
        <time>2022-08-28T18:14:51Z</time>
      </trkpt>
      <trkpt lat="42.4436010" lon="-8.5482420">
        <ele>260.8</ele>
        <time>2022-08-28T18:14:53Z</time>
      </trkpt>
      <trkpt lat="42.4437750" lon="-8.5484850">
        <ele>259.2</ele>
        <time>2022-08-28T18:14:55Z</time>
      </trkpt>
      <trkpt lat="42.4438500" lon="-8.5486200">
        <ele>258.4</ele>
        <time>2022-08-28T18:14:56Z</time>
      </trkpt>
      <trkpt lat="42.4439130" lon="-8.5487630">
        <ele>257.8</ele>
        <time>2022-08-28T18:14:57Z</time>
      </trkpt>
      <trkpt lat="42.4440040" lon="-8.5490770">
        <ele>256.4</ele>
        <time>2022-08-28T18:14:59Z</time>
      </trkpt>
      <trkpt lat="42.4440360" lon="-8.5492410">
        <ele>255.0</ele>
        <time>2022-08-28T18:15:00Z</time>
      </trkpt>
      <trkpt lat="42.4440560" lon="-8.5494100">
        <ele>253.8</ele>
        <time>2022-08-28T18:15:01Z</time>
      </trkpt>
      <trkpt lat="42.4440640" lon="-8.5495800">
        <ele>252.8</ele>
        <time>2022-08-28T18:15:02Z</time>
      </trkpt>
      <trkpt lat="42.4440620" lon="-8.5497470">
        <ele>251.6</ele>
        <time>2022-08-28T18:15:03Z</time>
      </trkpt>
      <trkpt lat="42.4440260" lon="-8.5500730">
        <ele>249.8</ele>
        <time>2022-08-28T18:15:05Z</time>
      </trkpt>
      <trkpt lat="42.4439890" lon="-8.5502310">
        <ele>249.0</ele>
        <time>2022-08-28T18:15:06Z</time>
      </trkpt>
      <trkpt lat="42.4439440" lon="-8.5503770">
        <ele>248.0</ele>
        <time>2022-08-28T18:15:07Z</time>
      </trkpt>
      <trkpt lat="42.4438420" lon="-8.5506360">
        <ele>246.4</ele>
        <time>2022-08-28T18:15:09Z</time>
      </trkpt>
      <trkpt lat="42.4437230" lon="-8.5508620">
        <ele>245.2</ele>
        <time>2022-08-28T18:15:11Z</time>
      </trkpt>
      <trkpt lat="42.4436010" lon="-8.5510690">
        <ele>242.6</ele>
        <time>2022-08-28T18:15:13Z</time>
      </trkpt>
      <trkpt lat="42.4435380" lon="-8.5511670">
        <ele>242.0</ele>
        <time>2022-08-28T18:15:14Z</time>
      </trkpt>
      <trkpt lat="42.4434770" lon="-8.5512620">
        <ele>241.6</ele>
        <time>2022-08-28T18:15:15Z</time>
      </trkpt>
      <trkpt lat="42.4431790" lon="-8.5517110">
        <ele>240.4</ele>
        <time>2022-08-28T18:15:20Z</time>
      </trkpt>
      <trkpt lat="42.4431220" lon="-8.5517950">
        <ele>240.4</ele>
        <time>2022-08-28T18:15:21Z</time>
      </trkpt>
      <trkpt lat="42.4427870" lon="-8.5522830">
        <ele>239.4</ele>
        <time>2022-08-28T18:15:27Z</time>
      </trkpt>
      <trkpt lat="42.4426610" lon="-8.5524360">
        <ele>239.2</ele>
        <time>2022-08-28T18:15:29Z</time>
      </trkpt>
      <trkpt lat="42.4424380" lon="-8.5526130">
        <ele>238.6</ele>
        <time>2022-08-28T18:15:32Z</time>
      </trkpt>
      <trkpt lat="42.4423550" lon="-8.5526550">
        <ele>238.4</ele>
        <time>2022-08-28T18:15:33Z</time>
      </trkpt>
      <trkpt lat="42.4422690" lon="-8.5526880">
        <ele>238.0</ele>
        <time>2022-08-28T18:15:34Z</time>
      </trkpt>
      <trkpt lat="42.4420010" lon="-8.5527680">
        <ele>237.0</ele>
        <time>2022-08-28T18:15:37Z</time>
      </trkpt>
      <trkpt lat="42.4418210" lon="-8.5528280">
        <ele>236.2</ele>
        <time>2022-08-28T18:15:39Z</time>
      </trkpt>
      <trkpt lat="42.4417330" lon="-8.5528730">
        <ele>235.8</ele>
        <time>2022-08-28T18:15:40Z</time>
      </trkpt>
      <trkpt lat="42.4415670" lon="-8.5530040">
        <ele>234.6</ele>
        <time>2022-08-28T18:15:42Z</time>
      </trkpt>
      <trkpt lat="42.4413720" lon="-8.5533100">
        <ele>233.6</ele>
        <time>2022-08-28T18:15:45Z</time>
      </trkpt>
      <trkpt lat="42.4412960" lon="-8.5535740">
        <ele>232.4</ele>
        <time>2022-08-28T18:15:47Z</time>
      </trkpt>
      <trkpt lat="42.4412730" lon="-8.5537100">
        <ele>231.8</ele>
        <time>2022-08-28T18:15:48Z</time>
      </trkpt>
      <trkpt lat="42.4412550" lon="-8.5538490">
        <ele>231.2</ele>
        <time>2022-08-28T18:15:49Z</time>
      </trkpt>
      <trkpt lat="42.4412240" lon="-8.5541330">
        <ele>229.8</ele>
        <time>2022-08-28T18:15:51Z</time>
      </trkpt>
      <trkpt lat="42.4411900" lon="-8.5544210">
        <ele>228.2</ele>
        <time>2022-08-28T18:15:53Z</time>
      </trkpt>
      <trkpt lat="42.4411690" lon="-8.5545680">
        <ele>227.6</ele>
        <time>2022-08-28T18:15:54Z</time>
      </trkpt>
      <trkpt lat="42.4411490" lon="-8.5547150">
        <ele>226.8</ele>
        <time>2022-08-28T18:15:55Z</time>
      </trkpt>
      <trkpt lat="42.4411050" lon="-8.5550080">
        <ele>225.6</ele>
        <time>2022-08-28T18:15:57Z</time>
      </trkpt>
      <trkpt lat="42.4410560" lon="-8.5552920">
        <ele>224.2</ele>
        <time>2022-08-28T18:15:59Z</time>
      </trkpt>
      <trkpt lat="42.4410020" lon="-8.5555690">
        <ele>222.8</ele>
        <time>2022-08-28T18:16:01Z</time>
      </trkpt>
      <trkpt lat="42.4409470" lon="-8.5558340">
        <ele>221.4</ele>
        <time>2022-08-28T18:16:03Z</time>
      </trkpt>
      <trkpt lat="42.4408880" lon="-8.5560890">
        <ele>220.6</ele>
        <time>2022-08-28T18:16:05Z</time>
      </trkpt>
      <trkpt lat="42.4408260" lon="-8.5563340">
        <ele>219.8</ele>
        <time>2022-08-28T18:16:07Z</time>
      </trkpt>
      <trkpt lat="42.4407940" lon="-8.5564520">
        <ele>219.0</ele>
        <time>2022-08-28T18:16:08Z</time>
      </trkpt>
      <trkpt lat="42.4407290" lon="-8.5566820">
        <ele>217.2</ele>
        <time>2022-08-28T18:16:10Z</time>
      </trkpt>
      <trkpt lat="42.4406660" lon="-8.5569090">
        <ele>216.0</ele>
        <time>2022-08-28T18:16:12Z</time>
      </trkpt>
      <trkpt lat="42.4405350" lon="-8.5573640">
        <ele>215.4</ele>
        <time>2022-08-28T18:16:16Z</time>
      </trkpt>
      <trkpt lat="42.4404690" lon="-8.5575970">
        <ele>214.8</ele>
        <time>2022-08-28T18:16:18Z</time>
      </trkpt>
      <trkpt lat="42.4403380" lon="-8.5580740">
        <ele>213.6</ele>
        <time>2022-08-28T18:16:22Z</time>
      </trkpt>
      <trkpt lat="42.4402620" lon="-8.5584470">
        <ele>212.4</ele>
        <time>2022-08-28T18:16:25Z</time>
      </trkpt>
      <trkpt lat="42.4402640" lon="-8.5588270">
        <ele>211.2</ele>
        <time>2022-08-28T18:16:28Z</time>
      </trkpt>
      <trkpt lat="42.4402700" lon="-8.5589530">
        <ele>210.8</ele>
        <time>2022-08-28T18:16:29Z</time>
      </trkpt>
      <trkpt lat="42.4402680" lon="-8.5591990">
        <ele>210.0</ele>
        <time>2022-08-28T18:16:31Z</time>
      </trkpt>
      <trkpt lat="42.4402390" lon="-8.5594330">
        <ele>209.2</ele>
        <time>2022-08-28T18:16:33Z</time>
      </trkpt>
      <trkpt lat="42.4402140" lon="-8.5595440">
        <ele>208.8</ele>
        <time>2022-08-28T18:16:34Z</time>
      </trkpt>
      <trkpt lat="42.4401010" lon="-8.5599640">
        <ele>207.6</ele>
        <time>2022-08-28T18:16:38Z</time>
      </trkpt>
      <trkpt lat="42.4400740" lon="-8.5600660">
        <ele>207.4</ele>
        <time>2022-08-28T18:16:39Z</time>
      </trkpt>
      <trkpt lat="42.4399930" lon="-8.5604630">
        <ele>207.0</ele>
        <time>2022-08-28T18:16:43Z</time>
      </trkpt>
      <trkpt lat="42.4399930" lon="-8.5605630">
        <ele>207.0</ele>
        <time>2022-08-28T18:16:44Z</time>
      </trkpt>
      <trkpt lat="42.4400510" lon="-8.5608430">
        <ele>206.8</ele>
        <time>2022-08-28T18:16:47Z</time>
      </trkpt>
      <trkpt lat="42.4400800" lon="-8.5609340">
        <ele>206.8</ele>
        <time>2022-08-28T18:16:48Z</time>
      </trkpt>
      <trkpt lat="42.4401590" lon="-8.5611040">
        <ele>206.6</ele>
        <time>2022-08-28T18:16:50Z</time>
      </trkpt>
      <trkpt lat="42.4402180" lon="-8.5611720">
        <ele>206.6</ele>
        <time>2022-08-28T18:16:51Z</time>
      </trkpt>
      <trkpt lat="42.4406680" lon="-8.5616120">
        <ele>206.2</ele>
        <time>2022-08-28T18:16:58Z</time>
      </trkpt>
      <trkpt lat="42.4407220" lon="-8.5616950">
        <ele>206.0</ele>
        <time>2022-08-28T18:16:59Z</time>
      </trkpt>
      <trkpt lat="42.4408020" lon="-8.5618870">
        <ele>205.4</ele>
        <time>2022-08-28T18:17:01Z</time>
      </trkpt>
      <trkpt lat="42.4408570" lon="-8.5621000">
        <ele>204.8</ele>
        <time>2022-08-28T18:17:03Z</time>
      </trkpt>
      <trkpt lat="42.4409400" lon="-8.5624190">
        <ele>204.4</ele>
        <time>2022-08-28T18:17:06Z</time>
      </trkpt>
      <trkpt lat="42.4409770" lon="-8.5625210">
        <ele>204.0</ele>
        <time>2022-08-28T18:17:07Z</time>
      </trkpt>
      <trkpt lat="42.4411130" lon="-8.5628140">
        <ele>202.8</ele>
        <time>2022-08-28T18:17:10Z</time>
      </trkpt>
      <trkpt lat="42.4411960" lon="-8.5630160">
        <ele>202.2</ele>
        <time>2022-08-28T18:17:12Z</time>
      </trkpt>
      <trkpt lat="42.4412460" lon="-8.5632370">
        <ele>201.6</ele>
        <time>2022-08-28T18:17:14Z</time>
      </trkpt>
      <trkpt lat="42.4412950" lon="-8.5634630">
        <ele>201.0</ele>
        <time>2022-08-28T18:17:16Z</time>
      </trkpt>
      <trkpt lat="42.4413880" lon="-8.5636650">
        <ele>200.4</ele>
        <time>2022-08-28T18:17:18Z</time>
      </trkpt>
      <trkpt lat="42.4414490" lon="-8.5637520">
        <ele>200.2</ele>
        <time>2022-08-28T18:17:19Z</time>
      </trkpt>
      <trkpt lat="42.4415140" lon="-8.5638340">
        <ele>200.0</ele>
        <time>2022-08-28T18:17:20Z</time>
      </trkpt>
      <trkpt lat="42.4417100" lon="-8.5640820">
        <ele>199.4</ele>
        <time>2022-08-28T18:17:23Z</time>
      </trkpt>
      <trkpt lat="42.4417650" lon="-8.5641780">
        <ele>199.0</ele>
        <time>2022-08-28T18:17:24Z</time>
      </trkpt>
      <trkpt lat="42.4418560" lon="-8.5643990">
        <ele>198.2</ele>
        <time>2022-08-28T18:17:26Z</time>
      </trkpt>
      <trkpt lat="42.4419190" lon="-8.5646430">
        <ele>197.6</ele>
        <time>2022-08-28T18:17:28Z</time>
      </trkpt>
      <trkpt lat="42.4419390" lon="-8.5647720">
        <ele>197.2</ele>
        <time>2022-08-28T18:17:29Z</time>
      </trkpt>
      <trkpt lat="42.4419510" lon="-8.5649000">
        <ele>196.8</ele>
        <time>2022-08-28T18:17:30Z</time>
      </trkpt>
      <trkpt lat="42.4419480" lon="-8.5651570">
        <ele>196.2</ele>
        <time>2022-08-28T18:17:32Z</time>
      </trkpt>
      <trkpt lat="42.4419240" lon="-8.5652890">
        <ele>195.8</ele>
        <time>2022-08-28T18:17:33Z</time>
      </trkpt>
      <trkpt lat="42.4418460" lon="-8.5655410">
        <ele>194.8</ele>
        <time>2022-08-28T18:17:35Z</time>
      </trkpt>
      <trkpt lat="42.4417370" lon="-8.5657660">
        <ele>193.4</ele>
        <time>2022-08-28T18:17:37Z</time>
      </trkpt>
      <trkpt lat="42.4416770" lon="-8.5658720">
        <ele>192.6</ele>
        <time>2022-08-28T18:17:38Z</time>
      </trkpt>
      <trkpt lat="42.4416140" lon="-8.5659760">
        <ele>191.2</ele>
        <time>2022-08-28T18:17:39Z</time>
      </trkpt>
      <trkpt lat="42.4414850" lon="-8.5661870">
        <ele>190.2</ele>
        <time>2022-08-28T18:17:41Z</time>
      </trkpt>
      <trkpt lat="42.4413420" lon="-8.5663720">
        <ele>189.2</ele>
        <time>2022-08-28T18:17:43Z</time>
      </trkpt>
      <trkpt lat="42.4412570" lon="-8.5664490">
        <ele>188.8</ele>
        <time>2022-08-28T18:17:44Z</time>
      </trkpt>
      <trkpt lat="42.4409770" lon="-8.5666290">
        <ele>187.8</ele>
        <time>2022-08-28T18:17:47Z</time>
      </trkpt>
      <trkpt lat="42.4408800" lon="-8.5666840">
        <ele>187.4</ele>
        <time>2022-08-28T18:17:48Z</time>
      </trkpt>
      <trkpt lat="42.4406890" lon="-8.5668060">
        <ele>186.6</ele>
        <time>2022-08-28T18:17:50Z</time>
      </trkpt>
      <trkpt lat="42.4405110" lon="-8.5669660">
        <ele>185.4</ele>
        <time>2022-08-28T18:17:52Z</time>
      </trkpt>
      <trkpt lat="42.4402850" lon="-8.5672750">
        <ele>183.8</ele>
        <time>2022-08-28T18:17:55Z</time>
      </trkpt>
      <trkpt lat="42.4402220" lon="-8.5673930">
        <ele>183.2</ele>
        <time>2022-08-28T18:17:56Z</time>
      </trkpt>
      <trkpt lat="42.4401630" lon="-8.5675140">
        <ele>182.6</ele>
        <time>2022-08-28T18:17:57Z</time>
      </trkpt>
      <trkpt lat="42.4400490" lon="-8.5677590">
        <ele>181.2</ele>
        <time>2022-08-28T18:17:59Z</time>
      </trkpt>
      <trkpt lat="42.4399400" lon="-8.5680060">
        <ele>179.6</ele>
        <time>2022-08-28T18:18:01Z</time>
      </trkpt>
      <trkpt lat="42.4398350" lon="-8.5682490">
        <ele>178.4</ele>
        <time>2022-08-28T18:18:03Z</time>
      </trkpt>
      <trkpt lat="42.4397850" lon="-8.5683720">
        <ele>177.8</ele>
        <time>2022-08-28T18:18:04Z</time>
      </trkpt>
      <trkpt lat="42.4397400" lon="-8.5684950">
        <ele>177.2</ele>
        <time>2022-08-28T18:18:05Z</time>
      </trkpt>
      <trkpt lat="42.4396630" lon="-8.5687450">
        <ele>176.0</ele>
        <time>2022-08-28T18:18:07Z</time>
      </trkpt>
      <trkpt lat="42.4396330" lon="-8.5688690">
        <ele>174.8</ele>
        <time>2022-08-28T18:18:08Z</time>
      </trkpt>
      <trkpt lat="42.4396070" lon="-8.5689930">
        <ele>174.2</ele>
        <time>2022-08-28T18:18:09Z</time>
      </trkpt>
      <trkpt lat="42.4395660" lon="-8.5692380">
        <ele>173.4</ele>
        <time>2022-08-28T18:18:11Z</time>
      </trkpt>
      <trkpt lat="42.4395100" lon="-8.5695940">
        <ele>172.2</ele>
        <time>2022-08-28T18:18:14Z</time>
      </trkpt>
      <trkpt lat="42.4394710" lon="-8.5698270">
        <ele>171.6</ele>
        <time>2022-08-28T18:18:16Z</time>
      </trkpt>
      <trkpt lat="42.4393850" lon="-8.5701770">
        <ele>171.2</ele>
        <time>2022-08-28T18:18:19Z</time>
      </trkpt>
      <trkpt lat="42.4393370" lon="-8.5702890">
        <ele>171.2</ele>
        <time>2022-08-28T18:18:20Z</time>
      </trkpt>
      <trkpt lat="42.4391330" lon="-8.5705770">
        <ele>171.0</ele>
        <time>2022-08-28T18:18:23Z</time>
      </trkpt>
      <trkpt lat="42.4388670" lon="-8.5707860">
        <ele>170.0</ele>
        <time>2022-08-28T18:18:26Z</time>
      </trkpt>
      <trkpt lat="42.4387730" lon="-8.5708490">
        <ele>169.6</ele>
        <time>2022-08-28T18:18:27Z</time>
      </trkpt>
      <trkpt lat="42.4385840" lon="-8.5709760">
        <ele>168.6</ele>
        <time>2022-08-28T18:18:29Z</time>
      </trkpt>
      <trkpt lat="42.4382960" lon="-8.5711680">
        <ele>167.2</ele>
        <time>2022-08-28T18:18:32Z</time>
      </trkpt>
      <trkpt lat="42.4381030" lon="-8.5712930">
        <ele>165.6</ele>
        <time>2022-08-28T18:18:34Z</time>
      </trkpt>
      <trkpt lat="42.4379110" lon="-8.5714220">
        <ele>164.0</ele>
        <time>2022-08-28T18:18:36Z</time>
      </trkpt>
      <trkpt lat="42.4378130" lon="-8.5714870">
        <ele>162.4</ele>
        <time>2022-08-28T18:18:37Z</time>
      </trkpt>
      <trkpt lat="42.4377150" lon="-8.5715510">
        <ele>161.8</ele>
        <time>2022-08-28T18:18:38Z</time>
      </trkpt>
      <trkpt lat="42.4376170" lon="-8.5716160">
        <ele>161.2</ele>
        <time>2022-08-28T18:18:39Z</time>
      </trkpt>
      <trkpt lat="42.4374210" lon="-8.5717480">
        <ele>159.8</ele>
        <time>2022-08-28T18:18:41Z</time>
      </trkpt>
      <trkpt lat="42.4372230" lon="-8.5718810">
        <ele>158.4</ele>
        <time>2022-08-28T18:18:43Z</time>
      </trkpt>
      <trkpt lat="42.4370230" lon="-8.5720150">
        <ele>157.0</ele>
        <time>2022-08-28T18:18:45Z</time>
      </trkpt>
      <trkpt lat="42.4368190" lon="-8.5721500">
        <ele>155.4</ele>
        <time>2022-08-28T18:18:47Z</time>
      </trkpt>
      <trkpt lat="42.4367160" lon="-8.5722180">
        <ele>154.8</ele>
        <time>2022-08-28T18:18:48Z</time>
      </trkpt>
      <trkpt lat="42.4366120" lon="-8.5722860">
        <ele>154.2</ele>
        <time>2022-08-28T18:18:49Z</time>
      </trkpt>
      <trkpt lat="42.4364030" lon="-8.5724160">
        <ele>152.8</ele>
        <time>2022-08-28T18:18:51Z</time>
      </trkpt>
      <trkpt lat="42.4361880" lon="-8.5725210">
        <ele>151.2</ele>
        <time>2022-08-28T18:18:53Z</time>
      </trkpt>
      <trkpt lat="42.4360770" lon="-8.5725600">
        <ele>150.6</ele>
        <time>2022-08-28T18:18:54Z</time>
      </trkpt>
      <trkpt lat="42.4359630" lon="-8.5725840">
        <ele>149.8</ele>
        <time>2022-08-28T18:18:55Z</time>
      </trkpt>
      <trkpt lat="42.4357310" lon="-8.5725930">
        <ele>148.2</ele>
        <time>2022-08-28T18:18:57Z</time>
      </trkpt>
      <trkpt lat="42.4355010" lon="-8.5725480">
        <ele>146.8</ele>
        <time>2022-08-28T18:18:59Z</time>
      </trkpt>
      <trkpt lat="42.4353890" lon="-8.5725070">
        <ele>146.2</ele>
        <time>2022-08-28T18:19:00Z</time>
      </trkpt>
      <trkpt lat="42.4352770" lon="-8.5724520">
        <ele>145.6</ele>
        <time>2022-08-28T18:19:01Z</time>
      </trkpt>
      <trkpt lat="42.4351640" lon="-8.5723880">
        <ele>145.0</ele>
        <time>2022-08-28T18:19:02Z</time>
      </trkpt>
      <trkpt lat="42.4350500" lon="-8.5723260">
        <ele>144.2</ele>
        <time>2022-08-28T18:19:03Z</time>
      </trkpt>
      <trkpt lat="42.4348130" lon="-8.5722160">
        <ele>142.8</ele>
        <time>2022-08-28T18:19:05Z</time>
      </trkpt>
      <trkpt lat="42.4346890" lon="-8.5721860">
        <ele>141.8</ele>
        <time>2022-08-28T18:19:06Z</time>
      </trkpt>
      <trkpt lat="42.4344330" lon="-8.5722000">
        <ele>140.4</ele>
        <time>2022-08-28T18:19:08Z</time>
      </trkpt>
      <trkpt lat="42.4341940" lon="-8.5723210">
        <ele>138.8</ele>
        <time>2022-08-28T18:19:10Z</time>
      </trkpt>
      <trkpt lat="42.4340970" lon="-8.5724300">
        <ele>137.8</ele>
        <time>2022-08-28T18:19:11Z</time>
      </trkpt>
      <trkpt lat="42.4340180" lon="-8.5725700">
        <ele>137.2</ele>
        <time>2022-08-28T18:19:12Z</time>
      </trkpt>
      <trkpt lat="42.4339560" lon="-8.5727270">
        <ele>136.2</ele>
        <time>2022-08-28T18:19:13Z</time>
      </trkpt>
      <trkpt lat="42.4339190" lon="-8.5728990">
        <ele>135.4</ele>
        <time>2022-08-28T18:19:14Z</time>
      </trkpt>
      <trkpt lat="42.4338940" lon="-8.5730690">
        <ele>134.4</ele>
        <time>2022-08-28T18:19:15Z</time>
      </trkpt>
      <trkpt lat="42.4338770" lon="-8.5732390">
        <ele>133.2</ele>
        <time>2022-08-28T18:19:16Z</time>
      </trkpt>
      <trkpt lat="42.4338680" lon="-8.5734050">
        <ele>132.0</ele>
        <time>2022-08-28T18:19:17Z</time>
      </trkpt>
      <trkpt lat="42.4338740" lon="-8.5737350">
        <ele>130.0</ele>
        <time>2022-08-28T18:19:19Z</time>
      </trkpt>
      <trkpt lat="42.4338920" lon="-8.5738950">
        <ele>128.8</ele>
        <time>2022-08-28T18:19:20Z</time>
      </trkpt>
      <trkpt lat="42.4339210" lon="-8.5740510">
        <ele>127.8</ele>
        <time>2022-08-28T18:19:21Z</time>
      </trkpt>
      <trkpt lat="42.4340050" lon="-8.5743450">
        <ele>126.0</ele>
        <time>2022-08-28T18:19:23Z</time>
      </trkpt>
      <trkpt lat="42.4341270" lon="-8.5746060">
        <ele>124.4</ele>
        <time>2022-08-28T18:19:25Z</time>
      </trkpt>
      <trkpt lat="42.4341970" lon="-8.5747230">
        <ele>123.6</ele>
        <time>2022-08-28T18:19:26Z</time>
      </trkpt>
      <trkpt lat="42.4343550" lon="-8.5749300">
        <ele>121.8</ele>
        <time>2022-08-28T18:19:28Z</time>
      </trkpt>
      <trkpt lat="42.4345290" lon="-8.5751020">
        <ele>120.4</ele>
        <time>2022-08-28T18:19:30Z</time>
      </trkpt>
      <trkpt lat="42.4346200" lon="-8.5751780">
        <ele>119.6</ele>
        <time>2022-08-28T18:19:31Z</time>
      </trkpt>
      <trkpt lat="42.4347100" lon="-8.5752560">
        <ele>119.0</ele>
        <time>2022-08-28T18:19:32Z</time>
      </trkpt>
      <trkpt lat="42.4348910" lon="-8.5754040">
        <ele>117.8</ele>
        <time>2022-08-28T18:19:34Z</time>
      </trkpt>
      <trkpt lat="42.4350700" lon="-8.5755520">
        <ele>115.6</ele>
        <time>2022-08-28T18:19:36Z</time>
      </trkpt>
      <trkpt lat="42.4352490" lon="-8.5756960">
        <ele>114.4</ele>
        <time>2022-08-28T18:19:38Z</time>
      </trkpt>
      <trkpt lat="42.4354270" lon="-8.5758410">
        <ele>112.8</ele>
        <time>2022-08-28T18:19:40Z</time>
      </trkpt>
      <trkpt lat="42.4356960" lon="-8.5760570">
        <ele>111.2</ele>
        <time>2022-08-28T18:19:43Z</time>
      </trkpt>
      <trkpt lat="42.4358780" lon="-8.5762050">
        <ele>110.2</ele>
        <time>2022-08-28T18:19:45Z</time>
      </trkpt>
      <trkpt lat="42.4359700" lon="-8.5762790">
        <ele>109.6</ele>
        <time>2022-08-28T18:19:46Z</time>
      </trkpt>
      <trkpt lat="42.4360650" lon="-8.5763520">
        <ele>109.0</ele>
        <time>2022-08-28T18:19:47Z</time>
      </trkpt>
      <trkpt lat="42.4362490" lon="-8.5765050">
        <ele>107.6</ele>
        <time>2022-08-28T18:19:49Z</time>
      </trkpt>
      <trkpt lat="42.4364340" lon="-8.5766630">
        <ele>106.6</ele>
        <time>2022-08-28T18:19:51Z</time>
      </trkpt>
      <trkpt lat="42.4366010" lon="-8.5768480">
        <ele>105.4</ele>
        <time>2022-08-28T18:19:53Z</time>
      </trkpt>
      <trkpt lat="42.4367270" lon="-8.5770840">
        <ele>104.0</ele>
        <time>2022-08-28T18:19:55Z</time>
      </trkpt>
      <trkpt lat="42.4367710" lon="-8.5772190">
        <ele>103.2</ele>
        <time>2022-08-28T18:19:56Z</time>
      </trkpt>
      <trkpt lat="42.4368000" lon="-8.5773610">
        <ele>102.6</ele>
        <time>2022-08-28T18:19:57Z</time>
      </trkpt>
      <trkpt lat="42.4368100" lon="-8.5776560">
        <ele>101.2</ele>
        <time>2022-08-28T18:19:59Z</time>
      </trkpt>
      <trkpt lat="42.4367610" lon="-8.5779490">
        <ele>99.8</ele>
        <time>2022-08-28T18:20:01Z</time>
      </trkpt>
      <trkpt lat="42.4367230" lon="-8.5780890">
        <ele>99.2</ele>
        <time>2022-08-28T18:20:02Z</time>
      </trkpt>
      <trkpt lat="42.4366830" lon="-8.5782250">
        <ele>98.6</ele>
        <time>2022-08-28T18:20:03Z</time>
      </trkpt>
      <trkpt lat="42.4366050" lon="-8.5784980">
        <ele>96.6</ele>
        <time>2022-08-28T18:20:05Z</time>
      </trkpt>
      <trkpt lat="42.4365550" lon="-8.5787820">
        <ele>95.4</ele>
        <time>2022-08-28T18:20:07Z</time>
      </trkpt>
      <trkpt lat="42.4365490" lon="-8.5790710">
        <ele>94.2</ele>
        <time>2022-08-28T18:20:09Z</time>
      </trkpt>
      <trkpt lat="42.4365660" lon="-8.5792140">
        <ele>93.6</ele>
        <time>2022-08-28T18:20:10Z</time>
      </trkpt>
      <trkpt lat="42.4365970" lon="-8.5793520">
        <ele>92.8</ele>
        <time>2022-08-28T18:20:11Z</time>
      </trkpt>
      <trkpt lat="42.4367000" lon="-8.5796040">
        <ele>91.8</ele>
        <time>2022-08-28T18:20:13Z</time>
      </trkpt>
      <trkpt lat="42.4367690" lon="-8.5797150">
        <ele>91.6</ele>
        <time>2022-08-28T18:20:14Z</time>
      </trkpt>
      <trkpt lat="42.4369370" lon="-8.5798960">
        <ele>90.8</ele>
        <time>2022-08-28T18:20:16Z</time>
      </trkpt>
      <trkpt lat="42.4370330" lon="-8.5799670">
        <ele>90.2</ele>
        <time>2022-08-28T18:20:17Z</time>
      </trkpt>
      <trkpt lat="42.4372440" lon="-8.5800550">
        <ele>89.2</ele>
        <time>2022-08-28T18:20:19Z</time>
      </trkpt>
      <trkpt lat="42.4374700" lon="-8.5800450">
        <ele>87.4</ele>
        <time>2022-08-28T18:20:21Z</time>
      </trkpt>
      <trkpt lat="42.4375810" lon="-8.5800060">
        <ele>86.4</ele>
        <time>2022-08-28T18:20:22Z</time>
      </trkpt>
      <trkpt lat="42.4377840" lon="-8.5798780">
        <ele>84.6</ele>
        <time>2022-08-28T18:20:24Z</time>
      </trkpt>
      <trkpt lat="42.4378840" lon="-8.5798090">
        <ele>83.6</ele>
        <time>2022-08-28T18:20:25Z</time>
      </trkpt>
      <trkpt lat="42.4379810" lon="-8.5797460">
        <ele>82.8</ele>
        <time>2022-08-28T18:20:26Z</time>
      </trkpt>
      <trkpt lat="42.4381820" lon="-8.5796440">
        <ele>81.0</ele>
        <time>2022-08-28T18:20:28Z</time>
      </trkpt>
      <trkpt lat="42.4382860" lon="-8.5796130">
        <ele>80.2</ele>
        <time>2022-08-28T18:20:29Z</time>
      </trkpt>
      <trkpt lat="42.4383930" lon="-8.5795980">
        <ele>79.8</ele>
        <time>2022-08-28T18:20:30Z</time>
      </trkpt>
      <trkpt lat="42.4385960" lon="-8.5796240">
        <ele>78.6</ele>
        <time>2022-08-28T18:20:32Z</time>
      </trkpt>
      <trkpt lat="42.4387840" lon="-8.5797100">
        <ele>77.0</ele>
        <time>2022-08-28T18:20:34Z</time>
      </trkpt>
      <trkpt lat="42.4388720" lon="-8.5797670">
        <ele>75.6</ele>
        <time>2022-08-28T18:20:35Z</time>
      </trkpt>
      <trkpt lat="42.4389570" lon="-8.5798300">
        <ele>75.2</ele>
        <time>2022-08-28T18:20:36Z</time>
      </trkpt>
      <trkpt lat="42.4390410" lon="-8.5798950">
        <ele>74.6</ele>
        <time>2022-08-28T18:20:37Z</time>
      </trkpt>
      <trkpt lat="42.4393000" lon="-8.5800420">
        <ele>73.2</ele>
        <time>2022-08-28T18:20:40Z</time>
      </trkpt>
      <trkpt lat="42.4393910" lon="-8.5800720">
        <ele>72.8</ele>
        <time>2022-08-28T18:20:41Z</time>
      </trkpt>
      <trkpt lat="42.4395690" lon="-8.5801200">
        <ele>72.0</ele>
        <time>2022-08-28T18:20:43Z</time>
      </trkpt>
      <trkpt lat="42.4399160" lon="-8.5802220">
        <ele>71.0</ele>
        <time>2022-08-28T18:20:47Z</time>
      </trkpt>
      <trkpt lat="42.4400010" lon="-8.5802470">
        <ele>70.4</ele>
        <time>2022-08-28T18:20:48Z</time>
      </trkpt>
      <trkpt lat="42.4401710" lon="-8.5802930">
        <ele>69.8</ele>
        <time>2022-08-28T18:20:50Z</time>
      </trkpt>
      <trkpt lat="42.4405820" lon="-8.5804080">
        <ele>68.6</ele>
        <time>2022-08-28T18:20:55Z</time>
      </trkpt>
      <trkpt lat="42.4406650" lon="-8.5804330">
        <ele>68.2</ele>
        <time>2022-08-28T18:20:56Z</time>
      </trkpt>
      <trkpt lat="42.4408300" lon="-8.5804790">
        <ele>67.2</ele>
        <time>2022-08-28T18:20:58Z</time>
      </trkpt>
      <trkpt lat="42.4410720" lon="-8.5805570">
        <ele>66.2</ele>
        <time>2022-08-28T18:21:01Z</time>
      </trkpt>
      <trkpt lat="42.4411490" lon="-8.5806040">
        <ele>65.8</ele>
        <time>2022-08-28T18:21:02Z</time>
      </trkpt>
      <trkpt lat="42.4412170" lon="-8.5806710">
        <ele>65.2</ele>
        <time>2022-08-28T18:21:03Z</time>
      </trkpt>
      <trkpt lat="42.4413260" lon="-8.5808590">
        <ele>63.6</ele>
        <time>2022-08-28T18:21:05Z</time>
      </trkpt>
      <trkpt lat="42.4413770" lon="-8.5809610">
        <ele>63.2</ele>
        <time>2022-08-28T18:21:06Z</time>
      </trkpt>
      <trkpt lat="42.4414930" lon="-8.5811570">
        <ele>62.4</ele>
        <time>2022-08-28T18:21:08Z</time>
      </trkpt>
      <trkpt lat="42.4415630" lon="-8.5812400">
        <ele>62.0</ele>
        <time>2022-08-28T18:21:09Z</time>
      </trkpt>
      <trkpt lat="42.4417240" lon="-8.5813680">
        <ele>61.0</ele>
        <time>2022-08-28T18:21:11Z</time>
      </trkpt>
      <trkpt lat="42.4418100" lon="-8.5814220">
        <ele>60.4</ele>
        <time>2022-08-28T18:21:12Z</time>
      </trkpt>
      <trkpt lat="42.4418980" lon="-8.5814720">
        <ele>59.8</ele>
        <time>2022-08-28T18:21:13Z</time>
      </trkpt>
      <trkpt lat="42.4420770" lon="-8.5815640">
        <ele>58.4</ele>
        <time>2022-08-28T18:21:15Z</time>
      </trkpt>
      <trkpt lat="42.4421700" lon="-8.5816000">
        <ele>57.6</ele>
        <time>2022-08-28T18:21:16Z</time>
      </trkpt>
      <trkpt lat="42.4422650" lon="-8.5816150">
        <ele>57.0</ele>
        <time>2022-08-28T18:21:17Z</time>
      </trkpt>
      <trkpt lat="42.4423610" lon="-8.5816010">
        <ele>56.4</ele>
        <time>2022-08-28T18:21:18Z</time>
      </trkpt>
      <trkpt lat="42.4424510" lon="-8.5815590">
        <ele>55.8</ele>
        <time>2022-08-28T18:21:19Z</time>
      </trkpt>
      <trkpt lat="42.4426230" lon="-8.5814380">
        <ele>54.6</ele>
        <time>2022-08-28T18:21:21Z</time>
      </trkpt>
      <trkpt lat="42.4427890" lon="-8.5813050">
        <ele>53.2</ele>
        <time>2022-08-28T18:21:23Z</time>
      </trkpt>
      <trkpt lat="42.4430410" lon="-8.5811320">
        <ele>52.0</ele>
        <time>2022-08-28T18:21:26Z</time>
      </trkpt>
      <trkpt lat="42.4431300" lon="-8.5810990">
        <ele>51.2</ele>
        <time>2022-08-28T18:21:27Z</time>
      </trkpt>
      <trkpt lat="42.4432220" lon="-8.5810830">
        <ele>50.6</ele>
        <time>2022-08-28T18:21:28Z</time>
      </trkpt>
      <trkpt lat="42.4434090" lon="-8.5810860">
        <ele>49.2</ele>
        <time>2022-08-28T18:21:30Z</time>
      </trkpt>
      <trkpt lat="42.4435980" lon="-8.5810920">
        <ele>48.0</ele>
        <time>2022-08-28T18:21:32Z</time>
      </trkpt>
      <trkpt lat="42.4437890" lon="-8.5810980">
        <ele>46.4</ele>
        <time>2022-08-28T18:21:34Z</time>
      </trkpt>
      <trkpt lat="42.4440540" lon="-8.5811100">
        <ele>45.2</ele>
        <time>2022-08-28T18:21:37Z</time>
      </trkpt>
      <trkpt lat="42.4442080" lon="-8.5811230">
        <ele>43.8</ele>
        <time>2022-08-28T18:21:39Z</time>
      </trkpt>
      <trkpt lat="42.4443470" lon="-8.5811440">
        <ele>42.2</ele>
        <time>2022-08-28T18:21:41Z</time>
      </trkpt>
      <trkpt lat="42.4444070" lon="-8.5811590">
        <ele>41.6</ele>
        <time>2022-08-28T18:21:42Z</time>
      </trkpt>
      <trkpt lat="42.4444620" lon="-8.5811770">
        <ele>41.0</ele>
        <time>2022-08-28T18:21:43Z</time>
      </trkpt>
      <trkpt lat="42.4445670" lon="-8.5812150">
        <ele>39.8</ele>
        <time>2022-08-28T18:21:45Z</time>
      </trkpt>
      <trkpt lat="42.4446150" lon="-8.5812380">
        <ele>39.0</ele>
        <time>2022-08-28T18:21:46Z</time>
      </trkpt>
      <trkpt lat="42.4446580" lon="-8.5812710">
        <ele>38.2</ele>
        <time>2022-08-28T18:21:47Z</time>
      </trkpt>
      <trkpt lat="42.4446930" lon="-8.5813130">
        <ele>37.6</ele>
        <time>2022-08-28T18:21:48Z</time>
      </trkpt>
      <trkpt lat="42.4447120" lon="-8.5813680">
        <ele>37.0</ele>
        <time>2022-08-28T18:21:49Z</time>
      </trkpt>
      <trkpt lat="42.4446870" lon="-8.5814880">
        <ele>36.2</ele>
        <time>2022-08-28T18:21:51Z</time>
      </trkpt>
      <trkpt lat="42.4446480" lon="-8.5815310">
        <ele>36.0</ele>
        <time>2022-08-28T18:21:52Z</time>
      </trkpt>
      <trkpt lat="42.4445430" lon="-8.5815660">
        <ele>35.6</ele>
        <time>2022-08-28T18:21:54Z</time>
      </trkpt>
      <trkpt lat="42.4444870" lon="-8.5815730">
        <ele>35.6</ele>
        <time>2022-08-28T18:21:55Z</time>
      </trkpt>
      <trkpt lat="42.4444310" lon="-8.5815890">
        <ele>35.6</ele>
        <time>2022-08-28T18:21:56Z</time>
      </trkpt>
      <trkpt lat="42.4443360" lon="-8.5816630">
        <ele>35.4</ele>
        <time>2022-08-28T18:21:58Z</time>
      </trkpt>
      <trkpt lat="42.4442550" lon="-8.5817680">
        <ele>35.2</ele>
        <time>2022-08-28T18:22:00Z</time>
      </trkpt>
      <trkpt lat="42.4441650" lon="-8.5818790">
        <ele>34.8</ele>
        <time>2022-08-28T18:22:02Z</time>
      </trkpt>
      <trkpt lat="42.4440810" lon="-8.5820020">
        <ele>34.6</ele>
        <time>2022-08-28T18:22:04Z</time>
      </trkpt>
      <trkpt lat="42.4438600" lon="-8.5824390">
        <ele>34.2</ele>
        <time>2022-08-28T18:22:10Z</time>
      </trkpt>
      <trkpt lat="42.4438340" lon="-8.5825230">
        <ele>33.8</ele>
        <time>2022-08-28T18:22:11Z</time>
      </trkpt>
      <trkpt lat="42.4437700" lon="-8.5828760">
        <ele>33.0</ele>
        <time>2022-08-28T18:22:15Z</time>
      </trkpt>
      <trkpt lat="42.4437610" lon="-8.5829640">
        <ele>32.6</ele>
        <time>2022-08-28T18:22:16Z</time>
      </trkpt>
      <trkpt lat="42.4437060" lon="-8.5833770">
        <ele>31.4</ele>
        <time>2022-08-28T18:22:21Z</time>
      </trkpt>
      <trkpt lat="42.4436800" lon="-8.5838180">
        <ele>30.4</ele>
        <time>2022-08-28T18:22:27Z</time>
      </trkpt>
      <trkpt lat="42.4436480" lon="-8.5843410">
        <ele>30.0</ele>
        <time>2022-08-28T18:22:35Z</time>
      </trkpt>
      <trkpt lat="42.4436370" lon="-8.5846440">
        <ele>30.0</ele>
        <time>2022-08-28T18:22:40Z</time>
      </trkpt>
      <trkpt lat="42.4436490" lon="-8.5847600">
        <ele>29.8</ele>
        <time>2022-08-28T18:22:42Z</time>
      </trkpt>
      <trkpt lat="42.4436970" lon="-8.5849620">
        <ele>29.6</ele>
        <time>2022-08-28T18:22:46Z</time>
      </trkpt>
      <trkpt lat="42.4437500" lon="-8.5850680">
        <ele>29.4</ele>
        <time>2022-08-28T18:22:50Z</time>
      </trkpt>
      <trkpt lat="42.4438050" lon="-8.5851230">
        <ele>29.2</ele>
        <time>2022-08-28T18:22:53Z</time>
      </trkpt>
      <trkpt lat="42.4438520" lon="-8.5851630">
        <ele>29.0</ele>
        <time>2022-08-28T18:22:55Z</time>
      </trkpt>
      <trkpt lat="42.4439480" lon="-8.5852420">
        <ele>29.0</ele>
        <time>2022-08-28T18:22:58Z</time>
      </trkpt>
      <trkpt lat="42.4440340" lon="-8.5852960">
        <ele>29.0</ele>
        <time>2022-08-28T18:23:00Z</time>
      </trkpt>
      <trkpt lat="42.4442680" lon="-8.5853790">
        <ele>29.0</ele>
        <time>2022-08-28T18:23:05Z</time>
      </trkpt>
      <trkpt lat="42.4443650" lon="-8.5853980">
        <ele>29.0</ele>
        <time>2022-08-28T18:23:07Z</time>
      </trkpt>
      <trkpt lat="42.4448810" lon="-8.5854710">
        <ele>29.2</ele>
        <time>2022-08-28T18:23:18Z</time>
      </trkpt>
      <trkpt lat="42.4452590" lon="-8.5855780">
        <ele>29.6</ele>
        <time>2022-08-28T18:23:27Z</time>
      </trkpt>
      <trkpt lat="42.4455070" lon="-8.5857530">
        <ele>30.0</ele>
        <time>2022-08-28T18:23:34Z</time>
      </trkpt>
      <trkpt lat="42.4457020" lon="-8.5859330">
        <ele>30.6</ele>
        <time>2022-08-28T18:23:40Z</time>
      </trkpt>
      <trkpt lat="42.4457930" lon="-8.5860200">
        <ele>31.2</ele>
        <time>2022-08-28T18:23:43Z</time>
      </trkpt>
      <trkpt lat="42.4459950" lon="-8.5862000">
        <ele>31.8</ele>
        <time>2022-08-28T18:23:50Z</time>
      </trkpt>
      <trkpt lat="42.4460500" lon="-8.5862460">
        <ele>32.2</ele>
        <time>2022-08-28T18:23:52Z</time>
      </trkpt>
      <trkpt lat="42.4462110" lon="-8.5863860">
        <ele>32.8</ele>
        <time>2022-08-28T18:23:59Z</time>
      </trkpt>
      <trkpt lat="42.4462310" lon="-8.5864020">
        <ele>33.4</ele>
        <time>2022-08-28T18:24:00Z</time>
      </trkpt>
      <trkpt lat="42.4462710" lon="-8.5864300">
        <ele>34.0</ele>
        <time>2022-08-28T18:24:02Z</time>
      </trkpt>
      <trkpt lat="42.4463790" lon="-8.5864770">
        <ele>34.8</ele>
        <time>2022-08-28T18:24:07Z</time>
      </trkpt>
      <trkpt lat="42.4464190" lon="-8.5864900">
        <ele>35.0</ele>
        <time>2022-08-28T18:24:08Z</time>
      </trkpt>
      <trkpt lat="42.4465280" lon="-8.5865460">
        <ele>35.0</ele>
        <time>2022-08-28T18:24:10Z</time>
      </trkpt>
      <trkpt lat="42.4468400" lon="-8.5867280">
        <ele>35.0</ele>
        <time>2022-08-28T18:24:15Z</time>
      </trkpt>
      <trkpt lat="42.4470850" lon="-8.5868910">
        <ele>32.6</ele>
        <time>2022-08-28T18:24:20Z</time>
      </trkpt>
      <trkpt lat="42.4471670" lon="-8.5869610">
        <ele>31.0</ele>
        <time>2022-08-28T18:24:22Z</time>
      </trkpt>
      <trkpt lat="42.4472480" lon="-8.5870300">
        <ele>29.6</ele>
        <time>2022-08-28T18:24:24Z</time>
      </trkpt>
      <trkpt lat="42.4473160" lon="-8.5870940">
        <ele>28.2</ele>
        <time>2022-08-28T18:24:26Z</time>
      </trkpt>
      <trkpt lat="42.4473550" lon="-8.5871280">
        <ele>27.6</ele>
        <time>2022-08-28T18:24:27Z</time>
      </trkpt>
      <trkpt lat="42.4473970" lon="-8.5871740">
        <ele>27.0</ele>
        <time>2022-08-28T18:24:28Z</time>
      </trkpt>
      <trkpt lat="42.4474400" lon="-8.5872230">
        <ele>25.6</ele>
        <time>2022-08-28T18:24:29Z</time>
      </trkpt>
      <trkpt lat="42.4474770" lon="-8.5872750">
        <ele>25.2</ele>
        <time>2022-08-28T18:24:30Z</time>
      </trkpt>
      <trkpt lat="42.4475320" lon="-8.5873750">
        <ele>24.2</ele>
        <time>2022-08-28T18:24:32Z</time>
      </trkpt>
      <trkpt lat="42.4475730" lon="-8.5874610">
        <ele>23.2</ele>
        <time>2022-08-28T18:24:34Z</time>
      </trkpt>
      <trkpt lat="42.4476140" lon="-8.5875320">
        <ele>21.6</ele>
        <time>2022-08-28T18:24:36Z</time>
      </trkpt>
      <trkpt lat="42.4476620" lon="-8.5876090">
        <ele>20.6</ele>
        <time>2022-08-28T18:24:38Z</time>
      </trkpt>
      <trkpt lat="42.4476830" lon="-8.5876560">
        <ele>20.4</ele>
        <time>2022-08-28T18:24:39Z</time>
      </trkpt>
      <trkpt lat="42.4477990" lon="-8.5878860">
        <ele>20.0</ele>
        <time>2022-08-28T18:24:44Z</time>
      </trkpt>
      <trkpt lat="42.4478120" lon="-8.5879430">
        <ele>20.0</ele>
        <time>2022-08-28T18:24:45Z</time>
      </trkpt>
      <trkpt lat="42.4478370" lon="-8.5881570">
        <ele>19.8</ele>
        <time>2022-08-28T18:24:49Z</time>
      </trkpt>
      <trkpt lat="42.4478540" lon="-8.5884320">
        <ele>19.8</ele>
        <time>2022-08-28T18:24:54Z</time>
      </trkpt>
      <trkpt lat="42.4478500" lon="-8.5885930">
        <ele>20.0</ele>
        <time>2022-08-28T18:24:57Z</time>
      </trkpt>
      <trkpt lat="42.4478490" lon="-8.5886440">
        <ele>20.0</ele>
        <time>2022-08-28T18:24:58Z</time>
      </trkpt>
      <trkpt lat="42.4478570" lon="-8.5887870">
        <ele>20.2</ele>
        <time>2022-08-28T18:25:01Z</time>
      </trkpt>
      <trkpt lat="42.4478590" lon="-8.5888830">
        <ele>20.2</ele>
        <time>2022-08-28T18:25:03Z</time>
      </trkpt>
      <trkpt lat="42.4478640" lon="-8.5891770">
        <ele>20.4</ele>
        <time>2022-08-28T18:25:09Z</time>
      </trkpt>
      <trkpt lat="42.4478870" lon="-8.5894500">
        <ele>21.0</ele>
        <time>2022-08-28T18:25:14Z</time>
      </trkpt>
      <trkpt lat="42.4479060" lon="-8.5897020">
        <ele>21.4</ele>
        <time>2022-08-28T18:25:19Z</time>
      </trkpt>
      <trkpt lat="42.4479420" lon="-8.5899430">
        <ele>21.4</ele>
        <time>2022-08-28T18:25:23Z</time>
      </trkpt>
      <trkpt lat="42.4479650" lon="-8.5899980">
        <ele>21.4</ele>
        <time>2022-08-28T18:25:24Z</time>
      </trkpt>
      <trkpt lat="42.4480270" lon="-8.5901800">
        <ele>21.2</ele>
        <time>2022-08-28T18:25:27Z</time>
      </trkpt>
      <trkpt lat="42.4480840" lon="-8.5902960">
        <ele>21.0</ele>
        <time>2022-08-28T18:25:29Z</time>
      </trkpt>
      <trkpt lat="42.4482020" lon="-8.5905830">
        <ele>20.6</ele>
        <time>2022-08-28T18:25:34Z</time>
      </trkpt>
      <trkpt lat="42.4482320" lon="-8.5906250">
        <ele>20.6</ele>
        <time>2022-08-28T18:25:35Z</time>
      </trkpt>
      <trkpt lat="42.4483150" lon="-8.5907610">
        <ele>20.4</ele>
        <time>2022-08-28T18:25:38Z</time>
      </trkpt>
      <trkpt lat="42.4484010" lon="-8.5909160">
        <ele>20.0</ele>
        <time>2022-08-28T18:25:41Z</time>
      </trkpt>
      <trkpt lat="42.4486050" lon="-8.5911920">
        <ele>19.8</ele>
        <time>2022-08-28T18:25:47Z</time>
      </trkpt>
      <trkpt lat="42.4486910" lon="-8.5912690">
        <ele>19.8</ele>
        <time>2022-08-28T18:25:49Z</time>
      </trkpt>
      <trkpt lat="42.4487360" lon="-8.5912950">
        <ele>19.8</ele>
        <time>2022-08-28T18:25:50Z</time>
      </trkpt>
      <trkpt lat="42.4487760" lon="-8.5913270">
        <ele>19.8</ele>
        <time>2022-08-28T18:25:51Z</time>
      </trkpt>
      <trkpt lat="42.4488110" lon="-8.5913480">
        <ele>19.8</ele>
        <time>2022-08-28T18:25:52Z</time>
      </trkpt>
      <trkpt lat="42.4490490" lon="-8.5914680">
        <ele>19.8</ele>
        <time>2022-08-28T18:25:58Z</time>
      </trkpt>
      <trkpt lat="42.4493000" lon="-8.5915830">
        <ele>19.6</ele>
        <time>2022-08-28T18:26:04Z</time>
      </trkpt>
      <trkpt lat="42.4495010" lon="-8.5917210">
        <ele>19.8</ele>
        <time>2022-08-28T18:26:09Z</time>
      </trkpt>
      <trkpt lat="42.4495400" lon="-8.5917520">
        <ele>19.8</ele>
        <time>2022-08-28T18:26:10Z</time>
      </trkpt>
      <trkpt lat="42.4496880" lon="-8.5919000">
        <ele>19.6</ele>
        <time>2022-08-28T18:26:14Z</time>
      </trkpt>
      <trkpt lat="42.4499120" lon="-8.5922240">
        <ele>19.6</ele>
        <time>2022-08-28T18:26:21Z</time>
      </trkpt>
      <trkpt lat="42.4500900" lon="-8.5925040">
        <ele>19.2</ele>
        <time>2022-08-28T18:26:27Z</time>
      </trkpt>
      <trkpt lat="42.4502640" lon="-8.5927560">
        <ele>19.2</ele>
        <time>2022-08-28T18:26:33Z</time>
      </trkpt>
      <trkpt lat="42.4504640" lon="-8.5930920">
        <ele>18.8</ele>
        <time>2022-08-28T18:26:40Z</time>
      </trkpt>
      <trkpt lat="42.4506390" lon="-8.5934560">
        <ele>18.8</ele>
        <time>2022-08-28T18:26:46Z</time>
      </trkpt>
      <trkpt lat="42.4507430" lon="-8.5936880">
        <ele>18.6</ele>
        <time>2022-08-28T18:26:50Z</time>
      </trkpt>
      <trkpt lat="42.4507710" lon="-8.5937500">
        <ele>18.6</ele>
        <time>2022-08-28T18:26:51Z</time>
      </trkpt>
      <trkpt lat="42.4508220" lon="-8.5938740">
        <ele>18.6</ele>
        <time>2022-08-28T18:26:53Z</time>
      </trkpt>
      <trkpt lat="42.4509160" lon="-8.5940790">
        <ele>18.6</ele>
        <time>2022-08-28T18:26:57Z</time>
      </trkpt>
      <trkpt lat="42.4509580" lon="-8.5941870">
        <ele>18.4</ele>
        <time>2022-08-28T18:26:59Z</time>
      </trkpt>
      <trkpt lat="42.4510010" lon="-8.5942990">
        <ele>18.4</ele>
        <time>2022-08-28T18:27:01Z</time>
      </trkpt>
      <trkpt lat="42.4510770" lon="-8.5945070">
        <ele>18.4</ele>
        <time>2022-08-28T18:27:05Z</time>
      </trkpt>
      <trkpt lat="42.4511180" lon="-8.5946830">
        <ele>18.4</ele>
        <time>2022-08-28T18:27:08Z</time>
      </trkpt>
      <trkpt lat="42.4511310" lon="-8.5947930">
        <ele>18.4</ele>
        <time>2022-08-28T18:27:10Z</time>
      </trkpt>
      <trkpt lat="42.4511320" lon="-8.5949950">
        <ele>18.4</ele>
        <time>2022-08-28T18:27:13Z</time>
      </trkpt>
      <trkpt lat="42.4511360" lon="-8.5951090">
        <ele>18.4</ele>
        <time>2022-08-28T18:27:15Z</time>
      </trkpt>
      <trkpt lat="42.4511600" lon="-8.5953060">
        <ele>18.4</ele>
        <time>2022-08-28T18:27:19Z</time>
      </trkpt>
      <trkpt lat="42.4511860" lon="-8.5955570">
        <ele>18.4</ele>
        <time>2022-08-28T18:27:24Z</time>
      </trkpt>
      <trkpt lat="42.4512530" lon="-8.5958230">
        <ele>18.8</ele>
        <time>2022-08-28T18:27:29Z</time>
      </trkpt>
      <trkpt lat="42.4512730" lon="-8.5958950">
        <ele>18.8</ele>
        <time>2022-08-28T18:27:30Z</time>
      </trkpt>
      <trkpt lat="42.4513220" lon="-8.5960480">
        <ele>18.8</ele>
        <time>2022-08-28T18:27:32Z</time>
      </trkpt>
      <trkpt lat="42.4514080" lon="-8.5962100">
        <ele>18.8</ele>
        <time>2022-08-28T18:27:35Z</time>
      </trkpt>
      <trkpt lat="42.4514650" lon="-8.5964990">
        <ele>18.6</ele>
        <time>2022-08-28T18:27:40Z</time>
      </trkpt>
      <trkpt lat="42.4514300" lon="-8.5968670">
        <ele>18.2</ele>
        <time>2022-08-28T18:27:46Z</time>
      </trkpt>
      <trkpt lat="42.4514400" lon="-8.5971330">
        <ele>18.2</ele>
        <time>2022-08-28T18:27:51Z</time>
      </trkpt>
      <trkpt lat="42.4514700" lon="-8.5974700">
        <ele>18.2</ele>
        <time>2022-08-28T18:27:56Z</time>
      </trkpt>
      <trkpt lat="42.4514990" lon="-8.5977850">
        <ele>18.0</ele>
        <time>2022-08-28T18:28:01Z</time>
      </trkpt>
      <trkpt lat="42.4515260" lon="-8.5982700">
        <ele>18.0</ele>
        <time>2022-08-28T18:28:08Z</time>
      </trkpt>
      <trkpt lat="42.4515320" lon="-8.5984610">
        <ele>18.0</ele>
        <time>2022-08-28T18:28:11Z</time>
      </trkpt>
      <trkpt lat="42.4515180" lon="-8.5985810">
        <ele>18.0</ele>
        <time>2022-08-28T18:28:13Z</time>
      </trkpt>
      <trkpt lat="42.4514540" lon="-8.5989180">
        <ele>18.0</ele>
        <time>2022-08-28T18:28:19Z</time>
      </trkpt>
      <trkpt lat="42.4514630" lon="-8.5989800">
        <ele>18.0</ele>
        <time>2022-08-28T18:28:20Z</time>
      </trkpt>
      <trkpt lat="42.4515000" lon="-8.5990990">
        <ele>18.0</ele>
        <time>2022-08-28T18:28:22Z</time>
      </trkpt>
      <trkpt lat="42.4516190" lon="-8.5994310">
        <ele>17.6</ele>
        <time>2022-08-28T18:28:28Z</time>
      </trkpt>
      <trkpt lat="42.4516330" lon="-8.5994820">
        <ele>17.6</ele>
        <time>2022-08-28T18:28:29Z</time>
      </trkpt>
      <trkpt lat="42.4516960" lon="-8.5996880">
        <ele>17.6</ele>
        <time>2022-08-28T18:28:33Z</time>
      </trkpt>
      <trkpt lat="42.4517470" lon="-8.5999120">
        <ele>17.4</ele>
        <time>2022-08-28T18:28:38Z</time>
      </trkpt>
      <trkpt lat="42.4516810" lon="-8.6001370">
        <ele>17.4</ele>
        <time>2022-08-28T18:28:43Z</time>
      </trkpt>
      <trkpt lat="42.4516090" lon="-8.6003070">
        <ele>17.4</ele>
        <time>2022-08-28T18:28:46Z</time>
      </trkpt>
      <trkpt lat="42.4515780" lon="-8.6004300">
        <ele>17.4</ele>
        <time>2022-08-28T18:28:48Z</time>
      </trkpt>
      <trkpt lat="42.4515760" lon="-8.6006610">
        <ele>17.4</ele>
        <time>2022-08-28T18:28:52Z</time>
      </trkpt>
      <trkpt lat="42.4516330" lon="-8.6008580">
        <ele>17.6</ele>
        <time>2022-08-28T18:28:56Z</time>
      </trkpt>
      <trkpt lat="42.4516910" lon="-8.6009320">
        <ele>17.8</ele>
        <time>2022-08-28T18:28:58Z</time>
      </trkpt>
      <trkpt lat="42.4517520" lon="-8.6010270">
        <ele>17.8</ele>
        <time>2022-08-28T18:29:00Z</time>
      </trkpt>
      <trkpt lat="42.4517930" lon="-8.6010780">
        <ele>17.8</ele>
        <time>2022-08-28T18:29:01Z</time>
      </trkpt>
      <trkpt lat="42.4518780" lon="-8.6011600">
        <ele>17.8</ele>
        <time>2022-08-28T18:29:03Z</time>
      </trkpt>
      <trkpt lat="42.4520260" lon="-8.6013320">
        <ele>17.8</ele>
        <time>2022-08-28T18:29:07Z</time>
      </trkpt>
      <trkpt lat="42.4521920" lon="-8.6015840">
        <ele>17.8</ele>
        <time>2022-08-28T18:29:12Z</time>
      </trkpt>
      <trkpt lat="42.4522150" lon="-8.6016390">
        <ele>17.8</ele>
        <time>2022-08-28T18:29:13Z</time>
      </trkpt>
      <trkpt lat="42.4522690" lon="-8.6018830">
        <ele>17.6</ele>
        <time>2022-08-28T18:29:17Z</time>
      </trkpt>
      <trkpt lat="42.4522600" lon="-8.6019550">
        <ele>17.6</ele>
        <time>2022-08-28T18:29:18Z</time>
      </trkpt>
      <trkpt lat="42.4521960" lon="-8.6023410">
        <ele>17.6</ele>
        <time>2022-08-28T18:29:24Z</time>
      </trkpt>
      <trkpt lat="42.4521820" lon="-8.6023950">
        <ele>17.6</ele>
        <time>2022-08-28T18:29:25Z</time>
      </trkpt>
      <trkpt lat="42.4521110" lon="-8.6025680">
        <ele>17.6</ele>
        <time>2022-08-28T18:29:28Z</time>
      </trkpt>
      <trkpt lat="42.4520500" lon="-8.6026870">
        <ele>17.6</ele>
        <time>2022-08-28T18:29:30Z</time>
      </trkpt>
      <trkpt lat="42.4519350" lon="-8.6028940">
        <ele>17.6</ele>
        <time>2022-08-28T18:29:34Z</time>
      </trkpt>
      <trkpt lat="42.4518800" lon="-8.6030030">
        <ele>17.4</ele>
        <time>2022-08-28T18:29:36Z</time>
      </trkpt>
      <trkpt lat="42.4518300" lon="-8.6030900">
        <ele>17.4</ele>
        <time>2022-08-28T18:29:38Z</time>
      </trkpt>
      <trkpt lat="42.4517510" lon="-8.6032450">
        <ele>17.4</ele>
        <time>2022-08-28T18:29:41Z</time>
      </trkpt>
      <trkpt lat="42.4516440" lon="-8.6034830">
        <ele>17.4</ele>
        <time>2022-08-28T18:29:46Z</time>
      </trkpt>
      <trkpt lat="42.4516220" lon="-8.6037280">
        <ele>17.0</ele>
        <time>2022-08-28T18:29:50Z</time>
      </trkpt>
      <trkpt lat="42.4516160" lon="-8.6038530">
        <ele>17.0</ele>
        <time>2022-08-28T18:29:52Z</time>
      </trkpt>
      <trkpt lat="42.4516060" lon="-8.6041240">
        <ele>17.0</ele>
        <time>2022-08-28T18:29:56Z</time>
      </trkpt>
      <trkpt lat="42.4515950" lon="-8.6043360">
        <ele>16.8</ele>
        <time>2022-08-28T18:29:59Z</time>
      </trkpt>
      <trkpt lat="42.4515900" lon="-8.6044070">
        <ele>16.8</ele>
        <time>2022-08-28T18:30:00Z</time>
      </trkpt>
      <trkpt lat="42.4515740" lon="-8.6045170">
        <ele>16.6</ele>
        <time>2022-08-28T18:30:02Z</time>
      </trkpt>
      <trkpt lat="42.4515540" lon="-8.6046570">
        <ele>16.8</ele>
        <time>2022-08-28T18:30:06Z</time>
      </trkpt>
      <trkpt lat="42.4515000" lon="-8.6048270">
        <ele>16.8</ele>
        <time>2022-08-28T18:30:13Z</time>
      </trkpt>
      <trkpt lat="42.4514630" lon="-8.6049710">
        <ele>17.0</ele>
        <time>2022-08-28T18:30:16Z</time>
      </trkpt>
      <trkpt lat="42.4513860" lon="-8.6052520">
        <ele>17.0</ele>
        <time>2022-08-28T18:30:22Z</time>
      </trkpt>
      <trkpt lat="42.4513090" lon="-8.6055280">
        <ele>17.2</ele>
        <time>2022-08-28T18:30:28Z</time>
      </trkpt>
      <trkpt lat="42.4513020" lon="-8.6057490">
        <ele>16.8</ele>
        <time>2022-08-28T18:30:32Z</time>
      </trkpt>
      <trkpt lat="42.4513640" lon="-8.6060490">
        <ele>16.8</ele>
        <time>2022-08-28T18:30:37Z</time>
      </trkpt>
      <trkpt lat="42.4514440" lon="-8.6064270">
        <ele>16.6</ele>
        <time>2022-08-28T18:30:44Z</time>
      </trkpt>
      <trkpt lat="42.4514900" lon="-8.6066520">
        <ele>16.6</ele>
        <time>2022-08-28T18:30:48Z</time>
      </trkpt>
      <trkpt lat="42.4515030" lon="-8.6067170">
        <ele>16.6</ele>
        <time>2022-08-28T18:30:49Z</time>
      </trkpt>
      <trkpt lat="42.4515770" lon="-8.6069860">
        <ele>16.4</ele>
        <time>2022-08-28T18:30:54Z</time>
      </trkpt>
      <trkpt lat="42.4516670" lon="-8.6072540">
        <ele>16.4</ele>
        <time>2022-08-28T18:30:59Z</time>
      </trkpt>
      <trkpt lat="42.4518070" lon="-8.6074980">
        <ele>16.4</ele>
        <time>2022-08-28T18:31:04Z</time>
      </trkpt>
      <trkpt lat="42.4519380" lon="-8.6078250">
        <ele>16.4</ele>
        <time>2022-08-28T18:31:10Z</time>
      </trkpt>
      <trkpt lat="42.4520180" lon="-8.6082410">
        <ele>16.4</ele>
        <time>2022-08-28T18:31:17Z</time>
      </trkpt>
      <trkpt lat="42.4520400" lon="-8.6085260">
        <ele>16.4</ele>
        <time>2022-08-28T18:31:22Z</time>
      </trkpt>
      <trkpt lat="42.4520210" lon="-8.6087630">
        <ele>16.4</ele>
        <time>2022-08-28T18:31:26Z</time>
      </trkpt>
      <trkpt lat="42.4520040" lon="-8.6090870">
        <ele>16.4</ele>
        <time>2022-08-28T18:31:32Z</time>
      </trkpt>
      <trkpt lat="42.4519930" lon="-8.6094840">
        <ele>16.2</ele>
        <time>2022-08-28T18:31:39Z</time>
      </trkpt>
      <trkpt lat="42.4519940" lon="-8.6097400">
        <ele>16.2</ele>
        <time>2022-08-28T18:31:44Z</time>
      </trkpt>
      <trkpt lat="42.4520340" lon="-8.6099980">
        <ele>16.2</ele>
        <time>2022-08-28T18:31:49Z</time>
      </trkpt>
      <trkpt lat="42.4520890" lon="-8.6103850">
        <ele>16.2</ele>
        <time>2022-08-28T18:31:55Z</time>
      </trkpt>
      <trkpt lat="42.4521180" lon="-8.6108040">
        <ele>16.2</ele>
        <time>2022-08-28T18:32:01Z</time>
      </trkpt>
      <trkpt lat="42.4520780" lon="-8.6111140">
        <ele>16.2</ele>
        <time>2022-08-28T18:32:06Z</time>
      </trkpt>
      <trkpt lat="42.4521150" lon="-8.6114130">
        <ele>16.4</ele>
        <time>2022-08-28T18:32:11Z</time>
      </trkpt>
      <trkpt lat="42.4521050" lon="-8.6117250">
        <ele>16.4</ele>
        <time>2022-08-28T18:32:16Z</time>
      </trkpt>
      <trkpt lat="42.4520550" lon="-8.6120330">
        <ele>16.6</ele>
        <time>2022-08-28T18:32:21Z</time>
      </trkpt>
      <trkpt lat="42.4520210" lon="-8.6123000">
        <ele>16.6</ele>
        <time>2022-08-28T18:32:26Z</time>
      </trkpt>
      <trkpt lat="42.4519310" lon="-8.6125910">
        <ele>16.4</ele>
        <time>2022-08-28T18:32:31Z</time>
      </trkpt>
      <trkpt lat="42.4517860" lon="-8.6128590">
        <ele>16.4</ele>
        <time>2022-08-28T18:32:37Z</time>
      </trkpt>
      <trkpt lat="42.4515830" lon="-8.6130040">
        <ele>15.8</ele>
        <time>2022-08-28T18:32:44Z</time>
      </trkpt>
      <trkpt lat="42.4514700" lon="-8.6130680">
        <ele>15.8</ele>
        <time>2022-08-28T18:32:49Z</time>
      </trkpt>
      <trkpt lat="42.4514020" lon="-8.6132150">
        <ele>15.6</ele>
        <time>2022-08-28T18:32:53Z</time>
      </trkpt>
      <trkpt lat="42.4514290" lon="-8.6134010">
        <ele>15.6</ele>
        <time>2022-08-28T18:32:58Z</time>
      </trkpt>
      <trkpt lat="42.4514410" lon="-8.6134340">
        <ele>15.6</ele>
        <time>2022-08-28T18:32:59Z</time>
      </trkpt>
      <trkpt lat="42.4515080" lon="-8.6135310">
        <ele>15.6</ele>
        <time>2022-08-28T18:33:02Z</time>
      </trkpt>
      <trkpt lat="42.4515880" lon="-8.6136610">
        <ele>15.6</ele>
        <time>2022-08-28T18:33:06Z</time>
      </trkpt>
      <trkpt lat="42.4516090" lon="-8.6137030">
        <ele>15.6</ele>
        <time>2022-08-28T18:33:07Z</time>
      </trkpt>
      <trkpt lat="42.4516760" lon="-8.6139330">
        <ele>15.6</ele>
        <time>2022-08-28T18:33:12Z</time>
      </trkpt>
      <trkpt lat="42.4516420" lon="-8.6142430">
        <ele>15.6</ele>
        <time>2022-08-28T18:33:17Z</time>
      </trkpt>
      <trkpt lat="42.4516430" lon="-8.6144880">
        <ele>15.4</ele>
        <time>2022-08-28T18:33:21Z</time>
      </trkpt>
      <trkpt lat="42.4516500" lon="-8.6145600">
        <ele>15.4</ele>
        <time>2022-08-28T18:33:22Z</time>
      </trkpt>
      <trkpt lat="42.4516610" lon="-8.6146950">
        <ele>15.4</ele>
        <time>2022-08-28T18:33:24Z</time>
      </trkpt>
      <trkpt lat="42.4516860" lon="-8.6148140">
        <ele>15.4</ele>
        <time>2022-08-28T18:33:26Z</time>
      </trkpt>
      <trkpt lat="42.4517010" lon="-8.6148740">
        <ele>15.4</ele>
        <time>2022-08-28T18:33:27Z</time>
      </trkpt>
      <trkpt lat="42.4517930" lon="-8.6151750">
        <ele>15.4</ele>
        <time>2022-08-28T18:33:33Z</time>
      </trkpt>
      <trkpt lat="42.4518110" lon="-8.6155180">
        <ele>15.4</ele>
        <time>2022-08-28T18:33:39Z</time>
      </trkpt>
      <trkpt lat="42.4517970" lon="-8.6158510">
        <ele>15.4</ele>
        <time>2022-08-28T18:33:45Z</time>
      </trkpt>
      <trkpt lat="42.4517450" lon="-8.6161610">
        <ele>15.4</ele>
        <time>2022-08-28T18:33:51Z</time>
      </trkpt>
      <trkpt lat="42.4516670" lon="-8.6163190">
        <ele>15.4</ele>
        <time>2022-08-28T18:33:56Z</time>
      </trkpt>
      <trkpt lat="42.4516430" lon="-8.6163490">
        <ele>15.4</ele>
        <time>2022-08-28T18:33:57Z</time>
      </trkpt>
      <trkpt lat="42.4515270" lon="-8.6164220">
        <ele>15.4</ele>
        <time>2022-08-28T18:34:01Z</time>
      </trkpt>
      <trkpt lat="42.4514750" lon="-8.6164700">
        <ele>15.4</ele>
        <time>2022-08-28T18:34:03Z</time>
      </trkpt>
      <trkpt lat="42.4514450" lon="-8.6165290">
        <ele>15.4</ele>
        <time>2022-08-28T18:34:05Z</time>
      </trkpt>
      <trkpt lat="42.4514560" lon="-8.6166720">
        <ele>15.4</ele>
        <time>2022-08-28T18:34:09Z</time>
      </trkpt>
      <trkpt lat="42.4514720" lon="-8.6167100">
        <ele>15.4</ele>
        <time>2022-08-28T18:34:10Z</time>
      </trkpt>
      <trkpt lat="42.4515090" lon="-8.6168660">
        <ele>15.4</ele>
        <time>2022-08-28T18:34:14Z</time>
      </trkpt>
      <trkpt lat="42.4515290" lon="-8.6171860">
        <ele>15.6</ele>
        <time>2022-08-28T18:34:21Z</time>
      </trkpt>
      <trkpt lat="42.4515370" lon="-8.6174260">
        <ele>15.6</ele>
        <time>2022-08-28T18:34:27Z</time>
      </trkpt>
      <trkpt lat="42.4515520" lon="-8.6175400">
        <ele>15.4</ele>
        <time>2022-08-28T18:34:33Z</time>
      </trkpt>
      <trkpt lat="42.4515740" lon="-8.6177000">
        <ele>15.4</ele>
        <time>2022-08-28T18:34:40Z</time>
      </trkpt>
      <trkpt lat="42.4516050" lon="-8.6179300">
        <ele>15.2</ele>
        <time>2022-08-28T18:34:47Z</time>
      </trkpt>
      <trkpt lat="42.4516120" lon="-8.6179720">
        <ele>15.2</ele>
        <time>2022-08-28T18:34:48Z</time>
      </trkpt>
      <trkpt lat="42.4516110" lon="-8.6181490">
        <ele>14.4</ele>
        <time>2022-08-28T18:34:52Z</time>
      </trkpt>
      <trkpt lat="42.4516090" lon="-8.6182440">
        <ele>14.0</ele>
        <time>2022-08-28T18:34:54Z</time>
      </trkpt>
      <trkpt lat="42.4515930" lon="-8.6184690">
        <ele>13.6</ele>
        <time>2022-08-28T18:34:59Z</time>
      </trkpt>
      <trkpt lat="42.4516250" lon="-8.6185810">
        <ele>13.0</ele>
        <time>2022-08-28T18:35:04Z</time>
      </trkpt>
      <trkpt lat="42.4516250" lon="-8.6186110">
        <ele>12.8</ele>
        <time>2022-08-28T18:35:05Z</time>
      </trkpt>
      <trkpt lat="42.4516370" lon="-8.6187200">
        <ele>12.2</ele>
        <time>2022-08-28T18:35:08Z</time>
      </trkpt>
      <trkpt lat="42.4516820" lon="-8.6189380">
        <ele>12.0</ele>
        <time>2022-08-28T18:35:14Z</time>
      </trkpt>
      <trkpt lat="42.4517510" lon="-8.6191920">
        <ele>12.2</ele>
        <time>2022-08-28T18:35:21Z</time>
      </trkpt>
      <trkpt lat="42.4518440" lon="-8.6194560">
        <ele>12.4</ele>
        <time>2022-08-28T18:35:27Z</time>
      </trkpt>
      <trkpt lat="42.4519920" lon="-8.6196690">
        <ele>12.4</ele>
        <time>2022-08-28T18:35:33Z</time>
      </trkpt>
      <trkpt lat="42.4521900" lon="-8.6198900">
        <ele>12.6</ele>
        <time>2022-08-28T18:35:40Z</time>
      </trkpt>
      <trkpt lat="42.4522610" lon="-8.6200490">
        <ele>12.8</ele>
        <time>2022-08-28T18:35:45Z</time>
      </trkpt>
      <trkpt lat="42.4522980" lon="-8.6201720">
        <ele>13.8</ele>
        <time>2022-08-28T18:35:50Z</time>
      </trkpt>
      <trkpt lat="42.4523020" lon="-8.6202130">
        <ele>14.0</ele>
        <time>2022-08-28T18:35:51Z</time>
      </trkpt>
      <trkpt lat="42.4523120" lon="-8.6203390">
        <ele>15.0</ele>
        <time>2022-08-28T18:35:55Z</time>
      </trkpt>
      <trkpt lat="42.4523230" lon="-8.6204200">
        <ele>15.4</ele>
        <time>2022-08-28T18:35:58Z</time>
      </trkpt>
      <trkpt lat="42.4523260" lon="-8.6205030">
        <ele>16.2</ele>
        <time>2022-08-28T18:36:01Z</time>
      </trkpt>
      <trkpt lat="42.4523250" lon="-8.6206010">
        <ele>17.0</ele>
        <time>2022-08-28T18:36:05Z</time>
      </trkpt>
      <trkpt lat="42.4523230" lon="-8.6206260">
        <ele>17.2</ele>
        <time>2022-08-28T18:36:06Z</time>
      </trkpt>
      <trkpt lat="42.4523160" lon="-8.6206980">
        <ele>17.8</ele>
        <time>2022-08-28T18:36:09Z</time>
      </trkpt>
      <trkpt lat="42.4522870" lon="-8.6207660">
        <ele>18.4</ele>
        <time>2022-08-28T18:36:12Z</time>
      </trkpt>
      <trkpt lat="42.4522220" lon="-8.6208750">
        <ele>18.8</ele>
        <time>2022-08-28T18:36:15Z</time>
      </trkpt>
      <trkpt lat="42.4521920" lon="-8.6209200">
        <ele>18.8</ele>
        <time>2022-08-28T18:36:16Z</time>
      </trkpt>
      <trkpt lat="42.4519850" lon="-8.6211630">
        <ele>18.8</ele>
        <time>2022-08-28T18:36:22Z</time>
      </trkpt>
      <trkpt lat="42.4518380" lon="-8.6212870">
        <ele>17.4</ele>
        <time>2022-08-28T18:36:26Z</time>
      </trkpt>
      <trkpt lat="42.4517200" lon="-8.6213600">
        <ele>16.2</ele>
        <time>2022-08-28T18:36:29Z</time>
      </trkpt>
      <trkpt lat="42.4515740" lon="-8.6214400">
        <ele>15.0</ele>
        <time>2022-08-28T18:36:32Z</time>
      </trkpt>
      <trkpt lat="42.4514780" lon="-8.6215070">
        <ele>14.4</ele>
        <time>2022-08-28T18:36:34Z</time>
      </trkpt>
      <trkpt lat="42.4513680" lon="-8.6215840">
        <ele>13.8</ele>
        <time>2022-08-28T18:36:36Z</time>
      </trkpt>
      <trkpt lat="42.4512120" lon="-8.6216730">
        <ele>12.4</ele>
        <time>2022-08-28T18:36:39Z</time>
      </trkpt>
      <trkpt lat="42.4511130" lon="-8.6217310">
        <ele>12.0</ele>
        <time>2022-08-28T18:36:41Z</time>
      </trkpt>
      <trkpt lat="42.4509800" lon="-8.6218180">
        <ele>11.2</ele>
        <time>2022-08-28T18:36:44Z</time>
      </trkpt>
      <trkpt lat="42.4509350" lon="-8.6218400">
        <ele>11.2</ele>
        <time>2022-08-28T18:36:45Z</time>
      </trkpt>
      <trkpt lat="42.4508410" lon="-8.6218960">
        <ele>11.0</ele>
        <time>2022-08-28T18:36:47Z</time>
      </trkpt>
      <trkpt lat="42.4506250" lon="-8.6220410">
        <ele>10.8</ele>
        <time>2022-08-28T18:36:52Z</time>
      </trkpt>
      <trkpt lat="42.4505800" lon="-8.6220720">
        <ele>10.8</ele>
        <time>2022-08-28T18:36:53Z</time>
      </trkpt>
      <trkpt lat="42.4502240" lon="-8.6222830">
        <ele>10.6</ele>
        <time>2022-08-28T18:37:00Z</time>
      </trkpt>
      <trkpt lat="42.4501290" lon="-8.6223640">
        <ele>10.4</ele>
        <time>2022-08-28T18:37:02Z</time>
      </trkpt>
      <trkpt lat="42.4500350" lon="-8.6224420">
        <ele>10.2</ele>
        <time>2022-08-28T18:37:04Z</time>
      </trkpt>
      <trkpt lat="42.4499910" lon="-8.6224770">
        <ele>10.2</ele>
        <time>2022-08-28T18:37:05Z</time>
      </trkpt>
      <trkpt lat="42.4497470" lon="-8.6226280">
        <ele>9.6</ele>
        <time>2022-08-28T18:37:10Z</time>
      </trkpt>
      <trkpt lat="42.4496980" lon="-8.6226620">
        <ele>9.4</ele>
        <time>2022-08-28T18:37:11Z</time>
      </trkpt>
      <trkpt lat="42.4495270" lon="-8.6228280">
        <ele>9.4</ele>
        <time>2022-08-28T18:37:15Z</time>
      </trkpt>
      <trkpt lat="42.4493360" lon="-8.6230870">
        <ele>9.6</ele>
        <time>2022-08-28T18:37:21Z</time>
      </trkpt>
      <trkpt lat="42.4491710" lon="-8.6232920">
        <ele>10.4</ele>
        <time>2022-08-28T18:37:27Z</time>
      </trkpt>
      <trkpt lat="42.4490410" lon="-8.6234780">
        <ele>11.0</ele>
        <time>2022-08-28T18:37:32Z</time>
      </trkpt>
      <trkpt lat="42.4488740" lon="-8.6238060">
        <ele>11.6</ele>
        <time>2022-08-28T18:37:39Z</time>
      </trkpt>
      <trkpt lat="42.4488120" lon="-8.6239630">
        <ele>11.8</ele>
        <time>2022-08-28T18:37:42Z</time>
      </trkpt>
      <trkpt lat="42.4487680" lon="-8.6240910">
        <ele>11.8</ele>
        <time>2022-08-28T18:37:44Z</time>
      </trkpt>
      <trkpt lat="42.4486740" lon="-8.6243760">
        <ele>12.0</ele>
        <time>2022-08-28T18:37:49Z</time>
      </trkpt>
      <trkpt lat="42.4485610" lon="-8.6246920">
        <ele>12.0</ele>
        <time>2022-08-28T18:37:55Z</time>
      </trkpt>
      <trkpt lat="42.4484190" lon="-8.6249490">
        <ele>12.0</ele>
        <time>2022-08-28T18:38:01Z</time>
      </trkpt>
      <trkpt lat="42.4482860" lon="-8.6251310">
        <ele>12.6</ele>
        <time>2022-08-28T18:38:07Z</time>
      </trkpt>
      <trkpt lat="42.4482430" lon="-8.6251930">
        <ele>12.8</ele>
        <time>2022-08-28T18:38:10Z</time>
      </trkpt>
      <trkpt lat="42.4481890" lon="-8.6252670">
        <ele>14.0</ele>
        <time>2022-08-28T18:38:13Z</time>
      </trkpt>
      <trkpt lat="42.4481690" lon="-8.6252990">
        <ele>14.2</ele>
        <time>2022-08-28T18:38:14Z</time>
      </trkpt>
      <trkpt lat="42.4480840" lon="-8.6254280">
        <ele>15.0</ele>
        <time>2022-08-28T18:38:19Z</time>
      </trkpt>
      <trkpt lat="42.4480400" lon="-8.6254870">
        <ele>15.4</ele>
        <time>2022-08-28T18:38:21Z</time>
      </trkpt>
      <trkpt lat="42.4479490" lon="-8.6255940">
        <ele>16.0</ele>
        <time>2022-08-28T18:38:25Z</time>
      </trkpt>
      <trkpt lat="42.4478650" lon="-8.6256790">
        <ele>16.8</ele>
        <time>2022-08-28T18:38:29Z</time>
      </trkpt>
      <trkpt lat="42.4478280" lon="-8.6257330">
        <ele>17.2</ele>
        <time>2022-08-28T18:38:31Z</time>
      </trkpt>
      <trkpt lat="42.4477170" lon="-8.6258420">
        <ele>17.8</ele>
        <time>2022-08-28T18:38:36Z</time>
      </trkpt>
      <trkpt lat="42.4476250" lon="-8.6259120">
        <ele>18.2</ele>
        <time>2022-08-28T18:38:40Z</time>
      </trkpt>
      <trkpt lat="42.4475550" lon="-8.6259560">
        <ele>19.0</ele>
        <time>2022-08-28T18:38:43Z</time>
      </trkpt>
      <trkpt lat="42.4475320" lon="-8.6259810">
        <ele>19.4</ele>
        <time>2022-08-28T18:38:44Z</time>
      </trkpt>
      <trkpt lat="42.4473930" lon="-8.6261330">
        <ele>20.4</ele>
        <time>2022-08-28T18:38:50Z</time>
      </trkpt>
      <trkpt lat="42.4472240" lon="-8.6263240">
        <ele>20.6</ele>
        <time>2022-08-28T18:38:57Z</time>
      </trkpt>
      <trkpt lat="42.4470420" lon="-8.6264210">
        <ele>20.8</ele>
        <time>2022-08-28T18:39:04Z</time>
      </trkpt>
      <trkpt lat="42.4469220" lon="-8.6264730">
        <ele>21.4</ele>
        <time>2022-08-28T18:39:10Z</time>
      </trkpt>
      <trkpt lat="42.4469020" lon="-8.6264840">
        <ele>22.0</ele>
        <time>2022-08-28T18:39:11Z</time>
      </trkpt>
      <trkpt lat="42.4468340" lon="-8.6265260">
        <ele>22.6</ele>
        <time>2022-08-28T18:39:14Z</time>
      </trkpt>
      <trkpt lat="42.4467620" lon="-8.6265870">
        <ele>23.4</ele>
        <time>2022-08-28T18:39:17Z</time>
      </trkpt>
      <trkpt lat="42.4467350" lon="-8.6266150">
        <ele>23.6</ele>
        <time>2022-08-28T18:39:18Z</time>
      </trkpt>
      <trkpt lat="42.4465750" lon="-8.6267620">
        <ele>24.2</ele>
        <time>2022-08-28T18:39:24Z</time>
      </trkpt>
      <trkpt lat="42.4464150" lon="-8.6268720">
        <ele>24.6</ele>
        <time>2022-08-28T18:39:30Z</time>
      </trkpt>
      <trkpt lat="42.4463880" lon="-8.6268900">
        <ele>24.6</ele>
        <time>2022-08-28T18:39:31Z</time>
      </trkpt>
      <trkpt lat="42.4462510" lon="-8.6269730">
        <ele>25.0</ele>
        <time>2022-08-28T18:39:36Z</time>
      </trkpt>
      <trkpt lat="42.4461540" lon="-8.6270710">
        <ele>25.4</ele>
        <time>2022-08-28T18:39:41Z</time>
      </trkpt>
      <trkpt lat="42.4461500" lon="-8.6270980">
        <ele>25.4</ele>
        <time>2022-08-28T18:39:42Z</time>
      </trkpt>
      <trkpt lat="42.4461740" lon="-8.6271560">
        <ele>25.8</ele>
        <time>2022-08-28T18:39:44Z</time>
      </trkpt>
      <trkpt lat="42.4461990" lon="-8.6271760">
        <ele>25.8</ele>
        <time>2022-08-28T18:39:45Z</time>
      </trkpt>
      <trkpt lat="42.4462820" lon="-8.6272210">
        <ele>26.2</ele>
        <time>2022-08-28T18:39:48Z</time>
      </trkpt>
      <trkpt lat="42.4464220" lon="-8.6272980">
        <ele>26.8</ele>
        <time>2022-08-28T18:39:53Z</time>
      </trkpt>
      <trkpt lat="42.4466610" lon="-8.6274280">
        <ele>27.4</ele>
        <time>2022-08-28T18:40:01Z</time>
      </trkpt>
      <trkpt lat="42.4467520" lon="-8.6274720">
        <ele>27.8</ele>
        <time>2022-08-28T18:40:04Z</time>
      </trkpt>
      <trkpt lat="42.4469030" lon="-8.6275480">
        <ele>28.4</ele>
        <time>2022-08-28T18:40:09Z</time>
      </trkpt>
      <trkpt lat="42.4470230" lon="-8.6276070">
        <ele>28.8</ele>
        <time>2022-08-28T18:40:13Z</time>
      </trkpt>
      <trkpt lat="42.4472260" lon="-8.6277110">
        <ele>29.6</ele>
        <time>2022-08-28T18:40:20Z</time>
      </trkpt>
      <trkpt lat="42.4472850" lon="-8.6277410">
        <ele>30.2</ele>
        <time>2022-08-28T18:40:22Z</time>
      </trkpt>
      <trkpt lat="42.4474900" lon="-8.6278490">
        <ele>31.0</ele>
        <time>2022-08-28T18:40:29Z</time>
      </trkpt>
      <trkpt lat="42.4475210" lon="-8.6278640">
        <ele>31.2</ele>
        <time>2022-08-28T18:40:30Z</time>
      </trkpt>
      <trkpt lat="42.4478070" lon="-8.6280240">
        <ele>32.4</ele>
        <time>2022-08-28T18:40:40Z</time>
      </trkpt>
      <trkpt lat="42.4479840" lon="-8.6281190">
        <ele>33.0</ele>
        <time>2022-08-28T18:40:46Z</time>
      </trkpt>
      <trkpt lat="42.4481160" lon="-8.6282000">
        <ele>33.6</ele>
        <time>2022-08-28T18:40:51Z</time>
      </trkpt>
      <trkpt lat="42.4482200" lon="-8.6282540">
        <ele>34.0</ele>
        <time>2022-08-28T18:40:55Z</time>
      </trkpt>
      <trkpt lat="42.4482970" lon="-8.6282890">
        <ele>34.6</ele>
        <time>2022-08-28T18:40:58Z</time>
      </trkpt>
      <trkpt lat="42.4484460" lon="-8.6283680">
        <ele>35.8</ele>
        <time>2022-08-28T18:41:04Z</time>
      </trkpt>
      <trkpt lat="42.4484940" lon="-8.6283930">
        <ele>36.2</ele>
        <time>2022-08-28T18:41:06Z</time>
      </trkpt>
      <trkpt lat="42.4485630" lon="-8.6284300">
        <ele>37.2</ele>
        <time>2022-08-28T18:41:09Z</time>
      </trkpt>
      <trkpt lat="42.4486790" lon="-8.6284790">
        <ele>38.2</ele>
        <time>2022-08-28T18:41:14Z</time>
      </trkpt>
      <trkpt lat="42.4487990" lon="-8.6285320">
        <ele>39.4</ele>
        <time>2022-08-28T18:41:19Z</time>
      </trkpt>
      <trkpt lat="42.4488750" lon="-8.6285720">
        <ele>40.0</ele>
        <time>2022-08-28T18:41:22Z</time>
      </trkpt>
      <trkpt lat="42.4489290" lon="-8.6285990">
        <ele>40.6</ele>
        <time>2022-08-28T18:41:24Z</time>
      </trkpt>
      <trkpt lat="42.4491160" lon="-8.6287120">
        <ele>41.8</ele>
        <time>2022-08-28T18:41:31Z</time>
      </trkpt>
      <trkpt lat="42.4492610" lon="-8.6288310">
        <ele>42.8</ele>
        <time>2022-08-28T18:41:36Z</time>
      </trkpt>
      <trkpt lat="42.4493180" lon="-8.6288860">
        <ele>43.0</ele>
        <time>2022-08-28T18:41:38Z</time>
      </trkpt>
      <trkpt lat="42.4495300" lon="-8.6291510">
        <ele>43.2</ele>
        <time>2022-08-28T18:41:45Z</time>
      </trkpt>
      <trkpt lat="42.4497330" lon="-8.6295340">
        <ele>43.2</ele>
        <time>2022-08-28T18:41:52Z</time>
      </trkpt>
      <trkpt lat="42.4498900" lon="-8.6299480">
        <ele>42.8</ele>
        <time>2022-08-28T18:41:59Z</time>
      </trkpt>
      <trkpt lat="42.4499970" lon="-8.6303930">
        <ele>42.8</ele>
        <time>2022-08-28T18:42:07Z</time>
      </trkpt>
      <trkpt lat="42.4500450" lon="-8.6308280">
        <ele>43.6</ele>
        <time>2022-08-28T18:42:15Z</time>
      </trkpt>
      <trkpt lat="42.4500650" lon="-8.6309880">
        <ele>43.8</ele>
        <time>2022-08-28T18:42:18Z</time>
      </trkpt>
      <trkpt lat="42.4500910" lon="-8.6311990">
        <ele>44.0</ele>
        <time>2022-08-28T18:42:22Z</time>
      </trkpt>
      <trkpt lat="42.4501450" lon="-8.6315300">
        <ele>44.6</ele>
        <time>2022-08-28T18:42:29Z</time>
      </trkpt>
      <trkpt lat="42.4502520" lon="-8.6315430">
        <ele>44.8</ele>
        <time>2022-08-28T18:42:33Z</time>
      </trkpt>
      <trkpt lat="42.4502780" lon="-8.6315330">
        <ele>44.8</ele>
        <time>2022-08-28T18:42:34Z</time>
      </trkpt>
      <trkpt lat="42.4503570" lon="-8.6314720">
        <ele>45.2</ele>
        <time>2022-08-28T18:42:37Z</time>
      </trkpt>
      <trkpt lat="42.4503740" lon="-8.6314310">
        <ele>45.4</ele>
        <time>2022-08-28T18:42:38Z</time>
      </trkpt>
      <trkpt lat="42.4504190" lon="-8.6312870">
        <ele>46.2</ele>
        <time>2022-08-28T18:42:41Z</time>
      </trkpt>
      <trkpt lat="42.4504890" lon="-8.6310490">
        <ele>46.6</ele>
        <time>2022-08-28T18:42:46Z</time>
      </trkpt>
      <trkpt lat="42.4505540" lon="-8.6308010">
        <ele>47.2</ele>
        <time>2022-08-28T18:42:51Z</time>
      </trkpt>
      <trkpt lat="42.4506370" lon="-8.6305060">
        <ele>47.6</ele>
        <time>2022-08-28T18:42:57Z</time>
      </trkpt>
      <trkpt lat="42.4507440" lon="-8.6301130">
        <ele>48.4</ele>
        <time>2022-08-28T18:43:05Z</time>
      </trkpt>
      <trkpt lat="42.4507730" lon="-8.6299630">
        <ele>48.4</ele>
        <time>2022-08-28T18:43:08Z</time>
      </trkpt>
      <trkpt lat="42.4507960" lon="-8.6296390">
        <ele>49.0</ele>
        <time>2022-08-28T18:43:14Z</time>
      </trkpt>
      <trkpt lat="42.4508760" lon="-8.6293500">
        <ele>49.4</ele>
        <time>2022-08-28T18:43:20Z</time>
      </trkpt>
      <trkpt lat="42.4509020" lon="-8.6293100">
        <ele>49.6</ele>
        <time>2022-08-28T18:43:21Z</time>
      </trkpt>
      <trkpt lat="42.4510420" lon="-8.6291650">
        <ele>50.4</ele>
        <time>2022-08-28T18:43:25Z</time>
      </trkpt>
      <trkpt lat="42.4513250" lon="-8.6288630">
        <ele>50.4</ele>
        <time>2022-08-28T18:43:32Z</time>
      </trkpt>
      <trkpt lat="42.4515190" lon="-8.6285470">
        <ele>50.2</ele>
        <time>2022-08-28T18:43:39Z</time>
      </trkpt>
      <trkpt lat="42.4514590" lon="-8.6284640">
        <ele>50.2</ele>
        <time>2022-08-28T18:43:42Z</time>
      </trkpt>
      <trkpt lat="42.4512680" lon="-8.6282650">
        <ele>49.6</ele>
        <time>2022-08-28T18:43:49Z</time>
      </trkpt>
      <trkpt lat="42.4510280" lon="-8.6280330">
        <ele>49.4</ele>
        <time>2022-08-28T18:43:57Z</time>
      </trkpt>
      <trkpt lat="42.4508260" lon="-8.6278250">
        <ele>49.4</ele>
        <time>2022-08-28T18:44:04Z</time>
      </trkpt>
      <trkpt lat="42.4506320" lon="-8.6276140">
        <ele>49.2</ele>
        <time>2022-08-28T18:44:12Z</time>
      </trkpt>
      <trkpt lat="42.4505370" lon="-8.6275190">
        <ele>49.2</ele>
        <time>2022-08-28T18:44:18Z</time>
      </trkpt>
      <trkpt lat="42.4505350" lon="-8.6275190">
        <ele>49.4</ele>
        <time>2022-08-28T18:44:20Z</time>
      </trkpt>
    </trkseg>
  </trk>
</gpx>
